<?xml version="1.0" encoding="UTF-8" standalone="no" ?>
<gpx xmlns="http://www.topografix.com/GPX/1/1" xmlns:xsi="http://www.w3.org/2001/XMLSchema-instance" xsi:schemaLocation="http://www.topografix.com/GPX/1/1 http://www.topografix.com/GPX/1/1/gpx.xsd" version="1.1" creator="VisuGPX - https://www.visugpx.com">
  <metadata>
    <name>85. Back to Ginals 11ème étape</name>
  </metadata>
  <trk>
    <name><![CDATA[85. Back to Ginals 11ème étape_1]]></name>
    <trkseg>
      <trkpt lat="44.06926" lon="0.89928">
        <ele>133</ele>
        <time>2023-07-06T05:36:55Z</time>
      </trkpt>
      <trkpt lat="44.0694" lon="0.89963">
        <ele>133</ele>
        <time>2023-07-06T05:36:57Z</time>
      </trkpt>
      <trkpt lat="44.06943" lon="0.89956">
        <ele>133.2</ele>
        <time>2023-07-06T05:37:01Z</time>
      </trkpt>
      <trkpt lat="44.06951" lon="0.89956">
        <ele>134.2</ele>
        <time>2023-07-06T05:37:08Z</time>
      </trkpt>
      <trkpt lat="44.06955" lon="0.89957">
        <ele>134.4</ele>
        <time>2023-07-06T05:37:12Z</time>
      </trkpt>
      <trkpt lat="44.06959" lon="0.89958">
        <ele>134.6</ele>
        <time>2023-07-06T05:37:15Z</time>
      </trkpt>
      <trkpt lat="44.06961" lon="0.89959">
        <ele>134.6</ele>
        <time>2023-07-06T05:37:17Z</time>
      </trkpt>
      <trkpt lat="44.0697" lon="0.89962">
        <ele>134.8</ele>
        <time>2023-07-06T05:37:24Z</time>
      </trkpt>
      <trkpt lat="44.06973" lon="0.89964">
        <ele>134.6</ele>
        <time>2023-07-06T05:37:26Z</time>
      </trkpt>
      <trkpt lat="44.06987" lon="0.89966">
        <ele>134.8</ele>
        <time>2023-07-06T05:37:38Z</time>
      </trkpt>
      <trkpt lat="44.06991" lon="0.89966">
        <ele>135</ele>
        <time>2023-07-06T05:37:42Z</time>
      </trkpt>
      <trkpt lat="44.07004" lon="0.89967">
        <ele>134.6</ele>
        <time>2023-07-06T05:37:52Z</time>
      </trkpt>
      <trkpt lat="44.07012" lon="0.89972">
        <ele>134.2</ele>
        <time>2023-07-06T05:37:56Z</time>
      </trkpt>
      <trkpt lat="44.0702" lon="0.89973">
        <ele>134.2</ele>
        <time>2023-07-06T05:38:02Z</time>
      </trkpt>
      <trkpt lat="44.07021" lon="0.89971">
        <ele>134.2</ele>
        <time>2023-07-06T05:38:04Z</time>
      </trkpt>
      <trkpt lat="44.07022" lon="0.89967">
        <ele>133.6</ele>
        <time>2023-07-06T05:38:07Z</time>
      </trkpt>
      <trkpt lat="44.07026" lon="0.89966">
        <ele>133.4</ele>
        <time>2023-07-06T05:38:09Z</time>
      </trkpt>
      <trkpt lat="44.07027" lon="0.89965">
        <ele>133.2</ele>
        <time>2023-07-06T05:38:10Z</time>
      </trkpt>
      <trkpt lat="44.07031" lon="0.89961">
        <ele>133</ele>
        <time>2023-07-06T05:38:14Z</time>
      </trkpt>
      <trkpt lat="44.07031" lon="0.8996">
        <ele>133</ele>
        <time>2023-07-06T05:38:15Z</time>
      </trkpt>
      <trkpt lat="44.07033" lon="0.89959">
        <ele>132.8</ele>
        <time>2023-07-06T05:38:16Z</time>
      </trkpt>
      <trkpt lat="44.07037" lon="0.89957">
        <ele>132.6</ele>
        <time>2023-07-06T05:38:19Z</time>
      </trkpt>
      <trkpt lat="44.07042" lon="0.89956">
        <ele>132.2</ele>
        <time>2023-07-06T05:38:22Z</time>
      </trkpt>
      <trkpt lat="44.07043" lon="0.89956">
        <ele>132.2</ele>
        <time>2023-07-06T05:38:23Z</time>
      </trkpt>
      <trkpt lat="44.07041" lon="0.89955">
        <ele>132.2</ele>
        <time>2023-07-06T05:38:24Z</time>
      </trkpt>
      <trkpt lat="44.07045" lon="0.89954">
        <ele>132.2</ele>
        <time>2023-07-06T05:38:25Z</time>
      </trkpt>
      <trkpt lat="44.07048" lon="0.89955">
        <ele>132</ele>
        <time>2023-07-06T05:38:28Z</time>
      </trkpt>
      <trkpt lat="44.07049" lon="0.89954">
        <ele>131.8</ele>
        <time>2023-07-06T05:38:29Z</time>
      </trkpt>
      <trkpt lat="44.07062" lon="0.89947">
        <ele>131</ele>
        <time>2023-07-06T05:38:39Z</time>
      </trkpt>
      <trkpt lat="44.07065" lon="0.89945">
        <ele>130.8</ele>
        <time>2023-07-06T05:38:42Z</time>
      </trkpt>
      <trkpt lat="44.07075" lon="0.89935">
        <ele>130.4</ele>
        <time>2023-07-06T05:38:51Z</time>
      </trkpt>
      <trkpt lat="44.07081" lon="0.89931">
        <ele>129.8</ele>
        <time>2023-07-06T05:38:56Z</time>
      </trkpt>
      <trkpt lat="44.07085" lon="0.89929">
        <ele>129.4</ele>
        <time>2023-07-06T05:38:59Z</time>
      </trkpt>
      <trkpt lat="44.0709" lon="0.89926">
        <ele>128.6</ele>
        <time>2023-07-06T05:39:03Z</time>
      </trkpt>
      <trkpt lat="44.07092" lon="0.89924">
        <ele>128.4</ele>
        <time>2023-07-06T05:39:05Z</time>
      </trkpt>
      <trkpt lat="44.07094" lon="0.89916">
        <ele>127.6</ele>
        <time>2023-07-06T05:39:10Z</time>
      </trkpt>
      <trkpt lat="44.07094" lon="0.89914">
        <ele>127.6</ele>
        <time>2023-07-06T05:39:11Z</time>
      </trkpt>
      <trkpt lat="44.07094" lon="0.8991">
        <ele>127.6</ele>
        <time>2023-07-06T05:39:13Z</time>
      </trkpt>
      <trkpt lat="44.07094" lon="0.89907">
        <ele>127.6</ele>
        <time>2023-07-06T05:39:14Z</time>
      </trkpt>
      <trkpt lat="44.07098" lon="0.89891">
        <ele>126.6</ele>
        <time>2023-07-06T05:39:23Z</time>
      </trkpt>
      <trkpt lat="44.07098" lon="0.8989">
        <ele>126.4</ele>
        <time>2023-07-06T05:39:24Z</time>
      </trkpt>
      <trkpt lat="44.07108" lon="0.89872">
        <ele>125.4</ele>
        <time>2023-07-06T05:39:36Z</time>
      </trkpt>
      <trkpt lat="44.07108" lon="0.89871">
        <ele>125</ele>
        <time>2023-07-06T05:39:37Z</time>
      </trkpt>
      <trkpt lat="44.0711" lon="0.89868">
        <ele>124.2</ele>
        <time>2023-07-06T05:39:39Z</time>
      </trkpt>
      <trkpt lat="44.07111" lon="0.89864">
        <ele>123.8</ele>
        <time>2023-07-06T05:39:42Z</time>
      </trkpt>
      <trkpt lat="44.07108" lon="0.89857">
        <ele>123.2</ele>
        <time>2023-07-06T05:39:46Z</time>
      </trkpt>
      <trkpt lat="44.07107" lon="0.89856">
        <ele>123</ele>
        <time>2023-07-06T05:39:47Z</time>
      </trkpt>
      <trkpt lat="44.07103" lon="0.8985">
        <ele>122.2</ele>
        <time>2023-07-06T05:39:51Z</time>
      </trkpt>
      <trkpt lat="44.07098" lon="0.89842">
        <ele>121</ele>
        <time>2023-07-06T05:39:57Z</time>
      </trkpt>
      <trkpt lat="44.07096" lon="0.8984">
        <ele>120.8</ele>
        <time>2023-07-06T05:39:58Z</time>
      </trkpt>
      <trkpt lat="44.07092" lon="0.89837">
        <ele>119.6</ele>
        <time>2023-07-06T05:40:01Z</time>
      </trkpt>
      <trkpt lat="44.07091" lon="0.89836">
        <ele>119.4</ele>
        <time>2023-07-06T05:40:02Z</time>
      </trkpt>
      <trkpt lat="44.07087" lon="0.89835">
        <ele>119</ele>
        <time>2023-07-06T05:40:04Z</time>
      </trkpt>
      <trkpt lat="44.07086" lon="0.89834">
        <ele>119</ele>
        <time>2023-07-06T05:40:05Z</time>
      </trkpt>
      <trkpt lat="44.07085" lon="0.89832">
        <ele>118.8</ele>
        <time>2023-07-06T05:40:06Z</time>
      </trkpt>
      <trkpt lat="44.07084" lon="0.89831">
        <ele>118.6</ele>
        <time>2023-07-06T05:40:07Z</time>
      </trkpt>
      <trkpt lat="44.07082" lon="0.89825">
        <ele>118</ele>
        <time>2023-07-06T05:40:11Z</time>
      </trkpt>
      <trkpt lat="44.07082" lon="0.89824">
        <ele>117.6</ele>
        <time>2023-07-06T05:40:12Z</time>
      </trkpt>
      <trkpt lat="44.07082" lon="0.89822">
        <ele>117.6</ele>
        <time>2023-07-06T05:40:13Z</time>
      </trkpt>
      <trkpt lat="44.07082" lon="0.89821">
        <ele>117.4</ele>
        <time>2023-07-06T05:40:14Z</time>
      </trkpt>
      <trkpt lat="44.07085" lon="0.89814">
        <ele>116.6</ele>
        <time>2023-07-06T05:40:17Z</time>
      </trkpt>
      <trkpt lat="44.07086" lon="0.89812">
        <ele>116.4</ele>
        <time>2023-07-06T05:40:18Z</time>
      </trkpt>
      <trkpt lat="44.07088" lon="0.89809">
        <ele>116.4</ele>
        <time>2023-07-06T05:40:19Z</time>
      </trkpt>
      <trkpt lat="44.07095" lon="0.89808">
        <ele>115.8</ele>
        <time>2023-07-06T05:40:23Z</time>
      </trkpt>
      <trkpt lat="44.07097" lon="0.89811">
        <ele>115.2</ele>
        <time>2023-07-06T05:40:26Z</time>
      </trkpt>
      <trkpt lat="44.07098" lon="0.89818">
        <ele>114</ele>
        <time>2023-07-06T05:40:30Z</time>
      </trkpt>
      <trkpt lat="44.07103" lon="0.8982">
        <ele>113.6</ele>
        <time>2023-07-06T05:40:33Z</time>
      </trkpt>
      <trkpt lat="44.07106" lon="0.8982">
        <ele>112.8</ele>
        <time>2023-07-06T05:40:36Z</time>
      </trkpt>
      <trkpt lat="44.07109" lon="0.89825">
        <ele>111.8</ele>
        <time>2023-07-06T05:40:40Z</time>
      </trkpt>
      <trkpt lat="44.07111" lon="0.89827">
        <ele>111.4</ele>
        <time>2023-07-06T05:40:42Z</time>
      </trkpt>
      <trkpt lat="44.07115" lon="0.89828">
        <ele>110.8</ele>
        <time>2023-07-06T05:40:45Z</time>
      </trkpt>
      <trkpt lat="44.07121" lon="0.89829">
        <ele>109.6</ele>
        <time>2023-07-06T05:40:50Z</time>
      </trkpt>
      <trkpt lat="44.07122" lon="0.89828">
        <ele>109.6</ele>
        <time>2023-07-06T05:40:51Z</time>
      </trkpt>
      <trkpt lat="44.07124" lon="0.89828">
        <ele>108.6</ele>
        <time>2023-07-06T05:40:53Z</time>
      </trkpt>
      <trkpt lat="44.07128" lon="0.89829">
        <ele>107.6</ele>
        <time>2023-07-06T05:40:57Z</time>
      </trkpt>
      <trkpt lat="44.07133" lon="0.89829">
        <ele>106.8</ele>
        <time>2023-07-06T05:41:01Z</time>
      </trkpt>
      <trkpt lat="44.07137" lon="0.89829">
        <ele>106.4</ele>
        <time>2023-07-06T05:41:04Z</time>
      </trkpt>
      <trkpt lat="44.07142" lon="0.89829">
        <ele>105.4</ele>
        <time>2023-07-06T05:41:08Z</time>
      </trkpt>
      <trkpt lat="44.07143" lon="0.89829">
        <ele>104.8</ele>
        <time>2023-07-06T05:41:09Z</time>
      </trkpt>
      <trkpt lat="44.07144" lon="0.89828">
        <ele>104.6</ele>
        <time>2023-07-06T05:41:10Z</time>
      </trkpt>
      <trkpt lat="44.07145" lon="0.89828">
        <ele>103.8</ele>
        <time>2023-07-06T05:41:12Z</time>
      </trkpt>
      <trkpt lat="44.07146" lon="0.89829">
        <ele>103.4</ele>
        <time>2023-07-06T05:41:13Z</time>
      </trkpt>
      <trkpt lat="44.07147" lon="0.89829">
        <ele>103.2</ele>
        <time>2023-07-06T05:41:14Z</time>
      </trkpt>
      <trkpt lat="44.0715" lon="0.8983">
        <ele>102.2</ele>
        <time>2023-07-06T05:41:18Z</time>
      </trkpt>
      <trkpt lat="44.07153" lon="0.89831">
        <ele>101.6</ele>
        <time>2023-07-06T05:41:20Z</time>
      </trkpt>
      <trkpt lat="44.07154" lon="0.8983">
        <ele>101.4</ele>
        <time>2023-07-06T05:41:21Z</time>
      </trkpt>
      <trkpt lat="44.07155" lon="0.89832">
        <ele>101</ele>
        <time>2023-07-06T05:41:23Z</time>
      </trkpt>
      <trkpt lat="44.07156" lon="0.89832">
        <ele>100.8</ele>
        <time>2023-07-06T05:41:24Z</time>
      </trkpt>
      <trkpt lat="44.07158" lon="0.89833">
        <ele>100.6</ele>
        <time>2023-07-06T05:41:25Z</time>
      </trkpt>
      <trkpt lat="44.07161" lon="0.89834">
        <ele>100</ele>
        <time>2023-07-06T05:41:28Z</time>
      </trkpt>
      <trkpt lat="44.07162" lon="0.89835">
        <ele>99.6</ele>
        <time>2023-07-06T05:41:29Z</time>
      </trkpt>
      <trkpt lat="44.07166" lon="0.89838">
        <ele>98.8</ele>
        <time>2023-07-06T05:41:32Z</time>
      </trkpt>
      <trkpt lat="44.07171" lon="0.89843">
        <ele>97.8</ele>
        <time>2023-07-06T05:41:37Z</time>
      </trkpt>
      <trkpt lat="44.07173" lon="0.89847">
        <ele>97.2</ele>
        <time>2023-07-06T05:41:39Z</time>
      </trkpt>
      <trkpt lat="44.07174" lon="0.8985">
        <ele>96.8</ele>
        <time>2023-07-06T05:41:41Z</time>
      </trkpt>
      <trkpt lat="44.07175" lon="0.89851">
        <ele>96.4</ele>
        <time>2023-07-06T05:41:42Z</time>
      </trkpt>
      <trkpt lat="44.07177" lon="0.89853">
        <ele>95.8</ele>
        <time>2023-07-06T05:41:44Z</time>
      </trkpt>
      <trkpt lat="44.07178" lon="0.89854">
        <ele>95.6</ele>
        <time>2023-07-06T05:41:45Z</time>
      </trkpt>
      <trkpt lat="44.07179" lon="0.89855">
        <ele>95.4</ele>
        <time>2023-07-06T05:41:46Z</time>
      </trkpt>
      <trkpt lat="44.07184" lon="0.89863">
        <ele>94.6</ele>
        <time>2023-07-06T05:41:51Z</time>
      </trkpt>
      <trkpt lat="44.07187" lon="0.89865">
        <ele>94.2</ele>
        <time>2023-07-06T05:41:53Z</time>
      </trkpt>
      <trkpt lat="44.0719" lon="0.8987">
        <ele>93.6</ele>
        <time>2023-07-06T05:41:56Z</time>
      </trkpt>
      <trkpt lat="44.0719" lon="0.89872">
        <ele>93.4</ele>
        <time>2023-07-06T05:41:57Z</time>
      </trkpt>
      <trkpt lat="44.07191" lon="0.89875">
        <ele>92.8</ele>
        <time>2023-07-06T05:41:59Z</time>
      </trkpt>
      <trkpt lat="44.07191" lon="0.89879">
        <ele>92.4</ele>
        <time>2023-07-06T05:42:01Z</time>
      </trkpt>
      <trkpt lat="44.07194" lon="0.89884">
        <ele>91.4</ele>
        <time>2023-07-06T05:42:05Z</time>
      </trkpt>
      <trkpt lat="44.07195" lon="0.89884">
        <ele>90.6</ele>
        <time>2023-07-06T05:42:07Z</time>
      </trkpt>
      <trkpt lat="44.07198" lon="0.89884">
        <ele>90.4</ele>
        <time>2023-07-06T05:42:09Z</time>
      </trkpt>
      <trkpt lat="44.072" lon="0.89883">
        <ele>90.4</ele>
        <time>2023-07-06T05:42:10Z</time>
      </trkpt>
      <trkpt lat="44.07205" lon="0.89881">
        <ele>89.2</ele>
        <time>2023-07-06T05:42:13Z</time>
      </trkpt>
      <trkpt lat="44.07207" lon="0.89874">
        <ele>88.2</ele>
        <time>2023-07-06T05:42:18Z</time>
      </trkpt>
      <trkpt lat="44.07208" lon="0.89871">
        <ele>88</ele>
        <time>2023-07-06T05:42:20Z</time>
      </trkpt>
      <trkpt lat="44.0721" lon="0.89862">
        <ele>87.2</ele>
        <time>2023-07-06T05:42:24Z</time>
      </trkpt>
      <trkpt lat="44.07213" lon="0.89856">
        <ele>86.6</ele>
        <time>2023-07-06T05:42:28Z</time>
      </trkpt>
      <trkpt lat="44.07215" lon="0.89853">
        <ele>86</ele>
        <time>2023-07-06T05:42:30Z</time>
      </trkpt>
      <trkpt lat="44.07218" lon="0.89848">
        <ele>85.4</ele>
        <time>2023-07-06T05:42:34Z</time>
      </trkpt>
      <trkpt lat="44.07221" lon="0.89844">
        <ele>85</ele>
        <time>2023-07-06T05:42:38Z</time>
      </trkpt>
      <trkpt lat="44.07225" lon="0.8984">
        <ele>84.2</ele>
        <time>2023-07-06T05:42:42Z</time>
      </trkpt>
      <trkpt lat="44.07226" lon="0.89839">
        <ele>84</ele>
        <time>2023-07-06T05:42:43Z</time>
      </trkpt>
      <trkpt lat="44.0723" lon="0.89836">
        <ele>83.8</ele>
        <time>2023-07-06T05:42:46Z</time>
      </trkpt>
      <trkpt lat="44.07233" lon="0.89833">
        <ele>83.8</ele>
        <time>2023-07-06T05:42:49Z</time>
      </trkpt>
      <trkpt lat="44.07235" lon="0.8983">
        <ele>83.4</ele>
        <time>2023-07-06T05:42:51Z</time>
      </trkpt>
      <trkpt lat="44.07238" lon="0.89826">
        <ele>82.8</ele>
        <time>2023-07-06T05:42:54Z</time>
      </trkpt>
      <trkpt lat="44.07238" lon="0.89823">
        <ele>82.4</ele>
        <time>2023-07-06T05:42:56Z</time>
      </trkpt>
      <trkpt lat="44.07241" lon="0.89821">
        <ele>82</ele>
        <time>2023-07-06T05:42:59Z</time>
      </trkpt>
      <trkpt lat="44.07243" lon="0.89823">
        <ele>81.8</ele>
        <time>2023-07-06T05:43:01Z</time>
      </trkpt>
      <trkpt lat="44.07244" lon="0.89825">
        <ele>81.8</ele>
        <time>2023-07-06T05:43:02Z</time>
      </trkpt>
      <trkpt lat="44.0725" lon="0.89828">
        <ele>81.2</ele>
        <time>2023-07-06T05:43:06Z</time>
      </trkpt>
      <trkpt lat="44.07252" lon="0.8983">
        <ele>80.6</ele>
        <time>2023-07-06T05:43:08Z</time>
      </trkpt>
      <trkpt lat="44.07254" lon="0.89833">
        <ele>80.2</ele>
        <time>2023-07-06T05:43:10Z</time>
      </trkpt>
      <trkpt lat="44.07256" lon="0.89837">
        <ele>79.8</ele>
        <time>2023-07-06T05:43:13Z</time>
      </trkpt>
      <trkpt lat="44.07258" lon="0.89839">
        <ele>79.4</ele>
        <time>2023-07-06T05:43:15Z</time>
      </trkpt>
      <trkpt lat="44.07264" lon="0.89846">
        <ele>78.4</ele>
        <time>2023-07-06T05:43:20Z</time>
      </trkpt>
      <trkpt lat="44.07265" lon="0.89848">
        <ele>78.2</ele>
        <time>2023-07-06T05:43:21Z</time>
      </trkpt>
      <trkpt lat="44.07267" lon="0.89849">
        <ele>78</ele>
        <time>2023-07-06T05:43:22Z</time>
      </trkpt>
      <trkpt lat="44.07274" lon="0.89855">
        <ele>77.2</ele>
        <time>2023-07-06T05:43:28Z</time>
      </trkpt>
      <trkpt lat="44.07283" lon="0.89859">
        <ele>76.8</ele>
        <time>2023-07-06T05:43:34Z</time>
      </trkpt>
      <trkpt lat="44.07285" lon="0.8986">
        <ele>76.6</ele>
        <time>2023-07-06T05:43:35Z</time>
      </trkpt>
      <trkpt lat="44.07288" lon="0.89859">
        <ele>76.2</ele>
        <time>2023-07-06T05:43:38Z</time>
      </trkpt>
      <trkpt lat="44.07289" lon="0.8986">
        <ele>76</ele>
        <time>2023-07-06T05:43:40Z</time>
      </trkpt>
      <trkpt lat="44.07296" lon="0.89851">
        <ele>76</ele>
        <time>2023-07-06T05:43:49Z</time>
      </trkpt>
      <trkpt lat="44.07298" lon="0.89846">
        <ele>76</ele>
        <time>2023-07-06T05:43:52Z</time>
      </trkpt>
      <trkpt lat="44.07299" lon="0.89845">
        <ele>76</ele>
        <time>2023-07-06T05:43:53Z</time>
      </trkpt>
      <trkpt lat="44.07302" lon="0.89837">
        <ele>76.2</ele>
        <time>2023-07-06T05:43:57Z</time>
      </trkpt>
      <trkpt lat="44.07305" lon="0.89833">
        <ele>76</ele>
        <time>2023-07-06T05:44:00Z</time>
      </trkpt>
      <trkpt lat="44.07306" lon="0.8983">
        <ele>76</ele>
        <time>2023-07-06T05:44:02Z</time>
      </trkpt>
      <trkpt lat="44.07308" lon="0.89824">
        <ele>76</ele>
        <time>2023-07-06T05:44:05Z</time>
      </trkpt>
      <trkpt lat="44.07311" lon="0.89815">
        <ele>75.8</ele>
        <time>2023-07-06T05:44:11Z</time>
      </trkpt>
      <trkpt lat="44.0731" lon="0.89807">
        <ele>75.8</ele>
        <time>2023-07-06T05:44:16Z</time>
      </trkpt>
      <trkpt lat="44.07318" lon="0.898">
        <ele>76</ele>
        <time>2023-07-06T05:44:21Z</time>
      </trkpt>
      <trkpt lat="44.0732" lon="0.89796">
        <ele>76</ele>
        <time>2023-07-06T05:44:23Z</time>
      </trkpt>
      <trkpt lat="44.07323" lon="0.8979">
        <ele>76</ele>
        <time>2023-07-06T05:44:27Z</time>
      </trkpt>
      <trkpt lat="44.07324" lon="0.89787">
        <ele>76</ele>
        <time>2023-07-06T05:44:29Z</time>
      </trkpt>
      <trkpt lat="44.07323" lon="0.89785">
        <ele>76</ele>
        <time>2023-07-06T05:44:31Z</time>
      </trkpt>
      <trkpt lat="44.07324" lon="0.89779">
        <ele>76</ele>
        <time>2023-07-06T05:44:35Z</time>
      </trkpt>
      <trkpt lat="44.07324" lon="0.89777">
        <ele>76</ele>
        <time>2023-07-06T05:44:36Z</time>
      </trkpt>
      <trkpt lat="44.07327" lon="0.89773">
        <ele>76</ele>
        <time>2023-07-06T05:44:39Z</time>
      </trkpt>
      <trkpt lat="44.0733" lon="0.89769">
        <ele>76</ele>
        <time>2023-07-06T05:44:42Z</time>
      </trkpt>
      <trkpt lat="44.07335" lon="0.89757">
        <ele>76.2</ele>
        <time>2023-07-06T05:44:49Z</time>
      </trkpt>
      <trkpt lat="44.07337" lon="0.89753">
        <ele>76.2</ele>
        <time>2023-07-06T05:44:52Z</time>
      </trkpt>
      <trkpt lat="44.0734" lon="0.89744">
        <ele>75.8</ele>
        <time>2023-07-06T05:44:59Z</time>
      </trkpt>
      <trkpt lat="44.07344" lon="0.89738">
        <ele>75.8</ele>
        <time>2023-07-06T05:45:03Z</time>
      </trkpt>
      <trkpt lat="44.07348" lon="0.89734">
        <ele>75.4</ele>
        <time>2023-07-06T05:45:06Z</time>
      </trkpt>
      <trkpt lat="44.07353" lon="0.89722">
        <ele>75.2</ele>
        <time>2023-07-06T05:45:15Z</time>
      </trkpt>
      <trkpt lat="44.07355" lon="0.89713">
        <ele>75.4</ele>
        <time>2023-07-06T05:45:20Z</time>
      </trkpt>
      <trkpt lat="44.07355" lon="0.89711">
        <ele>75.4</ele>
        <time>2023-07-06T05:45:21Z</time>
      </trkpt>
      <trkpt lat="44.07355" lon="0.8971">
        <ele>75.4</ele>
        <time>2023-07-06T05:45:22Z</time>
      </trkpt>
      <trkpt lat="44.07356" lon="0.89698">
        <ele>75.2</ele>
        <time>2023-07-06T05:45:28Z</time>
      </trkpt>
      <trkpt lat="44.07356" lon="0.89696">
        <ele>75.2</ele>
        <time>2023-07-06T05:45:29Z</time>
      </trkpt>
      <trkpt lat="44.07355" lon="0.89684">
        <ele>75.4</ele>
        <time>2023-07-06T05:45:35Z</time>
      </trkpt>
      <trkpt lat="44.07356" lon="0.8968">
        <ele>75.4</ele>
        <time>2023-07-06T05:45:37Z</time>
      </trkpt>
      <trkpt lat="44.07358" lon="0.89673">
        <ele>75.6</ele>
        <time>2023-07-06T05:45:41Z</time>
      </trkpt>
      <trkpt lat="44.07358" lon="0.89665">
        <ele>75.8</ele>
        <time>2023-07-06T05:45:47Z</time>
      </trkpt>
      <trkpt lat="44.07361" lon="0.89661">
        <ele>76</ele>
        <time>2023-07-06T05:45:53Z</time>
      </trkpt>
      <trkpt lat="44.07365" lon="0.89656">
        <ele>76</ele>
        <time>2023-07-06T05:45:58Z</time>
      </trkpt>
      <trkpt lat="44.07366" lon="0.89655">
        <ele>76</ele>
        <time>2023-07-06T05:45:59Z</time>
      </trkpt>
      <trkpt lat="44.07366" lon="0.89655">
        <ele>76</ele>
        <time>2023-07-06T05:46:00Z</time>
      </trkpt>
      <trkpt lat="44.07368" lon="0.89652">
        <ele>75.8</ele>
        <time>2023-07-06T05:46:03Z</time>
      </trkpt>
      <trkpt lat="44.07369" lon="0.8965">
        <ele>75.8</ele>
        <time>2023-07-06T05:46:04Z</time>
      </trkpt>
      <trkpt lat="44.0737" lon="0.89649">
        <ele>75.8</ele>
        <time>2023-07-06T05:46:05Z</time>
      </trkpt>
      <trkpt lat="44.07371" lon="0.89649">
        <ele>75.8</ele>
        <time>2023-07-06T05:46:06Z</time>
      </trkpt>
      <trkpt lat="44.07373" lon="0.89646">
        <ele>75.8</ele>
        <time>2023-07-06T05:46:08Z</time>
      </trkpt>
      <trkpt lat="44.07376" lon="0.89644">
        <ele>75.8</ele>
        <time>2023-07-06T05:46:10Z</time>
      </trkpt>
      <trkpt lat="44.07377" lon="0.89643">
        <ele>76</ele>
        <time>2023-07-06T05:46:11Z</time>
      </trkpt>
      <trkpt lat="44.07378" lon="0.8964">
        <ele>76.2</ele>
        <time>2023-07-06T05:46:13Z</time>
      </trkpt>
      <trkpt lat="44.07379" lon="0.89639">
        <ele>76</ele>
        <time>2023-07-06T05:46:14Z</time>
      </trkpt>
      <trkpt lat="44.0738" lon="0.89637">
        <ele>76.2</ele>
        <time>2023-07-06T05:46:15Z</time>
      </trkpt>
      <trkpt lat="44.0738" lon="0.89635">
        <ele>76.2</ele>
        <time>2023-07-06T05:46:16Z</time>
      </trkpt>
      <trkpt lat="44.07382" lon="0.89626">
        <ele>76.4</ele>
        <time>2023-07-06T05:46:21Z</time>
      </trkpt>
      <trkpt lat="44.07385" lon="0.89613">
        <ele>77.2</ele>
        <time>2023-07-06T05:46:28Z</time>
      </trkpt>
      <trkpt lat="44.07385" lon="0.89612">
        <ele>77.2</ele>
        <time>2023-07-06T05:46:29Z</time>
      </trkpt>
      <trkpt lat="44.07386" lon="0.8961">
        <ele>77.4</ele>
        <time>2023-07-06T05:46:30Z</time>
      </trkpt>
      <trkpt lat="44.07391" lon="0.89606">
        <ele>77.6</ele>
        <time>2023-07-06T05:46:35Z</time>
      </trkpt>
      <trkpt lat="44.07392" lon="0.89606">
        <ele>77.8</ele>
        <time>2023-07-06T05:46:36Z</time>
      </trkpt>
      <trkpt lat="44.07397" lon="0.89609">
        <ele>78.2</ele>
        <time>2023-07-06T05:46:41Z</time>
      </trkpt>
      <trkpt lat="44.07398" lon="0.8961">
        <ele>78.2</ele>
        <time>2023-07-06T05:46:42Z</time>
      </trkpt>
      <trkpt lat="44.07405" lon="0.89619">
        <ele>77.8</ele>
        <time>2023-07-06T05:46:49Z</time>
      </trkpt>
      <trkpt lat="44.07414" lon="0.89628">
        <ele>78.4</ele>
        <time>2023-07-06T05:46:56Z</time>
      </trkpt>
      <trkpt lat="44.07416" lon="0.89632">
        <ele>78.4</ele>
        <time>2023-07-06T05:46:59Z</time>
      </trkpt>
      <trkpt lat="44.07419" lon="0.89638">
        <ele>78.4</ele>
        <time>2023-07-06T05:47:03Z</time>
      </trkpt>
      <trkpt lat="44.07423" lon="0.89644">
        <ele>78.8</ele>
        <time>2023-07-06T05:47:08Z</time>
      </trkpt>
      <trkpt lat="44.07427" lon="0.8965">
        <ele>79.4</ele>
        <time>2023-07-06T05:47:14Z</time>
      </trkpt>
      <trkpt lat="44.07429" lon="0.89653">
        <ele>79.4</ele>
        <time>2023-07-06T05:47:16Z</time>
      </trkpt>
      <trkpt lat="44.0743" lon="0.89654">
        <ele>79.6</ele>
        <time>2023-07-06T05:47:17Z</time>
      </trkpt>
      <trkpt lat="44.07434" lon="0.89657">
        <ele>79.8</ele>
        <time>2023-07-06T05:47:20Z</time>
      </trkpt>
      <trkpt lat="44.07438" lon="0.89662">
        <ele>80</ele>
        <time>2023-07-06T05:47:24Z</time>
      </trkpt>
      <trkpt lat="44.07439" lon="0.89663">
        <ele>80</ele>
        <time>2023-07-06T05:47:25Z</time>
      </trkpt>
      <trkpt lat="44.07447" lon="0.89672">
        <ele>80</ele>
        <time>2023-07-06T05:47:32Z</time>
      </trkpt>
      <trkpt lat="44.07452" lon="0.89679">
        <ele>80.2</ele>
        <time>2023-07-06T05:47:38Z</time>
      </trkpt>
      <trkpt lat="44.07452" lon="0.8968">
        <ele>80.2</ele>
        <time>2023-07-06T05:47:39Z</time>
      </trkpt>
      <trkpt lat="44.07453" lon="0.89682">
        <ele>80.2</ele>
        <time>2023-07-06T05:47:40Z</time>
      </trkpt>
      <trkpt lat="44.0746" lon="0.89697">
        <ele>80.4</ele>
        <time>2023-07-06T05:47:50Z</time>
      </trkpt>
      <trkpt lat="44.07462" lon="0.89699">
        <ele>80.4</ele>
        <time>2023-07-06T05:47:52Z</time>
      </trkpt>
      <trkpt lat="44.0747" lon="0.89708">
        <ele>80.8</ele>
        <time>2023-07-06T05:47:59Z</time>
      </trkpt>
      <trkpt lat="44.07475" lon="0.89716">
        <ele>80.8</ele>
        <time>2023-07-06T05:48:05Z</time>
      </trkpt>
      <trkpt lat="44.07482" lon="0.89728">
        <ele>80.8</ele>
        <time>2023-07-06T05:48:14Z</time>
      </trkpt>
      <trkpt lat="44.07483" lon="0.89731">
        <ele>80.8</ele>
        <time>2023-07-06T05:48:16Z</time>
      </trkpt>
      <trkpt lat="44.07484" lon="0.89732">
        <ele>80.8</ele>
        <time>2023-07-06T05:48:17Z</time>
      </trkpt>
      <trkpt lat="44.07488" lon="0.89738">
        <ele>80.6</ele>
        <time>2023-07-06T05:48:22Z</time>
      </trkpt>
      <trkpt lat="44.07489" lon="0.89741">
        <ele>80.6</ele>
        <time>2023-07-06T05:48:24Z</time>
      </trkpt>
      <trkpt lat="44.07493" lon="0.89748">
        <ele>80.6</ele>
        <time>2023-07-06T05:48:29Z</time>
      </trkpt>
      <trkpt lat="44.07497" lon="0.89755">
        <ele>80.8</ele>
        <time>2023-07-06T05:48:34Z</time>
      </trkpt>
      <trkpt lat="44.07505" lon="0.89766">
        <ele>81</ele>
        <time>2023-07-06T05:48:43Z</time>
      </trkpt>
      <trkpt lat="44.07515" lon="0.89779">
        <ele>81</ele>
        <time>2023-07-06T05:48:53Z</time>
      </trkpt>
      <trkpt lat="44.07522" lon="0.89788">
        <ele>81</ele>
        <time>2023-07-06T05:48:59Z</time>
      </trkpt>
      <trkpt lat="44.07525" lon="0.89793">
        <ele>80.8</ele>
        <time>2023-07-06T05:49:03Z</time>
      </trkpt>
      <trkpt lat="44.07533" lon="0.89802">
        <ele>80.6</ele>
        <time>2023-07-06T05:49:10Z</time>
      </trkpt>
      <trkpt lat="44.07535" lon="0.89806">
        <ele>80.6</ele>
        <time>2023-07-06T05:49:13Z</time>
      </trkpt>
      <trkpt lat="44.07537" lon="0.89809">
        <ele>80.6</ele>
        <time>2023-07-06T05:49:15Z</time>
      </trkpt>
      <trkpt lat="44.07538" lon="0.8981">
        <ele>80.6</ele>
        <time>2023-07-06T05:49:16Z</time>
      </trkpt>
      <trkpt lat="44.07543" lon="0.89819">
        <ele>80.6</ele>
        <time>2023-07-06T05:49:22Z</time>
      </trkpt>
      <trkpt lat="44.07546" lon="0.89824">
        <ele>80.6</ele>
        <time>2023-07-06T05:49:26Z</time>
      </trkpt>
      <trkpt lat="44.07549" lon="0.89829">
        <ele>80.4</ele>
        <time>2023-07-06T05:49:30Z</time>
      </trkpt>
      <trkpt lat="44.07555" lon="0.89838">
        <ele>80</ele>
        <time>2023-07-06T05:49:37Z</time>
      </trkpt>
      <trkpt lat="44.07558" lon="0.89841">
        <ele>80</ele>
        <time>2023-07-06T05:49:39Z</time>
      </trkpt>
      <trkpt lat="44.07559" lon="0.89842">
        <ele>79.8</ele>
        <time>2023-07-06T05:49:40Z</time>
      </trkpt>
      <trkpt lat="44.0756" lon="0.89843">
        <ele>80</ele>
        <time>2023-07-06T05:49:41Z</time>
      </trkpt>
      <trkpt lat="44.07561" lon="0.89844">
        <ele>80</ele>
        <time>2023-07-06T05:49:42Z</time>
      </trkpt>
      <trkpt lat="44.07565" lon="0.8985">
        <ele>80</ele>
        <time>2023-07-06T05:49:46Z</time>
      </trkpt>
      <trkpt lat="44.07568" lon="0.89852">
        <ele>80</ele>
        <time>2023-07-06T05:49:48Z</time>
      </trkpt>
      <trkpt lat="44.07574" lon="0.89864">
        <ele>79.6</ele>
        <time>2023-07-06T05:49:56Z</time>
      </trkpt>
      <trkpt lat="44.07575" lon="0.89868">
        <ele>79.4</ele>
        <time>2023-07-06T05:49:59Z</time>
      </trkpt>
      <trkpt lat="44.0758" lon="0.89876">
        <ele>79.2</ele>
        <time>2023-07-06T05:50:05Z</time>
      </trkpt>
      <trkpt lat="44.07588" lon="0.89883">
        <ele>79</ele>
        <time>2023-07-06T05:50:10Z</time>
      </trkpt>
      <trkpt lat="44.0759" lon="0.89886">
        <ele>78.8</ele>
        <time>2023-07-06T05:50:12Z</time>
      </trkpt>
      <trkpt lat="44.07597" lon="0.89893">
        <ele>78.4</ele>
        <time>2023-07-06T05:50:18Z</time>
      </trkpt>
      <trkpt lat="44.07598" lon="0.89894">
        <ele>78.4</ele>
        <time>2023-07-06T05:50:19Z</time>
      </trkpt>
      <trkpt lat="44.07601" lon="0.89904">
        <ele>78</ele>
        <time>2023-07-06T05:50:25Z</time>
      </trkpt>
      <trkpt lat="44.07609" lon="0.89915">
        <ele>78</ele>
        <time>2023-07-06T05:50:34Z</time>
      </trkpt>
      <trkpt lat="44.07616" lon="0.89928">
        <ele>77.6</ele>
        <time>2023-07-06T05:50:43Z</time>
      </trkpt>
      <trkpt lat="44.07621" lon="0.89936">
        <ele>77.2</ele>
        <time>2023-07-06T05:50:48Z</time>
      </trkpt>
      <trkpt lat="44.07623" lon="0.8994">
        <ele>77</ele>
        <time>2023-07-06T05:50:51Z</time>
      </trkpt>
      <trkpt lat="44.07631" lon="0.89949">
        <ele>77.2</ele>
        <time>2023-07-06T05:50:59Z</time>
      </trkpt>
      <trkpt lat="44.07632" lon="0.8995">
        <ele>77.4</ele>
        <time>2023-07-06T05:51:00Z</time>
      </trkpt>
      <trkpt lat="44.07633" lon="0.89952">
        <ele>77.4</ele>
        <time>2023-07-06T05:51:01Z</time>
      </trkpt>
      <trkpt lat="44.07638" lon="0.89958">
        <ele>77.4</ele>
        <time>2023-07-06T05:51:06Z</time>
      </trkpt>
      <trkpt lat="44.07642" lon="0.89963">
        <ele>77.2</ele>
        <time>2023-07-06T05:51:10Z</time>
      </trkpt>
      <trkpt lat="44.07644" lon="0.89966">
        <ele>77.2</ele>
        <time>2023-07-06T05:51:12Z</time>
      </trkpt>
      <trkpt lat="44.0765" lon="0.89977">
        <ele>76.8</ele>
        <time>2023-07-06T05:51:20Z</time>
      </trkpt>
      <trkpt lat="44.07658" lon="0.8999">
        <ele>76.8</ele>
        <time>2023-07-06T05:51:30Z</time>
      </trkpt>
      <trkpt lat="44.07667" lon="0.90001">
        <ele>77</ele>
        <time>2023-07-06T05:51:38Z</time>
      </trkpt>
      <trkpt lat="44.07673" lon="0.90013">
        <ele>77</ele>
        <time>2023-07-06T05:51:46Z</time>
      </trkpt>
      <trkpt lat="44.07679" lon="0.90022">
        <ele>77</ele>
        <time>2023-07-06T05:51:53Z</time>
      </trkpt>
      <trkpt lat="44.0768" lon="0.90023">
        <ele>77</ele>
        <time>2023-07-06T05:51:54Z</time>
      </trkpt>
      <trkpt lat="44.07689" lon="0.90034">
        <ele>77.4</ele>
        <time>2023-07-06T05:52:02Z</time>
      </trkpt>
      <trkpt lat="44.07691" lon="0.90037">
        <ele>77.6</ele>
        <time>2023-07-06T05:52:05Z</time>
      </trkpt>
      <trkpt lat="44.07693" lon="0.90043">
        <ele>77.8</ele>
        <time>2023-07-06T05:52:09Z</time>
      </trkpt>
      <trkpt lat="44.07693" lon="0.90044">
        <ele>77.8</ele>
        <time>2023-07-06T05:52:10Z</time>
      </trkpt>
      <trkpt lat="44.07699" lon="0.90055">
        <ele>77.2</ele>
        <time>2023-07-06T05:52:17Z</time>
      </trkpt>
      <trkpt lat="44.077" lon="0.90056">
        <ele>77.4</ele>
        <time>2023-07-06T05:52:18Z</time>
      </trkpt>
      <trkpt lat="44.07707" lon="0.90066">
        <ele>77.4</ele>
        <time>2023-07-06T05:52:25Z</time>
      </trkpt>
      <trkpt lat="44.07717" lon="0.90078">
        <ele>77.8</ele>
        <time>2023-07-06T05:52:33Z</time>
      </trkpt>
      <trkpt lat="44.07724" lon="0.90086">
        <ele>77.4</ele>
        <time>2023-07-06T05:52:39Z</time>
      </trkpt>
      <trkpt lat="44.07725" lon="0.90089">
        <ele>77.4</ele>
        <time>2023-07-06T05:52:41Z</time>
      </trkpt>
      <trkpt lat="44.07727" lon="0.90101">
        <ele>77.6</ele>
        <time>2023-07-06T05:52:48Z</time>
      </trkpt>
      <trkpt lat="44.07721" lon="0.90109">
        <ele>77.6</ele>
        <time>2023-07-06T05:52:55Z</time>
      </trkpt>
      <trkpt lat="44.07711" lon="0.90113">
        <ele>77.6</ele>
        <time>2023-07-06T05:53:02Z</time>
      </trkpt>
      <trkpt lat="44.07709" lon="0.90114">
        <ele>77.4</ele>
        <time>2023-07-06T05:53:04Z</time>
      </trkpt>
      <trkpt lat="44.07704" lon="0.90117">
        <ele>77.6</ele>
        <time>2023-07-06T05:53:08Z</time>
      </trkpt>
      <trkpt lat="44.07703" lon="0.90118">
        <ele>77.6</ele>
        <time>2023-07-06T05:53:09Z</time>
      </trkpt>
      <trkpt lat="44.077" lon="0.9012">
        <ele>77.6</ele>
        <time>2023-07-06T05:53:11Z</time>
      </trkpt>
      <trkpt lat="44.07695" lon="0.90125">
        <ele>77.6</ele>
        <time>2023-07-06T05:53:15Z</time>
      </trkpt>
      <trkpt lat="44.07688" lon="0.90138">
        <ele>77.6</ele>
        <time>2023-07-06T05:53:22Z</time>
      </trkpt>
      <trkpt lat="44.07685" lon="0.90146">
        <ele>77.6</ele>
        <time>2023-07-06T05:53:28Z</time>
      </trkpt>
      <trkpt lat="44.07683" lon="0.90154">
        <ele>77.6</ele>
        <time>2023-07-06T05:53:33Z</time>
      </trkpt>
      <trkpt lat="44.07682" lon="0.90156">
        <ele>77.8</ele>
        <time>2023-07-06T05:53:35Z</time>
      </trkpt>
      <trkpt lat="44.07682" lon="0.90169">
        <ele>78</ele>
        <time>2023-07-06T05:53:42Z</time>
      </trkpt>
      <trkpt lat="44.07682" lon="0.90171">
        <ele>78</ele>
        <time>2023-07-06T05:53:44Z</time>
      </trkpt>
      <trkpt lat="44.07683" lon="0.90174">
        <ele>78.2</ele>
        <time>2023-07-06T05:53:46Z</time>
      </trkpt>
      <trkpt lat="44.07684" lon="0.90175">
        <ele>78.2</ele>
        <time>2023-07-06T05:53:47Z</time>
      </trkpt>
      <trkpt lat="44.07684" lon="0.90181">
        <ele>78.4</ele>
        <time>2023-07-06T05:53:50Z</time>
      </trkpt>
      <trkpt lat="44.07685" lon="0.90191">
        <ele>78.8</ele>
        <time>2023-07-06T05:53:56Z</time>
      </trkpt>
      <trkpt lat="44.07685" lon="0.90199">
        <ele>78.8</ele>
        <time>2023-07-06T05:54:00Z</time>
      </trkpt>
      <trkpt lat="44.07685" lon="0.90203">
        <ele>79</ele>
        <time>2023-07-06T05:54:02Z</time>
      </trkpt>
      <trkpt lat="44.07687" lon="0.90218">
        <ele>79.2</ele>
        <time>2023-07-06T05:54:10Z</time>
      </trkpt>
      <trkpt lat="44.07689" lon="0.90229">
        <ele>79.2</ele>
        <time>2023-07-06T05:54:16Z</time>
      </trkpt>
      <trkpt lat="44.07691" lon="0.90242">
        <ele>79.4</ele>
        <time>2023-07-06T05:54:23Z</time>
      </trkpt>
      <trkpt lat="44.07692" lon="0.90244">
        <ele>79.6</ele>
        <time>2023-07-06T05:54:24Z</time>
      </trkpt>
      <trkpt lat="44.07693" lon="0.90254">
        <ele>79.8</ele>
        <time>2023-07-06T05:54:30Z</time>
      </trkpt>
      <trkpt lat="44.07693" lon="0.90258">
        <ele>79.8</ele>
        <time>2023-07-06T05:54:32Z</time>
      </trkpt>
      <trkpt lat="44.07693" lon="0.9026">
        <ele>79.8</ele>
        <time>2023-07-06T05:54:33Z</time>
      </trkpt>
      <trkpt lat="44.07694" lon="0.90265">
        <ele>80</ele>
        <time>2023-07-06T05:54:36Z</time>
      </trkpt>
      <trkpt lat="44.07693" lon="0.90269">
        <ele>79.8</ele>
        <time>2023-07-06T05:54:38Z</time>
      </trkpt>
      <trkpt lat="44.07693" lon="0.90274">
        <ele>79.8</ele>
        <time>2023-07-06T05:54:42Z</time>
      </trkpt>
      <trkpt lat="44.07695" lon="0.90288">
        <ele>79.6</ele>
        <time>2023-07-06T05:54:49Z</time>
      </trkpt>
      <trkpt lat="44.07695" lon="0.9029">
        <ele>79.8</ele>
        <time>2023-07-06T05:54:50Z</time>
      </trkpt>
      <trkpt lat="44.07697" lon="0.90303">
        <ele>80</ele>
        <time>2023-07-06T05:54:56Z</time>
      </trkpt>
      <trkpt lat="44.07698" lon="0.90314">
        <ele>80</ele>
        <time>2023-07-06T05:55:03Z</time>
      </trkpt>
      <trkpt lat="44.07698" lon="0.90317">
        <ele>80</ele>
        <time>2023-07-06T05:55:06Z</time>
      </trkpt>
      <trkpt lat="44.07699" lon="0.90323">
        <ele>80.2</ele>
        <time>2023-07-06T05:55:10Z</time>
      </trkpt>
      <trkpt lat="44.077" lon="0.90331">
        <ele>80.4</ele>
        <time>2023-07-06T05:55:16Z</time>
      </trkpt>
      <trkpt lat="44.077" lon="0.90339">
        <ele>80.4</ele>
        <time>2023-07-06T05:55:20Z</time>
      </trkpt>
      <trkpt lat="44.077" lon="0.90344">
        <ele>80.4</ele>
        <time>2023-07-06T05:55:22Z</time>
      </trkpt>
      <trkpt lat="44.077" lon="0.90346">
        <ele>80.2</ele>
        <time>2023-07-06T05:55:23Z</time>
      </trkpt>
      <trkpt lat="44.077" lon="0.90356">
        <ele>80</ele>
        <time>2023-07-06T05:55:28Z</time>
      </trkpt>
      <trkpt lat="44.07702" lon="0.90365">
        <ele>80</ele>
        <time>2023-07-06T05:55:35Z</time>
      </trkpt>
      <trkpt lat="44.07704" lon="0.9037">
        <ele>80</ele>
        <time>2023-07-06T05:55:38Z</time>
      </trkpt>
      <trkpt lat="44.07705" lon="0.90375">
        <ele>80</ele>
        <time>2023-07-06T05:55:40Z</time>
      </trkpt>
      <trkpt lat="44.07703" lon="0.90393">
        <ele>80</ele>
        <time>2023-07-06T05:55:46Z</time>
      </trkpt>
      <trkpt lat="44.07703" lon="0.90395">
        <ele>80</ele>
        <time>2023-07-06T05:55:47Z</time>
      </trkpt>
      <trkpt lat="44.07703" lon="0.90398">
        <ele>80</ele>
        <time>2023-07-06T05:55:48Z</time>
      </trkpt>
      <trkpt lat="44.07703" lon="0.904">
        <ele>80</ele>
        <time>2023-07-06T05:55:50Z</time>
      </trkpt>
      <trkpt lat="44.07704" lon="0.90402">
        <ele>79.8</ele>
        <time>2023-07-06T05:55:51Z</time>
      </trkpt>
      <trkpt lat="44.07704" lon="0.90404">
        <ele>79.8</ele>
        <time>2023-07-06T05:55:52Z</time>
      </trkpt>
      <trkpt lat="44.07703" lon="0.90407">
        <ele>79.8</ele>
        <time>2023-07-06T05:55:54Z</time>
      </trkpt>
      <trkpt lat="44.07703" lon="0.90409">
        <ele>79.6</ele>
        <time>2023-07-06T05:55:55Z</time>
      </trkpt>
      <trkpt lat="44.07703" lon="0.9041">
        <ele>79.6</ele>
        <time>2023-07-06T05:55:56Z</time>
      </trkpt>
      <trkpt lat="44.07703" lon="0.90412">
        <ele>79.4</ele>
        <time>2023-07-06T05:55:58Z</time>
      </trkpt>
      <trkpt lat="44.07704" lon="0.90413">
        <ele>79.4</ele>
        <time>2023-07-06T05:55:59Z</time>
      </trkpt>
      <trkpt lat="44.07704" lon="0.90415">
        <ele>79.4</ele>
        <time>2023-07-06T05:56:00Z</time>
      </trkpt>
      <trkpt lat="44.07704" lon="0.90418">
        <ele>79.6</ele>
        <time>2023-07-06T05:56:02Z</time>
      </trkpt>
      <trkpt lat="44.07705" lon="0.90424">
        <ele>79.8</ele>
        <time>2023-07-06T05:56:05Z</time>
      </trkpt>
      <trkpt lat="44.07705" lon="0.90429">
        <ele>79.8</ele>
        <time>2023-07-06T05:56:07Z</time>
      </trkpt>
      <trkpt lat="44.07706" lon="0.9044">
        <ele>79.6</ele>
        <time>2023-07-06T05:56:13Z</time>
      </trkpt>
      <trkpt lat="44.07708" lon="0.90451">
        <ele>79.6</ele>
        <time>2023-07-06T05:56:20Z</time>
      </trkpt>
      <trkpt lat="44.07707" lon="0.90452">
        <ele>79.6</ele>
        <time>2023-07-06T05:56:21Z</time>
      </trkpt>
      <trkpt lat="44.07709" lon="0.90463">
        <ele>79.8</ele>
        <time>2023-07-06T05:56:28Z</time>
      </trkpt>
      <trkpt lat="44.07709" lon="0.90479">
        <ele>79.6</ele>
        <time>2023-07-06T05:56:35Z</time>
      </trkpt>
      <trkpt lat="44.07709" lon="0.9048">
        <ele>79.4</ele>
        <time>2023-07-06T05:56:36Z</time>
      </trkpt>
      <trkpt lat="44.07709" lon="0.90484">
        <ele>79.4</ele>
        <time>2023-07-06T05:56:38Z</time>
      </trkpt>
      <trkpt lat="44.07709" lon="0.90486">
        <ele>79.4</ele>
        <time>2023-07-06T05:56:40Z</time>
      </trkpt>
      <trkpt lat="44.0771" lon="0.90489">
        <ele>79.4</ele>
        <time>2023-07-06T05:56:42Z</time>
      </trkpt>
      <trkpt lat="44.0771" lon="0.9049">
        <ele>79.4</ele>
        <time>2023-07-06T05:56:43Z</time>
      </trkpt>
      <trkpt lat="44.07709" lon="0.905">
        <ele>79.4</ele>
        <time>2023-07-06T05:56:49Z</time>
      </trkpt>
      <trkpt lat="44.07712" lon="0.90511">
        <ele>79.4</ele>
        <time>2023-07-06T05:56:56Z</time>
      </trkpt>
      <trkpt lat="44.07711" lon="0.90527">
        <ele>79.2</ele>
        <time>2023-07-06T05:57:03Z</time>
      </trkpt>
      <trkpt lat="44.07711" lon="0.90545">
        <ele>79</ele>
        <time>2023-07-06T05:57:12Z</time>
      </trkpt>
      <trkpt lat="44.07712" lon="0.9056">
        <ele>79</ele>
        <time>2023-07-06T05:57:20Z</time>
      </trkpt>
      <trkpt lat="44.07712" lon="0.90573">
        <ele>79</ele>
        <time>2023-07-06T05:57:28Z</time>
      </trkpt>
      <trkpt lat="44.07712" lon="0.90575">
        <ele>79</ele>
        <time>2023-07-06T05:57:29Z</time>
      </trkpt>
      <trkpt lat="44.07712" lon="0.90576">
        <ele>79</ele>
        <time>2023-07-06T05:57:30Z</time>
      </trkpt>
      <trkpt lat="44.07712" lon="0.90582">
        <ele>78.8</ele>
        <time>2023-07-06T05:57:34Z</time>
      </trkpt>
      <trkpt lat="44.07714" lon="0.90596">
        <ele>79</ele>
        <time>2023-07-06T05:57:42Z</time>
      </trkpt>
      <trkpt lat="44.07714" lon="0.90609">
        <ele>78.8</ele>
        <time>2023-07-06T05:57:49Z</time>
      </trkpt>
      <trkpt lat="44.07714" lon="0.90618">
        <ele>78.6</ele>
        <time>2023-07-06T05:57:53Z</time>
      </trkpt>
      <trkpt lat="44.07714" lon="0.90622">
        <ele>78.6</ele>
        <time>2023-07-06T05:57:55Z</time>
      </trkpt>
      <trkpt lat="44.07714" lon="0.90627">
        <ele>79</ele>
        <time>2023-07-06T05:57:57Z</time>
      </trkpt>
      <trkpt lat="44.07717" lon="0.9064">
        <ele>79</ele>
        <time>2023-07-06T05:58:04Z</time>
      </trkpt>
      <trkpt lat="44.07718" lon="0.90642">
        <ele>79</ele>
        <time>2023-07-06T05:58:05Z</time>
      </trkpt>
      <trkpt lat="44.07723" lon="0.90653">
        <ele>79</ele>
        <time>2023-07-06T05:58:12Z</time>
      </trkpt>
      <trkpt lat="44.0773" lon="0.90663">
        <ele>79.2</ele>
        <time>2023-07-06T05:58:19Z</time>
      </trkpt>
      <trkpt lat="44.07731" lon="0.90665">
        <ele>79.2</ele>
        <time>2023-07-06T05:58:20Z</time>
      </trkpt>
      <trkpt lat="44.0774" lon="0.90671">
        <ele>79</ele>
        <time>2023-07-06T05:58:28Z</time>
      </trkpt>
      <trkpt lat="44.07752" lon="0.90676">
        <ele>79.2</ele>
        <time>2023-07-06T05:58:37Z</time>
      </trkpt>
      <trkpt lat="44.07761" lon="0.9068">
        <ele>79</ele>
        <time>2023-07-06T05:58:45Z</time>
      </trkpt>
      <trkpt lat="44.0777" lon="0.90684">
        <ele>79.2</ele>
        <time>2023-07-06T05:58:52Z</time>
      </trkpt>
      <trkpt lat="44.07777" lon="0.90688">
        <ele>79</ele>
        <time>2023-07-06T05:58:58Z</time>
      </trkpt>
      <trkpt lat="44.07778" lon="0.90689">
        <ele>79</ele>
        <time>2023-07-06T05:58:59Z</time>
      </trkpt>
      <trkpt lat="44.07782" lon="0.90691">
        <ele>79</ele>
        <time>2023-07-06T05:59:02Z</time>
      </trkpt>
      <trkpt lat="44.0779" lon="0.90694">
        <ele>79.2</ele>
        <time>2023-07-06T05:59:09Z</time>
      </trkpt>
      <trkpt lat="44.07794" lon="0.90697">
        <ele>79.2</ele>
        <time>2023-07-06T05:59:12Z</time>
      </trkpt>
      <trkpt lat="44.07799" lon="0.907">
        <ele>79</ele>
        <time>2023-07-06T05:59:16Z</time>
      </trkpt>
      <trkpt lat="44.07803" lon="0.90704">
        <ele>79.2</ele>
        <time>2023-07-06T05:59:20Z</time>
      </trkpt>
      <trkpt lat="44.0781" lon="0.90708">
        <ele>79</ele>
        <time>2023-07-06T05:59:25Z</time>
      </trkpt>
      <trkpt lat="44.07815" lon="0.9071">
        <ele>78.8</ele>
        <time>2023-07-06T05:59:29Z</time>
      </trkpt>
      <trkpt lat="44.0782" lon="0.90713">
        <ele>79.2</ele>
        <time>2023-07-06T05:59:33Z</time>
      </trkpt>
      <trkpt lat="44.07824" lon="0.90717">
        <ele>79.2</ele>
        <time>2023-07-06T05:59:36Z</time>
      </trkpt>
      <trkpt lat="44.0783" lon="0.90721">
        <ele>79.2</ele>
        <time>2023-07-06T05:59:41Z</time>
      </trkpt>
      <trkpt lat="44.07838" lon="0.90727">
        <ele>79.2</ele>
        <time>2023-07-06T05:59:47Z</time>
      </trkpt>
      <trkpt lat="44.07839" lon="0.90729">
        <ele>79.2</ele>
        <time>2023-07-06T05:59:48Z</time>
      </trkpt>
      <trkpt lat="44.07841" lon="0.90736">
        <ele>79.4</ele>
        <time>2023-07-06T05:59:52Z</time>
      </trkpt>
      <trkpt lat="44.07843" lon="0.9074">
        <ele>79.2</ele>
        <time>2023-07-06T05:59:55Z</time>
      </trkpt>
      <trkpt lat="44.07847" lon="0.90749">
        <ele>79</ele>
        <time>2023-07-06T06:00:01Z</time>
      </trkpt>
      <trkpt lat="44.07847" lon="0.90758">
        <ele>79.2</ele>
        <time>2023-07-06T06:00:06Z</time>
      </trkpt>
      <trkpt lat="44.07847" lon="0.9076">
        <ele>79.2</ele>
        <time>2023-07-06T06:00:07Z</time>
      </trkpt>
      <trkpt lat="44.07849" lon="0.90766">
        <ele>79</ele>
        <time>2023-07-06T06:00:10Z</time>
      </trkpt>
      <trkpt lat="44.0785" lon="0.90768">
        <ele>79</ele>
        <time>2023-07-06T06:00:11Z</time>
      </trkpt>
      <trkpt lat="44.0785" lon="0.9077">
        <ele>78.8</ele>
        <time>2023-07-06T06:00:12Z</time>
      </trkpt>
      <trkpt lat="44.0785" lon="0.90773">
        <ele>79</ele>
        <time>2023-07-06T06:00:14Z</time>
      </trkpt>
      <trkpt lat="44.07851" lon="0.90779">
        <ele>79</ele>
        <time>2023-07-06T06:00:17Z</time>
      </trkpt>
      <trkpt lat="44.07851" lon="0.90785">
        <ele>79</ele>
        <time>2023-07-06T06:00:20Z</time>
      </trkpt>
      <trkpt lat="44.07851" lon="0.90787">
        <ele>79</ele>
        <time>2023-07-06T06:00:21Z</time>
      </trkpt>
      <trkpt lat="44.07852" lon="0.90789">
        <ele>79</ele>
        <time>2023-07-06T06:00:22Z</time>
      </trkpt>
      <trkpt lat="44.07854" lon="0.90795">
        <ele>79.2</ele>
        <time>2023-07-06T06:00:25Z</time>
      </trkpt>
      <trkpt lat="44.07855" lon="0.908">
        <ele>79.2</ele>
        <time>2023-07-06T06:00:28Z</time>
      </trkpt>
      <trkpt lat="44.07856" lon="0.90816">
        <ele>78.8</ele>
        <time>2023-07-06T06:00:36Z</time>
      </trkpt>
      <trkpt lat="44.07856" lon="0.90825">
        <ele>78.6</ele>
        <time>2023-07-06T06:00:41Z</time>
      </trkpt>
      <trkpt lat="44.07856" lon="0.90828">
        <ele>78.6</ele>
        <time>2023-07-06T06:00:43Z</time>
      </trkpt>
      <trkpt lat="44.07858" lon="0.90843">
        <ele>79</ele>
        <time>2023-07-06T06:00:51Z</time>
      </trkpt>
      <trkpt lat="44.07858" lon="0.90846">
        <ele>79</ele>
        <time>2023-07-06T06:00:53Z</time>
      </trkpt>
      <trkpt lat="44.07863" lon="0.90867">
        <ele>79</ele>
        <time>2023-07-06T06:01:03Z</time>
      </trkpt>
      <trkpt lat="44.07862" lon="0.90877">
        <ele>79</ele>
        <time>2023-07-06T06:01:09Z</time>
      </trkpt>
      <trkpt lat="44.07861" lon="0.90881">
        <ele>79</ele>
        <time>2023-07-06T06:01:11Z</time>
      </trkpt>
      <trkpt lat="44.07861" lon="0.90895">
        <ele>79</ele>
        <time>2023-07-06T06:01:19Z</time>
      </trkpt>
      <trkpt lat="44.07858" lon="0.90909">
        <ele>79</ele>
        <time>2023-07-06T06:01:26Z</time>
      </trkpt>
      <trkpt lat="44.07858" lon="0.90914">
        <ele>79.4</ele>
        <time>2023-07-06T06:01:29Z</time>
      </trkpt>
      <trkpt lat="44.07857" lon="0.90918">
        <ele>79.6</ele>
        <time>2023-07-06T06:01:31Z</time>
      </trkpt>
      <trkpt lat="44.07856" lon="0.90923">
        <ele>79.6</ele>
        <time>2023-07-06T06:01:34Z</time>
      </trkpt>
      <trkpt lat="44.07856" lon="0.90937">
        <ele>79.6</ele>
        <time>2023-07-06T06:01:42Z</time>
      </trkpt>
      <trkpt lat="44.07854" lon="0.9095">
        <ele>80.2</ele>
        <time>2023-07-06T06:01:49Z</time>
      </trkpt>
      <trkpt lat="44.07854" lon="0.90952">
        <ele>80.2</ele>
        <time>2023-07-06T06:01:50Z</time>
      </trkpt>
      <trkpt lat="44.07852" lon="0.90967">
        <ele>80.4</ele>
        <time>2023-07-06T06:01:58Z</time>
      </trkpt>
      <trkpt lat="44.07852" lon="0.90971">
        <ele>80.4</ele>
        <time>2023-07-06T06:02:00Z</time>
      </trkpt>
      <trkpt lat="44.07853" lon="0.90972">
        <ele>80.4</ele>
        <time>2023-07-06T06:02:01Z</time>
      </trkpt>
      <trkpt lat="44.07853" lon="0.90974">
        <ele>80.6</ele>
        <time>2023-07-06T06:02:02Z</time>
      </trkpt>
      <trkpt lat="44.07855" lon="0.9098">
        <ele>80.6</ele>
        <time>2023-07-06T06:02:05Z</time>
      </trkpt>
      <trkpt lat="44.07855" lon="0.90999">
        <ele>80.8</ele>
        <time>2023-07-06T06:02:15Z</time>
      </trkpt>
      <trkpt lat="44.07858" lon="0.91006">
        <ele>80.8</ele>
        <time>2023-07-06T06:02:20Z</time>
      </trkpt>
      <trkpt lat="44.07861" lon="0.91012">
        <ele>81</ele>
        <time>2023-07-06T06:02:24Z</time>
      </trkpt>
      <trkpt lat="44.07868" lon="0.91017">
        <ele>81</ele>
        <time>2023-07-06T06:02:29Z</time>
      </trkpt>
      <trkpt lat="44.07877" lon="0.91022">
        <ele>81</ele>
        <time>2023-07-06T06:02:36Z</time>
      </trkpt>
      <trkpt lat="44.0789" lon="0.91028">
        <ele>81</ele>
        <time>2023-07-06T06:02:47Z</time>
      </trkpt>
      <trkpt lat="44.07902" lon="0.91028">
        <ele>81</ele>
        <time>2023-07-06T06:02:56Z</time>
      </trkpt>
      <trkpt lat="44.07911" lon="0.91028">
        <ele>80.8</ele>
        <time>2023-07-06T06:03:02Z</time>
      </trkpt>
      <trkpt lat="44.07915" lon="0.91027">
        <ele>80.6</ele>
        <time>2023-07-06T06:03:05Z</time>
      </trkpt>
      <trkpt lat="44.0793" lon="0.91027">
        <ele>80.4</ele>
        <time>2023-07-06T06:03:16Z</time>
      </trkpt>
      <trkpt lat="44.07943" lon="0.91025">
        <ele>80.2</ele>
        <time>2023-07-06T06:03:26Z</time>
      </trkpt>
      <trkpt lat="44.07954" lon="0.91025">
        <ele>80</ele>
        <time>2023-07-06T06:03:34Z</time>
      </trkpt>
      <trkpt lat="44.07963" lon="0.91025">
        <ele>80</ele>
        <time>2023-07-06T06:03:40Z</time>
      </trkpt>
      <trkpt lat="44.0797" lon="0.91024">
        <ele>80</ele>
        <time>2023-07-06T06:03:45Z</time>
      </trkpt>
      <trkpt lat="44.07972" lon="0.91024">
        <ele>80</ele>
        <time>2023-07-06T06:03:46Z</time>
      </trkpt>
      <trkpt lat="44.07981" lon="0.91024">
        <ele>79.6</ele>
        <time>2023-07-06T06:03:52Z</time>
      </trkpt>
      <trkpt lat="44.07984" lon="0.91024">
        <ele>79.4</ele>
        <time>2023-07-06T06:03:54Z</time>
      </trkpt>
      <trkpt lat="44.07987" lon="0.91024">
        <ele>79.2</ele>
        <time>2023-07-06T06:03:56Z</time>
      </trkpt>
      <trkpt lat="44.07995" lon="0.91024">
        <ele>79.4</ele>
        <time>2023-07-06T06:04:01Z</time>
      </trkpt>
      <trkpt lat="44.08" lon="0.91023">
        <ele>79.2</ele>
        <time>2023-07-06T06:04:05Z</time>
      </trkpt>
      <trkpt lat="44.08003" lon="0.9102">
        <ele>79.2</ele>
        <time>2023-07-06T06:04:08Z</time>
      </trkpt>
      <trkpt lat="44.08012" lon="0.91014">
        <ele>79</ele>
        <time>2023-07-06T06:04:15Z</time>
      </trkpt>
      <trkpt lat="44.08017" lon="0.91014">
        <ele>78.2</ele>
        <time>2023-07-06T06:04:19Z</time>
      </trkpt>
      <trkpt lat="44.08029" lon="0.91012">
        <ele>78.6</ele>
        <time>2023-07-06T06:04:28Z</time>
      </trkpt>
      <trkpt lat="44.08043" lon="0.9101">
        <ele>78.4</ele>
        <time>2023-07-06T06:04:38Z</time>
      </trkpt>
      <trkpt lat="44.08054" lon="0.91008">
        <ele>78</ele>
        <time>2023-07-06T06:04:47Z</time>
      </trkpt>
      <trkpt lat="44.08065" lon="0.9101">
        <ele>78.2</ele>
        <time>2023-07-06T06:04:55Z</time>
      </trkpt>
      <trkpt lat="44.08067" lon="0.91011">
        <ele>78.2</ele>
        <time>2023-07-06T06:04:57Z</time>
      </trkpt>
      <trkpt lat="44.08073" lon="0.91014">
        <ele>78</ele>
        <time>2023-07-06T06:05:02Z</time>
      </trkpt>
      <trkpt lat="44.08082" lon="0.91022">
        <ele>78</ele>
        <time>2023-07-06T06:05:11Z</time>
      </trkpt>
      <trkpt lat="44.08094" lon="0.91033">
        <ele>78</ele>
        <time>2023-07-06T06:05:21Z</time>
      </trkpt>
      <trkpt lat="44.081" lon="0.91038">
        <ele>78.2</ele>
        <time>2023-07-06T06:05:26Z</time>
      </trkpt>
      <trkpt lat="44.08105" lon="0.91044">
        <ele>78.2</ele>
        <time>2023-07-06T06:05:31Z</time>
      </trkpt>
      <trkpt lat="44.0811" lon="0.91051">
        <ele>78.4</ele>
        <time>2023-07-06T06:05:37Z</time>
      </trkpt>
      <trkpt lat="44.08111" lon="0.91053">
        <ele>78.4</ele>
        <time>2023-07-06T06:05:38Z</time>
      </trkpt>
      <trkpt lat="44.08112" lon="0.91054">
        <ele>78.4</ele>
        <time>2023-07-06T06:05:39Z</time>
      </trkpt>
      <trkpt lat="44.08113" lon="0.91055">
        <ele>78.4</ele>
        <time>2023-07-06T06:05:40Z</time>
      </trkpt>
      <trkpt lat="44.08114" lon="0.91056">
        <ele>78.4</ele>
        <time>2023-07-06T06:05:41Z</time>
      </trkpt>
      <trkpt lat="44.08117" lon="0.91059">
        <ele>78.2</ele>
        <time>2023-07-06T06:05:43Z</time>
      </trkpt>
      <trkpt lat="44.08119" lon="0.91061">
        <ele>78.2</ele>
        <time>2023-07-06T06:05:45Z</time>
      </trkpt>
      <trkpt lat="44.08123" lon="0.91066">
        <ele>78.2</ele>
        <time>2023-07-06T06:05:49Z</time>
      </trkpt>
      <trkpt lat="44.08124" lon="0.91067">
        <ele>78.2</ele>
        <time>2023-07-06T06:05:50Z</time>
      </trkpt>
      <trkpt lat="44.08129" lon="0.91074">
        <ele>78.4</ele>
        <time>2023-07-06T06:05:56Z</time>
      </trkpt>
      <trkpt lat="44.08133" lon="0.9108">
        <ele>78.4</ele>
        <time>2023-07-06T06:06:00Z</time>
      </trkpt>
      <trkpt lat="44.08136" lon="0.91083">
        <ele>78.6</ele>
        <time>2023-07-06T06:06:03Z</time>
      </trkpt>
      <trkpt lat="44.08139" lon="0.91087">
        <ele>78.4</ele>
        <time>2023-07-06T06:06:06Z</time>
      </trkpt>
      <trkpt lat="44.08146" lon="0.91095">
        <ele>78.2</ele>
        <time>2023-07-06T06:06:13Z</time>
      </trkpt>
      <trkpt lat="44.08149" lon="0.91098">
        <ele>78.2</ele>
        <time>2023-07-06T06:06:15Z</time>
      </trkpt>
      <trkpt lat="44.08156" lon="0.91107">
        <ele>78.4</ele>
        <time>2023-07-06T06:06:22Z</time>
      </trkpt>
      <trkpt lat="44.08164" lon="0.91119">
        <ele>78.2</ele>
        <time>2023-07-06T06:06:31Z</time>
      </trkpt>
      <trkpt lat="44.08168" lon="0.91126">
        <ele>78</ele>
        <time>2023-07-06T06:06:35Z</time>
      </trkpt>
      <trkpt lat="44.08169" lon="0.91129">
        <ele>78</ele>
        <time>2023-07-06T06:06:37Z</time>
      </trkpt>
      <trkpt lat="44.08172" lon="0.91135">
        <ele>78</ele>
        <time>2023-07-06T06:06:41Z</time>
      </trkpt>
      <trkpt lat="44.08175" lon="0.91141">
        <ele>78.2</ele>
        <time>2023-07-06T06:06:45Z</time>
      </trkpt>
      <trkpt lat="44.08178" lon="0.91149">
        <ele>78.2</ele>
        <time>2023-07-06T06:06:51Z</time>
      </trkpt>
      <trkpt lat="44.0818" lon="0.91157">
        <ele>78</ele>
        <time>2023-07-06T06:06:56Z</time>
      </trkpt>
      <trkpt lat="44.08181" lon="0.91162">
        <ele>78</ele>
        <time>2023-07-06T06:07:00Z</time>
      </trkpt>
      <trkpt lat="44.08186" lon="0.91173">
        <ele>78.2</ele>
        <time>2023-07-06T06:07:08Z</time>
      </trkpt>
      <trkpt lat="44.08189" lon="0.9118">
        <ele>78.2</ele>
        <time>2023-07-06T06:07:12Z</time>
      </trkpt>
      <trkpt lat="44.08191" lon="0.91184">
        <ele>78.2</ele>
        <time>2023-07-06T06:07:15Z</time>
      </trkpt>
      <trkpt lat="44.08198" lon="0.91196">
        <ele>78.4</ele>
        <time>2023-07-06T06:07:23Z</time>
      </trkpt>
      <trkpt lat="44.08206" lon="0.91208">
        <ele>78.2</ele>
        <time>2023-07-06T06:07:32Z</time>
      </trkpt>
      <trkpt lat="44.08215" lon="0.91215">
        <ele>78</ele>
        <time>2023-07-06T06:07:39Z</time>
      </trkpt>
      <trkpt lat="44.08226" lon="0.91213">
        <ele>77.8</ele>
        <time>2023-07-06T06:07:45Z</time>
      </trkpt>
      <trkpt lat="44.08227" lon="0.91213">
        <ele>77.8</ele>
        <time>2023-07-06T06:07:46Z</time>
      </trkpt>
      <trkpt lat="44.08231" lon="0.91219">
        <ele>77.8</ele>
        <time>2023-07-06T06:07:50Z</time>
      </trkpt>
      <trkpt lat="44.08232" lon="0.91224">
        <ele>78</ele>
        <time>2023-07-06T06:07:53Z</time>
      </trkpt>
      <trkpt lat="44.08233" lon="0.91233">
        <ele>78</ele>
        <time>2023-07-06T06:07:58Z</time>
      </trkpt>
      <trkpt lat="44.08239" lon="0.91248">
        <ele>78.2</ele>
        <time>2023-07-06T06:08:08Z</time>
      </trkpt>
      <trkpt lat="44.08256" lon="0.91261">
        <ele>78</ele>
        <time>2023-07-06T06:08:20Z</time>
      </trkpt>
      <trkpt lat="44.08257" lon="0.91262">
        <ele>78</ele>
        <time>2023-07-06T06:08:21Z</time>
      </trkpt>
      <trkpt lat="44.08269" lon="0.91271">
        <ele>78.2</ele>
        <time>2023-07-06T06:08:30Z</time>
      </trkpt>
      <trkpt lat="44.08269" lon="0.91272">
        <ele>78.4</ele>
        <time>2023-07-06T06:08:31Z</time>
      </trkpt>
      <trkpt lat="44.08274" lon="0.91277">
        <ele>78.4</ele>
        <time>2023-07-06T06:08:35Z</time>
      </trkpt>
      <trkpt lat="44.08286" lon="0.91288">
        <ele>78.2</ele>
        <time>2023-07-06T06:08:45Z</time>
      </trkpt>
      <trkpt lat="44.08291" lon="0.91293">
        <ele>78.4</ele>
        <time>2023-07-06T06:08:49Z</time>
      </trkpt>
      <trkpt lat="44.08298" lon="0.91301">
        <ele>78.2</ele>
        <time>2023-07-06T06:08:56Z</time>
      </trkpt>
      <trkpt lat="44.08302" lon="0.91307">
        <ele>78.2</ele>
        <time>2023-07-06T06:09:00Z</time>
      </trkpt>
      <trkpt lat="44.08306" lon="0.91312">
        <ele>78.4</ele>
        <time>2023-07-06T06:09:04Z</time>
      </trkpt>
      <trkpt lat="44.08308" lon="0.91315">
        <ele>78.4</ele>
        <time>2023-07-06T06:09:06Z</time>
      </trkpt>
      <trkpt lat="44.08314" lon="0.91322">
        <ele>78.4</ele>
        <time>2023-07-06T06:09:12Z</time>
      </trkpt>
      <trkpt lat="44.08319" lon="0.91329">
        <ele>78.4</ele>
        <time>2023-07-06T06:09:17Z</time>
      </trkpt>
      <trkpt lat="44.08321" lon="0.91331">
        <ele>78.4</ele>
        <time>2023-07-06T06:09:19Z</time>
      </trkpt>
      <trkpt lat="44.08324" lon="0.91335">
        <ele>78.4</ele>
        <time>2023-07-06T06:09:22Z</time>
      </trkpt>
      <trkpt lat="44.08328" lon="0.91341">
        <ele>78.2</ele>
        <time>2023-07-06T06:09:26Z</time>
      </trkpt>
      <trkpt lat="44.08336" lon="0.91353">
        <ele>78.4</ele>
        <time>2023-07-06T06:09:35Z</time>
      </trkpt>
      <trkpt lat="44.08344" lon="0.91365">
        <ele>78.2</ele>
        <time>2023-07-06T06:09:44Z</time>
      </trkpt>
      <trkpt lat="44.08357" lon="0.9138">
        <ele>78.6</ele>
        <time>2023-07-06T06:09:56Z</time>
      </trkpt>
      <trkpt lat="44.08363" lon="0.91386">
        <ele>78.6</ele>
        <time>2023-07-06T06:10:01Z</time>
      </trkpt>
      <trkpt lat="44.08373" lon="0.91397">
        <ele>78.8</ele>
        <time>2023-07-06T06:10:10Z</time>
      </trkpt>
      <trkpt lat="44.08376" lon="0.91402">
        <ele>78.8</ele>
        <time>2023-07-06T06:10:14Z</time>
      </trkpt>
      <trkpt lat="44.08379" lon="0.91406">
        <ele>79</ele>
        <time>2023-07-06T06:10:17Z</time>
      </trkpt>
      <trkpt lat="44.08389" lon="0.91416">
        <ele>78.6</ele>
        <time>2023-07-06T06:10:25Z</time>
      </trkpt>
      <trkpt lat="44.08391" lon="0.91419">
        <ele>78.6</ele>
        <time>2023-07-06T06:10:27Z</time>
      </trkpt>
      <trkpt lat="44.08401" lon="0.91432">
        <ele>79</ele>
        <time>2023-07-06T06:10:37Z</time>
      </trkpt>
      <trkpt lat="44.08403" lon="0.91435">
        <ele>79</ele>
        <time>2023-07-06T06:10:39Z</time>
      </trkpt>
      <trkpt lat="44.08405" lon="0.91437">
        <ele>78.8</ele>
        <time>2023-07-06T06:10:41Z</time>
      </trkpt>
      <trkpt lat="44.08409" lon="0.91442">
        <ele>78.8</ele>
        <time>2023-07-06T06:10:45Z</time>
      </trkpt>
      <trkpt lat="44.08419" lon="0.91456">
        <ele>78.6</ele>
        <time>2023-07-06T06:10:56Z</time>
      </trkpt>
      <trkpt lat="44.08422" lon="0.9146">
        <ele>78.6</ele>
        <time>2023-07-06T06:10:59Z</time>
      </trkpt>
      <trkpt lat="44.08432" lon="0.91471">
        <ele>78.8</ele>
        <time>2023-07-06T06:11:08Z</time>
      </trkpt>
      <trkpt lat="44.08433" lon="0.91472">
        <ele>78.6</ele>
        <time>2023-07-06T06:11:09Z</time>
      </trkpt>
      <trkpt lat="44.08441" lon="0.91482">
        <ele>78.6</ele>
        <time>2023-07-06T06:11:17Z</time>
      </trkpt>
      <trkpt lat="44.08443" lon="0.91485">
        <ele>78.6</ele>
        <time>2023-07-06T06:11:20Z</time>
      </trkpt>
      <trkpt lat="44.08444" lon="0.91486">
        <ele>78.6</ele>
        <time>2023-07-06T06:11:21Z</time>
      </trkpt>
      <trkpt lat="44.08447" lon="0.91489">
        <ele>78.6</ele>
        <time>2023-07-06T06:11:24Z</time>
      </trkpt>
      <trkpt lat="44.0845" lon="0.91493">
        <ele>78.8</ele>
        <time>2023-07-06T06:11:28Z</time>
      </trkpt>
      <trkpt lat="44.08452" lon="0.91495">
        <ele>78.6</ele>
        <time>2023-07-06T06:11:30Z</time>
      </trkpt>
      <trkpt lat="44.08453" lon="0.91495">
        <ele>78.6</ele>
        <time>2023-07-06T06:11:31Z</time>
      </trkpt>
      <trkpt lat="44.08461" lon="0.91503">
        <ele>78.8</ele>
        <time>2023-07-06T06:11:39Z</time>
      </trkpt>
      <trkpt lat="44.08473" lon="0.91511">
        <ele>78.4</ele>
        <time>2023-07-06T06:11:48Z</time>
      </trkpt>
      <trkpt lat="44.08486" lon="0.91522">
        <ele>78.2</ele>
        <time>2023-07-06T06:11:58Z</time>
      </trkpt>
      <trkpt lat="44.085" lon="0.91534">
        <ele>78.6</ele>
        <time>2023-07-06T06:12:10Z</time>
      </trkpt>
      <trkpt lat="44.08502" lon="0.91536">
        <ele>78.6</ele>
        <time>2023-07-06T06:12:12Z</time>
      </trkpt>
      <trkpt lat="44.08515" lon="0.91547">
        <ele>78.8</ele>
        <time>2023-07-06T06:12:23Z</time>
      </trkpt>
      <trkpt lat="44.08517" lon="0.91549">
        <ele>78.8</ele>
        <time>2023-07-06T06:12:25Z</time>
      </trkpt>
      <trkpt lat="44.08523" lon="0.91554">
        <ele>78.6</ele>
        <time>2023-07-06T06:12:30Z</time>
      </trkpt>
      <trkpt lat="44.08525" lon="0.91556">
        <ele>78.6</ele>
        <time>2023-07-06T06:12:32Z</time>
      </trkpt>
      <trkpt lat="44.08527" lon="0.91557">
        <ele>78.8</ele>
        <time>2023-07-06T06:12:34Z</time>
      </trkpt>
      <trkpt lat="44.08531" lon="0.9156">
        <ele>78.6</ele>
        <time>2023-07-06T06:12:37Z</time>
      </trkpt>
      <trkpt lat="44.08535" lon="0.91564">
        <ele>78.6</ele>
        <time>2023-07-06T06:12:41Z</time>
      </trkpt>
      <trkpt lat="44.0854" lon="0.9157">
        <ele>78.8</ele>
        <time>2023-07-06T06:12:46Z</time>
      </trkpt>
      <trkpt lat="44.08542" lon="0.91573">
        <ele>78.8</ele>
        <time>2023-07-06T06:12:48Z</time>
      </trkpt>
      <trkpt lat="44.08548" lon="0.91582">
        <ele>79</ele>
        <time>2023-07-06T06:12:54Z</time>
      </trkpt>
      <trkpt lat="44.08549" lon="0.91584">
        <ele>79.2</ele>
        <time>2023-07-06T06:12:55Z</time>
      </trkpt>
      <trkpt lat="44.08551" lon="0.91587">
        <ele>79.4</ele>
        <time>2023-07-06T06:12:57Z</time>
      </trkpt>
      <trkpt lat="44.08551" lon="0.91589">
        <ele>79.4</ele>
        <time>2023-07-06T06:12:58Z</time>
      </trkpt>
      <trkpt lat="44.08553" lon="0.91592">
        <ele>79.4</ele>
        <time>2023-07-06T06:13:00Z</time>
      </trkpt>
      <trkpt lat="44.0856" lon="0.91605">
        <ele>79.2</ele>
        <time>2023-07-06T06:13:08Z</time>
      </trkpt>
      <trkpt lat="44.08565" lon="0.91618">
        <ele>79</ele>
        <time>2023-07-06T06:13:17Z</time>
      </trkpt>
      <trkpt lat="44.08575" lon="0.91633">
        <ele>79</ele>
        <time>2023-07-06T06:13:28Z</time>
      </trkpt>
      <trkpt lat="44.08576" lon="0.91634">
        <ele>79</ele>
        <time>2023-07-06T06:13:29Z</time>
      </trkpt>
      <trkpt lat="44.08577" lon="0.91636">
        <ele>79</ele>
        <time>2023-07-06T06:13:30Z</time>
      </trkpt>
      <trkpt lat="44.08578" lon="0.91637">
        <ele>79.2</ele>
        <time>2023-07-06T06:13:31Z</time>
      </trkpt>
      <trkpt lat="44.08579" lon="0.9164">
        <ele>79.2</ele>
        <time>2023-07-06T06:13:33Z</time>
      </trkpt>
      <trkpt lat="44.08581" lon="0.91642">
        <ele>79</ele>
        <time>2023-07-06T06:13:35Z</time>
      </trkpt>
      <trkpt lat="44.08582" lon="0.91643">
        <ele>79.2</ele>
        <time>2023-07-06T06:13:36Z</time>
      </trkpt>
      <trkpt lat="44.08583" lon="0.91645">
        <ele>79.2</ele>
        <time>2023-07-06T06:13:37Z</time>
      </trkpt>
      <trkpt lat="44.08586" lon="0.91649">
        <ele>79.4</ele>
        <time>2023-07-06T06:13:40Z</time>
      </trkpt>
      <trkpt lat="44.08587" lon="0.9165">
        <ele>79.4</ele>
        <time>2023-07-06T06:13:41Z</time>
      </trkpt>
      <trkpt lat="44.08591" lon="0.91656">
        <ele>79.2</ele>
        <time>2023-07-06T06:13:45Z</time>
      </trkpt>
      <trkpt lat="44.08593" lon="0.91658">
        <ele>79.2</ele>
        <time>2023-07-06T06:13:47Z</time>
      </trkpt>
      <trkpt lat="44.086" lon="0.91668">
        <ele>79</ele>
        <time>2023-07-06T06:13:54Z</time>
      </trkpt>
      <trkpt lat="44.08602" lon="0.91672">
        <ele>78.8</ele>
        <time>2023-07-06T06:13:57Z</time>
      </trkpt>
      <trkpt lat="44.08607" lon="0.9168">
        <ele>79</ele>
        <time>2023-07-06T06:14:03Z</time>
      </trkpt>
      <trkpt lat="44.08609" lon="0.91683">
        <ele>79</ele>
        <time>2023-07-06T06:14:05Z</time>
      </trkpt>
      <trkpt lat="44.0861" lon="0.91684">
        <ele>78.8</ele>
        <time>2023-07-06T06:14:06Z</time>
      </trkpt>
      <trkpt lat="44.08615" lon="0.91691">
        <ele>78.6</ele>
        <time>2023-07-06T06:14:11Z</time>
      </trkpt>
      <trkpt lat="44.08619" lon="0.91696">
        <ele>78.6</ele>
        <time>2023-07-06T06:14:15Z</time>
      </trkpt>
      <trkpt lat="44.08624" lon="0.91701">
        <ele>78.8</ele>
        <time>2023-07-06T06:14:20Z</time>
      </trkpt>
      <trkpt lat="44.08633" lon="0.91709">
        <ele>79</ele>
        <time>2023-07-06T06:14:29Z</time>
      </trkpt>
      <trkpt lat="44.08638" lon="0.91713">
        <ele>79</ele>
        <time>2023-07-06T06:14:33Z</time>
      </trkpt>
      <trkpt lat="44.08644" lon="0.91717">
        <ele>78.6</ele>
        <time>2023-07-06T06:14:38Z</time>
      </trkpt>
      <trkpt lat="44.08647" lon="0.91719">
        <ele>78.6</ele>
        <time>2023-07-06T06:14:40Z</time>
      </trkpt>
      <trkpt lat="44.08657" lon="0.91724">
        <ele>78.8</ele>
        <time>2023-07-06T06:14:48Z</time>
      </trkpt>
      <trkpt lat="44.08658" lon="0.91725">
        <ele>79</ele>
        <time>2023-07-06T06:14:49Z</time>
      </trkpt>
      <trkpt lat="44.08664" lon="0.91729">
        <ele>79.4</ele>
        <time>2023-07-06T06:14:54Z</time>
      </trkpt>
      <trkpt lat="44.0867" lon="0.91732">
        <ele>79</ele>
        <time>2023-07-06T06:14:58Z</time>
      </trkpt>
      <trkpt lat="44.08679" lon="0.91734">
        <ele>79</ele>
        <time>2023-07-06T06:15:05Z</time>
      </trkpt>
      <trkpt lat="44.08683" lon="0.91736">
        <ele>79</ele>
        <time>2023-07-06T06:15:08Z</time>
      </trkpt>
      <trkpt lat="44.08687" lon="0.91738">
        <ele>79</ele>
        <time>2023-07-06T06:15:11Z</time>
      </trkpt>
      <trkpt lat="44.08697" lon="0.91742">
        <ele>79</ele>
        <time>2023-07-06T06:15:19Z</time>
      </trkpt>
      <trkpt lat="44.08698" lon="0.91743">
        <ele>79</ele>
        <time>2023-07-06T06:15:20Z</time>
      </trkpt>
      <trkpt lat="44.087" lon="0.91743">
        <ele>79</ele>
        <time>2023-07-06T06:15:21Z</time>
      </trkpt>
      <trkpt lat="44.08706" lon="0.91745">
        <ele>79</ele>
        <time>2023-07-06T06:15:26Z</time>
      </trkpt>
      <trkpt lat="44.08707" lon="0.91745">
        <ele>79</ele>
        <time>2023-07-06T06:15:27Z</time>
      </trkpt>
      <trkpt lat="44.08709" lon="0.91746">
        <ele>79.2</ele>
        <time>2023-07-06T06:15:29Z</time>
      </trkpt>
      <trkpt lat="44.08711" lon="0.91748">
        <ele>79</ele>
        <time>2023-07-06T06:15:31Z</time>
      </trkpt>
      <trkpt lat="44.08713" lon="0.9175">
        <ele>79.2</ele>
        <time>2023-07-06T06:15:33Z</time>
      </trkpt>
      <trkpt lat="44.08714" lon="0.9175">
        <ele>79.2</ele>
        <time>2023-07-06T06:15:34Z</time>
      </trkpt>
      <trkpt lat="44.08717" lon="0.91751">
        <ele>79</ele>
        <time>2023-07-06T06:15:36Z</time>
      </trkpt>
      <trkpt lat="44.08728" lon="0.91756">
        <ele>78.6</ele>
        <time>2023-07-06T06:15:44Z</time>
      </trkpt>
      <trkpt lat="44.08735" lon="0.91765">
        <ele>78.8</ele>
        <time>2023-07-06T06:15:52Z</time>
      </trkpt>
      <trkpt lat="44.08736" lon="0.91766">
        <ele>78.8</ele>
        <time>2023-07-06T06:15:53Z</time>
      </trkpt>
      <trkpt lat="44.0875" lon="0.91778">
        <ele>78.8</ele>
        <time>2023-07-06T06:16:02Z</time>
      </trkpt>
      <trkpt lat="44.08762" lon="0.91788">
        <ele>78.6</ele>
        <time>2023-07-06T06:16:12Z</time>
      </trkpt>
      <trkpt lat="44.08763" lon="0.9179">
        <ele>78.2</ele>
        <time>2023-07-06T06:16:14Z</time>
      </trkpt>
      <trkpt lat="44.0877" lon="0.91798">
        <ele>78</ele>
        <time>2023-07-06T06:16:21Z</time>
      </trkpt>
      <trkpt lat="44.08782" lon="0.91808">
        <ele>78.2</ele>
        <time>2023-07-06T06:16:31Z</time>
      </trkpt>
      <trkpt lat="44.08786" lon="0.91812">
        <ele>78</ele>
        <time>2023-07-06T06:16:35Z</time>
      </trkpt>
      <trkpt lat="44.08792" lon="0.91817">
        <ele>77.8</ele>
        <time>2023-07-06T06:16:40Z</time>
      </trkpt>
      <trkpt lat="44.08794" lon="0.91819">
        <ele>77.6</ele>
        <time>2023-07-06T06:16:42Z</time>
      </trkpt>
      <trkpt lat="44.08803" lon="0.91827">
        <ele>77.4</ele>
        <time>2023-07-06T06:16:50Z</time>
      </trkpt>
      <trkpt lat="44.0881" lon="0.91832">
        <ele>77.6</ele>
        <time>2023-07-06T06:16:56Z</time>
      </trkpt>
      <trkpt lat="44.08814" lon="0.91837">
        <ele>77.6</ele>
        <time>2023-07-06T06:17:00Z</time>
      </trkpt>
      <trkpt lat="44.08812" lon="0.91845">
        <ele>77.6</ele>
        <time>2023-07-06T06:17:05Z</time>
      </trkpt>
      <trkpt lat="44.08812" lon="0.91847">
        <ele>77.6</ele>
        <time>2023-07-06T06:17:06Z</time>
      </trkpt>
      <trkpt lat="44.08814" lon="0.91852">
        <ele>77.2</ele>
        <time>2023-07-06T06:17:09Z</time>
      </trkpt>
      <trkpt lat="44.08819" lon="0.91855">
        <ele>77.2</ele>
        <time>2023-07-06T06:17:13Z</time>
      </trkpt>
      <trkpt lat="44.08819" lon="0.91856">
        <ele>77.2</ele>
        <time>2023-07-06T06:17:14Z</time>
      </trkpt>
      <trkpt lat="44.08821" lon="0.91858">
        <ele>77.2</ele>
        <time>2023-07-06T06:17:16Z</time>
      </trkpt>
      <trkpt lat="44.08826" lon="0.9186">
        <ele>77.4</ele>
        <time>2023-07-06T06:17:20Z</time>
      </trkpt>
      <trkpt lat="44.08829" lon="0.91862">
        <ele>77.4</ele>
        <time>2023-07-06T06:17:22Z</time>
      </trkpt>
      <trkpt lat="44.08835" lon="0.91864">
        <ele>77.4</ele>
        <time>2023-07-06T06:17:26Z</time>
      </trkpt>
      <trkpt lat="44.08841" lon="0.91867">
        <ele>77.4</ele>
        <time>2023-07-06T06:17:30Z</time>
      </trkpt>
      <trkpt lat="44.08853" lon="0.91873">
        <ele>77.6</ele>
        <time>2023-07-06T06:17:40Z</time>
      </trkpt>
      <trkpt lat="44.08863" lon="0.91877">
        <ele>77.8</ele>
        <time>2023-07-06T06:17:48Z</time>
      </trkpt>
      <trkpt lat="44.08874" lon="0.91885">
        <ele>77.8</ele>
        <time>2023-07-06T06:17:57Z</time>
      </trkpt>
      <trkpt lat="44.08882" lon="0.91891">
        <ele>78</ele>
        <time>2023-07-06T06:18:04Z</time>
      </trkpt>
      <trkpt lat="44.0889" lon="0.919">
        <ele>78.2</ele>
        <time>2023-07-06T06:18:12Z</time>
      </trkpt>
      <trkpt lat="44.08892" lon="0.91901">
        <ele>78.4</ele>
        <time>2023-07-06T06:18:13Z</time>
      </trkpt>
      <trkpt lat="44.08903" lon="0.91911">
        <ele>78.4</ele>
        <time>2023-07-06T06:18:23Z</time>
      </trkpt>
      <trkpt lat="44.08908" lon="0.91914">
        <ele>78.4</ele>
        <time>2023-07-06T06:18:28Z</time>
      </trkpt>
      <trkpt lat="44.08911" lon="0.91916">
        <ele>78.6</ele>
        <time>2023-07-06T06:18:31Z</time>
      </trkpt>
      <trkpt lat="44.08922" lon="0.91923">
        <ele>78.6</ele>
        <time>2023-07-06T06:18:39Z</time>
      </trkpt>
      <trkpt lat="44.08926" lon="0.91927">
        <ele>78.6</ele>
        <time>2023-07-06T06:18:43Z</time>
      </trkpt>
      <trkpt lat="44.08927" lon="0.91928">
        <ele>78.4</ele>
        <time>2023-07-06T06:18:44Z</time>
      </trkpt>
      <trkpt lat="44.08929" lon="0.91931">
        <ele>78.4</ele>
        <time>2023-07-06T06:18:47Z</time>
      </trkpt>
      <trkpt lat="44.0894" lon="0.91941">
        <ele>78.4</ele>
        <time>2023-07-06T06:18:56Z</time>
      </trkpt>
      <trkpt lat="44.08949" lon="0.9195">
        <ele>78.6</ele>
        <time>2023-07-06T06:19:04Z</time>
      </trkpt>
      <trkpt lat="44.08962" lon="0.91963">
        <ele>78.4</ele>
        <time>2023-07-06T06:19:15Z</time>
      </trkpt>
      <trkpt lat="44.08965" lon="0.91966">
        <ele>78.8</ele>
        <time>2023-07-06T06:19:18Z</time>
      </trkpt>
      <trkpt lat="44.08971" lon="0.91976">
        <ele>78.8</ele>
        <time>2023-07-06T06:19:25Z</time>
      </trkpt>
      <trkpt lat="44.08979" lon="0.91988">
        <ele>78.2</ele>
        <time>2023-07-06T06:19:34Z</time>
      </trkpt>
      <trkpt lat="44.08981" lon="0.91991">
        <ele>78.2</ele>
        <time>2023-07-06T06:19:36Z</time>
      </trkpt>
      <trkpt lat="44.08983" lon="0.91993">
        <ele>78.4</ele>
        <time>2023-07-06T06:19:38Z</time>
      </trkpt>
      <trkpt lat="44.08987" lon="0.92">
        <ele>78.4</ele>
        <time>2023-07-06T06:19:43Z</time>
      </trkpt>
      <trkpt lat="44.08996" lon="0.92013">
        <ele>78.4</ele>
        <time>2023-07-06T06:19:53Z</time>
      </trkpt>
      <trkpt lat="44.09004" lon="0.92026">
        <ele>78.8</ele>
        <time>2023-07-06T06:20:02Z</time>
      </trkpt>
      <trkpt lat="44.09006" lon="0.9203">
        <ele>79</ele>
        <time>2023-07-06T06:20:05Z</time>
      </trkpt>
      <trkpt lat="44.09009" lon="0.92034">
        <ele>79</ele>
        <time>2023-07-06T06:20:08Z</time>
      </trkpt>
      <trkpt lat="44.09012" lon="0.92039">
        <ele>79</ele>
        <time>2023-07-06T06:20:12Z</time>
      </trkpt>
      <trkpt lat="44.09014" lon="0.92041">
        <ele>79</ele>
        <time>2023-07-06T06:20:14Z</time>
      </trkpt>
      <trkpt lat="44.0902" lon="0.92051">
        <ele>79.2</ele>
        <time>2023-07-06T06:20:21Z</time>
      </trkpt>
      <trkpt lat="44.0903" lon="0.92063">
        <ele>79</ele>
        <time>2023-07-06T06:20:30Z</time>
      </trkpt>
      <trkpt lat="44.09032" lon="0.92067">
        <ele>78.8</ele>
        <time>2023-07-06T06:20:33Z</time>
      </trkpt>
      <trkpt lat="44.09039" lon="0.92075">
        <ele>79</ele>
        <time>2023-07-06T06:20:39Z</time>
      </trkpt>
      <trkpt lat="44.09042" lon="0.9208">
        <ele>79.2</ele>
        <time>2023-07-06T06:20:43Z</time>
      </trkpt>
      <trkpt lat="44.09043" lon="0.92081">
        <ele>79.4</ele>
        <time>2023-07-06T06:20:44Z</time>
      </trkpt>
      <trkpt lat="44.09044" lon="0.92083">
        <ele>79.4</ele>
        <time>2023-07-06T06:20:45Z</time>
      </trkpt>
      <trkpt lat="44.09048" lon="0.92088">
        <ele>79.2</ele>
        <time>2023-07-06T06:20:49Z</time>
      </trkpt>
      <trkpt lat="44.09051" lon="0.92092">
        <ele>79.2</ele>
        <time>2023-07-06T06:20:52Z</time>
      </trkpt>
      <trkpt lat="44.09057" lon="0.92098">
        <ele>79.4</ele>
        <time>2023-07-06T06:20:57Z</time>
      </trkpt>
      <trkpt lat="44.0906" lon="0.92102">
        <ele>79.4</ele>
        <time>2023-07-06T06:21:00Z</time>
      </trkpt>
      <trkpt lat="44.09062" lon="0.92105">
        <ele>79.4</ele>
        <time>2023-07-06T06:21:03Z</time>
      </trkpt>
      <trkpt lat="44.09065" lon="0.92109">
        <ele>79.6</ele>
        <time>2023-07-06T06:21:06Z</time>
      </trkpt>
      <trkpt lat="44.09066" lon="0.9211">
        <ele>79.6</ele>
        <time>2023-07-06T06:21:07Z</time>
      </trkpt>
      <trkpt lat="44.09067" lon="0.92112">
        <ele>79.4</ele>
        <time>2023-07-06T06:21:08Z</time>
      </trkpt>
      <trkpt lat="44.09068" lon="0.92113">
        <ele>79.4</ele>
        <time>2023-07-06T06:21:09Z</time>
      </trkpt>
      <trkpt lat="44.0907" lon="0.92114">
        <ele>79.4</ele>
        <time>2023-07-06T06:21:10Z</time>
      </trkpt>
      <trkpt lat="44.09071" lon="0.92116">
        <ele>79.4</ele>
        <time>2023-07-06T06:21:11Z</time>
      </trkpt>
      <trkpt lat="44.09074" lon="0.9212">
        <ele>79.4</ele>
        <time>2023-07-06T06:21:14Z</time>
      </trkpt>
      <trkpt lat="44.09077" lon="0.92123">
        <ele>79.4</ele>
        <time>2023-07-06T06:21:17Z</time>
      </trkpt>
      <trkpt lat="44.09078" lon="0.92125">
        <ele>79.4</ele>
        <time>2023-07-06T06:21:18Z</time>
      </trkpt>
      <trkpt lat="44.09084" lon="0.92136">
        <ele>79.4</ele>
        <time>2023-07-06T06:21:27Z</time>
      </trkpt>
      <trkpt lat="44.09086" lon="0.92142">
        <ele>79.4</ele>
        <time>2023-07-06T06:21:31Z</time>
      </trkpt>
      <trkpt lat="44.09089" lon="0.92147">
        <ele>79.6</ele>
        <time>2023-07-06T06:21:34Z</time>
      </trkpt>
      <trkpt lat="44.09091" lon="0.9215">
        <ele>79.6</ele>
        <time>2023-07-06T06:21:36Z</time>
      </trkpt>
      <trkpt lat="44.09096" lon="0.92153">
        <ele>79.6</ele>
        <time>2023-07-06T06:21:40Z</time>
      </trkpt>
      <trkpt lat="44.091" lon="0.92155">
        <ele>79.8</ele>
        <time>2023-07-06T06:21:43Z</time>
      </trkpt>
      <trkpt lat="44.09105" lon="0.9216">
        <ele>79.8</ele>
        <time>2023-07-06T06:21:48Z</time>
      </trkpt>
      <trkpt lat="44.09108" lon="0.92162">
        <ele>79.6</ele>
        <time>2023-07-06T06:21:50Z</time>
      </trkpt>
      <trkpt lat="44.09119" lon="0.92173">
        <ele>79.6</ele>
        <time>2023-07-06T06:22:00Z</time>
      </trkpt>
      <trkpt lat="44.09127" lon="0.92187">
        <ele>79.6</ele>
        <time>2023-07-06T06:22:09Z</time>
      </trkpt>
      <trkpt lat="44.09128" lon="0.92188">
        <ele>79.6</ele>
        <time>2023-07-06T06:22:10Z</time>
      </trkpt>
      <trkpt lat="44.09129" lon="0.92189">
        <ele>79.6</ele>
        <time>2023-07-06T06:22:11Z</time>
      </trkpt>
      <trkpt lat="44.09132" lon="0.92193">
        <ele>79.8</ele>
        <time>2023-07-06T06:22:14Z</time>
      </trkpt>
      <trkpt lat="44.09134" lon="0.92197">
        <ele>80</ele>
        <time>2023-07-06T06:22:17Z</time>
      </trkpt>
      <trkpt lat="44.09136" lon="0.92199">
        <ele>79.8</ele>
        <time>2023-07-06T06:22:19Z</time>
      </trkpt>
      <trkpt lat="44.09145" lon="0.92211">
        <ele>79.8</ele>
        <time>2023-07-06T06:22:27Z</time>
      </trkpt>
      <trkpt lat="44.09146" lon="0.92214">
        <ele>79.8</ele>
        <time>2023-07-06T06:22:29Z</time>
      </trkpt>
      <trkpt lat="44.09152" lon="0.92228">
        <ele>79.4</ele>
        <time>2023-07-06T06:22:38Z</time>
      </trkpt>
      <trkpt lat="44.09157" lon="0.9224">
        <ele>79.2</ele>
        <time>2023-07-06T06:22:46Z</time>
      </trkpt>
      <trkpt lat="44.09167" lon="0.92248">
        <ele>79</ele>
        <time>2023-07-06T06:22:52Z</time>
      </trkpt>
      <trkpt lat="44.09168" lon="0.92254">
        <ele>79</ele>
        <time>2023-07-06T06:22:56Z</time>
      </trkpt>
      <trkpt lat="44.09169" lon="0.92256">
        <ele>79.2</ele>
        <time>2023-07-06T06:22:57Z</time>
      </trkpt>
      <trkpt lat="44.09177" lon="0.92265">
        <ele>79</ele>
        <time>2023-07-06T06:23:06Z</time>
      </trkpt>
      <trkpt lat="44.09185" lon="0.92275">
        <ele>78.6</ele>
        <time>2023-07-06T06:23:14Z</time>
      </trkpt>
      <trkpt lat="44.09193" lon="0.92287">
        <ele>78.4</ele>
        <time>2023-07-06T06:23:22Z</time>
      </trkpt>
      <trkpt lat="44.09194" lon="0.92288">
        <ele>78.8</ele>
        <time>2023-07-06T06:23:23Z</time>
      </trkpt>
      <trkpt lat="44.09199" lon="0.92298">
        <ele>78.8</ele>
        <time>2023-07-06T06:23:30Z</time>
      </trkpt>
      <trkpt lat="44.09204" lon="0.92308">
        <ele>79.2</ele>
        <time>2023-07-06T06:23:38Z</time>
      </trkpt>
      <trkpt lat="44.09205" lon="0.92309">
        <ele>79.2</ele>
        <time>2023-07-06T06:23:39Z</time>
      </trkpt>
      <trkpt lat="44.09211" lon="0.92316">
        <ele>79.2</ele>
        <time>2023-07-06T06:23:45Z</time>
      </trkpt>
      <trkpt lat="44.09218" lon="0.92328">
        <ele>79.4</ele>
        <time>2023-07-06T06:23:52Z</time>
      </trkpt>
      <trkpt lat="44.09224" lon="0.9234">
        <ele>79.4</ele>
        <time>2023-07-06T06:24:00Z</time>
      </trkpt>
      <trkpt lat="44.09226" lon="0.92343">
        <ele>79.4</ele>
        <time>2023-07-06T06:24:02Z</time>
      </trkpt>
      <trkpt lat="44.09231" lon="0.92351">
        <ele>79.4</ele>
        <time>2023-07-06T06:24:08Z</time>
      </trkpt>
      <trkpt lat="44.09235" lon="0.92358">
        <ele>79.4</ele>
        <time>2023-07-06T06:24:13Z</time>
      </trkpt>
      <trkpt lat="44.09235" lon="0.92361">
        <ele>79.6</ele>
        <time>2023-07-06T06:24:15Z</time>
      </trkpt>
      <trkpt lat="44.09243" lon="0.92376">
        <ele>79</ele>
        <time>2023-07-06T06:24:24Z</time>
      </trkpt>
      <trkpt lat="44.09249" lon="0.9239">
        <ele>79.6</ele>
        <time>2023-07-06T06:24:32Z</time>
      </trkpt>
      <trkpt lat="44.09249" lon="0.92392">
        <ele>79.6</ele>
        <time>2023-07-06T06:24:33Z</time>
      </trkpt>
      <trkpt lat="44.09257" lon="0.92406">
        <ele>79.4</ele>
        <time>2023-07-06T06:24:42Z</time>
      </trkpt>
      <trkpt lat="44.09261" lon="0.92415">
        <ele>79.4</ele>
        <time>2023-07-06T06:24:49Z</time>
      </trkpt>
      <trkpt lat="44.09268" lon="0.92424">
        <ele>79.4</ele>
        <time>2023-07-06T06:24:55Z</time>
      </trkpt>
      <trkpt lat="44.0927" lon="0.92429">
        <ele>79.6</ele>
        <time>2023-07-06T06:24:58Z</time>
      </trkpt>
      <trkpt lat="44.09273" lon="0.92436">
        <ele>79.6</ele>
        <time>2023-07-06T06:25:03Z</time>
      </trkpt>
      <trkpt lat="44.09277" lon="0.9244">
        <ele>79.8</ele>
        <time>2023-07-06T06:25:06Z</time>
      </trkpt>
      <trkpt lat="44.09281" lon="0.92445">
        <ele>79.8</ele>
        <time>2023-07-06T06:25:10Z</time>
      </trkpt>
      <trkpt lat="44.09283" lon="0.92451">
        <ele>80</ele>
        <time>2023-07-06T06:25:14Z</time>
      </trkpt>
      <trkpt lat="44.09289" lon="0.92469">
        <ele>79.8</ele>
        <time>2023-07-06T06:25:23Z</time>
      </trkpt>
      <trkpt lat="44.09292" lon="0.92479">
        <ele>79.6</ele>
        <time>2023-07-06T06:25:30Z</time>
      </trkpt>
      <trkpt lat="44.09295" lon="0.92485">
        <ele>79.6</ele>
        <time>2023-07-06T06:25:35Z</time>
      </trkpt>
      <trkpt lat="44.09296" lon="0.92488">
        <ele>79.8</ele>
        <time>2023-07-06T06:25:37Z</time>
      </trkpt>
      <trkpt lat="44.09304" lon="0.92505">
        <ele>80</ele>
        <time>2023-07-06T06:25:47Z</time>
      </trkpt>
      <trkpt lat="44.09312" lon="0.92518">
        <ele>80</ele>
        <time>2023-07-06T06:25:55Z</time>
      </trkpt>
      <trkpt lat="44.09321" lon="0.92529">
        <ele>79.8</ele>
        <time>2023-07-06T06:26:04Z</time>
      </trkpt>
      <trkpt lat="44.09322" lon="0.9253">
        <ele>79.8</ele>
        <time>2023-07-06T06:26:05Z</time>
      </trkpt>
      <trkpt lat="44.09323" lon="0.92531">
        <ele>79.6</ele>
        <time>2023-07-06T06:26:06Z</time>
      </trkpt>
      <trkpt lat="44.09336" lon="0.92548">
        <ele>79.6</ele>
        <time>2023-07-06T06:26:19Z</time>
      </trkpt>
      <trkpt lat="44.09342" lon="0.92556">
        <ele>79.6</ele>
        <time>2023-07-06T06:26:25Z</time>
      </trkpt>
      <trkpt lat="44.09347" lon="0.92563">
        <ele>79.4</ele>
        <time>2023-07-06T06:26:31Z</time>
      </trkpt>
      <trkpt lat="44.09349" lon="0.92565">
        <ele>79.2</ele>
        <time>2023-07-06T06:26:33Z</time>
      </trkpt>
      <trkpt lat="44.0935" lon="0.92567">
        <ele>79.2</ele>
        <time>2023-07-06T06:26:34Z</time>
      </trkpt>
      <trkpt lat="44.09351" lon="0.92568">
        <ele>79.2</ele>
        <time>2023-07-06T06:26:35Z</time>
      </trkpt>
      <trkpt lat="44.09353" lon="0.9257">
        <ele>79.2</ele>
        <time>2023-07-06T06:26:37Z</time>
      </trkpt>
      <trkpt lat="44.09354" lon="0.92571">
        <ele>79.2</ele>
        <time>2023-07-06T06:26:38Z</time>
      </trkpt>
      <trkpt lat="44.09356" lon="0.92573">
        <ele>79.2</ele>
        <time>2023-07-06T06:26:40Z</time>
      </trkpt>
      <trkpt lat="44.09358" lon="0.92576">
        <ele>79.2</ele>
        <time>2023-07-06T06:26:42Z</time>
      </trkpt>
      <trkpt lat="44.0936" lon="0.92578">
        <ele>79.4</ele>
        <time>2023-07-06T06:26:44Z</time>
      </trkpt>
      <trkpt lat="44.09363" lon="0.92581">
        <ele>79.2</ele>
        <time>2023-07-06T06:26:47Z</time>
      </trkpt>
      <trkpt lat="44.09367" lon="0.92584">
        <ele>79.2</ele>
        <time>2023-07-06T06:26:50Z</time>
      </trkpt>
      <trkpt lat="44.09371" lon="0.92587">
        <ele>79.2</ele>
        <time>2023-07-06T06:26:53Z</time>
      </trkpt>
      <trkpt lat="44.09376" lon="0.92592">
        <ele>79</ele>
        <time>2023-07-06T06:26:58Z</time>
      </trkpt>
      <trkpt lat="44.09378" lon="0.92595">
        <ele>79.2</ele>
        <time>2023-07-06T06:27:00Z</time>
      </trkpt>
      <trkpt lat="44.09388" lon="0.92601">
        <ele>78.8</ele>
        <time>2023-07-06T06:27:08Z</time>
      </trkpt>
      <trkpt lat="44.09392" lon="0.92604">
        <ele>78.8</ele>
        <time>2023-07-06T06:27:11Z</time>
      </trkpt>
      <trkpt lat="44.09402" lon="0.92612">
        <ele>79</ele>
        <time>2023-07-06T06:27:20Z</time>
      </trkpt>
      <trkpt lat="44.09403" lon="0.92612">
        <ele>79</ele>
        <time>2023-07-06T06:27:21Z</time>
      </trkpt>
      <trkpt lat="44.09404" lon="0.92613">
        <ele>79</ele>
        <time>2023-07-06T06:27:22Z</time>
      </trkpt>
      <trkpt lat="44.09405" lon="0.92613">
        <ele>79</ele>
        <time>2023-07-06T06:27:23Z</time>
      </trkpt>
      <trkpt lat="44.09413" lon="0.92618">
        <ele>79</ele>
        <time>2023-07-06T06:27:29Z</time>
      </trkpt>
      <trkpt lat="44.09417" lon="0.9262">
        <ele>79.4</ele>
        <time>2023-07-06T06:27:32Z</time>
      </trkpt>
      <trkpt lat="44.09419" lon="0.92621">
        <ele>79.4</ele>
        <time>2023-07-06T06:27:34Z</time>
      </trkpt>
      <trkpt lat="44.09424" lon="0.92623">
        <ele>79.4</ele>
        <time>2023-07-06T06:27:38Z</time>
      </trkpt>
      <trkpt lat="44.09426" lon="0.92623">
        <ele>79.4</ele>
        <time>2023-07-06T06:27:40Z</time>
      </trkpt>
      <trkpt lat="44.09433" lon="0.92625">
        <ele>79.4</ele>
        <time>2023-07-06T06:27:45Z</time>
      </trkpt>
      <trkpt lat="44.09435" lon="0.92625">
        <ele>79.4</ele>
        <time>2023-07-06T06:27:46Z</time>
      </trkpt>
      <trkpt lat="44.09446" lon="0.9263">
        <ele>79.2</ele>
        <time>2023-07-06T06:27:55Z</time>
      </trkpt>
      <trkpt lat="44.09455" lon="0.92634">
        <ele>79.4</ele>
        <time>2023-07-06T06:28:02Z</time>
      </trkpt>
      <trkpt lat="44.09457" lon="0.92634">
        <ele>79.4</ele>
        <time>2023-07-06T06:28:03Z</time>
      </trkpt>
      <trkpt lat="44.09464" lon="0.92636">
        <ele>79.8</ele>
        <time>2023-07-06T06:28:09Z</time>
      </trkpt>
      <trkpt lat="44.09467" lon="0.92637">
        <ele>79.8</ele>
        <time>2023-07-06T06:28:11Z</time>
      </trkpt>
      <trkpt lat="44.09476" lon="0.92639">
        <ele>79.6</ele>
        <time>2023-07-06T06:28:19Z</time>
      </trkpt>
      <trkpt lat="44.09481" lon="0.92641">
        <ele>79.4</ele>
        <time>2023-07-06T06:28:23Z</time>
      </trkpt>
      <trkpt lat="44.09486" lon="0.92642">
        <ele>79.8</ele>
        <time>2023-07-06T06:28:27Z</time>
      </trkpt>
      <trkpt lat="44.09498" lon="0.92647">
        <ele>79.8</ele>
        <time>2023-07-06T06:28:36Z</time>
      </trkpt>
      <trkpt lat="44.095" lon="0.92649">
        <ele>79.8</ele>
        <time>2023-07-06T06:28:38Z</time>
      </trkpt>
      <trkpt lat="44.09502" lon="0.9265">
        <ele>79.6</ele>
        <time>2023-07-06T06:28:39Z</time>
      </trkpt>
      <trkpt lat="44.09503" lon="0.9265">
        <ele>79.6</ele>
        <time>2023-07-06T06:28:40Z</time>
      </trkpt>
      <trkpt lat="44.09505" lon="0.92651">
        <ele>79.6</ele>
        <time>2023-07-06T06:28:41Z</time>
      </trkpt>
      <trkpt lat="44.09511" lon="0.92652">
        <ele>80</ele>
        <time>2023-07-06T06:28:45Z</time>
      </trkpt>
      <trkpt lat="44.09512" lon="0.92652">
        <ele>80</ele>
        <time>2023-07-06T06:28:46Z</time>
      </trkpt>
      <trkpt lat="44.09525" lon="0.92656">
        <ele>80</ele>
        <time>2023-07-06T06:28:56Z</time>
      </trkpt>
      <trkpt lat="44.09529" lon="0.92657">
        <ele>80</ele>
        <time>2023-07-06T06:28:59Z</time>
      </trkpt>
      <trkpt lat="44.09531" lon="0.92659">
        <ele>80</ele>
        <time>2023-07-06T06:29:01Z</time>
      </trkpt>
      <trkpt lat="44.09535" lon="0.9266">
        <ele>80.4</ele>
        <time>2023-07-06T06:29:04Z</time>
      </trkpt>
      <trkpt lat="44.09546" lon="0.92664">
        <ele>81</ele>
        <time>2023-07-06T06:29:12Z</time>
      </trkpt>
      <trkpt lat="44.09557" lon="0.92669">
        <ele>80.6</ele>
        <time>2023-07-06T06:29:21Z</time>
      </trkpt>
      <trkpt lat="44.09568" lon="0.92672">
        <ele>81</ele>
        <time>2023-07-06T06:29:29Z</time>
      </trkpt>
      <trkpt lat="44.09579" lon="0.92677">
        <ele>81.2</ele>
        <time>2023-07-06T06:29:38Z</time>
      </trkpt>
      <trkpt lat="44.09582" lon="0.92678">
        <ele>81.4</ele>
        <time>2023-07-06T06:29:40Z</time>
      </trkpt>
      <trkpt lat="44.09583" lon="0.92678">
        <ele>81.4</ele>
        <time>2023-07-06T06:29:41Z</time>
      </trkpt>
      <trkpt lat="44.09584" lon="0.92679">
        <ele>81.4</ele>
        <time>2023-07-06T06:29:42Z</time>
      </trkpt>
      <trkpt lat="44.09588" lon="0.92682">
        <ele>81.8</ele>
        <time>2023-07-06T06:29:46Z</time>
      </trkpt>
      <trkpt lat="44.09592" lon="0.92683">
        <ele>81.8</ele>
        <time>2023-07-06T06:29:49Z</time>
      </trkpt>
      <trkpt lat="44.096" lon="0.92686">
        <ele>82</ele>
        <time>2023-07-06T06:29:53Z</time>
      </trkpt>
      <trkpt lat="44.09601" lon="0.92686">
        <ele>82</ele>
        <time>2023-07-06T06:29:54Z</time>
      </trkpt>
      <trkpt lat="44.09608" lon="0.92689">
        <ele>82.4</ele>
        <time>2023-07-06T06:30:00Z</time>
      </trkpt>
      <trkpt lat="44.09612" lon="0.92689">
        <ele>82.6</ele>
        <time>2023-07-06T06:30:02Z</time>
      </trkpt>
      <trkpt lat="44.09622" lon="0.92692">
        <ele>83</ele>
        <time>2023-07-06T06:30:11Z</time>
      </trkpt>
      <trkpt lat="44.09627" lon="0.92694">
        <ele>83.4</ele>
        <time>2023-07-06T06:30:15Z</time>
      </trkpt>
      <trkpt lat="44.09638" lon="0.92699">
        <ele>84.2</ele>
        <time>2023-07-06T06:30:24Z</time>
      </trkpt>
      <trkpt lat="44.09639" lon="0.927">
        <ele>84.2</ele>
        <time>2023-07-06T06:30:25Z</time>
      </trkpt>
      <trkpt lat="44.0964" lon="0.927">
        <ele>84.2</ele>
        <time>2023-07-06T06:30:26Z</time>
      </trkpt>
      <trkpt lat="44.0965" lon="0.92705">
        <ele>84.4</ele>
        <time>2023-07-06T06:30:33Z</time>
      </trkpt>
      <trkpt lat="44.09653" lon="0.92707">
        <ele>84.4</ele>
        <time>2023-07-06T06:30:36Z</time>
      </trkpt>
      <trkpt lat="44.09659" lon="0.92709">
        <ele>84.6</ele>
        <time>2023-07-06T06:30:42Z</time>
      </trkpt>
      <trkpt lat="44.09667" lon="0.92714">
        <ele>85</ele>
        <time>2023-07-06T06:30:50Z</time>
      </trkpt>
      <trkpt lat="44.09673" lon="0.92716">
        <ele>85.6</ele>
        <time>2023-07-06T06:30:55Z</time>
      </trkpt>
      <trkpt lat="44.09678" lon="0.92717">
        <ele>85.6</ele>
        <time>2023-07-06T06:30:58Z</time>
      </trkpt>
      <trkpt lat="44.09679" lon="0.92718">
        <ele>85.6</ele>
        <time>2023-07-06T06:30:59Z</time>
      </trkpt>
      <trkpt lat="44.09686" lon="0.9272">
        <ele>86</ele>
        <time>2023-07-06T06:31:04Z</time>
      </trkpt>
      <trkpt lat="44.0969" lon="0.92721">
        <ele>86.2</ele>
        <time>2023-07-06T06:31:07Z</time>
      </trkpt>
      <trkpt lat="44.09704" lon="0.92725">
        <ele>86.2</ele>
        <time>2023-07-06T06:31:17Z</time>
      </trkpt>
      <trkpt lat="44.09706" lon="0.92727">
        <ele>86.2</ele>
        <time>2023-07-06T06:31:19Z</time>
      </trkpt>
      <trkpt lat="44.0971" lon="0.9273">
        <ele>86.2</ele>
        <time>2023-07-06T06:31:22Z</time>
      </trkpt>
      <trkpt lat="44.09716" lon="0.92742">
        <ele>86</ele>
        <time>2023-07-06T06:31:30Z</time>
      </trkpt>
      <trkpt lat="44.09723" lon="0.92745">
        <ele>86.6</ele>
        <time>2023-07-06T06:31:37Z</time>
      </trkpt>
      <trkpt lat="44.09724" lon="0.92745">
        <ele>86.6</ele>
        <time>2023-07-06T06:31:38Z</time>
      </trkpt>
      <trkpt lat="44.09732" lon="0.92747">
        <ele>86.6</ele>
        <time>2023-07-06T06:31:45Z</time>
      </trkpt>
      <trkpt lat="44.09737" lon="0.92749">
        <ele>86.8</ele>
        <time>2023-07-06T06:31:48Z</time>
      </trkpt>
      <trkpt lat="44.09746" lon="0.92752">
        <ele>87</ele>
        <time>2023-07-06T06:31:55Z</time>
      </trkpt>
      <trkpt lat="44.09749" lon="0.92754">
        <ele>87</ele>
        <time>2023-07-06T06:31:58Z</time>
      </trkpt>
      <trkpt lat="44.09759" lon="0.92758">
        <ele>87.4</ele>
        <time>2023-07-06T06:32:06Z</time>
      </trkpt>
      <trkpt lat="44.09765" lon="0.92761">
        <ele>87.6</ele>
        <time>2023-07-06T06:32:11Z</time>
      </trkpt>
      <trkpt lat="44.09769" lon="0.92762">
        <ele>87.6</ele>
        <time>2023-07-06T06:32:14Z</time>
      </trkpt>
      <trkpt lat="44.0978" lon="0.92765">
        <ele>87.4</ele>
        <time>2023-07-06T06:32:23Z</time>
      </trkpt>
      <trkpt lat="44.09781" lon="0.92765">
        <ele>87.6</ele>
        <time>2023-07-06T06:32:24Z</time>
      </trkpt>
      <trkpt lat="44.09787" lon="0.92767">
        <ele>87.6</ele>
        <time>2023-07-06T06:32:29Z</time>
      </trkpt>
      <trkpt lat="44.09792" lon="0.9277">
        <ele>87.6</ele>
        <time>2023-07-06T06:32:33Z</time>
      </trkpt>
      <trkpt lat="44.09799" lon="0.92772">
        <ele>87.4</ele>
        <time>2023-07-06T06:32:39Z</time>
      </trkpt>
      <trkpt lat="44.09801" lon="0.92773">
        <ele>87.4</ele>
        <time>2023-07-06T06:32:40Z</time>
      </trkpt>
      <trkpt lat="44.09812" lon="0.92775">
        <ele>87.8</ele>
        <time>2023-07-06T06:32:49Z</time>
      </trkpt>
      <trkpt lat="44.09819" lon="0.92779">
        <ele>87.8</ele>
        <time>2023-07-06T06:32:54Z</time>
      </trkpt>
      <trkpt lat="44.09825" lon="0.92783">
        <ele>87.8</ele>
        <time>2023-07-06T06:32:59Z</time>
      </trkpt>
      <trkpt lat="44.09836" lon="0.92788">
        <ele>88</ele>
        <time>2023-07-06T06:33:08Z</time>
      </trkpt>
      <trkpt lat="44.09848" lon="0.92792">
        <ele>88.6</ele>
        <time>2023-07-06T06:33:17Z</time>
      </trkpt>
      <trkpt lat="44.09859" lon="0.92796">
        <ele>88.4</ele>
        <time>2023-07-06T06:33:25Z</time>
      </trkpt>
      <trkpt lat="44.0987" lon="0.928">
        <ele>88</ele>
        <time>2023-07-06T06:33:34Z</time>
      </trkpt>
      <trkpt lat="44.09871" lon="0.92801">
        <ele>88</ele>
        <time>2023-07-06T06:33:35Z</time>
      </trkpt>
      <trkpt lat="44.09873" lon="0.92802">
        <ele>88.2</ele>
        <time>2023-07-06T06:33:37Z</time>
      </trkpt>
      <trkpt lat="44.09877" lon="0.92801">
        <ele>88.2</ele>
        <time>2023-07-06T06:33:40Z</time>
      </trkpt>
      <trkpt lat="44.09879" lon="0.92801">
        <ele>88.2</ele>
        <time>2023-07-06T06:33:42Z</time>
      </trkpt>
      <trkpt lat="44.09885" lon="0.92804">
        <ele>88.6</ele>
        <time>2023-07-06T06:33:47Z</time>
      </trkpt>
      <trkpt lat="44.09886" lon="0.92805">
        <ele>88.6</ele>
        <time>2023-07-06T06:33:48Z</time>
      </trkpt>
      <trkpt lat="44.09891" lon="0.92807">
        <ele>88.6</ele>
        <time>2023-07-06T06:33:51Z</time>
      </trkpt>
      <trkpt lat="44.09896" lon="0.9281">
        <ele>88.6</ele>
        <time>2023-07-06T06:33:55Z</time>
      </trkpt>
      <trkpt lat="44.09897" lon="0.92811">
        <ele>88.6</ele>
        <time>2023-07-06T06:33:56Z</time>
      </trkpt>
      <trkpt lat="44.09899" lon="0.92813">
        <ele>88.4</ele>
        <time>2023-07-06T06:33:58Z</time>
      </trkpt>
      <trkpt lat="44.09901" lon="0.92815">
        <ele>88.4</ele>
        <time>2023-07-06T06:34:00Z</time>
      </trkpt>
      <trkpt lat="44.09903" lon="0.92815">
        <ele>88.4</ele>
        <time>2023-07-06T06:34:01Z</time>
      </trkpt>
      <trkpt lat="44.09916" lon="0.92819">
        <ele>89.2</ele>
        <time>2023-07-06T06:34:11Z</time>
      </trkpt>
      <trkpt lat="44.09925" lon="0.92824">
        <ele>89.2</ele>
        <time>2023-07-06T06:34:19Z</time>
      </trkpt>
      <trkpt lat="44.09934" lon="0.92827">
        <ele>89.4</ele>
        <time>2023-07-06T06:34:26Z</time>
      </trkpt>
      <trkpt lat="44.09937" lon="0.92829">
        <ele>89.2</ele>
        <time>2023-07-06T06:34:29Z</time>
      </trkpt>
      <trkpt lat="44.09942" lon="0.9283">
        <ele>89.6</ele>
        <time>2023-07-06T06:34:33Z</time>
      </trkpt>
      <trkpt lat="44.09947" lon="0.92831">
        <ele>90.6</ele>
        <time>2023-07-06T06:34:37Z</time>
      </trkpt>
      <trkpt lat="44.09948" lon="0.92831">
        <ele>90.6</ele>
        <time>2023-07-06T06:34:38Z</time>
      </trkpt>
      <trkpt lat="44.0995" lon="0.92832">
        <ele>90.6</ele>
        <time>2023-07-06T06:34:39Z</time>
      </trkpt>
      <trkpt lat="44.09956" lon="0.92835">
        <ele>90.4</ele>
        <time>2023-07-06T06:34:44Z</time>
      </trkpt>
      <trkpt lat="44.09967" lon="0.92839">
        <ele>90.2</ele>
        <time>2023-07-06T06:34:52Z</time>
      </trkpt>
      <trkpt lat="44.09969" lon="0.9284">
        <ele>90.4</ele>
        <time>2023-07-06T06:34:54Z</time>
      </trkpt>
      <trkpt lat="44.09975" lon="0.92846">
        <ele>91</ele>
        <time>2023-07-06T06:35:00Z</time>
      </trkpt>
      <trkpt lat="44.09981" lon="0.92854">
        <ele>90.8</ele>
        <time>2023-07-06T06:35:07Z</time>
      </trkpt>
      <trkpt lat="44.09985" lon="0.9287">
        <ele>90.8</ele>
        <time>2023-07-06T06:35:16Z</time>
      </trkpt>
      <trkpt lat="44.09985" lon="0.92874">
        <ele>90.8</ele>
        <time>2023-07-06T06:35:18Z</time>
      </trkpt>
      <trkpt lat="44.09986" lon="0.9289">
        <ele>90.8</ele>
        <time>2023-07-06T06:35:27Z</time>
      </trkpt>
      <trkpt lat="44.09987" lon="0.92897">
        <ele>90.8</ele>
        <time>2023-07-06T06:35:31Z</time>
      </trkpt>
      <trkpt lat="44.09987" lon="0.92901">
        <ele>90.8</ele>
        <time>2023-07-06T06:35:34Z</time>
      </trkpt>
      <trkpt lat="44.09988" lon="0.92908">
        <ele>90.8</ele>
        <time>2023-07-06T06:35:38Z</time>
      </trkpt>
      <trkpt lat="44.09986" lon="0.92919">
        <ele>90.6</ele>
        <time>2023-07-06T06:35:44Z</time>
      </trkpt>
      <trkpt lat="44.09985" lon="0.92932">
        <ele>90.6</ele>
        <time>2023-07-06T06:35:52Z</time>
      </trkpt>
      <trkpt lat="44.09985" lon="0.92946">
        <ele>90.6</ele>
        <time>2023-07-06T06:36:00Z</time>
      </trkpt>
      <trkpt lat="44.09985" lon="0.92949">
        <ele>90.6</ele>
        <time>2023-07-06T06:36:02Z</time>
      </trkpt>
      <trkpt lat="44.09986" lon="0.92954">
        <ele>90.6</ele>
        <time>2023-07-06T06:36:05Z</time>
      </trkpt>
      <trkpt lat="44.09988" lon="0.9296">
        <ele>90.6</ele>
        <time>2023-07-06T06:36:08Z</time>
      </trkpt>
      <trkpt lat="44.09986" lon="0.92975">
        <ele>90.6</ele>
        <time>2023-07-06T06:36:16Z</time>
      </trkpt>
      <trkpt lat="44.09985" lon="0.92977">
        <ele>90.6</ele>
        <time>2023-07-06T06:36:17Z</time>
      </trkpt>
      <trkpt lat="44.09981" lon="0.92992">
        <ele>90.4</ele>
        <time>2023-07-06T06:36:25Z</time>
      </trkpt>
      <trkpt lat="44.09978" lon="0.93005">
        <ele>90.6</ele>
        <time>2023-07-06T06:36:32Z</time>
      </trkpt>
      <trkpt lat="44.09975" lon="0.93017">
        <ele>91</ele>
        <time>2023-07-06T06:36:38Z</time>
      </trkpt>
      <trkpt lat="44.09976" lon="0.93023">
        <ele>91</ele>
        <time>2023-07-06T06:36:40Z</time>
      </trkpt>
      <trkpt lat="44.09975" lon="0.93036">
        <ele>91</ele>
        <time>2023-07-06T06:36:47Z</time>
      </trkpt>
      <trkpt lat="44.09974" lon="0.93047">
        <ele>90.8</ele>
        <time>2023-07-06T06:36:54Z</time>
      </trkpt>
      <trkpt lat="44.09976" lon="0.93056">
        <ele>91.4</ele>
        <time>2023-07-06T06:37:00Z</time>
      </trkpt>
      <trkpt lat="44.09975" lon="0.93063">
        <ele>91.4</ele>
        <time>2023-07-06T06:37:04Z</time>
      </trkpt>
      <trkpt lat="44.09977" lon="0.9307">
        <ele>91.8</ele>
        <time>2023-07-06T06:37:08Z</time>
      </trkpt>
      <trkpt lat="44.09975" lon="0.93081">
        <ele>92</ele>
        <time>2023-07-06T06:37:14Z</time>
      </trkpt>
      <trkpt lat="44.09973" lon="0.93084">
        <ele>92</ele>
        <time>2023-07-06T06:37:16Z</time>
      </trkpt>
      <trkpt lat="44.09972" lon="0.9309">
        <ele>92</ele>
        <time>2023-07-06T06:37:19Z</time>
      </trkpt>
      <trkpt lat="44.09971" lon="0.93099">
        <ele>92</ele>
        <time>2023-07-06T06:37:24Z</time>
      </trkpt>
      <trkpt lat="44.09969" lon="0.93117">
        <ele>92.2</ele>
        <time>2023-07-06T06:37:33Z</time>
      </trkpt>
      <trkpt lat="44.09969" lon="0.93119">
        <ele>92</ele>
        <time>2023-07-06T06:37:34Z</time>
      </trkpt>
      <trkpt lat="44.09968" lon="0.93121">
        <ele>92</ele>
        <time>2023-07-06T06:37:35Z</time>
      </trkpt>
      <trkpt lat="44.09968" lon="0.93123">
        <ele>92</ele>
        <time>2023-07-06T06:37:36Z</time>
      </trkpt>
      <trkpt lat="44.09966" lon="0.93127">
        <ele>92</ele>
        <time>2023-07-06T06:37:38Z</time>
      </trkpt>
      <trkpt lat="44.09965" lon="0.9313">
        <ele>92</ele>
        <time>2023-07-06T06:37:40Z</time>
      </trkpt>
      <trkpt lat="44.09967" lon="0.93133">
        <ele>92</ele>
        <time>2023-07-06T06:37:42Z</time>
      </trkpt>
      <trkpt lat="44.09967" lon="0.93138">
        <ele>92</ele>
        <time>2023-07-06T06:37:45Z</time>
      </trkpt>
      <trkpt lat="44.09967" lon="0.93142">
        <ele>92</ele>
        <time>2023-07-06T06:37:47Z</time>
      </trkpt>
      <trkpt lat="44.09966" lon="0.93147">
        <ele>92</ele>
        <time>2023-07-06T06:37:50Z</time>
      </trkpt>
      <trkpt lat="44.09962" lon="0.9316">
        <ele>91.6</ele>
        <time>2023-07-06T06:37:57Z</time>
      </trkpt>
      <trkpt lat="44.09957" lon="0.9317">
        <ele>91.6</ele>
        <time>2023-07-06T06:38:02Z</time>
      </trkpt>
      <trkpt lat="44.09954" lon="0.93176">
        <ele>91.6</ele>
        <time>2023-07-06T06:38:06Z</time>
      </trkpt>
      <trkpt lat="44.09947" lon="0.93188">
        <ele>91.2</ele>
        <time>2023-07-06T06:38:14Z</time>
      </trkpt>
      <trkpt lat="44.09947" lon="0.93191">
        <ele>91.2</ele>
        <time>2023-07-06T06:38:16Z</time>
      </trkpt>
      <trkpt lat="44.09947" lon="0.93195">
        <ele>91.4</ele>
        <time>2023-07-06T06:38:18Z</time>
      </trkpt>
      <trkpt lat="44.09943" lon="0.93203">
        <ele>91.4</ele>
        <time>2023-07-06T06:38:23Z</time>
      </trkpt>
      <trkpt lat="44.0994" lon="0.9322">
        <ele>91.6</ele>
        <time>2023-07-06T06:38:32Z</time>
      </trkpt>
      <trkpt lat="44.09937" lon="0.93229">
        <ele>91.4</ele>
        <time>2023-07-06T06:38:37Z</time>
      </trkpt>
      <trkpt lat="44.09936" lon="0.93232">
        <ele>91.2</ele>
        <time>2023-07-06T06:38:39Z</time>
      </trkpt>
      <trkpt lat="44.09935" lon="0.93241">
        <ele>91.2</ele>
        <time>2023-07-06T06:38:43Z</time>
      </trkpt>
      <trkpt lat="44.09934" lon="0.93251">
        <ele>91.2</ele>
        <time>2023-07-06T06:38:48Z</time>
      </trkpt>
      <trkpt lat="44.09932" lon="0.93265">
        <ele>91</ele>
        <time>2023-07-06T06:38:55Z</time>
      </trkpt>
      <trkpt lat="44.09931" lon="0.93268">
        <ele>90.8</ele>
        <time>2023-07-06T06:38:57Z</time>
      </trkpt>
      <trkpt lat="44.09931" lon="0.93281">
        <ele>91</ele>
        <time>2023-07-06T06:39:04Z</time>
      </trkpt>
      <trkpt lat="44.09931" lon="0.93288">
        <ele>90.8</ele>
        <time>2023-07-06T06:39:08Z</time>
      </trkpt>
      <trkpt lat="44.09931" lon="0.9329">
        <ele>90.6</ele>
        <time>2023-07-06T06:39:09Z</time>
      </trkpt>
      <trkpt lat="44.0993" lon="0.93295">
        <ele>90.2</ele>
        <time>2023-07-06T06:39:12Z</time>
      </trkpt>
      <trkpt lat="44.09932" lon="0.93311">
        <ele>90</ele>
        <time>2023-07-06T06:39:20Z</time>
      </trkpt>
      <trkpt lat="44.09933" lon="0.93317">
        <ele>89.8</ele>
        <time>2023-07-06T06:39:23Z</time>
      </trkpt>
      <trkpt lat="44.09934" lon="0.93325">
        <ele>89.6</ele>
        <time>2023-07-06T06:39:28Z</time>
      </trkpt>
      <trkpt lat="44.09934" lon="0.93327">
        <ele>89.6</ele>
        <time>2023-07-06T06:39:29Z</time>
      </trkpt>
      <trkpt lat="44.09935" lon="0.93339">
        <ele>89.2</ele>
        <time>2023-07-06T06:39:36Z</time>
      </trkpt>
      <trkpt lat="44.09935" lon="0.93346">
        <ele>88.8</ele>
        <time>2023-07-06T06:39:39Z</time>
      </trkpt>
      <trkpt lat="44.09935" lon="0.93356">
        <ele>88.6</ele>
        <time>2023-07-06T06:39:44Z</time>
      </trkpt>
      <trkpt lat="44.09935" lon="0.93363">
        <ele>88.6</ele>
        <time>2023-07-06T06:39:48Z</time>
      </trkpt>
      <trkpt lat="44.09935" lon="0.93373">
        <ele>88.6</ele>
        <time>2023-07-06T06:39:53Z</time>
      </trkpt>
      <trkpt lat="44.09935" lon="0.93376">
        <ele>88.4</ele>
        <time>2023-07-06T06:39:55Z</time>
      </trkpt>
      <trkpt lat="44.09936" lon="0.93387">
        <ele>88.2</ele>
        <time>2023-07-06T06:40:01Z</time>
      </trkpt>
      <trkpt lat="44.09938" lon="0.93402">
        <ele>87.8</ele>
        <time>2023-07-06T06:40:09Z</time>
      </trkpt>
      <trkpt lat="44.09939" lon="0.93405">
        <ele>87.4</ele>
        <time>2023-07-06T06:40:11Z</time>
      </trkpt>
      <trkpt lat="44.09938" lon="0.93415">
        <ele>87.2</ele>
        <time>2023-07-06T06:40:16Z</time>
      </trkpt>
      <trkpt lat="44.09938" lon="0.93423">
        <ele>87</ele>
        <time>2023-07-06T06:40:20Z</time>
      </trkpt>
      <trkpt lat="44.09938" lon="0.93433">
        <ele>87</ele>
        <time>2023-07-06T06:40:25Z</time>
      </trkpt>
      <trkpt lat="44.09939" lon="0.93435">
        <ele>87</ele>
        <time>2023-07-06T06:40:26Z</time>
      </trkpt>
      <trkpt lat="44.09939" lon="0.93439">
        <ele>86.8</ele>
        <time>2023-07-06T06:40:28Z</time>
      </trkpt>
      <trkpt lat="44.0994" lon="0.93443">
        <ele>86.8</ele>
        <time>2023-07-06T06:40:30Z</time>
      </trkpt>
      <trkpt lat="44.0994" lon="0.93446">
        <ele>86.8</ele>
        <time>2023-07-06T06:40:32Z</time>
      </trkpt>
      <trkpt lat="44.0994" lon="0.9345">
        <ele>86.8</ele>
        <time>2023-07-06T06:40:34Z</time>
      </trkpt>
      <trkpt lat="44.09941" lon="0.93457">
        <ele>86.6</ele>
        <time>2023-07-06T06:40:38Z</time>
      </trkpt>
      <trkpt lat="44.09942" lon="0.93459">
        <ele>86.4</ele>
        <time>2023-07-06T06:40:39Z</time>
      </trkpt>
      <trkpt lat="44.09943" lon="0.93463">
        <ele>86.4</ele>
        <time>2023-07-06T06:40:41Z</time>
      </trkpt>
      <trkpt lat="44.09943" lon="0.93472">
        <ele>86</ele>
        <time>2023-07-06T06:40:46Z</time>
      </trkpt>
      <trkpt lat="44.09943" lon="0.93478">
        <ele>86.4</ele>
        <time>2023-07-06T06:40:50Z</time>
      </trkpt>
      <trkpt lat="44.09942" lon="0.93481">
        <ele>86.4</ele>
        <time>2023-07-06T06:40:52Z</time>
      </trkpt>
      <trkpt lat="44.09937" lon="0.93492">
        <ele>86.2</ele>
        <time>2023-07-06T06:40:59Z</time>
      </trkpt>
      <trkpt lat="44.09932" lon="0.93493">
        <ele>86</ele>
        <time>2023-07-06T06:41:01Z</time>
      </trkpt>
      <trkpt lat="44.09926" lon="0.93495">
        <ele>85.8</ele>
        <time>2023-07-06T06:41:04Z</time>
      </trkpt>
      <trkpt lat="44.09919" lon="0.93494">
        <ele>85.4</ele>
        <time>2023-07-06T06:41:10Z</time>
      </trkpt>
      <trkpt lat="44.09917" lon="0.93494">
        <ele>85.4</ele>
        <time>2023-07-06T06:41:11Z</time>
      </trkpt>
      <trkpt lat="44.0991" lon="0.93495">
        <ele>84.8</ele>
        <time>2023-07-06T06:41:15Z</time>
      </trkpt>
      <trkpt lat="44.09906" lon="0.93496">
        <ele>84.8</ele>
        <time>2023-07-06T06:41:17Z</time>
      </trkpt>
      <trkpt lat="44.09897" lon="0.93497">
        <ele>84.6</ele>
        <time>2023-07-06T06:41:21Z</time>
      </trkpt>
      <trkpt lat="44.09892" lon="0.93498">
        <ele>84.2</ele>
        <time>2023-07-06T06:41:24Z</time>
      </trkpt>
      <trkpt lat="44.09891" lon="0.93498">
        <ele>84.2</ele>
        <time>2023-07-06T06:41:25Z</time>
      </trkpt>
      <trkpt lat="44.0988" lon="0.93498">
        <ele>84.2</ele>
        <time>2023-07-06T06:41:32Z</time>
      </trkpt>
      <trkpt lat="44.09877" lon="0.935">
        <ele>84.2</ele>
        <time>2023-07-06T06:41:35Z</time>
      </trkpt>
      <trkpt lat="44.09869" lon="0.935">
        <ele>83.6</ele>
        <time>2023-07-06T06:41:40Z</time>
      </trkpt>
      <trkpt lat="44.09864" lon="0.935">
        <ele>83.6</ele>
        <time>2023-07-06T06:41:43Z</time>
      </trkpt>
      <trkpt lat="44.09861" lon="0.935">
        <ele>83.6</ele>
        <time>2023-07-06T06:41:45Z</time>
      </trkpt>
      <trkpt lat="44.09853" lon="0.93498">
        <ele>83.4</ele>
        <time>2023-07-06T06:41:52Z</time>
      </trkpt>
      <trkpt lat="44.09851" lon="0.93499">
        <ele>83.2</ele>
        <time>2023-07-06T06:41:53Z</time>
      </trkpt>
      <trkpt lat="44.0984" lon="0.93498">
        <ele>83</ele>
        <time>2023-07-06T06:42:00Z</time>
      </trkpt>
      <trkpt lat="44.09837" lon="0.93498">
        <ele>83</ele>
        <time>2023-07-06T06:42:02Z</time>
      </trkpt>
      <trkpt lat="44.0983" lon="0.93498">
        <ele>82.8</ele>
        <time>2023-07-06T06:42:07Z</time>
      </trkpt>
      <trkpt lat="44.09826" lon="0.93496">
        <ele>82.6</ele>
        <time>2023-07-06T06:42:11Z</time>
      </trkpt>
      <trkpt lat="44.09821" lon="0.93496">
        <ele>82.8</ele>
        <time>2023-07-06T06:42:15Z</time>
      </trkpt>
      <trkpt lat="44.09815" lon="0.93492">
        <ele>82.8</ele>
        <time>2023-07-06T06:42:20Z</time>
      </trkpt>
      <trkpt lat="44.09814" lon="0.93489">
        <ele>82.6</ele>
        <time>2023-07-06T06:42:23Z</time>
      </trkpt>
      <trkpt lat="44.0981" lon="0.93486">
        <ele>82.6</ele>
        <time>2023-07-06T06:42:27Z</time>
      </trkpt>
      <trkpt lat="44.09799" lon="0.93488">
        <ele>82.6</ele>
        <time>2023-07-06T06:42:35Z</time>
      </trkpt>
      <trkpt lat="44.09793" lon="0.9349">
        <ele>82.6</ele>
        <time>2023-07-06T06:42:39Z</time>
      </trkpt>
      <trkpt lat="44.09791" lon="0.9349">
        <ele>82.4</ele>
        <time>2023-07-06T06:42:41Z</time>
      </trkpt>
      <trkpt lat="44.0979" lon="0.9349">
        <ele>82.4</ele>
        <time>2023-07-06T06:42:42Z</time>
      </trkpt>
      <trkpt lat="44.09789" lon="0.9349">
        <ele>82.4</ele>
        <time>2023-07-06T06:42:43Z</time>
      </trkpt>
      <trkpt lat="44.09785" lon="0.93489">
        <ele>82.2</ele>
        <time>2023-07-06T06:42:46Z</time>
      </trkpt>
      <trkpt lat="44.09783" lon="0.93488">
        <ele>82</ele>
        <time>2023-07-06T06:42:48Z</time>
      </trkpt>
      <trkpt lat="44.09782" lon="0.93488">
        <ele>82</ele>
        <time>2023-07-06T06:42:49Z</time>
      </trkpt>
      <trkpt lat="44.0978" lon="0.93488">
        <ele>82</ele>
        <time>2023-07-06T06:42:51Z</time>
      </trkpt>
      <trkpt lat="44.09775" lon="0.93488">
        <ele>82</ele>
        <time>2023-07-06T06:42:56Z</time>
      </trkpt>
      <trkpt lat="44.09768" lon="0.93484">
        <ele>82</ele>
        <time>2023-07-06T06:43:03Z</time>
      </trkpt>
      <trkpt lat="44.09763" lon="0.93484">
        <ele>81.8</ele>
        <time>2023-07-06T06:43:06Z</time>
      </trkpt>
      <trkpt lat="44.09757" lon="0.93483">
        <ele>81.8</ele>
        <time>2023-07-06T06:43:10Z</time>
      </trkpt>
      <trkpt lat="44.09746" lon="0.93485">
        <ele>81.8</ele>
        <time>2023-07-06T06:43:16Z</time>
      </trkpt>
      <trkpt lat="44.09735" lon="0.93482">
        <ele>81.8</ele>
        <time>2023-07-06T06:43:24Z</time>
      </trkpt>
      <trkpt lat="44.09724" lon="0.93478">
        <ele>82</ele>
        <time>2023-07-06T06:43:31Z</time>
      </trkpt>
      <trkpt lat="44.09723" lon="0.93477">
        <ele>82</ele>
        <time>2023-07-06T06:43:32Z</time>
      </trkpt>
      <trkpt lat="44.09719" lon="0.93475">
        <ele>82.2</ele>
        <time>2023-07-06T06:43:36Z</time>
      </trkpt>
      <trkpt lat="44.09717" lon="0.93476">
        <ele>82.2</ele>
        <time>2023-07-06T06:43:38Z</time>
      </trkpt>
      <trkpt lat="44.09716" lon="0.93475">
        <ele>82.2</ele>
        <time>2023-07-06T06:43:39Z</time>
      </trkpt>
      <trkpt lat="44.09722" lon="0.93472">
        <ele>82.4</ele>
        <time>2023-07-06T06:46:13Z</time>
      </trkpt>
      <trkpt lat="44.09722" lon="0.93474">
        <ele>82.4</ele>
        <time>2023-07-06T06:46:14Z</time>
      </trkpt>
      <trkpt lat="44.0972" lon="0.93477">
        <ele>82.4</ele>
        <time>2023-07-06T06:46:16Z</time>
      </trkpt>
      <trkpt lat="44.09718" lon="0.93482">
        <ele>82.4</ele>
        <time>2023-07-06T06:46:19Z</time>
      </trkpt>
      <trkpt lat="44.09715" lon="0.93489">
        <ele>82.6</ele>
        <time>2023-07-06T06:46:23Z</time>
      </trkpt>
      <trkpt lat="44.09715" lon="0.9349">
        <ele>82.8</ele>
        <time>2023-07-06T06:46:24Z</time>
      </trkpt>
      <trkpt lat="44.09714" lon="0.93494">
        <ele>82.8</ele>
        <time>2023-07-06T06:46:26Z</time>
      </trkpt>
      <trkpt lat="44.09714" lon="0.93498">
        <ele>82.8</ele>
        <time>2023-07-06T06:46:29Z</time>
      </trkpt>
      <trkpt lat="44.09712" lon="0.93501">
        <ele>82.8</ele>
        <time>2023-07-06T06:46:30Z</time>
      </trkpt>
      <trkpt lat="44.0971" lon="0.93509">
        <ele>82.8</ele>
        <time>2023-07-06T06:46:34Z</time>
      </trkpt>
      <trkpt lat="44.09709" lon="0.93512">
        <ele>82.4</ele>
        <time>2023-07-06T06:46:36Z</time>
      </trkpt>
      <trkpt lat="44.09709" lon="0.93513">
        <ele>82.4</ele>
        <time>2023-07-06T06:46:37Z</time>
      </trkpt>
      <trkpt lat="44.09708" lon="0.93516">
        <ele>82.2</ele>
        <time>2023-07-06T06:46:39Z</time>
      </trkpt>
      <trkpt lat="44.09707" lon="0.93519">
        <ele>82.2</ele>
        <time>2023-07-06T06:46:41Z</time>
      </trkpt>
      <trkpt lat="44.09705" lon="0.93523">
        <ele>82.2</ele>
        <time>2023-07-06T06:46:43Z</time>
      </trkpt>
      <trkpt lat="44.09704" lon="0.93527">
        <ele>82.4</ele>
        <time>2023-07-06T06:46:45Z</time>
      </trkpt>
      <trkpt lat="44.09703" lon="0.93528">
        <ele>82.4</ele>
        <time>2023-07-06T06:46:46Z</time>
      </trkpt>
      <trkpt lat="44.09704" lon="0.93531">
        <ele>82.6</ele>
        <time>2023-07-06T06:46:48Z</time>
      </trkpt>
      <trkpt lat="44.09704" lon="0.93533">
        <ele>82.6</ele>
        <time>2023-07-06T06:46:50Z</time>
      </trkpt>
      <trkpt lat="44.09704" lon="0.93534">
        <ele>82.6</ele>
        <time>2023-07-06T06:46:51Z</time>
      </trkpt>
      <trkpt lat="44.09705" lon="0.93537">
        <ele>82.6</ele>
        <time>2023-07-06T06:46:53Z</time>
      </trkpt>
      <trkpt lat="44.09704" lon="0.93547">
        <ele>82</ele>
        <time>2023-07-06T06:47:00Z</time>
      </trkpt>
      <trkpt lat="44.09705" lon="0.9355">
        <ele>82</ele>
        <time>2023-07-06T06:47:02Z</time>
      </trkpt>
      <trkpt lat="44.09704" lon="0.93552">
        <ele>82</ele>
        <time>2023-07-06T06:47:04Z</time>
      </trkpt>
      <trkpt lat="44.09702" lon="0.93555">
        <ele>82</ele>
        <time>2023-07-06T06:47:06Z</time>
      </trkpt>
      <trkpt lat="44.097" lon="0.9356">
        <ele>82.2</ele>
        <time>2023-07-06T06:47:09Z</time>
      </trkpt>
      <trkpt lat="44.097" lon="0.93562">
        <ele>82.2</ele>
        <time>2023-07-06T06:47:10Z</time>
      </trkpt>
      <trkpt lat="44.097" lon="0.93564">
        <ele>82.2</ele>
        <time>2023-07-06T06:47:12Z</time>
      </trkpt>
      <trkpt lat="44.09697" lon="0.93572">
        <ele>82</ele>
        <time>2023-07-06T06:47:16Z</time>
      </trkpt>
      <trkpt lat="44.09695" lon="0.93581">
        <ele>81.8</ele>
        <time>2023-07-06T06:47:21Z</time>
      </trkpt>
      <trkpt lat="44.09694" lon="0.93585">
        <ele>81.8</ele>
        <time>2023-07-06T06:47:23Z</time>
      </trkpt>
      <trkpt lat="44.09694" lon="0.93587">
        <ele>81.8</ele>
        <time>2023-07-06T06:47:24Z</time>
      </trkpt>
      <trkpt lat="44.09692" lon="0.93595">
        <ele>82</ele>
        <time>2023-07-06T06:47:28Z</time>
      </trkpt>
      <trkpt lat="44.09691" lon="0.93599">
        <ele>82.2</ele>
        <time>2023-07-06T06:47:30Z</time>
      </trkpt>
      <trkpt lat="44.0969" lon="0.93607">
        <ele>82.2</ele>
        <time>2023-07-06T06:47:35Z</time>
      </trkpt>
      <trkpt lat="44.09688" lon="0.93613">
        <ele>82.2</ele>
        <time>2023-07-06T06:47:38Z</time>
      </trkpt>
      <trkpt lat="44.09687" lon="0.93621">
        <ele>81.6</ele>
        <time>2023-07-06T06:47:44Z</time>
      </trkpt>
      <trkpt lat="44.09687" lon="0.93624">
        <ele>81.6</ele>
        <time>2023-07-06T06:47:46Z</time>
      </trkpt>
      <trkpt lat="44.09686" lon="0.93627">
        <ele>81.4</ele>
        <time>2023-07-06T06:47:48Z</time>
      </trkpt>
      <trkpt lat="44.09684" lon="0.93633">
        <ele>81.6</ele>
        <time>2023-07-06T06:47:51Z</time>
      </trkpt>
      <trkpt lat="44.09683" lon="0.93642">
        <ele>81.6</ele>
        <time>2023-07-06T06:47:56Z</time>
      </trkpt>
      <trkpt lat="44.0968" lon="0.93655">
        <ele>81.8</ele>
        <time>2023-07-06T06:48:03Z</time>
      </trkpt>
      <trkpt lat="44.09679" lon="0.93661">
        <ele>81.8</ele>
        <time>2023-07-06T06:48:08Z</time>
      </trkpt>
      <trkpt lat="44.09679" lon="0.93663">
        <ele>81.8</ele>
        <time>2023-07-06T06:48:09Z</time>
      </trkpt>
      <trkpt lat="44.09678" lon="0.93667">
        <ele>81.6</ele>
        <time>2023-07-06T06:48:11Z</time>
      </trkpt>
      <trkpt lat="44.09678" lon="0.9367">
        <ele>81.6</ele>
        <time>2023-07-06T06:48:13Z</time>
      </trkpt>
      <trkpt lat="44.09676" lon="0.93678">
        <ele>81.6</ele>
        <time>2023-07-06T06:48:18Z</time>
      </trkpt>
      <trkpt lat="44.09676" lon="0.93679">
        <ele>81.6</ele>
        <time>2023-07-06T06:48:19Z</time>
      </trkpt>
      <trkpt lat="44.09676" lon="0.93681">
        <ele>81.8</ele>
        <time>2023-07-06T06:48:20Z</time>
      </trkpt>
      <trkpt lat="44.09673" lon="0.93691">
        <ele>81.4</ele>
        <time>2023-07-06T06:48:26Z</time>
      </trkpt>
      <trkpt lat="44.0967" lon="0.93703">
        <ele>81.4</ele>
        <time>2023-07-06T06:48:34Z</time>
      </trkpt>
      <trkpt lat="44.0967" lon="0.93704">
        <ele>81.4</ele>
        <time>2023-07-06T06:48:35Z</time>
      </trkpt>
      <trkpt lat="44.09669" lon="0.93708">
        <ele>81.4</ele>
        <time>2023-07-06T06:48:37Z</time>
      </trkpt>
      <trkpt lat="44.09669" lon="0.9371">
        <ele>81.2</ele>
        <time>2023-07-06T06:48:39Z</time>
      </trkpt>
      <trkpt lat="44.09668" lon="0.93714">
        <ele>81.4</ele>
        <time>2023-07-06T06:48:41Z</time>
      </trkpt>
      <trkpt lat="44.09668" lon="0.93716">
        <ele>81.4</ele>
        <time>2023-07-06T06:48:42Z</time>
      </trkpt>
      <trkpt lat="44.09667" lon="0.93722">
        <ele>81.6</ele>
        <time>2023-07-06T06:48:46Z</time>
      </trkpt>
      <trkpt lat="44.09666" lon="0.93725">
        <ele>81.6</ele>
        <time>2023-07-06T06:48:48Z</time>
      </trkpt>
      <trkpt lat="44.09665" lon="0.93734">
        <ele>81.6</ele>
        <time>2023-07-06T06:48:54Z</time>
      </trkpt>
      <trkpt lat="44.09665" lon="0.93735">
        <ele>81.6</ele>
        <time>2023-07-06T06:48:55Z</time>
      </trkpt>
      <trkpt lat="44.09665" lon="0.93737">
        <ele>81.6</ele>
        <time>2023-07-06T06:48:56Z</time>
      </trkpt>
      <trkpt lat="44.09665" lon="0.93744">
        <ele>81.4</ele>
        <time>2023-07-06T06:49:01Z</time>
      </trkpt>
      <trkpt lat="44.09665" lon="0.93746">
        <ele>81.4</ele>
        <time>2023-07-06T06:49:03Z</time>
      </trkpt>
      <trkpt lat="44.09664" lon="0.9375">
        <ele>81.4</ele>
        <time>2023-07-06T06:49:05Z</time>
      </trkpt>
      <trkpt lat="44.09662" lon="0.93755">
        <ele>81.4</ele>
        <time>2023-07-06T06:49:08Z</time>
      </trkpt>
      <trkpt lat="44.09662" lon="0.93758">
        <ele>81.6</ele>
        <time>2023-07-06T06:49:10Z</time>
      </trkpt>
      <trkpt lat="44.09662" lon="0.93759">
        <ele>81.6</ele>
        <time>2023-07-06T06:49:11Z</time>
      </trkpt>
      <trkpt lat="44.09661" lon="0.93762">
        <ele>81.6</ele>
        <time>2023-07-06T06:49:13Z</time>
      </trkpt>
      <trkpt lat="44.09661" lon="0.93764">
        <ele>81.6</ele>
        <time>2023-07-06T06:49:15Z</time>
      </trkpt>
      <trkpt lat="44.0966" lon="0.93766">
        <ele>81.4</ele>
        <time>2023-07-06T06:49:17Z</time>
      </trkpt>
      <trkpt lat="44.0966" lon="0.93768">
        <ele>81.4</ele>
        <time>2023-07-06T06:49:18Z</time>
      </trkpt>
      <trkpt lat="44.0966" lon="0.93769">
        <ele>81.4</ele>
        <time>2023-07-06T06:49:19Z</time>
      </trkpt>
      <trkpt lat="44.0966" lon="0.93771">
        <ele>81.4</ele>
        <time>2023-07-06T06:49:20Z</time>
      </trkpt>
      <trkpt lat="44.09658" lon="0.93775">
        <ele>81.6</ele>
        <time>2023-07-06T06:49:23Z</time>
      </trkpt>
      <trkpt lat="44.09657" lon="0.93777">
        <ele>81.6</ele>
        <time>2023-07-06T06:49:24Z</time>
      </trkpt>
      <trkpt lat="44.09656" lon="0.93783">
        <ele>81.6</ele>
        <time>2023-07-06T06:49:28Z</time>
      </trkpt>
      <trkpt lat="44.09654" lon="0.93791">
        <ele>81.2</ele>
        <time>2023-07-06T06:49:32Z</time>
      </trkpt>
      <trkpt lat="44.09653" lon="0.93792">
        <ele>81.2</ele>
        <time>2023-07-06T06:49:33Z</time>
      </trkpt>
      <trkpt lat="44.09653" lon="0.93798">
        <ele>81.2</ele>
        <time>2023-07-06T06:49:37Z</time>
      </trkpt>
      <trkpt lat="44.09652" lon="0.93802">
        <ele>81.2</ele>
        <time>2023-07-06T06:49:39Z</time>
      </trkpt>
      <trkpt lat="44.09649" lon="0.93811">
        <ele>81.4</ele>
        <time>2023-07-06T06:49:46Z</time>
      </trkpt>
      <trkpt lat="44.09649" lon="0.93813">
        <ele>81.4</ele>
        <time>2023-07-06T06:49:48Z</time>
      </trkpt>
      <trkpt lat="44.09648" lon="0.93815">
        <ele>81.4</ele>
        <time>2023-07-06T06:49:50Z</time>
      </trkpt>
      <trkpt lat="44.09647" lon="0.93818">
        <ele>81.4</ele>
        <time>2023-07-06T06:49:52Z</time>
      </trkpt>
      <trkpt lat="44.09644" lon="0.93825">
        <ele>81.4</ele>
        <time>2023-07-06T06:49:55Z</time>
      </trkpt>
      <trkpt lat="44.09643" lon="0.93828">
        <ele>81.4</ele>
        <time>2023-07-06T06:49:57Z</time>
      </trkpt>
      <trkpt lat="44.09642" lon="0.93831">
        <ele>81.4</ele>
        <time>2023-07-06T06:49:59Z</time>
      </trkpt>
      <trkpt lat="44.09642" lon="0.93833">
        <ele>81.4</ele>
        <time>2023-07-06T06:50:00Z</time>
      </trkpt>
      <trkpt lat="44.09642" lon="0.93834">
        <ele>81.2</ele>
        <time>2023-07-06T06:50:01Z</time>
      </trkpt>
      <trkpt lat="44.09641" lon="0.93837">
        <ele>81.2</ele>
        <time>2023-07-06T06:50:03Z</time>
      </trkpt>
      <trkpt lat="44.0964" lon="0.9384">
        <ele>81.2</ele>
        <time>2023-07-06T06:50:05Z</time>
      </trkpt>
      <trkpt lat="44.0964" lon="0.93844">
        <ele>81.2</ele>
        <time>2023-07-06T06:50:07Z</time>
      </trkpt>
      <trkpt lat="44.0964" lon="0.93845">
        <ele>81.2</ele>
        <time>2023-07-06T06:50:08Z</time>
      </trkpt>
      <trkpt lat="44.09639" lon="0.93848">
        <ele>81.2</ele>
        <time>2023-07-06T06:50:10Z</time>
      </trkpt>
      <trkpt lat="44.09638" lon="0.93853">
        <ele>81.2</ele>
        <time>2023-07-06T06:50:13Z</time>
      </trkpt>
      <trkpt lat="44.09637" lon="0.93858">
        <ele>81.2</ele>
        <time>2023-07-06T06:50:15Z</time>
      </trkpt>
      <trkpt lat="44.09637" lon="0.93863">
        <ele>81.4</ele>
        <time>2023-07-06T06:50:18Z</time>
      </trkpt>
      <trkpt lat="44.09636" lon="0.93868">
        <ele>81.2</ele>
        <time>2023-07-06T06:50:21Z</time>
      </trkpt>
      <trkpt lat="44.09632" lon="0.93885">
        <ele>81</ele>
        <time>2023-07-06T06:50:30Z</time>
      </trkpt>
      <trkpt lat="44.09628" lon="0.93895">
        <ele>81.2</ele>
        <time>2023-07-06T06:50:36Z</time>
      </trkpt>
      <trkpt lat="44.09626" lon="0.93902">
        <ele>81</ele>
        <time>2023-07-06T06:50:40Z</time>
      </trkpt>
      <trkpt lat="44.09626" lon="0.93906">
        <ele>81</ele>
        <time>2023-07-06T06:50:43Z</time>
      </trkpt>
      <trkpt lat="44.09626" lon="0.93908">
        <ele>81</ele>
        <time>2023-07-06T06:50:44Z</time>
      </trkpt>
      <trkpt lat="44.09626" lon="0.93909">
        <ele>81</ele>
        <time>2023-07-06T06:50:45Z</time>
      </trkpt>
      <trkpt lat="44.09625" lon="0.93918">
        <ele>81.2</ele>
        <time>2023-07-06T06:50:52Z</time>
      </trkpt>
      <trkpt lat="44.09623" lon="0.9393">
        <ele>81.2</ele>
        <time>2023-07-06T06:51:00Z</time>
      </trkpt>
      <trkpt lat="44.09622" lon="0.93932">
        <ele>81.4</ele>
        <time>2023-07-06T06:51:01Z</time>
      </trkpt>
      <trkpt lat="44.0962" lon="0.93945">
        <ele>81.4</ele>
        <time>2023-07-06T06:51:08Z</time>
      </trkpt>
      <trkpt lat="44.09617" lon="0.93958">
        <ele>81.4</ele>
        <time>2023-07-06T06:51:16Z</time>
      </trkpt>
      <trkpt lat="44.09614" lon="0.93975">
        <ele>81.4</ele>
        <time>2023-07-06T06:51:26Z</time>
      </trkpt>
      <trkpt lat="44.09613" lon="0.93986">
        <ele>81.4</ele>
        <time>2023-07-06T06:51:31Z</time>
      </trkpt>
      <trkpt lat="44.09613" lon="0.93988">
        <ele>81.6</ele>
        <time>2023-07-06T06:51:33Z</time>
      </trkpt>
      <trkpt lat="44.09613" lon="0.9399">
        <ele>81.6</ele>
        <time>2023-07-06T06:51:34Z</time>
      </trkpt>
      <trkpt lat="44.09613" lon="0.93994">
        <ele>81.8</ele>
        <time>2023-07-06T06:51:37Z</time>
      </trkpt>
      <trkpt lat="44.09611" lon="0.93999">
        <ele>81.6</ele>
        <time>2023-07-06T06:51:41Z</time>
      </trkpt>
      <trkpt lat="44.09611" lon="0.94001">
        <ele>81.4</ele>
        <time>2023-07-06T06:51:42Z</time>
      </trkpt>
      <trkpt lat="44.09608" lon="0.94008">
        <ele>81.4</ele>
        <time>2023-07-06T06:51:46Z</time>
      </trkpt>
      <trkpt lat="44.09607" lon="0.9401">
        <ele>81.4</ele>
        <time>2023-07-06T06:51:47Z</time>
      </trkpt>
      <trkpt lat="44.09607" lon="0.94012">
        <ele>81.6</ele>
        <time>2023-07-06T06:51:49Z</time>
      </trkpt>
      <trkpt lat="44.09608" lon="0.94017">
        <ele>81.6</ele>
        <time>2023-07-06T06:51:52Z</time>
      </trkpt>
      <trkpt lat="44.09605" lon="0.94022">
        <ele>81.4</ele>
        <time>2023-07-06T06:51:57Z</time>
      </trkpt>
      <trkpt lat="44.09605" lon="0.94023">
        <ele>81.4</ele>
        <time>2023-07-06T06:51:58Z</time>
      </trkpt>
      <trkpt lat="44.09602" lon="0.94035">
        <ele>81.6</ele>
        <time>2023-07-06T06:52:04Z</time>
      </trkpt>
      <trkpt lat="44.09601" lon="0.94043">
        <ele>81.2</ele>
        <time>2023-07-06T06:52:09Z</time>
      </trkpt>
      <trkpt lat="44.096" lon="0.94045">
        <ele>81.2</ele>
        <time>2023-07-06T06:52:10Z</time>
      </trkpt>
      <trkpt lat="44.096" lon="0.94046">
        <ele>81.2</ele>
        <time>2023-07-06T06:52:11Z</time>
      </trkpt>
      <trkpt lat="44.096" lon="0.9405">
        <ele>81.2</ele>
        <time>2023-07-06T06:52:13Z</time>
      </trkpt>
      <trkpt lat="44.09599" lon="0.94053">
        <ele>81.4</ele>
        <time>2023-07-06T06:52:15Z</time>
      </trkpt>
      <trkpt lat="44.09598" lon="0.94059">
        <ele>81.4</ele>
        <time>2023-07-06T06:52:17Z</time>
      </trkpt>
      <trkpt lat="44.09595" lon="0.9407">
        <ele>81.4</ele>
        <time>2023-07-06T06:52:24Z</time>
      </trkpt>
      <trkpt lat="44.09593" lon="0.94083">
        <ele>81.4</ele>
        <time>2023-07-06T06:52:31Z</time>
      </trkpt>
      <trkpt lat="44.09592" lon="0.94089">
        <ele>81.4</ele>
        <time>2023-07-06T06:52:35Z</time>
      </trkpt>
      <trkpt lat="44.09591" lon="0.94093">
        <ele>81.4</ele>
        <time>2023-07-06T06:52:37Z</time>
      </trkpt>
      <trkpt lat="44.09589" lon="0.94099">
        <ele>81.4</ele>
        <time>2023-07-06T06:52:40Z</time>
      </trkpt>
      <trkpt lat="44.09588" lon="0.94102">
        <ele>81.6</ele>
        <time>2023-07-06T06:52:42Z</time>
      </trkpt>
      <trkpt lat="44.09587" lon="0.94106">
        <ele>82</ele>
        <time>2023-07-06T06:52:44Z</time>
      </trkpt>
      <trkpt lat="44.09586" lon="0.94116">
        <ele>81.8</ele>
        <time>2023-07-06T06:52:49Z</time>
      </trkpt>
      <trkpt lat="44.09584" lon="0.9412">
        <ele>81.4</ele>
        <time>2023-07-06T06:52:52Z</time>
      </trkpt>
      <trkpt lat="44.09583" lon="0.94126">
        <ele>81.2</ele>
        <time>2023-07-06T06:52:55Z</time>
      </trkpt>
      <trkpt lat="44.09582" lon="0.94132">
        <ele>81.4</ele>
        <time>2023-07-06T06:52:58Z</time>
      </trkpt>
      <trkpt lat="44.09582" lon="0.94134">
        <ele>81.2</ele>
        <time>2023-07-06T06:52:59Z</time>
      </trkpt>
      <trkpt lat="44.09581" lon="0.94136">
        <ele>81.2</ele>
        <time>2023-07-06T06:53:00Z</time>
      </trkpt>
      <trkpt lat="44.09581" lon="0.94139">
        <ele>81</ele>
        <time>2023-07-06T06:53:02Z</time>
      </trkpt>
      <trkpt lat="44.09579" lon="0.9415">
        <ele>81.4</ele>
        <time>2023-07-06T06:53:09Z</time>
      </trkpt>
      <trkpt lat="44.09577" lon="0.94156">
        <ele>81.4</ele>
        <time>2023-07-06T06:53:12Z</time>
      </trkpt>
      <trkpt lat="44.09575" lon="0.94163">
        <ele>81.2</ele>
        <time>2023-07-06T06:53:16Z</time>
      </trkpt>
      <trkpt lat="44.09574" lon="0.94171">
        <ele>81.4</ele>
        <time>2023-07-06T06:53:21Z</time>
      </trkpt>
      <trkpt lat="44.09572" lon="0.94175">
        <ele>81.4</ele>
        <time>2023-07-06T06:53:23Z</time>
      </trkpt>
      <trkpt lat="44.09572" lon="0.94177">
        <ele>81.4</ele>
        <time>2023-07-06T06:53:24Z</time>
      </trkpt>
      <trkpt lat="44.0957" lon="0.94181">
        <ele>81.4</ele>
        <time>2023-07-06T06:53:26Z</time>
      </trkpt>
      <trkpt lat="44.09569" lon="0.94184">
        <ele>81.4</ele>
        <time>2023-07-06T06:53:28Z</time>
      </trkpt>
      <trkpt lat="44.09568" lon="0.94186">
        <ele>81.4</ele>
        <time>2023-07-06T06:53:30Z</time>
      </trkpt>
      <trkpt lat="44.09567" lon="0.94185">
        <ele>81.4</ele>
        <time>2023-07-06T06:53:32Z</time>
      </trkpt>
      <trkpt lat="44.09566" lon="0.94185">
        <ele>81.4</ele>
        <time>2023-07-06T06:53:34Z</time>
      </trkpt>
      <trkpt lat="44.09565" lon="0.94186">
        <ele>81.6</ele>
        <time>2023-07-06T06:53:35Z</time>
      </trkpt>
      <trkpt lat="44.0956" lon="0.94193">
        <ele>82.4</ele>
        <time>2023-07-06T06:53:39Z</time>
      </trkpt>
      <trkpt lat="44.09559" lon="0.94194">
        <ele>82.8</ele>
        <time>2023-07-06T06:53:40Z</time>
      </trkpt>
      <trkpt lat="44.09558" lon="0.94197">
        <ele>83</ele>
        <time>2023-07-06T06:53:43Z</time>
      </trkpt>
      <trkpt lat="44.09557" lon="0.94199">
        <ele>83</ele>
        <time>2023-07-06T06:53:44Z</time>
      </trkpt>
      <trkpt lat="44.09557" lon="0.94201">
        <ele>83</ele>
        <time>2023-07-06T06:53:45Z</time>
      </trkpt>
      <trkpt lat="44.09556" lon="0.94204">
        <ele>83</ele>
        <time>2023-07-06T06:53:47Z</time>
      </trkpt>
      <trkpt lat="44.09553" lon="0.94213">
        <ele>83.2</ele>
        <time>2023-07-06T06:53:54Z</time>
      </trkpt>
      <trkpt lat="44.09552" lon="0.94215">
        <ele>83.2</ele>
        <time>2023-07-06T06:53:55Z</time>
      </trkpt>
      <trkpt lat="44.09552" lon="0.94218">
        <ele>83.2</ele>
        <time>2023-07-06T06:53:57Z</time>
      </trkpt>
      <trkpt lat="44.09552" lon="0.94223">
        <ele>83</ele>
        <time>2023-07-06T06:54:01Z</time>
      </trkpt>
      <trkpt lat="44.09551" lon="0.94226">
        <ele>83</ele>
        <time>2023-07-06T06:54:03Z</time>
      </trkpt>
      <trkpt lat="44.09549" lon="0.94234">
        <ele>83.2</ele>
        <time>2023-07-06T06:54:07Z</time>
      </trkpt>
      <trkpt lat="44.09549" lon="0.94239">
        <ele>83.2</ele>
        <time>2023-07-06T06:54:09Z</time>
      </trkpt>
      <trkpt lat="44.09548" lon="0.94248">
        <ele>82.8</ele>
        <time>2023-07-06T06:54:14Z</time>
      </trkpt>
      <trkpt lat="44.09547" lon="0.9425">
        <ele>82.6</ele>
        <time>2023-07-06T06:54:16Z</time>
      </trkpt>
      <trkpt lat="44.09547" lon="0.94251">
        <ele>82.6</ele>
        <time>2023-07-06T06:54:17Z</time>
      </trkpt>
      <trkpt lat="44.09546" lon="0.94252">
        <ele>82.6</ele>
        <time>2023-07-06T06:54:18Z</time>
      </trkpt>
      <trkpt lat="44.09544" lon="0.94252">
        <ele>82.6</ele>
        <time>2023-07-06T06:54:19Z</time>
      </trkpt>
      <trkpt lat="44.09543" lon="0.94252">
        <ele>82.8</ele>
        <time>2023-07-06T06:54:20Z</time>
      </trkpt>
      <trkpt lat="44.09542" lon="0.94252">
        <ele>82.8</ele>
        <time>2023-07-06T06:54:21Z</time>
      </trkpt>
      <trkpt lat="44.0954" lon="0.94249">
        <ele>83</ele>
        <time>2023-07-06T06:54:23Z</time>
      </trkpt>
      <trkpt lat="44.0954" lon="0.94249">
        <ele>83</ele>
        <time>2023-07-06T06:54:24Z</time>
      </trkpt>
      <trkpt lat="44.09538" lon="0.94248">
        <ele>83</ele>
        <time>2023-07-06T06:54:26Z</time>
      </trkpt>
      <trkpt lat="44.09533" lon="0.94248">
        <ele>82.6</ele>
        <time>2023-07-06T06:54:30Z</time>
      </trkpt>
      <trkpt lat="44.09531" lon="0.94248">
        <ele>82.4</ele>
        <time>2023-07-06T06:54:32Z</time>
      </trkpt>
      <trkpt lat="44.0953" lon="0.94253">
        <ele>82.4</ele>
        <time>2023-07-06T06:54:35Z</time>
      </trkpt>
      <trkpt lat="44.09528" lon="0.94258">
        <ele>82.6</ele>
        <time>2023-07-06T06:54:38Z</time>
      </trkpt>
      <trkpt lat="44.09527" lon="0.94268">
        <ele>82.6</ele>
        <time>2023-07-06T06:54:43Z</time>
      </trkpt>
      <trkpt lat="44.09525" lon="0.94279">
        <ele>82.4</ele>
        <time>2023-07-06T06:54:50Z</time>
      </trkpt>
      <trkpt lat="44.09524" lon="0.94291">
        <ele>82.6</ele>
        <time>2023-07-06T06:54:57Z</time>
      </trkpt>
      <trkpt lat="44.09523" lon="0.94303">
        <ele>82.6</ele>
        <time>2023-07-06T06:55:04Z</time>
      </trkpt>
      <trkpt lat="44.09523" lon="0.94306">
        <ele>82.6</ele>
        <time>2023-07-06T06:55:06Z</time>
      </trkpt>
      <trkpt lat="44.09523" lon="0.94308">
        <ele>82.8</ele>
        <time>2023-07-06T06:55:07Z</time>
      </trkpt>
      <trkpt lat="44.09523" lon="0.9431">
        <ele>82.8</ele>
        <time>2023-07-06T06:55:08Z</time>
      </trkpt>
      <trkpt lat="44.09522" lon="0.94315">
        <ele>82.8</ele>
        <time>2023-07-06T06:55:11Z</time>
      </trkpt>
      <trkpt lat="44.09521" lon="0.94331">
        <ele>82.8</ele>
        <time>2023-07-06T06:55:18Z</time>
      </trkpt>
      <trkpt lat="44.09521" lon="0.94333">
        <ele>82.8</ele>
        <time>2023-07-06T06:55:19Z</time>
      </trkpt>
      <trkpt lat="44.09519" lon="0.94342">
        <ele>82.6</ele>
        <time>2023-07-06T06:55:24Z</time>
      </trkpt>
      <trkpt lat="44.09517" lon="0.94346">
        <ele>82.6</ele>
        <time>2023-07-06T06:55:26Z</time>
      </trkpt>
      <trkpt lat="44.09514" lon="0.94356">
        <ele>82.4</ele>
        <time>2023-07-06T06:55:32Z</time>
      </trkpt>
      <trkpt lat="44.09513" lon="0.94359">
        <ele>82.4</ele>
        <time>2023-07-06T06:55:34Z</time>
      </trkpt>
      <trkpt lat="44.09513" lon="0.94363">
        <ele>82.4</ele>
        <time>2023-07-06T06:55:36Z</time>
      </trkpt>
      <trkpt lat="44.09512" lon="0.94365">
        <ele>82.4</ele>
        <time>2023-07-06T06:55:38Z</time>
      </trkpt>
      <trkpt lat="44.09509" lon="0.94373">
        <ele>82.6</ele>
        <time>2023-07-06T06:55:42Z</time>
      </trkpt>
      <trkpt lat="44.09508" lon="0.94377">
        <ele>82.6</ele>
        <time>2023-07-06T06:55:45Z</time>
      </trkpt>
      <trkpt lat="44.09507" lon="0.94382">
        <ele>82.6</ele>
        <time>2023-07-06T06:55:48Z</time>
      </trkpt>
      <trkpt lat="44.09507" lon="0.94394">
        <ele>82</ele>
        <time>2023-07-06T06:55:55Z</time>
      </trkpt>
      <trkpt lat="44.09506" lon="0.94401">
        <ele>82.2</ele>
        <time>2023-07-06T06:55:59Z</time>
      </trkpt>
      <trkpt lat="44.09505" lon="0.94405">
        <ele>82.2</ele>
        <time>2023-07-06T06:56:01Z</time>
      </trkpt>
      <trkpt lat="44.09503" lon="0.94418">
        <ele>82.4</ele>
        <time>2023-07-06T06:56:07Z</time>
      </trkpt>
      <trkpt lat="44.09503" lon="0.9442">
        <ele>82.4</ele>
        <time>2023-07-06T06:56:08Z</time>
      </trkpt>
      <trkpt lat="44.09501" lon="0.94429">
        <ele>82.4</ele>
        <time>2023-07-06T06:56:13Z</time>
      </trkpt>
      <trkpt lat="44.09501" lon="0.9443">
        <ele>82.4</ele>
        <time>2023-07-06T06:56:14Z</time>
      </trkpt>
      <trkpt lat="44.09501" lon="0.94441">
        <ele>82</ele>
        <time>2023-07-06T06:56:20Z</time>
      </trkpt>
      <trkpt lat="44.09497" lon="0.94457">
        <ele>82.2</ele>
        <time>2023-07-06T06:56:29Z</time>
      </trkpt>
      <trkpt lat="44.09496" lon="0.94462">
        <ele>82.2</ele>
        <time>2023-07-06T06:56:32Z</time>
      </trkpt>
      <trkpt lat="44.09494" lon="0.94466">
        <ele>82.4</ele>
        <time>2023-07-06T06:56:36Z</time>
      </trkpt>
      <trkpt lat="44.09492" lon="0.94475">
        <ele>82.4</ele>
        <time>2023-07-06T06:56:41Z</time>
      </trkpt>
      <trkpt lat="44.09491" lon="0.94479">
        <ele>82.4</ele>
        <time>2023-07-06T06:56:43Z</time>
      </trkpt>
      <trkpt lat="44.09489" lon="0.94486">
        <ele>82.4</ele>
        <time>2023-07-06T06:56:48Z</time>
      </trkpt>
      <trkpt lat="44.09489" lon="0.94488">
        <ele>82.4</ele>
        <time>2023-07-06T06:56:49Z</time>
      </trkpt>
      <trkpt lat="44.09487" lon="0.94499">
        <ele>82.2</ele>
        <time>2023-07-06T06:56:56Z</time>
      </trkpt>
      <trkpt lat="44.09485" lon="0.94505">
        <ele>82.2</ele>
        <time>2023-07-06T06:57:01Z</time>
      </trkpt>
      <trkpt lat="44.09485" lon="0.94506">
        <ele>82.2</ele>
        <time>2023-07-06T06:57:02Z</time>
      </trkpt>
      <trkpt lat="44.09484" lon="0.94508">
        <ele>82.4</ele>
        <time>2023-07-06T06:57:04Z</time>
      </trkpt>
      <trkpt lat="44.09481" lon="0.94516">
        <ele>82.4</ele>
        <time>2023-07-06T06:57:09Z</time>
      </trkpt>
      <trkpt lat="44.09479" lon="0.94522">
        <ele>82.4</ele>
        <time>2023-07-06T06:57:12Z</time>
      </trkpt>
      <trkpt lat="44.09478" lon="0.94525">
        <ele>82.4</ele>
        <time>2023-07-06T06:57:14Z</time>
      </trkpt>
      <trkpt lat="44.09475" lon="0.94528">
        <ele>82.4</ele>
        <time>2023-07-06T06:57:15Z</time>
      </trkpt>
      <trkpt lat="44.09472" lon="0.94543">
        <ele>82.4</ele>
        <time>2023-07-06T06:57:21Z</time>
      </trkpt>
      <trkpt lat="44.0947" lon="0.94552">
        <ele>82.2</ele>
        <time>2023-07-06T06:57:25Z</time>
      </trkpt>
      <trkpt lat="44.0947" lon="0.94554">
        <ele>82.4</ele>
        <time>2023-07-06T06:57:26Z</time>
      </trkpt>
      <trkpt lat="44.09469" lon="0.94569">
        <ele>82.4</ele>
        <time>2023-07-06T06:57:33Z</time>
      </trkpt>
      <trkpt lat="44.09468" lon="0.94572">
        <ele>82.4</ele>
        <time>2023-07-06T06:57:35Z</time>
      </trkpt>
      <trkpt lat="44.09468" lon="0.94574">
        <ele>82.4</ele>
        <time>2023-07-06T06:57:36Z</time>
      </trkpt>
      <trkpt lat="44.09466" lon="0.94583">
        <ele>82.6</ele>
        <time>2023-07-06T06:57:41Z</time>
      </trkpt>
      <trkpt lat="44.09464" lon="0.94594">
        <ele>82.4</ele>
        <time>2023-07-06T06:57:48Z</time>
      </trkpt>
      <trkpt lat="44.09463" lon="0.94609">
        <ele>82.2</ele>
        <time>2023-07-06T06:57:56Z</time>
      </trkpt>
      <trkpt lat="44.09462" lon="0.94622">
        <ele>82.2</ele>
        <time>2023-07-06T06:58:03Z</time>
      </trkpt>
      <trkpt lat="44.09462" lon="0.94632">
        <ele>82.2</ele>
        <time>2023-07-06T06:58:09Z</time>
      </trkpt>
      <trkpt lat="44.09461" lon="0.94645">
        <ele>82.2</ele>
        <time>2023-07-06T06:58:16Z</time>
      </trkpt>
      <trkpt lat="44.09458" lon="0.94652">
        <ele>82</ele>
        <time>2023-07-06T06:58:21Z</time>
      </trkpt>
      <trkpt lat="44.09458" lon="0.94656">
        <ele>82</ele>
        <time>2023-07-06T06:58:23Z</time>
      </trkpt>
      <trkpt lat="44.09456" lon="0.94671">
        <ele>81.8</ele>
        <time>2023-07-06T06:58:31Z</time>
      </trkpt>
      <trkpt lat="44.09454" lon="0.94683">
        <ele>82</ele>
        <time>2023-07-06T06:58:37Z</time>
      </trkpt>
      <trkpt lat="44.09454" lon="0.94685">
        <ele>82</ele>
        <time>2023-07-06T06:58:38Z</time>
      </trkpt>
      <trkpt lat="44.09453" lon="0.94687">
        <ele>82</ele>
        <time>2023-07-06T06:58:39Z</time>
      </trkpt>
      <trkpt lat="44.0945" lon="0.94701">
        <ele>82</ele>
        <time>2023-07-06T06:58:46Z</time>
      </trkpt>
      <trkpt lat="44.09447" lon="0.94718">
        <ele>82.4</ele>
        <time>2023-07-06T06:58:56Z</time>
      </trkpt>
      <trkpt lat="44.09444" lon="0.94727">
        <ele>82</ele>
        <time>2023-07-06T06:59:02Z</time>
      </trkpt>
      <trkpt lat="44.09444" lon="0.94728">
        <ele>82</ele>
        <time>2023-07-06T06:59:03Z</time>
      </trkpt>
      <trkpt lat="44.09443" lon="0.94731">
        <ele>82</ele>
        <time>2023-07-06T06:59:05Z</time>
      </trkpt>
      <trkpt lat="44.09441" lon="0.94739">
        <ele>82</ele>
        <time>2023-07-06T06:59:10Z</time>
      </trkpt>
      <trkpt lat="44.0944" lon="0.9474">
        <ele>81.8</ele>
        <time>2023-07-06T06:59:11Z</time>
      </trkpt>
      <trkpt lat="44.09438" lon="0.94751">
        <ele>81.8</ele>
        <time>2023-07-06T06:59:18Z</time>
      </trkpt>
      <trkpt lat="44.09435" lon="0.94759">
        <ele>81.8</ele>
        <time>2023-07-06T06:59:22Z</time>
      </trkpt>
      <trkpt lat="44.09433" lon="0.94765">
        <ele>82</ele>
        <time>2023-07-06T06:59:25Z</time>
      </trkpt>
      <trkpt lat="44.09433" lon="0.9477">
        <ele>82</ele>
        <time>2023-07-06T06:59:28Z</time>
      </trkpt>
      <trkpt lat="44.09433" lon="0.94776">
        <ele>81.6</ele>
        <time>2023-07-06T06:59:31Z</time>
      </trkpt>
      <trkpt lat="44.0943" lon="0.94785">
        <ele>81.8</ele>
        <time>2023-07-06T06:59:37Z</time>
      </trkpt>
      <trkpt lat="44.09428" lon="0.9479">
        <ele>81.8</ele>
        <time>2023-07-06T06:59:41Z</time>
      </trkpt>
      <trkpt lat="44.09427" lon="0.94793">
        <ele>81.8</ele>
        <time>2023-07-06T06:59:43Z</time>
      </trkpt>
      <trkpt lat="44.09427" lon="0.94796">
        <ele>81.8</ele>
        <time>2023-07-06T06:59:45Z</time>
      </trkpt>
      <trkpt lat="44.09425" lon="0.94803">
        <ele>81.8</ele>
        <time>2023-07-06T06:59:49Z</time>
      </trkpt>
      <trkpt lat="44.09424" lon="0.9481">
        <ele>81.8</ele>
        <time>2023-07-06T06:59:53Z</time>
      </trkpt>
      <trkpt lat="44.09423" lon="0.94812">
        <ele>82</ele>
        <time>2023-07-06T06:59:54Z</time>
      </trkpt>
      <trkpt lat="44.09419" lon="0.94825">
        <ele>81.8</ele>
        <time>2023-07-06T07:00:01Z</time>
      </trkpt>
      <trkpt lat="44.09418" lon="0.94827">
        <ele>81.8</ele>
        <time>2023-07-06T07:00:02Z</time>
      </trkpt>
      <trkpt lat="44.09417" lon="0.94837">
        <ele>81.8</ele>
        <time>2023-07-06T07:00:09Z</time>
      </trkpt>
      <trkpt lat="44.09414" lon="0.9485">
        <ele>81.8</ele>
        <time>2023-07-06T07:00:16Z</time>
      </trkpt>
      <trkpt lat="44.09413" lon="0.94858">
        <ele>82</ele>
        <time>2023-07-06T07:00:20Z</time>
      </trkpt>
      <trkpt lat="44.09412" lon="0.94863">
        <ele>81.8</ele>
        <time>2023-07-06T07:00:23Z</time>
      </trkpt>
      <trkpt lat="44.0941" lon="0.94879">
        <ele>82</ele>
        <time>2023-07-06T07:00:31Z</time>
      </trkpt>
      <trkpt lat="44.09409" lon="0.94881">
        <ele>82</ele>
        <time>2023-07-06T07:00:33Z</time>
      </trkpt>
      <trkpt lat="44.09409" lon="0.94888">
        <ele>82</ele>
        <time>2023-07-06T07:00:38Z</time>
      </trkpt>
      <trkpt lat="44.09408" lon="0.94901">
        <ele>82</ele>
        <time>2023-07-06T07:00:46Z</time>
      </trkpt>
      <trkpt lat="44.09406" lon="0.94912">
        <ele>82</ele>
        <time>2023-07-06T07:00:53Z</time>
      </trkpt>
      <trkpt lat="44.09402" lon="0.94925">
        <ele>82</ele>
        <time>2023-07-06T07:01:00Z</time>
      </trkpt>
      <trkpt lat="44.09399" lon="0.94935">
        <ele>81.8</ele>
        <time>2023-07-06T07:01:06Z</time>
      </trkpt>
      <trkpt lat="44.09399" lon="0.94937">
        <ele>82</ele>
        <time>2023-07-06T07:01:08Z</time>
      </trkpt>
      <trkpt lat="44.09398" lon="0.94941">
        <ele>82.2</ele>
        <time>2023-07-06T07:01:11Z</time>
      </trkpt>
      <trkpt lat="44.09397" lon="0.94949">
        <ele>82</ele>
        <time>2023-07-06T07:01:15Z</time>
      </trkpt>
      <trkpt lat="44.09394" lon="0.94962">
        <ele>82</ele>
        <time>2023-07-06T07:01:22Z</time>
      </trkpt>
      <trkpt lat="44.09394" lon="0.94965">
        <ele>82.2</ele>
        <time>2023-07-06T07:01:23Z</time>
      </trkpt>
      <trkpt lat="44.09392" lon="0.9497">
        <ele>82.4</ele>
        <time>2023-07-06T07:01:26Z</time>
      </trkpt>
      <trkpt lat="44.09391" lon="0.94973">
        <ele>82.2</ele>
        <time>2023-07-06T07:01:28Z</time>
      </trkpt>
      <trkpt lat="44.09386" lon="0.94981">
        <ele>82.2</ele>
        <time>2023-07-06T07:01:36Z</time>
      </trkpt>
      <trkpt lat="44.09385" lon="0.94982">
        <ele>82.2</ele>
        <time>2023-07-06T07:01:37Z</time>
      </trkpt>
      <trkpt lat="44.0938" lon="0.94989">
        <ele>82</ele>
        <time>2023-07-06T07:01:42Z</time>
      </trkpt>
      <trkpt lat="44.09379" lon="0.94993">
        <ele>82</ele>
        <time>2023-07-06T07:01:44Z</time>
      </trkpt>
      <trkpt lat="44.09377" lon="0.94999">
        <ele>82</ele>
        <time>2023-07-06T07:01:47Z</time>
      </trkpt>
      <trkpt lat="44.09371" lon="0.95006">
        <ele>82</ele>
        <time>2023-07-06T07:01:52Z</time>
      </trkpt>
      <trkpt lat="44.09367" lon="0.95012">
        <ele>82.4</ele>
        <time>2023-07-06T07:01:56Z</time>
      </trkpt>
      <trkpt lat="44.09366" lon="0.95014">
        <ele>82.6</ele>
        <time>2023-07-06T07:01:57Z</time>
      </trkpt>
      <trkpt lat="44.09366" lon="0.95016">
        <ele>82.8</ele>
        <time>2023-07-06T07:01:58Z</time>
      </trkpt>
      <trkpt lat="44.09362" lon="0.95026">
        <ele>83.4</ele>
        <time>2023-07-06T07:02:04Z</time>
      </trkpt>
      <trkpt lat="44.09361" lon="0.9503">
        <ele>83.8</ele>
        <time>2023-07-06T07:02:07Z</time>
      </trkpt>
      <trkpt lat="44.0936" lon="0.95032">
        <ele>84.2</ele>
        <time>2023-07-06T07:02:09Z</time>
      </trkpt>
      <trkpt lat="44.0936" lon="0.95034">
        <ele>84.6</ele>
        <time>2023-07-06T07:02:11Z</time>
      </trkpt>
      <trkpt lat="44.09359" lon="0.95036">
        <ele>84.8</ele>
        <time>2023-07-06T07:02:13Z</time>
      </trkpt>
      <trkpt lat="44.09358" lon="0.95039">
        <ele>85</ele>
        <time>2023-07-06T07:02:15Z</time>
      </trkpt>
      <trkpt lat="44.09358" lon="0.95041">
        <ele>85.2</ele>
        <time>2023-07-06T07:02:16Z</time>
      </trkpt>
      <trkpt lat="44.09358" lon="0.95047">
        <ele>85.4</ele>
        <time>2023-07-06T07:02:19Z</time>
      </trkpt>
      <trkpt lat="44.09359" lon="0.95047">
        <ele>85.6</ele>
        <time>2023-07-06T07:02:20Z</time>
      </trkpt>
      <trkpt lat="44.09361" lon="0.95048">
        <ele>85.6</ele>
        <time>2023-07-06T07:02:22Z</time>
      </trkpt>
      <trkpt lat="44.09363" lon="0.95049">
        <ele>86</ele>
        <time>2023-07-06T07:02:25Z</time>
      </trkpt>
      <trkpt lat="44.09367" lon="0.9505">
        <ele>86</ele>
        <time>2023-07-06T07:02:30Z</time>
      </trkpt>
      <trkpt lat="44.09369" lon="0.9505">
        <ele>86</ele>
        <time>2023-07-06T07:02:31Z</time>
      </trkpt>
      <trkpt lat="44.09376" lon="0.95056">
        <ele>86.2</ele>
        <time>2023-07-06T07:02:38Z</time>
      </trkpt>
      <trkpt lat="44.09377" lon="0.95056">
        <ele>86.2</ele>
        <time>2023-07-06T07:02:39Z</time>
      </trkpt>
      <trkpt lat="44.09379" lon="0.95057">
        <ele>86</ele>
        <time>2023-07-06T07:02:40Z</time>
      </trkpt>
      <trkpt lat="44.09383" lon="0.9506">
        <ele>86</ele>
        <time>2023-07-06T07:02:45Z</time>
      </trkpt>
      <trkpt lat="44.09384" lon="0.95062">
        <ele>86</ele>
        <time>2023-07-06T07:02:46Z</time>
      </trkpt>
      <trkpt lat="44.09382" lon="0.95068">
        <ele>86</ele>
        <time>2023-07-06T07:02:50Z</time>
      </trkpt>
      <trkpt lat="44.09379" lon="0.9508">
        <ele>84.8</ele>
        <time>2023-07-06T07:02:56Z</time>
      </trkpt>
      <trkpt lat="44.09378" lon="0.95082">
        <ele>84.4</ele>
        <time>2023-07-06T07:02:57Z</time>
      </trkpt>
      <trkpt lat="44.09376" lon="0.95094">
        <ele>83.6</ele>
        <time>2023-07-06T07:03:04Z</time>
      </trkpt>
      <trkpt lat="44.09376" lon="0.95097">
        <ele>83.6</ele>
        <time>2023-07-06T07:03:06Z</time>
      </trkpt>
      <trkpt lat="44.09375" lon="0.95099">
        <ele>83.4</ele>
        <time>2023-07-06T07:03:07Z</time>
      </trkpt>
      <trkpt lat="44.09372" lon="0.95105">
        <ele>83</ele>
        <time>2023-07-06T07:03:11Z</time>
      </trkpt>
      <trkpt lat="44.0937" lon="0.95113">
        <ele>82.6</ele>
        <time>2023-07-06T07:03:18Z</time>
      </trkpt>
      <trkpt lat="44.09369" lon="0.95115">
        <ele>82.4</ele>
        <time>2023-07-06T07:03:20Z</time>
      </trkpt>
      <trkpt lat="44.09369" lon="0.95116">
        <ele>82.4</ele>
        <time>2023-07-06T07:03:22Z</time>
      </trkpt>
      <trkpt lat="44.09368" lon="0.95119">
        <ele>82.4</ele>
        <time>2023-07-06T07:03:24Z</time>
      </trkpt>
      <trkpt lat="44.09368" lon="0.9512">
        <ele>82.4</ele>
        <time>2023-07-06T07:03:25Z</time>
      </trkpt>
      <trkpt lat="44.09367" lon="0.95122">
        <ele>82.4</ele>
        <time>2023-07-06T07:03:26Z</time>
      </trkpt>
      <trkpt lat="44.09364" lon="0.95129">
        <ele>82.4</ele>
        <time>2023-07-06T07:03:31Z</time>
      </trkpt>
      <trkpt lat="44.09363" lon="0.95132">
        <ele>82.4</ele>
        <time>2023-07-06T07:03:33Z</time>
      </trkpt>
      <trkpt lat="44.09361" lon="0.95136">
        <ele>82.4</ele>
        <time>2023-07-06T07:03:36Z</time>
      </trkpt>
      <trkpt lat="44.0936" lon="0.95139">
        <ele>82.8</ele>
        <time>2023-07-06T07:03:38Z</time>
      </trkpt>
      <trkpt lat="44.09358" lon="0.95143">
        <ele>82.6</ele>
        <time>2023-07-06T07:03:41Z</time>
      </trkpt>
      <trkpt lat="44.09356" lon="0.9515">
        <ele>82.4</ele>
        <time>2023-07-06T07:03:46Z</time>
      </trkpt>
      <trkpt lat="44.09356" lon="0.95151">
        <ele>82.6</ele>
        <time>2023-07-06T07:03:47Z</time>
      </trkpt>
      <trkpt lat="44.09355" lon="0.95155">
        <ele>82.6</ele>
        <time>2023-07-06T07:03:49Z</time>
      </trkpt>
      <trkpt lat="44.09351" lon="0.95164">
        <ele>82.6</ele>
        <time>2023-07-06T07:03:54Z</time>
      </trkpt>
      <trkpt lat="44.09351" lon="0.95167">
        <ele>82.6</ele>
        <time>2023-07-06T07:03:56Z</time>
      </trkpt>
      <trkpt lat="44.0935" lon="0.95171">
        <ele>82.6</ele>
        <time>2023-07-06T07:03:58Z</time>
      </trkpt>
      <trkpt lat="44.09348" lon="0.95176">
        <ele>82.6</ele>
        <time>2023-07-06T07:04:01Z</time>
      </trkpt>
      <trkpt lat="44.09348" lon="0.95178">
        <ele>82.4</ele>
        <time>2023-07-06T07:04:02Z</time>
      </trkpt>
      <trkpt lat="44.09347" lon="0.95181">
        <ele>82.4</ele>
        <time>2023-07-06T07:04:04Z</time>
      </trkpt>
      <trkpt lat="44.09346" lon="0.95185">
        <ele>82.6</ele>
        <time>2023-07-06T07:04:06Z</time>
      </trkpt>
      <trkpt lat="44.09344" lon="0.95189">
        <ele>82.8</ele>
        <time>2023-07-06T07:04:08Z</time>
      </trkpt>
      <trkpt lat="44.09344" lon="0.95191">
        <ele>82.8</ele>
        <time>2023-07-06T07:04:09Z</time>
      </trkpt>
      <trkpt lat="44.09343" lon="0.95192">
        <ele>82.8</ele>
        <time>2023-07-06T07:04:10Z</time>
      </trkpt>
      <trkpt lat="44.09343" lon="0.95194">
        <ele>82.8</ele>
        <time>2023-07-06T07:04:11Z</time>
      </trkpt>
      <trkpt lat="44.09342" lon="0.95197">
        <ele>83</ele>
        <time>2023-07-06T07:04:13Z</time>
      </trkpt>
      <trkpt lat="44.09341" lon="0.95199">
        <ele>83</ele>
        <time>2023-07-06T07:04:15Z</time>
      </trkpt>
      <trkpt lat="44.0934" lon="0.95202">
        <ele>82.8</ele>
        <time>2023-07-06T07:04:17Z</time>
      </trkpt>
      <trkpt lat="44.0934" lon="0.95204">
        <ele>82.8</ele>
        <time>2023-07-06T07:04:19Z</time>
      </trkpt>
      <trkpt lat="44.09339" lon="0.95208">
        <ele>82.8</ele>
        <time>2023-07-06T07:04:22Z</time>
      </trkpt>
      <trkpt lat="44.09338" lon="0.95211">
        <ele>82.8</ele>
        <time>2023-07-06T07:04:24Z</time>
      </trkpt>
      <trkpt lat="44.09336" lon="0.9522">
        <ele>82.4</ele>
        <time>2023-07-06T07:04:29Z</time>
      </trkpt>
      <trkpt lat="44.09336" lon="0.95221">
        <ele>82.6</ele>
        <time>2023-07-06T07:04:30Z</time>
      </trkpt>
      <trkpt lat="44.09336" lon="0.95222">
        <ele>82.6</ele>
        <time>2023-07-06T07:04:31Z</time>
      </trkpt>
      <trkpt lat="44.09336" lon="0.95229">
        <ele>82.8</ele>
        <time>2023-07-06T07:04:35Z</time>
      </trkpt>
      <trkpt lat="44.09335" lon="0.95232">
        <ele>83</ele>
        <time>2023-07-06T07:04:39Z</time>
      </trkpt>
      <trkpt lat="44.09334" lon="0.95235">
        <ele>83</ele>
        <time>2023-07-06T07:04:41Z</time>
      </trkpt>
      <trkpt lat="44.09333" lon="0.95238">
        <ele>83</ele>
        <time>2023-07-06T07:04:43Z</time>
      </trkpt>
      <trkpt lat="44.09328" lon="0.9525">
        <ele>82.8</ele>
        <time>2023-07-06T07:04:49Z</time>
      </trkpt>
      <trkpt lat="44.09327" lon="0.95252">
        <ele>82.8</ele>
        <time>2023-07-06T07:04:50Z</time>
      </trkpt>
      <trkpt lat="44.09326" lon="0.95258">
        <ele>82.8</ele>
        <time>2023-07-06T07:04:54Z</time>
      </trkpt>
      <trkpt lat="44.09324" lon="0.95262">
        <ele>82.6</ele>
        <time>2023-07-06T07:04:57Z</time>
      </trkpt>
      <trkpt lat="44.09322" lon="0.95272">
        <ele>82.8</ele>
        <time>2023-07-06T07:05:04Z</time>
      </trkpt>
      <trkpt lat="44.09321" lon="0.95274">
        <ele>82.8</ele>
        <time>2023-07-06T07:05:06Z</time>
      </trkpt>
      <trkpt lat="44.0932" lon="0.9528">
        <ele>82.8</ele>
        <time>2023-07-06T07:05:10Z</time>
      </trkpt>
      <trkpt lat="44.09319" lon="0.95284">
        <ele>82.8</ele>
        <time>2023-07-06T07:05:12Z</time>
      </trkpt>
      <trkpt lat="44.09318" lon="0.95286">
        <ele>82.8</ele>
        <time>2023-07-06T07:05:13Z</time>
      </trkpt>
      <trkpt lat="44.09316" lon="0.95291">
        <ele>82.8</ele>
        <time>2023-07-06T07:05:16Z</time>
      </trkpt>
      <trkpt lat="44.09314" lon="0.95297">
        <ele>82.8</ele>
        <time>2023-07-06T07:05:20Z</time>
      </trkpt>
      <trkpt lat="44.09312" lon="0.95301">
        <ele>82.8</ele>
        <time>2023-07-06T07:05:23Z</time>
      </trkpt>
      <trkpt lat="44.09311" lon="0.95304">
        <ele>82.8</ele>
        <time>2023-07-06T07:05:25Z</time>
      </trkpt>
      <trkpt lat="44.0931" lon="0.95305">
        <ele>82.8</ele>
        <time>2023-07-06T07:05:27Z</time>
      </trkpt>
      <trkpt lat="44.09309" lon="0.9531">
        <ele>82.8</ele>
        <time>2023-07-06T07:05:30Z</time>
      </trkpt>
      <trkpt lat="44.09307" lon="0.95314">
        <ele>82.6</ele>
        <time>2023-07-06T07:05:33Z</time>
      </trkpt>
      <trkpt lat="44.09307" lon="0.95316">
        <ele>82.6</ele>
        <time>2023-07-06T07:05:34Z</time>
      </trkpt>
      <trkpt lat="44.09307" lon="0.95317">
        <ele>82.6</ele>
        <time>2023-07-06T07:05:35Z</time>
      </trkpt>
      <trkpt lat="44.09306" lon="0.95318">
        <ele>82.6</ele>
        <time>2023-07-06T07:05:36Z</time>
      </trkpt>
      <trkpt lat="44.09305" lon="0.95323">
        <ele>82.6</ele>
        <time>2023-07-06T07:05:39Z</time>
      </trkpt>
      <trkpt lat="44.09303" lon="0.95325">
        <ele>82.6</ele>
        <time>2023-07-06T07:05:41Z</time>
      </trkpt>
      <trkpt lat="44.09302" lon="0.95327">
        <ele>82.6</ele>
        <time>2023-07-06T07:05:43Z</time>
      </trkpt>
      <trkpt lat="44.09301" lon="0.9533">
        <ele>82.8</ele>
        <time>2023-07-06T07:05:45Z</time>
      </trkpt>
      <trkpt lat="44.09299" lon="0.95334">
        <ele>83</ele>
        <time>2023-07-06T07:05:48Z</time>
      </trkpt>
      <trkpt lat="44.09298" lon="0.95336">
        <ele>83</ele>
        <time>2023-07-06T07:05:49Z</time>
      </trkpt>
      <trkpt lat="44.09297" lon="0.95338">
        <ele>82.8</ele>
        <time>2023-07-06T07:05:51Z</time>
      </trkpt>
      <trkpt lat="44.09297" lon="0.95343">
        <ele>82.8</ele>
        <time>2023-07-06T07:05:55Z</time>
      </trkpt>
      <trkpt lat="44.09297" lon="0.95344">
        <ele>82.8</ele>
        <time>2023-07-06T07:05:56Z</time>
      </trkpt>
      <trkpt lat="44.09296" lon="0.9535">
        <ele>82.4</ele>
        <time>2023-07-06T07:05:59Z</time>
      </trkpt>
      <trkpt lat="44.09295" lon="0.95353">
        <ele>82.4</ele>
        <time>2023-07-06T07:06:01Z</time>
      </trkpt>
      <trkpt lat="44.09294" lon="0.95356">
        <ele>82.4</ele>
        <time>2023-07-06T07:06:03Z</time>
      </trkpt>
      <trkpt lat="44.09289" lon="0.95368">
        <ele>82.6</ele>
        <time>2023-07-06T07:06:11Z</time>
      </trkpt>
      <trkpt lat="44.09286" lon="0.95381">
        <ele>82.6</ele>
        <time>2023-07-06T07:06:18Z</time>
      </trkpt>
      <trkpt lat="44.09286" lon="0.95382">
        <ele>82.6</ele>
        <time>2023-07-06T07:06:19Z</time>
      </trkpt>
      <trkpt lat="44.09284" lon="0.95386">
        <ele>82.8</ele>
        <time>2023-07-06T07:06:23Z</time>
      </trkpt>
      <trkpt lat="44.09284" lon="0.9539">
        <ele>82.6</ele>
        <time>2023-07-06T07:06:26Z</time>
      </trkpt>
      <trkpt lat="44.09283" lon="0.95391">
        <ele>82.8</ele>
        <time>2023-07-06T07:06:27Z</time>
      </trkpt>
      <trkpt lat="44.09283" lon="0.95394">
        <ele>82.8</ele>
        <time>2023-07-06T07:06:29Z</time>
      </trkpt>
      <trkpt lat="44.09285" lon="0.95401">
        <ele>82.8</ele>
        <time>2023-07-06T07:06:35Z</time>
      </trkpt>
      <trkpt lat="44.09284" lon="0.95403">
        <ele>82.6</ele>
        <time>2023-07-06T07:06:37Z</time>
      </trkpt>
      <trkpt lat="44.09284" lon="0.95408">
        <ele>82.4</ele>
        <time>2023-07-06T07:06:41Z</time>
      </trkpt>
      <trkpt lat="44.09283" lon="0.9541">
        <ele>82.4</ele>
        <time>2023-07-06T07:06:42Z</time>
      </trkpt>
      <trkpt lat="44.09282" lon="0.95417">
        <ele>82.2</ele>
        <time>2023-07-06T07:06:46Z</time>
      </trkpt>
      <trkpt lat="44.09281" lon="0.95422">
        <ele>82.2</ele>
        <time>2023-07-06T07:06:48Z</time>
      </trkpt>
      <trkpt lat="44.09281" lon="0.95423">
        <ele>82.2</ele>
        <time>2023-07-06T07:06:49Z</time>
      </trkpt>
      <trkpt lat="44.09281" lon="0.95423">
        <ele>82.2</ele>
        <time>2023-07-06T07:06:50Z</time>
      </trkpt>
      <trkpt lat="44.09281" lon="0.95424">
        <ele>82.2</ele>
        <time>2023-07-06T07:06:51Z</time>
      </trkpt>
      <trkpt lat="44.09275" lon="0.95439">
        <ele>82.4</ele>
        <time>2023-07-06T07:06:58Z</time>
      </trkpt>
      <trkpt lat="44.09274" lon="0.95445">
        <ele>82.4</ele>
        <time>2023-07-06T07:07:03Z</time>
      </trkpt>
      <trkpt lat="44.09274" lon="0.95447">
        <ele>82.2</ele>
        <time>2023-07-06T07:07:05Z</time>
      </trkpt>
      <trkpt lat="44.0927" lon="0.95457">
        <ele>82.4</ele>
        <time>2023-07-06T07:07:12Z</time>
      </trkpt>
      <trkpt lat="44.09269" lon="0.95458">
        <ele>82.2</ele>
        <time>2023-07-06T07:07:13Z</time>
      </trkpt>
      <trkpt lat="44.09268" lon="0.9546">
        <ele>82.2</ele>
        <time>2023-07-06T07:07:14Z</time>
      </trkpt>
      <trkpt lat="44.09268" lon="0.95463">
        <ele>82.4</ele>
        <time>2023-07-06T07:07:16Z</time>
      </trkpt>
      <trkpt lat="44.09268" lon="0.95465">
        <ele>82.6</ele>
        <time>2023-07-06T07:07:18Z</time>
      </trkpt>
      <trkpt lat="44.09267" lon="0.95466">
        <ele>82.6</ele>
        <time>2023-07-06T07:07:19Z</time>
      </trkpt>
      <trkpt lat="44.09267" lon="0.95468">
        <ele>82.8</ele>
        <time>2023-07-06T07:07:20Z</time>
      </trkpt>
      <trkpt lat="44.09266" lon="0.9547">
        <ele>83</ele>
        <time>2023-07-06T07:07:23Z</time>
      </trkpt>
      <trkpt lat="44.09266" lon="0.95473">
        <ele>83.2</ele>
        <time>2023-07-06T07:07:25Z</time>
      </trkpt>
      <trkpt lat="44.09265" lon="0.95475">
        <ele>83.2</ele>
        <time>2023-07-06T07:07:27Z</time>
      </trkpt>
      <trkpt lat="44.09264" lon="0.95477">
        <ele>83.2</ele>
        <time>2023-07-06T07:07:29Z</time>
      </trkpt>
      <trkpt lat="44.09264" lon="0.95478">
        <ele>83.4</ele>
        <time>2023-07-06T07:07:30Z</time>
      </trkpt>
      <trkpt lat="44.09263" lon="0.9548">
        <ele>83.4</ele>
        <time>2023-07-06T07:07:32Z</time>
      </trkpt>
      <trkpt lat="44.09262" lon="0.95483">
        <ele>83.4</ele>
        <time>2023-07-06T07:07:35Z</time>
      </trkpt>
      <trkpt lat="44.09261" lon="0.95487">
        <ele>83.4</ele>
        <time>2023-07-06T07:07:39Z</time>
      </trkpt>
      <trkpt lat="44.09261" lon="0.95489">
        <ele>83.4</ele>
        <time>2023-07-06T07:07:40Z</time>
      </trkpt>
      <trkpt lat="44.09261" lon="0.95493">
        <ele>83.4</ele>
        <time>2023-07-06T07:07:42Z</time>
      </trkpt>
      <trkpt lat="44.0926" lon="0.95496">
        <ele>83.6</ele>
        <time>2023-07-06T07:07:44Z</time>
      </trkpt>
      <trkpt lat="44.0926" lon="0.95498">
        <ele>83.8</ele>
        <time>2023-07-06T07:07:46Z</time>
      </trkpt>
      <trkpt lat="44.09259" lon="0.95499">
        <ele>83.6</ele>
        <time>2023-07-06T07:07:47Z</time>
      </trkpt>
      <trkpt lat="44.09258" lon="0.95504">
        <ele>83.6</ele>
        <time>2023-07-06T07:07:51Z</time>
      </trkpt>
      <trkpt lat="44.09257" lon="0.95506">
        <ele>83.6</ele>
        <time>2023-07-06T07:07:52Z</time>
      </trkpt>
      <trkpt lat="44.09255" lon="0.95517">
        <ele>83.4</ele>
        <time>2023-07-06T07:07:58Z</time>
      </trkpt>
      <trkpt lat="44.09254" lon="0.95523">
        <ele>83.4</ele>
        <time>2023-07-06T07:08:01Z</time>
      </trkpt>
      <trkpt lat="44.09253" lon="0.95528">
        <ele>83.6</ele>
        <time>2023-07-06T07:08:05Z</time>
      </trkpt>
      <trkpt lat="44.09252" lon="0.95533">
        <ele>83.6</ele>
        <time>2023-07-06T07:08:09Z</time>
      </trkpt>
      <trkpt lat="44.0925" lon="0.95537">
        <ele>83.6</ele>
        <time>2023-07-06T07:08:12Z</time>
      </trkpt>
      <trkpt lat="44.09249" lon="0.9554">
        <ele>83.6</ele>
        <time>2023-07-06T07:08:15Z</time>
      </trkpt>
      <trkpt lat="44.09249" lon="0.95544">
        <ele>83.6</ele>
        <time>2023-07-06T07:08:17Z</time>
      </trkpt>
      <trkpt lat="44.09246" lon="0.95549">
        <ele>83.6</ele>
        <time>2023-07-06T07:08:21Z</time>
      </trkpt>
      <trkpt lat="44.09245" lon="0.9555">
        <ele>83.6</ele>
        <time>2023-07-06T07:08:22Z</time>
      </trkpt>
      <trkpt lat="44.09245" lon="0.95552">
        <ele>83.8</ele>
        <time>2023-07-06T07:08:23Z</time>
      </trkpt>
      <trkpt lat="44.09243" lon="0.95555">
        <ele>83.8</ele>
        <time>2023-07-06T07:08:25Z</time>
      </trkpt>
      <trkpt lat="44.0924" lon="0.95562">
        <ele>83.8</ele>
        <time>2023-07-06T07:08:30Z</time>
      </trkpt>
      <trkpt lat="44.09236" lon="0.95568">
        <ele>83.4</ele>
        <time>2023-07-06T07:08:35Z</time>
      </trkpt>
      <trkpt lat="44.09235" lon="0.95572">
        <ele>83.4</ele>
        <time>2023-07-06T07:08:38Z</time>
      </trkpt>
      <trkpt lat="44.09233" lon="0.95577">
        <ele>83.4</ele>
        <time>2023-07-06T07:08:41Z</time>
      </trkpt>
      <trkpt lat="44.09233" lon="0.95579">
        <ele>83.4</ele>
        <time>2023-07-06T07:08:43Z</time>
      </trkpt>
      <trkpt lat="44.0923" lon="0.95588">
        <ele>83.2</ele>
        <time>2023-07-06T07:08:49Z</time>
      </trkpt>
      <trkpt lat="44.0923" lon="0.9559">
        <ele>83.4</ele>
        <time>2023-07-06T07:08:51Z</time>
      </trkpt>
      <trkpt lat="44.0923" lon="0.95591">
        <ele>83.6</ele>
        <time>2023-07-06T07:08:52Z</time>
      </trkpt>
      <trkpt lat="44.0923" lon="0.95592">
        <ele>83.6</ele>
        <time>2023-07-06T07:08:53Z</time>
      </trkpt>
      <trkpt lat="44.0923" lon="0.95593">
        <ele>83.6</ele>
        <time>2023-07-06T07:08:54Z</time>
      </trkpt>
      <trkpt lat="44.09229" lon="0.956">
        <ele>83.6</ele>
        <time>2023-07-06T07:08:59Z</time>
      </trkpt>
      <trkpt lat="44.09228" lon="0.95603">
        <ele>83.6</ele>
        <time>2023-07-06T07:09:02Z</time>
      </trkpt>
      <trkpt lat="44.09227" lon="0.95608">
        <ele>82.8</ele>
        <time>2023-07-06T07:09:06Z</time>
      </trkpt>
      <trkpt lat="44.09225" lon="0.95616">
        <ele>82.6</ele>
        <time>2023-07-06T07:09:10Z</time>
      </trkpt>
      <trkpt lat="44.09223" lon="0.95622">
        <ele>82.6</ele>
        <time>2023-07-06T07:09:14Z</time>
      </trkpt>
      <trkpt lat="44.09222" lon="0.95625">
        <ele>82.6</ele>
        <time>2023-07-06T07:09:16Z</time>
      </trkpt>
      <trkpt lat="44.0922" lon="0.95631">
        <ele>82.8</ele>
        <time>2023-07-06T07:09:21Z</time>
      </trkpt>
      <trkpt lat="44.09219" lon="0.95636">
        <ele>82.8</ele>
        <time>2023-07-06T07:09:24Z</time>
      </trkpt>
      <trkpt lat="44.09218" lon="0.95637">
        <ele>82.8</ele>
        <time>2023-07-06T07:09:25Z</time>
      </trkpt>
      <trkpt lat="44.09218" lon="0.95638">
        <ele>82.8</ele>
        <time>2023-07-06T07:09:26Z</time>
      </trkpt>
      <trkpt lat="44.09218" lon="0.9564">
        <ele>82.8</ele>
        <time>2023-07-06T07:09:27Z</time>
      </trkpt>
      <trkpt lat="44.09217" lon="0.95641">
        <ele>82.8</ele>
        <time>2023-07-06T07:09:28Z</time>
      </trkpt>
      <trkpt lat="44.09217" lon="0.95643">
        <ele>82.8</ele>
        <time>2023-07-06T07:09:29Z</time>
      </trkpt>
      <trkpt lat="44.09216" lon="0.95647">
        <ele>83</ele>
        <time>2023-07-06T07:09:32Z</time>
      </trkpt>
      <trkpt lat="44.09216" lon="0.95648">
        <ele>83</ele>
        <time>2023-07-06T07:09:33Z</time>
      </trkpt>
      <trkpt lat="44.09215" lon="0.95651">
        <ele>83.2</ele>
        <time>2023-07-06T07:09:35Z</time>
      </trkpt>
      <trkpt lat="44.09214" lon="0.95655">
        <ele>83.2</ele>
        <time>2023-07-06T07:09:40Z</time>
      </trkpt>
      <trkpt lat="44.09213" lon="0.95656">
        <ele>83</ele>
        <time>2023-07-06T07:09:42Z</time>
      </trkpt>
      <trkpt lat="44.09212" lon="0.95661">
        <ele>83</ele>
        <time>2023-07-06T07:09:46Z</time>
      </trkpt>
      <trkpt lat="44.09209" lon="0.95667">
        <ele>83.2</ele>
        <time>2023-07-06T07:09:51Z</time>
      </trkpt>
      <trkpt lat="44.09206" lon="0.95676">
        <ele>83.6</ele>
        <time>2023-07-06T07:09:59Z</time>
      </trkpt>
      <trkpt lat="44.09207" lon="0.95679">
        <ele>83.6</ele>
        <time>2023-07-06T07:10:01Z</time>
      </trkpt>
      <trkpt lat="44.09204" lon="0.95689">
        <ele>83.6</ele>
        <time>2023-07-06T07:10:08Z</time>
      </trkpt>
      <trkpt lat="44.09203" lon="0.95693">
        <ele>83.6</ele>
        <time>2023-07-06T07:10:10Z</time>
      </trkpt>
      <trkpt lat="44.09202" lon="0.95696">
        <ele>83.8</ele>
        <time>2023-07-06T07:10:12Z</time>
      </trkpt>
      <trkpt lat="44.09202" lon="0.957">
        <ele>84</ele>
        <time>2023-07-06T07:10:15Z</time>
      </trkpt>
      <trkpt lat="44.092" lon="0.95704">
        <ele>84</ele>
        <time>2023-07-06T07:10:19Z</time>
      </trkpt>
      <trkpt lat="44.09198" lon="0.95712">
        <ele>84.4</ele>
        <time>2023-07-06T07:10:25Z</time>
      </trkpt>
      <trkpt lat="44.09197" lon="0.95716">
        <ele>84.6</ele>
        <time>2023-07-06T07:10:29Z</time>
      </trkpt>
      <trkpt lat="44.09197" lon="0.95717">
        <ele>84.6</ele>
        <time>2023-07-06T07:10:30Z</time>
      </trkpt>
      <trkpt lat="44.09197" lon="0.95717">
        <ele>84.6</ele>
        <time>2023-07-06T07:10:31Z</time>
      </trkpt>
      <trkpt lat="44.09196" lon="0.95721">
        <ele>84.8</ele>
        <time>2023-07-06T07:10:34Z</time>
      </trkpt>
      <trkpt lat="44.09193" lon="0.95725">
        <ele>84.8</ele>
        <time>2023-07-06T07:10:39Z</time>
      </trkpt>
      <trkpt lat="44.09193" lon="0.95727">
        <ele>84.8</ele>
        <time>2023-07-06T07:10:41Z</time>
      </trkpt>
      <trkpt lat="44.09192" lon="0.95732">
        <ele>84.8</ele>
        <time>2023-07-06T07:10:45Z</time>
      </trkpt>
      <trkpt lat="44.09192" lon="0.95733">
        <ele>85</ele>
        <time>2023-07-06T07:10:46Z</time>
      </trkpt>
      <trkpt lat="44.0919" lon="0.95738">
        <ele>85.2</ele>
        <time>2023-07-06T07:10:50Z</time>
      </trkpt>
      <trkpt lat="44.0919" lon="0.95739">
        <ele>85.2</ele>
        <time>2023-07-06T07:10:51Z</time>
      </trkpt>
      <trkpt lat="44.09189" lon="0.95741">
        <ele>85.2</ele>
        <time>2023-07-06T07:10:53Z</time>
      </trkpt>
      <trkpt lat="44.09187" lon="0.95744">
        <ele>85.4</ele>
        <time>2023-07-06T07:10:57Z</time>
      </trkpt>
      <trkpt lat="44.09187" lon="0.95745">
        <ele>85.4</ele>
        <time>2023-07-06T07:10:59Z</time>
      </trkpt>
      <trkpt lat="44.09187" lon="0.95746">
        <ele>85.4</ele>
        <time>2023-07-06T07:11:00Z</time>
      </trkpt>
      <trkpt lat="44.09187" lon="0.95754">
        <ele>85.6</ele>
        <time>2023-07-06T07:11:07Z</time>
      </trkpt>
      <trkpt lat="44.09184" lon="0.95763">
        <ele>85.8</ele>
        <time>2023-07-06T07:11:15Z</time>
      </trkpt>
      <trkpt lat="44.09183" lon="0.95764">
        <ele>85.8</ele>
        <time>2023-07-06T07:11:16Z</time>
      </trkpt>
      <trkpt lat="44.09181" lon="0.95773">
        <ele>86.4</ele>
        <time>2023-07-06T07:11:24Z</time>
      </trkpt>
      <trkpt lat="44.09181" lon="0.95774">
        <ele>86.4</ele>
        <time>2023-07-06T07:11:25Z</time>
      </trkpt>
      <trkpt lat="44.09178" lon="0.95783">
        <ele>86.6</ele>
        <time>2023-07-06T07:11:34Z</time>
      </trkpt>
      <trkpt lat="44.09178" lon="0.95786">
        <ele>86.6</ele>
        <time>2023-07-06T07:11:38Z</time>
      </trkpt>
      <trkpt lat="44.09178" lon="0.9579">
        <ele>87</ele>
        <time>2023-07-06T07:11:40Z</time>
      </trkpt>
      <trkpt lat="44.09177" lon="0.95792">
        <ele>87</ele>
        <time>2023-07-06T07:11:42Z</time>
      </trkpt>
      <trkpt lat="44.09176" lon="0.95794">
        <ele>87</ele>
        <time>2023-07-06T07:11:44Z</time>
      </trkpt>
      <trkpt lat="44.09175" lon="0.95798">
        <ele>87</ele>
        <time>2023-07-06T07:11:47Z</time>
      </trkpt>
      <trkpt lat="44.09174" lon="0.958">
        <ele>87</ele>
        <time>2023-07-06T07:11:49Z</time>
      </trkpt>
      <trkpt lat="44.09174" lon="0.95802">
        <ele>87</ele>
        <time>2023-07-06T07:11:51Z</time>
      </trkpt>
      <trkpt lat="44.09173" lon="0.95806">
        <ele>86.8</ele>
        <time>2023-07-06T07:11:54Z</time>
      </trkpt>
      <trkpt lat="44.09169" lon="0.95817">
        <ele>87.2</ele>
        <time>2023-07-06T07:12:02Z</time>
      </trkpt>
      <trkpt lat="44.09166" lon="0.95823">
        <ele>87</ele>
        <time>2023-07-06T07:12:09Z</time>
      </trkpt>
      <trkpt lat="44.09166" lon="0.95824">
        <ele>87</ele>
        <time>2023-07-06T07:12:10Z</time>
      </trkpt>
      <trkpt lat="44.09166" lon="0.95825">
        <ele>87</ele>
        <time>2023-07-06T07:12:12Z</time>
      </trkpt>
      <trkpt lat="44.09165" lon="0.95828">
        <ele>87.4</ele>
        <time>2023-07-06T07:12:15Z</time>
      </trkpt>
      <trkpt lat="44.09165" lon="0.95829">
        <ele>87.4</ele>
        <time>2023-07-06T07:12:16Z</time>
      </trkpt>
      <trkpt lat="44.09165" lon="0.95833">
        <ele>87.4</ele>
        <time>2023-07-06T07:12:19Z</time>
      </trkpt>
      <trkpt lat="44.09163" lon="0.95838">
        <ele>87.4</ele>
        <time>2023-07-06T07:12:25Z</time>
      </trkpt>
      <trkpt lat="44.09163" lon="0.95841">
        <ele>87.6</ele>
        <time>2023-07-06T07:12:28Z</time>
      </trkpt>
      <trkpt lat="44.09162" lon="0.95845">
        <ele>87.8</ele>
        <time>2023-07-06T07:12:32Z</time>
      </trkpt>
      <trkpt lat="44.09161" lon="0.95849">
        <ele>87.8</ele>
        <time>2023-07-06T07:12:38Z</time>
      </trkpt>
      <trkpt lat="44.09161" lon="0.95849">
        <ele>88</ele>
        <time>2023-07-06T07:12:39Z</time>
      </trkpt>
      <trkpt lat="44.09161" lon="0.9585">
        <ele>88</ele>
        <time>2023-07-06T07:12:40Z</time>
      </trkpt>
      <trkpt lat="44.09158" lon="0.95854">
        <ele>87.8</ele>
        <time>2023-07-06T07:12:46Z</time>
      </trkpt>
      <trkpt lat="44.09154" lon="0.9586">
        <ele>88.6</ele>
        <time>2023-07-06T07:12:53Z</time>
      </trkpt>
      <trkpt lat="44.09153" lon="0.95865">
        <ele>88.6</ele>
        <time>2023-07-06T07:12:59Z</time>
      </trkpt>
      <trkpt lat="44.09152" lon="0.95867">
        <ele>88.6</ele>
        <time>2023-07-06T07:13:01Z</time>
      </trkpt>
      <trkpt lat="44.09152" lon="0.9587">
        <ele>88.6</ele>
        <time>2023-07-06T07:13:04Z</time>
      </trkpt>
      <trkpt lat="44.09151" lon="0.95873">
        <ele>88.4</ele>
        <time>2023-07-06T07:13:08Z</time>
      </trkpt>
      <trkpt lat="44.09152" lon="0.95883">
        <ele>88.2</ele>
        <time>2023-07-06T07:13:15Z</time>
      </trkpt>
      <trkpt lat="44.09151" lon="0.95887">
        <ele>88.6</ele>
        <time>2023-07-06T07:13:18Z</time>
      </trkpt>
      <trkpt lat="44.0915" lon="0.95891">
        <ele>88.6</ele>
        <time>2023-07-06T07:13:22Z</time>
      </trkpt>
      <trkpt lat="44.09149" lon="0.95892">
        <ele>88.8</ele>
        <time>2023-07-06T07:13:23Z</time>
      </trkpt>
      <trkpt lat="44.09147" lon="0.95901">
        <ele>88.6</ele>
        <time>2023-07-06T07:13:30Z</time>
      </trkpt>
      <trkpt lat="44.09146" lon="0.95902">
        <ele>88.6</ele>
        <time>2023-07-06T07:13:31Z</time>
      </trkpt>
      <trkpt lat="44.09146" lon="0.95905">
        <ele>88.6</ele>
        <time>2023-07-06T07:13:33Z</time>
      </trkpt>
      <trkpt lat="44.09145" lon="0.95908">
        <ele>88.6</ele>
        <time>2023-07-06T07:13:35Z</time>
      </trkpt>
      <trkpt lat="44.09144" lon="0.9591">
        <ele>88.6</ele>
        <time>2023-07-06T07:13:37Z</time>
      </trkpt>
      <trkpt lat="44.09143" lon="0.95916">
        <ele>88.4</ele>
        <time>2023-07-06T07:13:40Z</time>
      </trkpt>
      <trkpt lat="44.09144" lon="0.95917">
        <ele>88.4</ele>
        <time>2023-07-06T07:13:41Z</time>
      </trkpt>
      <trkpt lat="44.09143" lon="0.95922">
        <ele>88.2</ele>
        <time>2023-07-06T07:13:45Z</time>
      </trkpt>
      <trkpt lat="44.09142" lon="0.95924">
        <ele>88.2</ele>
        <time>2023-07-06T07:13:47Z</time>
      </trkpt>
      <trkpt lat="44.09141" lon="0.95926">
        <ele>88.2</ele>
        <time>2023-07-06T07:13:51Z</time>
      </trkpt>
      <trkpt lat="44.09141" lon="0.95927">
        <ele>88</ele>
        <time>2023-07-06T07:13:52Z</time>
      </trkpt>
      <trkpt lat="44.0914" lon="0.9593">
        <ele>88</ele>
        <time>2023-07-06T07:13:54Z</time>
      </trkpt>
      <trkpt lat="44.09138" lon="0.9594">
        <ele>88.2</ele>
        <time>2023-07-06T07:14:01Z</time>
      </trkpt>
      <trkpt lat="44.09137" lon="0.95945">
        <ele>88</ele>
        <time>2023-07-06T07:14:04Z</time>
      </trkpt>
      <trkpt lat="44.09134" lon="0.95949">
        <ele>87.8</ele>
        <time>2023-07-06T07:14:08Z</time>
      </trkpt>
      <trkpt lat="44.09133" lon="0.95951">
        <ele>87.6</ele>
        <time>2023-07-06T07:14:09Z</time>
      </trkpt>
      <trkpt lat="44.09133" lon="0.95954">
        <ele>87.6</ele>
        <time>2023-07-06T07:14:11Z</time>
      </trkpt>
      <trkpt lat="44.09132" lon="0.95959">
        <ele>87.4</ele>
        <time>2023-07-06T07:14:15Z</time>
      </trkpt>
      <trkpt lat="44.09131" lon="0.9596">
        <ele>87.4</ele>
        <time>2023-07-06T07:14:16Z</time>
      </trkpt>
      <trkpt lat="44.09131" lon="0.95961">
        <ele>87.2</ele>
        <time>2023-07-06T07:14:18Z</time>
      </trkpt>
      <trkpt lat="44.0913" lon="0.95964">
        <ele>87.2</ele>
        <time>2023-07-06T07:14:20Z</time>
      </trkpt>
      <trkpt lat="44.09128" lon="0.95968">
        <ele>87.2</ele>
        <time>2023-07-06T07:14:23Z</time>
      </trkpt>
      <trkpt lat="44.09127" lon="0.95969">
        <ele>87.2</ele>
        <time>2023-07-06T07:14:24Z</time>
      </trkpt>
      <trkpt lat="44.09127" lon="0.95972">
        <ele>87.6</ele>
        <time>2023-07-06T07:14:26Z</time>
      </trkpt>
      <trkpt lat="44.09127" lon="0.95974">
        <ele>87.6</ele>
        <time>2023-07-06T07:14:28Z</time>
      </trkpt>
      <trkpt lat="44.09126" lon="0.95977">
        <ele>87.4</ele>
        <time>2023-07-06T07:14:31Z</time>
      </trkpt>
      <trkpt lat="44.09126" lon="0.95979">
        <ele>87.4</ele>
        <time>2023-07-06T07:14:32Z</time>
      </trkpt>
      <trkpt lat="44.09125" lon="0.9598">
        <ele>87.4</ele>
        <time>2023-07-06T07:14:33Z</time>
      </trkpt>
      <trkpt lat="44.09124" lon="0.95982">
        <ele>87.4</ele>
        <time>2023-07-06T07:14:35Z</time>
      </trkpt>
      <trkpt lat="44.09122" lon="0.95987">
        <ele>87.2</ele>
        <time>2023-07-06T07:14:39Z</time>
      </trkpt>
      <trkpt lat="44.09121" lon="0.9599">
        <ele>87.2</ele>
        <time>2023-07-06T07:14:41Z</time>
      </trkpt>
      <trkpt lat="44.0912" lon="0.95993">
        <ele>87.4</ele>
        <time>2023-07-06T07:14:44Z</time>
      </trkpt>
      <trkpt lat="44.09119" lon="0.95998">
        <ele>87</ele>
        <time>2023-07-06T07:14:47Z</time>
      </trkpt>
      <trkpt lat="44.09119" lon="0.95999">
        <ele>87</ele>
        <time>2023-07-06T07:14:48Z</time>
      </trkpt>
      <trkpt lat="44.09118" lon="0.96005">
        <ele>87.4</ele>
        <time>2023-07-06T07:14:54Z</time>
      </trkpt>
      <trkpt lat="44.09117" lon="0.96009">
        <ele>87.2</ele>
        <time>2023-07-06T07:14:56Z</time>
      </trkpt>
      <trkpt lat="44.09115" lon="0.96015">
        <ele>87</ele>
        <time>2023-07-06T07:15:00Z</time>
      </trkpt>
      <trkpt lat="44.09113" lon="0.9602">
        <ele>86.8</ele>
        <time>2023-07-06T07:15:04Z</time>
      </trkpt>
      <trkpt lat="44.09113" lon="0.96022">
        <ele>86.8</ele>
        <time>2023-07-06T07:15:05Z</time>
      </trkpt>
      <trkpt lat="44.09111" lon="0.96024">
        <ele>86.8</ele>
        <time>2023-07-06T07:15:07Z</time>
      </trkpt>
      <trkpt lat="44.0911" lon="0.96028">
        <ele>86.8</ele>
        <time>2023-07-06T07:15:11Z</time>
      </trkpt>
      <trkpt lat="44.0911" lon="0.9603">
        <ele>86.6</ele>
        <time>2023-07-06T07:15:12Z</time>
      </trkpt>
      <trkpt lat="44.0911" lon="0.96033">
        <ele>86.4</ele>
        <time>2023-07-06T07:15:14Z</time>
      </trkpt>
      <trkpt lat="44.09109" lon="0.96038">
        <ele>86.4</ele>
        <time>2023-07-06T07:15:18Z</time>
      </trkpt>
      <trkpt lat="44.09108" lon="0.96041">
        <ele>86.4</ele>
        <time>2023-07-06T07:15:21Z</time>
      </trkpt>
      <trkpt lat="44.09107" lon="0.96042">
        <ele>86.4</ele>
        <time>2023-07-06T07:15:22Z</time>
      </trkpt>
      <trkpt lat="44.09106" lon="0.96046">
        <ele>86.4</ele>
        <time>2023-07-06T07:15:26Z</time>
      </trkpt>
      <trkpt lat="44.09105" lon="0.96049">
        <ele>86</ele>
        <time>2023-07-06T07:15:29Z</time>
      </trkpt>
      <trkpt lat="44.09104" lon="0.96051">
        <ele>86</ele>
        <time>2023-07-06T07:15:31Z</time>
      </trkpt>
      <trkpt lat="44.09104" lon="0.96052">
        <ele>86.2</ele>
        <time>2023-07-06T07:15:32Z</time>
      </trkpt>
      <trkpt lat="44.09103" lon="0.96055">
        <ele>86.2</ele>
        <time>2023-07-06T07:15:34Z</time>
      </trkpt>
      <trkpt lat="44.09101" lon="0.9606">
        <ele>86.2</ele>
        <time>2023-07-06T07:15:37Z</time>
      </trkpt>
      <trkpt lat="44.09101" lon="0.96061">
        <ele>86.2</ele>
        <time>2023-07-06T07:15:38Z</time>
      </trkpt>
      <trkpt lat="44.091" lon="0.96066">
        <ele>86.2</ele>
        <time>2023-07-06T07:15:42Z</time>
      </trkpt>
      <trkpt lat="44.091" lon="0.96069">
        <ele>86.2</ele>
        <time>2023-07-06T07:15:44Z</time>
      </trkpt>
      <trkpt lat="44.09099" lon="0.9607">
        <ele>86.2</ele>
        <time>2023-07-06T07:15:45Z</time>
      </trkpt>
      <trkpt lat="44.09096" lon="0.96083">
        <ele>86.2</ele>
        <time>2023-07-06T07:15:54Z</time>
      </trkpt>
      <trkpt lat="44.09095" lon="0.96086">
        <ele>86.2</ele>
        <time>2023-07-06T07:15:56Z</time>
      </trkpt>
      <trkpt lat="44.09095" lon="0.96088">
        <ele>86.2</ele>
        <time>2023-07-06T07:15:57Z</time>
      </trkpt>
      <trkpt lat="44.09095" lon="0.96088">
        <ele>86</ele>
        <time>2023-07-06T07:15:58Z</time>
      </trkpt>
      <trkpt lat="44.09095" lon="0.9609">
        <ele>86</ele>
        <time>2023-07-06T07:16:00Z</time>
      </trkpt>
      <trkpt lat="44.09094" lon="0.96092">
        <ele>86</ele>
        <time>2023-07-06T07:16:01Z</time>
      </trkpt>
      <trkpt lat="44.09092" lon="0.96098">
        <ele>85.8</ele>
        <time>2023-07-06T07:16:07Z</time>
      </trkpt>
      <trkpt lat="44.09092" lon="0.96099">
        <ele>86</ele>
        <time>2023-07-06T07:16:09Z</time>
      </trkpt>
      <trkpt lat="44.09089" lon="0.96102">
        <ele>86.2</ele>
        <time>2023-07-06T07:16:13Z</time>
      </trkpt>
      <trkpt lat="44.09088" lon="0.96103">
        <ele>86.2</ele>
        <time>2023-07-06T07:16:14Z</time>
      </trkpt>
      <trkpt lat="44.09088" lon="0.96105">
        <ele>86.2</ele>
        <time>2023-07-06T07:16:15Z</time>
      </trkpt>
      <trkpt lat="44.09085" lon="0.96114">
        <ele>86.2</ele>
        <time>2023-07-06T07:16:21Z</time>
      </trkpt>
      <trkpt lat="44.09082" lon="0.96121">
        <ele>86</ele>
        <time>2023-07-06T07:16:26Z</time>
      </trkpt>
      <trkpt lat="44.09082" lon="0.96123">
        <ele>85.6</ele>
        <time>2023-07-06T07:16:28Z</time>
      </trkpt>
      <trkpt lat="44.09079" lon="0.96137">
        <ele>86</ele>
        <time>2023-07-06T07:16:36Z</time>
      </trkpt>
      <trkpt lat="44.09078" lon="0.96139">
        <ele>85.8</ele>
        <time>2023-07-06T07:16:38Z</time>
      </trkpt>
      <trkpt lat="44.09078" lon="0.96143">
        <ele>85.8</ele>
        <time>2023-07-06T07:16:41Z</time>
      </trkpt>
      <trkpt lat="44.09077" lon="0.96148">
        <ele>86</ele>
        <time>2023-07-06T07:16:44Z</time>
      </trkpt>
      <trkpt lat="44.09076" lon="0.96149">
        <ele>86</ele>
        <time>2023-07-06T07:16:45Z</time>
      </trkpt>
      <trkpt lat="44.09073" lon="0.96153">
        <ele>86</ele>
        <time>2023-07-06T07:16:48Z</time>
      </trkpt>
      <trkpt lat="44.09073" lon="0.96155">
        <ele>85.8</ele>
        <time>2023-07-06T07:16:50Z</time>
      </trkpt>
      <trkpt lat="44.09072" lon="0.96157">
        <ele>85.8</ele>
        <time>2023-07-06T07:16:51Z</time>
      </trkpt>
      <trkpt lat="44.09071" lon="0.96163">
        <ele>85.8</ele>
        <time>2023-07-06T07:16:56Z</time>
      </trkpt>
      <trkpt lat="44.09071" lon="0.96164">
        <ele>85.8</ele>
        <time>2023-07-06T07:16:57Z</time>
      </trkpt>
      <trkpt lat="44.0907" lon="0.96166">
        <ele>85.8</ele>
        <time>2023-07-06T07:16:59Z</time>
      </trkpt>
      <trkpt lat="44.09069" lon="0.96168">
        <ele>85.8</ele>
        <time>2023-07-06T07:17:01Z</time>
      </trkpt>
      <trkpt lat="44.09069" lon="0.96171">
        <ele>85.8</ele>
        <time>2023-07-06T07:17:04Z</time>
      </trkpt>
      <trkpt lat="44.09069" lon="0.96172">
        <ele>85.8</ele>
        <time>2023-07-06T07:17:05Z</time>
      </trkpt>
      <trkpt lat="44.09068" lon="0.96175">
        <ele>85.6</ele>
        <time>2023-07-06T07:17:08Z</time>
      </trkpt>
      <trkpt lat="44.09068" lon="0.96178">
        <ele>85.6</ele>
        <time>2023-07-06T07:17:10Z</time>
      </trkpt>
      <trkpt lat="44.09068" lon="0.96179">
        <ele>85.6</ele>
        <time>2023-07-06T07:17:11Z</time>
      </trkpt>
      <trkpt lat="44.09068" lon="0.96179">
        <ele>85.8</ele>
        <time>2023-07-06T07:17:12Z</time>
      </trkpt>
      <trkpt lat="44.09066" lon="0.96185">
        <ele>85.6</ele>
        <time>2023-07-06T07:17:19Z</time>
      </trkpt>
      <trkpt lat="44.09065" lon="0.96188">
        <ele>85.6</ele>
        <time>2023-07-06T07:17:22Z</time>
      </trkpt>
      <trkpt lat="44.09065" lon="0.96191">
        <ele>85.4</ele>
        <time>2023-07-06T07:17:25Z</time>
      </trkpt>
      <trkpt lat="44.09064" lon="0.96191">
        <ele>85.4</ele>
        <time>2023-07-06T07:17:26Z</time>
      </trkpt>
      <trkpt lat="44.09063" lon="0.96196">
        <ele>85.6</ele>
        <time>2023-07-06T07:17:29Z</time>
      </trkpt>
      <trkpt lat="44.09063" lon="0.96197">
        <ele>85.6</ele>
        <time>2023-07-06T07:17:30Z</time>
      </trkpt>
      <trkpt lat="44.09062" lon="0.962">
        <ele>85.4</ele>
        <time>2023-07-06T07:17:31Z</time>
      </trkpt>
      <trkpt lat="44.09061" lon="0.96202">
        <ele>85.2</ele>
        <time>2023-07-06T07:17:33Z</time>
      </trkpt>
      <trkpt lat="44.0906" lon="0.96203">
        <ele>85.2</ele>
        <time>2023-07-06T07:17:34Z</time>
      </trkpt>
      <trkpt lat="44.09059" lon="0.96207">
        <ele>85.4</ele>
        <time>2023-07-06T07:17:37Z</time>
      </trkpt>
      <trkpt lat="44.09057" lon="0.96212">
        <ele>85.4</ele>
        <time>2023-07-06T07:17:41Z</time>
      </trkpt>
      <trkpt lat="44.09057" lon="0.96214">
        <ele>85.2</ele>
        <time>2023-07-06T07:17:42Z</time>
      </trkpt>
      <trkpt lat="44.09054" lon="0.9622">
        <ele>85.2</ele>
        <time>2023-07-06T07:17:47Z</time>
      </trkpt>
      <trkpt lat="44.09052" lon="0.96229">
        <ele>84.8</ele>
        <time>2023-07-06T07:17:51Z</time>
      </trkpt>
      <trkpt lat="44.09052" lon="0.96233">
        <ele>84.8</ele>
        <time>2023-07-06T07:17:54Z</time>
      </trkpt>
      <trkpt lat="44.09052" lon="0.96234">
        <ele>85</ele>
        <time>2023-07-06T07:17:56Z</time>
      </trkpt>
      <trkpt lat="44.0905" lon="0.96238">
        <ele>85</ele>
        <time>2023-07-06T07:17:59Z</time>
      </trkpt>
      <trkpt lat="44.09049" lon="0.96239">
        <ele>85</ele>
        <time>2023-07-06T07:18:00Z</time>
      </trkpt>
      <trkpt lat="44.09048" lon="0.96241">
        <ele>85</ele>
        <time>2023-07-06T07:18:03Z</time>
      </trkpt>
      <trkpt lat="44.09047" lon="0.96243">
        <ele>85</ele>
        <time>2023-07-06T07:18:06Z</time>
      </trkpt>
      <trkpt lat="44.09047" lon="0.96244">
        <ele>85</ele>
        <time>2023-07-06T07:18:07Z</time>
      </trkpt>
      <trkpt lat="44.09046" lon="0.96245">
        <ele>85</ele>
        <time>2023-07-06T07:18:08Z</time>
      </trkpt>
      <trkpt lat="44.09045" lon="0.96246">
        <ele>85</ele>
        <time>2023-07-06T07:18:10Z</time>
      </trkpt>
      <trkpt lat="44.09045" lon="0.96251">
        <ele>84.8</ele>
        <time>2023-07-06T07:18:15Z</time>
      </trkpt>
      <trkpt lat="44.09044" lon="0.96253">
        <ele>84.8</ele>
        <time>2023-07-06T07:18:17Z</time>
      </trkpt>
      <trkpt lat="44.09044" lon="0.96256">
        <ele>85</ele>
        <time>2023-07-06T07:18:19Z</time>
      </trkpt>
      <trkpt lat="44.09042" lon="0.96259">
        <ele>85</ele>
        <time>2023-07-06T07:18:22Z</time>
      </trkpt>
      <trkpt lat="44.09041" lon="0.96266">
        <ele>84.8</ele>
        <time>2023-07-06T07:18:27Z</time>
      </trkpt>
      <trkpt lat="44.09041" lon="0.9627">
        <ele>84.8</ele>
        <time>2023-07-06T07:18:30Z</time>
      </trkpt>
      <trkpt lat="44.09041" lon="0.96271">
        <ele>84.8</ele>
        <time>2023-07-06T07:18:31Z</time>
      </trkpt>
      <trkpt lat="44.09039" lon="0.96274">
        <ele>84.6</ele>
        <time>2023-07-06T07:18:33Z</time>
      </trkpt>
      <trkpt lat="44.09039" lon="0.96276">
        <ele>84.4</ele>
        <time>2023-07-06T07:18:34Z</time>
      </trkpt>
      <trkpt lat="44.09037" lon="0.96281">
        <ele>84.4</ele>
        <time>2023-07-06T07:18:37Z</time>
      </trkpt>
      <trkpt lat="44.09037" lon="0.96283">
        <ele>84.4</ele>
        <time>2023-07-06T07:18:38Z</time>
      </trkpt>
      <trkpt lat="44.09037" lon="0.96284">
        <ele>84.4</ele>
        <time>2023-07-06T07:18:39Z</time>
      </trkpt>
      <trkpt lat="44.09034" lon="0.96288">
        <ele>84.4</ele>
        <time>2023-07-06T07:18:43Z</time>
      </trkpt>
      <trkpt lat="44.09034" lon="0.96289">
        <ele>84.4</ele>
        <time>2023-07-06T07:18:44Z</time>
      </trkpt>
      <trkpt lat="44.09033" lon="0.9629">
        <ele>84.4</ele>
        <time>2023-07-06T07:18:45Z</time>
      </trkpt>
      <trkpt lat="44.09032" lon="0.96294">
        <ele>84.6</ele>
        <time>2023-07-06T07:18:47Z</time>
      </trkpt>
      <trkpt lat="44.09031" lon="0.96301">
        <ele>84.4</ele>
        <time>2023-07-06T07:18:51Z</time>
      </trkpt>
      <trkpt lat="44.0903" lon="0.96307">
        <ele>84.4</ele>
        <time>2023-07-06T07:18:57Z</time>
      </trkpt>
      <trkpt lat="44.0903" lon="0.96309">
        <ele>84.4</ele>
        <time>2023-07-06T07:18:59Z</time>
      </trkpt>
      <trkpt lat="44.0903" lon="0.9631">
        <ele>84.4</ele>
        <time>2023-07-06T07:19:00Z</time>
      </trkpt>
      <trkpt lat="44.09029" lon="0.96312">
        <ele>84.6</ele>
        <time>2023-07-06T07:19:02Z</time>
      </trkpt>
      <trkpt lat="44.09029" lon="0.96314">
        <ele>84.6</ele>
        <time>2023-07-06T07:19:03Z</time>
      </trkpt>
      <trkpt lat="44.0903" lon="0.96315">
        <ele>84.6</ele>
        <time>2023-07-06T07:19:04Z</time>
      </trkpt>
      <trkpt lat="44.0903" lon="0.96318">
        <ele>84.6</ele>
        <time>2023-07-06T07:19:06Z</time>
      </trkpt>
      <trkpt lat="44.0903" lon="0.96319">
        <ele>84.4</ele>
        <time>2023-07-06T07:19:07Z</time>
      </trkpt>
      <trkpt lat="44.0903" lon="0.96321">
        <ele>84.4</ele>
        <time>2023-07-06T07:19:09Z</time>
      </trkpt>
      <trkpt lat="44.0903" lon="0.96322">
        <ele>84.4</ele>
        <time>2023-07-06T07:19:10Z</time>
      </trkpt>
      <trkpt lat="44.0903" lon="0.96325">
        <ele>84.4</ele>
        <time>2023-07-06T07:19:12Z</time>
      </trkpt>
      <trkpt lat="44.09029" lon="0.96328">
        <ele>84.4</ele>
        <time>2023-07-06T07:19:15Z</time>
      </trkpt>
      <trkpt lat="44.09028" lon="0.9633">
        <ele>84.4</ele>
        <time>2023-07-06T07:19:17Z</time>
      </trkpt>
      <trkpt lat="44.09028" lon="0.96336">
        <ele>84.2</ele>
        <time>2023-07-06T07:19:21Z</time>
      </trkpt>
      <trkpt lat="44.09029" lon="0.96336">
        <ele>84.2</ele>
        <time>2023-07-06T07:19:22Z</time>
      </trkpt>
      <trkpt lat="44.09029" lon="0.96338">
        <ele>84</ele>
        <time>2023-07-06T07:19:24Z</time>
      </trkpt>
      <trkpt lat="44.09029" lon="0.96343">
        <ele>83.8</ele>
        <time>2023-07-06T07:19:28Z</time>
      </trkpt>
      <trkpt lat="44.09028" lon="0.96346">
        <ele>83.8</ele>
        <time>2023-07-06T07:19:30Z</time>
      </trkpt>
      <trkpt lat="44.09026" lon="0.96348">
        <ele>84</ele>
        <time>2023-07-06T07:19:32Z</time>
      </trkpt>
      <trkpt lat="44.09026" lon="0.9635">
        <ele>84</ele>
        <time>2023-07-06T07:19:34Z</time>
      </trkpt>
      <trkpt lat="44.09023" lon="0.96355">
        <ele>83.8</ele>
        <time>2023-07-06T07:19:40Z</time>
      </trkpt>
      <trkpt lat="44.09024" lon="0.96358">
        <ele>83.8</ele>
        <time>2023-07-06T07:19:41Z</time>
      </trkpt>
      <trkpt lat="44.09024" lon="0.96358">
        <ele>83.8</ele>
        <time>2023-07-06T07:19:42Z</time>
      </trkpt>
      <trkpt lat="44.09024" lon="0.96359">
        <ele>83.8</ele>
        <time>2023-07-06T07:19:44Z</time>
      </trkpt>
      <trkpt lat="44.09024" lon="0.96362">
        <ele>83.6</ele>
        <time>2023-07-06T07:19:46Z</time>
      </trkpt>
      <trkpt lat="44.09025" lon="0.96364">
        <ele>83.4</ele>
        <time>2023-07-06T07:19:47Z</time>
      </trkpt>
      <trkpt lat="44.09026" lon="0.96365">
        <ele>83.4</ele>
        <time>2023-07-06T07:19:48Z</time>
      </trkpt>
      <trkpt lat="44.09027" lon="0.96367">
        <ele>83.2</ele>
        <time>2023-07-06T07:19:50Z</time>
      </trkpt>
      <trkpt lat="44.09029" lon="0.96367">
        <ele>83</ele>
        <time>2023-07-06T07:19:52Z</time>
      </trkpt>
      <trkpt lat="44.09029" lon="0.96368">
        <ele>83</ele>
        <time>2023-07-06T07:19:53Z</time>
      </trkpt>
      <trkpt lat="44.09031" lon="0.96365">
        <ele>82.8</ele>
        <time>2023-07-06T07:19:57Z</time>
      </trkpt>
      <trkpt lat="44.09031" lon="0.96364">
        <ele>82.8</ele>
        <time>2023-07-06T07:20:01Z</time>
      </trkpt>
      <trkpt lat="44.09036" lon="0.96364">
        <ele>82.8</ele>
        <time>2023-07-06T07:20:07Z</time>
      </trkpt>
      <trkpt lat="44.09043" lon="0.96368">
        <ele>82.8</ele>
        <time>2023-07-06T07:20:13Z</time>
      </trkpt>
      <trkpt lat="44.09045" lon="0.96369">
        <ele>82.8</ele>
        <time>2023-07-06T07:20:15Z</time>
      </trkpt>
      <trkpt lat="44.09045" lon="0.9637">
        <ele>82.8</ele>
        <time>2023-07-06T07:20:16Z</time>
      </trkpt>
      <trkpt lat="44.09045" lon="0.9637">
        <ele>82.8</ele>
        <time>2023-07-06T07:20:19Z</time>
      </trkpt>
      <trkpt lat="44.09044" lon="0.9637">
        <ele>82.8</ele>
        <time>2023-07-06T07:20:22Z</time>
      </trkpt>
      <trkpt lat="44.09044" lon="0.9637">
        <ele>82.8</ele>
        <time>2023-07-06T07:20:23Z</time>
      </trkpt>
      <trkpt lat="44.09045" lon="0.96366">
        <ele>82.6</ele>
        <time>2023-07-06T07:20:26Z</time>
      </trkpt>
      <trkpt lat="44.09045" lon="0.96358">
        <ele>82.6</ele>
        <time>2023-07-06T07:20:30Z</time>
      </trkpt>
      <trkpt lat="44.09046" lon="0.96351">
        <ele>82.6</ele>
        <time>2023-07-06T07:20:36Z</time>
      </trkpt>
      <trkpt lat="44.09046" lon="0.96351">
        <ele>82.6</ele>
        <time>2023-07-06T07:20:37Z</time>
      </trkpt>
      <trkpt lat="44.09046" lon="0.96351">
        <ele>82.6</ele>
        <time>2023-07-06T07:20:39Z</time>
      </trkpt>
      <trkpt lat="44.09049" lon="0.96346">
        <ele>82.8</ele>
        <time>2023-07-06T07:20:43Z</time>
      </trkpt>
      <trkpt lat="44.0905" lon="0.96342">
        <ele>82.8</ele>
        <time>2023-07-06T07:20:46Z</time>
      </trkpt>
      <trkpt lat="44.09051" lon="0.96338">
        <ele>82.8</ele>
        <time>2023-07-06T07:20:49Z</time>
      </trkpt>
      <trkpt lat="44.09052" lon="0.96329">
        <ele>82.8</ele>
        <time>2023-07-06T07:20:56Z</time>
      </trkpt>
      <trkpt lat="44.09054" lon="0.96323">
        <ele>82.8</ele>
        <time>2023-07-06T07:21:01Z</time>
      </trkpt>
      <trkpt lat="44.09055" lon="0.96322">
        <ele>83</ele>
        <time>2023-07-06T07:21:02Z</time>
      </trkpt>
      <trkpt lat="44.09057" lon="0.96318">
        <ele>82.8</ele>
        <time>2023-07-06T07:21:05Z</time>
      </trkpt>
      <trkpt lat="44.09058" lon="0.96303">
        <ele>83</ele>
        <time>2023-07-06T07:21:13Z</time>
      </trkpt>
      <trkpt lat="44.09062" lon="0.96292">
        <ele>82.6</ele>
        <time>2023-07-06T07:21:22Z</time>
      </trkpt>
      <trkpt lat="44.09065" lon="0.96284">
        <ele>83</ele>
        <time>2023-07-06T07:21:28Z</time>
      </trkpt>
      <trkpt lat="44.09065" lon="0.96282">
        <ele>83</ele>
        <time>2023-07-06T07:21:29Z</time>
      </trkpt>
      <trkpt lat="44.09067" lon="0.96277">
        <ele>83</ele>
        <time>2023-07-06T07:21:33Z</time>
      </trkpt>
      <trkpt lat="44.09068" lon="0.96273">
        <ele>83</ele>
        <time>2023-07-06T07:21:37Z</time>
      </trkpt>
      <trkpt lat="44.09071" lon="0.96265">
        <ele>82.8</ele>
        <time>2023-07-06T07:21:44Z</time>
      </trkpt>
      <trkpt lat="44.09071" lon="0.96265">
        <ele>82.8</ele>
        <time>2023-07-06T07:21:45Z</time>
      </trkpt>
      <trkpt lat="44.09072" lon="0.96263">
        <ele>83</ele>
        <time>2023-07-06T07:21:54Z</time>
      </trkpt>
      <trkpt lat="44.09072" lon="0.96263">
        <ele>83</ele>
        <time>2023-07-06T07:21:56Z</time>
      </trkpt>
      <trkpt lat="44.09073" lon="0.96263">
        <ele>83</ele>
        <time>2023-07-06T07:21:57Z</time>
      </trkpt>
      <trkpt lat="44.09073" lon="0.96263">
        <ele>82.6</ele>
        <time>2023-07-06T07:22:03Z</time>
      </trkpt>
      <trkpt lat="44.09073" lon="0.96263">
        <ele>82.6</ele>
        <time>2023-07-06T07:22:05Z</time>
      </trkpt>
      <trkpt lat="44.09073" lon="0.96265">
        <ele>82.6</ele>
        <time>2023-07-06T07:22:12Z</time>
      </trkpt>
      <trkpt lat="44.09073" lon="0.96266">
        <ele>82.6</ele>
        <time>2023-07-06T07:22:15Z</time>
      </trkpt>
      <trkpt lat="44.09074" lon="0.96266">
        <ele>82.6</ele>
        <time>2023-07-06T07:22:19Z</time>
      </trkpt>
      <trkpt lat="44.09077" lon="0.96267">
        <ele>82.6</ele>
        <time>2023-07-06T07:22:25Z</time>
      </trkpt>
      <trkpt lat="44.09077" lon="0.96266">
        <ele>82.6</ele>
        <time>2023-07-06T07:22:27Z</time>
      </trkpt>
      <trkpt lat="44.09078" lon="0.96264">
        <ele>82.6</ele>
        <time>2023-07-06T07:22:31Z</time>
      </trkpt>
      <trkpt lat="44.09074" lon="0.9626">
        <ele>82.6</ele>
        <time>2023-07-06T07:22:38Z</time>
      </trkpt>
      <trkpt lat="44.09075" lon="0.96253">
        <ele>82.6</ele>
        <time>2023-07-06T07:22:44Z</time>
      </trkpt>
      <trkpt lat="44.09075" lon="0.96252">
        <ele>82.6</ele>
        <time>2023-07-06T07:22:45Z</time>
      </trkpt>
      <trkpt lat="44.09075" lon="0.96251">
        <ele>82.6</ele>
        <time>2023-07-06T07:22:46Z</time>
      </trkpt>
      <trkpt lat="44.09075" lon="0.9625">
        <ele>82.6</ele>
        <time>2023-07-06T07:22:47Z</time>
      </trkpt>
      <trkpt lat="44.09075" lon="0.96249">
        <ele>82.8</ele>
        <time>2023-07-06T07:22:48Z</time>
      </trkpt>
      <trkpt lat="44.09075" lon="0.96246">
        <ele>83</ele>
        <time>2023-07-06T07:22:50Z</time>
      </trkpt>
      <trkpt lat="44.09076" lon="0.96245">
        <ele>83</ele>
        <time>2023-07-06T07:22:51Z</time>
      </trkpt>
      <trkpt lat="44.09077" lon="0.96243">
        <ele>83.2</ele>
        <time>2023-07-06T07:22:54Z</time>
      </trkpt>
      <trkpt lat="44.09077" lon="0.96242">
        <ele>83.2</ele>
        <time>2023-07-06T07:22:55Z</time>
      </trkpt>
      <trkpt lat="44.09077" lon="0.96241">
        <ele>83.2</ele>
        <time>2023-07-06T07:22:56Z</time>
      </trkpt>
      <trkpt lat="44.09078" lon="0.96242">
        <ele>83</ele>
        <time>2023-07-06T07:22:57Z</time>
      </trkpt>
      <trkpt lat="44.09078" lon="0.96242">
        <ele>83.2</ele>
        <time>2023-07-06T07:22:58Z</time>
      </trkpt>
      <trkpt lat="44.09079" lon="0.96236">
        <ele>83.2</ele>
        <time>2023-07-06T07:23:05Z</time>
      </trkpt>
      <trkpt lat="44.09081" lon="0.96224">
        <ele>83</ele>
        <time>2023-07-06T07:23:12Z</time>
      </trkpt>
      <trkpt lat="44.09083" lon="0.96216">
        <ele>83.2</ele>
        <time>2023-07-06T07:23:17Z</time>
      </trkpt>
      <trkpt lat="44.09085" lon="0.9621">
        <ele>83</ele>
        <time>2023-07-06T07:23:21Z</time>
      </trkpt>
      <trkpt lat="44.09085" lon="0.96208">
        <ele>83</ele>
        <time>2023-07-06T07:23:23Z</time>
      </trkpt>
      <trkpt lat="44.09087" lon="0.96201">
        <ele>83</ele>
        <time>2023-07-06T07:23:27Z</time>
      </trkpt>
      <trkpt lat="44.09087" lon="0.96199">
        <ele>83</ele>
        <time>2023-07-06T07:23:28Z</time>
      </trkpt>
      <trkpt lat="44.09088" lon="0.96198">
        <ele>83</ele>
        <time>2023-07-06T07:23:29Z</time>
      </trkpt>
      <trkpt lat="44.09089" lon="0.96196">
        <ele>83.2</ele>
        <time>2023-07-06T07:23:31Z</time>
      </trkpt>
      <trkpt lat="44.09089" lon="0.96194">
        <ele>83.2</ele>
        <time>2023-07-06T07:23:33Z</time>
      </trkpt>
      <trkpt lat="44.09089" lon="0.96192">
        <ele>83.2</ele>
        <time>2023-07-06T07:23:34Z</time>
      </trkpt>
      <trkpt lat="44.09089" lon="0.9619">
        <ele>83.2</ele>
        <time>2023-07-06T07:23:36Z</time>
      </trkpt>
      <trkpt lat="44.0909" lon="0.96188">
        <ele>83</ele>
        <time>2023-07-06T07:23:38Z</time>
      </trkpt>
      <trkpt lat="44.0909" lon="0.96187">
        <ele>83.2</ele>
        <time>2023-07-06T07:23:39Z</time>
      </trkpt>
      <trkpt lat="44.0909" lon="0.96186">
        <ele>83</ele>
        <time>2023-07-06T07:23:42Z</time>
      </trkpt>
      <trkpt lat="44.0909" lon="0.96185">
        <ele>82.8</ele>
        <time>2023-07-06T07:23:45Z</time>
      </trkpt>
      <trkpt lat="44.09088" lon="0.96188">
        <ele>83</ele>
        <time>2023-07-06T07:23:52Z</time>
      </trkpt>
      <trkpt lat="44.09088" lon="0.96188">
        <ele>83.2</ele>
        <time>2023-07-06T07:23:57Z</time>
      </trkpt>
      <trkpt lat="44.09089" lon="0.96186">
        <ele>83.6</ele>
        <time>2023-07-06T07:24:02Z</time>
      </trkpt>
      <trkpt lat="44.09092" lon="0.96179">
        <ele>83.6</ele>
        <time>2023-07-06T07:24:08Z</time>
      </trkpt>
      <trkpt lat="44.09094" lon="0.96175">
        <ele>83.8</ele>
        <time>2023-07-06T07:24:11Z</time>
      </trkpt>
      <trkpt lat="44.09095" lon="0.96173">
        <ele>83.8</ele>
        <time>2023-07-06T07:24:13Z</time>
      </trkpt>
      <trkpt lat="44.09096" lon="0.96169">
        <ele>84</ele>
        <time>2023-07-06T07:24:15Z</time>
      </trkpt>
      <trkpt lat="44.09098" lon="0.96163">
        <ele>84</ele>
        <time>2023-07-06T07:24:20Z</time>
      </trkpt>
      <trkpt lat="44.09098" lon="0.96162">
        <ele>84</ele>
        <time>2023-07-06T07:24:21Z</time>
      </trkpt>
      <trkpt lat="44.09102" lon="0.96153">
        <ele>84.2</ele>
        <time>2023-07-06T07:24:28Z</time>
      </trkpt>
      <trkpt lat="44.09104" lon="0.96144">
        <ele>84</ele>
        <time>2023-07-06T07:24:35Z</time>
      </trkpt>
      <trkpt lat="44.09104" lon="0.96142">
        <ele>84</ele>
        <time>2023-07-06T07:24:37Z</time>
      </trkpt>
      <trkpt lat="44.09105" lon="0.96138">
        <ele>83.8</ele>
        <time>2023-07-06T07:24:41Z</time>
      </trkpt>
      <trkpt lat="44.09106" lon="0.96135">
        <ele>83.8</ele>
        <time>2023-07-06T07:24:44Z</time>
      </trkpt>
      <trkpt lat="44.09107" lon="0.96134">
        <ele>83.8</ele>
        <time>2023-07-06T07:24:45Z</time>
      </trkpt>
      <trkpt lat="44.09107" lon="0.96132">
        <ele>83.8</ele>
        <time>2023-07-06T07:24:46Z</time>
      </trkpt>
      <trkpt lat="44.09107" lon="0.96131">
        <ele>83.8</ele>
        <time>2023-07-06T07:24:47Z</time>
      </trkpt>
      <trkpt lat="44.09108" lon="0.96129">
        <ele>83.8</ele>
        <time>2023-07-06T07:24:49Z</time>
      </trkpt>
      <trkpt lat="44.09109" lon="0.96128">
        <ele>84</ele>
        <time>2023-07-06T07:24:50Z</time>
      </trkpt>
      <trkpt lat="44.09111" lon="0.96121">
        <ele>83.8</ele>
        <time>2023-07-06T07:24:56Z</time>
      </trkpt>
      <trkpt lat="44.09113" lon="0.96116">
        <ele>84</ele>
        <time>2023-07-06T07:25:00Z</time>
      </trkpt>
      <trkpt lat="44.09115" lon="0.96113">
        <ele>84.2</ele>
        <time>2023-07-06T07:25:03Z</time>
      </trkpt>
      <trkpt lat="44.09115" lon="0.96111">
        <ele>84.2</ele>
        <time>2023-07-06T07:25:05Z</time>
      </trkpt>
      <trkpt lat="44.09117" lon="0.96103">
        <ele>84.2</ele>
        <time>2023-07-06T07:25:11Z</time>
      </trkpt>
      <trkpt lat="44.09119" lon="0.96096">
        <ele>84</ele>
        <time>2023-07-06T07:25:17Z</time>
      </trkpt>
      <trkpt lat="44.09119" lon="0.96095">
        <ele>84.2</ele>
        <time>2023-07-06T07:25:18Z</time>
      </trkpt>
      <trkpt lat="44.09123" lon="0.96086">
        <ele>84</ele>
        <time>2023-07-06T07:25:26Z</time>
      </trkpt>
      <trkpt lat="44.09123" lon="0.96085">
        <ele>84.2</ele>
        <time>2023-07-06T07:25:27Z</time>
      </trkpt>
      <trkpt lat="44.09124" lon="0.96084">
        <ele>84.2</ele>
        <time>2023-07-06T07:25:28Z</time>
      </trkpt>
      <trkpt lat="44.09124" lon="0.96083">
        <ele>84.2</ele>
        <time>2023-07-06T07:25:29Z</time>
      </trkpt>
      <trkpt lat="44.09124" lon="0.96082">
        <ele>84.2</ele>
        <time>2023-07-06T07:25:30Z</time>
      </trkpt>
      <trkpt lat="44.09125" lon="0.9608">
        <ele>84.2</ele>
        <time>2023-07-06T07:25:33Z</time>
      </trkpt>
      <trkpt lat="44.09125" lon="0.96077">
        <ele>84.2</ele>
        <time>2023-07-06T07:25:35Z</time>
      </trkpt>
      <trkpt lat="44.09126" lon="0.96073">
        <ele>84.2</ele>
        <time>2023-07-06T07:25:38Z</time>
      </trkpt>
      <trkpt lat="44.09126" lon="0.96071">
        <ele>84.2</ele>
        <time>2023-07-06T07:25:40Z</time>
      </trkpt>
      <trkpt lat="44.09127" lon="0.96068">
        <ele>84.2</ele>
        <time>2023-07-06T07:25:42Z</time>
      </trkpt>
      <trkpt lat="44.09128" lon="0.96066">
        <ele>84.2</ele>
        <time>2023-07-06T07:25:44Z</time>
      </trkpt>
      <trkpt lat="44.0913" lon="0.96061">
        <ele>84.2</ele>
        <time>2023-07-06T07:25:48Z</time>
      </trkpt>
      <trkpt lat="44.09132" lon="0.96058">
        <ele>84.2</ele>
        <time>2023-07-06T07:25:51Z</time>
      </trkpt>
      <trkpt lat="44.09134" lon="0.96054">
        <ele>84.2</ele>
        <time>2023-07-06T07:25:54Z</time>
      </trkpt>
      <trkpt lat="44.09135" lon="0.96053">
        <ele>84</ele>
        <time>2023-07-06T07:25:55Z</time>
      </trkpt>
      <trkpt lat="44.09138" lon="0.96047">
        <ele>84.2</ele>
        <time>2023-07-06T07:26:00Z</time>
      </trkpt>
      <trkpt lat="44.09139" lon="0.96045">
        <ele>84.4</ele>
        <time>2023-07-06T07:26:01Z</time>
      </trkpt>
      <trkpt lat="44.09141" lon="0.96038">
        <ele>84.2</ele>
        <time>2023-07-06T07:26:08Z</time>
      </trkpt>
      <trkpt lat="44.09143" lon="0.9603">
        <ele>84.2</ele>
        <time>2023-07-06T07:26:14Z</time>
      </trkpt>
      <trkpt lat="44.09143" lon="0.96029">
        <ele>84.2</ele>
        <time>2023-07-06T07:26:15Z</time>
      </trkpt>
      <trkpt lat="44.09144" lon="0.96024">
        <ele>84.4</ele>
        <time>2023-07-06T07:26:19Z</time>
      </trkpt>
      <trkpt lat="44.09145" lon="0.96023">
        <ele>84.4</ele>
        <time>2023-07-06T07:26:20Z</time>
      </trkpt>
      <trkpt lat="44.09145" lon="0.96021">
        <ele>84.4</ele>
        <time>2023-07-06T07:26:21Z</time>
      </trkpt>
      <trkpt lat="44.09145" lon="0.96019">
        <ele>84.2</ele>
        <time>2023-07-06T07:26:22Z</time>
      </trkpt>
      <trkpt lat="44.09147" lon="0.96011">
        <ele>84</ele>
        <time>2023-07-06T07:26:28Z</time>
      </trkpt>
      <trkpt lat="44.09149" lon="0.96002">
        <ele>84.2</ele>
        <time>2023-07-06T07:26:35Z</time>
      </trkpt>
      <trkpt lat="44.09149" lon="0.96">
        <ele>84.2</ele>
        <time>2023-07-06T07:26:36Z</time>
      </trkpt>
      <trkpt lat="44.09151" lon="0.95994">
        <ele>84.4</ele>
        <time>2023-07-06T07:26:41Z</time>
      </trkpt>
      <trkpt lat="44.09152" lon="0.95989">
        <ele>84.4</ele>
        <time>2023-07-06T07:26:45Z</time>
      </trkpt>
      <trkpt lat="44.09153" lon="0.95987">
        <ele>84.4</ele>
        <time>2023-07-06T07:26:47Z</time>
      </trkpt>
      <trkpt lat="44.09154" lon="0.95985">
        <ele>84.4</ele>
        <time>2023-07-06T07:26:48Z</time>
      </trkpt>
      <trkpt lat="44.09154" lon="0.95979">
        <ele>84.4</ele>
        <time>2023-07-06T07:26:53Z</time>
      </trkpt>
      <trkpt lat="44.09155" lon="0.95974">
        <ele>84.4</ele>
        <time>2023-07-06T07:26:58Z</time>
      </trkpt>
      <trkpt lat="44.09157" lon="0.95971">
        <ele>84.4</ele>
        <time>2023-07-06T07:27:01Z</time>
      </trkpt>
      <trkpt lat="44.09157" lon="0.9597">
        <ele>84.4</ele>
        <time>2023-07-06T07:27:02Z</time>
      </trkpt>
      <trkpt lat="44.09159" lon="0.95962">
        <ele>84.4</ele>
        <time>2023-07-06T07:27:07Z</time>
      </trkpt>
      <trkpt lat="44.09162" lon="0.95952">
        <ele>84.6</ele>
        <time>2023-07-06T07:27:15Z</time>
      </trkpt>
      <trkpt lat="44.09163" lon="0.95949">
        <ele>84.4</ele>
        <time>2023-07-06T07:27:17Z</time>
      </trkpt>
      <trkpt lat="44.09164" lon="0.95944">
        <ele>84.2</ele>
        <time>2023-07-06T07:27:21Z</time>
      </trkpt>
      <trkpt lat="44.09166" lon="0.95937">
        <ele>84.6</ele>
        <time>2023-07-06T07:27:26Z</time>
      </trkpt>
      <trkpt lat="44.09166" lon="0.95936">
        <ele>84.6</ele>
        <time>2023-07-06T07:27:27Z</time>
      </trkpt>
      <trkpt lat="44.09168" lon="0.95929">
        <ele>84.6</ele>
        <time>2023-07-06T07:27:33Z</time>
      </trkpt>
      <trkpt lat="44.09171" lon="0.95923">
        <ele>84.6</ele>
        <time>2023-07-06T07:27:39Z</time>
      </trkpt>
      <trkpt lat="44.09171" lon="0.95922">
        <ele>84.6</ele>
        <time>2023-07-06T07:27:40Z</time>
      </trkpt>
      <trkpt lat="44.09172" lon="0.9592">
        <ele>84.4</ele>
        <time>2023-07-06T07:27:42Z</time>
      </trkpt>
      <trkpt lat="44.09173" lon="0.95917">
        <ele>84.4</ele>
        <time>2023-07-06T07:27:44Z</time>
      </trkpt>
      <trkpt lat="44.09173" lon="0.9591">
        <ele>84.6</ele>
        <time>2023-07-06T07:27:51Z</time>
      </trkpt>
      <trkpt lat="44.09173" lon="0.95908">
        <ele>84.6</ele>
        <time>2023-07-06T07:27:53Z</time>
      </trkpt>
      <trkpt lat="44.09172" lon="0.95906">
        <ele>84.6</ele>
        <time>2023-07-06T07:27:54Z</time>
      </trkpt>
      <trkpt lat="44.09172" lon="0.95905">
        <ele>84.4</ele>
        <time>2023-07-06T07:27:55Z</time>
      </trkpt>
      <trkpt lat="44.09171" lon="0.95902">
        <ele>84.4</ele>
        <time>2023-07-06T07:27:57Z</time>
      </trkpt>
      <trkpt lat="44.09168" lon="0.95899">
        <ele>84.4</ele>
        <time>2023-07-06T07:28:00Z</time>
      </trkpt>
      <trkpt lat="44.09167" lon="0.95898">
        <ele>84.6</ele>
        <time>2023-07-06T07:28:02Z</time>
      </trkpt>
      <trkpt lat="44.09165" lon="0.95895">
        <ele>84.4</ele>
        <time>2023-07-06T07:28:05Z</time>
      </trkpt>
      <trkpt lat="44.09165" lon="0.95891">
        <ele>84.2</ele>
        <time>2023-07-06T07:28:09Z</time>
      </trkpt>
      <trkpt lat="44.09165" lon="0.9589">
        <ele>84.4</ele>
        <time>2023-07-06T07:28:10Z</time>
      </trkpt>
      <trkpt lat="44.09167" lon="0.95882">
        <ele>84.4</ele>
        <time>2023-07-06T07:28:16Z</time>
      </trkpt>
      <trkpt lat="44.09167" lon="0.95881">
        <ele>84.4</ele>
        <time>2023-07-06T07:28:17Z</time>
      </trkpt>
      <trkpt lat="44.09167" lon="0.95877">
        <ele>84.4</ele>
        <time>2023-07-06T07:28:20Z</time>
      </trkpt>
      <trkpt lat="44.09168" lon="0.95875">
        <ele>84.4</ele>
        <time>2023-07-06T07:28:22Z</time>
      </trkpt>
      <trkpt lat="44.0917" lon="0.95872">
        <ele>84.4</ele>
        <time>2023-07-06T07:28:26Z</time>
      </trkpt>
      <trkpt lat="44.0917" lon="0.9587">
        <ele>84.4</ele>
        <time>2023-07-06T07:28:29Z</time>
      </trkpt>
      <trkpt lat="44.0917" lon="0.95868">
        <ele>84.4</ele>
        <time>2023-07-06T07:28:30Z</time>
      </trkpt>
      <trkpt lat="44.09173" lon="0.9586">
        <ele>84.2</ele>
        <time>2023-07-06T07:28:38Z</time>
      </trkpt>
      <trkpt lat="44.09176" lon="0.95852">
        <ele>84.4</ele>
        <time>2023-07-06T07:28:45Z</time>
      </trkpt>
      <trkpt lat="44.09176" lon="0.9585">
        <ele>84.4</ele>
        <time>2023-07-06T07:28:47Z</time>
      </trkpt>
      <trkpt lat="44.09177" lon="0.95844">
        <ele>84.2</ele>
        <time>2023-07-06T07:28:51Z</time>
      </trkpt>
      <trkpt lat="44.09179" lon="0.95838">
        <ele>84</ele>
        <time>2023-07-06T07:28:56Z</time>
      </trkpt>
      <trkpt lat="44.0918" lon="0.95835">
        <ele>84</ele>
        <time>2023-07-06T07:28:58Z</time>
      </trkpt>
      <trkpt lat="44.0918" lon="0.95834">
        <ele>84.2</ele>
        <time>2023-07-06T07:28:59Z</time>
      </trkpt>
      <trkpt lat="44.09181" lon="0.95831">
        <ele>84.6</ele>
        <time>2023-07-06T07:29:02Z</time>
      </trkpt>
      <trkpt lat="44.09182" lon="0.95828">
        <ele>84.4</ele>
        <time>2023-07-06T07:29:05Z</time>
      </trkpt>
      <trkpt lat="44.09185" lon="0.95822">
        <ele>84.2</ele>
        <time>2023-07-06T07:29:10Z</time>
      </trkpt>
      <trkpt lat="44.09185" lon="0.9582">
        <ele>84.2</ele>
        <time>2023-07-06T07:29:13Z</time>
      </trkpt>
      <trkpt lat="44.09187" lon="0.95813">
        <ele>84.2</ele>
        <time>2023-07-06T07:29:19Z</time>
      </trkpt>
      <trkpt lat="44.09189" lon="0.95803">
        <ele>84.2</ele>
        <time>2023-07-06T07:29:27Z</time>
      </trkpt>
      <trkpt lat="44.0919" lon="0.95801">
        <ele>84.2</ele>
        <time>2023-07-06T07:29:29Z</time>
      </trkpt>
      <trkpt lat="44.09191" lon="0.95794">
        <ele>84.2</ele>
        <time>2023-07-06T07:29:34Z</time>
      </trkpt>
      <trkpt lat="44.09192" lon="0.95791">
        <ele>84.2</ele>
        <time>2023-07-06T07:29:36Z</time>
      </trkpt>
      <trkpt lat="44.09192" lon="0.9579">
        <ele>84</ele>
        <time>2023-07-06T07:29:37Z</time>
      </trkpt>
      <trkpt lat="44.09193" lon="0.95789">
        <ele>84</ele>
        <time>2023-07-06T07:29:38Z</time>
      </trkpt>
      <trkpt lat="44.09193" lon="0.95788">
        <ele>84</ele>
        <time>2023-07-06T07:29:39Z</time>
      </trkpt>
      <trkpt lat="44.09194" lon="0.95783">
        <ele>84</ele>
        <time>2023-07-06T07:29:43Z</time>
      </trkpt>
      <trkpt lat="44.09197" lon="0.95775">
        <ele>83.8</ele>
        <time>2023-07-06T07:29:51Z</time>
      </trkpt>
      <trkpt lat="44.09198" lon="0.95773">
        <ele>83.6</ele>
        <time>2023-07-06T07:29:53Z</time>
      </trkpt>
      <trkpt lat="44.09198" lon="0.95771">
        <ele>83.6</ele>
        <time>2023-07-06T07:29:55Z</time>
      </trkpt>
      <trkpt lat="44.09198" lon="0.95769">
        <ele>83.6</ele>
        <time>2023-07-06T07:29:57Z</time>
      </trkpt>
      <trkpt lat="44.09199" lon="0.95768">
        <ele>83.8</ele>
        <time>2023-07-06T07:29:58Z</time>
      </trkpt>
      <trkpt lat="44.09199" lon="0.95767">
        <ele>83.8</ele>
        <time>2023-07-06T07:29:59Z</time>
      </trkpt>
      <trkpt lat="44.092" lon="0.95765">
        <ele>84</ele>
        <time>2023-07-06T07:30:01Z</time>
      </trkpt>
      <trkpt lat="44.09201" lon="0.95762">
        <ele>84</ele>
        <time>2023-07-06T07:30:03Z</time>
      </trkpt>
      <trkpt lat="44.09202" lon="0.95761">
        <ele>84</ele>
        <time>2023-07-06T07:30:04Z</time>
      </trkpt>
      <trkpt lat="44.09202" lon="0.95759">
        <ele>84</ele>
        <time>2023-07-06T07:30:05Z</time>
      </trkpt>
      <trkpt lat="44.09202" lon="0.95758">
        <ele>84</ele>
        <time>2023-07-06T07:30:06Z</time>
      </trkpt>
      <trkpt lat="44.09202" lon="0.95757">
        <ele>84</ele>
        <time>2023-07-06T07:30:07Z</time>
      </trkpt>
      <trkpt lat="44.09203" lon="0.95753">
        <ele>84</ele>
        <time>2023-07-06T07:30:10Z</time>
      </trkpt>
      <trkpt lat="44.09204" lon="0.95752">
        <ele>84</ele>
        <time>2023-07-06T07:30:11Z</time>
      </trkpt>
      <trkpt lat="44.09206" lon="0.95748">
        <ele>83.8</ele>
        <time>2023-07-06T07:30:15Z</time>
      </trkpt>
      <trkpt lat="44.09207" lon="0.95745">
        <ele>83.6</ele>
        <time>2023-07-06T07:30:17Z</time>
      </trkpt>
      <trkpt lat="44.09209" lon="0.95738">
        <ele>83.6</ele>
        <time>2023-07-06T07:30:22Z</time>
      </trkpt>
      <trkpt lat="44.09209" lon="0.95736">
        <ele>83.6</ele>
        <time>2023-07-06T07:30:24Z</time>
      </trkpt>
      <trkpt lat="44.09211" lon="0.9573">
        <ele>83.6</ele>
        <time>2023-07-06T07:30:28Z</time>
      </trkpt>
      <trkpt lat="44.09212" lon="0.95724">
        <ele>84</ele>
        <time>2023-07-06T07:30:32Z</time>
      </trkpt>
      <trkpt lat="44.09214" lon="0.95718">
        <ele>83.6</ele>
        <time>2023-07-06T07:30:36Z</time>
      </trkpt>
      <trkpt lat="44.09215" lon="0.95714">
        <ele>83.6</ele>
        <time>2023-07-06T07:30:39Z</time>
      </trkpt>
      <trkpt lat="44.09216" lon="0.95713">
        <ele>83.6</ele>
        <time>2023-07-06T07:30:40Z</time>
      </trkpt>
      <trkpt lat="44.09216" lon="0.95709">
        <ele>83.4</ele>
        <time>2023-07-06T07:30:42Z</time>
      </trkpt>
      <trkpt lat="44.09218" lon="0.95704">
        <ele>83.4</ele>
        <time>2023-07-06T07:30:45Z</time>
      </trkpt>
      <trkpt lat="44.09221" lon="0.95692">
        <ele>83.2</ele>
        <time>2023-07-06T07:30:53Z</time>
      </trkpt>
      <trkpt lat="44.09222" lon="0.95689">
        <ele>83.2</ele>
        <time>2023-07-06T07:30:55Z</time>
      </trkpt>
      <trkpt lat="44.09223" lon="0.95687">
        <ele>83.2</ele>
        <time>2023-07-06T07:30:57Z</time>
      </trkpt>
      <trkpt lat="44.09223" lon="0.95687">
        <ele>83.2</ele>
        <time>2023-07-06T07:30:58Z</time>
      </trkpt>
      <trkpt lat="44.09224" lon="0.95685">
        <ele>83</ele>
        <time>2023-07-06T07:31:04Z</time>
      </trkpt>
      <trkpt lat="44.09224" lon="0.95685">
        <ele>83</ele>
        <time>2023-07-06T07:31:06Z</time>
      </trkpt>
      <trkpt lat="44.09224" lon="0.95685">
        <ele>83</ele>
        <time>2023-07-06T07:31:09Z</time>
      </trkpt>
      <trkpt lat="44.09225" lon="0.95685">
        <ele>83</ele>
        <time>2023-07-06T07:31:17Z</time>
      </trkpt>
      <trkpt lat="44.09227" lon="0.95688">
        <ele>83</ele>
        <time>2023-07-06T07:31:19Z</time>
      </trkpt>
      <trkpt lat="44.0923" lon="0.95689">
        <ele>83</ele>
        <time>2023-07-06T07:31:21Z</time>
      </trkpt>
      <trkpt lat="44.09233" lon="0.95689">
        <ele>83</ele>
        <time>2023-07-06T07:31:23Z</time>
      </trkpt>
      <trkpt lat="44.09237" lon="0.9569">
        <ele>83</ele>
        <time>2023-07-06T07:31:26Z</time>
      </trkpt>
      <trkpt lat="44.09245" lon="0.95693">
        <ele>83.2</ele>
        <time>2023-07-06T07:31:32Z</time>
      </trkpt>
      <trkpt lat="44.09247" lon="0.95694">
        <ele>83.4</ele>
        <time>2023-07-06T07:31:34Z</time>
      </trkpt>
      <trkpt lat="44.09257" lon="0.95699">
        <ele>83.4</ele>
        <time>2023-07-06T07:31:42Z</time>
      </trkpt>
      <trkpt lat="44.09267" lon="0.95702">
        <ele>83.4</ele>
        <time>2023-07-06T07:31:50Z</time>
      </trkpt>
      <trkpt lat="44.09273" lon="0.95707">
        <ele>84</ele>
        <time>2023-07-06T07:31:55Z</time>
      </trkpt>
      <trkpt lat="44.09274" lon="0.95708">
        <ele>84</ele>
        <time>2023-07-06T07:31:56Z</time>
      </trkpt>
      <trkpt lat="44.09278" lon="0.95711">
        <ele>84</ele>
        <time>2023-07-06T07:32:00Z</time>
      </trkpt>
      <trkpt lat="44.0928" lon="0.95712">
        <ele>84</ele>
        <time>2023-07-06T07:32:02Z</time>
      </trkpt>
      <trkpt lat="44.09282" lon="0.95713">
        <ele>84</ele>
        <time>2023-07-06T07:32:04Z</time>
      </trkpt>
      <trkpt lat="44.09284" lon="0.95714">
        <ele>84</ele>
        <time>2023-07-06T07:32:06Z</time>
      </trkpt>
      <trkpt lat="44.09286" lon="0.95714">
        <ele>84</ele>
        <time>2023-07-06T07:32:08Z</time>
      </trkpt>
      <trkpt lat="44.09287" lon="0.95714">
        <ele>84.2</ele>
        <time>2023-07-06T07:32:09Z</time>
      </trkpt>
      <trkpt lat="44.09291" lon="0.95712">
        <ele>84.2</ele>
        <time>2023-07-06T07:32:13Z</time>
      </trkpt>
      <trkpt lat="44.09295" lon="0.95709">
        <ele>84.2</ele>
        <time>2023-07-06T07:32:16Z</time>
      </trkpt>
      <trkpt lat="44.09296" lon="0.95708">
        <ele>84.2</ele>
        <time>2023-07-06T07:32:17Z</time>
      </trkpt>
      <trkpt lat="44.09297" lon="0.95707">
        <ele>84.2</ele>
        <time>2023-07-06T07:32:18Z</time>
      </trkpt>
      <trkpt lat="44.09305" lon="0.95705">
        <ele>84</ele>
        <time>2023-07-06T07:32:25Z</time>
      </trkpt>
      <trkpt lat="44.09311" lon="0.95705">
        <ele>84</ele>
        <time>2023-07-06T07:32:30Z</time>
      </trkpt>
      <trkpt lat="44.09316" lon="0.95704">
        <ele>83.8</ele>
        <time>2023-07-06T07:32:33Z</time>
      </trkpt>
      <trkpt lat="44.09326" lon="0.95706">
        <ele>84</ele>
        <time>2023-07-06T07:32:41Z</time>
      </trkpt>
      <trkpt lat="44.09329" lon="0.95706">
        <ele>84.2</ele>
        <time>2023-07-06T07:32:44Z</time>
      </trkpt>
      <trkpt lat="44.09336" lon="0.95709">
        <ele>84</ele>
        <time>2023-07-06T07:32:49Z</time>
      </trkpt>
      <trkpt lat="44.09339" lon="0.95711">
        <ele>84</ele>
        <time>2023-07-06T07:32:51Z</time>
      </trkpt>
      <trkpt lat="44.09342" lon="0.95713">
        <ele>84</ele>
        <time>2023-07-06T07:32:54Z</time>
      </trkpt>
      <trkpt lat="44.09344" lon="0.95714">
        <ele>84.2</ele>
        <time>2023-07-06T07:32:56Z</time>
      </trkpt>
      <trkpt lat="44.09349" lon="0.95717">
        <ele>84.4</ele>
        <time>2023-07-06T07:33:00Z</time>
      </trkpt>
      <trkpt lat="44.09354" lon="0.95716">
        <ele>84.6</ele>
        <time>2023-07-06T07:33:04Z</time>
      </trkpt>
      <trkpt lat="44.0936" lon="0.95716">
        <ele>84.6</ele>
        <time>2023-07-06T07:33:09Z</time>
      </trkpt>
      <trkpt lat="44.09365" lon="0.95715">
        <ele>84.6</ele>
        <time>2023-07-06T07:33:14Z</time>
      </trkpt>
      <trkpt lat="44.09367" lon="0.95715">
        <ele>84.8</ele>
        <time>2023-07-06T07:33:16Z</time>
      </trkpt>
      <trkpt lat="44.09373" lon="0.95719">
        <ele>84.8</ele>
        <time>2023-07-06T07:33:21Z</time>
      </trkpt>
      <trkpt lat="44.09383" lon="0.95723">
        <ele>84.8</ele>
        <time>2023-07-06T07:33:29Z</time>
      </trkpt>
      <trkpt lat="44.09394" lon="0.95728">
        <ele>85.2</ele>
        <time>2023-07-06T07:33:37Z</time>
      </trkpt>
      <trkpt lat="44.09402" lon="0.95735">
        <ele>84.4</ele>
        <time>2023-07-06T07:33:44Z</time>
      </trkpt>
      <trkpt lat="44.09411" lon="0.95736">
        <ele>85</ele>
        <time>2023-07-06T07:33:51Z</time>
      </trkpt>
      <trkpt lat="44.09413" lon="0.95737">
        <ele>85</ele>
        <time>2023-07-06T07:33:52Z</time>
      </trkpt>
      <trkpt lat="44.09419" lon="0.95735">
        <ele>85</ele>
        <time>2023-07-06T07:33:58Z</time>
      </trkpt>
      <trkpt lat="44.09421" lon="0.95735">
        <ele>85.2</ele>
        <time>2023-07-06T07:33:59Z</time>
      </trkpt>
      <trkpt lat="44.09429" lon="0.95731">
        <ele>84.8</ele>
        <time>2023-07-06T07:34:06Z</time>
      </trkpt>
      <trkpt lat="44.09431" lon="0.9573">
        <ele>84.8</ele>
        <time>2023-07-06T07:34:08Z</time>
      </trkpt>
      <trkpt lat="44.09437" lon="0.95727">
        <ele>85.2</ele>
        <time>2023-07-06T07:34:13Z</time>
      </trkpt>
      <trkpt lat="44.09444" lon="0.95726">
        <ele>85</ele>
        <time>2023-07-06T07:34:19Z</time>
      </trkpt>
      <trkpt lat="44.09446" lon="0.95726">
        <ele>85</ele>
        <time>2023-07-06T07:34:20Z</time>
      </trkpt>
      <trkpt lat="44.09447" lon="0.95727">
        <ele>85</ele>
        <time>2023-07-06T07:34:21Z</time>
      </trkpt>
      <trkpt lat="44.09453" lon="0.95729">
        <ele>85</ele>
        <time>2023-07-06T07:34:25Z</time>
      </trkpt>
      <trkpt lat="44.09459" lon="0.95732">
        <ele>85.2</ele>
        <time>2023-07-06T07:34:29Z</time>
      </trkpt>
      <trkpt lat="44.0947" lon="0.95745">
        <ele>84.4</ele>
        <time>2023-07-06T07:34:38Z</time>
      </trkpt>
      <trkpt lat="44.09476" lon="0.95753">
        <ele>85</ele>
        <time>2023-07-06T07:34:45Z</time>
      </trkpt>
      <trkpt lat="44.09481" lon="0.95758">
        <ele>84.8</ele>
        <time>2023-07-06T07:34:49Z</time>
      </trkpt>
      <trkpt lat="44.09485" lon="0.95764">
        <ele>84.8</ele>
        <time>2023-07-06T07:34:54Z</time>
      </trkpt>
      <trkpt lat="44.09494" lon="0.95771">
        <ele>85.2</ele>
        <time>2023-07-06T07:35:01Z</time>
      </trkpt>
      <trkpt lat="44.09504" lon="0.95779">
        <ele>85.2</ele>
        <time>2023-07-06T07:35:10Z</time>
      </trkpt>
      <trkpt lat="44.09509" lon="0.95786">
        <ele>85.2</ele>
        <time>2023-07-06T07:35:15Z</time>
      </trkpt>
      <trkpt lat="44.09511" lon="0.95788">
        <ele>85.2</ele>
        <time>2023-07-06T07:35:17Z</time>
      </trkpt>
      <trkpt lat="44.09517" lon="0.95793">
        <ele>85.6</ele>
        <time>2023-07-06T07:35:22Z</time>
      </trkpt>
      <trkpt lat="44.09519" lon="0.95795">
        <ele>85.6</ele>
        <time>2023-07-06T07:35:24Z</time>
      </trkpt>
      <trkpt lat="44.09525" lon="0.95802">
        <ele>85.6</ele>
        <time>2023-07-06T07:35:31Z</time>
      </trkpt>
      <trkpt lat="44.09527" lon="0.95805">
        <ele>86</ele>
        <time>2023-07-06T07:35:33Z</time>
      </trkpt>
      <trkpt lat="44.09529" lon="0.95807">
        <ele>85.8</ele>
        <time>2023-07-06T07:35:35Z</time>
      </trkpt>
      <trkpt lat="44.09535" lon="0.95814">
        <ele>85.4</ele>
        <time>2023-07-06T07:35:41Z</time>
      </trkpt>
      <trkpt lat="44.0954" lon="0.95823">
        <ele>85.4</ele>
        <time>2023-07-06T07:35:48Z</time>
      </trkpt>
      <trkpt lat="44.09542" lon="0.95828">
        <ele>85.4</ele>
        <time>2023-07-06T07:35:52Z</time>
      </trkpt>
      <trkpt lat="44.09545" lon="0.95832">
        <ele>85.4</ele>
        <time>2023-07-06T07:35:55Z</time>
      </trkpt>
      <trkpt lat="44.0955" lon="0.95839">
        <ele>85.4</ele>
        <time>2023-07-06T07:36:01Z</time>
      </trkpt>
      <trkpt lat="44.09552" lon="0.95843">
        <ele>85.6</ele>
        <time>2023-07-06T07:36:06Z</time>
      </trkpt>
      <trkpt lat="44.09553" lon="0.95844">
        <ele>85.6</ele>
        <time>2023-07-06T07:36:08Z</time>
      </trkpt>
      <trkpt lat="44.09553" lon="0.95845">
        <ele>85.6</ele>
        <time>2023-07-06T07:36:09Z</time>
      </trkpt>
      <trkpt lat="44.09552" lon="0.95853">
        <ele>86</ele>
        <time>2023-07-06T07:36:14Z</time>
      </trkpt>
      <trkpt lat="44.09551" lon="0.95857">
        <ele>86</ele>
        <time>2023-07-06T07:36:16Z</time>
      </trkpt>
      <trkpt lat="44.09547" lon="0.95866">
        <ele>85.8</ele>
        <time>2023-07-06T07:36:21Z</time>
      </trkpt>
      <trkpt lat="44.09547" lon="0.95868">
        <ele>85.8</ele>
        <time>2023-07-06T07:36:22Z</time>
      </trkpt>
      <trkpt lat="44.09545" lon="0.95873">
        <ele>86</ele>
        <time>2023-07-06T07:36:24Z</time>
      </trkpt>
      <trkpt lat="44.09545" lon="0.95874">
        <ele>86.2</ele>
        <time>2023-07-06T07:36:25Z</time>
      </trkpt>
      <trkpt lat="44.09542" lon="0.9588">
        <ele>86.2</ele>
        <time>2023-07-06T07:36:29Z</time>
      </trkpt>
      <trkpt lat="44.09536" lon="0.95893">
        <ele>86.2</ele>
        <time>2023-07-06T07:36:37Z</time>
      </trkpt>
      <trkpt lat="44.09528" lon="0.95911">
        <ele>86</ele>
        <time>2023-07-06T07:36:48Z</time>
      </trkpt>
      <trkpt lat="44.09521" lon="0.95925">
        <ele>86.2</ele>
        <time>2023-07-06T07:36:58Z</time>
      </trkpt>
      <trkpt lat="44.09514" lon="0.95942">
        <ele>86.4</ele>
        <time>2023-07-06T07:37:09Z</time>
      </trkpt>
      <trkpt lat="44.09509" lon="0.95949">
        <ele>86.2</ele>
        <time>2023-07-06T07:37:18Z</time>
      </trkpt>
      <trkpt lat="44.09509" lon="0.9595">
        <ele>86.2</ele>
        <time>2023-07-06T07:37:19Z</time>
      </trkpt>
      <trkpt lat="44.09503" lon="0.95961">
        <ele>86.6</ele>
        <time>2023-07-06T07:37:28Z</time>
      </trkpt>
      <trkpt lat="44.09503" lon="0.95962">
        <ele>86.8</ele>
        <time>2023-07-06T07:37:29Z</time>
      </trkpt>
      <trkpt lat="44.09497" lon="0.95976">
        <ele>86.6</ele>
        <time>2023-07-06T07:37:38Z</time>
      </trkpt>
      <trkpt lat="44.09496" lon="0.95978">
        <ele>86.6</ele>
        <time>2023-07-06T07:37:39Z</time>
      </trkpt>
      <trkpt lat="44.09491" lon="0.95988">
        <ele>86.8</ele>
        <time>2023-07-06T07:37:46Z</time>
      </trkpt>
      <trkpt lat="44.09489" lon="0.95992">
        <ele>86.8</ele>
        <time>2023-07-06T07:37:49Z</time>
      </trkpt>
      <trkpt lat="44.09488" lon="0.95995">
        <ele>86.8</ele>
        <time>2023-07-06T07:37:51Z</time>
      </trkpt>
      <trkpt lat="44.09486" lon="0.96">
        <ele>86.8</ele>
        <time>2023-07-06T07:37:54Z</time>
      </trkpt>
      <trkpt lat="44.09481" lon="0.96014">
        <ele>86.8</ele>
        <time>2023-07-06T07:38:02Z</time>
      </trkpt>
      <trkpt lat="44.09481" lon="0.96015">
        <ele>87</ele>
        <time>2023-07-06T07:38:03Z</time>
      </trkpt>
      <trkpt lat="44.09478" lon="0.96021">
        <ele>86.8</ele>
        <time>2023-07-06T07:38:07Z</time>
      </trkpt>
      <trkpt lat="44.09476" lon="0.96024">
        <ele>86.8</ele>
        <time>2023-07-06T07:38:09Z</time>
      </trkpt>
      <trkpt lat="44.09471" lon="0.96034">
        <ele>86.8</ele>
        <time>2023-07-06T07:38:16Z</time>
      </trkpt>
      <trkpt lat="44.09471" lon="0.96036">
        <ele>86.8</ele>
        <time>2023-07-06T07:38:17Z</time>
      </trkpt>
      <trkpt lat="44.0947" lon="0.96039">
        <ele>87</ele>
        <time>2023-07-06T07:38:19Z</time>
      </trkpt>
      <trkpt lat="44.09469" lon="0.96042">
        <ele>87.2</ele>
        <time>2023-07-06T07:38:21Z</time>
      </trkpt>
      <trkpt lat="44.09468" lon="0.96044">
        <ele>87.2</ele>
        <time>2023-07-06T07:38:22Z</time>
      </trkpt>
      <trkpt lat="44.09468" lon="0.96047">
        <ele>87.2</ele>
        <time>2023-07-06T07:38:24Z</time>
      </trkpt>
      <trkpt lat="44.09465" lon="0.96059">
        <ele>87.4</ele>
        <time>2023-07-06T07:38:31Z</time>
      </trkpt>
      <trkpt lat="44.09462" lon="0.9607">
        <ele>86.8</ele>
        <time>2023-07-06T07:38:37Z</time>
      </trkpt>
      <trkpt lat="44.09462" lon="0.96072">
        <ele>86.8</ele>
        <time>2023-07-06T07:38:38Z</time>
      </trkpt>
      <trkpt lat="44.09461" lon="0.96075">
        <ele>86.8</ele>
        <time>2023-07-06T07:38:40Z</time>
      </trkpt>
      <trkpt lat="44.09459" lon="0.96081">
        <ele>86.8</ele>
        <time>2023-07-06T07:38:43Z</time>
      </trkpt>
      <trkpt lat="44.09458" lon="0.96084">
        <ele>86.8</ele>
        <time>2023-07-06T07:38:45Z</time>
      </trkpt>
      <trkpt lat="44.09458" lon="0.96088">
        <ele>87</ele>
        <time>2023-07-06T07:38:47Z</time>
      </trkpt>
      <trkpt lat="44.09458" lon="0.96093">
        <ele>86.8</ele>
        <time>2023-07-06T07:38:50Z</time>
      </trkpt>
      <trkpt lat="44.09456" lon="0.96101">
        <ele>86.8</ele>
        <time>2023-07-06T07:38:54Z</time>
      </trkpt>
      <trkpt lat="44.09456" lon="0.96103">
        <ele>86.8</ele>
        <time>2023-07-06T07:38:55Z</time>
      </trkpt>
      <trkpt lat="44.09455" lon="0.96105">
        <ele>86.8</ele>
        <time>2023-07-06T07:38:56Z</time>
      </trkpt>
      <trkpt lat="44.09453" lon="0.96109">
        <ele>86.8</ele>
        <time>2023-07-06T07:38:59Z</time>
      </trkpt>
      <trkpt lat="44.09451" lon="0.96117">
        <ele>86.8</ele>
        <time>2023-07-06T07:39:04Z</time>
      </trkpt>
      <trkpt lat="44.09449" lon="0.96126">
        <ele>86.6</ele>
        <time>2023-07-06T07:39:09Z</time>
      </trkpt>
      <trkpt lat="44.09447" lon="0.96128">
        <ele>86.6</ele>
        <time>2023-07-06T07:39:11Z</time>
      </trkpt>
      <trkpt lat="44.09442" lon="0.96143">
        <ele>86.8</ele>
        <time>2023-07-06T07:39:19Z</time>
      </trkpt>
      <trkpt lat="44.09442" lon="0.9615">
        <ele>86.6</ele>
        <time>2023-07-06T07:39:22Z</time>
      </trkpt>
      <trkpt lat="44.09441" lon="0.96154">
        <ele>86.8</ele>
        <time>2023-07-06T07:39:24Z</time>
      </trkpt>
      <trkpt lat="44.0944" lon="0.96158">
        <ele>86.8</ele>
        <time>2023-07-06T07:39:26Z</time>
      </trkpt>
      <trkpt lat="44.09438" lon="0.9617">
        <ele>86.6</ele>
        <time>2023-07-06T07:39:33Z</time>
      </trkpt>
      <trkpt lat="44.09437" lon="0.96173">
        <ele>86.4</ele>
        <time>2023-07-06T07:39:35Z</time>
      </trkpt>
      <trkpt lat="44.09433" lon="0.96178">
        <ele>86.4</ele>
        <time>2023-07-06T07:39:39Z</time>
      </trkpt>
      <trkpt lat="44.09432" lon="0.96181">
        <ele>86.4</ele>
        <time>2023-07-06T07:39:41Z</time>
      </trkpt>
      <trkpt lat="44.09429" lon="0.96191">
        <ele>86.4</ele>
        <time>2023-07-06T07:39:48Z</time>
      </trkpt>
      <trkpt lat="44.09424" lon="0.96204">
        <ele>86.4</ele>
        <time>2023-07-06T07:39:56Z</time>
      </trkpt>
      <trkpt lat="44.09421" lon="0.96208">
        <ele>86.6</ele>
        <time>2023-07-06T07:39:59Z</time>
      </trkpt>
      <trkpt lat="44.0942" lon="0.9621">
        <ele>86.8</ele>
        <time>2023-07-06T07:40:01Z</time>
      </trkpt>
      <trkpt lat="44.09415" lon="0.96218">
        <ele>86.6</ele>
        <time>2023-07-06T07:40:06Z</time>
      </trkpt>
      <trkpt lat="44.09414" lon="0.9622">
        <ele>86.6</ele>
        <time>2023-07-06T07:40:08Z</time>
      </trkpt>
      <trkpt lat="44.09411" lon="0.96223">
        <ele>86.6</ele>
        <time>2023-07-06T07:40:10Z</time>
      </trkpt>
      <trkpt lat="44.09408" lon="0.96228">
        <ele>86.8</ele>
        <time>2023-07-06T07:40:13Z</time>
      </trkpt>
      <trkpt lat="44.09401" lon="0.96238">
        <ele>86.2</ele>
        <time>2023-07-06T07:40:21Z</time>
      </trkpt>
      <trkpt lat="44.09399" lon="0.9624">
        <ele>86</ele>
        <time>2023-07-06T07:40:23Z</time>
      </trkpt>
      <trkpt lat="44.09393" lon="0.9625">
        <ele>86</ele>
        <time>2023-07-06T07:40:31Z</time>
      </trkpt>
      <trkpt lat="44.09386" lon="0.96261">
        <ele>85.6</ele>
        <time>2023-07-06T07:40:39Z</time>
      </trkpt>
      <trkpt lat="44.09385" lon="0.96263">
        <ele>85.6</ele>
        <time>2023-07-06T07:40:40Z</time>
      </trkpt>
      <trkpt lat="44.09379" lon="0.96273">
        <ele>86</ele>
        <time>2023-07-06T07:40:47Z</time>
      </trkpt>
      <trkpt lat="44.09376" lon="0.96275">
        <ele>86</ele>
        <time>2023-07-06T07:40:49Z</time>
      </trkpt>
      <trkpt lat="44.0937" lon="0.96286">
        <ele>85.6</ele>
        <time>2023-07-06T07:40:57Z</time>
      </trkpt>
      <trkpt lat="44.09368" lon="0.96289">
        <ele>85.4</ele>
        <time>2023-07-06T07:40:59Z</time>
      </trkpt>
      <trkpt lat="44.09364" lon="0.96295">
        <ele>85.4</ele>
        <time>2023-07-06T07:41:04Z</time>
      </trkpt>
      <trkpt lat="44.09361" lon="0.96301">
        <ele>85.4</ele>
        <time>2023-07-06T07:41:08Z</time>
      </trkpt>
      <trkpt lat="44.09355" lon="0.96313">
        <ele>85</ele>
        <time>2023-07-06T07:41:17Z</time>
      </trkpt>
      <trkpt lat="44.09354" lon="0.96314">
        <ele>85.2</ele>
        <time>2023-07-06T07:41:19Z</time>
      </trkpt>
      <trkpt lat="44.09354" lon="0.96314">
        <ele>85.2</ele>
        <time>2023-07-06T07:41:20Z</time>
      </trkpt>
      <trkpt lat="44.09353" lon="0.96319">
        <ele>85.4</ele>
        <time>2023-07-06T07:41:23Z</time>
      </trkpt>
      <trkpt lat="44.09346" lon="0.9633">
        <ele>85.8</ele>
        <time>2023-07-06T07:41:31Z</time>
      </trkpt>
      <trkpt lat="44.09346" lon="0.9633">
        <ele>85.8</ele>
        <time>2023-07-06T07:41:32Z</time>
      </trkpt>
      <trkpt lat="44.09346" lon="0.96329">
        <ele>85.6</ele>
        <time>2023-07-06T07:41:34Z</time>
      </trkpt>
      <trkpt lat="44.09346" lon="0.96329">
        <ele>85.6</ele>
        <time>2023-07-06T07:41:35Z</time>
      </trkpt>
      <trkpt lat="44.09348" lon="0.96323">
        <ele>85.4</ele>
        <time>2023-07-06T07:41:40Z</time>
      </trkpt>
      <trkpt lat="44.09352" lon="0.96314">
        <ele>85.4</ele>
        <time>2023-07-06T07:41:46Z</time>
      </trkpt>
      <trkpt lat="44.09353" lon="0.96315">
        <ele>85.4</ele>
        <time>2023-07-06T07:41:47Z</time>
      </trkpt>
      <trkpt lat="44.09354" lon="0.96316">
        <ele>85.4</ele>
        <time>2023-07-06T07:41:48Z</time>
      </trkpt>
      <trkpt lat="44.09353" lon="0.96318">
        <ele>85.4</ele>
        <time>2023-07-06T07:41:50Z</time>
      </trkpt>
      <trkpt lat="44.09353" lon="0.96319">
        <ele>85.4</ele>
        <time>2023-07-06T07:41:51Z</time>
      </trkpt>
      <trkpt lat="44.09352" lon="0.9632">
        <ele>85.2</ele>
        <time>2023-07-06T07:41:52Z</time>
      </trkpt>
      <trkpt lat="44.09352" lon="0.96324">
        <ele>84.8</ele>
        <time>2023-07-06T07:41:54Z</time>
      </trkpt>
      <trkpt lat="44.09352" lon="0.96325">
        <ele>84.8</ele>
        <time>2023-07-06T07:41:55Z</time>
      </trkpt>
      <trkpt lat="44.09351" lon="0.96326">
        <ele>85</ele>
        <time>2023-07-06T07:41:58Z</time>
      </trkpt>
      <trkpt lat="44.09352" lon="0.96326">
        <ele>85.2</ele>
        <time>2023-07-06T07:41:59Z</time>
      </trkpt>
      <trkpt lat="44.09352" lon="0.96328">
        <ele>85.2</ele>
        <time>2023-07-06T07:42:00Z</time>
      </trkpt>
      <trkpt lat="44.09353" lon="0.9633">
        <ele>85.6</ele>
        <time>2023-07-06T07:42:03Z</time>
      </trkpt>
      <trkpt lat="44.09357" lon="0.96334">
        <ele>86.8</ele>
        <time>2023-07-06T07:42:09Z</time>
      </trkpt>
      <trkpt lat="44.09359" lon="0.96334">
        <ele>87.8</ele>
        <time>2023-07-06T07:42:14Z</time>
      </trkpt>
      <trkpt lat="44.09359" lon="0.96335">
        <ele>88</ele>
        <time>2023-07-06T07:42:15Z</time>
      </trkpt>
      <trkpt lat="44.0936" lon="0.96342">
        <ele>87.8</ele>
        <time>2023-07-06T07:42:22Z</time>
      </trkpt>
      <trkpt lat="44.0936" lon="0.9635">
        <ele>87.6</ele>
        <time>2023-07-06T07:42:28Z</time>
      </trkpt>
      <trkpt lat="44.09359" lon="0.96352">
        <ele>87.6</ele>
        <time>2023-07-06T07:42:30Z</time>
      </trkpt>
      <trkpt lat="44.09358" lon="0.96354">
        <ele>87.6</ele>
        <time>2023-07-06T07:42:31Z</time>
      </trkpt>
      <trkpt lat="44.09353" lon="0.96362">
        <ele>87.8</ele>
        <time>2023-07-06T07:42:36Z</time>
      </trkpt>
      <trkpt lat="44.09351" lon="0.96364">
        <ele>87.6</ele>
        <time>2023-07-06T07:42:38Z</time>
      </trkpt>
      <trkpt lat="44.09351" lon="0.96365">
        <ele>87.6</ele>
        <time>2023-07-06T07:42:40Z</time>
      </trkpt>
      <trkpt lat="44.0935" lon="0.96366">
        <ele>87.6</ele>
        <time>2023-07-06T07:42:41Z</time>
      </trkpt>
      <trkpt lat="44.09347" lon="0.96372">
        <ele>87.6</ele>
        <time>2023-07-06T07:42:46Z</time>
      </trkpt>
      <trkpt lat="44.09345" lon="0.96374">
        <ele>87.6</ele>
        <time>2023-07-06T07:42:48Z</time>
      </trkpt>
      <trkpt lat="44.09345" lon="0.96376">
        <ele>87.6</ele>
        <time>2023-07-06T07:42:49Z</time>
      </trkpt>
      <trkpt lat="44.09343" lon="0.96379">
        <ele>87.6</ele>
        <time>2023-07-06T07:42:51Z</time>
      </trkpt>
      <trkpt lat="44.09338" lon="0.96387">
        <ele>87.6</ele>
        <time>2023-07-06T07:42:57Z</time>
      </trkpt>
      <trkpt lat="44.09331" lon="0.96398">
        <ele>87.6</ele>
        <time>2023-07-06T07:43:05Z</time>
      </trkpt>
      <trkpt lat="44.0933" lon="0.964">
        <ele>87.4</ele>
        <time>2023-07-06T07:43:07Z</time>
      </trkpt>
      <trkpt lat="44.09325" lon="0.96405">
        <ele>87.4</ele>
        <time>2023-07-06T07:43:12Z</time>
      </trkpt>
      <trkpt lat="44.09322" lon="0.9641">
        <ele>87.4</ele>
        <time>2023-07-06T07:43:18Z</time>
      </trkpt>
      <trkpt lat="44.09321" lon="0.96411">
        <ele>87.4</ele>
        <time>2023-07-06T07:43:19Z</time>
      </trkpt>
      <trkpt lat="44.09321" lon="0.96412">
        <ele>87.6</ele>
        <time>2023-07-06T07:43:22Z</time>
      </trkpt>
      <trkpt lat="44.09321" lon="0.96412">
        <ele>87</ele>
        <time>2023-07-06T07:43:25Z</time>
      </trkpt>
      <trkpt lat="44.09321" lon="0.96413">
        <ele>86.8</ele>
        <time>2023-07-06T07:43:27Z</time>
      </trkpt>
      <trkpt lat="44.09324" lon="0.96413">
        <ele>86.4</ele>
        <time>2023-07-06T07:43:31Z</time>
      </trkpt>
      <trkpt lat="44.09323" lon="0.96415">
        <ele>85.8</ele>
        <time>2023-07-06T07:43:35Z</time>
      </trkpt>
      <trkpt lat="44.09323" lon="0.96417">
        <ele>85</ele>
        <time>2023-07-06T07:43:38Z</time>
      </trkpt>
      <trkpt lat="44.09321" lon="0.96421">
        <ele>84.6</ele>
        <time>2023-07-06T07:43:42Z</time>
      </trkpt>
      <trkpt lat="44.09318" lon="0.96424">
        <ele>84.6</ele>
        <time>2023-07-06T07:43:45Z</time>
      </trkpt>
      <trkpt lat="44.09321" lon="0.96429">
        <ele>84.8</ele>
        <time>2023-07-06T07:43:50Z</time>
      </trkpt>
      <trkpt lat="44.09324" lon="0.96433">
        <ele>85.2</ele>
        <time>2023-07-06T07:43:54Z</time>
      </trkpt>
      <trkpt lat="44.09323" lon="0.96434">
        <ele>85.2</ele>
        <time>2023-07-06T07:43:55Z</time>
      </trkpt>
      <trkpt lat="44.09321" lon="0.96442">
        <ele>85.2</ele>
        <time>2023-07-06T07:44:01Z</time>
      </trkpt>
      <trkpt lat="44.09322" lon="0.96451">
        <ele>85.6</ele>
        <time>2023-07-06T07:44:07Z</time>
      </trkpt>
      <trkpt lat="44.09322" lon="0.96455">
        <ele>85.6</ele>
        <time>2023-07-06T07:44:09Z</time>
      </trkpt>
      <trkpt lat="44.09321" lon="0.96465">
        <ele>86</ele>
        <time>2023-07-06T07:44:14Z</time>
      </trkpt>
      <trkpt lat="44.0932" lon="0.96468">
        <ele>86.2</ele>
        <time>2023-07-06T07:44:16Z</time>
      </trkpt>
      <trkpt lat="44.09318" lon="0.96474">
        <ele>86</ele>
        <time>2023-07-06T07:44:19Z</time>
      </trkpt>
      <trkpt lat="44.09318" lon="0.96476">
        <ele>86</ele>
        <time>2023-07-06T07:44:20Z</time>
      </trkpt>
      <trkpt lat="44.09318" lon="0.96478">
        <ele>86</ele>
        <time>2023-07-06T07:44:21Z</time>
      </trkpt>
      <trkpt lat="44.09316" lon="0.96484">
        <ele>85.8</ele>
        <time>2023-07-06T07:44:25Z</time>
      </trkpt>
      <trkpt lat="44.09316" lon="0.96485">
        <ele>85.8</ele>
        <time>2023-07-06T07:44:26Z</time>
      </trkpt>
      <trkpt lat="44.09314" lon="0.96487">
        <ele>86</ele>
        <time>2023-07-06T07:44:28Z</time>
      </trkpt>
      <trkpt lat="44.09307" lon="0.96498">
        <ele>85.8</ele>
        <time>2023-07-06T07:44:35Z</time>
      </trkpt>
      <trkpt lat="44.09305" lon="0.96513">
        <ele>85.4</ele>
        <time>2023-07-06T07:44:44Z</time>
      </trkpt>
      <trkpt lat="44.09302" lon="0.96527">
        <ele>85.8</ele>
        <time>2023-07-06T07:44:50Z</time>
      </trkpt>
      <trkpt lat="44.09301" lon="0.9653">
        <ele>85.8</ele>
        <time>2023-07-06T07:44:51Z</time>
      </trkpt>
      <trkpt lat="44.09298" lon="0.96548">
        <ele>85.8</ele>
        <time>2023-07-06T07:45:00Z</time>
      </trkpt>
      <trkpt lat="44.09298" lon="0.96549">
        <ele>85.8</ele>
        <time>2023-07-06T07:45:01Z</time>
      </trkpt>
      <trkpt lat="44.09297" lon="0.96557">
        <ele>85.8</ele>
        <time>2023-07-06T07:45:05Z</time>
      </trkpt>
      <trkpt lat="44.09297" lon="0.96559">
        <ele>85.8</ele>
        <time>2023-07-06T07:45:06Z</time>
      </trkpt>
      <trkpt lat="44.09297" lon="0.9656">
        <ele>86</ele>
        <time>2023-07-06T07:45:07Z</time>
      </trkpt>
      <trkpt lat="44.09296" lon="0.96563">
        <ele>85.8</ele>
        <time>2023-07-06T07:45:09Z</time>
      </trkpt>
      <trkpt lat="44.09296" lon="0.96566">
        <ele>86</ele>
        <time>2023-07-06T07:45:11Z</time>
      </trkpt>
      <trkpt lat="44.09295" lon="0.9657">
        <ele>86</ele>
        <time>2023-07-06T07:45:13Z</time>
      </trkpt>
      <trkpt lat="44.09295" lon="0.96574">
        <ele>86.2</ele>
        <time>2023-07-06T07:45:15Z</time>
      </trkpt>
      <trkpt lat="44.09294" lon="0.96579">
        <ele>86.2</ele>
        <time>2023-07-06T07:45:18Z</time>
      </trkpt>
      <trkpt lat="44.09294" lon="0.96585">
        <ele>86.2</ele>
        <time>2023-07-06T07:45:22Z</time>
      </trkpt>
      <trkpt lat="44.09294" lon="0.966">
        <ele>86.8</ele>
        <time>2023-07-06T07:45:30Z</time>
      </trkpt>
      <trkpt lat="44.09294" lon="0.96606">
        <ele>87</ele>
        <time>2023-07-06T07:45:33Z</time>
      </trkpt>
      <trkpt lat="44.09296" lon="0.96612">
        <ele>87</ele>
        <time>2023-07-06T07:45:38Z</time>
      </trkpt>
      <trkpt lat="44.09297" lon="0.96628">
        <ele>87.4</ele>
        <time>2023-07-06T07:45:47Z</time>
      </trkpt>
      <trkpt lat="44.09295" lon="0.96633">
        <ele>87.6</ele>
        <time>2023-07-06T07:45:50Z</time>
      </trkpt>
      <trkpt lat="44.09294" lon="0.96637">
        <ele>87.8</ele>
        <time>2023-07-06T07:45:52Z</time>
      </trkpt>
      <trkpt lat="44.09295" lon="0.96643">
        <ele>87.8</ele>
        <time>2023-07-06T07:45:55Z</time>
      </trkpt>
      <trkpt lat="44.09296" lon="0.96655">
        <ele>88.2</ele>
        <time>2023-07-06T07:46:02Z</time>
      </trkpt>
      <trkpt lat="44.09295" lon="0.96663">
        <ele>88.2</ele>
        <time>2023-07-06T07:46:06Z</time>
      </trkpt>
      <trkpt lat="44.09289" lon="0.96671">
        <ele>88.4</ele>
        <time>2023-07-06T07:46:36Z</time>
      </trkpt>
      <trkpt lat="44.09289" lon="0.96673">
        <ele>88.4</ele>
        <time>2023-07-06T07:46:37Z</time>
      </trkpt>
      <trkpt lat="44.09285" lon="0.96684">
        <ele>88.2</ele>
        <time>2023-07-06T07:46:44Z</time>
      </trkpt>
      <trkpt lat="44.0928" lon="0.96695">
        <ele>88.4</ele>
        <time>2023-07-06T07:46:52Z</time>
      </trkpt>
      <trkpt lat="44.09274" lon="0.96701">
        <ele>88.4</ele>
        <time>2023-07-06T07:46:59Z</time>
      </trkpt>
      <trkpt lat="44.09268" lon="0.96706">
        <ele>88.6</ele>
        <time>2023-07-06T07:47:04Z</time>
      </trkpt>
      <trkpt lat="44.09265" lon="0.96708">
        <ele>88.8</ele>
        <time>2023-07-06T07:47:06Z</time>
      </trkpt>
      <trkpt lat="44.09255" lon="0.96712">
        <ele>88.6</ele>
        <time>2023-07-06T07:47:14Z</time>
      </trkpt>
      <trkpt lat="44.09254" lon="0.96713">
        <ele>88.8</ele>
        <time>2023-07-06T07:47:15Z</time>
      </trkpt>
      <trkpt lat="44.09254" lon="0.96713">
        <ele>88.8</ele>
        <time>2023-07-06T07:47:16Z</time>
      </trkpt>
      <trkpt lat="44.09252" lon="0.96715">
        <ele>88.6</ele>
        <time>2023-07-06T07:47:18Z</time>
      </trkpt>
      <trkpt lat="44.09247" lon="0.96718">
        <ele>88.4</ele>
        <time>2023-07-06T07:47:22Z</time>
      </trkpt>
      <trkpt lat="44.09243" lon="0.96723">
        <ele>88.4</ele>
        <time>2023-07-06T07:47:26Z</time>
      </trkpt>
      <trkpt lat="44.09241" lon="0.96724">
        <ele>88.6</ele>
        <time>2023-07-06T07:47:29Z</time>
      </trkpt>
      <trkpt lat="44.09236" lon="0.96735">
        <ele>88.2</ele>
        <time>2023-07-06T07:47:37Z</time>
      </trkpt>
      <trkpt lat="44.09234" lon="0.96737">
        <ele>88.2</ele>
        <time>2023-07-06T07:47:39Z</time>
      </trkpt>
      <trkpt lat="44.09229" lon="0.96747">
        <ele>88</ele>
        <time>2023-07-06T07:47:46Z</time>
      </trkpt>
      <trkpt lat="44.09223" lon="0.96759">
        <ele>88.2</ele>
        <time>2023-07-06T07:47:53Z</time>
      </trkpt>
      <trkpt lat="44.09222" lon="0.96761">
        <ele>88.2</ele>
        <time>2023-07-06T07:47:55Z</time>
      </trkpt>
      <trkpt lat="44.09222" lon="0.96762">
        <ele>88.2</ele>
        <time>2023-07-06T07:47:56Z</time>
      </trkpt>
      <trkpt lat="44.0922" lon="0.96769">
        <ele>88</ele>
        <time>2023-07-06T07:48:00Z</time>
      </trkpt>
      <trkpt lat="44.09215" lon="0.96779">
        <ele>87.6</ele>
        <time>2023-07-06T07:48:06Z</time>
      </trkpt>
      <trkpt lat="44.09213" lon="0.9678">
        <ele>87.6</ele>
        <time>2023-07-06T07:48:07Z</time>
      </trkpt>
      <trkpt lat="44.09208" lon="0.96792">
        <ele>87.6</ele>
        <time>2023-07-06T07:48:14Z</time>
      </trkpt>
      <trkpt lat="44.09208" lon="0.96794">
        <ele>87.6</ele>
        <time>2023-07-06T07:48:15Z</time>
      </trkpt>
      <trkpt lat="44.09205" lon="0.96803">
        <ele>87.4</ele>
        <time>2023-07-06T07:48:20Z</time>
      </trkpt>
      <trkpt lat="44.09203" lon="0.96807">
        <ele>87.4</ele>
        <time>2023-07-06T07:48:22Z</time>
      </trkpt>
      <trkpt lat="44.09202" lon="0.9681">
        <ele>87.4</ele>
        <time>2023-07-06T07:48:24Z</time>
      </trkpt>
      <trkpt lat="44.09199" lon="0.96825">
        <ele>87.6</ele>
        <time>2023-07-06T07:48:33Z</time>
      </trkpt>
      <trkpt lat="44.09195" lon="0.96839">
        <ele>87.6</ele>
        <time>2023-07-06T07:48:42Z</time>
      </trkpt>
      <trkpt lat="44.09195" lon="0.96842">
        <ele>87.8</ele>
        <time>2023-07-06T07:48:44Z</time>
      </trkpt>
      <trkpt lat="44.09194" lon="0.96851">
        <ele>87.8</ele>
        <time>2023-07-06T07:48:49Z</time>
      </trkpt>
      <trkpt lat="44.09195" lon="0.96864">
        <ele>87.6</ele>
        <time>2023-07-06T07:48:57Z</time>
      </trkpt>
      <trkpt lat="44.09196" lon="0.96876">
        <ele>88</ele>
        <time>2023-07-06T07:49:04Z</time>
      </trkpt>
      <trkpt lat="44.09201" lon="0.96885">
        <ele>88.4</ele>
        <time>2023-07-06T07:49:11Z</time>
      </trkpt>
      <trkpt lat="44.09202" lon="0.96887">
        <ele>88.6</ele>
        <time>2023-07-06T07:49:12Z</time>
      </trkpt>
      <trkpt lat="44.09203" lon="0.9689">
        <ele>88.6</ele>
        <time>2023-07-06T07:49:14Z</time>
      </trkpt>
      <trkpt lat="44.09204" lon="0.96895">
        <ele>88.6</ele>
        <time>2023-07-06T07:49:17Z</time>
      </trkpt>
      <trkpt lat="44.09203" lon="0.96901">
        <ele>88.8</ele>
        <time>2023-07-06T07:49:20Z</time>
      </trkpt>
      <trkpt lat="44.09202" lon="0.96906">
        <ele>89.2</ele>
        <time>2023-07-06T07:49:24Z</time>
      </trkpt>
      <trkpt lat="44.09201" lon="0.96908">
        <ele>89.2</ele>
        <time>2023-07-06T07:49:25Z</time>
      </trkpt>
      <trkpt lat="44.09198" lon="0.96909">
        <ele>89.4</ele>
        <time>2023-07-06T07:49:27Z</time>
      </trkpt>
      <trkpt lat="44.09197" lon="0.96912">
        <ele>89.4</ele>
        <time>2023-07-06T07:49:29Z</time>
      </trkpt>
      <trkpt lat="44.09196" lon="0.96913">
        <ele>89.6</ele>
        <time>2023-07-06T07:49:30Z</time>
      </trkpt>
      <trkpt lat="44.09192" lon="0.96915">
        <ele>89.8</ele>
        <time>2023-07-06T07:49:33Z</time>
      </trkpt>
      <trkpt lat="44.0919" lon="0.96921">
        <ele>89.8</ele>
        <time>2023-07-06T07:49:38Z</time>
      </trkpt>
      <trkpt lat="44.09184" lon="0.96925">
        <ele>90</ele>
        <time>2023-07-06T07:49:43Z</time>
      </trkpt>
      <trkpt lat="44.09179" lon="0.9693">
        <ele>90.2</ele>
        <time>2023-07-06T07:49:47Z</time>
      </trkpt>
      <trkpt lat="44.09178" lon="0.96933">
        <ele>90.2</ele>
        <time>2023-07-06T07:49:48Z</time>
      </trkpt>
      <trkpt lat="44.09173" lon="0.9694">
        <ele>90.6</ele>
        <time>2023-07-06T07:49:55Z</time>
      </trkpt>
      <trkpt lat="44.09172" lon="0.96942">
        <ele>90.6</ele>
        <time>2023-07-06T07:49:57Z</time>
      </trkpt>
      <trkpt lat="44.0917" lon="0.96945">
        <ele>90.8</ele>
        <time>2023-07-06T07:50:00Z</time>
      </trkpt>
      <trkpt lat="44.09169" lon="0.96947">
        <ele>90.8</ele>
        <time>2023-07-06T07:50:02Z</time>
      </trkpt>
      <trkpt lat="44.09168" lon="0.9695">
        <ele>90.8</ele>
        <time>2023-07-06T07:50:04Z</time>
      </trkpt>
      <trkpt lat="44.09168" lon="0.96951">
        <ele>91</ele>
        <time>2023-07-06T07:50:05Z</time>
      </trkpt>
      <trkpt lat="44.09164" lon="0.96952">
        <ele>91</ele>
        <time>2023-07-06T07:50:07Z</time>
      </trkpt>
      <trkpt lat="44.09157" lon="0.96958">
        <ele>90.8</ele>
        <time>2023-07-06T07:50:12Z</time>
      </trkpt>
      <trkpt lat="44.09155" lon="0.96965">
        <ele>91</ele>
        <time>2023-07-06T07:50:16Z</time>
      </trkpt>
      <trkpt lat="44.09153" lon="0.96968">
        <ele>91.2</ele>
        <time>2023-07-06T07:50:18Z</time>
      </trkpt>
      <trkpt lat="44.09148" lon="0.96976">
        <ele>91.4</ele>
        <time>2023-07-06T07:50:23Z</time>
      </trkpt>
      <trkpt lat="44.09147" lon="0.96977">
        <ele>91.4</ele>
        <time>2023-07-06T07:50:24Z</time>
      </trkpt>
      <trkpt lat="44.09145" lon="0.9698">
        <ele>91.4</ele>
        <time>2023-07-06T07:50:26Z</time>
      </trkpt>
      <trkpt lat="44.0914" lon="0.96989">
        <ele>91.6</ele>
        <time>2023-07-06T07:50:32Z</time>
      </trkpt>
      <trkpt lat="44.09134" lon="0.96995">
        <ele>91.8</ele>
        <time>2023-07-06T07:50:36Z</time>
      </trkpt>
      <trkpt lat="44.09132" lon="0.96999">
        <ele>92</ele>
        <time>2023-07-06T07:50:39Z</time>
      </trkpt>
      <trkpt lat="44.09128" lon="0.97006">
        <ele>92.2</ele>
        <time>2023-07-06T07:50:44Z</time>
      </trkpt>
      <trkpt lat="44.09126" lon="0.97008">
        <ele>92.2</ele>
        <time>2023-07-06T07:50:46Z</time>
      </trkpt>
      <trkpt lat="44.09123" lon="0.97018">
        <ele>92.4</ele>
        <time>2023-07-06T07:50:53Z</time>
      </trkpt>
      <trkpt lat="44.0912" lon="0.97023">
        <ele>93</ele>
        <time>2023-07-06T07:50:57Z</time>
      </trkpt>
      <trkpt lat="44.09118" lon="0.97027">
        <ele>93</ele>
        <time>2023-07-06T07:51:00Z</time>
      </trkpt>
      <trkpt lat="44.09117" lon="0.97028">
        <ele>93</ele>
        <time>2023-07-06T07:51:01Z</time>
      </trkpt>
      <trkpt lat="44.09114" lon="0.97037">
        <ele>93</ele>
        <time>2023-07-06T07:51:07Z</time>
      </trkpt>
      <trkpt lat="44.09109" lon="0.97048">
        <ele>92.8</ele>
        <time>2023-07-06T07:51:14Z</time>
      </trkpt>
      <trkpt lat="44.09104" lon="0.97056">
        <ele>92.8</ele>
        <time>2023-07-06T07:51:19Z</time>
      </trkpt>
      <trkpt lat="44.09104" lon="0.97058">
        <ele>93</ele>
        <time>2023-07-06T07:51:20Z</time>
      </trkpt>
      <trkpt lat="44.09103" lon="0.9706">
        <ele>93.2</ele>
        <time>2023-07-06T07:51:21Z</time>
      </trkpt>
      <trkpt lat="44.09101" lon="0.97065">
        <ele>93.4</ele>
        <time>2023-07-06T07:51:24Z</time>
      </trkpt>
      <trkpt lat="44.091" lon="0.97066">
        <ele>93.4</ele>
        <time>2023-07-06T07:51:25Z</time>
      </trkpt>
      <trkpt lat="44.091" lon="0.97068">
        <ele>93.4</ele>
        <time>2023-07-06T07:51:26Z</time>
      </trkpt>
      <trkpt lat="44.09097" lon="0.97072">
        <ele>93.6</ele>
        <time>2023-07-06T07:51:29Z</time>
      </trkpt>
      <trkpt lat="44.0909" lon="0.97081">
        <ele>93.8</ele>
        <time>2023-07-06T07:51:35Z</time>
      </trkpt>
      <trkpt lat="44.09086" lon="0.97085">
        <ele>94</ele>
        <time>2023-07-06T07:51:39Z</time>
      </trkpt>
      <trkpt lat="44.09085" lon="0.97089">
        <ele>94</ele>
        <time>2023-07-06T07:51:41Z</time>
      </trkpt>
      <trkpt lat="44.09081" lon="0.97096">
        <ele>94</ele>
        <time>2023-07-06T07:51:45Z</time>
      </trkpt>
      <trkpt lat="44.09077" lon="0.97102">
        <ele>94.2</ele>
        <time>2023-07-06T07:51:49Z</time>
      </trkpt>
      <trkpt lat="44.09072" lon="0.97108">
        <ele>94</ele>
        <time>2023-07-06T07:51:54Z</time>
      </trkpt>
      <trkpt lat="44.09072" lon="0.97109">
        <ele>94</ele>
        <time>2023-07-06T07:51:55Z</time>
      </trkpt>
      <trkpt lat="44.09068" lon="0.97118">
        <ele>93.6</ele>
        <time>2023-07-06T07:52:01Z</time>
      </trkpt>
      <trkpt lat="44.09068" lon="0.9712">
        <ele>93.6</ele>
        <time>2023-07-06T07:52:02Z</time>
      </trkpt>
      <trkpt lat="44.09067" lon="0.97122">
        <ele>93.4</ele>
        <time>2023-07-06T07:52:03Z</time>
      </trkpt>
      <trkpt lat="44.09066" lon="0.97127">
        <ele>93.4</ele>
        <time>2023-07-06T07:52:06Z</time>
      </trkpt>
      <trkpt lat="44.09066" lon="0.97131">
        <ele>93.4</ele>
        <time>2023-07-06T07:52:08Z</time>
      </trkpt>
      <trkpt lat="44.09066" lon="0.97133">
        <ele>93.4</ele>
        <time>2023-07-06T07:52:09Z</time>
      </trkpt>
      <trkpt lat="44.09065" lon="0.97135">
        <ele>93.4</ele>
        <time>2023-07-06T07:52:10Z</time>
      </trkpt>
      <trkpt lat="44.0906" lon="0.97136">
        <ele>93.6</ele>
        <time>2023-07-06T07:52:14Z</time>
      </trkpt>
      <trkpt lat="44.09056" lon="0.97141">
        <ele>93</ele>
        <time>2023-07-06T07:52:21Z</time>
      </trkpt>
      <trkpt lat="44.09056" lon="0.97148">
        <ele>92.8</ele>
        <time>2023-07-06T07:52:24Z</time>
      </trkpt>
      <trkpt lat="44.09055" lon="0.97154">
        <ele>92.8</ele>
        <time>2023-07-06T07:52:27Z</time>
      </trkpt>
      <trkpt lat="44.09054" lon="0.97157">
        <ele>92.6</ele>
        <time>2023-07-06T07:52:29Z</time>
      </trkpt>
      <trkpt lat="44.09052" lon="0.97162">
        <ele>92.8</ele>
        <time>2023-07-06T07:52:32Z</time>
      </trkpt>
      <trkpt lat="44.09048" lon="0.97166">
        <ele>92.6</ele>
        <time>2023-07-06T07:52:34Z</time>
      </trkpt>
      <trkpt lat="44.09047" lon="0.97168">
        <ele>92.6</ele>
        <time>2023-07-06T07:52:36Z</time>
      </trkpt>
      <trkpt lat="44.09047" lon="0.97172">
        <ele>92.6</ele>
        <time>2023-07-06T07:52:39Z</time>
      </trkpt>
      <trkpt lat="44.0904" lon="0.9718">
        <ele>92.2</ele>
        <time>2023-07-06T07:52:44Z</time>
      </trkpt>
      <trkpt lat="44.09039" lon="0.97184">
        <ele>92</ele>
        <time>2023-07-06T07:52:47Z</time>
      </trkpt>
      <trkpt lat="44.09038" lon="0.97186">
        <ele>91.8</ele>
        <time>2023-07-06T07:52:48Z</time>
      </trkpt>
      <trkpt lat="44.09035" lon="0.97191">
        <ele>91.4</ele>
        <time>2023-07-06T07:52:52Z</time>
      </trkpt>
      <trkpt lat="44.09034" lon="0.97192">
        <ele>91.2</ele>
        <time>2023-07-06T07:52:53Z</time>
      </trkpt>
      <trkpt lat="44.09033" lon="0.97191">
        <ele>91.2</ele>
        <time>2023-07-06T07:52:54Z</time>
      </trkpt>
      <trkpt lat="44.09025" lon="0.9719">
        <ele>90.8</ele>
        <time>2023-07-06T07:52:58Z</time>
      </trkpt>
      <trkpt lat="44.09016" lon="0.97185">
        <ele>90</ele>
        <time>2023-07-06T07:53:03Z</time>
      </trkpt>
      <trkpt lat="44.09014" lon="0.97184">
        <ele>90</ele>
        <time>2023-07-06T07:53:05Z</time>
      </trkpt>
      <trkpt lat="44.08999" lon="0.97176">
        <ele>90</ele>
        <time>2023-07-06T07:53:32Z</time>
      </trkpt>
      <trkpt lat="44.08998" lon="0.97175">
        <ele>90</ele>
        <time>2023-07-06T07:53:33Z</time>
      </trkpt>
      <trkpt lat="44.08996" lon="0.97174">
        <ele>89.2</ele>
        <time>2023-07-06T07:53:35Z</time>
      </trkpt>
      <trkpt lat="44.08995" lon="0.97173">
        <ele>88.6</ele>
        <time>2023-07-06T07:53:36Z</time>
      </trkpt>
      <trkpt lat="44.08994" lon="0.97172">
        <ele>88</ele>
        <time>2023-07-06T07:53:38Z</time>
      </trkpt>
      <trkpt lat="44.08993" lon="0.9717">
        <ele>88</ele>
        <time>2023-07-06T07:53:40Z</time>
      </trkpt>
      <trkpt lat="44.0899" lon="0.97166">
        <ele>87.6</ele>
        <time>2023-07-06T07:53:44Z</time>
      </trkpt>
      <trkpt lat="44.08988" lon="0.97162">
        <ele>86.8</ele>
        <time>2023-07-06T07:53:47Z</time>
      </trkpt>
      <trkpt lat="44.08987" lon="0.97161">
        <ele>86.6</ele>
        <time>2023-07-06T07:53:48Z</time>
      </trkpt>
      <trkpt lat="44.08982" lon="0.97152">
        <ele>86.6</ele>
        <time>2023-07-06T07:53:55Z</time>
      </trkpt>
      <trkpt lat="44.0898" lon="0.97149">
        <ele>86.6</ele>
        <time>2023-07-06T07:53:58Z</time>
      </trkpt>
      <trkpt lat="44.0898" lon="0.97147">
        <ele>86.4</ele>
        <time>2023-07-06T07:53:59Z</time>
      </trkpt>
      <trkpt lat="44.08978" lon="0.97145">
        <ele>86.2</ele>
        <time>2023-07-06T07:54:00Z</time>
      </trkpt>
      <trkpt lat="44.08978" lon="0.97143">
        <ele>85.8</ele>
        <time>2023-07-06T07:54:01Z</time>
      </trkpt>
      <trkpt lat="44.08972" lon="0.97124">
        <ele>85</ele>
        <time>2023-07-06T07:54:07Z</time>
      </trkpt>
      <trkpt lat="44.08972" lon="0.97117">
        <ele>84.8</ele>
        <time>2023-07-06T07:54:13Z</time>
      </trkpt>
      <trkpt lat="44.0897" lon="0.97115">
        <ele>84.8</ele>
        <time>2023-07-06T07:54:14Z</time>
      </trkpt>
      <trkpt lat="44.08969" lon="0.97112">
        <ele>84.6</ele>
        <time>2023-07-06T07:54:16Z</time>
      </trkpt>
      <trkpt lat="44.08967" lon="0.97107">
        <ele>84.8</ele>
        <time>2023-07-06T07:54:20Z</time>
      </trkpt>
      <trkpt lat="44.0896" lon="0.97099">
        <ele>84.6</ele>
        <time>2023-07-06T07:54:26Z</time>
      </trkpt>
      <trkpt lat="44.08954" lon="0.97088">
        <ele>84.4</ele>
        <time>2023-07-06T07:54:35Z</time>
      </trkpt>
      <trkpt lat="44.08948" lon="0.97078">
        <ele>84</ele>
        <time>2023-07-06T07:54:43Z</time>
      </trkpt>
      <trkpt lat="44.08942" lon="0.97069">
        <ele>84.2</ele>
        <time>2023-07-06T07:54:49Z</time>
      </trkpt>
      <trkpt lat="44.08934" lon="0.9706">
        <ele>84.4</ele>
        <time>2023-07-06T07:54:55Z</time>
      </trkpt>
      <trkpt lat="44.08931" lon="0.97055">
        <ele>84.6</ele>
        <time>2023-07-06T07:54:58Z</time>
      </trkpt>
      <trkpt lat="44.08928" lon="0.97049">
        <ele>84.6</ele>
        <time>2023-07-06T07:55:02Z</time>
      </trkpt>
      <trkpt lat="44.08923" lon="0.97042">
        <ele>84.8</ele>
        <time>2023-07-06T07:55:06Z</time>
      </trkpt>
      <trkpt lat="44.08922" lon="0.97039">
        <ele>84.8</ele>
        <time>2023-07-06T07:55:08Z</time>
      </trkpt>
      <trkpt lat="44.08921" lon="0.97037">
        <ele>84.8</ele>
        <time>2023-07-06T07:55:09Z</time>
      </trkpt>
      <trkpt lat="44.08916" lon="0.97026">
        <ele>85.4</ele>
        <time>2023-07-06T07:55:16Z</time>
      </trkpt>
      <trkpt lat="44.0891" lon="0.97018">
        <ele>85.6</ele>
        <time>2023-07-06T07:55:22Z</time>
      </trkpt>
      <trkpt lat="44.08909" lon="0.97017">
        <ele>85.6</ele>
        <time>2023-07-06T07:55:23Z</time>
      </trkpt>
      <trkpt lat="44.089" lon="0.97007">
        <ele>85.4</ele>
        <time>2023-07-06T07:55:31Z</time>
      </trkpt>
      <trkpt lat="44.089" lon="0.97005">
        <ele>85.4</ele>
        <time>2023-07-06T07:55:32Z</time>
      </trkpt>
      <trkpt lat="44.08893" lon="0.96996">
        <ele>84.8</ele>
        <time>2023-07-06T07:55:39Z</time>
      </trkpt>
      <trkpt lat="44.08892" lon="0.96994">
        <ele>84.6</ele>
        <time>2023-07-06T07:55:40Z</time>
      </trkpt>
      <trkpt lat="44.0889" lon="0.96991">
        <ele>84.4</ele>
        <time>2023-07-06T07:55:42Z</time>
      </trkpt>
      <trkpt lat="44.08887" lon="0.96986">
        <ele>84.6</ele>
        <time>2023-07-06T07:55:46Z</time>
      </trkpt>
      <trkpt lat="44.08881" lon="0.96977">
        <ele>84.8</ele>
        <time>2023-07-06T07:55:52Z</time>
      </trkpt>
      <trkpt lat="44.08879" lon="0.96976">
        <ele>84.8</ele>
        <time>2023-07-06T07:55:54Z</time>
      </trkpt>
      <trkpt lat="44.08872" lon="0.9697">
        <ele>85.4</ele>
        <time>2023-07-06T07:56:00Z</time>
      </trkpt>
      <trkpt lat="44.08871" lon="0.96968">
        <ele>85.6</ele>
        <time>2023-07-06T07:56:01Z</time>
      </trkpt>
      <trkpt lat="44.0887" lon="0.96965">
        <ele>85.8</ele>
        <time>2023-07-06T07:56:03Z</time>
      </trkpt>
      <trkpt lat="44.0886" lon="0.96957">
        <ele>86.4</ele>
        <time>2023-07-06T07:56:12Z</time>
      </trkpt>
      <trkpt lat="44.08858" lon="0.96956">
        <ele>86.8</ele>
        <time>2023-07-06T07:56:14Z</time>
      </trkpt>
      <trkpt lat="44.08852" lon="0.9695">
        <ele>87.6</ele>
        <time>2023-07-06T07:56:21Z</time>
      </trkpt>
      <trkpt lat="44.0885" lon="0.9695">
        <ele>87.8</ele>
        <time>2023-07-06T07:56:22Z</time>
      </trkpt>
      <trkpt lat="44.08841" lon="0.96943">
        <ele>88.4</ele>
        <time>2023-07-06T07:56:30Z</time>
      </trkpt>
      <trkpt lat="44.08833" lon="0.96939">
        <ele>88.4</ele>
        <time>2023-07-06T07:56:37Z</time>
      </trkpt>
      <trkpt lat="44.08824" lon="0.96936">
        <ele>88.2</ele>
        <time>2023-07-06T07:56:43Z</time>
      </trkpt>
      <trkpt lat="44.08818" lon="0.96937">
        <ele>87.8</ele>
        <time>2023-07-06T07:56:47Z</time>
      </trkpt>
      <trkpt lat="44.08817" lon="0.96939">
        <ele>87.6</ele>
        <time>2023-07-06T07:56:48Z</time>
      </trkpt>
      <trkpt lat="44.08815" lon="0.96948">
        <ele>87.2</ele>
        <time>2023-07-06T07:56:52Z</time>
      </trkpt>
      <trkpt lat="44.08815" lon="0.96952">
        <ele>87.2</ele>
        <time>2023-07-06T07:56:54Z</time>
      </trkpt>
      <trkpt lat="44.08814" lon="0.96955">
        <ele>87.2</ele>
        <time>2023-07-06T07:56:56Z</time>
      </trkpt>
      <trkpt lat="44.08813" lon="0.96958">
        <ele>86.8</ele>
        <time>2023-07-06T07:56:58Z</time>
      </trkpt>
      <trkpt lat="44.08813" lon="0.9696">
        <ele>86.6</ele>
        <time>2023-07-06T07:56:59Z</time>
      </trkpt>
      <trkpt lat="44.08812" lon="0.96965">
        <ele>86.4</ele>
        <time>2023-07-06T07:57:02Z</time>
      </trkpt>
      <trkpt lat="44.08811" lon="0.96973">
        <ele>86</ele>
        <time>2023-07-06T07:57:06Z</time>
      </trkpt>
      <trkpt lat="44.08811" lon="0.96978">
        <ele>85.6</ele>
        <time>2023-07-06T07:57:09Z</time>
      </trkpt>
      <trkpt lat="44.0881" lon="0.96979">
        <ele>85.6</ele>
        <time>2023-07-06T07:57:10Z</time>
      </trkpt>
      <trkpt lat="44.08806" lon="0.9699">
        <ele>84.6</ele>
        <time>2023-07-06T07:57:17Z</time>
      </trkpt>
      <trkpt lat="44.08805" lon="0.96991">
        <ele>84.6</ele>
        <time>2023-07-06T07:57:18Z</time>
      </trkpt>
      <trkpt lat="44.08803" lon="0.97002">
        <ele>84</ele>
        <time>2023-07-06T07:57:24Z</time>
      </trkpt>
      <trkpt lat="44.08801" lon="0.97007">
        <ele>83.8</ele>
        <time>2023-07-06T07:57:28Z</time>
      </trkpt>
      <trkpt lat="44.088" lon="0.97012">
        <ele>83.8</ele>
        <time>2023-07-06T07:57:32Z</time>
      </trkpt>
      <trkpt lat="44.08798" lon="0.97019">
        <ele>83.8</ele>
        <time>2023-07-06T07:57:36Z</time>
      </trkpt>
      <trkpt lat="44.08797" lon="0.97023">
        <ele>83.8</ele>
        <time>2023-07-06T07:57:38Z</time>
      </trkpt>
      <trkpt lat="44.08794" lon="0.97028">
        <ele>83.6</ele>
        <time>2023-07-06T07:57:42Z</time>
      </trkpt>
      <trkpt lat="44.08793" lon="0.97032">
        <ele>83.4</ele>
        <time>2023-07-06T07:57:45Z</time>
      </trkpt>
      <trkpt lat="44.08792" lon="0.97033">
        <ele>83.4</ele>
        <time>2023-07-06T07:57:46Z</time>
      </trkpt>
      <trkpt lat="44.08792" lon="0.97036">
        <ele>83.2</ele>
        <time>2023-07-06T07:57:48Z</time>
      </trkpt>
      <trkpt lat="44.08791" lon="0.9704">
        <ele>83.2</ele>
        <time>2023-07-06T07:57:50Z</time>
      </trkpt>
      <trkpt lat="44.0879" lon="0.97049">
        <ele>83.2</ele>
        <time>2023-07-06T07:57:56Z</time>
      </trkpt>
      <trkpt lat="44.08786" lon="0.97062">
        <ele>82.8</ele>
        <time>2023-07-06T07:58:04Z</time>
      </trkpt>
      <trkpt lat="44.08786" lon="0.97065">
        <ele>82.8</ele>
        <time>2023-07-06T07:58:06Z</time>
      </trkpt>
      <trkpt lat="44.08782" lon="0.97077">
        <ele>82.8</ele>
        <time>2023-07-06T07:58:12Z</time>
      </trkpt>
      <trkpt lat="44.08781" lon="0.97079">
        <ele>82.8</ele>
        <time>2023-07-06T07:58:13Z</time>
      </trkpt>
      <trkpt lat="44.08777" lon="0.97092">
        <ele>83.4</ele>
        <time>2023-07-06T07:58:20Z</time>
      </trkpt>
      <trkpt lat="44.08777" lon="0.97094">
        <ele>83.2</ele>
        <time>2023-07-06T07:58:21Z</time>
      </trkpt>
      <trkpt lat="44.08775" lon="0.97102">
        <ele>83.2</ele>
        <time>2023-07-06T07:58:26Z</time>
      </trkpt>
      <trkpt lat="44.08773" lon="0.97107">
        <ele>83.2</ele>
        <time>2023-07-06T07:58:29Z</time>
      </trkpt>
      <trkpt lat="44.08772" lon="0.97111">
        <ele>83.2</ele>
        <time>2023-07-06T07:58:32Z</time>
      </trkpt>
      <trkpt lat="44.08771" lon="0.97112">
        <ele>83.2</ele>
        <time>2023-07-06T07:58:33Z</time>
      </trkpt>
      <trkpt lat="44.08768" lon="0.97119">
        <ele>83.2</ele>
        <time>2023-07-06T07:58:37Z</time>
      </trkpt>
      <trkpt lat="44.08765" lon="0.97131">
        <ele>83.6</ele>
        <time>2023-07-06T07:58:44Z</time>
      </trkpt>
      <trkpt lat="44.08763" lon="0.97136">
        <ele>83.6</ele>
        <time>2023-07-06T07:58:47Z</time>
      </trkpt>
      <trkpt lat="44.08763" lon="0.97137">
        <ele>83.6</ele>
        <time>2023-07-06T07:58:48Z</time>
      </trkpt>
      <trkpt lat="44.08763" lon="0.97141">
        <ele>83.6</ele>
        <time>2023-07-06T07:58:51Z</time>
      </trkpt>
      <trkpt lat="44.08759" lon="0.97154">
        <ele>83.8</ele>
        <time>2023-07-06T07:59:00Z</time>
      </trkpt>
      <trkpt lat="44.08757" lon="0.97161">
        <ele>83.6</ele>
        <time>2023-07-06T07:59:04Z</time>
      </trkpt>
      <trkpt lat="44.08755" lon="0.97168">
        <ele>83.8</ele>
        <time>2023-07-06T07:59:08Z</time>
      </trkpt>
      <trkpt lat="44.0875" lon="0.97177">
        <ele>84</ele>
        <time>2023-07-06T07:59:15Z</time>
      </trkpt>
      <trkpt lat="44.08746" lon="0.97188">
        <ele>84.2</ele>
        <time>2023-07-06T07:59:22Z</time>
      </trkpt>
      <trkpt lat="44.08745" lon="0.97189">
        <ele>84.2</ele>
        <time>2023-07-06T07:59:23Z</time>
      </trkpt>
      <trkpt lat="44.08744" lon="0.9719">
        <ele>84</ele>
        <time>2023-07-06T07:59:24Z</time>
      </trkpt>
      <trkpt lat="44.08741" lon="0.97197">
        <ele>84.4</ele>
        <time>2023-07-06T07:59:29Z</time>
      </trkpt>
      <trkpt lat="44.08737" lon="0.97205">
        <ele>84.6</ele>
        <time>2023-07-06T07:59:34Z</time>
      </trkpt>
      <trkpt lat="44.08736" lon="0.97209">
        <ele>84.6</ele>
        <time>2023-07-06T07:59:36Z</time>
      </trkpt>
      <trkpt lat="44.08729" lon="0.9722">
        <ele>84.4</ele>
        <time>2023-07-06T07:59:43Z</time>
      </trkpt>
      <trkpt lat="44.08725" lon="0.97236">
        <ele>84.6</ele>
        <time>2023-07-06T07:59:52Z</time>
      </trkpt>
      <trkpt lat="44.08719" lon="0.97247">
        <ele>85</ele>
        <time>2023-07-06T08:00:00Z</time>
      </trkpt>
      <trkpt lat="44.08715" lon="0.97255">
        <ele>85</ele>
        <time>2023-07-06T08:00:06Z</time>
      </trkpt>
      <trkpt lat="44.08714" lon="0.97257">
        <ele>85</ele>
        <time>2023-07-06T08:00:07Z</time>
      </trkpt>
      <trkpt lat="44.08711" lon="0.97263">
        <ele>85</ele>
        <time>2023-07-06T08:00:11Z</time>
      </trkpt>
      <trkpt lat="44.08707" lon="0.97269">
        <ele>85</ele>
        <time>2023-07-06T08:00:15Z</time>
      </trkpt>
      <trkpt lat="44.08699" lon="0.97279">
        <ele>85.2</ele>
        <time>2023-07-06T08:00:22Z</time>
      </trkpt>
      <trkpt lat="44.08697" lon="0.97282">
        <ele>85.2</ele>
        <time>2023-07-06T08:00:24Z</time>
      </trkpt>
      <trkpt lat="44.08693" lon="0.97288">
        <ele>85.4</ele>
        <time>2023-07-06T08:00:28Z</time>
      </trkpt>
      <trkpt lat="44.08692" lon="0.97289">
        <ele>85.2</ele>
        <time>2023-07-06T08:00:29Z</time>
      </trkpt>
      <trkpt lat="44.08687" lon="0.97296">
        <ele>85.2</ele>
        <time>2023-07-06T08:00:35Z</time>
      </trkpt>
      <trkpt lat="44.08687" lon="0.97297">
        <ele>85.2</ele>
        <time>2023-07-06T08:00:36Z</time>
      </trkpt>
      <trkpt lat="44.08685" lon="0.973">
        <ele>85.2</ele>
        <time>2023-07-06T08:00:38Z</time>
      </trkpt>
      <trkpt lat="44.08679" lon="0.97309">
        <ele>85.2</ele>
        <time>2023-07-06T08:00:45Z</time>
      </trkpt>
      <trkpt lat="44.08674" lon="0.97321">
        <ele>85.4</ele>
        <time>2023-07-06T08:00:52Z</time>
      </trkpt>
      <trkpt lat="44.08672" lon="0.97325">
        <ele>85.6</ele>
        <time>2023-07-06T08:00:54Z</time>
      </trkpt>
      <trkpt lat="44.08667" lon="0.97335">
        <ele>85.4</ele>
        <time>2023-07-06T08:01:00Z</time>
      </trkpt>
      <trkpt lat="44.08665" lon="0.97338">
        <ele>85.4</ele>
        <time>2023-07-06T08:01:02Z</time>
      </trkpt>
      <trkpt lat="44.08664" lon="0.97341">
        <ele>85.4</ele>
        <time>2023-07-06T08:01:04Z</time>
      </trkpt>
      <trkpt lat="44.08659" lon="0.97347">
        <ele>85.4</ele>
        <time>2023-07-06T08:01:08Z</time>
      </trkpt>
      <trkpt lat="44.08651" lon="0.97358">
        <ele>85</ele>
        <time>2023-07-06T08:01:16Z</time>
      </trkpt>
      <trkpt lat="44.08644" lon="0.97367">
        <ele>85</ele>
        <time>2023-07-06T08:01:23Z</time>
      </trkpt>
      <trkpt lat="44.0864" lon="0.97375">
        <ele>85</ele>
        <time>2023-07-06T08:01:28Z</time>
      </trkpt>
      <trkpt lat="44.08634" lon="0.97384">
        <ele>85.2</ele>
        <time>2023-07-06T08:01:35Z</time>
      </trkpt>
      <trkpt lat="44.08633" lon="0.97385">
        <ele>85.2</ele>
        <time>2023-07-06T08:01:36Z</time>
      </trkpt>
      <trkpt lat="44.08633" lon="0.97387">
        <ele>85</ele>
        <time>2023-07-06T08:01:37Z</time>
      </trkpt>
      <trkpt lat="44.08628" lon="0.97393">
        <ele>84.8</ele>
        <time>2023-07-06T08:01:42Z</time>
      </trkpt>
      <trkpt lat="44.08627" lon="0.97395">
        <ele>84.8</ele>
        <time>2023-07-06T08:01:44Z</time>
      </trkpt>
      <trkpt lat="44.08622" lon="0.97403">
        <ele>85</ele>
        <time>2023-07-06T08:01:50Z</time>
      </trkpt>
      <trkpt lat="44.08617" lon="0.97413">
        <ele>85</ele>
        <time>2023-07-06T08:01:56Z</time>
      </trkpt>
      <trkpt lat="44.08616" lon="0.97415">
        <ele>84.8</ele>
        <time>2023-07-06T08:01:57Z</time>
      </trkpt>
      <trkpt lat="44.08609" lon="0.97426">
        <ele>84.8</ele>
        <time>2023-07-06T08:02:04Z</time>
      </trkpt>
      <trkpt lat="44.086" lon="0.97436">
        <ele>85.2</ele>
        <time>2023-07-06T08:02:12Z</time>
      </trkpt>
      <trkpt lat="44.08597" lon="0.97439">
        <ele>85</ele>
        <time>2023-07-06T08:02:15Z</time>
      </trkpt>
      <trkpt lat="44.08588" lon="0.97448">
        <ele>85</ele>
        <time>2023-07-06T08:02:23Z</time>
      </trkpt>
      <trkpt lat="44.08587" lon="0.97449">
        <ele>85</ele>
        <time>2023-07-06T08:02:24Z</time>
      </trkpt>
      <trkpt lat="44.08583" lon="0.97456">
        <ele>84.8</ele>
        <time>2023-07-06T08:02:29Z</time>
      </trkpt>
      <trkpt lat="44.08581" lon="0.97461">
        <ele>84.8</ele>
        <time>2023-07-06T08:02:32Z</time>
      </trkpt>
      <trkpt lat="44.08576" lon="0.97472">
        <ele>84.8</ele>
        <time>2023-07-06T08:02:39Z</time>
      </trkpt>
      <trkpt lat="44.0857" lon="0.97481">
        <ele>84.8</ele>
        <time>2023-07-06T08:02:47Z</time>
      </trkpt>
      <trkpt lat="44.08566" lon="0.97491">
        <ele>84.8</ele>
        <time>2023-07-06T08:02:53Z</time>
      </trkpt>
      <trkpt lat="44.08566" lon="0.97492">
        <ele>84.8</ele>
        <time>2023-07-06T08:02:54Z</time>
      </trkpt>
      <trkpt lat="44.08564" lon="0.97494">
        <ele>85</ele>
        <time>2023-07-06T08:02:56Z</time>
      </trkpt>
      <trkpt lat="44.08561" lon="0.97498">
        <ele>85.2</ele>
        <time>2023-07-06T08:02:59Z</time>
      </trkpt>
      <trkpt lat="44.08556" lon="0.97506">
        <ele>85</ele>
        <time>2023-07-06T08:03:05Z</time>
      </trkpt>
      <trkpt lat="44.08555" lon="0.97507">
        <ele>85</ele>
        <time>2023-07-06T08:03:06Z</time>
      </trkpt>
      <trkpt lat="44.08551" lon="0.97512">
        <ele>84.8</ele>
        <time>2023-07-06T08:03:10Z</time>
      </trkpt>
      <trkpt lat="44.08549" lon="0.97513">
        <ele>84.8</ele>
        <time>2023-07-06T08:03:12Z</time>
      </trkpt>
      <trkpt lat="44.08543" lon="0.97521">
        <ele>84.6</ele>
        <time>2023-07-06T08:03:21Z</time>
      </trkpt>
      <trkpt lat="44.08541" lon="0.97523">
        <ele>84.4</ele>
        <time>2023-07-06T08:03:23Z</time>
      </trkpt>
      <trkpt lat="44.08536" lon="0.97531">
        <ele>84.4</ele>
        <time>2023-07-06T08:03:28Z</time>
      </trkpt>
      <trkpt lat="44.08528" lon="0.97539">
        <ele>84</ele>
        <time>2023-07-06T08:03:35Z</time>
      </trkpt>
      <trkpt lat="44.08526" lon="0.97542">
        <ele>84</ele>
        <time>2023-07-06T08:03:37Z</time>
      </trkpt>
      <trkpt lat="44.08519" lon="0.97553">
        <ele>84.2</ele>
        <time>2023-07-06T08:03:44Z</time>
      </trkpt>
      <trkpt lat="44.08512" lon="0.97564">
        <ele>84.2</ele>
        <time>2023-07-06T08:03:52Z</time>
      </trkpt>
      <trkpt lat="44.08504" lon="0.97576">
        <ele>84</ele>
        <time>2023-07-06T08:04:00Z</time>
      </trkpt>
      <trkpt lat="44.08496" lon="0.97587">
        <ele>84</ele>
        <time>2023-07-06T08:04:08Z</time>
      </trkpt>
      <trkpt lat="44.08493" lon="0.97592">
        <ele>83.6</ele>
        <time>2023-07-06T08:04:11Z</time>
      </trkpt>
      <trkpt lat="44.08489" lon="0.97599">
        <ele>83.4</ele>
        <time>2023-07-06T08:04:15Z</time>
      </trkpt>
      <trkpt lat="44.08488" lon="0.976">
        <ele>83.6</ele>
        <time>2023-07-06T08:04:16Z</time>
      </trkpt>
      <trkpt lat="44.08487" lon="0.97601">
        <ele>83.6</ele>
        <time>2023-07-06T08:04:17Z</time>
      </trkpt>
      <trkpt lat="44.08485" lon="0.97604">
        <ele>83.6</ele>
        <time>2023-07-06T08:04:19Z</time>
      </trkpt>
      <trkpt lat="44.08483" lon="0.97607">
        <ele>83.4</ele>
        <time>2023-07-06T08:04:21Z</time>
      </trkpt>
      <trkpt lat="44.08482" lon="0.97611">
        <ele>83.2</ele>
        <time>2023-07-06T08:04:23Z</time>
      </trkpt>
      <trkpt lat="44.08481" lon="0.97614">
        <ele>83</ele>
        <time>2023-07-06T08:04:25Z</time>
      </trkpt>
      <trkpt lat="44.08474" lon="0.97624">
        <ele>82.6</ele>
        <time>2023-07-06T08:04:33Z</time>
      </trkpt>
      <trkpt lat="44.08473" lon="0.97628">
        <ele>82.4</ele>
        <time>2023-07-06T08:04:35Z</time>
      </trkpt>
      <trkpt lat="44.08466" lon="0.97638">
        <ele>81.8</ele>
        <time>2023-07-06T08:04:42Z</time>
      </trkpt>
      <trkpt lat="44.08458" lon="0.97653">
        <ele>82</ele>
        <time>2023-07-06T08:04:51Z</time>
      </trkpt>
      <trkpt lat="44.08453" lon="0.9766">
        <ele>81.6</ele>
        <time>2023-07-06T08:04:56Z</time>
      </trkpt>
      <trkpt lat="44.08452" lon="0.97661">
        <ele>81.4</ele>
        <time>2023-07-06T08:04:57Z</time>
      </trkpt>
      <trkpt lat="44.0845" lon="0.97663">
        <ele>81.4</ele>
        <time>2023-07-06T08:04:59Z</time>
      </trkpt>
      <trkpt lat="44.08446" lon="0.97672">
        <ele>81.6</ele>
        <time>2023-07-06T08:05:05Z</time>
      </trkpt>
      <trkpt lat="44.08445" lon="0.97674">
        <ele>81.6</ele>
        <time>2023-07-06T08:05:06Z</time>
      </trkpt>
      <trkpt lat="44.08443" lon="0.97681">
        <ele>81.6</ele>
        <time>2023-07-06T08:05:10Z</time>
      </trkpt>
      <trkpt lat="44.0844" lon="0.97686">
        <ele>81.6</ele>
        <time>2023-07-06T08:05:13Z</time>
      </trkpt>
      <trkpt lat="44.08439" lon="0.97693">
        <ele>81.4</ele>
        <time>2023-07-06T08:05:17Z</time>
      </trkpt>
      <trkpt lat="44.08438" lon="0.97696">
        <ele>81.4</ele>
        <time>2023-07-06T08:05:19Z</time>
      </trkpt>
      <trkpt lat="44.08438" lon="0.977">
        <ele>81.4</ele>
        <time>2023-07-06T08:05:21Z</time>
      </trkpt>
      <trkpt lat="44.08437" lon="0.97705">
        <ele>81.4</ele>
        <time>2023-07-06T08:05:25Z</time>
      </trkpt>
      <trkpt lat="44.08431" lon="0.97718">
        <ele>81.6</ele>
        <time>2023-07-06T08:05:33Z</time>
      </trkpt>
      <trkpt lat="44.08427" lon="0.97727">
        <ele>82</ele>
        <time>2023-07-06T08:05:38Z</time>
      </trkpt>
      <trkpt lat="44.08426" lon="0.9773">
        <ele>82</ele>
        <time>2023-07-06T08:05:40Z</time>
      </trkpt>
      <trkpt lat="44.08422" lon="0.97742">
        <ele>81.8</ele>
        <time>2023-07-06T08:05:47Z</time>
      </trkpt>
      <trkpt lat="44.08418" lon="0.97754">
        <ele>82.2</ele>
        <time>2023-07-06T08:05:54Z</time>
      </trkpt>
      <trkpt lat="44.08413" lon="0.97763">
        <ele>82.2</ele>
        <time>2023-07-06T08:06:00Z</time>
      </trkpt>
      <trkpt lat="44.08412" lon="0.97765">
        <ele>82.4</ele>
        <time>2023-07-06T08:06:01Z</time>
      </trkpt>
      <trkpt lat="44.08412" lon="0.97767">
        <ele>82.4</ele>
        <time>2023-07-06T08:06:02Z</time>
      </trkpt>
      <trkpt lat="44.08411" lon="0.97768">
        <ele>82.6</ele>
        <time>2023-07-06T08:06:03Z</time>
      </trkpt>
      <trkpt lat="44.0841" lon="0.97773">
        <ele>82.8</ele>
        <time>2023-07-06T08:06:06Z</time>
      </trkpt>
      <trkpt lat="44.08409" lon="0.97778">
        <ele>82.6</ele>
        <time>2023-07-06T08:06:09Z</time>
      </trkpt>
      <trkpt lat="44.08406" lon="0.97788">
        <ele>82.8</ele>
        <time>2023-07-06T08:06:15Z</time>
      </trkpt>
      <trkpt lat="44.08404" lon="0.97797">
        <ele>82.8</ele>
        <time>2023-07-06T08:06:20Z</time>
      </trkpt>
      <trkpt lat="44.08402" lon="0.97803">
        <ele>82.6</ele>
        <time>2023-07-06T08:06:23Z</time>
      </trkpt>
      <trkpt lat="44.08399" lon="0.97809">
        <ele>83</ele>
        <time>2023-07-06T08:06:27Z</time>
      </trkpt>
      <trkpt lat="44.08398" lon="0.97814">
        <ele>83.2</ele>
        <time>2023-07-06T08:06:30Z</time>
      </trkpt>
      <trkpt lat="44.08395" lon="0.97826">
        <ele>83.4</ele>
        <time>2023-07-06T08:06:38Z</time>
      </trkpt>
      <trkpt lat="44.08394" lon="0.97828">
        <ele>83.6</ele>
        <time>2023-07-06T08:06:39Z</time>
      </trkpt>
      <trkpt lat="44.08394" lon="0.9783">
        <ele>83.6</ele>
        <time>2023-07-06T08:06:40Z</time>
      </trkpt>
      <trkpt lat="44.08394" lon="0.97832">
        <ele>83.6</ele>
        <time>2023-07-06T08:06:41Z</time>
      </trkpt>
      <trkpt lat="44.08393" lon="0.97837">
        <ele>83.6</ele>
        <time>2023-07-06T08:06:44Z</time>
      </trkpt>
      <trkpt lat="44.08392" lon="0.97846">
        <ele>84.2</ele>
        <time>2023-07-06T08:06:50Z</time>
      </trkpt>
      <trkpt lat="44.08391" lon="0.97859">
        <ele>84.2</ele>
        <time>2023-07-06T08:06:58Z</time>
      </trkpt>
      <trkpt lat="44.0839" lon="0.97868">
        <ele>84.8</ele>
        <time>2023-07-06T08:07:03Z</time>
      </trkpt>
      <trkpt lat="44.0839" lon="0.97871">
        <ele>85</ele>
        <time>2023-07-06T08:07:05Z</time>
      </trkpt>
      <trkpt lat="44.0839" lon="0.97873">
        <ele>85</ele>
        <time>2023-07-06T08:07:06Z</time>
      </trkpt>
      <trkpt lat="44.08389" lon="0.97882">
        <ele>85.6</ele>
        <time>2023-07-06T08:07:11Z</time>
      </trkpt>
      <trkpt lat="44.08388" lon="0.97884">
        <ele>85.8</ele>
        <time>2023-07-06T08:07:12Z</time>
      </trkpt>
      <trkpt lat="44.08386" lon="0.97897">
        <ele>86.4</ele>
        <time>2023-07-06T08:07:19Z</time>
      </trkpt>
      <trkpt lat="44.08384" lon="0.97904">
        <ele>86.8</ele>
        <time>2023-07-06T08:07:23Z</time>
      </trkpt>
      <trkpt lat="44.08384" lon="0.9791">
        <ele>87.2</ele>
        <time>2023-07-06T08:07:26Z</time>
      </trkpt>
      <trkpt lat="44.08384" lon="0.97914">
        <ele>87.2</ele>
        <time>2023-07-06T08:07:28Z</time>
      </trkpt>
      <trkpt lat="44.08383" lon="0.97922">
        <ele>87.6</ele>
        <time>2023-07-06T08:07:33Z</time>
      </trkpt>
      <trkpt lat="44.08381" lon="0.9793">
        <ele>87.8</ele>
        <time>2023-07-06T08:07:38Z</time>
      </trkpt>
      <trkpt lat="44.08381" lon="0.97936">
        <ele>88.2</ele>
        <time>2023-07-06T08:07:42Z</time>
      </trkpt>
      <trkpt lat="44.08381" lon="0.97939">
        <ele>88.4</ele>
        <time>2023-07-06T08:07:44Z</time>
      </trkpt>
      <trkpt lat="44.08381" lon="0.9794">
        <ele>88.4</ele>
        <time>2023-07-06T08:07:45Z</time>
      </trkpt>
      <trkpt lat="44.08378" lon="0.97949">
        <ele>89</ele>
        <time>2023-07-06T08:07:50Z</time>
      </trkpt>
      <trkpt lat="44.08377" lon="0.97953">
        <ele>89.2</ele>
        <time>2023-07-06T08:07:53Z</time>
      </trkpt>
      <trkpt lat="44.08375" lon="0.97965">
        <ele>89.4</ele>
        <time>2023-07-06T08:08:00Z</time>
      </trkpt>
      <trkpt lat="44.08374" lon="0.97967">
        <ele>89.4</ele>
        <time>2023-07-06T08:08:01Z</time>
      </trkpt>
      <trkpt lat="44.08371" lon="0.97978">
        <ele>89</ele>
        <time>2023-07-06T08:08:07Z</time>
      </trkpt>
      <trkpt lat="44.08368" lon="0.97989">
        <ele>88.4</ele>
        <time>2023-07-06T08:08:13Z</time>
      </trkpt>
      <trkpt lat="44.08367" lon="0.97993">
        <ele>88.2</ele>
        <time>2023-07-06T08:08:15Z</time>
      </trkpt>
      <trkpt lat="44.08366" lon="0.97997">
        <ele>88.2</ele>
        <time>2023-07-06T08:08:17Z</time>
      </trkpt>
      <trkpt lat="44.08365" lon="0.98002">
        <ele>87.8</ele>
        <time>2023-07-06T08:08:20Z</time>
      </trkpt>
      <trkpt lat="44.08364" lon="0.98007">
        <ele>87.6</ele>
        <time>2023-07-06T08:08:23Z</time>
      </trkpt>
      <trkpt lat="44.08364" lon="0.98019">
        <ele>87.2</ele>
        <time>2023-07-06T08:08:29Z</time>
      </trkpt>
      <trkpt lat="44.08363" lon="0.98023">
        <ele>87</ele>
        <time>2023-07-06T08:08:31Z</time>
      </trkpt>
      <trkpt lat="44.08363" lon="0.98025">
        <ele>86.8</ele>
        <time>2023-07-06T08:08:32Z</time>
      </trkpt>
      <trkpt lat="44.08361" lon="0.98037">
        <ele>86.4</ele>
        <time>2023-07-06T08:08:38Z</time>
      </trkpt>
      <trkpt lat="44.08359" lon="0.9805">
        <ele>86.2</ele>
        <time>2023-07-06T08:08:45Z</time>
      </trkpt>
      <trkpt lat="44.08358" lon="0.98055">
        <ele>86.2</ele>
        <time>2023-07-06T08:08:48Z</time>
      </trkpt>
      <trkpt lat="44.08355" lon="0.9807">
        <ele>86.2</ele>
        <time>2023-07-06T08:08:56Z</time>
      </trkpt>
      <trkpt lat="44.08352" lon="0.98082">
        <ele>86.4</ele>
        <time>2023-07-06T08:09:03Z</time>
      </trkpt>
      <trkpt lat="44.08349" lon="0.98095">
        <ele>86</ele>
        <time>2023-07-06T08:09:10Z</time>
      </trkpt>
      <trkpt lat="44.08349" lon="0.98098">
        <ele>86.2</ele>
        <time>2023-07-06T08:09:12Z</time>
      </trkpt>
      <trkpt lat="44.08349" lon="0.98103">
        <ele>86</ele>
        <time>2023-07-06T08:09:16Z</time>
      </trkpt>
      <trkpt lat="44.08345" lon="0.98114">
        <ele>86</ele>
        <time>2023-07-06T08:09:22Z</time>
      </trkpt>
      <trkpt lat="44.08345" lon="0.98116">
        <ele>86</ele>
        <time>2023-07-06T08:09:23Z</time>
      </trkpt>
      <trkpt lat="44.08345" lon="0.98132">
        <ele>86</ele>
        <time>2023-07-06T08:09:31Z</time>
      </trkpt>
      <trkpt lat="44.08345" lon="0.9814">
        <ele>86</ele>
        <time>2023-07-06T08:09:35Z</time>
      </trkpt>
      <trkpt lat="44.08345" lon="0.98142">
        <ele>86</ele>
        <time>2023-07-06T08:09:36Z</time>
      </trkpt>
      <trkpt lat="44.08345" lon="0.98144">
        <ele>86</ele>
        <time>2023-07-06T08:09:37Z</time>
      </trkpt>
      <trkpt lat="44.08345" lon="0.98149">
        <ele>86</ele>
        <time>2023-07-06T08:09:39Z</time>
      </trkpt>
      <trkpt lat="44.08346" lon="0.98162">
        <ele>85.8</ele>
        <time>2023-07-06T08:09:46Z</time>
      </trkpt>
      <trkpt lat="44.08346" lon="0.98164">
        <ele>85.8</ele>
        <time>2023-07-06T08:09:47Z</time>
      </trkpt>
      <trkpt lat="44.08346" lon="0.98174">
        <ele>85.4</ele>
        <time>2023-07-06T08:09:52Z</time>
      </trkpt>
      <trkpt lat="44.08347" lon="0.98179">
        <ele>85.6</ele>
        <time>2023-07-06T08:09:55Z</time>
      </trkpt>
      <trkpt lat="44.08347" lon="0.98186">
        <ele>86</ele>
        <time>2023-07-06T08:09:59Z</time>
      </trkpt>
      <trkpt lat="44.08348" lon="0.98193">
        <ele>86.2</ele>
        <time>2023-07-06T08:10:03Z</time>
      </trkpt>
      <trkpt lat="44.08349" lon="0.98208">
        <ele>86</ele>
        <time>2023-07-06T08:10:11Z</time>
      </trkpt>
      <trkpt lat="44.08351" lon="0.9822">
        <ele>86.2</ele>
        <time>2023-07-06T08:10:18Z</time>
      </trkpt>
      <trkpt lat="44.08355" lon="0.98231">
        <ele>86.2</ele>
        <time>2023-07-06T08:10:24Z</time>
      </trkpt>
      <trkpt lat="44.08355" lon="0.98232">
        <ele>86.2</ele>
        <time>2023-07-06T08:10:25Z</time>
      </trkpt>
      <trkpt lat="44.08356" lon="0.98235">
        <ele>86.2</ele>
        <time>2023-07-06T08:10:26Z</time>
      </trkpt>
      <trkpt lat="44.08358" lon="0.98238">
        <ele>86.4</ele>
        <time>2023-07-06T08:10:28Z</time>
      </trkpt>
      <trkpt lat="44.08358" lon="0.98247">
        <ele>86.4</ele>
        <time>2023-07-06T08:10:33Z</time>
      </trkpt>
      <trkpt lat="44.0836" lon="0.98263">
        <ele>86.2</ele>
        <time>2023-07-06T08:10:42Z</time>
      </trkpt>
      <trkpt lat="44.08365" lon="0.98277">
        <ele>86.4</ele>
        <time>2023-07-06T08:10:49Z</time>
      </trkpt>
      <trkpt lat="44.08367" lon="0.98283">
        <ele>86.4</ele>
        <time>2023-07-06T08:10:52Z</time>
      </trkpt>
      <trkpt lat="44.08368" lon="0.98292">
        <ele>86.2</ele>
        <time>2023-07-06T08:10:57Z</time>
      </trkpt>
      <trkpt lat="44.08368" lon="0.98295">
        <ele>86.2</ele>
        <time>2023-07-06T08:10:59Z</time>
      </trkpt>
      <trkpt lat="44.0837" lon="0.98304">
        <ele>86.4</ele>
        <time>2023-07-06T08:11:04Z</time>
      </trkpt>
      <trkpt lat="44.08371" lon="0.98305">
        <ele>86.4</ele>
        <time>2023-07-06T08:11:05Z</time>
      </trkpt>
      <trkpt lat="44.08375" lon="0.98316">
        <ele>86.4</ele>
        <time>2023-07-06T08:11:12Z</time>
      </trkpt>
      <trkpt lat="44.08377" lon="0.98325">
        <ele>86</ele>
        <time>2023-07-06T08:11:17Z</time>
      </trkpt>
      <trkpt lat="44.08379" lon="0.98331">
        <ele>85.8</ele>
        <time>2023-07-06T08:11:21Z</time>
      </trkpt>
      <trkpt lat="44.0838" lon="0.98338">
        <ele>85.6</ele>
        <time>2023-07-06T08:11:25Z</time>
      </trkpt>
      <trkpt lat="44.08381" lon="0.98343">
        <ele>85.8</ele>
        <time>2023-07-06T08:11:28Z</time>
      </trkpt>
      <trkpt lat="44.08382" lon="0.98348">
        <ele>85.8</ele>
        <time>2023-07-06T08:11:31Z</time>
      </trkpt>
      <trkpt lat="44.08384" lon="0.98351">
        <ele>85.8</ele>
        <time>2023-07-06T08:11:33Z</time>
      </trkpt>
      <trkpt lat="44.08387" lon="0.98362">
        <ele>85.8</ele>
        <time>2023-07-06T08:11:40Z</time>
      </trkpt>
      <trkpt lat="44.08387" lon="0.98364">
        <ele>85.8</ele>
        <time>2023-07-06T08:11:41Z</time>
      </trkpt>
      <trkpt lat="44.08388" lon="0.98367">
        <ele>85.8</ele>
        <time>2023-07-06T08:11:43Z</time>
      </trkpt>
      <trkpt lat="44.08389" lon="0.98372">
        <ele>85.8</ele>
        <time>2023-07-06T08:11:46Z</time>
      </trkpt>
      <trkpt lat="44.0839" lon="0.98375">
        <ele>85.8</ele>
        <time>2023-07-06T08:11:48Z</time>
      </trkpt>
      <trkpt lat="44.08391" lon="0.9839">
        <ele>86</ele>
        <time>2023-07-06T08:11:55Z</time>
      </trkpt>
      <trkpt lat="44.08395" lon="0.98401">
        <ele>86.2</ele>
        <time>2023-07-06T08:12:02Z</time>
      </trkpt>
      <trkpt lat="44.08396" lon="0.98413">
        <ele>85.6</ele>
        <time>2023-07-06T08:12:09Z</time>
      </trkpt>
      <trkpt lat="44.08401" lon="0.98423">
        <ele>86.2</ele>
        <time>2023-07-06T08:12:16Z</time>
      </trkpt>
      <trkpt lat="44.08406" lon="0.98437">
        <ele>86</ele>
        <time>2023-07-06T08:12:25Z</time>
      </trkpt>
      <trkpt lat="44.08413" lon="0.98453">
        <ele>85.8</ele>
        <time>2023-07-06T08:12:35Z</time>
      </trkpt>
      <trkpt lat="44.08414" lon="0.98459">
        <ele>85.6</ele>
        <time>2023-07-06T08:12:39Z</time>
      </trkpt>
      <trkpt lat="44.08416" lon="0.98463">
        <ele>86</ele>
        <time>2023-07-06T08:12:42Z</time>
      </trkpt>
      <trkpt lat="44.08418" lon="0.98469">
        <ele>86</ele>
        <time>2023-07-06T08:12:46Z</time>
      </trkpt>
      <trkpt lat="44.08419" lon="0.98472">
        <ele>86</ele>
        <time>2023-07-06T08:12:48Z</time>
      </trkpt>
      <trkpt lat="44.0842" lon="0.98474">
        <ele>85.8</ele>
        <time>2023-07-06T08:12:50Z</time>
      </trkpt>
      <trkpt lat="44.08431" lon="0.98486">
        <ele>85.8</ele>
        <time>2023-07-06T08:12:58Z</time>
      </trkpt>
      <trkpt lat="44.08434" lon="0.98493">
        <ele>85.8</ele>
        <time>2023-07-06T08:13:03Z</time>
      </trkpt>
      <trkpt lat="44.08435" lon="0.98495">
        <ele>85.8</ele>
        <time>2023-07-06T08:13:04Z</time>
      </trkpt>
      <trkpt lat="44.08444" lon="0.98506">
        <ele>85.8</ele>
        <time>2023-07-06T08:13:13Z</time>
      </trkpt>
      <trkpt lat="44.08449" lon="0.98514">
        <ele>85.8</ele>
        <time>2023-07-06T08:13:20Z</time>
      </trkpt>
      <trkpt lat="44.0846" lon="0.98528">
        <ele>85.8</ele>
        <time>2023-07-06T08:13:30Z</time>
      </trkpt>
      <trkpt lat="44.08469" lon="0.98539">
        <ele>85.4</ele>
        <time>2023-07-06T08:13:39Z</time>
      </trkpt>
      <trkpt lat="44.08478" lon="0.98551">
        <ele>85.6</ele>
        <time>2023-07-06T08:13:48Z</time>
      </trkpt>
      <trkpt lat="44.08481" lon="0.98557">
        <ele>85.4</ele>
        <time>2023-07-06T08:13:52Z</time>
      </trkpt>
      <trkpt lat="44.08483" lon="0.98562">
        <ele>85.2</ele>
        <time>2023-07-06T08:13:56Z</time>
      </trkpt>
      <trkpt lat="44.08488" lon="0.98567">
        <ele>85.6</ele>
        <time>2023-07-06T08:14:00Z</time>
      </trkpt>
      <trkpt lat="44.0849" lon="0.98572">
        <ele>85.6</ele>
        <time>2023-07-06T08:14:04Z</time>
      </trkpt>
      <trkpt lat="44.08494" lon="0.98582">
        <ele>85.2</ele>
        <time>2023-07-06T08:14:10Z</time>
      </trkpt>
      <trkpt lat="44.08495" lon="0.98585">
        <ele>85.2</ele>
        <time>2023-07-06T08:14:12Z</time>
      </trkpt>
      <trkpt lat="44.08501" lon="0.98591">
        <ele>85.8</ele>
        <time>2023-07-06T08:14:17Z</time>
      </trkpt>
      <trkpt lat="44.08504" lon="0.98593">
        <ele>85.6</ele>
        <time>2023-07-06T08:14:19Z</time>
      </trkpt>
      <trkpt lat="44.08504" lon="0.98594">
        <ele>85.6</ele>
        <time>2023-07-06T08:14:21Z</time>
      </trkpt>
      <trkpt lat="44.08505" lon="0.98596">
        <ele>85.4</ele>
        <time>2023-07-06T08:14:23Z</time>
      </trkpt>
      <trkpt lat="44.08511" lon="0.98602">
        <ele>85.4</ele>
        <time>2023-07-06T08:14:29Z</time>
      </trkpt>
      <trkpt lat="44.08511" lon="0.98603">
        <ele>85.4</ele>
        <time>2023-07-06T08:14:30Z</time>
      </trkpt>
      <trkpt lat="44.08521" lon="0.9861">
        <ele>85.4</ele>
        <time>2023-07-06T08:14:35Z</time>
      </trkpt>
      <trkpt lat="44.08526" lon="0.98621">
        <ele>85.2</ele>
        <time>2023-07-06T08:14:42Z</time>
      </trkpt>
      <trkpt lat="44.08531" lon="0.98626">
        <ele>85.4</ele>
        <time>2023-07-06T08:14:47Z</time>
      </trkpt>
      <trkpt lat="44.08535" lon="0.98631">
        <ele>85.4</ele>
        <time>2023-07-06T08:14:51Z</time>
      </trkpt>
      <trkpt lat="44.08539" lon="0.98638">
        <ele>85</ele>
        <time>2023-07-06T08:14:56Z</time>
      </trkpt>
      <trkpt lat="44.08541" lon="0.9864">
        <ele>85</ele>
        <time>2023-07-06T08:14:58Z</time>
      </trkpt>
      <trkpt lat="44.08548" lon="0.98649">
        <ele>85.2</ele>
        <time>2023-07-06T08:15:04Z</time>
      </trkpt>
      <trkpt lat="44.08554" lon="0.9866">
        <ele>85.2</ele>
        <time>2023-07-06T08:15:13Z</time>
      </trkpt>
      <trkpt lat="44.0856" lon="0.98668">
        <ele>85.4</ele>
        <time>2023-07-06T08:15:19Z</time>
      </trkpt>
      <trkpt lat="44.08562" lon="0.98672">
        <ele>85.2</ele>
        <time>2023-07-06T08:15:22Z</time>
      </trkpt>
      <trkpt lat="44.08563" lon="0.98673">
        <ele>85.2</ele>
        <time>2023-07-06T08:15:23Z</time>
      </trkpt>
      <trkpt lat="44.08564" lon="0.98674">
        <ele>85.2</ele>
        <time>2023-07-06T08:15:24Z</time>
      </trkpt>
      <trkpt lat="44.08566" lon="0.98677">
        <ele>85.2</ele>
        <time>2023-07-06T08:15:26Z</time>
      </trkpt>
      <trkpt lat="44.08567" lon="0.98679">
        <ele>85.2</ele>
        <time>2023-07-06T08:15:28Z</time>
      </trkpt>
      <trkpt lat="44.08572" lon="0.98685">
        <ele>85.4</ele>
        <time>2023-07-06T08:15:33Z</time>
      </trkpt>
      <trkpt lat="44.08575" lon="0.98689">
        <ele>85.4</ele>
        <time>2023-07-06T08:15:36Z</time>
      </trkpt>
      <trkpt lat="44.08583" lon="0.987">
        <ele>85</ele>
        <time>2023-07-06T08:15:44Z</time>
      </trkpt>
      <trkpt lat="44.08584" lon="0.98701">
        <ele>85</ele>
        <time>2023-07-06T08:15:45Z</time>
      </trkpt>
      <trkpt lat="44.08591" lon="0.98713">
        <ele>85.4</ele>
        <time>2023-07-06T08:15:53Z</time>
      </trkpt>
      <trkpt lat="44.08591" lon="0.98714">
        <ele>85.2</ele>
        <time>2023-07-06T08:15:54Z</time>
      </trkpt>
      <trkpt lat="44.08592" lon="0.98717">
        <ele>85.2</ele>
        <time>2023-07-06T08:15:56Z</time>
      </trkpt>
      <trkpt lat="44.08594" lon="0.98718">
        <ele>85.2</ele>
        <time>2023-07-06T08:15:57Z</time>
      </trkpt>
      <trkpt lat="44.08596" lon="0.98721">
        <ele>85</ele>
        <time>2023-07-06T08:15:59Z</time>
      </trkpt>
      <trkpt lat="44.08598" lon="0.98723">
        <ele>85</ele>
        <time>2023-07-06T08:16:01Z</time>
      </trkpt>
      <trkpt lat="44.086" lon="0.98728">
        <ele>85</ele>
        <time>2023-07-06T08:16:04Z</time>
      </trkpt>
      <trkpt lat="44.08602" lon="0.98732">
        <ele>85.2</ele>
        <time>2023-07-06T08:16:07Z</time>
      </trkpt>
      <trkpt lat="44.08605" lon="0.98735">
        <ele>85.2</ele>
        <time>2023-07-06T08:16:10Z</time>
      </trkpt>
      <trkpt lat="44.08607" lon="0.98739">
        <ele>85</ele>
        <time>2023-07-06T08:16:13Z</time>
      </trkpt>
      <trkpt lat="44.08612" lon="0.98745">
        <ele>85</ele>
        <time>2023-07-06T08:16:18Z</time>
      </trkpt>
      <trkpt lat="44.0862" lon="0.98755">
        <ele>85</ele>
        <time>2023-07-06T08:16:26Z</time>
      </trkpt>
      <trkpt lat="44.08623" lon="0.98758">
        <ele>85</ele>
        <time>2023-07-06T08:16:28Z</time>
      </trkpt>
      <trkpt lat="44.08689" lon="0.98848">
        <ele>84.6</ele>
        <time>2023-07-06T08:53:06Z</time>
      </trkpt>
      <trkpt lat="44.08691" lon="0.98848">
        <ele>84.6</ele>
        <time>2023-07-06T08:53:07Z</time>
      </trkpt>
      <trkpt lat="44.08694" lon="0.98851">
        <ele>84.6</ele>
        <time>2023-07-06T08:53:10Z</time>
      </trkpt>
      <trkpt lat="44.08695" lon="0.98853">
        <ele>84.6</ele>
        <time>2023-07-06T08:53:11Z</time>
      </trkpt>
      <trkpt lat="44.08699" lon="0.98862">
        <ele>84.6</ele>
        <time>2023-07-06T08:53:15Z</time>
      </trkpt>
      <trkpt lat="44.08701" lon="0.98864">
        <ele>84.6</ele>
        <time>2023-07-06T08:53:17Z</time>
      </trkpt>
      <trkpt lat="44.08709" lon="0.98869">
        <ele>84.6</ele>
        <time>2023-07-06T08:53:24Z</time>
      </trkpt>
      <trkpt lat="44.08713" lon="0.98875">
        <ele>84.6</ele>
        <time>2023-07-06T08:53:29Z</time>
      </trkpt>
      <trkpt lat="44.08715" lon="0.98877">
        <ele>84.6</ele>
        <time>2023-07-06T08:53:31Z</time>
      </trkpt>
      <trkpt lat="44.08719" lon="0.98884">
        <ele>84.8</ele>
        <time>2023-07-06T08:53:36Z</time>
      </trkpt>
      <trkpt lat="44.08721" lon="0.98887">
        <ele>84.8</ele>
        <time>2023-07-06T08:53:38Z</time>
      </trkpt>
      <trkpt lat="44.08722" lon="0.98889">
        <ele>84.8</ele>
        <time>2023-07-06T08:53:39Z</time>
      </trkpt>
      <trkpt lat="44.08728" lon="0.989">
        <ele>84.8</ele>
        <time>2023-07-06T08:53:48Z</time>
      </trkpt>
      <trkpt lat="44.08734" lon="0.9891">
        <ele>84.4</ele>
        <time>2023-07-06T08:53:56Z</time>
      </trkpt>
      <trkpt lat="44.0874" lon="0.98919">
        <ele>84.2</ele>
        <time>2023-07-06T08:54:02Z</time>
      </trkpt>
      <trkpt lat="44.08748" lon="0.98929">
        <ele>84.6</ele>
        <time>2023-07-06T08:54:11Z</time>
      </trkpt>
      <trkpt lat="44.08759" lon="0.98941">
        <ele>84.6</ele>
        <time>2023-07-06T08:54:21Z</time>
      </trkpt>
      <trkpt lat="44.08768" lon="0.98948">
        <ele>84.8</ele>
        <time>2023-07-06T08:54:28Z</time>
      </trkpt>
      <trkpt lat="44.08775" lon="0.98958">
        <ele>84.8</ele>
        <time>2023-07-06T08:54:36Z</time>
      </trkpt>
      <trkpt lat="44.08779" lon="0.98961">
        <ele>84.6</ele>
        <time>2023-07-06T08:54:39Z</time>
      </trkpt>
      <trkpt lat="44.08781" lon="0.98965">
        <ele>84.6</ele>
        <time>2023-07-06T08:54:42Z</time>
      </trkpt>
      <trkpt lat="44.08783" lon="0.98968">
        <ele>84.6</ele>
        <time>2023-07-06T08:54:44Z</time>
      </trkpt>
      <trkpt lat="44.08793" lon="0.98977">
        <ele>85</ele>
        <time>2023-07-06T08:54:53Z</time>
      </trkpt>
      <trkpt lat="44.08798" lon="0.98987">
        <ele>84.8</ele>
        <time>2023-07-06T08:55:00Z</time>
      </trkpt>
      <trkpt lat="44.08807" lon="0.99001">
        <ele>84.6</ele>
        <time>2023-07-06T08:55:10Z</time>
      </trkpt>
      <trkpt lat="44.08814" lon="0.9901">
        <ele>84.6</ele>
        <time>2023-07-06T08:55:17Z</time>
      </trkpt>
      <trkpt lat="44.08819" lon="0.99017">
        <ele>84.6</ele>
        <time>2023-07-06T08:55:23Z</time>
      </trkpt>
      <trkpt lat="44.08823" lon="0.99026">
        <ele>84.6</ele>
        <time>2023-07-06T08:55:30Z</time>
      </trkpt>
      <trkpt lat="44.0883" lon="0.99036">
        <ele>84.6</ele>
        <time>2023-07-06T08:55:38Z</time>
      </trkpt>
      <trkpt lat="44.08831" lon="0.99037">
        <ele>84.6</ele>
        <time>2023-07-06T08:55:39Z</time>
      </trkpt>
      <trkpt lat="44.08834" lon="0.99037">
        <ele>84.6</ele>
        <time>2023-07-06T08:55:40Z</time>
      </trkpt>
      <trkpt lat="44.08836" lon="0.99042">
        <ele>84.4</ele>
        <time>2023-07-06T08:55:44Z</time>
      </trkpt>
      <trkpt lat="44.08843" lon="0.99051">
        <ele>84.6</ele>
        <time>2023-07-06T08:55:51Z</time>
      </trkpt>
      <trkpt lat="44.0885" lon="0.99059">
        <ele>84.8</ele>
        <time>2023-07-06T08:55:57Z</time>
      </trkpt>
      <trkpt lat="44.08854" lon="0.99066">
        <ele>84.6</ele>
        <time>2023-07-06T08:56:02Z</time>
      </trkpt>
      <trkpt lat="44.08855" lon="0.99068">
        <ele>84.6</ele>
        <time>2023-07-06T08:56:03Z</time>
      </trkpt>
      <trkpt lat="44.08856" lon="0.99071">
        <ele>84.4</ele>
        <time>2023-07-06T08:56:05Z</time>
      </trkpt>
      <trkpt lat="44.08864" lon="0.99078">
        <ele>84.4</ele>
        <time>2023-07-06T08:56:12Z</time>
      </trkpt>
      <trkpt lat="44.08865" lon="0.99079">
        <ele>84.4</ele>
        <time>2023-07-06T08:56:13Z</time>
      </trkpt>
      <trkpt lat="44.08868" lon="0.99086">
        <ele>84.6</ele>
        <time>2023-07-06T08:56:18Z</time>
      </trkpt>
      <trkpt lat="44.0887" lon="0.99091">
        <ele>84.4</ele>
        <time>2023-07-06T08:56:21Z</time>
      </trkpt>
      <trkpt lat="44.08875" lon="0.99098">
        <ele>84.4</ele>
        <time>2023-07-06T08:56:26Z</time>
      </trkpt>
      <trkpt lat="44.08881" lon="0.99104">
        <ele>84.4</ele>
        <time>2023-07-06T08:56:32Z</time>
      </trkpt>
      <trkpt lat="44.08884" lon="0.99107">
        <ele>84.4</ele>
        <time>2023-07-06T08:56:35Z</time>
      </trkpt>
      <trkpt lat="44.08886" lon="0.99111">
        <ele>84.4</ele>
        <time>2023-07-06T08:56:37Z</time>
      </trkpt>
      <trkpt lat="44.08889" lon="0.99115">
        <ele>84.6</ele>
        <time>2023-07-06T08:56:40Z</time>
      </trkpt>
      <trkpt lat="44.0889" lon="0.99117">
        <ele>84.6</ele>
        <time>2023-07-06T08:56:41Z</time>
      </trkpt>
      <trkpt lat="44.08897" lon="0.99126">
        <ele>84.8</ele>
        <time>2023-07-06T08:56:49Z</time>
      </trkpt>
      <trkpt lat="44.08901" lon="0.9913">
        <ele>84.6</ele>
        <time>2023-07-06T08:56:52Z</time>
      </trkpt>
      <trkpt lat="44.08904" lon="0.99135">
        <ele>84.6</ele>
        <time>2023-07-06T08:56:56Z</time>
      </trkpt>
      <trkpt lat="44.0891" lon="0.99143">
        <ele>84.6</ele>
        <time>2023-07-06T08:57:02Z</time>
      </trkpt>
      <trkpt lat="44.08911" lon="0.99145">
        <ele>84.6</ele>
        <time>2023-07-06T08:57:04Z</time>
      </trkpt>
      <trkpt lat="44.08913" lon="0.99148">
        <ele>84.6</ele>
        <time>2023-07-06T08:57:06Z</time>
      </trkpt>
      <trkpt lat="44.08916" lon="0.99153">
        <ele>84.4</ele>
        <time>2023-07-06T08:57:09Z</time>
      </trkpt>
      <trkpt lat="44.08924" lon="0.99162">
        <ele>84.4</ele>
        <time>2023-07-06T08:57:16Z</time>
      </trkpt>
      <trkpt lat="44.08925" lon="0.99162">
        <ele>84.4</ele>
        <time>2023-07-06T08:57:17Z</time>
      </trkpt>
      <trkpt lat="44.08933" lon="0.99173">
        <ele>84.6</ele>
        <time>2023-07-06T08:57:27Z</time>
      </trkpt>
      <trkpt lat="44.08935" lon="0.99176">
        <ele>84.4</ele>
        <time>2023-07-06T08:57:29Z</time>
      </trkpt>
      <trkpt lat="44.08938" lon="0.99182">
        <ele>84.2</ele>
        <time>2023-07-06T08:57:33Z</time>
      </trkpt>
      <trkpt lat="44.08946" lon="0.99192">
        <ele>84.4</ele>
        <time>2023-07-06T08:57:40Z</time>
      </trkpt>
      <trkpt lat="44.08952" lon="0.99201">
        <ele>84.4</ele>
        <time>2023-07-06T08:57:46Z</time>
      </trkpt>
      <trkpt lat="44.08957" lon="0.99211">
        <ele>84.4</ele>
        <time>2023-07-06T08:57:53Z</time>
      </trkpt>
      <trkpt lat="44.08962" lon="0.99222">
        <ele>84.2</ele>
        <time>2023-07-06T08:58:00Z</time>
      </trkpt>
      <trkpt lat="44.08963" lon="0.99229">
        <ele>84.6</ele>
        <time>2023-07-06T08:58:04Z</time>
      </trkpt>
      <trkpt lat="44.08964" lon="0.99231">
        <ele>84.6</ele>
        <time>2023-07-06T08:58:05Z</time>
      </trkpt>
      <trkpt lat="44.08965" lon="0.99234">
        <ele>84.6</ele>
        <time>2023-07-06T08:58:07Z</time>
      </trkpt>
      <trkpt lat="44.08972" lon="0.99246">
        <ele>84.4</ele>
        <time>2023-07-06T08:58:16Z</time>
      </trkpt>
      <trkpt lat="44.08973" lon="0.99247">
        <ele>84.4</ele>
        <time>2023-07-06T08:58:17Z</time>
      </trkpt>
      <trkpt lat="44.08975" lon="0.99249">
        <ele>84.4</ele>
        <time>2023-07-06T08:58:19Z</time>
      </trkpt>
      <trkpt lat="44.08977" lon="0.99252">
        <ele>84.4</ele>
        <time>2023-07-06T08:58:21Z</time>
      </trkpt>
      <trkpt lat="44.08979" lon="0.99259">
        <ele>84.2</ele>
        <time>2023-07-06T08:58:26Z</time>
      </trkpt>
      <trkpt lat="44.0898" lon="0.99263">
        <ele>84.2</ele>
        <time>2023-07-06T08:58:28Z</time>
      </trkpt>
      <trkpt lat="44.0898" lon="0.99265">
        <ele>84.2</ele>
        <time>2023-07-06T08:58:29Z</time>
      </trkpt>
      <trkpt lat="44.08984" lon="0.99272">
        <ele>84.2</ele>
        <time>2023-07-06T08:58:33Z</time>
      </trkpt>
      <trkpt lat="44.08989" lon="0.99282">
        <ele>84</ele>
        <time>2023-07-06T08:58:40Z</time>
      </trkpt>
      <trkpt lat="44.08989" lon="0.99283">
        <ele>84</ele>
        <time>2023-07-06T08:58:41Z</time>
      </trkpt>
      <trkpt lat="44.0899" lon="0.99291">
        <ele>84.2</ele>
        <time>2023-07-06T08:58:46Z</time>
      </trkpt>
      <trkpt lat="44.08993" lon="0.99296">
        <ele>84.2</ele>
        <time>2023-07-06T08:58:49Z</time>
      </trkpt>
      <trkpt lat="44.08996" lon="0.99304">
        <ele>84</ele>
        <time>2023-07-06T08:58:54Z</time>
      </trkpt>
      <trkpt lat="44.09002" lon="0.99318">
        <ele>84.2</ele>
        <time>2023-07-06T08:59:02Z</time>
      </trkpt>
      <trkpt lat="44.09005" lon="0.99328">
        <ele>84.4</ele>
        <time>2023-07-06T08:59:09Z</time>
      </trkpt>
      <trkpt lat="44.0901" lon="0.99338">
        <ele>84.2</ele>
        <time>2023-07-06T08:59:16Z</time>
      </trkpt>
      <trkpt lat="44.09016" lon="0.99348">
        <ele>84.2</ele>
        <time>2023-07-06T08:59:22Z</time>
      </trkpt>
      <trkpt lat="44.09016" lon="0.99352">
        <ele>84.2</ele>
        <time>2023-07-06T08:59:24Z</time>
      </trkpt>
      <trkpt lat="44.09019" lon="0.9936">
        <ele>83.8</ele>
        <time>2023-07-06T08:59:29Z</time>
      </trkpt>
      <trkpt lat="44.09021" lon="0.99366">
        <ele>83.8</ele>
        <time>2023-07-06T08:59:32Z</time>
      </trkpt>
      <trkpt lat="44.09023" lon="0.99371">
        <ele>84</ele>
        <time>2023-07-06T08:59:35Z</time>
      </trkpt>
      <trkpt lat="44.09024" lon="0.99377">
        <ele>84.4</ele>
        <time>2023-07-06T08:59:39Z</time>
      </trkpt>
      <trkpt lat="44.09027" lon="0.99389">
        <ele>84.4</ele>
        <time>2023-07-06T08:59:46Z</time>
      </trkpt>
      <trkpt lat="44.09028" lon="0.99398">
        <ele>84</ele>
        <time>2023-07-06T08:59:52Z</time>
      </trkpt>
      <trkpt lat="44.09032" lon="0.99409">
        <ele>84.2</ele>
        <time>2023-07-06T08:59:58Z</time>
      </trkpt>
      <trkpt lat="44.09032" lon="0.9941">
        <ele>84.2</ele>
        <time>2023-07-06T08:59:59Z</time>
      </trkpt>
      <trkpt lat="44.09033" lon="0.99416">
        <ele>84</ele>
        <time>2023-07-06T09:00:03Z</time>
      </trkpt>
      <trkpt lat="44.09034" lon="0.99419">
        <ele>84</ele>
        <time>2023-07-06T09:00:05Z</time>
      </trkpt>
      <trkpt lat="44.09038" lon="0.99432">
        <ele>84</ele>
        <time>2023-07-06T09:00:12Z</time>
      </trkpt>
      <trkpt lat="44.09041" lon="0.99445">
        <ele>84</ele>
        <time>2023-07-06T09:00:19Z</time>
      </trkpt>
      <trkpt lat="44.09043" lon="0.9946">
        <ele>83.8</ele>
        <time>2023-07-06T09:00:27Z</time>
      </trkpt>
      <trkpt lat="44.09043" lon="0.99462">
        <ele>83.8</ele>
        <time>2023-07-06T09:00:28Z</time>
      </trkpt>
      <trkpt lat="44.09043" lon="0.99468">
        <ele>83.8</ele>
        <time>2023-07-06T09:00:31Z</time>
      </trkpt>
      <trkpt lat="44.09043" lon="0.99473">
        <ele>83.8</ele>
        <time>2023-07-06T09:00:34Z</time>
      </trkpt>
      <trkpt lat="44.09043" lon="0.99476">
        <ele>84</ele>
        <time>2023-07-06T09:00:36Z</time>
      </trkpt>
      <trkpt lat="44.09043" lon="0.99487">
        <ele>83.8</ele>
        <time>2023-07-06T09:00:41Z</time>
      </trkpt>
      <trkpt lat="44.09042" lon="0.99498">
        <ele>83.8</ele>
        <time>2023-07-06T09:00:48Z</time>
      </trkpt>
      <trkpt lat="44.09043" lon="0.99505">
        <ele>84</ele>
        <time>2023-07-06T09:00:52Z</time>
      </trkpt>
      <trkpt lat="44.09043" lon="0.99506">
        <ele>84</ele>
        <time>2023-07-06T09:00:53Z</time>
      </trkpt>
      <trkpt lat="44.09043" lon="0.99509">
        <ele>84</ele>
        <time>2023-07-06T09:00:55Z</time>
      </trkpt>
      <trkpt lat="44.09044" lon="0.99524">
        <ele>84.2</ele>
        <time>2023-07-06T09:01:03Z</time>
      </trkpt>
      <trkpt lat="44.09046" lon="0.99527">
        <ele>83.8</ele>
        <time>2023-07-06T09:01:05Z</time>
      </trkpt>
      <trkpt lat="44.09046" lon="0.99529">
        <ele>83.8</ele>
        <time>2023-07-06T09:01:07Z</time>
      </trkpt>
      <trkpt lat="44.09046" lon="0.99531">
        <ele>83.8</ele>
        <time>2023-07-06T09:01:08Z</time>
      </trkpt>
      <trkpt lat="44.09046" lon="0.99535">
        <ele>84</ele>
        <time>2023-07-06T09:01:11Z</time>
      </trkpt>
      <trkpt lat="44.09048" lon="0.99548">
        <ele>84.2</ele>
        <time>2023-07-06T09:01:18Z</time>
      </trkpt>
      <trkpt lat="44.09048" lon="0.9955">
        <ele>84.2</ele>
        <time>2023-07-06T09:01:19Z</time>
      </trkpt>
      <trkpt lat="44.09046" lon="0.99566">
        <ele>84</ele>
        <time>2023-07-06T09:01:27Z</time>
      </trkpt>
      <trkpt lat="44.09047" lon="0.99572">
        <ele>84</ele>
        <time>2023-07-06T09:01:30Z</time>
      </trkpt>
      <trkpt lat="44.09047" lon="0.99575">
        <ele>84</ele>
        <time>2023-07-06T09:01:32Z</time>
      </trkpt>
      <trkpt lat="44.09048" lon="0.9958">
        <ele>83.8</ele>
        <time>2023-07-06T09:01:35Z</time>
      </trkpt>
      <trkpt lat="44.09048" lon="0.99585">
        <ele>84</ele>
        <time>2023-07-06T09:01:38Z</time>
      </trkpt>
      <trkpt lat="44.09048" lon="0.99589">
        <ele>84</ele>
        <time>2023-07-06T09:01:40Z</time>
      </trkpt>
      <trkpt lat="44.09049" lon="0.99592">
        <ele>84</ele>
        <time>2023-07-06T09:01:42Z</time>
      </trkpt>
      <trkpt lat="44.09049" lon="0.99593">
        <ele>84</ele>
        <time>2023-07-06T09:01:43Z</time>
      </trkpt>
      <trkpt lat="44.09051" lon="0.99606">
        <ele>84</ele>
        <time>2023-07-06T09:01:50Z</time>
      </trkpt>
      <trkpt lat="44.09052" lon="0.99618">
        <ele>84</ele>
        <time>2023-07-06T09:01:56Z</time>
      </trkpt>
      <trkpt lat="44.09053" lon="0.9962">
        <ele>84</ele>
        <time>2023-07-06T09:01:57Z</time>
      </trkpt>
      <trkpt lat="44.09057" lon="0.9963">
        <ele>84.2</ele>
        <time>2023-07-06T09:02:03Z</time>
      </trkpt>
      <trkpt lat="44.0906" lon="0.99643">
        <ele>84.2</ele>
        <time>2023-07-06T09:02:11Z</time>
      </trkpt>
      <trkpt lat="44.09061" lon="0.99655">
        <ele>84.2</ele>
        <time>2023-07-06T09:02:18Z</time>
      </trkpt>
      <trkpt lat="44.0906" lon="0.99663">
        <ele>84</ele>
        <time>2023-07-06T09:02:22Z</time>
      </trkpt>
      <trkpt lat="44.0906" lon="0.99665">
        <ele>84</ele>
        <time>2023-07-06T09:02:24Z</time>
      </trkpt>
      <trkpt lat="44.0906" lon="0.99667">
        <ele>84</ele>
        <time>2023-07-06T09:02:25Z</time>
      </trkpt>
      <trkpt lat="44.09061" lon="0.99678">
        <ele>84</ele>
        <time>2023-07-06T09:02:31Z</time>
      </trkpt>
      <trkpt lat="44.09062" lon="0.99696">
        <ele>84.4</ele>
        <time>2023-07-06T09:02:41Z</time>
      </trkpt>
      <trkpt lat="44.09064" lon="0.99707">
        <ele>84.4</ele>
        <time>2023-07-06T09:02:47Z</time>
      </trkpt>
      <trkpt lat="44.09065" lon="0.9971">
        <ele>84.4</ele>
        <time>2023-07-06T09:02:48Z</time>
      </trkpt>
      <trkpt lat="44.09069" lon="0.99724">
        <ele>84.2</ele>
        <time>2023-07-06T09:02:56Z</time>
      </trkpt>
      <trkpt lat="44.09071" lon="0.99742">
        <ele>84.4</ele>
        <time>2023-07-06T09:03:05Z</time>
      </trkpt>
      <trkpt lat="44.09072" lon="0.99745">
        <ele>84.4</ele>
        <time>2023-07-06T09:03:07Z</time>
      </trkpt>
      <trkpt lat="44.09072" lon="0.99747">
        <ele>84.4</ele>
        <time>2023-07-06T09:03:08Z</time>
      </trkpt>
      <trkpt lat="44.09072" lon="0.9975">
        <ele>84.4</ele>
        <time>2023-07-06T09:03:10Z</time>
      </trkpt>
      <trkpt lat="44.09073" lon="0.99754">
        <ele>84.4</ele>
        <time>2023-07-06T09:03:12Z</time>
      </trkpt>
      <trkpt lat="44.09076" lon="0.9977">
        <ele>84</ele>
        <time>2023-07-06T09:03:21Z</time>
      </trkpt>
      <trkpt lat="44.09076" lon="0.99776">
        <ele>84.2</ele>
        <time>2023-07-06T09:03:24Z</time>
      </trkpt>
      <trkpt lat="44.09077" lon="0.99785">
        <ele>84.2</ele>
        <time>2023-07-06T09:03:29Z</time>
      </trkpt>
      <trkpt lat="44.09077" lon="0.99799">
        <ele>84.2</ele>
        <time>2023-07-06T09:03:36Z</time>
      </trkpt>
      <trkpt lat="44.09077" lon="0.99805">
        <ele>84.2</ele>
        <time>2023-07-06T09:03:39Z</time>
      </trkpt>
      <trkpt lat="44.09079" lon="0.99812">
        <ele>84</ele>
        <time>2023-07-06T09:03:43Z</time>
      </trkpt>
      <trkpt lat="44.0908" lon="0.99827">
        <ele>84.2</ele>
        <time>2023-07-06T09:03:51Z</time>
      </trkpt>
      <trkpt lat="44.09082" lon="0.99834">
        <ele>84.2</ele>
        <time>2023-07-06T09:03:55Z</time>
      </trkpt>
      <trkpt lat="44.09082" lon="0.99841">
        <ele>84.4</ele>
        <time>2023-07-06T09:03:59Z</time>
      </trkpt>
      <trkpt lat="44.09082" lon="0.99842">
        <ele>84.4</ele>
        <time>2023-07-06T09:04:00Z</time>
      </trkpt>
      <trkpt lat="44.09082" lon="0.99843">
        <ele>84.6</ele>
        <time>2023-07-06T09:04:01Z</time>
      </trkpt>
      <trkpt lat="44.09085" lon="0.99855">
        <ele>84.2</ele>
        <time>2023-07-06T09:04:07Z</time>
      </trkpt>
      <trkpt lat="44.09085" lon="0.99861">
        <ele>84.2</ele>
        <time>2023-07-06T09:04:10Z</time>
      </trkpt>
      <trkpt lat="44.09086" lon="0.99869">
        <ele>84.4</ele>
        <time>2023-07-06T09:04:14Z</time>
      </trkpt>
      <trkpt lat="44.09086" lon="0.99885">
        <ele>84.2</ele>
        <time>2023-07-06T09:04:22Z</time>
      </trkpt>
      <trkpt lat="44.09089" lon="0.999">
        <ele>84.2</ele>
        <time>2023-07-06T09:04:30Z</time>
      </trkpt>
      <trkpt lat="44.09089" lon="0.99915">
        <ele>84.2</ele>
        <time>2023-07-06T09:04:38Z</time>
      </trkpt>
      <trkpt lat="44.0909" lon="0.99931">
        <ele>84</ele>
        <time>2023-07-06T09:04:46Z</time>
      </trkpt>
      <trkpt lat="44.0909" lon="0.99937">
        <ele>84.2</ele>
        <time>2023-07-06T09:04:49Z</time>
      </trkpt>
      <trkpt lat="44.09094" lon="0.99948">
        <ele>84.4</ele>
        <time>2023-07-06T09:04:55Z</time>
      </trkpt>
      <trkpt lat="44.09096" lon="0.99957">
        <ele>84.2</ele>
        <time>2023-07-06T09:04:59Z</time>
      </trkpt>
      <trkpt lat="44.09097" lon="0.99962">
        <ele>84</ele>
        <time>2023-07-06T09:05:02Z</time>
      </trkpt>
      <trkpt lat="44.09099" lon="0.9998">
        <ele>84</ele>
        <time>2023-07-06T09:05:11Z</time>
      </trkpt>
      <trkpt lat="44.091" lon="0.99994">
        <ele>84.2</ele>
        <time>2023-07-06T09:05:18Z</time>
      </trkpt>
      <trkpt lat="44.09103" lon="1.00009">
        <ele>84</ele>
        <time>2023-07-06T09:05:26Z</time>
      </trkpt>
      <trkpt lat="44.09103" lon="1.00011">
        <ele>84</ele>
        <time>2023-07-06T09:05:27Z</time>
      </trkpt>
      <trkpt lat="44.09103" lon="1.00015">
        <ele>84</ele>
        <time>2023-07-06T09:05:29Z</time>
      </trkpt>
      <trkpt lat="44.09105" lon="1.00019">
        <ele>84</ele>
        <time>2023-07-06T09:05:31Z</time>
      </trkpt>
      <trkpt lat="44.09105" lon="1.00026">
        <ele>84</ele>
        <time>2023-07-06T09:05:35Z</time>
      </trkpt>
      <trkpt lat="44.09107" lon="1.00042">
        <ele>84.2</ele>
        <time>2023-07-06T09:05:44Z</time>
      </trkpt>
      <trkpt lat="44.09109" lon="1.00057">
        <ele>84</ele>
        <time>2023-07-06T09:05:52Z</time>
      </trkpt>
      <trkpt lat="44.09111" lon="1.00066">
        <ele>83.6</ele>
        <time>2023-07-06T09:05:57Z</time>
      </trkpt>
      <trkpt lat="44.09112" lon="1.00071">
        <ele>83.8</ele>
        <time>2023-07-06T09:06:00Z</time>
      </trkpt>
      <trkpt lat="44.09113" lon="1.00078">
        <ele>84</ele>
        <time>2023-07-06T09:06:04Z</time>
      </trkpt>
      <trkpt lat="44.09113" lon="1.00083">
        <ele>83.8</ele>
        <time>2023-07-06T09:06:07Z</time>
      </trkpt>
      <trkpt lat="44.09113" lon="1.00089">
        <ele>83.8</ele>
        <time>2023-07-06T09:06:10Z</time>
      </trkpt>
      <trkpt lat="44.09116" lon="1.00106">
        <ele>84</ele>
        <time>2023-07-06T09:06:19Z</time>
      </trkpt>
      <trkpt lat="44.09118" lon="1.00114">
        <ele>84</ele>
        <time>2023-07-06T09:06:23Z</time>
      </trkpt>
      <trkpt lat="44.09119" lon="1.0012">
        <ele>84.2</ele>
        <time>2023-07-06T09:06:27Z</time>
      </trkpt>
      <trkpt lat="44.0912" lon="1.00129">
        <ele>84</ele>
        <time>2023-07-06T09:06:32Z</time>
      </trkpt>
      <trkpt lat="44.0912" lon="1.00131">
        <ele>84</ele>
        <time>2023-07-06T09:06:33Z</time>
      </trkpt>
      <trkpt lat="44.09119" lon="1.00134">
        <ele>84</ele>
        <time>2023-07-06T09:06:35Z</time>
      </trkpt>
      <trkpt lat="44.09123" lon="1.00152">
        <ele>84.2</ele>
        <time>2023-07-06T09:06:45Z</time>
      </trkpt>
      <trkpt lat="44.09126" lon="1.00168">
        <ele>84.4</ele>
        <time>2023-07-06T09:06:54Z</time>
      </trkpt>
      <trkpt lat="44.09127" lon="1.00184">
        <ele>84.2</ele>
        <time>2023-07-06T09:07:02Z</time>
      </trkpt>
      <trkpt lat="44.09128" lon="1.00189">
        <ele>84.2</ele>
        <time>2023-07-06T09:07:05Z</time>
      </trkpt>
      <trkpt lat="44.09128" lon="1.00198">
        <ele>84</ele>
        <time>2023-07-06T09:07:10Z</time>
      </trkpt>
      <trkpt lat="44.0913" lon="1.00207">
        <ele>84</ele>
        <time>2023-07-06T09:07:15Z</time>
      </trkpt>
      <trkpt lat="44.09131" lon="1.0021">
        <ele>84</ele>
        <time>2023-07-06T09:07:17Z</time>
      </trkpt>
      <trkpt lat="44.09135" lon="1.00226">
        <ele>84</ele>
        <time>2023-07-06T09:07:26Z</time>
      </trkpt>
      <trkpt lat="44.09135" lon="1.00237">
        <ele>84.2</ele>
        <time>2023-07-06T09:07:32Z</time>
      </trkpt>
      <trkpt lat="44.09136" lon="1.00256">
        <ele>84.2</ele>
        <time>2023-07-06T09:07:42Z</time>
      </trkpt>
      <trkpt lat="44.09141" lon="1.00263">
        <ele>84.2</ele>
        <time>2023-07-06T09:07:46Z</time>
      </trkpt>
      <trkpt lat="44.09141" lon="1.00267">
        <ele>84.2</ele>
        <time>2023-07-06T09:07:48Z</time>
      </trkpt>
      <trkpt lat="44.09141" lon="1.0028">
        <ele>84.2</ele>
        <time>2023-07-06T09:07:55Z</time>
      </trkpt>
      <trkpt lat="44.0914" lon="1.00285">
        <ele>84.2</ele>
        <time>2023-07-06T09:07:59Z</time>
      </trkpt>
      <trkpt lat="44.09141" lon="1.00291">
        <ele>84.2</ele>
        <time>2023-07-06T09:08:03Z</time>
      </trkpt>
      <trkpt lat="44.09141" lon="1.00292">
        <ele>84.2</ele>
        <time>2023-07-06T09:08:04Z</time>
      </trkpt>
      <trkpt lat="44.09141" lon="1.00299">
        <ele>84.2</ele>
        <time>2023-07-06T09:08:07Z</time>
      </trkpt>
      <trkpt lat="44.09141" lon="1.0031">
        <ele>84</ele>
        <time>2023-07-06T09:08:13Z</time>
      </trkpt>
      <trkpt lat="44.09144" lon="1.00322">
        <ele>84.2</ele>
        <time>2023-07-06T09:08:19Z</time>
      </trkpt>
      <trkpt lat="44.09144" lon="1.00324">
        <ele>84.2</ele>
        <time>2023-07-06T09:08:20Z</time>
      </trkpt>
      <trkpt lat="44.09145" lon="1.00335">
        <ele>84.2</ele>
        <time>2023-07-06T09:08:26Z</time>
      </trkpt>
      <trkpt lat="44.09145" lon="1.00347">
        <ele>84</ele>
        <time>2023-07-06T09:08:33Z</time>
      </trkpt>
      <trkpt lat="44.09147" lon="1.00364">
        <ele>84.2</ele>
        <time>2023-07-06T09:08:42Z</time>
      </trkpt>
      <trkpt lat="44.09149" lon="1.00375">
        <ele>84.2</ele>
        <time>2023-07-06T09:08:48Z</time>
      </trkpt>
      <trkpt lat="44.09149" lon="1.00377">
        <ele>84.2</ele>
        <time>2023-07-06T09:08:49Z</time>
      </trkpt>
      <trkpt lat="44.09154" lon="1.00389">
        <ele>84</ele>
        <time>2023-07-06T09:08:56Z</time>
      </trkpt>
      <trkpt lat="44.09155" lon="1.00401">
        <ele>83.8</ele>
        <time>2023-07-06T09:09:03Z</time>
      </trkpt>
      <trkpt lat="44.09155" lon="1.00415">
        <ele>84</ele>
        <time>2023-07-06T09:09:11Z</time>
      </trkpt>
      <trkpt lat="44.09157" lon="1.00418">
        <ele>84</ele>
        <time>2023-07-06T09:09:13Z</time>
      </trkpt>
      <trkpt lat="44.09159" lon="1.00429">
        <ele>84.2</ele>
        <time>2023-07-06T09:09:19Z</time>
      </trkpt>
      <trkpt lat="44.09161" lon="1.00436">
        <ele>84</ele>
        <time>2023-07-06T09:09:23Z</time>
      </trkpt>
      <trkpt lat="44.09161" lon="1.00444">
        <ele>84.2</ele>
        <time>2023-07-06T09:09:27Z</time>
      </trkpt>
      <trkpt lat="44.0916" lon="1.00457">
        <ele>84.4</ele>
        <time>2023-07-06T09:09:35Z</time>
      </trkpt>
      <trkpt lat="44.09161" lon="1.00463">
        <ele>84.4</ele>
        <time>2023-07-06T09:09:38Z</time>
      </trkpt>
      <trkpt lat="44.09163" lon="1.00474">
        <ele>84.2</ele>
        <time>2023-07-06T09:09:44Z</time>
      </trkpt>
      <trkpt lat="44.09162" lon="1.00485">
        <ele>84.2</ele>
        <time>2023-07-06T09:09:50Z</time>
      </trkpt>
      <trkpt lat="44.09163" lon="1.00491">
        <ele>84.4</ele>
        <time>2023-07-06T09:09:53Z</time>
      </trkpt>
      <trkpt lat="44.09164" lon="1.00495">
        <ele>84.4</ele>
        <time>2023-07-06T09:09:55Z</time>
      </trkpt>
      <trkpt lat="44.09164" lon="1.00506">
        <ele>84.6</ele>
        <time>2023-07-06T09:10:01Z</time>
      </trkpt>
      <trkpt lat="44.09162" lon="1.00523">
        <ele>84.2</ele>
        <time>2023-07-06T09:10:11Z</time>
      </trkpt>
      <trkpt lat="44.09162" lon="1.00534">
        <ele>84</ele>
        <time>2023-07-06T09:10:18Z</time>
      </trkpt>
      <trkpt lat="44.09159" lon="1.00546">
        <ele>84.2</ele>
        <time>2023-07-06T09:10:25Z</time>
      </trkpt>
      <trkpt lat="44.09157" lon="1.00556">
        <ele>84.4</ele>
        <time>2023-07-06T09:10:32Z</time>
      </trkpt>
      <trkpt lat="44.09156" lon="1.00559">
        <ele>84.4</ele>
        <time>2023-07-06T09:10:35Z</time>
      </trkpt>
      <trkpt lat="44.09155" lon="1.00563">
        <ele>84.8</ele>
        <time>2023-07-06T09:10:37Z</time>
      </trkpt>
      <trkpt lat="44.09154" lon="1.00568">
        <ele>85</ele>
        <time>2023-07-06T09:10:39Z</time>
      </trkpt>
      <trkpt lat="44.09154" lon="1.00581">
        <ele>85.8</ele>
        <time>2023-07-06T09:10:45Z</time>
      </trkpt>
      <trkpt lat="44.09154" lon="1.00583">
        <ele>85.8</ele>
        <time>2023-07-06T09:10:46Z</time>
      </trkpt>
      <trkpt lat="44.09153" lon="1.00594">
        <ele>85.4</ele>
        <time>2023-07-06T09:10:52Z</time>
      </trkpt>
      <trkpt lat="44.09152" lon="1.00603">
        <ele>85.4</ele>
        <time>2023-07-06T09:10:57Z</time>
      </trkpt>
      <trkpt lat="44.09151" lon="1.00604">
        <ele>85.2</ele>
        <time>2023-07-06T09:10:58Z</time>
      </trkpt>
      <trkpt lat="44.09152" lon="1.00606">
        <ele>85.2</ele>
        <time>2023-07-06T09:10:59Z</time>
      </trkpt>
      <trkpt lat="44.09152" lon="1.00613">
        <ele>85</ele>
        <time>2023-07-06T09:11:04Z</time>
      </trkpt>
      <trkpt lat="44.09151" lon="1.00615">
        <ele>85</ele>
        <time>2023-07-06T09:11:05Z</time>
      </trkpt>
      <trkpt lat="44.0915" lon="1.00628">
        <ele>85</ele>
        <time>2023-07-06T09:11:12Z</time>
      </trkpt>
      <trkpt lat="44.09148" lon="1.00642">
        <ele>85</ele>
        <time>2023-07-06T09:11:19Z</time>
      </trkpt>
      <trkpt lat="44.09145" lon="1.00656">
        <ele>85.2</ele>
        <time>2023-07-06T09:11:27Z</time>
      </trkpt>
      <trkpt lat="44.09146" lon="1.00676">
        <ele>85.2</ele>
        <time>2023-07-06T09:11:37Z</time>
      </trkpt>
      <trkpt lat="44.09144" lon="1.00692">
        <ele>85.4</ele>
        <time>2023-07-06T09:11:46Z</time>
      </trkpt>
      <trkpt lat="44.09142" lon="1.00709">
        <ele>85.4</ele>
        <time>2023-07-06T09:11:55Z</time>
      </trkpt>
      <trkpt lat="44.0914" lon="1.00718">
        <ele>85.4</ele>
        <time>2023-07-06T09:12:00Z</time>
      </trkpt>
      <trkpt lat="44.0914" lon="1.00722">
        <ele>85.4</ele>
        <time>2023-07-06T09:12:02Z</time>
      </trkpt>
      <trkpt lat="44.0914" lon="1.00724">
        <ele>85.4</ele>
        <time>2023-07-06T09:12:03Z</time>
      </trkpt>
      <trkpt lat="44.09139" lon="1.00729">
        <ele>85.4</ele>
        <time>2023-07-06T09:12:06Z</time>
      </trkpt>
      <trkpt lat="44.09138" lon="1.0073">
        <ele>85.4</ele>
        <time>2023-07-06T09:12:07Z</time>
      </trkpt>
      <trkpt lat="44.09137" lon="1.00734">
        <ele>85.6</ele>
        <time>2023-07-06T09:12:09Z</time>
      </trkpt>
      <trkpt lat="44.09135" lon="1.00737">
        <ele>85.6</ele>
        <time>2023-07-06T09:12:11Z</time>
      </trkpt>
      <trkpt lat="44.09134" lon="1.00741">
        <ele>85.6</ele>
        <time>2023-07-06T09:12:13Z</time>
      </trkpt>
      <trkpt lat="44.09133" lon="1.00751">
        <ele>85.8</ele>
        <time>2023-07-06T09:12:18Z</time>
      </trkpt>
      <trkpt lat="44.09131" lon="1.00756">
        <ele>85.8</ele>
        <time>2023-07-06T09:12:21Z</time>
      </trkpt>
      <trkpt lat="44.09131" lon="1.00758">
        <ele>85.8</ele>
        <time>2023-07-06T09:12:22Z</time>
      </trkpt>
      <trkpt lat="44.0913" lon="1.00768">
        <ele>86</ele>
        <time>2023-07-06T09:12:27Z</time>
      </trkpt>
      <trkpt lat="44.0913" lon="1.00771">
        <ele>86</ele>
        <time>2023-07-06T09:12:29Z</time>
      </trkpt>
      <trkpt lat="44.0913" lon="1.00779">
        <ele>85.6</ele>
        <time>2023-07-06T09:12:33Z</time>
      </trkpt>
      <trkpt lat="44.09131" lon="1.00782">
        <ele>85.8</ele>
        <time>2023-07-06T09:12:35Z</time>
      </trkpt>
      <trkpt lat="44.09128" lon="1.00796">
        <ele>86</ele>
        <time>2023-07-06T09:12:42Z</time>
      </trkpt>
      <trkpt lat="44.09126" lon="1.00803">
        <ele>86</ele>
        <time>2023-07-06T09:12:45Z</time>
      </trkpt>
      <trkpt lat="44.09125" lon="1.00806">
        <ele>86</ele>
        <time>2023-07-06T09:12:47Z</time>
      </trkpt>
      <trkpt lat="44.09125" lon="1.00809">
        <ele>85.8</ele>
        <time>2023-07-06T09:12:49Z</time>
      </trkpt>
      <trkpt lat="44.09123" lon="1.00824">
        <ele>85.8</ele>
        <time>2023-07-06T09:12:58Z</time>
      </trkpt>
      <trkpt lat="44.09122" lon="1.00831">
        <ele>85.8</ele>
        <time>2023-07-06T09:13:01Z</time>
      </trkpt>
      <trkpt lat="44.09122" lon="1.00834">
        <ele>85.8</ele>
        <time>2023-07-06T09:13:02Z</time>
      </trkpt>
      <trkpt lat="44.09122" lon="1.0084">
        <ele>85.8</ele>
        <time>2023-07-06T09:13:05Z</time>
      </trkpt>
      <trkpt lat="44.09122" lon="1.00846">
        <ele>85.8</ele>
        <time>2023-07-06T09:13:08Z</time>
      </trkpt>
      <trkpt lat="44.09121" lon="1.0085">
        <ele>85.8</ele>
        <time>2023-07-06T09:13:11Z</time>
      </trkpt>
      <trkpt lat="44.0912" lon="1.00854">
        <ele>86</ele>
        <time>2023-07-06T09:13:13Z</time>
      </trkpt>
      <trkpt lat="44.09118" lon="1.00864">
        <ele>86</ele>
        <time>2023-07-06T09:13:18Z</time>
      </trkpt>
      <trkpt lat="44.09118" lon="1.00866">
        <ele>86</ele>
        <time>2023-07-06T09:13:19Z</time>
      </trkpt>
      <trkpt lat="44.09117" lon="1.00869">
        <ele>85.8</ele>
        <time>2023-07-06T09:13:21Z</time>
      </trkpt>
      <trkpt lat="44.09116" lon="1.0088">
        <ele>86</ele>
        <time>2023-07-06T09:13:27Z</time>
      </trkpt>
      <trkpt lat="44.09115" lon="1.00887">
        <ele>86</ele>
        <time>2023-07-06T09:13:30Z</time>
      </trkpt>
      <trkpt lat="44.09117" lon="1.00894">
        <ele>85.8</ele>
        <time>2023-07-06T09:13:35Z</time>
      </trkpt>
      <trkpt lat="44.09118" lon="1.00898">
        <ele>85.6</ele>
        <time>2023-07-06T09:13:38Z</time>
      </trkpt>
      <trkpt lat="44.09117" lon="1.00901">
        <ele>85.8</ele>
        <time>2023-07-06T09:13:40Z</time>
      </trkpt>
      <trkpt lat="44.09117" lon="1.00909">
        <ele>86.2</ele>
        <time>2023-07-06T09:13:44Z</time>
      </trkpt>
      <trkpt lat="44.09116" lon="1.00914">
        <ele>86.2</ele>
        <time>2023-07-06T09:13:47Z</time>
      </trkpt>
      <trkpt lat="44.09117" lon="1.00919">
        <ele>86</ele>
        <time>2023-07-06T09:13:50Z</time>
      </trkpt>
      <trkpt lat="44.09116" lon="1.00926">
        <ele>86</ele>
        <time>2023-07-06T09:13:54Z</time>
      </trkpt>
      <trkpt lat="44.09115" lon="1.00941">
        <ele>86.4</ele>
        <time>2023-07-06T09:14:02Z</time>
      </trkpt>
      <trkpt lat="44.09113" lon="1.00958">
        <ele>85.8</ele>
        <time>2023-07-06T09:14:11Z</time>
      </trkpt>
      <trkpt lat="44.09113" lon="1.00961">
        <ele>85.8</ele>
        <time>2023-07-06T09:14:13Z</time>
      </trkpt>
      <trkpt lat="44.09112" lon="1.00966">
        <ele>85.8</ele>
        <time>2023-07-06T09:14:15Z</time>
      </trkpt>
      <trkpt lat="44.09112" lon="1.00968">
        <ele>85.8</ele>
        <time>2023-07-06T09:14:16Z</time>
      </trkpt>
      <trkpt lat="44.09112" lon="1.00969">
        <ele>86</ele>
        <time>2023-07-06T09:14:17Z</time>
      </trkpt>
      <trkpt lat="44.09112" lon="1.00977">
        <ele>86.2</ele>
        <time>2023-07-06T09:14:21Z</time>
      </trkpt>
      <trkpt lat="44.09114" lon="1.00983">
        <ele>86.2</ele>
        <time>2023-07-06T09:14:25Z</time>
      </trkpt>
      <trkpt lat="44.09114" lon="1.00987">
        <ele>86.2</ele>
        <time>2023-07-06T09:14:27Z</time>
      </trkpt>
      <trkpt lat="44.09115" lon="1.00993">
        <ele>86.4</ele>
        <time>2023-07-06T09:14:30Z</time>
      </trkpt>
      <trkpt lat="44.09115" lon="1.00996">
        <ele>86.4</ele>
        <time>2023-07-06T09:14:32Z</time>
      </trkpt>
      <trkpt lat="44.09115" lon="1.01004">
        <ele>86.2</ele>
        <time>2023-07-06T09:14:36Z</time>
      </trkpt>
      <trkpt lat="44.09115" lon="1.01012">
        <ele>86.2</ele>
        <time>2023-07-06T09:14:40Z</time>
      </trkpt>
      <trkpt lat="44.09115" lon="1.01016">
        <ele>86.2</ele>
        <time>2023-07-06T09:14:42Z</time>
      </trkpt>
      <trkpt lat="44.09116" lon="1.01023">
        <ele>86.4</ele>
        <time>2023-07-06T09:14:46Z</time>
      </trkpt>
      <trkpt lat="44.09116" lon="1.01026">
        <ele>86.2</ele>
        <time>2023-07-06T09:14:48Z</time>
      </trkpt>
      <trkpt lat="44.09116" lon="1.01034">
        <ele>86.4</ele>
        <time>2023-07-06T09:14:53Z</time>
      </trkpt>
      <trkpt lat="44.09116" lon="1.01041">
        <ele>86.6</ele>
        <time>2023-07-06T09:14:56Z</time>
      </trkpt>
      <trkpt lat="44.09117" lon="1.01053">
        <ele>86.6</ele>
        <time>2023-07-06T09:15:03Z</time>
      </trkpt>
      <trkpt lat="44.09118" lon="1.01055">
        <ele>86.6</ele>
        <time>2023-07-06T09:15:04Z</time>
      </trkpt>
      <trkpt lat="44.09118" lon="1.01063">
        <ele>86.6</ele>
        <time>2023-07-06T09:15:08Z</time>
      </trkpt>
      <trkpt lat="44.09118" lon="1.01067">
        <ele>86.6</ele>
        <time>2023-07-06T09:15:10Z</time>
      </trkpt>
      <trkpt lat="44.09119" lon="1.01078">
        <ele>86.8</ele>
        <time>2023-07-06T09:15:16Z</time>
      </trkpt>
      <trkpt lat="44.09118" lon="1.01084">
        <ele>86.8</ele>
        <time>2023-07-06T09:15:19Z</time>
      </trkpt>
      <trkpt lat="44.0912" lon="1.011">
        <ele>86.8</ele>
        <time>2023-07-06T09:15:27Z</time>
      </trkpt>
      <trkpt lat="44.09122" lon="1.01112">
        <ele>87</ele>
        <time>2023-07-06T09:15:34Z</time>
      </trkpt>
      <trkpt lat="44.0912" lon="1.01131">
        <ele>87</ele>
        <time>2023-07-06T09:15:44Z</time>
      </trkpt>
      <trkpt lat="44.09119" lon="1.01138">
        <ele>87</ele>
        <time>2023-07-06T09:15:48Z</time>
      </trkpt>
      <trkpt lat="44.09118" lon="1.01142">
        <ele>86.8</ele>
        <time>2023-07-06T09:15:50Z</time>
      </trkpt>
      <trkpt lat="44.09118" lon="1.01151">
        <ele>86.8</ele>
        <time>2023-07-06T09:15:55Z</time>
      </trkpt>
      <trkpt lat="44.09118" lon="1.01164">
        <ele>86.8</ele>
        <time>2023-07-06T09:16:02Z</time>
      </trkpt>
      <trkpt lat="44.09117" lon="1.0117">
        <ele>86.8</ele>
        <time>2023-07-06T09:16:05Z</time>
      </trkpt>
      <trkpt lat="44.09116" lon="1.0118">
        <ele>87</ele>
        <time>2023-07-06T09:16:10Z</time>
      </trkpt>
      <trkpt lat="44.09118" lon="1.01195">
        <ele>87</ele>
        <time>2023-07-06T09:16:18Z</time>
      </trkpt>
      <trkpt lat="44.09118" lon="1.01203">
        <ele>87</ele>
        <time>2023-07-06T09:16:22Z</time>
      </trkpt>
      <trkpt lat="44.09119" lon="1.01206">
        <ele>86.8</ele>
        <time>2023-07-06T09:16:24Z</time>
      </trkpt>
      <trkpt lat="44.09119" lon="1.01213">
        <ele>86.8</ele>
        <time>2023-07-06T09:16:28Z</time>
      </trkpt>
      <trkpt lat="44.09119" lon="1.01215">
        <ele>86.8</ele>
        <time>2023-07-06T09:16:29Z</time>
      </trkpt>
      <trkpt lat="44.0912" lon="1.01229">
        <ele>86.6</ele>
        <time>2023-07-06T09:16:37Z</time>
      </trkpt>
      <trkpt lat="44.0912" lon="1.01242">
        <ele>86.6</ele>
        <time>2023-07-06T09:16:44Z</time>
      </trkpt>
      <trkpt lat="44.09122" lon="1.01249">
        <ele>86.6</ele>
        <time>2023-07-06T09:16:48Z</time>
      </trkpt>
      <trkpt lat="44.09122" lon="1.01254">
        <ele>86.6</ele>
        <time>2023-07-06T09:16:51Z</time>
      </trkpt>
      <trkpt lat="44.09122" lon="1.01267">
        <ele>86.6</ele>
        <time>2023-07-06T09:16:58Z</time>
      </trkpt>
      <trkpt lat="44.09122" lon="1.01272">
        <ele>86.6</ele>
        <time>2023-07-06T09:17:01Z</time>
      </trkpt>
      <trkpt lat="44.09122" lon="1.01282">
        <ele>86.6</ele>
        <time>2023-07-06T09:17:07Z</time>
      </trkpt>
      <trkpt lat="44.09122" lon="1.01294">
        <ele>86.8</ele>
        <time>2023-07-06T09:17:14Z</time>
      </trkpt>
      <trkpt lat="44.09122" lon="1.01305">
        <ele>86.8</ele>
        <time>2023-07-06T09:17:20Z</time>
      </trkpt>
      <trkpt lat="44.09121" lon="1.0131">
        <ele>86.4</ele>
        <time>2023-07-06T09:17:23Z</time>
      </trkpt>
      <trkpt lat="44.0912" lon="1.01317">
        <ele>86.8</ele>
        <time>2023-07-06T09:17:27Z</time>
      </trkpt>
      <trkpt lat="44.09121" lon="1.0132">
        <ele>86.8</ele>
        <time>2023-07-06T09:17:29Z</time>
      </trkpt>
      <trkpt lat="44.09122" lon="1.01327">
        <ele>86.6</ele>
        <time>2023-07-06T09:17:33Z</time>
      </trkpt>
      <trkpt lat="44.09122" lon="1.01345">
        <ele>87</ele>
        <time>2023-07-06T09:17:43Z</time>
      </trkpt>
      <trkpt lat="44.09123" lon="1.01358">
        <ele>86.8</ele>
        <time>2023-07-06T09:17:51Z</time>
      </trkpt>
      <trkpt lat="44.09122" lon="1.01368">
        <ele>87.2</ele>
        <time>2023-07-06T09:17:58Z</time>
      </trkpt>
      <trkpt lat="44.09123" lon="1.01384">
        <ele>87.2</ele>
        <time>2023-07-06T09:18:07Z</time>
      </trkpt>
      <trkpt lat="44.09124" lon="1.01394">
        <ele>86.8</ele>
        <time>2023-07-06T09:18:12Z</time>
      </trkpt>
      <trkpt lat="44.09124" lon="1.01396">
        <ele>86.8</ele>
        <time>2023-07-06T09:18:13Z</time>
      </trkpt>
      <trkpt lat="44.09126" lon="1.01411">
        <ele>87</ele>
        <time>2023-07-06T09:18:21Z</time>
      </trkpt>
      <trkpt lat="44.09127" lon="1.01425">
        <ele>86.8</ele>
        <time>2023-07-06T09:18:29Z</time>
      </trkpt>
      <trkpt lat="44.09128" lon="1.01435">
        <ele>87</ele>
        <time>2023-07-06T09:18:35Z</time>
      </trkpt>
      <trkpt lat="44.09128" lon="1.01443">
        <ele>87</ele>
        <time>2023-07-06T09:18:39Z</time>
      </trkpt>
      <trkpt lat="44.09128" lon="1.01453">
        <ele>87</ele>
        <time>2023-07-06T09:18:45Z</time>
      </trkpt>
      <trkpt lat="44.09131" lon="1.01467">
        <ele>87</ele>
        <time>2023-07-06T09:18:53Z</time>
      </trkpt>
      <trkpt lat="44.09132" lon="1.01471">
        <ele>86.8</ele>
        <time>2023-07-06T09:18:55Z</time>
      </trkpt>
      <trkpt lat="44.09133" lon="1.01474">
        <ele>86.8</ele>
        <time>2023-07-06T09:18:57Z</time>
      </trkpt>
      <trkpt lat="44.09136" lon="1.01482">
        <ele>86.8</ele>
        <time>2023-07-06T09:19:02Z</time>
      </trkpt>
      <trkpt lat="44.09136" lon="1.01484">
        <ele>86.8</ele>
        <time>2023-07-06T09:19:03Z</time>
      </trkpt>
      <trkpt lat="44.09138" lon="1.01494">
        <ele>87</ele>
        <time>2023-07-06T09:19:09Z</time>
      </trkpt>
      <trkpt lat="44.09138" lon="1.01496">
        <ele>87</ele>
        <time>2023-07-06T09:19:10Z</time>
      </trkpt>
      <trkpt lat="44.09137" lon="1.01498">
        <ele>87</ele>
        <time>2023-07-06T09:19:11Z</time>
      </trkpt>
      <trkpt lat="44.09137" lon="1.01506">
        <ele>87</ele>
        <time>2023-07-06T09:19:16Z</time>
      </trkpt>
      <trkpt lat="44.09137" lon="1.0151">
        <ele>87.2</ele>
        <time>2023-07-06T09:19:18Z</time>
      </trkpt>
      <trkpt lat="44.0914" lon="1.01517">
        <ele>87.2</ele>
        <time>2023-07-06T09:19:22Z</time>
      </trkpt>
      <trkpt lat="44.09141" lon="1.01522">
        <ele>87.2</ele>
        <time>2023-07-06T09:19:25Z</time>
      </trkpt>
      <trkpt lat="44.09142" lon="1.01527">
        <ele>87.4</ele>
        <time>2023-07-06T09:19:28Z</time>
      </trkpt>
      <trkpt lat="44.09142" lon="1.01535">
        <ele>87.2</ele>
        <time>2023-07-06T09:19:32Z</time>
      </trkpt>
      <trkpt lat="44.09144" lon="1.01541">
        <ele>87.2</ele>
        <time>2023-07-06T09:19:36Z</time>
      </trkpt>
      <trkpt lat="44.09145" lon="1.01554">
        <ele>87</ele>
        <time>2023-07-06T09:19:43Z</time>
      </trkpt>
      <trkpt lat="44.09146" lon="1.01557">
        <ele>87</ele>
        <time>2023-07-06T09:19:45Z</time>
      </trkpt>
      <trkpt lat="44.09146" lon="1.01569">
        <ele>87.2</ele>
        <time>2023-07-06T09:19:51Z</time>
      </trkpt>
      <trkpt lat="44.09147" lon="1.01577">
        <ele>87</ele>
        <time>2023-07-06T09:19:55Z</time>
      </trkpt>
      <trkpt lat="44.09149" lon="1.01588">
        <ele>86.8</ele>
        <time>2023-07-06T09:20:01Z</time>
      </trkpt>
      <trkpt lat="44.09149" lon="1.01589">
        <ele>86.8</ele>
        <time>2023-07-06T09:20:02Z</time>
      </trkpt>
      <trkpt lat="44.0915" lon="1.01591">
        <ele>86.8</ele>
        <time>2023-07-06T09:20:03Z</time>
      </trkpt>
      <trkpt lat="44.0915" lon="1.01592">
        <ele>86.8</ele>
        <time>2023-07-06T09:20:04Z</time>
      </trkpt>
      <trkpt lat="44.09151" lon="1.01594">
        <ele>87</ele>
        <time>2023-07-06T09:20:05Z</time>
      </trkpt>
      <trkpt lat="44.09152" lon="1.01601">
        <ele>87.2</ele>
        <time>2023-07-06T09:20:09Z</time>
      </trkpt>
      <trkpt lat="44.09153" lon="1.01604">
        <ele>87</ele>
        <time>2023-07-06T09:20:11Z</time>
      </trkpt>
      <trkpt lat="44.09154" lon="1.01609">
        <ele>87</ele>
        <time>2023-07-06T09:20:14Z</time>
      </trkpt>
      <trkpt lat="44.09156" lon="1.01615">
        <ele>87</ele>
        <time>2023-07-06T09:20:18Z</time>
      </trkpt>
      <trkpt lat="44.09157" lon="1.01619">
        <ele>87</ele>
        <time>2023-07-06T09:20:20Z</time>
      </trkpt>
      <trkpt lat="44.0916" lon="1.01633">
        <ele>87</ele>
        <time>2023-07-06T09:20:28Z</time>
      </trkpt>
      <trkpt lat="44.0916" lon="1.01636">
        <ele>87</ele>
        <time>2023-07-06T09:20:30Z</time>
      </trkpt>
      <trkpt lat="44.09162" lon="1.01643">
        <ele>87.2</ele>
        <time>2023-07-06T09:20:34Z</time>
      </trkpt>
      <trkpt lat="44.09162" lon="1.01644">
        <ele>87</ele>
        <time>2023-07-06T09:20:35Z</time>
      </trkpt>
      <trkpt lat="44.09163" lon="1.01646">
        <ele>87.2</ele>
        <time>2023-07-06T09:20:36Z</time>
      </trkpt>
      <trkpt lat="44.09168" lon="1.01659">
        <ele>87</ele>
        <time>2023-07-06T09:20:44Z</time>
      </trkpt>
      <trkpt lat="44.09171" lon="1.01673">
        <ele>86.8</ele>
        <time>2023-07-06T09:20:52Z</time>
      </trkpt>
      <trkpt lat="44.09175" lon="1.01686">
        <ele>87</ele>
        <time>2023-07-06T09:21:00Z</time>
      </trkpt>
      <trkpt lat="44.09179" lon="1.01696">
        <ele>87</ele>
        <time>2023-07-06T09:21:06Z</time>
      </trkpt>
      <trkpt lat="44.09184" lon="1.01709">
        <ele>87.2</ele>
        <time>2023-07-06T09:21:14Z</time>
      </trkpt>
      <trkpt lat="44.09187" lon="1.01719">
        <ele>86.8</ele>
        <time>2023-07-06T09:21:20Z</time>
      </trkpt>
      <trkpt lat="44.09191" lon="1.01732">
        <ele>86.8</ele>
        <time>2023-07-06T09:21:28Z</time>
      </trkpt>
      <trkpt lat="44.09196" lon="1.01746">
        <ele>87</ele>
        <time>2023-07-06T09:21:36Z</time>
      </trkpt>
      <trkpt lat="44.09198" lon="1.01755">
        <ele>86.8</ele>
        <time>2023-07-06T09:21:41Z</time>
      </trkpt>
      <trkpt lat="44.092" lon="1.01758">
        <ele>86.8</ele>
        <time>2023-07-06T09:21:43Z</time>
      </trkpt>
      <trkpt lat="44.09203" lon="1.01765">
        <ele>86.8</ele>
        <time>2023-07-06T09:21:48Z</time>
      </trkpt>
      <trkpt lat="44.09205" lon="1.01773">
        <ele>86.8</ele>
        <time>2023-07-06T09:21:52Z</time>
      </trkpt>
      <trkpt lat="44.09211" lon="1.01788">
        <ele>87</ele>
        <time>2023-07-06T09:22:01Z</time>
      </trkpt>
      <trkpt lat="44.09214" lon="1.01798">
        <ele>86.8</ele>
        <time>2023-07-06T09:22:08Z</time>
      </trkpt>
      <trkpt lat="44.09214" lon="1.01799">
        <ele>87</ele>
        <time>2023-07-06T09:22:09Z</time>
      </trkpt>
      <trkpt lat="44.09218" lon="1.0181">
        <ele>86.8</ele>
        <time>2023-07-06T09:22:15Z</time>
      </trkpt>
      <trkpt lat="44.09219" lon="1.01813">
        <ele>86.8</ele>
        <time>2023-07-06T09:22:17Z</time>
      </trkpt>
      <trkpt lat="44.09224" lon="1.01827">
        <ele>86.8</ele>
        <time>2023-07-06T09:22:25Z</time>
      </trkpt>
      <trkpt lat="44.09231" lon="1.01836">
        <ele>87</ele>
        <time>2023-07-06T09:22:31Z</time>
      </trkpt>
      <trkpt lat="44.09232" lon="1.01839">
        <ele>87.2</ele>
        <time>2023-07-06T09:22:33Z</time>
      </trkpt>
      <trkpt lat="44.09234" lon="1.01845">
        <ele>87</ele>
        <time>2023-07-06T09:22:37Z</time>
      </trkpt>
      <trkpt lat="44.09238" lon="1.01852">
        <ele>87.2</ele>
        <time>2023-07-06T09:22:42Z</time>
      </trkpt>
      <trkpt lat="44.09241" lon="1.01858">
        <ele>87.2</ele>
        <time>2023-07-06T09:22:46Z</time>
      </trkpt>
      <trkpt lat="44.09245" lon="1.01866">
        <ele>87</ele>
        <time>2023-07-06T09:22:51Z</time>
      </trkpt>
      <trkpt lat="44.09251" lon="1.01876">
        <ele>87.2</ele>
        <time>2023-07-06T09:22:58Z</time>
      </trkpt>
      <trkpt lat="44.09252" lon="1.01882">
        <ele>87.2</ele>
        <time>2023-07-06T09:23:02Z</time>
      </trkpt>
      <trkpt lat="44.09252" lon="1.01884">
        <ele>87.2</ele>
        <time>2023-07-06T09:23:03Z</time>
      </trkpt>
      <trkpt lat="44.09253" lon="1.0189">
        <ele>87.4</ele>
        <time>2023-07-06T09:23:06Z</time>
      </trkpt>
      <trkpt lat="44.09261" lon="1.01903">
        <ele>87.4</ele>
        <time>2023-07-06T09:23:15Z</time>
      </trkpt>
      <trkpt lat="44.09262" lon="1.01905">
        <ele>87.4</ele>
        <time>2023-07-06T09:23:17Z</time>
      </trkpt>
      <trkpt lat="44.09264" lon="1.0191">
        <ele>87.4</ele>
        <time>2023-07-06T09:23:21Z</time>
      </trkpt>
      <trkpt lat="44.09268" lon="1.01919">
        <ele>87.2</ele>
        <time>2023-07-06T09:23:27Z</time>
      </trkpt>
      <trkpt lat="44.09269" lon="1.01921">
        <ele>87.2</ele>
        <time>2023-07-06T09:23:28Z</time>
      </trkpt>
      <trkpt lat="44.09269" lon="1.01922">
        <ele>87.2</ele>
        <time>2023-07-06T09:23:29Z</time>
      </trkpt>
      <trkpt lat="44.0927" lon="1.01926">
        <ele>87.2</ele>
        <time>2023-07-06T09:23:31Z</time>
      </trkpt>
      <trkpt lat="44.09272" lon="1.01929">
        <ele>87</ele>
        <time>2023-07-06T09:23:34Z</time>
      </trkpt>
      <trkpt lat="44.09277" lon="1.0194">
        <ele>87.6</ele>
        <time>2023-07-06T09:23:41Z</time>
      </trkpt>
      <trkpt lat="44.09278" lon="1.01944">
        <ele>87.4</ele>
        <time>2023-07-06T09:23:43Z</time>
      </trkpt>
      <trkpt lat="44.09282" lon="1.01956">
        <ele>87.6</ele>
        <time>2023-07-06T09:23:50Z</time>
      </trkpt>
      <trkpt lat="44.09285" lon="1.01965">
        <ele>87.6</ele>
        <time>2023-07-06T09:23:56Z</time>
      </trkpt>
      <trkpt lat="44.09286" lon="1.01968">
        <ele>87.6</ele>
        <time>2023-07-06T09:23:58Z</time>
      </trkpt>
      <trkpt lat="44.09291" lon="1.01978">
        <ele>87.6</ele>
        <time>2023-07-06T09:24:05Z</time>
      </trkpt>
      <trkpt lat="44.09292" lon="1.01983">
        <ele>87.4</ele>
        <time>2023-07-06T09:24:08Z</time>
      </trkpt>
      <trkpt lat="44.09295" lon="1.01992">
        <ele>87.2</ele>
        <time>2023-07-06T09:24:13Z</time>
      </trkpt>
      <trkpt lat="44.09301" lon="1.02003">
        <ele>87.4</ele>
        <time>2023-07-06T09:24:20Z</time>
      </trkpt>
      <trkpt lat="44.09304" lon="1.02014">
        <ele>87.6</ele>
        <time>2023-07-06T09:24:26Z</time>
      </trkpt>
      <trkpt lat="44.09306" lon="1.02017">
        <ele>87.6</ele>
        <time>2023-07-06T09:24:28Z</time>
      </trkpt>
      <trkpt lat="44.09311" lon="1.02029">
        <ele>87.4</ele>
        <time>2023-07-06T09:24:35Z</time>
      </trkpt>
      <trkpt lat="44.09317" lon="1.0204">
        <ele>87.2</ele>
        <time>2023-07-06T09:24:42Z</time>
      </trkpt>
      <trkpt lat="44.09319" lon="1.02051">
        <ele>87.4</ele>
        <time>2023-07-06T09:24:49Z</time>
      </trkpt>
      <trkpt lat="44.09321" lon="1.02054">
        <ele>87.4</ele>
        <time>2023-07-06T09:24:51Z</time>
      </trkpt>
      <trkpt lat="44.09327" lon="1.0206">
        <ele>87.6</ele>
        <time>2023-07-06T09:24:55Z</time>
      </trkpt>
      <trkpt lat="44.09331" lon="1.02068">
        <ele>87.8</ele>
        <time>2023-07-06T09:25:00Z</time>
      </trkpt>
      <trkpt lat="44.09331" lon="1.0207">
        <ele>87.8</ele>
        <time>2023-07-06T09:25:01Z</time>
      </trkpt>
      <trkpt lat="44.09334" lon="1.02084">
        <ele>87.4</ele>
        <time>2023-07-06T09:25:09Z</time>
      </trkpt>
      <trkpt lat="44.09333" lon="1.02087">
        <ele>87.4</ele>
        <time>2023-07-06T09:25:11Z</time>
      </trkpt>
      <trkpt lat="44.09338" lon="1.02098">
        <ele>87.4</ele>
        <time>2023-07-06T09:25:18Z</time>
      </trkpt>
      <trkpt lat="44.09342" lon="1.02106">
        <ele>87.4</ele>
        <time>2023-07-06T09:25:23Z</time>
      </trkpt>
      <trkpt lat="44.09343" lon="1.02109">
        <ele>87.4</ele>
        <time>2023-07-06T09:25:25Z</time>
      </trkpt>
      <trkpt lat="44.09343" lon="1.02111">
        <ele>87.4</ele>
        <time>2023-07-06T09:25:26Z</time>
      </trkpt>
      <trkpt lat="44.09347" lon="1.02122">
        <ele>87.4</ele>
        <time>2023-07-06T09:25:33Z</time>
      </trkpt>
      <trkpt lat="44.09349" lon="1.02125">
        <ele>87.4</ele>
        <time>2023-07-06T09:25:36Z</time>
      </trkpt>
      <trkpt lat="44.09349" lon="1.0213">
        <ele>87.4</ele>
        <time>2023-07-06T09:25:39Z</time>
      </trkpt>
      <trkpt lat="44.09352" lon="1.0214">
        <ele>87.4</ele>
        <time>2023-07-06T09:25:45Z</time>
      </trkpt>
      <trkpt lat="44.09353" lon="1.02142">
        <ele>87.4</ele>
        <time>2023-07-06T09:25:46Z</time>
      </trkpt>
      <trkpt lat="44.09357" lon="1.02157">
        <ele>87.4</ele>
        <time>2023-07-06T09:25:54Z</time>
      </trkpt>
      <trkpt lat="44.09358" lon="1.02161">
        <ele>87.4</ele>
        <time>2023-07-06T09:25:56Z</time>
      </trkpt>
      <trkpt lat="44.0936" lon="1.02172">
        <ele>87.4</ele>
        <time>2023-07-06T09:26:02Z</time>
      </trkpt>
      <trkpt lat="44.09361" lon="1.02181">
        <ele>87.4</ele>
        <time>2023-07-06T09:26:07Z</time>
      </trkpt>
      <trkpt lat="44.09361" lon="1.02185">
        <ele>87.6</ele>
        <time>2023-07-06T09:26:10Z</time>
      </trkpt>
      <trkpt lat="44.09363" lon="1.02188">
        <ele>87.6</ele>
        <time>2023-07-06T09:26:12Z</time>
      </trkpt>
      <trkpt lat="44.09363" lon="1.0219">
        <ele>87.6</ele>
        <time>2023-07-06T09:26:13Z</time>
      </trkpt>
      <trkpt lat="44.09365" lon="1.02196">
        <ele>87.6</ele>
        <time>2023-07-06T09:26:17Z</time>
      </trkpt>
      <trkpt lat="44.09367" lon="1.02208">
        <ele>87.6</ele>
        <time>2023-07-06T09:26:25Z</time>
      </trkpt>
      <trkpt lat="44.09371" lon="1.0222">
        <ele>87.6</ele>
        <time>2023-07-06T09:26:33Z</time>
      </trkpt>
      <trkpt lat="44.09374" lon="1.02231">
        <ele>87.4</ele>
        <time>2023-07-06T09:26:40Z</time>
      </trkpt>
      <trkpt lat="44.09374" lon="1.02236">
        <ele>87.4</ele>
        <time>2023-07-06T09:26:43Z</time>
      </trkpt>
      <trkpt lat="44.09375" lon="1.02241">
        <ele>87.6</ele>
        <time>2023-07-06T09:26:46Z</time>
      </trkpt>
      <trkpt lat="44.09376" lon="1.02243">
        <ele>87.6</ele>
        <time>2023-07-06T09:26:47Z</time>
      </trkpt>
      <trkpt lat="44.09376" lon="1.02245">
        <ele>87.6</ele>
        <time>2023-07-06T09:26:48Z</time>
      </trkpt>
      <trkpt lat="44.09376" lon="1.02256">
        <ele>87.4</ele>
        <time>2023-07-06T09:26:54Z</time>
      </trkpt>
      <trkpt lat="44.09378" lon="1.02263">
        <ele>87.6</ele>
        <time>2023-07-06T09:26:58Z</time>
      </trkpt>
      <trkpt lat="44.09379" lon="1.02268">
        <ele>87.4</ele>
        <time>2023-07-06T09:27:01Z</time>
      </trkpt>
      <trkpt lat="44.09379" lon="1.02275">
        <ele>87.6</ele>
        <time>2023-07-06T09:27:05Z</time>
      </trkpt>
      <trkpt lat="44.0938" lon="1.0228">
        <ele>87.6</ele>
        <time>2023-07-06T09:27:08Z</time>
      </trkpt>
      <trkpt lat="44.09387" lon="1.02297">
        <ele>87.6</ele>
        <time>2023-07-06T09:27:18Z</time>
      </trkpt>
      <trkpt lat="44.09389" lon="1.02311">
        <ele>87.4</ele>
        <time>2023-07-06T09:27:25Z</time>
      </trkpt>
      <trkpt lat="44.0939" lon="1.02317">
        <ele>87.4</ele>
        <time>2023-07-06T09:27:28Z</time>
      </trkpt>
      <trkpt lat="44.0939" lon="1.02324">
        <ele>87.2</ele>
        <time>2023-07-06T09:27:32Z</time>
      </trkpt>
      <trkpt lat="44.09393" lon="1.02327">
        <ele>87.2</ele>
        <time>2023-07-06T09:27:34Z</time>
      </trkpt>
      <trkpt lat="44.09394" lon="1.02337">
        <ele>87.4</ele>
        <time>2023-07-06T09:27:40Z</time>
      </trkpt>
      <trkpt lat="44.09393" lon="1.02352">
        <ele>87.4</ele>
        <time>2023-07-06T09:27:48Z</time>
      </trkpt>
      <trkpt lat="44.09393" lon="1.02356">
        <ele>87.2</ele>
        <time>2023-07-06T09:27:50Z</time>
      </trkpt>
      <trkpt lat="44.09393" lon="1.02361">
        <ele>87.4</ele>
        <time>2023-07-06T09:27:53Z</time>
      </trkpt>
      <trkpt lat="44.09392" lon="1.02362">
        <ele>87.4</ele>
        <time>2023-07-06T09:27:54Z</time>
      </trkpt>
      <trkpt lat="44.09394" lon="1.0237">
        <ele>87.4</ele>
        <time>2023-07-06T09:27:58Z</time>
      </trkpt>
      <trkpt lat="44.09398" lon="1.02369">
        <ele>87.4</ele>
        <time>2023-07-06T09:28:02Z</time>
      </trkpt>
      <trkpt lat="44.09398" lon="1.02373">
        <ele>87.4</ele>
        <time>2023-07-06T09:28:05Z</time>
      </trkpt>
      <trkpt lat="44.09398" lon="1.02383">
        <ele>87.2</ele>
        <time>2023-07-06T09:28:10Z</time>
      </trkpt>
      <trkpt lat="44.09398" lon="1.02387">
        <ele>87.2</ele>
        <time>2023-07-06T09:28:12Z</time>
      </trkpt>
      <trkpt lat="44.09397" lon="1.02401">
        <ele>87.8</ele>
        <time>2023-07-06T09:28:21Z</time>
      </trkpt>
      <trkpt lat="44.09397" lon="1.02412">
        <ele>87.6</ele>
        <time>2023-07-06T09:28:28Z</time>
      </trkpt>
      <trkpt lat="44.09397" lon="1.02416">
        <ele>87.6</ele>
        <time>2023-07-06T09:28:30Z</time>
      </trkpt>
      <trkpt lat="44.09398" lon="1.02431">
        <ele>87.6</ele>
        <time>2023-07-06T09:28:39Z</time>
      </trkpt>
      <trkpt lat="44.09398" lon="1.02435">
        <ele>87.6</ele>
        <time>2023-07-06T09:28:41Z</time>
      </trkpt>
      <trkpt lat="44.09398" lon="1.02438">
        <ele>87.6</ele>
        <time>2023-07-06T09:28:43Z</time>
      </trkpt>
      <trkpt lat="44.09397" lon="1.02448">
        <ele>87.8</ele>
        <time>2023-07-06T09:28:48Z</time>
      </trkpt>
      <trkpt lat="44.09396" lon="1.02467">
        <ele>87.8</ele>
        <time>2023-07-06T09:28:58Z</time>
      </trkpt>
      <trkpt lat="44.09395" lon="1.02478">
        <ele>87.8</ele>
        <time>2023-07-06T09:29:04Z</time>
      </trkpt>
      <trkpt lat="44.09395" lon="1.02482">
        <ele>87.8</ele>
        <time>2023-07-06T09:29:06Z</time>
      </trkpt>
      <trkpt lat="44.09396" lon="1.02491">
        <ele>87.8</ele>
        <time>2023-07-06T09:29:11Z</time>
      </trkpt>
      <trkpt lat="44.09396" lon="1.02497">
        <ele>87.8</ele>
        <time>2023-07-06T09:29:14Z</time>
      </trkpt>
      <trkpt lat="44.09394" lon="1.02509">
        <ele>87.8</ele>
        <time>2023-07-06T09:29:21Z</time>
      </trkpt>
      <trkpt lat="44.09395" lon="1.02513">
        <ele>87.8</ele>
        <time>2023-07-06T09:29:23Z</time>
      </trkpt>
      <trkpt lat="44.09396" lon="1.0252">
        <ele>87.6</ele>
        <time>2023-07-06T09:29:27Z</time>
      </trkpt>
      <trkpt lat="44.09396" lon="1.02532">
        <ele>87.8</ele>
        <time>2023-07-06T09:29:34Z</time>
      </trkpt>
      <trkpt lat="44.09397" lon="1.02537">
        <ele>87.8</ele>
        <time>2023-07-06T09:29:37Z</time>
      </trkpt>
      <trkpt lat="44.09397" lon="1.0254">
        <ele>87.6</ele>
        <time>2023-07-06T09:29:39Z</time>
      </trkpt>
      <trkpt lat="44.09396" lon="1.02544">
        <ele>87.8</ele>
        <time>2023-07-06T09:29:42Z</time>
      </trkpt>
      <trkpt lat="44.09393" lon="1.02554">
        <ele>87.8</ele>
        <time>2023-07-06T09:29:47Z</time>
      </trkpt>
      <trkpt lat="44.09392" lon="1.02556">
        <ele>87.8</ele>
        <time>2023-07-06T09:29:48Z</time>
      </trkpt>
      <trkpt lat="44.09391" lon="1.0256">
        <ele>87.6</ele>
        <time>2023-07-06T09:29:50Z</time>
      </trkpt>
      <trkpt lat="44.09389" lon="1.02573">
        <ele>88</ele>
        <time>2023-07-06T09:29:57Z</time>
      </trkpt>
      <trkpt lat="44.09388" lon="1.0258">
        <ele>88</ele>
        <time>2023-07-06T09:30:01Z</time>
      </trkpt>
      <trkpt lat="44.09387" lon="1.02586">
        <ele>88</ele>
        <time>2023-07-06T09:30:04Z</time>
      </trkpt>
      <trkpt lat="44.09387" lon="1.02589">
        <ele>88</ele>
        <time>2023-07-06T09:30:06Z</time>
      </trkpt>
      <trkpt lat="44.09386" lon="1.02599">
        <ele>88.2</ele>
        <time>2023-07-06T09:30:12Z</time>
      </trkpt>
      <trkpt lat="44.09388" lon="1.02604">
        <ele>88</ele>
        <time>2023-07-06T09:30:15Z</time>
      </trkpt>
      <trkpt lat="44.09388" lon="1.0261">
        <ele>88</ele>
        <time>2023-07-06T09:30:19Z</time>
      </trkpt>
      <trkpt lat="44.09385" lon="1.0262">
        <ele>88.2</ele>
        <time>2023-07-06T09:30:26Z</time>
      </trkpt>
      <trkpt lat="44.09382" lon="1.02637">
        <ele>88</ele>
        <time>2023-07-06T09:30:35Z</time>
      </trkpt>
      <trkpt lat="44.09379" lon="1.02647">
        <ele>88.2</ele>
        <time>2023-07-06T09:30:41Z</time>
      </trkpt>
      <trkpt lat="44.09376" lon="1.02663">
        <ele>88</ele>
        <time>2023-07-06T09:30:49Z</time>
      </trkpt>
      <trkpt lat="44.09376" lon="1.02665">
        <ele>88</ele>
        <time>2023-07-06T09:30:51Z</time>
      </trkpt>
      <trkpt lat="44.09375" lon="1.02668">
        <ele>87.8</ele>
        <time>2023-07-06T09:30:54Z</time>
      </trkpt>
      <trkpt lat="44.09375" lon="1.02669">
        <ele>87.8</ele>
        <time>2023-07-06T09:30:55Z</time>
      </trkpt>
      <trkpt lat="44.09373" lon="1.02676">
        <ele>87.8</ele>
        <time>2023-07-06T09:31:00Z</time>
      </trkpt>
      <trkpt lat="44.09372" lon="1.02679">
        <ele>88</ele>
        <time>2023-07-06T09:31:01Z</time>
      </trkpt>
      <trkpt lat="44.0937" lon="1.02684">
        <ele>88.2</ele>
        <time>2023-07-06T09:31:04Z</time>
      </trkpt>
      <trkpt lat="44.09369" lon="1.02687">
        <ele>88.4</ele>
        <time>2023-07-06T09:31:06Z</time>
      </trkpt>
      <trkpt lat="44.09368" lon="1.02693">
        <ele>88.4</ele>
        <time>2023-07-06T09:31:09Z</time>
      </trkpt>
      <trkpt lat="44.09367" lon="1.02699">
        <ele>88.2</ele>
        <time>2023-07-06T09:31:13Z</time>
      </trkpt>
      <trkpt lat="44.09364" lon="1.02711">
        <ele>88.2</ele>
        <time>2023-07-06T09:31:19Z</time>
      </trkpt>
      <trkpt lat="44.09363" lon="1.02715">
        <ele>88</ele>
        <time>2023-07-06T09:31:22Z</time>
      </trkpt>
      <trkpt lat="44.09362" lon="1.02721">
        <ele>87.8</ele>
        <time>2023-07-06T09:31:26Z</time>
      </trkpt>
      <trkpt lat="44.09358" lon="1.02736">
        <ele>88</ele>
        <time>2023-07-06T09:31:34Z</time>
      </trkpt>
      <trkpt lat="44.09354" lon="1.02748">
        <ele>87.8</ele>
        <time>2023-07-06T09:31:42Z</time>
      </trkpt>
      <trkpt lat="44.09351" lon="1.02754">
        <ele>87.6</ele>
        <time>2023-07-06T09:31:46Z</time>
      </trkpt>
      <trkpt lat="44.09349" lon="1.02759">
        <ele>87.8</ele>
        <time>2023-07-06T09:31:49Z</time>
      </trkpt>
      <trkpt lat="44.09349" lon="1.02761">
        <ele>88</ele>
        <time>2023-07-06T09:31:50Z</time>
      </trkpt>
      <trkpt lat="44.09343" lon="1.02775">
        <ele>87.6</ele>
        <time>2023-07-06T09:31:58Z</time>
      </trkpt>
      <trkpt lat="44.0934" lon="1.02789">
        <ele>87.8</ele>
        <time>2023-07-06T09:32:05Z</time>
      </trkpt>
      <trkpt lat="44.09338" lon="1.02794">
        <ele>87.8</ele>
        <time>2023-07-06T09:32:08Z</time>
      </trkpt>
      <trkpt lat="44.09335" lon="1.02802">
        <ele>88.2</ele>
        <time>2023-07-06T09:32:13Z</time>
      </trkpt>
      <trkpt lat="44.09334" lon="1.02805">
        <ele>88.2</ele>
        <time>2023-07-06T09:32:14Z</time>
      </trkpt>
      <trkpt lat="44.09332" lon="1.02812">
        <ele>88.2</ele>
        <time>2023-07-06T09:32:19Z</time>
      </trkpt>
      <trkpt lat="44.09332" lon="1.02814">
        <ele>88.2</ele>
        <time>2023-07-06T09:32:20Z</time>
      </trkpt>
      <trkpt lat="44.09329" lon="1.02826">
        <ele>87.8</ele>
        <time>2023-07-06T09:32:27Z</time>
      </trkpt>
      <trkpt lat="44.09325" lon="1.02836">
        <ele>87.8</ele>
        <time>2023-07-06T09:32:34Z</time>
      </trkpt>
      <trkpt lat="44.09324" lon="1.02843">
        <ele>87.8</ele>
        <time>2023-07-06T09:32:38Z</time>
      </trkpt>
      <trkpt lat="44.09323" lon="1.02849">
        <ele>87.8</ele>
        <time>2023-07-06T09:32:41Z</time>
      </trkpt>
      <trkpt lat="44.09319" lon="1.0286">
        <ele>87.8</ele>
        <time>2023-07-06T09:32:47Z</time>
      </trkpt>
      <trkpt lat="44.09318" lon="1.02863">
        <ele>87.8</ele>
        <time>2023-07-06T09:32:49Z</time>
      </trkpt>
      <trkpt lat="44.09318" lon="1.02867">
        <ele>87.8</ele>
        <time>2023-07-06T09:32:52Z</time>
      </trkpt>
      <trkpt lat="44.09316" lon="1.02878">
        <ele>87.8</ele>
        <time>2023-07-06T09:33:01Z</time>
      </trkpt>
      <trkpt lat="44.09315" lon="1.02881">
        <ele>87.6</ele>
        <time>2023-07-06T09:33:03Z</time>
      </trkpt>
      <trkpt lat="44.09314" lon="1.02886">
        <ele>87.4</ele>
        <time>2023-07-06T09:33:08Z</time>
      </trkpt>
      <trkpt lat="44.09311" lon="1.02893">
        <ele>87.4</ele>
        <time>2023-07-06T09:33:12Z</time>
      </trkpt>
      <trkpt lat="44.09309" lon="1.02898">
        <ele>87.4</ele>
        <time>2023-07-06T09:33:15Z</time>
      </trkpt>
      <trkpt lat="44.09308" lon="1.029">
        <ele>87.6</ele>
        <time>2023-07-06T09:33:16Z</time>
      </trkpt>
      <trkpt lat="44.09305" lon="1.02907">
        <ele>87.8</ele>
        <time>2023-07-06T09:33:21Z</time>
      </trkpt>
      <trkpt lat="44.09303" lon="1.02912">
        <ele>87.8</ele>
        <time>2023-07-06T09:33:23Z</time>
      </trkpt>
      <trkpt lat="44.09302" lon="1.02914">
        <ele>87.6</ele>
        <time>2023-07-06T09:33:24Z</time>
      </trkpt>
      <trkpt lat="44.09299" lon="1.02919">
        <ele>87.6</ele>
        <time>2023-07-06T09:33:27Z</time>
      </trkpt>
      <trkpt lat="44.09299" lon="1.02922">
        <ele>87.8</ele>
        <time>2023-07-06T09:33:29Z</time>
      </trkpt>
      <trkpt lat="44.09299" lon="1.0293">
        <ele>88</ele>
        <time>2023-07-06T09:33:36Z</time>
      </trkpt>
      <trkpt lat="44.09295" lon="1.02945">
        <ele>87.8</ele>
        <time>2023-07-06T09:33:42Z</time>
      </trkpt>
      <trkpt lat="44.09294" lon="1.02947">
        <ele>87.8</ele>
        <time>2023-07-06T09:33:43Z</time>
      </trkpt>
      <trkpt lat="44.09292" lon="1.02955">
        <ele>88</ele>
        <time>2023-07-06T09:33:46Z</time>
      </trkpt>
      <trkpt lat="44.09291" lon="1.02959">
        <ele>88</ele>
        <time>2023-07-06T09:33:48Z</time>
      </trkpt>
      <trkpt lat="44.09291" lon="1.02963">
        <ele>88</ele>
        <time>2023-07-06T09:33:50Z</time>
      </trkpt>
      <trkpt lat="44.09291" lon="1.02964">
        <ele>87.8</ele>
        <time>2023-07-06T09:33:51Z</time>
      </trkpt>
      <trkpt lat="44.0929" lon="1.02965">
        <ele>87.8</ele>
        <time>2023-07-06T09:33:52Z</time>
      </trkpt>
      <trkpt lat="44.09288" lon="1.02973">
        <ele>87.6</ele>
        <time>2023-07-06T09:33:57Z</time>
      </trkpt>
      <trkpt lat="44.09283" lon="1.02985">
        <ele>87.8</ele>
        <time>2023-07-06T09:34:04Z</time>
      </trkpt>
      <trkpt lat="44.09282" lon="1.02987">
        <ele>87.8</ele>
        <time>2023-07-06T09:34:05Z</time>
      </trkpt>
      <trkpt lat="44.09282" lon="1.02989">
        <ele>87.8</ele>
        <time>2023-07-06T09:34:06Z</time>
      </trkpt>
      <trkpt lat="44.09281" lon="1.02991">
        <ele>87.8</ele>
        <time>2023-07-06T09:34:07Z</time>
      </trkpt>
      <trkpt lat="44.0928" lon="1.02993">
        <ele>87.8</ele>
        <time>2023-07-06T09:34:08Z</time>
      </trkpt>
      <trkpt lat="44.0928" lon="1.02995">
        <ele>87.8</ele>
        <time>2023-07-06T09:34:09Z</time>
      </trkpt>
      <trkpt lat="44.09279" lon="1.02997">
        <ele>87.8</ele>
        <time>2023-07-06T09:34:10Z</time>
      </trkpt>
      <trkpt lat="44.09279" lon="1.02999">
        <ele>87.8</ele>
        <time>2023-07-06T09:34:12Z</time>
      </trkpt>
      <trkpt lat="44.09275" lon="1.03009">
        <ele>88</ele>
        <time>2023-07-06T09:34:19Z</time>
      </trkpt>
      <trkpt lat="44.09269" lon="1.03029">
        <ele>87.6</ele>
        <time>2023-07-06T09:34:27Z</time>
      </trkpt>
      <trkpt lat="44.09265" lon="1.03039">
        <ele>87.6</ele>
        <time>2023-07-06T09:34:33Z</time>
      </trkpt>
      <trkpt lat="44.09264" lon="1.03051">
        <ele>88</ele>
        <time>2023-07-06T09:34:41Z</time>
      </trkpt>
      <trkpt lat="44.09262" lon="1.03059">
        <ele>88</ele>
        <time>2023-07-06T09:34:47Z</time>
      </trkpt>
      <trkpt lat="44.09262" lon="1.03061">
        <ele>87.8</ele>
        <time>2023-07-06T09:34:48Z</time>
      </trkpt>
      <trkpt lat="44.09261" lon="1.03071">
        <ele>87.8</ele>
        <time>2023-07-06T09:34:55Z</time>
      </trkpt>
      <trkpt lat="44.09256" lon="1.03086">
        <ele>87.8</ele>
        <time>2023-07-06T09:35:04Z</time>
      </trkpt>
      <trkpt lat="44.09255" lon="1.03092">
        <ele>88</ele>
        <time>2023-07-06T09:35:07Z</time>
      </trkpt>
      <trkpt lat="44.09253" lon="1.03097">
        <ele>88</ele>
        <time>2023-07-06T09:35:09Z</time>
      </trkpt>
      <trkpt lat="44.09252" lon="1.03103">
        <ele>87.8</ele>
        <time>2023-07-06T09:35:12Z</time>
      </trkpt>
      <trkpt lat="44.09253" lon="1.03114">
        <ele>88</ele>
        <time>2023-07-06T09:35:18Z</time>
      </trkpt>
      <trkpt lat="44.09253" lon="1.03118">
        <ele>88</ele>
        <time>2023-07-06T09:35:22Z</time>
      </trkpt>
      <trkpt lat="44.09253" lon="1.03121">
        <ele>88.2</ele>
        <time>2023-07-06T09:35:24Z</time>
      </trkpt>
      <trkpt lat="44.09252" lon="1.03124">
        <ele>88.2</ele>
        <time>2023-07-06T09:35:25Z</time>
      </trkpt>
      <trkpt lat="44.09251" lon="1.03127">
        <ele>88.2</ele>
        <time>2023-07-06T09:35:26Z</time>
      </trkpt>
      <trkpt lat="44.09246" lon="1.03143">
        <ele>88.2</ele>
        <time>2023-07-06T09:35:34Z</time>
      </trkpt>
      <trkpt lat="44.09245" lon="1.03149">
        <ele>88</ele>
        <time>2023-07-06T09:35:37Z</time>
      </trkpt>
      <trkpt lat="44.09245" lon="1.03153">
        <ele>88</ele>
        <time>2023-07-06T09:35:39Z</time>
      </trkpt>
      <trkpt lat="44.09244" lon="1.03156">
        <ele>88</ele>
        <time>2023-07-06T09:35:41Z</time>
      </trkpt>
      <trkpt lat="44.09244" lon="1.03158">
        <ele>88</ele>
        <time>2023-07-06T09:35:42Z</time>
      </trkpt>
      <trkpt lat="44.09244" lon="1.03164">
        <ele>88.2</ele>
        <time>2023-07-06T09:35:45Z</time>
      </trkpt>
      <trkpt lat="44.09245" lon="1.03167">
        <ele>88.2</ele>
        <time>2023-07-06T09:35:47Z</time>
      </trkpt>
      <trkpt lat="44.09245" lon="1.03168">
        <ele>88.4</ele>
        <time>2023-07-06T09:35:48Z</time>
      </trkpt>
      <trkpt lat="44.09245" lon="1.03177">
        <ele>88.2</ele>
        <time>2023-07-06T09:35:54Z</time>
      </trkpt>
      <trkpt lat="44.09243" lon="1.03184">
        <ele>88.2</ele>
        <time>2023-07-06T09:35:58Z</time>
      </trkpt>
      <trkpt lat="44.09242" lon="1.03186">
        <ele>88.2</ele>
        <time>2023-07-06T09:35:59Z</time>
      </trkpt>
      <trkpt lat="44.09242" lon="1.03188">
        <ele>88.2</ele>
        <time>2023-07-06T09:36:00Z</time>
      </trkpt>
      <trkpt lat="44.09241" lon="1.03198">
        <ele>88.4</ele>
        <time>2023-07-06T09:36:05Z</time>
      </trkpt>
      <trkpt lat="44.09241" lon="1.032">
        <ele>88.4</ele>
        <time>2023-07-06T09:36:06Z</time>
      </trkpt>
      <trkpt lat="44.0924" lon="1.03203">
        <ele>88.4</ele>
        <time>2023-07-06T09:36:08Z</time>
      </trkpt>
      <trkpt lat="44.09239" lon="1.03211">
        <ele>88.4</ele>
        <time>2023-07-06T09:36:12Z</time>
      </trkpt>
      <trkpt lat="44.09239" lon="1.03216">
        <ele>88.4</ele>
        <time>2023-07-06T09:36:15Z</time>
      </trkpt>
      <trkpt lat="44.09237" lon="1.03222">
        <ele>88</ele>
        <time>2023-07-06T09:36:19Z</time>
      </trkpt>
      <trkpt lat="44.09234" lon="1.03236">
        <ele>88.4</ele>
        <time>2023-07-06T09:36:27Z</time>
      </trkpt>
      <trkpt lat="44.09234" lon="1.03244">
        <ele>88.2</ele>
        <time>2023-07-06T09:36:31Z</time>
      </trkpt>
      <trkpt lat="44.09234" lon="1.03245">
        <ele>88.2</ele>
        <time>2023-07-06T09:36:32Z</time>
      </trkpt>
      <trkpt lat="44.09234" lon="1.03249">
        <ele>88</ele>
        <time>2023-07-06T09:36:34Z</time>
      </trkpt>
      <trkpt lat="44.09234" lon="1.03251">
        <ele>88</ele>
        <time>2023-07-06T09:36:35Z</time>
      </trkpt>
      <trkpt lat="44.09232" lon="1.03267">
        <ele>87.8</ele>
        <time>2023-07-06T09:36:44Z</time>
      </trkpt>
      <trkpt lat="44.09234" lon="1.0328">
        <ele>87.8</ele>
        <time>2023-07-06T09:36:52Z</time>
      </trkpt>
      <trkpt lat="44.09233" lon="1.03292">
        <ele>88</ele>
        <time>2023-07-06T09:36:59Z</time>
      </trkpt>
      <trkpt lat="44.09231" lon="1.03297">
        <ele>88</ele>
        <time>2023-07-06T09:37:02Z</time>
      </trkpt>
      <trkpt lat="44.09231" lon="1.03303">
        <ele>88</ele>
        <time>2023-07-06T09:37:05Z</time>
      </trkpt>
      <trkpt lat="44.09231" lon="1.03307">
        <ele>88</ele>
        <time>2023-07-06T09:37:07Z</time>
      </trkpt>
      <trkpt lat="44.09231" lon="1.03321">
        <ele>87.8</ele>
        <time>2023-07-06T09:37:15Z</time>
      </trkpt>
      <trkpt lat="44.09228" lon="1.03332">
        <ele>88</ele>
        <time>2023-07-06T09:37:22Z</time>
      </trkpt>
      <trkpt lat="44.09227" lon="1.03343">
        <ele>88.2</ele>
        <time>2023-07-06T09:37:29Z</time>
      </trkpt>
      <trkpt lat="44.09227" lon="1.03345">
        <ele>88.2</ele>
        <time>2023-07-06T09:37:30Z</time>
      </trkpt>
      <trkpt lat="44.09224" lon="1.03355">
        <ele>88.2</ele>
        <time>2023-07-06T09:37:35Z</time>
      </trkpt>
      <trkpt lat="44.09225" lon="1.03356">
        <ele>88.2</ele>
        <time>2023-07-06T09:37:36Z</time>
      </trkpt>
      <trkpt lat="44.09223" lon="1.03368">
        <ele>88.2</ele>
        <time>2023-07-06T09:37:43Z</time>
      </trkpt>
      <trkpt lat="44.09223" lon="1.03371">
        <ele>88.2</ele>
        <time>2023-07-06T09:37:45Z</time>
      </trkpt>
      <trkpt lat="44.0922" lon="1.03378">
        <ele>88.2</ele>
        <time>2023-07-06T09:37:49Z</time>
      </trkpt>
      <trkpt lat="44.09219" lon="1.03382">
        <ele>88.2</ele>
        <time>2023-07-06T09:37:51Z</time>
      </trkpt>
      <trkpt lat="44.0922" lon="1.03391">
        <ele>88.6</ele>
        <time>2023-07-06T09:37:55Z</time>
      </trkpt>
      <trkpt lat="44.0922" lon="1.03399">
        <ele>88.6</ele>
        <time>2023-07-06T09:38:00Z</time>
      </trkpt>
      <trkpt lat="44.09219" lon="1.03403">
        <ele>88.6</ele>
        <time>2023-07-06T09:38:02Z</time>
      </trkpt>
      <trkpt lat="44.09218" lon="1.03408">
        <ele>88.6</ele>
        <time>2023-07-06T09:38:05Z</time>
      </trkpt>
      <trkpt lat="44.09217" lon="1.03411">
        <ele>88.6</ele>
        <time>2023-07-06T09:38:06Z</time>
      </trkpt>
      <trkpt lat="44.09215" lon="1.03419">
        <ele>88.6</ele>
        <time>2023-07-06T09:38:10Z</time>
      </trkpt>
      <trkpt lat="44.09212" lon="1.03433">
        <ele>88.4</ele>
        <time>2023-07-06T09:38:19Z</time>
      </trkpt>
      <trkpt lat="44.09212" lon="1.03435">
        <ele>88.4</ele>
        <time>2023-07-06T09:38:21Z</time>
      </trkpt>
      <trkpt lat="44.0921" lon="1.03444">
        <ele>88.6</ele>
        <time>2023-07-06T09:38:26Z</time>
      </trkpt>
      <trkpt lat="44.0921" lon="1.03449">
        <ele>88.4</ele>
        <time>2023-07-06T09:38:29Z</time>
      </trkpt>
      <trkpt lat="44.0921" lon="1.03452">
        <ele>88.2</ele>
        <time>2023-07-06T09:38:31Z</time>
      </trkpt>
      <trkpt lat="44.09208" lon="1.03457">
        <ele>88</ele>
        <time>2023-07-06T09:38:34Z</time>
      </trkpt>
      <trkpt lat="44.09207" lon="1.03464">
        <ele>88</ele>
        <time>2023-07-06T09:38:37Z</time>
      </trkpt>
      <trkpt lat="44.09205" lon="1.03473">
        <ele>88.2</ele>
        <time>2023-07-06T09:38:41Z</time>
      </trkpt>
      <trkpt lat="44.09204" lon="1.03474">
        <ele>88.2</ele>
        <time>2023-07-06T09:38:42Z</time>
      </trkpt>
      <trkpt lat="44.09201" lon="1.03489">
        <ele>88.2</ele>
        <time>2023-07-06T09:38:51Z</time>
      </trkpt>
      <trkpt lat="44.09199" lon="1.035">
        <ele>88.4</ele>
        <time>2023-07-06T09:38:57Z</time>
      </trkpt>
      <trkpt lat="44.09199" lon="1.03502">
        <ele>88.4</ele>
        <time>2023-07-06T09:38:58Z</time>
      </trkpt>
      <trkpt lat="44.09196" lon="1.03517">
        <ele>88.2</ele>
        <time>2023-07-06T09:39:06Z</time>
      </trkpt>
      <trkpt lat="44.09195" lon="1.03519">
        <ele>88.2</ele>
        <time>2023-07-06T09:39:07Z</time>
      </trkpt>
      <trkpt lat="44.09193" lon="1.03528">
        <ele>88.2</ele>
        <time>2023-07-06T09:39:13Z</time>
      </trkpt>
      <trkpt lat="44.09192" lon="1.03535">
        <ele>88.2</ele>
        <time>2023-07-06T09:39:17Z</time>
      </trkpt>
      <trkpt lat="44.09189" lon="1.03544">
        <ele>88</ele>
        <time>2023-07-06T09:39:22Z</time>
      </trkpt>
      <trkpt lat="44.09187" lon="1.03555">
        <ele>88</ele>
        <time>2023-07-06T09:39:28Z</time>
      </trkpt>
      <trkpt lat="44.09184" lon="1.03569">
        <ele>88</ele>
        <time>2023-07-06T09:39:35Z</time>
      </trkpt>
      <trkpt lat="44.09184" lon="1.03572">
        <ele>88</ele>
        <time>2023-07-06T09:39:37Z</time>
      </trkpt>
      <trkpt lat="44.09184" lon="1.03578">
        <ele>88</ele>
        <time>2023-07-06T09:39:41Z</time>
      </trkpt>
      <trkpt lat="44.09184" lon="1.0358">
        <ele>88</ele>
        <time>2023-07-06T09:39:43Z</time>
      </trkpt>
      <trkpt lat="44.09183" lon="1.03583">
        <ele>88</ele>
        <time>2023-07-06T09:39:45Z</time>
      </trkpt>
      <trkpt lat="44.09182" lon="1.03588">
        <ele>88</ele>
        <time>2023-07-06T09:39:48Z</time>
      </trkpt>
      <trkpt lat="44.09181" lon="1.036">
        <ele>88</ele>
        <time>2023-07-06T09:39:56Z</time>
      </trkpt>
      <trkpt lat="44.09177" lon="1.03608">
        <ele>88</ele>
        <time>2023-07-06T09:40:00Z</time>
      </trkpt>
      <trkpt lat="44.09175" lon="1.03614">
        <ele>88</ele>
        <time>2023-07-06T09:40:04Z</time>
      </trkpt>
      <trkpt lat="44.09171" lon="1.03629">
        <ele>87.8</ele>
        <time>2023-07-06T09:40:12Z</time>
      </trkpt>
      <trkpt lat="44.09167" lon="1.03638">
        <ele>88</ele>
        <time>2023-07-06T09:40:18Z</time>
      </trkpt>
      <trkpt lat="44.09163" lon="1.03651">
        <ele>88</ele>
        <time>2023-07-06T09:40:26Z</time>
      </trkpt>
      <trkpt lat="44.09161" lon="1.0366">
        <ele>88</ele>
        <time>2023-07-06T09:40:33Z</time>
      </trkpt>
      <trkpt lat="44.0916" lon="1.03661">
        <ele>88</ele>
        <time>2023-07-06T09:40:34Z</time>
      </trkpt>
      <trkpt lat="44.09157" lon="1.03672">
        <ele>87.8</ele>
        <time>2023-07-06T09:40:42Z</time>
      </trkpt>
      <trkpt lat="44.09157" lon="1.0368">
        <ele>87.8</ele>
        <time>2023-07-06T09:40:49Z</time>
      </trkpt>
      <trkpt lat="44.09157" lon="1.03681">
        <ele>87.8</ele>
        <time>2023-07-06T09:40:50Z</time>
      </trkpt>
      <trkpt lat="44.09157" lon="1.03684">
        <ele>87.6</ele>
        <time>2023-07-06T09:40:52Z</time>
      </trkpt>
      <trkpt lat="44.09157" lon="1.03684">
        <ele>87.6</ele>
        <time>2023-07-06T09:40:53Z</time>
      </trkpt>
      <trkpt lat="44.09156" lon="1.03685">
        <ele>87.6</ele>
        <time>2023-07-06T09:40:54Z</time>
      </trkpt>
      <trkpt lat="44.09155" lon="1.03688">
        <ele>87.6</ele>
        <time>2023-07-06T09:40:56Z</time>
      </trkpt>
      <trkpt lat="44.09153" lon="1.03697">
        <ele>88</ele>
        <time>2023-07-06T09:41:03Z</time>
      </trkpt>
      <trkpt lat="44.09145" lon="1.03712">
        <ele>88</ele>
        <time>2023-07-06T09:41:13Z</time>
      </trkpt>
      <trkpt lat="44.09142" lon="1.03722">
        <ele>88</ele>
        <time>2023-07-06T09:41:20Z</time>
      </trkpt>
      <trkpt lat="44.09137" lon="1.03731">
        <ele>87.8</ele>
        <time>2023-07-06T09:41:26Z</time>
      </trkpt>
      <trkpt lat="44.09135" lon="1.03736">
        <ele>88</ele>
        <time>2023-07-06T09:41:29Z</time>
      </trkpt>
      <trkpt lat="44.09133" lon="1.03739">
        <ele>88.4</ele>
        <time>2023-07-06T09:41:31Z</time>
      </trkpt>
      <trkpt lat="44.09132" lon="1.03743">
        <ele>88.2</ele>
        <time>2023-07-06T09:41:33Z</time>
      </trkpt>
      <trkpt lat="44.09131" lon="1.03745">
        <ele>88.2</ele>
        <time>2023-07-06T09:41:34Z</time>
      </trkpt>
      <trkpt lat="44.09128" lon="1.03751">
        <ele>88</ele>
        <time>2023-07-06T09:41:37Z</time>
      </trkpt>
      <trkpt lat="44.09124" lon="1.03761">
        <ele>88</ele>
        <time>2023-07-06T09:41:43Z</time>
      </trkpt>
      <trkpt lat="44.09124" lon="1.03762">
        <ele>88</ele>
        <time>2023-07-06T09:41:44Z</time>
      </trkpt>
      <trkpt lat="44.09121" lon="1.03773">
        <ele>88</ele>
        <time>2023-07-06T09:41:50Z</time>
      </trkpt>
      <trkpt lat="44.09118" lon="1.03781">
        <ele>87.8</ele>
        <time>2023-07-06T09:41:55Z</time>
      </trkpt>
      <trkpt lat="44.09117" lon="1.03783">
        <ele>87.8</ele>
        <time>2023-07-06T09:41:57Z</time>
      </trkpt>
      <trkpt lat="44.09114" lon="1.03793">
        <ele>88</ele>
        <time>2023-07-06T09:42:02Z</time>
      </trkpt>
      <trkpt lat="44.09113" lon="1.038">
        <ele>88.2</ele>
        <time>2023-07-06T09:42:06Z</time>
      </trkpt>
      <trkpt lat="44.09107" lon="1.03811">
        <ele>88</ele>
        <time>2023-07-06T09:42:11Z</time>
      </trkpt>
      <trkpt lat="44.09105" lon="1.03816">
        <ele>88</ele>
        <time>2023-07-06T09:42:14Z</time>
      </trkpt>
      <trkpt lat="44.09102" lon="1.03824">
        <ele>88</ele>
        <time>2023-07-06T09:42:20Z</time>
      </trkpt>
      <trkpt lat="44.091" lon="1.03829">
        <ele>88.2</ele>
        <time>2023-07-06T09:42:24Z</time>
      </trkpt>
      <trkpt lat="44.09097" lon="1.03833">
        <ele>88.4</ele>
        <time>2023-07-06T09:42:27Z</time>
      </trkpt>
      <trkpt lat="44.09093" lon="1.03845">
        <ele>87.8</ele>
        <time>2023-07-06T09:42:35Z</time>
      </trkpt>
      <trkpt lat="44.09091" lon="1.03848">
        <ele>87.8</ele>
        <time>2023-07-06T09:42:38Z</time>
      </trkpt>
      <trkpt lat="44.09089" lon="1.03849">
        <ele>87.8</ele>
        <time>2023-07-06T09:42:40Z</time>
      </trkpt>
      <trkpt lat="44.09089" lon="1.03851">
        <ele>88</ele>
        <time>2023-07-06T09:42:42Z</time>
      </trkpt>
      <trkpt lat="44.09088" lon="1.03853">
        <ele>88.2</ele>
        <time>2023-07-06T09:42:44Z</time>
      </trkpt>
      <trkpt lat="44.09087" lon="1.03856">
        <ele>88.2</ele>
        <time>2023-07-06T09:42:47Z</time>
      </trkpt>
      <trkpt lat="44.09084" lon="1.03862">
        <ele>88</ele>
        <time>2023-07-06T09:42:50Z</time>
      </trkpt>
      <trkpt lat="44.09076" lon="1.03879">
        <ele>88.2</ele>
        <time>2023-07-06T09:43:00Z</time>
      </trkpt>
      <trkpt lat="44.09075" lon="1.03889">
        <ele>88.4</ele>
        <time>2023-07-06T09:43:07Z</time>
      </trkpt>
      <trkpt lat="44.09073" lon="1.03894">
        <ele>88.2</ele>
        <time>2023-07-06T09:43:11Z</time>
      </trkpt>
      <trkpt lat="44.0907" lon="1.03901">
        <ele>88</ele>
        <time>2023-07-06T09:43:15Z</time>
      </trkpt>
      <trkpt lat="44.09065" lon="1.0392">
        <ele>88.2</ele>
        <time>2023-07-06T09:43:23Z</time>
      </trkpt>
      <trkpt lat="44.09061" lon="1.03926">
        <ele>88.2</ele>
        <time>2023-07-06T09:43:28Z</time>
      </trkpt>
      <trkpt lat="44.09058" lon="1.03928">
        <ele>88.2</ele>
        <time>2023-07-06T09:43:30Z</time>
      </trkpt>
      <trkpt lat="44.09056" lon="1.03932">
        <ele>88.2</ele>
        <time>2023-07-06T09:43:32Z</time>
      </trkpt>
      <trkpt lat="44.09056" lon="1.03934">
        <ele>88.4</ele>
        <time>2023-07-06T09:43:33Z</time>
      </trkpt>
      <trkpt lat="44.09055" lon="1.03935">
        <ele>88.6</ele>
        <time>2023-07-06T09:43:34Z</time>
      </trkpt>
      <trkpt lat="44.09053" lon="1.0394">
        <ele>88.6</ele>
        <time>2023-07-06T09:43:36Z</time>
      </trkpt>
      <trkpt lat="44.09051" lon="1.03945">
        <ele>88.6</ele>
        <time>2023-07-06T09:43:39Z</time>
      </trkpt>
      <trkpt lat="44.0905" lon="1.03949">
        <ele>88.6</ele>
        <time>2023-07-06T09:43:42Z</time>
      </trkpt>
      <trkpt lat="44.0905" lon="1.0395">
        <ele>88.4</ele>
        <time>2023-07-06T09:43:43Z</time>
      </trkpt>
      <trkpt lat="44.09043" lon="1.03964">
        <ele>88.6</ele>
        <time>2023-07-06T09:43:51Z</time>
      </trkpt>
      <trkpt lat="44.0904" lon="1.03974">
        <ele>88.6</ele>
        <time>2023-07-06T09:43:58Z</time>
      </trkpt>
      <trkpt lat="44.09037" lon="1.03983">
        <ele>88.4</ele>
        <time>2023-07-06T09:44:05Z</time>
      </trkpt>
      <trkpt lat="44.09035" lon="1.03987">
        <ele>88.4</ele>
        <time>2023-07-06T09:44:08Z</time>
      </trkpt>
      <trkpt lat="44.09034" lon="1.0399">
        <ele>88.4</ele>
        <time>2023-07-06T09:44:11Z</time>
      </trkpt>
      <trkpt lat="44.09034" lon="1.03991">
        <ele>88.4</ele>
        <time>2023-07-06T09:44:12Z</time>
      </trkpt>
      <trkpt lat="44.09033" lon="1.03994">
        <ele>88.4</ele>
        <time>2023-07-06T09:44:15Z</time>
      </trkpt>
      <trkpt lat="44.09031" lon="1.04">
        <ele>88.6</ele>
        <time>2023-07-06T09:44:18Z</time>
      </trkpt>
      <trkpt lat="44.0903" lon="1.04002">
        <ele>88.6</ele>
        <time>2023-07-06T09:44:19Z</time>
      </trkpt>
      <trkpt lat="44.0903" lon="1.04003">
        <ele>88.6</ele>
        <time>2023-07-06T09:44:20Z</time>
      </trkpt>
      <trkpt lat="44.09028" lon="1.04007">
        <ele>88.8</ele>
        <time>2023-07-06T09:44:23Z</time>
      </trkpt>
      <trkpt lat="44.09028" lon="1.04008">
        <ele>89</ele>
        <time>2023-07-06T09:44:24Z</time>
      </trkpt>
      <trkpt lat="44.09025" lon="1.04011">
        <ele>88.6</ele>
        <time>2023-07-06T09:44:28Z</time>
      </trkpt>
      <trkpt lat="44.09022" lon="1.04017">
        <ele>88.8</ele>
        <time>2023-07-06T09:44:32Z</time>
      </trkpt>
      <trkpt lat="44.0902" lon="1.04021">
        <ele>88.6</ele>
        <time>2023-07-06T09:44:34Z</time>
      </trkpt>
      <trkpt lat="44.09018" lon="1.04025">
        <ele>88.6</ele>
        <time>2023-07-06T09:44:37Z</time>
      </trkpt>
      <trkpt lat="44.09013" lon="1.04036">
        <ele>88.6</ele>
        <time>2023-07-06T09:44:43Z</time>
      </trkpt>
      <trkpt lat="44.09011" lon="1.04042">
        <ele>88.8</ele>
        <time>2023-07-06T09:44:46Z</time>
      </trkpt>
      <trkpt lat="44.09009" lon="1.04049">
        <ele>88.8</ele>
        <time>2023-07-06T09:44:50Z</time>
      </trkpt>
      <trkpt lat="44.09008" lon="1.04052">
        <ele>88.8</ele>
        <time>2023-07-06T09:44:52Z</time>
      </trkpt>
      <trkpt lat="44.09008" lon="1.04055">
        <ele>89</ele>
        <time>2023-07-06T09:44:54Z</time>
      </trkpt>
      <trkpt lat="44.09008" lon="1.04058">
        <ele>88.8</ele>
        <time>2023-07-06T09:44:56Z</time>
      </trkpt>
      <trkpt lat="44.09006" lon="1.04072">
        <ele>88.6</ele>
        <time>2023-07-06T09:45:02Z</time>
      </trkpt>
      <trkpt lat="44.09006" lon="1.04074">
        <ele>88.6</ele>
        <time>2023-07-06T09:45:04Z</time>
      </trkpt>
      <trkpt lat="44.09006" lon="1.04079">
        <ele>88.8</ele>
        <time>2023-07-06T09:45:06Z</time>
      </trkpt>
      <trkpt lat="44.09005" lon="1.04083">
        <ele>88.8</ele>
        <time>2023-07-06T09:45:08Z</time>
      </trkpt>
      <trkpt lat="44.09005" lon="1.04084">
        <ele>88.8</ele>
        <time>2023-07-06T09:45:09Z</time>
      </trkpt>
      <trkpt lat="44.09003" lon="1.04096">
        <ele>89</ele>
        <time>2023-07-06T09:45:16Z</time>
      </trkpt>
      <trkpt lat="44.09" lon="1.04106">
        <ele>88.8</ele>
        <time>2023-07-06T09:45:22Z</time>
      </trkpt>
      <trkpt lat="44.08999" lon="1.04107">
        <ele>88.8</ele>
        <time>2023-07-06T09:45:23Z</time>
      </trkpt>
      <trkpt lat="44.08999" lon="1.04108">
        <ele>88.8</ele>
        <time>2023-07-06T09:45:24Z</time>
      </trkpt>
      <trkpt lat="44.08997" lon="1.04125">
        <ele>89</ele>
        <time>2023-07-06T09:45:34Z</time>
      </trkpt>
      <trkpt lat="44.08995" lon="1.04139">
        <ele>89.2</ele>
        <time>2023-07-06T09:45:42Z</time>
      </trkpt>
      <trkpt lat="44.08995" lon="1.04151">
        <ele>88.8</ele>
        <time>2023-07-06T09:45:50Z</time>
      </trkpt>
      <trkpt lat="44.08995" lon="1.04165">
        <ele>89.2</ele>
        <time>2023-07-06T09:45:58Z</time>
      </trkpt>
      <trkpt lat="44.08996" lon="1.04171">
        <ele>89.2</ele>
        <time>2023-07-06T09:46:01Z</time>
      </trkpt>
      <trkpt lat="44.08997" lon="1.04179">
        <ele>89.4</ele>
        <time>2023-07-06T09:46:06Z</time>
      </trkpt>
      <trkpt lat="44.08998" lon="1.04187">
        <ele>89.6</ele>
        <time>2023-07-06T09:46:11Z</time>
      </trkpt>
      <trkpt lat="44.08999" lon="1.04206">
        <ele>89.4</ele>
        <time>2023-07-06T09:46:22Z</time>
      </trkpt>
      <trkpt lat="44.09001" lon="1.04223">
        <ele>89.4</ele>
        <time>2023-07-06T09:46:32Z</time>
      </trkpt>
      <trkpt lat="44.09003" lon="1.04233">
        <ele>89.6</ele>
        <time>2023-07-06T09:46:38Z</time>
      </trkpt>
      <trkpt lat="44.09003" lon="1.04234">
        <ele>89.6</ele>
        <time>2023-07-06T09:46:39Z</time>
      </trkpt>
      <trkpt lat="44.09003" lon="1.04239">
        <ele>89.4</ele>
        <time>2023-07-06T09:46:42Z</time>
      </trkpt>
      <trkpt lat="44.09002" lon="1.04249">
        <ele>89.6</ele>
        <time>2023-07-06T09:46:47Z</time>
      </trkpt>
      <trkpt lat="44.09002" lon="1.04262">
        <ele>89.6</ele>
        <time>2023-07-06T09:46:55Z</time>
      </trkpt>
      <trkpt lat="44.09005" lon="1.04272">
        <ele>89.6</ele>
        <time>2023-07-06T09:47:02Z</time>
      </trkpt>
      <trkpt lat="44.09008" lon="1.04286">
        <ele>89.4</ele>
        <time>2023-07-06T09:47:10Z</time>
      </trkpt>
      <trkpt lat="44.09011" lon="1.04303">
        <ele>89.8</ele>
        <time>2023-07-06T09:47:19Z</time>
      </trkpt>
      <trkpt lat="44.09013" lon="1.04312">
        <ele>89.8</ele>
        <time>2023-07-06T09:47:25Z</time>
      </trkpt>
      <trkpt lat="44.09012" lon="1.04316">
        <ele>89.8</ele>
        <time>2023-07-06T09:47:28Z</time>
      </trkpt>
      <trkpt lat="44.09014" lon="1.04328">
        <ele>89.6</ele>
        <time>2023-07-06T09:47:35Z</time>
      </trkpt>
      <trkpt lat="44.09016" lon="1.04341">
        <ele>89.8</ele>
        <time>2023-07-06T09:47:42Z</time>
      </trkpt>
      <trkpt lat="44.09018" lon="1.04354">
        <ele>89.8</ele>
        <time>2023-07-06T09:47:50Z</time>
      </trkpt>
      <trkpt lat="44.0902" lon="1.0437">
        <ele>89.8</ele>
        <time>2023-07-06T09:47:59Z</time>
      </trkpt>
      <trkpt lat="44.09024" lon="1.04384">
        <ele>89.6</ele>
        <time>2023-07-06T09:48:08Z</time>
      </trkpt>
      <trkpt lat="44.09027" lon="1.04395">
        <ele>89.6</ele>
        <time>2023-07-06T09:48:15Z</time>
      </trkpt>
      <trkpt lat="44.09028" lon="1.04399">
        <ele>89.6</ele>
        <time>2023-07-06T09:48:18Z</time>
      </trkpt>
      <trkpt lat="44.09028" lon="1.04404">
        <ele>89.6</ele>
        <time>2023-07-06T09:48:21Z</time>
      </trkpt>
      <trkpt lat="44.09029" lon="1.04408">
        <ele>89.8</ele>
        <time>2023-07-06T09:48:23Z</time>
      </trkpt>
      <trkpt lat="44.09029" lon="1.04421">
        <ele>90</ele>
        <time>2023-07-06T09:48:30Z</time>
      </trkpt>
      <trkpt lat="44.09029" lon="1.04423">
        <ele>90</ele>
        <time>2023-07-06T09:48:31Z</time>
      </trkpt>
      <trkpt lat="44.09029" lon="1.04443">
        <ele>89.8</ele>
        <time>2023-07-06T09:48:42Z</time>
      </trkpt>
      <trkpt lat="44.09032" lon="1.04458">
        <ele>90.4</ele>
        <time>2023-07-06T09:48:51Z</time>
      </trkpt>
      <trkpt lat="44.09033" lon="1.04474">
        <ele>90</ele>
        <time>2023-07-06T09:49:00Z</time>
      </trkpt>
      <trkpt lat="44.09034" lon="1.0449">
        <ele>90.4</ele>
        <time>2023-07-06T09:49:09Z</time>
      </trkpt>
      <trkpt lat="44.09036" lon="1.04503">
        <ele>90.2</ele>
        <time>2023-07-06T09:49:16Z</time>
      </trkpt>
      <trkpt lat="44.0904" lon="1.04517">
        <ele>90.4</ele>
        <time>2023-07-06T09:49:24Z</time>
      </trkpt>
      <trkpt lat="44.09042" lon="1.04528">
        <ele>90.2</ele>
        <time>2023-07-06T09:49:30Z</time>
      </trkpt>
      <trkpt lat="44.09043" lon="1.04532">
        <ele>90.2</ele>
        <time>2023-07-06T09:49:32Z</time>
      </trkpt>
      <trkpt lat="44.09043" lon="1.04537">
        <ele>90.4</ele>
        <time>2023-07-06T09:49:35Z</time>
      </trkpt>
      <trkpt lat="44.09043" lon="1.04539">
        <ele>90.4</ele>
        <time>2023-07-06T09:49:36Z</time>
      </trkpt>
      <trkpt lat="44.09045" lon="1.04546">
        <ele>90</ele>
        <time>2023-07-06T09:49:40Z</time>
      </trkpt>
      <trkpt lat="44.09048" lon="1.04555">
        <ele>90.2</ele>
        <time>2023-07-06T09:49:46Z</time>
      </trkpt>
      <trkpt lat="44.09049" lon="1.0456">
        <ele>90.4</ele>
        <time>2023-07-06T09:49:49Z</time>
      </trkpt>
      <trkpt lat="44.09051" lon="1.04564">
        <ele>90.6</ele>
        <time>2023-07-06T09:49:52Z</time>
      </trkpt>
      <trkpt lat="44.09052" lon="1.04567">
        <ele>90.6</ele>
        <time>2023-07-06T09:49:54Z</time>
      </trkpt>
      <trkpt lat="44.09052" lon="1.04572">
        <ele>90.6</ele>
        <time>2023-07-06T09:49:57Z</time>
      </trkpt>
      <trkpt lat="44.09052" lon="1.04574">
        <ele>90.6</ele>
        <time>2023-07-06T09:49:58Z</time>
      </trkpt>
      <trkpt lat="44.09052" lon="1.04584">
        <ele>90.8</ele>
        <time>2023-07-06T09:50:04Z</time>
      </trkpt>
      <trkpt lat="44.09059" lon="1.04594">
        <ele>90.4</ele>
        <time>2023-07-06T09:50:11Z</time>
      </trkpt>
      <trkpt lat="44.0906" lon="1.04599">
        <ele>90.6</ele>
        <time>2023-07-06T09:50:14Z</time>
      </trkpt>
      <trkpt lat="44.09061" lon="1.04603">
        <ele>90.6</ele>
        <time>2023-07-06T09:50:17Z</time>
      </trkpt>
      <trkpt lat="44.09061" lon="1.04605">
        <ele>90.6</ele>
        <time>2023-07-06T09:50:18Z</time>
      </trkpt>
      <trkpt lat="44.09062" lon="1.04617">
        <ele>90.8</ele>
        <time>2023-07-06T09:50:25Z</time>
      </trkpt>
      <trkpt lat="44.09066" lon="1.04629">
        <ele>90.8</ele>
        <time>2023-07-06T09:50:32Z</time>
      </trkpt>
      <trkpt lat="44.09069" lon="1.04638">
        <ele>90.6</ele>
        <time>2023-07-06T09:50:38Z</time>
      </trkpt>
      <trkpt lat="44.09074" lon="1.04651">
        <ele>90.8</ele>
        <time>2023-07-06T09:50:46Z</time>
      </trkpt>
      <trkpt lat="44.09075" lon="1.04655">
        <ele>90.8</ele>
        <time>2023-07-06T09:50:49Z</time>
      </trkpt>
      <trkpt lat="44.09077" lon="1.0466">
        <ele>90.6</ele>
        <time>2023-07-06T09:50:52Z</time>
      </trkpt>
      <trkpt lat="44.09077" lon="1.04661">
        <ele>90.6</ele>
        <time>2023-07-06T09:50:53Z</time>
      </trkpt>
      <trkpt lat="44.09079" lon="1.04664">
        <ele>90.6</ele>
        <time>2023-07-06T09:50:55Z</time>
      </trkpt>
      <trkpt lat="44.09081" lon="1.04672">
        <ele>90.8</ele>
        <time>2023-07-06T09:51:00Z</time>
      </trkpt>
      <trkpt lat="44.09087" lon="1.04681">
        <ele>90.4</ele>
        <time>2023-07-06T09:51:07Z</time>
      </trkpt>
      <trkpt lat="44.09088" lon="1.04686">
        <ele>90.2</ele>
        <time>2023-07-06T09:51:10Z</time>
      </trkpt>
      <trkpt lat="44.09092" lon="1.04693">
        <ele>90.6</ele>
        <time>2023-07-06T09:51:15Z</time>
      </trkpt>
      <trkpt lat="44.09093" lon="1.04696">
        <ele>90.8</ele>
        <time>2023-07-06T09:51:17Z</time>
      </trkpt>
      <trkpt lat="44.09096" lon="1.04702">
        <ele>90.8</ele>
        <time>2023-07-06T09:51:22Z</time>
      </trkpt>
      <trkpt lat="44.09097" lon="1.04705">
        <ele>90.6</ele>
        <time>2023-07-06T09:51:24Z</time>
      </trkpt>
      <trkpt lat="44.09099" lon="1.04712">
        <ele>90.6</ele>
        <time>2023-07-06T09:51:29Z</time>
      </trkpt>
      <trkpt lat="44.09101" lon="1.04715">
        <ele>90.6</ele>
        <time>2023-07-06T09:51:31Z</time>
      </trkpt>
      <trkpt lat="44.09104" lon="1.04725">
        <ele>90.6</ele>
        <time>2023-07-06T09:51:38Z</time>
      </trkpt>
      <trkpt lat="44.09108" lon="1.0473">
        <ele>90.6</ele>
        <time>2023-07-06T09:51:42Z</time>
      </trkpt>
      <trkpt lat="44.0911" lon="1.04735">
        <ele>90.8</ele>
        <time>2023-07-06T09:51:45Z</time>
      </trkpt>
      <trkpt lat="44.09111" lon="1.04738">
        <ele>91</ele>
        <time>2023-07-06T09:51:47Z</time>
      </trkpt>
      <trkpt lat="44.09113" lon="1.04746">
        <ele>91.2</ele>
        <time>2023-07-06T09:51:52Z</time>
      </trkpt>
      <trkpt lat="44.09115" lon="1.04747">
        <ele>91.2</ele>
        <time>2023-07-06T09:51:53Z</time>
      </trkpt>
      <trkpt lat="44.09121" lon="1.04759">
        <ele>90.6</ele>
        <time>2023-07-06T09:52:02Z</time>
      </trkpt>
      <trkpt lat="44.09123" lon="1.04762">
        <ele>90.8</ele>
        <time>2023-07-06T09:52:04Z</time>
      </trkpt>
      <trkpt lat="44.09129" lon="1.04765">
        <ele>91</ele>
        <time>2023-07-06T09:52:08Z</time>
      </trkpt>
      <trkpt lat="44.0913" lon="1.04766">
        <ele>91</ele>
        <time>2023-07-06T09:52:09Z</time>
      </trkpt>
      <trkpt lat="44.09131" lon="1.04766">
        <ele>91</ele>
        <time>2023-07-06T09:52:10Z</time>
      </trkpt>
      <trkpt lat="44.09136" lon="1.04774">
        <ele>90.8</ele>
        <time>2023-07-06T09:52:16Z</time>
      </trkpt>
      <trkpt lat="44.09137" lon="1.04777">
        <ele>90.8</ele>
        <time>2023-07-06T09:52:18Z</time>
      </trkpt>
      <trkpt lat="44.0914" lon="1.04783">
        <ele>91.2</ele>
        <time>2023-07-06T09:52:22Z</time>
      </trkpt>
      <trkpt lat="44.09146" lon="1.04796">
        <ele>90.8</ele>
        <time>2023-07-06T09:52:30Z</time>
      </trkpt>
      <trkpt lat="44.09148" lon="1.048">
        <ele>90.8</ele>
        <time>2023-07-06T09:52:33Z</time>
      </trkpt>
      <trkpt lat="44.09149" lon="1.04801">
        <ele>90.8</ele>
        <time>2023-07-06T09:52:34Z</time>
      </trkpt>
      <trkpt lat="44.0915" lon="1.04803">
        <ele>90.8</ele>
        <time>2023-07-06T09:52:35Z</time>
      </trkpt>
      <trkpt lat="44.09151" lon="1.04806">
        <ele>90.8</ele>
        <time>2023-07-06T09:52:37Z</time>
      </trkpt>
      <trkpt lat="44.09152" lon="1.0481">
        <ele>90.8</ele>
        <time>2023-07-06T09:52:40Z</time>
      </trkpt>
      <trkpt lat="44.09153" lon="1.04812">
        <ele>91</ele>
        <time>2023-07-06T09:52:41Z</time>
      </trkpt>
      <trkpt lat="44.09156" lon="1.04817">
        <ele>91.2</ele>
        <time>2023-07-06T09:52:45Z</time>
      </trkpt>
      <trkpt lat="44.0916" lon="1.04822">
        <ele>90.8</ele>
        <time>2023-07-06T09:52:49Z</time>
      </trkpt>
      <trkpt lat="44.09161" lon="1.04824">
        <ele>90.8</ele>
        <time>2023-07-06T09:52:51Z</time>
      </trkpt>
      <trkpt lat="44.09162" lon="1.04829">
        <ele>90.8</ele>
        <time>2023-07-06T09:52:55Z</time>
      </trkpt>
      <trkpt lat="44.09165" lon="1.04838">
        <ele>90.6</ele>
        <time>2023-07-06T09:53:00Z</time>
      </trkpt>
      <trkpt lat="44.09172" lon="1.04849">
        <ele>90.8</ele>
        <time>2023-07-06T09:53:07Z</time>
      </trkpt>
      <trkpt lat="44.09175" lon="1.04853">
        <ele>90.8</ele>
        <time>2023-07-06T09:53:10Z</time>
      </trkpt>
      <trkpt lat="44.09179" lon="1.0486">
        <ele>90.8</ele>
        <time>2023-07-06T09:53:15Z</time>
      </trkpt>
      <trkpt lat="44.0918" lon="1.04865">
        <ele>90.8</ele>
        <time>2023-07-06T09:53:18Z</time>
      </trkpt>
      <trkpt lat="44.09182" lon="1.04869">
        <ele>90.8</ele>
        <time>2023-07-06T09:53:20Z</time>
      </trkpt>
      <trkpt lat="44.09184" lon="1.04873">
        <ele>90.8</ele>
        <time>2023-07-06T09:53:23Z</time>
      </trkpt>
      <trkpt lat="44.09188" lon="1.04886">
        <ele>90.8</ele>
        <time>2023-07-06T09:53:31Z</time>
      </trkpt>
      <trkpt lat="44.0919" lon="1.04893">
        <ele>90.8</ele>
        <time>2023-07-06T09:53:36Z</time>
      </trkpt>
      <trkpt lat="44.09192" lon="1.04899">
        <ele>90.8</ele>
        <time>2023-07-06T09:53:40Z</time>
      </trkpt>
      <trkpt lat="44.09196" lon="1.04904">
        <ele>90.6</ele>
        <time>2023-07-06T09:53:44Z</time>
      </trkpt>
      <trkpt lat="44.09203" lon="1.04913">
        <ele>90.6</ele>
        <time>2023-07-06T09:53:51Z</time>
      </trkpt>
      <trkpt lat="44.09211" lon="1.04924">
        <ele>91</ele>
        <time>2023-07-06T09:53:59Z</time>
      </trkpt>
      <trkpt lat="44.09216" lon="1.04934">
        <ele>90.8</ele>
        <time>2023-07-06T09:54:06Z</time>
      </trkpt>
      <trkpt lat="44.09222" lon="1.04941">
        <ele>90.8</ele>
        <time>2023-07-06T09:54:12Z</time>
      </trkpt>
      <trkpt lat="44.09225" lon="1.04946">
        <ele>90.6</ele>
        <time>2023-07-06T09:54:16Z</time>
      </trkpt>
      <trkpt lat="44.09229" lon="1.04951">
        <ele>90.6</ele>
        <time>2023-07-06T09:54:20Z</time>
      </trkpt>
      <trkpt lat="44.09233" lon="1.04963">
        <ele>91</ele>
        <time>2023-07-06T09:54:28Z</time>
      </trkpt>
      <trkpt lat="44.09235" lon="1.04966">
        <ele>90.8</ele>
        <time>2023-07-06T09:54:31Z</time>
      </trkpt>
      <trkpt lat="44.09235" lon="1.04967">
        <ele>90.8</ele>
        <time>2023-07-06T09:54:33Z</time>
      </trkpt>
      <trkpt lat="44.09234" lon="1.04967">
        <ele>90.8</ele>
        <time>2023-07-06T09:54:34Z</time>
      </trkpt>
      <trkpt lat="44.09238" lon="1.04973">
        <ele>90.8</ele>
        <time>2023-07-06T09:54:39Z</time>
      </trkpt>
      <trkpt lat="44.09241" lon="1.04982">
        <ele>90.8</ele>
        <time>2023-07-06T09:54:45Z</time>
      </trkpt>
      <trkpt lat="44.09244" lon="1.04986">
        <ele>91</ele>
        <time>2023-07-06T09:54:48Z</time>
      </trkpt>
      <trkpt lat="44.09247" lon="1.04994">
        <ele>91</ele>
        <time>2023-07-06T09:54:53Z</time>
      </trkpt>
      <trkpt lat="44.09252" lon="1.05006">
        <ele>90.6</ele>
        <time>2023-07-06T09:55:01Z</time>
      </trkpt>
      <trkpt lat="44.09255" lon="1.05011">
        <ele>90.6</ele>
        <time>2023-07-06T09:55:05Z</time>
      </trkpt>
      <trkpt lat="44.09256" lon="1.05014">
        <ele>90.6</ele>
        <time>2023-07-06T09:55:07Z</time>
      </trkpt>
      <trkpt lat="44.0926" lon="1.05022">
        <ele>91</ele>
        <time>2023-07-06T09:55:13Z</time>
      </trkpt>
      <trkpt lat="44.09266" lon="1.05032">
        <ele>90.6</ele>
        <time>2023-07-06T09:55:21Z</time>
      </trkpt>
      <trkpt lat="44.0927" lon="1.05039">
        <ele>90.8</ele>
        <time>2023-07-06T09:55:26Z</time>
      </trkpt>
      <trkpt lat="44.09273" lon="1.05041">
        <ele>90.6</ele>
        <time>2023-07-06T09:55:28Z</time>
      </trkpt>
      <trkpt lat="44.09276" lon="1.05046">
        <ele>90.4</ele>
        <time>2023-07-06T09:55:32Z</time>
      </trkpt>
      <trkpt lat="44.09279" lon="1.05049">
        <ele>90.4</ele>
        <time>2023-07-06T09:55:34Z</time>
      </trkpt>
      <trkpt lat="44.09283" lon="1.05054">
        <ele>90.8</ele>
        <time>2023-07-06T09:55:38Z</time>
      </trkpt>
      <trkpt lat="44.09283" lon="1.05061">
        <ele>90.6</ele>
        <time>2023-07-06T09:55:41Z</time>
      </trkpt>
      <trkpt lat="44.09284" lon="1.05065">
        <ele>90.4</ele>
        <time>2023-07-06T09:55:43Z</time>
      </trkpt>
      <trkpt lat="44.09288" lon="1.05074">
        <ele>90.8</ele>
        <time>2023-07-06T09:55:49Z</time>
      </trkpt>
      <trkpt lat="44.09293" lon="1.05087">
        <ele>91.2</ele>
        <time>2023-07-06T09:55:57Z</time>
      </trkpt>
      <trkpt lat="44.09294" lon="1.0509">
        <ele>91.2</ele>
        <time>2023-07-06T09:55:59Z</time>
      </trkpt>
      <trkpt lat="44.09297" lon="1.05097">
        <ele>91.4</ele>
        <time>2023-07-06T09:56:04Z</time>
      </trkpt>
      <trkpt lat="44.09298" lon="1.05099">
        <ele>91.4</ele>
        <time>2023-07-06T09:56:06Z</time>
      </trkpt>
      <trkpt lat="44.09299" lon="1.05103">
        <ele>91.6</ele>
        <time>2023-07-06T09:56:09Z</time>
      </trkpt>
      <trkpt lat="44.09304" lon="1.05109">
        <ele>92.2</ele>
        <time>2023-07-06T09:56:15Z</time>
      </trkpt>
      <trkpt lat="44.09306" lon="1.05112">
        <ele>92.4</ele>
        <time>2023-07-06T09:56:17Z</time>
      </trkpt>
      <trkpt lat="44.09307" lon="1.05115">
        <ele>92.4</ele>
        <time>2023-07-06T09:56:19Z</time>
      </trkpt>
      <trkpt lat="44.09309" lon="1.05122">
        <ele>92</ele>
        <time>2023-07-06T09:56:24Z</time>
      </trkpt>
      <trkpt lat="44.09309" lon="1.05123">
        <ele>92</ele>
        <time>2023-07-06T09:56:25Z</time>
      </trkpt>
      <trkpt lat="44.09312" lon="1.0513">
        <ele>91.8</ele>
        <time>2023-07-06T09:56:29Z</time>
      </trkpt>
      <trkpt lat="44.09313" lon="1.05131">
        <ele>91.6</ele>
        <time>2023-07-06T09:56:30Z</time>
      </trkpt>
      <trkpt lat="44.09313" lon="1.05132">
        <ele>91.4</ele>
        <time>2023-07-06T09:56:31Z</time>
      </trkpt>
      <trkpt lat="44.09318" lon="1.05138">
        <ele>91</ele>
        <time>2023-07-06T09:56:36Z</time>
      </trkpt>
      <trkpt lat="44.09319" lon="1.0514">
        <ele>90.8</ele>
        <time>2023-07-06T09:56:38Z</time>
      </trkpt>
      <trkpt lat="44.09326" lon="1.05147">
        <ele>90.8</ele>
        <time>2023-07-06T09:56:45Z</time>
      </trkpt>
      <trkpt lat="44.09329" lon="1.0515">
        <ele>90.8</ele>
        <time>2023-07-06T09:56:48Z</time>
      </trkpt>
      <trkpt lat="44.09335" lon="1.05156">
        <ele>90.6</ele>
        <time>2023-07-06T09:56:53Z</time>
      </trkpt>
      <trkpt lat="44.09335" lon="1.05158">
        <ele>90.6</ele>
        <time>2023-07-06T09:56:54Z</time>
      </trkpt>
      <trkpt lat="44.09339" lon="1.05168">
        <ele>90.6</ele>
        <time>2023-07-06T09:57:00Z</time>
      </trkpt>
      <trkpt lat="44.09342" lon="1.05172">
        <ele>90.6</ele>
        <time>2023-07-06T09:57:03Z</time>
      </trkpt>
      <trkpt lat="44.09343" lon="1.05177">
        <ele>90.4</ele>
        <time>2023-07-06T09:57:06Z</time>
      </trkpt>
      <trkpt lat="44.09348" lon="1.05188">
        <ele>90.6</ele>
        <time>2023-07-06T09:57:13Z</time>
      </trkpt>
      <trkpt lat="44.09351" lon="1.05194">
        <ele>90.6</ele>
        <time>2023-07-06T09:57:18Z</time>
      </trkpt>
      <trkpt lat="44.09352" lon="1.05196">
        <ele>90.6</ele>
        <time>2023-07-06T09:57:19Z</time>
      </trkpt>
      <trkpt lat="44.09352" lon="1.05196">
        <ele>90.6</ele>
        <time>2023-07-06T09:57:20Z</time>
      </trkpt>
      <trkpt lat="44.09356" lon="1.05204">
        <ele>90.4</ele>
        <time>2023-07-06T09:57:27Z</time>
      </trkpt>
      <trkpt lat="44.09362" lon="1.05213">
        <ele>90.2</ele>
        <time>2023-07-06T09:57:34Z</time>
      </trkpt>
      <trkpt lat="44.09362" lon="1.05215">
        <ele>90.4</ele>
        <time>2023-07-06T09:57:35Z</time>
      </trkpt>
      <trkpt lat="44.09364" lon="1.05217">
        <ele>90.2</ele>
        <time>2023-07-06T09:57:37Z</time>
      </trkpt>
      <trkpt lat="44.09366" lon="1.05221">
        <ele>90.2</ele>
        <time>2023-07-06T09:57:40Z</time>
      </trkpt>
      <trkpt lat="44.09367" lon="1.05222">
        <ele>90.2</ele>
        <time>2023-07-06T09:57:41Z</time>
      </trkpt>
      <trkpt lat="44.09373" lon="1.05233">
        <ele>90.2</ele>
        <time>2023-07-06T09:57:49Z</time>
      </trkpt>
      <trkpt lat="44.09378" lon="1.05244">
        <ele>90.4</ele>
        <time>2023-07-06T09:57:57Z</time>
      </trkpt>
      <trkpt lat="44.09381" lon="1.05248">
        <ele>90.6</ele>
        <time>2023-07-06T09:58:00Z</time>
      </trkpt>
      <trkpt lat="44.09383" lon="1.0525">
        <ele>90.6</ele>
        <time>2023-07-06T09:58:02Z</time>
      </trkpt>
      <trkpt lat="44.09387" lon="1.05257">
        <ele>91</ele>
        <time>2023-07-06T09:58:07Z</time>
      </trkpt>
      <trkpt lat="44.09394" lon="1.05268">
        <ele>90.6</ele>
        <time>2023-07-06T09:58:15Z</time>
      </trkpt>
      <trkpt lat="44.09397" lon="1.05279">
        <ele>90.6</ele>
        <time>2023-07-06T09:58:22Z</time>
      </trkpt>
      <trkpt lat="44.09398" lon="1.0528">
        <ele>90.6</ele>
        <time>2023-07-06T09:58:23Z</time>
      </trkpt>
      <trkpt lat="44.09405" lon="1.05295">
        <ele>90.8</ele>
        <time>2023-07-06T09:58:33Z</time>
      </trkpt>
      <trkpt lat="44.09413" lon="1.05308">
        <ele>90.6</ele>
        <time>2023-07-06T09:58:42Z</time>
      </trkpt>
      <trkpt lat="44.09415" lon="1.05317">
        <ele>90.8</ele>
        <time>2023-07-06T09:58:48Z</time>
      </trkpt>
      <trkpt lat="44.09421" lon="1.05331">
        <ele>90.8</ele>
        <time>2023-07-06T09:58:57Z</time>
      </trkpt>
      <trkpt lat="44.09424" lon="1.05338">
        <ele>90.8</ele>
        <time>2023-07-06T09:59:02Z</time>
      </trkpt>
      <trkpt lat="44.09428" lon="1.05345">
        <ele>90.8</ele>
        <time>2023-07-06T09:59:07Z</time>
      </trkpt>
      <trkpt lat="44.09433" lon="1.05357">
        <ele>91</ele>
        <time>2023-07-06T09:59:15Z</time>
      </trkpt>
      <trkpt lat="44.09437" lon="1.05371">
        <ele>91.2</ele>
        <time>2023-07-06T09:59:24Z</time>
      </trkpt>
      <trkpt lat="44.09442" lon="1.05382">
        <ele>91</ele>
        <time>2023-07-06T09:59:33Z</time>
      </trkpt>
      <trkpt lat="44.0945" lon="1.05393">
        <ele>91</ele>
        <time>2023-07-06T09:59:42Z</time>
      </trkpt>
      <trkpt lat="44.09455" lon="1.05407">
        <ele>91.4</ele>
        <time>2023-07-06T09:59:50Z</time>
      </trkpt>
      <trkpt lat="44.09458" lon="1.05417">
        <ele>91</ele>
        <time>2023-07-06T09:59:56Z</time>
      </trkpt>
      <trkpt lat="44.09458" lon="1.05419">
        <ele>91</ele>
        <time>2023-07-06T09:59:57Z</time>
      </trkpt>
      <trkpt lat="44.09458" lon="1.05421">
        <ele>91</ele>
        <time>2023-07-06T09:59:58Z</time>
      </trkpt>
      <trkpt lat="44.09461" lon="1.05431">
        <ele>90.8</ele>
        <time>2023-07-06T10:00:05Z</time>
      </trkpt>
      <trkpt lat="44.09465" lon="1.05447">
        <ele>91</ele>
        <time>2023-07-06T10:00:14Z</time>
      </trkpt>
      <trkpt lat="44.09467" lon="1.05452">
        <ele>91</ele>
        <time>2023-07-06T10:00:17Z</time>
      </trkpt>
      <trkpt lat="44.09469" lon="1.05458">
        <ele>91.2</ele>
        <time>2023-07-06T10:00:21Z</time>
      </trkpt>
      <trkpt lat="44.09471" lon="1.0547">
        <ele>91.2</ele>
        <time>2023-07-06T10:00:28Z</time>
      </trkpt>
      <trkpt lat="44.09471" lon="1.05472">
        <ele>91.2</ele>
        <time>2023-07-06T10:00:29Z</time>
      </trkpt>
      <trkpt lat="44.09474" lon="1.05481">
        <ele>91.4</ele>
        <time>2023-07-06T10:00:35Z</time>
      </trkpt>
      <trkpt lat="44.09477" lon="1.05491">
        <ele>91</ele>
        <time>2023-07-06T10:00:41Z</time>
      </trkpt>
      <trkpt lat="44.09478" lon="1.05494">
        <ele>91</ele>
        <time>2023-07-06T10:00:43Z</time>
      </trkpt>
      <trkpt lat="44.09482" lon="1.05505">
        <ele>91.4</ele>
        <time>2023-07-06T10:00:51Z</time>
      </trkpt>
      <trkpt lat="44.09486" lon="1.05519">
        <ele>91</ele>
        <time>2023-07-06T10:00:59Z</time>
      </trkpt>
      <trkpt lat="44.09488" lon="1.05531">
        <ele>91.2</ele>
        <time>2023-07-06T10:01:07Z</time>
      </trkpt>
      <trkpt lat="44.09488" lon="1.05535">
        <ele>91.4</ele>
        <time>2023-07-06T10:01:09Z</time>
      </trkpt>
      <trkpt lat="44.09492" lon="1.05545">
        <ele>91.2</ele>
        <time>2023-07-06T10:01:15Z</time>
      </trkpt>
      <trkpt lat="44.09494" lon="1.05556">
        <ele>91.6</ele>
        <time>2023-07-06T10:01:22Z</time>
      </trkpt>
      <trkpt lat="44.09495" lon="1.05557">
        <ele>91.4</ele>
        <time>2023-07-06T10:01:23Z</time>
      </trkpt>
      <trkpt lat="44.09497" lon="1.05562">
        <ele>91.2</ele>
        <time>2023-07-06T10:01:26Z</time>
      </trkpt>
      <trkpt lat="44.09498" lon="1.05569">
        <ele>91.2</ele>
        <time>2023-07-06T10:01:30Z</time>
      </trkpt>
      <trkpt lat="44.095" lon="1.0558">
        <ele>91.2</ele>
        <time>2023-07-06T10:01:36Z</time>
      </trkpt>
      <trkpt lat="44.09501" lon="1.05583">
        <ele>91.6</ele>
        <time>2023-07-06T10:01:38Z</time>
      </trkpt>
      <trkpt lat="44.09501" lon="1.05596">
        <ele>91.4</ele>
        <time>2023-07-06T10:01:45Z</time>
      </trkpt>
      <trkpt lat="44.09503" lon="1.05609">
        <ele>91</ele>
        <time>2023-07-06T10:01:52Z</time>
      </trkpt>
      <trkpt lat="44.09507" lon="1.05619">
        <ele>91.2</ele>
        <time>2023-07-06T10:02:00Z</time>
      </trkpt>
      <trkpt lat="44.09509" lon="1.0563">
        <ele>90.8</ele>
        <time>2023-07-06T10:02:06Z</time>
      </trkpt>
      <trkpt lat="44.09511" lon="1.05644">
        <ele>90.8</ele>
        <time>2023-07-06T10:02:14Z</time>
      </trkpt>
      <trkpt lat="44.09511" lon="1.05651">
        <ele>90.8</ele>
        <time>2023-07-06T10:02:18Z</time>
      </trkpt>
      <trkpt lat="44.09511" lon="1.05658">
        <ele>90.8</ele>
        <time>2023-07-06T10:02:22Z</time>
      </trkpt>
      <trkpt lat="44.09512" lon="1.05672">
        <ele>91.2</ele>
        <time>2023-07-06T10:02:30Z</time>
      </trkpt>
      <trkpt lat="44.09514" lon="1.05685">
        <ele>91.4</ele>
        <time>2023-07-06T10:02:38Z</time>
      </trkpt>
      <trkpt lat="44.09516" lon="1.05689">
        <ele>91.2</ele>
        <time>2023-07-06T10:02:41Z</time>
      </trkpt>
      <trkpt lat="44.09518" lon="1.05693">
        <ele>91</ele>
        <time>2023-07-06T10:02:44Z</time>
      </trkpt>
      <trkpt lat="44.09518" lon="1.05694">
        <ele>91</ele>
        <time>2023-07-06T10:02:45Z</time>
      </trkpt>
      <trkpt lat="44.09521" lon="1.05705">
        <ele>90.8</ele>
        <time>2023-07-06T10:02:52Z</time>
      </trkpt>
      <trkpt lat="44.09521" lon="1.05709">
        <ele>90.8</ele>
        <time>2023-07-06T10:02:54Z</time>
      </trkpt>
      <trkpt lat="44.09521" lon="1.05713">
        <ele>90.8</ele>
        <time>2023-07-06T10:02:56Z</time>
      </trkpt>
      <trkpt lat="44.09521" lon="1.05716">
        <ele>90.8</ele>
        <time>2023-07-06T10:02:58Z</time>
      </trkpt>
      <trkpt lat="44.09521" lon="1.05718">
        <ele>90.8</ele>
        <time>2023-07-06T10:02:59Z</time>
      </trkpt>
      <trkpt lat="44.09522" lon="1.05731">
        <ele>91</ele>
        <time>2023-07-06T10:03:06Z</time>
      </trkpt>
      <trkpt lat="44.09521" lon="1.05745">
        <ele>90.8</ele>
        <time>2023-07-06T10:03:14Z</time>
      </trkpt>
      <trkpt lat="44.09524" lon="1.05757">
        <ele>91</ele>
        <time>2023-07-06T10:03:21Z</time>
      </trkpt>
      <trkpt lat="44.09526" lon="1.05769">
        <ele>91.2</ele>
        <time>2023-07-06T10:03:29Z</time>
      </trkpt>
      <trkpt lat="44.09526" lon="1.05773">
        <ele>91</ele>
        <time>2023-07-06T10:03:31Z</time>
      </trkpt>
      <trkpt lat="44.09528" lon="1.05785">
        <ele>90.6</ele>
        <time>2023-07-06T10:03:38Z</time>
      </trkpt>
      <trkpt lat="44.0953" lon="1.05798">
        <ele>91</ele>
        <time>2023-07-06T10:03:45Z</time>
      </trkpt>
      <trkpt lat="44.09531" lon="1.05804">
        <ele>91</ele>
        <time>2023-07-06T10:03:49Z</time>
      </trkpt>
      <trkpt lat="44.09531" lon="1.05809">
        <ele>90.8</ele>
        <time>2023-07-06T10:03:51Z</time>
      </trkpt>
      <trkpt lat="44.09531" lon="1.05811">
        <ele>90.8</ele>
        <time>2023-07-06T10:03:52Z</time>
      </trkpt>
      <trkpt lat="44.09534" lon="1.05824">
        <ele>90.8</ele>
        <time>2023-07-06T10:03:59Z</time>
      </trkpt>
      <trkpt lat="44.09535" lon="1.05833">
        <ele>90.8</ele>
        <time>2023-07-06T10:04:04Z</time>
      </trkpt>
      <trkpt lat="44.09536" lon="1.0585">
        <ele>90.8</ele>
        <time>2023-07-06T10:04:13Z</time>
      </trkpt>
      <trkpt lat="44.09535" lon="1.05862">
        <ele>90.6</ele>
        <time>2023-07-06T10:04:20Z</time>
      </trkpt>
      <trkpt lat="44.09536" lon="1.05872">
        <ele>90.8</ele>
        <time>2023-07-06T10:04:26Z</time>
      </trkpt>
      <trkpt lat="44.09537" lon="1.05876">
        <ele>90.8</ele>
        <time>2023-07-06T10:04:28Z</time>
      </trkpt>
      <trkpt lat="44.09541" lon="1.05893">
        <ele>90.8</ele>
        <time>2023-07-06T10:04:37Z</time>
      </trkpt>
      <trkpt lat="44.09541" lon="1.05894">
        <ele>90.8</ele>
        <time>2023-07-06T10:04:38Z</time>
      </trkpt>
      <trkpt lat="44.09541" lon="1.05896">
        <ele>90.8</ele>
        <time>2023-07-06T10:04:39Z</time>
      </trkpt>
      <trkpt lat="44.09541" lon="1.05908">
        <ele>91</ele>
        <time>2023-07-06T10:04:47Z</time>
      </trkpt>
      <trkpt lat="44.0954" lon="1.05922">
        <ele>90.8</ele>
        <time>2023-07-06T10:04:55Z</time>
      </trkpt>
      <trkpt lat="44.0954" lon="1.05926">
        <ele>90.8</ele>
        <time>2023-07-06T10:04:57Z</time>
      </trkpt>
      <trkpt lat="44.0954" lon="1.05943">
        <ele>91</ele>
        <time>2023-07-06T10:05:07Z</time>
      </trkpt>
      <trkpt lat="44.0954" lon="1.05961">
        <ele>91.2</ele>
        <time>2023-07-06T10:05:17Z</time>
      </trkpt>
      <trkpt lat="44.0954" lon="1.05965">
        <ele>91.2</ele>
        <time>2023-07-06T10:05:19Z</time>
      </trkpt>
      <trkpt lat="44.09541" lon="1.05966">
        <ele>91</ele>
        <time>2023-07-06T10:05:20Z</time>
      </trkpt>
      <trkpt lat="44.09541" lon="1.05968">
        <ele>91</ele>
        <time>2023-07-06T10:05:21Z</time>
      </trkpt>
      <trkpt lat="44.09541" lon="1.0597">
        <ele>91</ele>
        <time>2023-07-06T10:05:22Z</time>
      </trkpt>
      <trkpt lat="44.09542" lon="1.05974">
        <ele>91</ele>
        <time>2023-07-06T10:05:24Z</time>
      </trkpt>
      <trkpt lat="44.09543" lon="1.05987">
        <ele>91</ele>
        <time>2023-07-06T10:05:33Z</time>
      </trkpt>
      <trkpt lat="44.09545" lon="1.06">
        <ele>91.2</ele>
        <time>2023-07-06T10:05:40Z</time>
      </trkpt>
      <trkpt lat="44.09546" lon="1.06002">
        <ele>91.2</ele>
        <time>2023-07-06T10:05:41Z</time>
      </trkpt>
      <trkpt lat="44.09547" lon="1.06013">
        <ele>91.2</ele>
        <time>2023-07-06T10:05:48Z</time>
      </trkpt>
      <trkpt lat="44.09548" lon="1.06025">
        <ele>91.4</ele>
        <time>2023-07-06T10:05:55Z</time>
      </trkpt>
      <trkpt lat="44.09549" lon="1.06039">
        <ele>91.4</ele>
        <time>2023-07-06T10:06:03Z</time>
      </trkpt>
      <trkpt lat="44.09549" lon="1.06055">
        <ele>91.4</ele>
        <time>2023-07-06T10:06:12Z</time>
      </trkpt>
      <trkpt lat="44.0955" lon="1.06064">
        <ele>91.2</ele>
        <time>2023-07-06T10:06:18Z</time>
      </trkpt>
      <trkpt lat="44.0955" lon="1.06066">
        <ele>91.2</ele>
        <time>2023-07-06T10:06:19Z</time>
      </trkpt>
      <trkpt lat="44.09551" lon="1.06082">
        <ele>91.2</ele>
        <time>2023-07-06T10:06:28Z</time>
      </trkpt>
      <trkpt lat="44.09551" lon="1.0609">
        <ele>91</ele>
        <time>2023-07-06T10:06:32Z</time>
      </trkpt>
      <trkpt lat="44.09553" lon="1.06094">
        <ele>91.2</ele>
        <time>2023-07-06T10:06:35Z</time>
      </trkpt>
      <trkpt lat="44.09553" lon="1.06096">
        <ele>91.2</ele>
        <time>2023-07-06T10:06:36Z</time>
      </trkpt>
      <trkpt lat="44.09554" lon="1.06103">
        <ele>91.2</ele>
        <time>2023-07-06T10:06:41Z</time>
      </trkpt>
      <trkpt lat="44.09554" lon="1.06105">
        <ele>91.4</ele>
        <time>2023-07-06T10:06:42Z</time>
      </trkpt>
      <trkpt lat="44.09554" lon="1.06109">
        <ele>91.4</ele>
        <time>2023-07-06T10:06:45Z</time>
      </trkpt>
      <trkpt lat="44.09554" lon="1.06111">
        <ele>91.2</ele>
        <time>2023-07-06T10:06:46Z</time>
      </trkpt>
      <trkpt lat="44.09553" lon="1.06116">
        <ele>91.2</ele>
        <time>2023-07-06T10:06:49Z</time>
      </trkpt>
      <trkpt lat="44.09553" lon="1.06118">
        <ele>91.2</ele>
        <time>2023-07-06T10:06:50Z</time>
      </trkpt>
      <trkpt lat="44.09553" lon="1.06122">
        <ele>91.2</ele>
        <time>2023-07-06T10:06:52Z</time>
      </trkpt>
      <trkpt lat="44.09555" lon="1.06128">
        <ele>91.6</ele>
        <time>2023-07-06T10:06:56Z</time>
      </trkpt>
      <trkpt lat="44.09556" lon="1.06134">
        <ele>91.6</ele>
        <time>2023-07-06T10:07:00Z</time>
      </trkpt>
      <trkpt lat="44.09556" lon="1.06136">
        <ele>91.6</ele>
        <time>2023-07-06T10:07:01Z</time>
      </trkpt>
      <trkpt lat="44.09556" lon="1.06142">
        <ele>91.6</ele>
        <time>2023-07-06T10:07:05Z</time>
      </trkpt>
      <trkpt lat="44.09558" lon="1.06152">
        <ele>91.4</ele>
        <time>2023-07-06T10:07:11Z</time>
      </trkpt>
      <trkpt lat="44.09559" lon="1.06159">
        <ele>91.4</ele>
        <time>2023-07-06T10:07:15Z</time>
      </trkpt>
      <trkpt lat="44.09561" lon="1.06165">
        <ele>91.6</ele>
        <time>2023-07-06T10:07:19Z</time>
      </trkpt>
      <trkpt lat="44.09562" lon="1.06171">
        <ele>91.4</ele>
        <time>2023-07-06T10:07:22Z</time>
      </trkpt>
      <trkpt lat="44.09562" lon="1.06172">
        <ele>91.4</ele>
        <time>2023-07-06T10:07:23Z</time>
      </trkpt>
      <trkpt lat="44.09563" lon="1.06175">
        <ele>91.4</ele>
        <time>2023-07-06T10:07:25Z</time>
      </trkpt>
      <trkpt lat="44.09562" lon="1.06176">
        <ele>91.4</ele>
        <time>2023-07-06T10:07:26Z</time>
      </trkpt>
      <trkpt lat="44.09564" lon="1.06188">
        <ele>91.6</ele>
        <time>2023-07-06T10:07:32Z</time>
      </trkpt>
      <trkpt lat="44.09565" lon="1.06195">
        <ele>91.2</ele>
        <time>2023-07-06T10:07:36Z</time>
      </trkpt>
      <trkpt lat="44.09565" lon="1.06197">
        <ele>91.2</ele>
        <time>2023-07-06T10:07:37Z</time>
      </trkpt>
      <trkpt lat="44.09566" lon="1.06205">
        <ele>91.4</ele>
        <time>2023-07-06T10:07:42Z</time>
      </trkpt>
      <trkpt lat="44.09568" lon="1.06217">
        <ele>91.4</ele>
        <time>2023-07-06T10:07:49Z</time>
      </trkpt>
      <trkpt lat="44.09569" lon="1.06225">
        <ele>91.6</ele>
        <time>2023-07-06T10:07:54Z</time>
      </trkpt>
      <trkpt lat="44.0957" lon="1.06231">
        <ele>91.4</ele>
        <time>2023-07-06T10:07:58Z</time>
      </trkpt>
      <trkpt lat="44.09574" lon="1.06236">
        <ele>91.2</ele>
        <time>2023-07-06T10:08:02Z</time>
      </trkpt>
      <trkpt lat="44.09576" lon="1.06241">
        <ele>91.2</ele>
        <time>2023-07-06T10:08:05Z</time>
      </trkpt>
      <trkpt lat="44.0958" lon="1.06252">
        <ele>91.4</ele>
        <time>2023-07-06T10:08:12Z</time>
      </trkpt>
      <trkpt lat="44.0958" lon="1.06253">
        <ele>91.2</ele>
        <time>2023-07-06T10:08:13Z</time>
      </trkpt>
      <trkpt lat="44.09584" lon="1.06264">
        <ele>91.6</ele>
        <time>2023-07-06T10:08:20Z</time>
      </trkpt>
      <trkpt lat="44.09589" lon="1.06275">
        <ele>91.4</ele>
        <time>2023-07-06T10:08:28Z</time>
      </trkpt>
      <trkpt lat="44.09594" lon="1.06289">
        <ele>91.2</ele>
        <time>2023-07-06T10:08:37Z</time>
      </trkpt>
      <trkpt lat="44.096" lon="1.06303">
        <ele>91.6</ele>
        <time>2023-07-06T10:08:46Z</time>
      </trkpt>
      <trkpt lat="44.09603" lon="1.06313">
        <ele>91.8</ele>
        <time>2023-07-06T10:08:52Z</time>
      </trkpt>
      <trkpt lat="44.09604" lon="1.06316">
        <ele>91.8</ele>
        <time>2023-07-06T10:08:54Z</time>
      </trkpt>
      <trkpt lat="44.09607" lon="1.06325">
        <ele>91.4</ele>
        <time>2023-07-06T10:09:00Z</time>
      </trkpt>
      <trkpt lat="44.0961" lon="1.06331">
        <ele>91.6</ele>
        <time>2023-07-06T10:09:04Z</time>
      </trkpt>
      <trkpt lat="44.09611" lon="1.06335">
        <ele>91.8</ele>
        <time>2023-07-06T10:09:07Z</time>
      </trkpt>
      <trkpt lat="44.09613" lon="1.06338">
        <ele>91.8</ele>
        <time>2023-07-06T10:09:09Z</time>
      </trkpt>
      <trkpt lat="44.09617" lon="1.06346">
        <ele>91.6</ele>
        <time>2023-07-06T10:09:15Z</time>
      </trkpt>
      <trkpt lat="44.09617" lon="1.06347">
        <ele>91.8</ele>
        <time>2023-07-06T10:09:16Z</time>
      </trkpt>
      <trkpt lat="44.09619" lon="1.0635">
        <ele>92</ele>
        <time>2023-07-06T10:09:18Z</time>
      </trkpt>
      <trkpt lat="44.09619" lon="1.06351">
        <ele>92</ele>
        <time>2023-07-06T10:09:19Z</time>
      </trkpt>
      <trkpt lat="44.09626" lon="1.06358">
        <ele>91.6</ele>
        <time>2023-07-06T10:09:25Z</time>
      </trkpt>
      <trkpt lat="44.09626" lon="1.06359">
        <ele>91.6</ele>
        <time>2023-07-06T10:09:26Z</time>
      </trkpt>
      <trkpt lat="44.09627" lon="1.06361">
        <ele>91.8</ele>
        <time>2023-07-06T10:09:27Z</time>
      </trkpt>
      <trkpt lat="44.09628" lon="1.06362">
        <ele>91.8</ele>
        <time>2023-07-06T10:09:28Z</time>
      </trkpt>
      <trkpt lat="44.09633" lon="1.06367">
        <ele>91.8</ele>
        <time>2023-07-06T10:09:32Z</time>
      </trkpt>
      <trkpt lat="44.09636" lon="1.06373">
        <ele>92</ele>
        <time>2023-07-06T10:09:36Z</time>
      </trkpt>
      <trkpt lat="44.09636" lon="1.06374">
        <ele>92</ele>
        <time>2023-07-06T10:09:37Z</time>
      </trkpt>
      <trkpt lat="44.09641" lon="1.06383">
        <ele>91.6</ele>
        <time>2023-07-06T10:09:45Z</time>
      </trkpt>
      <trkpt lat="44.09644" lon="1.0639">
        <ele>92</ele>
        <time>2023-07-06T10:09:50Z</time>
      </trkpt>
      <trkpt lat="44.09646" lon="1.06393">
        <ele>92</ele>
        <time>2023-07-06T10:09:52Z</time>
      </trkpt>
      <trkpt lat="44.09648" lon="1.06396">
        <ele>92</ele>
        <time>2023-07-06T10:09:55Z</time>
      </trkpt>
      <trkpt lat="44.09652" lon="1.06402">
        <ele>92</ele>
        <time>2023-07-06T10:09:59Z</time>
      </trkpt>
      <trkpt lat="44.09653" lon="1.06403">
        <ele>92</ele>
        <time>2023-07-06T10:10:00Z</time>
      </trkpt>
      <trkpt lat="44.09658" lon="1.0641">
        <ele>92.4</ele>
        <time>2023-07-06T10:10:06Z</time>
      </trkpt>
      <trkpt lat="44.0966" lon="1.06413">
        <ele>92.6</ele>
        <time>2023-07-06T10:10:09Z</time>
      </trkpt>
      <trkpt lat="44.09663" lon="1.06417">
        <ele>92.6</ele>
        <time>2023-07-06T10:10:12Z</time>
      </trkpt>
      <trkpt lat="44.09664" lon="1.0642">
        <ele>92.6</ele>
        <time>2023-07-06T10:10:14Z</time>
      </trkpt>
      <trkpt lat="44.09669" lon="1.06427">
        <ele>92.2</ele>
        <time>2023-07-06T10:10:20Z</time>
      </trkpt>
      <trkpt lat="44.0967" lon="1.06428">
        <ele>92.2</ele>
        <time>2023-07-06T10:10:21Z</time>
      </trkpt>
      <trkpt lat="44.09674" lon="1.06436">
        <ele>92.4</ele>
        <time>2023-07-06T10:10:27Z</time>
      </trkpt>
      <trkpt lat="44.09678" lon="1.06442">
        <ele>92.2</ele>
        <time>2023-07-06T10:10:32Z</time>
      </trkpt>
      <trkpt lat="44.09679" lon="1.06445">
        <ele>92.2</ele>
        <time>2023-07-06T10:10:34Z</time>
      </trkpt>
      <trkpt lat="44.0968" lon="1.06447">
        <ele>92</ele>
        <time>2023-07-06T10:10:35Z</time>
      </trkpt>
      <trkpt lat="44.0968" lon="1.06448">
        <ele>92</ele>
        <time>2023-07-06T10:10:36Z</time>
      </trkpt>
      <trkpt lat="44.09681" lon="1.06449">
        <ele>92</ele>
        <time>2023-07-06T10:10:37Z</time>
      </trkpt>
      <trkpt lat="44.09684" lon="1.06453">
        <ele>92.2</ele>
        <time>2023-07-06T10:10:40Z</time>
      </trkpt>
      <trkpt lat="44.09688" lon="1.06458">
        <ele>92.4</ele>
        <time>2023-07-06T10:10:44Z</time>
      </trkpt>
      <trkpt lat="44.09692" lon="1.06464">
        <ele>92.4</ele>
        <time>2023-07-06T10:10:49Z</time>
      </trkpt>
      <trkpt lat="44.09695" lon="1.06472">
        <ele>92.4</ele>
        <time>2023-07-06T10:10:55Z</time>
      </trkpt>
      <trkpt lat="44.097" lon="1.06479">
        <ele>92.4</ele>
        <time>2023-07-06T10:11:01Z</time>
      </trkpt>
      <trkpt lat="44.09705" lon="1.06489">
        <ele>92.8</ele>
        <time>2023-07-06T10:11:08Z</time>
      </trkpt>
      <trkpt lat="44.09715" lon="1.06498">
        <ele>92.6</ele>
        <time>2023-07-06T10:11:17Z</time>
      </trkpt>
      <trkpt lat="44.09721" lon="1.06506">
        <ele>92.4</ele>
        <time>2023-07-06T10:11:24Z</time>
      </trkpt>
      <trkpt lat="44.09725" lon="1.06513">
        <ele>92.4</ele>
        <time>2023-07-06T10:11:29Z</time>
      </trkpt>
      <trkpt lat="44.09729" lon="1.06519">
        <ele>92.8</ele>
        <time>2023-07-06T10:11:34Z</time>
      </trkpt>
      <trkpt lat="44.09734" lon="1.06526">
        <ele>92.6</ele>
        <time>2023-07-06T10:11:40Z</time>
      </trkpt>
      <trkpt lat="44.09738" lon="1.06536">
        <ele>92.6</ele>
        <time>2023-07-06T10:11:47Z</time>
      </trkpt>
      <trkpt lat="44.09742" lon="1.06541">
        <ele>92.8</ele>
        <time>2023-07-06T10:11:51Z</time>
      </trkpt>
      <trkpt lat="44.09745" lon="1.06546">
        <ele>92.8</ele>
        <time>2023-07-06T10:11:55Z</time>
      </trkpt>
      <trkpt lat="44.09751" lon="1.06555">
        <ele>92.8</ele>
        <time>2023-07-06T10:12:03Z</time>
      </trkpt>
      <trkpt lat="44.09753" lon="1.06557">
        <ele>92.6</ele>
        <time>2023-07-06T10:12:05Z</time>
      </trkpt>
      <trkpt lat="44.09756" lon="1.06561">
        <ele>92.6</ele>
        <time>2023-07-06T10:12:10Z</time>
      </trkpt>
      <trkpt lat="44.09761" lon="1.0657">
        <ele>92.4</ele>
        <time>2023-07-06T10:12:17Z</time>
      </trkpt>
      <trkpt lat="44.09761" lon="1.06571">
        <ele>92.4</ele>
        <time>2023-07-06T10:12:18Z</time>
      </trkpt>
      <trkpt lat="44.09764" lon="1.06575">
        <ele>92.8</ele>
        <time>2023-07-06T10:12:21Z</time>
      </trkpt>
      <trkpt lat="44.09765" lon="1.06578">
        <ele>92.8</ele>
        <time>2023-07-06T10:12:23Z</time>
      </trkpt>
      <trkpt lat="44.09772" lon="1.06585">
        <ele>92.6</ele>
        <time>2023-07-06T10:12:29Z</time>
      </trkpt>
      <trkpt lat="44.09779" lon="1.06593">
        <ele>92.6</ele>
        <time>2023-07-06T10:12:36Z</time>
      </trkpt>
      <trkpt lat="44.09788" lon="1.066">
        <ele>92.2</ele>
        <time>2023-07-06T10:12:42Z</time>
      </trkpt>
      <trkpt lat="44.09792" lon="1.06602">
        <ele>92.2</ele>
        <time>2023-07-06T10:12:45Z</time>
      </trkpt>
      <trkpt lat="44.09797" lon="1.06606">
        <ele>92.2</ele>
        <time>2023-07-06T10:12:50Z</time>
      </trkpt>
      <trkpt lat="44.09804" lon="1.06618">
        <ele>92.4</ele>
        <time>2023-07-06T10:12:58Z</time>
      </trkpt>
      <trkpt lat="44.09809" lon="1.06628">
        <ele>92.2</ele>
        <time>2023-07-06T10:13:05Z</time>
      </trkpt>
      <trkpt lat="44.0981" lon="1.06629">
        <ele>92.2</ele>
        <time>2023-07-06T10:13:06Z</time>
      </trkpt>
      <trkpt lat="44.09817" lon="1.06642">
        <ele>92.2</ele>
        <time>2023-07-06T10:13:15Z</time>
      </trkpt>
      <trkpt lat="44.09821" lon="1.0665">
        <ele>92.2</ele>
        <time>2023-07-06T10:13:21Z</time>
      </trkpt>
      <trkpt lat="44.09821" lon="1.06651">
        <ele>92</ele>
        <time>2023-07-06T10:13:22Z</time>
      </trkpt>
      <trkpt lat="44.09822" lon="1.06653">
        <ele>92</ele>
        <time>2023-07-06T10:13:23Z</time>
      </trkpt>
      <trkpt lat="44.09827" lon="1.06664">
        <ele>92</ele>
        <time>2023-07-06T10:13:31Z</time>
      </trkpt>
      <trkpt lat="44.09829" lon="1.06668">
        <ele>92</ele>
        <time>2023-07-06T10:13:34Z</time>
      </trkpt>
      <trkpt lat="44.09833" lon="1.06674">
        <ele>92</ele>
        <time>2023-07-06T10:13:38Z</time>
      </trkpt>
      <trkpt lat="44.09836" lon="1.06677">
        <ele>92.2</ele>
        <time>2023-07-06T10:13:41Z</time>
      </trkpt>
      <trkpt lat="44.09838" lon="1.06678">
        <ele>92.2</ele>
        <time>2023-07-06T10:13:42Z</time>
      </trkpt>
      <trkpt lat="44.0984" lon="1.0668">
        <ele>92.4</ele>
        <time>2023-07-06T10:13:44Z</time>
      </trkpt>
      <trkpt lat="44.09841" lon="1.06682">
        <ele>92.2</ele>
        <time>2023-07-06T10:13:45Z</time>
      </trkpt>
      <trkpt lat="44.09847" lon="1.06693">
        <ele>91.8</ele>
        <time>2023-07-06T10:13:53Z</time>
      </trkpt>
      <trkpt lat="44.0985" lon="1.06696">
        <ele>91.6</ele>
        <time>2023-07-06T10:13:56Z</time>
      </trkpt>
      <trkpt lat="44.09855" lon="1.06699">
        <ele>91.8</ele>
        <time>2023-07-06T10:14:00Z</time>
      </trkpt>
      <trkpt lat="44.0986" lon="1.06708">
        <ele>92</ele>
        <time>2023-07-06T10:14:06Z</time>
      </trkpt>
      <trkpt lat="44.09861" lon="1.06709">
        <ele>92</ele>
        <time>2023-07-06T10:14:07Z</time>
      </trkpt>
      <trkpt lat="44.09865" lon="1.06713">
        <ele>92.2</ele>
        <time>2023-07-06T10:14:10Z</time>
      </trkpt>
      <trkpt lat="44.09873" lon="1.06725">
        <ele>96.4</ele>
        <time>2023-07-06T10:34:24Z</time>
      </trkpt>
      <trkpt lat="44.09874" lon="1.06727">
        <ele>96.4</ele>
        <time>2023-07-06T10:34:26Z</time>
      </trkpt>
      <trkpt lat="44.09877" lon="1.06733">
        <ele>96.2</ele>
        <time>2023-07-06T10:34:32Z</time>
      </trkpt>
      <trkpt lat="44.09879" lon="1.06738">
        <ele>96.2</ele>
        <time>2023-07-06T10:34:33Z</time>
      </trkpt>
      <trkpt lat="44.09881" lon="1.06741">
        <ele>96.2</ele>
        <time>2023-07-06T10:34:35Z</time>
      </trkpt>
      <trkpt lat="44.09884" lon="1.06745">
        <ele>96.2</ele>
        <time>2023-07-06T10:34:39Z</time>
      </trkpt>
      <trkpt lat="44.0989" lon="1.06751">
        <ele>96.2</ele>
        <time>2023-07-06T10:34:44Z</time>
      </trkpt>
      <trkpt lat="44.09897" lon="1.06761">
        <ele>96.2</ele>
        <time>2023-07-06T10:34:52Z</time>
      </trkpt>
      <trkpt lat="44.09901" lon="1.06774">
        <ele>95.6</ele>
        <time>2023-07-06T10:35:00Z</time>
      </trkpt>
      <trkpt lat="44.09906" lon="1.06786">
        <ele>95.6</ele>
        <time>2023-07-06T10:35:07Z</time>
      </trkpt>
      <trkpt lat="44.09911" lon="1.06795">
        <ele>95.6</ele>
        <time>2023-07-06T10:35:13Z</time>
      </trkpt>
      <trkpt lat="44.09912" lon="1.06799">
        <ele>95.6</ele>
        <time>2023-07-06T10:35:16Z</time>
      </trkpt>
      <trkpt lat="44.09913" lon="1.06802">
        <ele>95.4</ele>
        <time>2023-07-06T10:35:18Z</time>
      </trkpt>
      <trkpt lat="44.09914" lon="1.06805">
        <ele>95.6</ele>
        <time>2023-07-06T10:35:20Z</time>
      </trkpt>
      <trkpt lat="44.0992" lon="1.06816">
        <ele>95.2</ele>
        <time>2023-07-06T10:35:28Z</time>
      </trkpt>
      <trkpt lat="44.09922" lon="1.06819">
        <ele>95.2</ele>
        <time>2023-07-06T10:35:30Z</time>
      </trkpt>
      <trkpt lat="44.09923" lon="1.0682">
        <ele>95.2</ele>
        <time>2023-07-06T10:35:31Z</time>
      </trkpt>
      <trkpt lat="44.09926" lon="1.06823">
        <ele>95.4</ele>
        <time>2023-07-06T10:35:34Z</time>
      </trkpt>
      <trkpt lat="44.09927" lon="1.06826">
        <ele>95.4</ele>
        <time>2023-07-06T10:35:37Z</time>
      </trkpt>
      <trkpt lat="44.09932" lon="1.06836">
        <ele>95.4</ele>
        <time>2023-07-06T10:35:43Z</time>
      </trkpt>
      <trkpt lat="44.09933" lon="1.06837">
        <ele>95.4</ele>
        <time>2023-07-06T10:35:44Z</time>
      </trkpt>
      <trkpt lat="44.09936" lon="1.06847">
        <ele>95.6</ele>
        <time>2023-07-06T10:35:50Z</time>
      </trkpt>
      <trkpt lat="44.09938" lon="1.0685">
        <ele>95</ele>
        <time>2023-07-06T10:35:52Z</time>
      </trkpt>
      <trkpt lat="44.0994" lon="1.06858">
        <ele>94.8</ele>
        <time>2023-07-06T10:35:57Z</time>
      </trkpt>
      <trkpt lat="44.09941" lon="1.06859">
        <ele>94.8</ele>
        <time>2023-07-06T10:35:58Z</time>
      </trkpt>
      <trkpt lat="44.09945" lon="1.06869">
        <ele>94.6</ele>
        <time>2023-07-06T10:36:05Z</time>
      </trkpt>
      <trkpt lat="44.09946" lon="1.06871">
        <ele>94.6</ele>
        <time>2023-07-06T10:36:06Z</time>
      </trkpt>
      <trkpt lat="44.09947" lon="1.06872">
        <ele>94.4</ele>
        <time>2023-07-06T10:36:07Z</time>
      </trkpt>
      <trkpt lat="44.09947" lon="1.06874">
        <ele>94.4</ele>
        <time>2023-07-06T10:36:08Z</time>
      </trkpt>
      <trkpt lat="44.09948" lon="1.06877">
        <ele>94.4</ele>
        <time>2023-07-06T10:36:10Z</time>
      </trkpt>
      <trkpt lat="44.0995" lon="1.06882">
        <ele>94.2</ele>
        <time>2023-07-06T10:36:13Z</time>
      </trkpt>
      <trkpt lat="44.09952" lon="1.06889">
        <ele>94.4</ele>
        <time>2023-07-06T10:36:17Z</time>
      </trkpt>
      <trkpt lat="44.09953" lon="1.06896">
        <ele>94.2</ele>
        <time>2023-07-06T10:36:21Z</time>
      </trkpt>
      <trkpt lat="44.09956" lon="1.06905">
        <ele>94.2</ele>
        <time>2023-07-06T10:36:26Z</time>
      </trkpt>
      <trkpt lat="44.09958" lon="1.0691">
        <ele>94.4</ele>
        <time>2023-07-06T10:36:29Z</time>
      </trkpt>
      <trkpt lat="44.0996" lon="1.06919">
        <ele>94.2</ele>
        <time>2023-07-06T10:36:34Z</time>
      </trkpt>
      <trkpt lat="44.0996" lon="1.06921">
        <ele>94</ele>
        <time>2023-07-06T10:36:35Z</time>
      </trkpt>
      <trkpt lat="44.09967" lon="1.06932">
        <ele>94</ele>
        <time>2023-07-06T10:36:43Z</time>
      </trkpt>
      <trkpt lat="44.09967" lon="1.06935">
        <ele>94</ele>
        <time>2023-07-06T10:36:45Z</time>
      </trkpt>
      <trkpt lat="44.09968" lon="1.06937">
        <ele>94</ele>
        <time>2023-07-06T10:36:46Z</time>
      </trkpt>
      <trkpt lat="44.0997" lon="1.06941">
        <ele>94.2</ele>
        <time>2023-07-06T10:36:49Z</time>
      </trkpt>
      <trkpt lat="44.09972" lon="1.06944">
        <ele>94.2</ele>
        <time>2023-07-06T10:36:51Z</time>
      </trkpt>
      <trkpt lat="44.09977" lon="1.06953">
        <ele>94.2</ele>
        <time>2023-07-06T10:36:57Z</time>
      </trkpt>
      <trkpt lat="44.09979" lon="1.06963">
        <ele>94.2</ele>
        <time>2023-07-06T10:37:03Z</time>
      </trkpt>
      <trkpt lat="44.09982" lon="1.06976">
        <ele>94.2</ele>
        <time>2023-07-06T10:37:10Z</time>
      </trkpt>
      <trkpt lat="44.09985" lon="1.06985">
        <ele>94.2</ele>
        <time>2023-07-06T10:37:16Z</time>
      </trkpt>
      <trkpt lat="44.09985" lon="1.06989">
        <ele>94.2</ele>
        <time>2023-07-06T10:37:18Z</time>
      </trkpt>
      <trkpt lat="44.09987" lon="1.06993">
        <ele>94.4</ele>
        <time>2023-07-06T10:37:22Z</time>
      </trkpt>
      <trkpt lat="44.09989" lon="1.06996">
        <ele>94.6</ele>
        <time>2023-07-06T10:37:24Z</time>
      </trkpt>
      <trkpt lat="44.09989" lon="1.06998">
        <ele>94.6</ele>
        <time>2023-07-06T10:37:25Z</time>
      </trkpt>
      <trkpt lat="44.09991" lon="1.07006">
        <ele>94.2</ele>
        <time>2023-07-06T10:37:30Z</time>
      </trkpt>
      <trkpt lat="44.09995" lon="1.07014">
        <ele>94</ele>
        <time>2023-07-06T10:37:35Z</time>
      </trkpt>
      <trkpt lat="44.09997" lon="1.07017">
        <ele>94</ele>
        <time>2023-07-06T10:37:37Z</time>
      </trkpt>
      <trkpt lat="44.09998" lon="1.07018">
        <ele>94</ele>
        <time>2023-07-06T10:37:38Z</time>
      </trkpt>
      <trkpt lat="44.1001" lon="1.07025">
        <ele>94.2</ele>
        <time>2023-07-06T10:37:46Z</time>
      </trkpt>
      <trkpt lat="44.10014" lon="1.07033">
        <ele>94.2</ele>
        <time>2023-07-06T10:37:51Z</time>
      </trkpt>
      <trkpt lat="44.10015" lon="1.0704">
        <ele>94.4</ele>
        <time>2023-07-06T10:37:55Z</time>
      </trkpt>
      <trkpt lat="44.10015" lon="1.07044">
        <ele>94.6</ele>
        <time>2023-07-06T10:37:57Z</time>
      </trkpt>
      <trkpt lat="44.10018" lon="1.07052">
        <ele>94.6</ele>
        <time>2023-07-06T10:38:02Z</time>
      </trkpt>
      <trkpt lat="44.10021" lon="1.07062">
        <ele>94</ele>
        <time>2023-07-06T10:38:08Z</time>
      </trkpt>
      <trkpt lat="44.10022" lon="1.07063">
        <ele>94</ele>
        <time>2023-07-06T10:38:09Z</time>
      </trkpt>
      <trkpt lat="44.10024" lon="1.07066">
        <ele>93.8</ele>
        <time>2023-07-06T10:38:11Z</time>
      </trkpt>
      <trkpt lat="44.10024" lon="1.07069">
        <ele>93.6</ele>
        <time>2023-07-06T10:38:13Z</time>
      </trkpt>
      <trkpt lat="44.10026" lon="1.07076">
        <ele>93.6</ele>
        <time>2023-07-06T10:38:17Z</time>
      </trkpt>
      <trkpt lat="44.10026" lon="1.07077">
        <ele>93.6</ele>
        <time>2023-07-06T10:38:18Z</time>
      </trkpt>
      <trkpt lat="44.1003" lon="1.07084">
        <ele>93.6</ele>
        <time>2023-07-06T10:38:23Z</time>
      </trkpt>
      <trkpt lat="44.10031" lon="1.07087">
        <ele>93.6</ele>
        <time>2023-07-06T10:38:25Z</time>
      </trkpt>
      <trkpt lat="44.10037" lon="1.071">
        <ele>94</ele>
        <time>2023-07-06T10:38:34Z</time>
      </trkpt>
      <trkpt lat="44.1004" lon="1.07108">
        <ele>94</ele>
        <time>2023-07-06T10:38:40Z</time>
      </trkpt>
      <trkpt lat="44.10041" lon="1.0711">
        <ele>94</ele>
        <time>2023-07-06T10:38:41Z</time>
      </trkpt>
      <trkpt lat="44.10042" lon="1.07111">
        <ele>94</ele>
        <time>2023-07-06T10:38:42Z</time>
      </trkpt>
      <trkpt lat="44.10043" lon="1.07113">
        <ele>93.8</ele>
        <time>2023-07-06T10:38:43Z</time>
      </trkpt>
      <trkpt lat="44.10045" lon="1.07119">
        <ele>93.8</ele>
        <time>2023-07-06T10:38:47Z</time>
      </trkpt>
      <trkpt lat="44.10045" lon="1.07121">
        <ele>93.8</ele>
        <time>2023-07-06T10:38:48Z</time>
      </trkpt>
      <trkpt lat="44.10046" lon="1.07125">
        <ele>93.6</ele>
        <time>2023-07-06T10:38:51Z</time>
      </trkpt>
      <trkpt lat="44.10049" lon="1.07129">
        <ele>93.4</ele>
        <time>2023-07-06T10:38:54Z</time>
      </trkpt>
      <trkpt lat="44.10051" lon="1.07132">
        <ele>93.4</ele>
        <time>2023-07-06T10:38:56Z</time>
      </trkpt>
      <trkpt lat="44.10052" lon="1.07133">
        <ele>93.6</ele>
        <time>2023-07-06T10:38:57Z</time>
      </trkpt>
      <trkpt lat="44.10052" lon="1.07135">
        <ele>93.6</ele>
        <time>2023-07-06T10:38:58Z</time>
      </trkpt>
      <trkpt lat="44.10054" lon="1.0714">
        <ele>93.2</ele>
        <time>2023-07-06T10:39:01Z</time>
      </trkpt>
      <trkpt lat="44.10056" lon="1.07149">
        <ele>93.6</ele>
        <time>2023-07-06T10:39:06Z</time>
      </trkpt>
      <trkpt lat="44.10057" lon="1.07156">
        <ele>93.6</ele>
        <time>2023-07-06T10:39:10Z</time>
      </trkpt>
      <trkpt lat="44.10058" lon="1.07159">
        <ele>93.4</ele>
        <time>2023-07-06T10:39:12Z</time>
      </trkpt>
      <trkpt lat="44.1006" lon="1.07161">
        <ele>93.4</ele>
        <time>2023-07-06T10:39:14Z</time>
      </trkpt>
      <trkpt lat="44.10061" lon="1.07166">
        <ele>93.6</ele>
        <time>2023-07-06T10:39:17Z</time>
      </trkpt>
      <trkpt lat="44.10061" lon="1.07168">
        <ele>93.6</ele>
        <time>2023-07-06T10:39:18Z</time>
      </trkpt>
      <trkpt lat="44.10063" lon="1.07173">
        <ele>93.4</ele>
        <time>2023-07-06T10:39:21Z</time>
      </trkpt>
      <trkpt lat="44.10063" lon="1.07175">
        <ele>93.4</ele>
        <time>2023-07-06T10:39:22Z</time>
      </trkpt>
      <trkpt lat="44.10064" lon="1.0718">
        <ele>93.4</ele>
        <time>2023-07-06T10:39:25Z</time>
      </trkpt>
      <trkpt lat="44.1007" lon="1.07192">
        <ele>93.2</ele>
        <time>2023-07-06T10:39:33Z</time>
      </trkpt>
      <trkpt lat="44.10073" lon="1.07202">
        <ele>93.4</ele>
        <time>2023-07-06T10:39:39Z</time>
      </trkpt>
      <trkpt lat="44.10073" lon="1.07221">
        <ele>93.4</ele>
        <time>2023-07-06T10:39:49Z</time>
      </trkpt>
      <trkpt lat="44.10071" lon="1.07227">
        <ele>93.4</ele>
        <time>2023-07-06T10:39:52Z</time>
      </trkpt>
      <trkpt lat="44.10072" lon="1.07231">
        <ele>93.4</ele>
        <time>2023-07-06T10:39:54Z</time>
      </trkpt>
      <trkpt lat="44.10073" lon="1.07235">
        <ele>93.4</ele>
        <time>2023-07-06T10:39:56Z</time>
      </trkpt>
      <trkpt lat="44.10074" lon="1.07248">
        <ele>93.2</ele>
        <time>2023-07-06T10:40:03Z</time>
      </trkpt>
      <trkpt lat="44.10075" lon="1.07254">
        <ele>93.2</ele>
        <time>2023-07-06T10:40:07Z</time>
      </trkpt>
      <trkpt lat="44.10075" lon="1.07257">
        <ele>93.2</ele>
        <time>2023-07-06T10:40:09Z</time>
      </trkpt>
      <trkpt lat="44.10075" lon="1.07259">
        <ele>93.2</ele>
        <time>2023-07-06T10:40:10Z</time>
      </trkpt>
      <trkpt lat="44.10075" lon="1.07262">
        <ele>93.2</ele>
        <time>2023-07-06T10:40:12Z</time>
      </trkpt>
      <trkpt lat="44.10075" lon="1.07264">
        <ele>93.4</ele>
        <time>2023-07-06T10:40:13Z</time>
      </trkpt>
      <trkpt lat="44.10075" lon="1.07268">
        <ele>93.6</ele>
        <time>2023-07-06T10:40:15Z</time>
      </trkpt>
      <trkpt lat="44.10075" lon="1.07274">
        <ele>93.4</ele>
        <time>2023-07-06T10:40:18Z</time>
      </trkpt>
      <trkpt lat="44.10076" lon="1.07277">
        <ele>93.4</ele>
        <time>2023-07-06T10:40:20Z</time>
      </trkpt>
      <trkpt lat="44.10077" lon="1.07283">
        <ele>93.2</ele>
        <time>2023-07-06T10:40:24Z</time>
      </trkpt>
      <trkpt lat="44.10077" lon="1.07289">
        <ele>93.2</ele>
        <time>2023-07-06T10:40:27Z</time>
      </trkpt>
      <trkpt lat="44.10078" lon="1.07291">
        <ele>93.2</ele>
        <time>2023-07-06T10:40:28Z</time>
      </trkpt>
      <trkpt lat="44.10078" lon="1.07296">
        <ele>93.2</ele>
        <time>2023-07-06T10:40:31Z</time>
      </trkpt>
      <trkpt lat="44.1008" lon="1.07301">
        <ele>93.2</ele>
        <time>2023-07-06T10:40:35Z</time>
      </trkpt>
      <trkpt lat="44.10085" lon="1.07315">
        <ele>93.4</ele>
        <time>2023-07-06T10:40:44Z</time>
      </trkpt>
      <trkpt lat="44.10085" lon="1.07319">
        <ele>93.4</ele>
        <time>2023-07-06T10:40:46Z</time>
      </trkpt>
      <trkpt lat="44.10086" lon="1.07322">
        <ele>93.4</ele>
        <time>2023-07-06T10:40:48Z</time>
      </trkpt>
      <trkpt lat="44.10085" lon="1.07328">
        <ele>93.4</ele>
        <time>2023-07-06T10:40:51Z</time>
      </trkpt>
      <trkpt lat="44.10087" lon="1.0734">
        <ele>93.2</ele>
        <time>2023-07-06T10:40:58Z</time>
      </trkpt>
      <trkpt lat="44.10088" lon="1.07341">
        <ele>93.2</ele>
        <time>2023-07-06T10:40:59Z</time>
      </trkpt>
      <trkpt lat="44.10086" lon="1.07358">
        <ele>93</ele>
        <time>2023-07-06T10:41:08Z</time>
      </trkpt>
      <trkpt lat="44.10084" lon="1.07374">
        <ele>93.6</ele>
        <time>2023-07-06T10:41:18Z</time>
      </trkpt>
      <trkpt lat="44.1008" lon="1.07389">
        <ele>93.8</ele>
        <time>2023-07-06T10:41:27Z</time>
      </trkpt>
      <trkpt lat="44.10078" lon="1.074">
        <ele>94</ele>
        <time>2023-07-06T10:41:33Z</time>
      </trkpt>
      <trkpt lat="44.10079" lon="1.07403">
        <ele>94</ele>
        <time>2023-07-06T10:41:35Z</time>
      </trkpt>
      <trkpt lat="44.1008" lon="1.07415">
        <ele>93.8</ele>
        <time>2023-07-06T10:41:42Z</time>
      </trkpt>
      <trkpt lat="44.10081" lon="1.07429">
        <ele>94</ele>
        <time>2023-07-06T10:41:50Z</time>
      </trkpt>
      <trkpt lat="44.1008" lon="1.07442">
        <ele>94</ele>
        <time>2023-07-06T10:41:57Z</time>
      </trkpt>
      <trkpt lat="44.1008" lon="1.07458">
        <ele>94.2</ele>
        <time>2023-07-06T10:42:06Z</time>
      </trkpt>
      <trkpt lat="44.10079" lon="1.07473">
        <ele>94.6</ele>
        <time>2023-07-06T10:42:14Z</time>
      </trkpt>
      <trkpt lat="44.10079" lon="1.07488">
        <ele>94.6</ele>
        <time>2023-07-06T10:42:22Z</time>
      </trkpt>
      <trkpt lat="44.10079" lon="1.07494">
        <ele>94.6</ele>
        <time>2023-07-06T10:42:26Z</time>
      </trkpt>
      <trkpt lat="44.10081" lon="1.07501">
        <ele>94.6</ele>
        <time>2023-07-06T10:42:30Z</time>
      </trkpt>
      <trkpt lat="44.10085" lon="1.07513">
        <ele>94</ele>
        <time>2023-07-06T10:42:37Z</time>
      </trkpt>
      <trkpt lat="44.10087" lon="1.0753">
        <ele>94</ele>
        <time>2023-07-06T10:42:46Z</time>
      </trkpt>
      <trkpt lat="44.10086" lon="1.07543">
        <ele>94</ele>
        <time>2023-07-06T10:42:54Z</time>
      </trkpt>
      <trkpt lat="44.10087" lon="1.07554">
        <ele>94.4</ele>
        <time>2023-07-06T10:43:01Z</time>
      </trkpt>
      <trkpt lat="44.10087" lon="1.07556">
        <ele>94.2</ele>
        <time>2023-07-06T10:43:02Z</time>
      </trkpt>
      <trkpt lat="44.10088" lon="1.07557">
        <ele>94</ele>
        <time>2023-07-06T10:43:03Z</time>
      </trkpt>
      <trkpt lat="44.10087" lon="1.07563">
        <ele>93.6</ele>
        <time>2023-07-06T10:43:06Z</time>
      </trkpt>
      <trkpt lat="44.10083" lon="1.0758">
        <ele>93.8</ele>
        <time>2023-07-06T10:43:16Z</time>
      </trkpt>
      <trkpt lat="44.10081" lon="1.07598">
        <ele>94</ele>
        <time>2023-07-06T10:43:27Z</time>
      </trkpt>
      <trkpt lat="44.1008" lon="1.07607">
        <ele>93.4</ele>
        <time>2023-07-06T10:43:32Z</time>
      </trkpt>
      <trkpt lat="44.10078" lon="1.07613">
        <ele>93.4</ele>
        <time>2023-07-06T10:43:35Z</time>
      </trkpt>
      <trkpt lat="44.10075" lon="1.07632">
        <ele>93.6</ele>
        <time>2023-07-06T10:43:46Z</time>
      </trkpt>
      <trkpt lat="44.10076" lon="1.07643">
        <ele>93.8</ele>
        <time>2023-07-06T10:43:52Z</time>
      </trkpt>
      <trkpt lat="44.10076" lon="1.07646">
        <ele>93.6</ele>
        <time>2023-07-06T10:43:54Z</time>
      </trkpt>
      <trkpt lat="44.10077" lon="1.07648">
        <ele>93.6</ele>
        <time>2023-07-06T10:43:55Z</time>
      </trkpt>
      <trkpt lat="44.1008" lon="1.07664">
        <ele>94</ele>
        <time>2023-07-06T10:44:04Z</time>
      </trkpt>
      <trkpt lat="44.1008" lon="1.0767">
        <ele>93.6</ele>
        <time>2023-07-06T10:44:08Z</time>
      </trkpt>
      <trkpt lat="44.1008" lon="1.07677">
        <ele>93.6</ele>
        <time>2023-07-06T10:44:11Z</time>
      </trkpt>
      <trkpt lat="44.1008" lon="1.0768">
        <ele>93.8</ele>
        <time>2023-07-06T10:44:13Z</time>
      </trkpt>
      <trkpt lat="44.10081" lon="1.07688">
        <ele>94.2</ele>
        <time>2023-07-06T10:44:18Z</time>
      </trkpt>
      <trkpt lat="44.10083" lon="1.07696">
        <ele>94.2</ele>
        <time>2023-07-06T10:44:23Z</time>
      </trkpt>
      <trkpt lat="44.10085" lon="1.07704">
        <ele>94</ele>
        <time>2023-07-06T10:44:28Z</time>
      </trkpt>
      <trkpt lat="44.10087" lon="1.07721">
        <ele>94</ele>
        <time>2023-07-06T10:44:38Z</time>
      </trkpt>
      <trkpt lat="44.10089" lon="1.07734">
        <ele>94.2</ele>
        <time>2023-07-06T10:44:46Z</time>
      </trkpt>
      <trkpt lat="44.10089" lon="1.07745">
        <ele>93.8</ele>
        <time>2023-07-06T10:44:52Z</time>
      </trkpt>
      <trkpt lat="44.10092" lon="1.07758">
        <ele>94.2</ele>
        <time>2023-07-06T10:45:00Z</time>
      </trkpt>
      <trkpt lat="44.10092" lon="1.07765">
        <ele>94.2</ele>
        <time>2023-07-06T10:45:04Z</time>
      </trkpt>
      <trkpt lat="44.10094" lon="1.0777">
        <ele>94.2</ele>
        <time>2023-07-06T10:45:07Z</time>
      </trkpt>
      <trkpt lat="44.10096" lon="1.07772">
        <ele>94</ele>
        <time>2023-07-06T10:45:50Z</time>
      </trkpt>
      <trkpt lat="44.10095" lon="1.07774">
        <ele>94</ele>
        <time>2023-07-06T10:45:52Z</time>
      </trkpt>
      <trkpt lat="44.10093" lon="1.07777">
        <ele>94.4</ele>
        <time>2023-07-06T10:45:54Z</time>
      </trkpt>
      <trkpt lat="44.10092" lon="1.0778">
        <ele>94.8</ele>
        <time>2023-07-06T10:45:56Z</time>
      </trkpt>
      <trkpt lat="44.10089" lon="1.07785">
        <ele>95</ele>
        <time>2023-07-06T10:45:59Z</time>
      </trkpt>
      <trkpt lat="44.10089" lon="1.07787">
        <ele>95</ele>
        <time>2023-07-06T10:46:00Z</time>
      </trkpt>
      <trkpt lat="44.10088" lon="1.07789">
        <ele>95</ele>
        <time>2023-07-06T10:46:01Z</time>
      </trkpt>
      <trkpt lat="44.10085" lon="1.07799">
        <ele>95</ele>
        <time>2023-07-06T10:46:08Z</time>
      </trkpt>
      <trkpt lat="44.10084" lon="1.07804">
        <ele>94.6</ele>
        <time>2023-07-06T10:46:11Z</time>
      </trkpt>
      <trkpt lat="44.10083" lon="1.07807">
        <ele>94.4</ele>
        <time>2023-07-06T10:46:13Z</time>
      </trkpt>
      <trkpt lat="44.10083" lon="1.07808">
        <ele>94.4</ele>
        <time>2023-07-06T10:46:14Z</time>
      </trkpt>
      <trkpt lat="44.10077" lon="1.07818">
        <ele>93.8</ele>
        <time>2023-07-06T10:46:21Z</time>
      </trkpt>
      <trkpt lat="44.10077" lon="1.07819">
        <ele>93.8</ele>
        <time>2023-07-06T10:46:22Z</time>
      </trkpt>
      <trkpt lat="44.10075" lon="1.07821">
        <ele>93.8</ele>
        <time>2023-07-06T10:46:24Z</time>
      </trkpt>
      <trkpt lat="44.10074" lon="1.07821">
        <ele>93.8</ele>
        <time>2023-07-06T10:46:25Z</time>
      </trkpt>
      <trkpt lat="44.10072" lon="1.07821">
        <ele>93.8</ele>
        <time>2023-07-06T10:46:26Z</time>
      </trkpt>
      <trkpt lat="44.10063" lon="1.07819">
        <ele>93.8</ele>
        <time>2023-07-06T10:46:33Z</time>
      </trkpt>
      <trkpt lat="44.10057" lon="1.07816">
        <ele>93.4</ele>
        <time>2023-07-06T10:46:38Z</time>
      </trkpt>
      <trkpt lat="44.10052" lon="1.07813">
        <ele>93.4</ele>
        <time>2023-07-06T10:46:42Z</time>
      </trkpt>
      <trkpt lat="44.10051" lon="1.07812">
        <ele>93.4</ele>
        <time>2023-07-06T10:46:43Z</time>
      </trkpt>
      <trkpt lat="44.10048" lon="1.07812">
        <ele>93.4</ele>
        <time>2023-07-06T10:46:46Z</time>
      </trkpt>
      <trkpt lat="44.10047" lon="1.07811">
        <ele>93.4</ele>
        <time>2023-07-06T10:46:47Z</time>
      </trkpt>
      <trkpt lat="44.1004" lon="1.07809">
        <ele>93.2</ele>
        <time>2023-07-06T10:46:54Z</time>
      </trkpt>
      <trkpt lat="44.10038" lon="1.07808">
        <ele>93.2</ele>
        <time>2023-07-06T10:46:55Z</time>
      </trkpt>
      <trkpt lat="44.10028" lon="1.07805">
        <ele>93.4</ele>
        <time>2023-07-06T10:47:02Z</time>
      </trkpt>
      <trkpt lat="44.10025" lon="1.07805">
        <ele>93.4</ele>
        <time>2023-07-06T10:47:05Z</time>
      </trkpt>
      <trkpt lat="44.10025" lon="1.07805">
        <ele>93.8</ele>
        <time>2023-07-06T10:47:08Z</time>
      </trkpt>
      <trkpt lat="44.10025" lon="1.07805">
        <ele>93.8</ele>
        <time>2023-07-06T10:47:10Z</time>
      </trkpt>
      <trkpt lat="44.10023" lon="1.07805">
        <ele>93.6</ele>
        <time>2023-07-06T10:47:15Z</time>
      </trkpt>
      <trkpt lat="44.10022" lon="1.07805">
        <ele>93.4</ele>
        <time>2023-07-06T10:47:16Z</time>
      </trkpt>
      <trkpt lat="44.1002" lon="1.07804">
        <ele>93.4</ele>
        <time>2023-07-06T10:47:19Z</time>
      </trkpt>
      <trkpt lat="44.10016" lon="1.07806">
        <ele>93.2</ele>
        <time>2023-07-06T10:47:23Z</time>
      </trkpt>
      <trkpt lat="44.10013" lon="1.07809">
        <ele>93.2</ele>
        <time>2023-07-06T10:47:27Z</time>
      </trkpt>
      <trkpt lat="44.10012" lon="1.07811">
        <ele>93</ele>
        <time>2023-07-06T10:47:29Z</time>
      </trkpt>
      <trkpt lat="44.10011" lon="1.07812">
        <ele>93</ele>
        <time>2023-07-06T10:47:30Z</time>
      </trkpt>
      <trkpt lat="44.1001" lon="1.07813">
        <ele>93.2</ele>
        <time>2023-07-06T10:47:31Z</time>
      </trkpt>
      <trkpt lat="44.10007" lon="1.0782">
        <ele>93.2</ele>
        <time>2023-07-06T10:47:36Z</time>
      </trkpt>
      <trkpt lat="44.10003" lon="1.07827">
        <ele>93.2</ele>
        <time>2023-07-06T10:47:42Z</time>
      </trkpt>
      <trkpt lat="44.10002" lon="1.0783">
        <ele>93.4</ele>
        <time>2023-07-06T10:47:44Z</time>
      </trkpt>
      <trkpt lat="44.09999" lon="1.07839">
        <ele>93.4</ele>
        <time>2023-07-06T10:47:49Z</time>
      </trkpt>
      <trkpt lat="44.09999" lon="1.07848">
        <ele>93.2</ele>
        <time>2023-07-06T10:47:54Z</time>
      </trkpt>
      <trkpt lat="44.09999" lon="1.07853">
        <ele>93.4</ele>
        <time>2023-07-06T10:47:57Z</time>
      </trkpt>
      <trkpt lat="44.09998" lon="1.07857">
        <ele>93.6</ele>
        <time>2023-07-06T10:47:59Z</time>
      </trkpt>
      <trkpt lat="44.09998" lon="1.07864">
        <ele>93.6</ele>
        <time>2023-07-06T10:48:03Z</time>
      </trkpt>
      <trkpt lat="44.09999" lon="1.07877">
        <ele>93.4</ele>
        <time>2023-07-06T10:48:11Z</time>
      </trkpt>
      <trkpt lat="44.09999" lon="1.07879">
        <ele>93.4</ele>
        <time>2023-07-06T10:48:12Z</time>
      </trkpt>
      <trkpt lat="44.09999" lon="1.07885">
        <ele>93.4</ele>
        <time>2023-07-06T10:48:16Z</time>
      </trkpt>
      <trkpt lat="44.09999" lon="1.07887">
        <ele>93.4</ele>
        <time>2023-07-06T10:48:17Z</time>
      </trkpt>
      <trkpt lat="44.09998" lon="1.07892">
        <ele>93.4</ele>
        <time>2023-07-06T10:48:20Z</time>
      </trkpt>
      <trkpt lat="44.09998" lon="1.07896">
        <ele>93.2</ele>
        <time>2023-07-06T10:48:22Z</time>
      </trkpt>
      <trkpt lat="44.09996" lon="1.07904">
        <ele>93</ele>
        <time>2023-07-06T10:48:26Z</time>
      </trkpt>
      <trkpt lat="44.09994" lon="1.07917">
        <ele>92.6</ele>
        <time>2023-07-06T10:48:33Z</time>
      </trkpt>
      <trkpt lat="44.09994" lon="1.07919">
        <ele>92.4</ele>
        <time>2023-07-06T10:48:34Z</time>
      </trkpt>
      <trkpt lat="44.09994" lon="1.0792">
        <ele>92.4</ele>
        <time>2023-07-06T10:48:35Z</time>
      </trkpt>
      <trkpt lat="44.09994" lon="1.0793">
        <ele>92.4</ele>
        <time>2023-07-06T10:48:41Z</time>
      </trkpt>
      <trkpt lat="44.09995" lon="1.07941">
        <ele>92.4</ele>
        <time>2023-07-06T10:48:48Z</time>
      </trkpt>
      <trkpt lat="44.09995" lon="1.07951">
        <ele>92.4</ele>
        <time>2023-07-06T10:48:53Z</time>
      </trkpt>
      <trkpt lat="44.09996" lon="1.07955">
        <ele>92.4</ele>
        <time>2023-07-06T10:48:55Z</time>
      </trkpt>
      <trkpt lat="44.09996" lon="1.07956">
        <ele>92.4</ele>
        <time>2023-07-06T10:48:56Z</time>
      </trkpt>
      <trkpt lat="44.09995" lon="1.07968">
        <ele>92.6</ele>
        <time>2023-07-06T10:49:03Z</time>
      </trkpt>
      <trkpt lat="44.09995" lon="1.0797">
        <ele>92.6</ele>
        <time>2023-07-06T10:49:04Z</time>
      </trkpt>
      <trkpt lat="44.09995" lon="1.07972">
        <ele>92.4</ele>
        <time>2023-07-06T10:49:06Z</time>
      </trkpt>
      <trkpt lat="44.09995" lon="1.07979">
        <ele>92</ele>
        <time>2023-07-06T10:49:11Z</time>
      </trkpt>
      <trkpt lat="44.09995" lon="1.07982">
        <ele>91.8</ele>
        <time>2023-07-06T10:49:13Z</time>
      </trkpt>
      <trkpt lat="44.09994" lon="1.07987">
        <ele>92</ele>
        <time>2023-07-06T10:49:17Z</time>
      </trkpt>
      <trkpt lat="44.09992" lon="1.07999">
        <ele>92.2</ele>
        <time>2023-07-06T10:49:25Z</time>
      </trkpt>
      <trkpt lat="44.09992" lon="1.08002">
        <ele>92</ele>
        <time>2023-07-06T10:49:27Z</time>
      </trkpt>
      <trkpt lat="44.0999" lon="1.08006">
        <ele>92</ele>
        <time>2023-07-06T10:49:31Z</time>
      </trkpt>
      <trkpt lat="44.09991" lon="1.08018">
        <ele>92.4</ele>
        <time>2023-07-06T10:49:38Z</time>
      </trkpt>
      <trkpt lat="44.09991" lon="1.08021">
        <ele>92.4</ele>
        <time>2023-07-06T10:49:40Z</time>
      </trkpt>
      <trkpt lat="44.0999" lon="1.08022">
        <ele>92.4</ele>
        <time>2023-07-06T10:49:41Z</time>
      </trkpt>
      <trkpt lat="44.0999" lon="1.08024">
        <ele>92.4</ele>
        <time>2023-07-06T10:49:42Z</time>
      </trkpt>
      <trkpt lat="44.0999" lon="1.08025">
        <ele>92.4</ele>
        <time>2023-07-06T10:49:43Z</time>
      </trkpt>
      <trkpt lat="44.09991" lon="1.08028">
        <ele>92.2</ele>
        <time>2023-07-06T10:49:45Z</time>
      </trkpt>
      <trkpt lat="44.09988" lon="1.08042">
        <ele>92.4</ele>
        <time>2023-07-06T10:49:52Z</time>
      </trkpt>
      <trkpt lat="44.09989" lon="1.08044">
        <ele>92.4</ele>
        <time>2023-07-06T10:49:53Z</time>
      </trkpt>
      <trkpt lat="44.0999" lon="1.08053">
        <ele>92.4</ele>
        <time>2023-07-06T10:49:57Z</time>
      </trkpt>
      <trkpt lat="44.0999" lon="1.08059">
        <ele>92.2</ele>
        <time>2023-07-06T10:50:00Z</time>
      </trkpt>
      <trkpt lat="44.09989" lon="1.08068">
        <ele>92.2</ele>
        <time>2023-07-06T10:50:04Z</time>
      </trkpt>
      <trkpt lat="44.09989" lon="1.08074">
        <ele>92.4</ele>
        <time>2023-07-06T10:50:07Z</time>
      </trkpt>
      <trkpt lat="44.09989" lon="1.08076">
        <ele>92.4</ele>
        <time>2023-07-06T10:50:08Z</time>
      </trkpt>
      <trkpt lat="44.09988" lon="1.08084">
        <ele>92.4</ele>
        <time>2023-07-06T10:50:13Z</time>
      </trkpt>
      <trkpt lat="44.09987" lon="1.08094">
        <ele>92.2</ele>
        <time>2023-07-06T10:50:19Z</time>
      </trkpt>
      <trkpt lat="44.09989" lon="1.08105">
        <ele>92.2</ele>
        <time>2023-07-06T10:50:26Z</time>
      </trkpt>
      <trkpt lat="44.09989" lon="1.08113">
        <ele>92</ele>
        <time>2023-07-06T10:50:32Z</time>
      </trkpt>
      <trkpt lat="44.09989" lon="1.08116">
        <ele>92</ele>
        <time>2023-07-06T10:50:34Z</time>
      </trkpt>
      <trkpt lat="44.09989" lon="1.0812">
        <ele>92</ele>
        <time>2023-07-06T10:50:38Z</time>
      </trkpt>
      <trkpt lat="44.09989" lon="1.08122">
        <ele>92</ele>
        <time>2023-07-06T10:50:40Z</time>
      </trkpt>
      <trkpt lat="44.0999" lon="1.08123">
        <ele>92</ele>
        <time>2023-07-06T10:50:41Z</time>
      </trkpt>
      <trkpt lat="44.09991" lon="1.08129">
        <ele>92</ele>
        <time>2023-07-06T10:50:44Z</time>
      </trkpt>
      <trkpt lat="44.0999" lon="1.08131">
        <ele>92</ele>
        <time>2023-07-06T10:50:46Z</time>
      </trkpt>
      <trkpt lat="44.0999" lon="1.08132">
        <ele>92</ele>
        <time>2023-07-06T10:50:47Z</time>
      </trkpt>
      <trkpt lat="44.0999" lon="1.08134">
        <ele>92</ele>
        <time>2023-07-06T10:50:48Z</time>
      </trkpt>
      <trkpt lat="44.09989" lon="1.0814">
        <ele>91.8</ele>
        <time>2023-07-06T10:50:54Z</time>
      </trkpt>
      <trkpt lat="44.09988" lon="1.08142">
        <ele>91.8</ele>
        <time>2023-07-06T10:50:55Z</time>
      </trkpt>
      <trkpt lat="44.09986" lon="1.08145">
        <ele>91.8</ele>
        <time>2023-07-06T10:50:57Z</time>
      </trkpt>
      <trkpt lat="44.09981" lon="1.08158">
        <ele>91.6</ele>
        <time>2023-07-06T10:51:02Z</time>
      </trkpt>
      <trkpt lat="44.09978" lon="1.08165">
        <ele>91.2</ele>
        <time>2023-07-06T10:51:06Z</time>
      </trkpt>
      <trkpt lat="44.09976" lon="1.08173">
        <ele>91.2</ele>
        <time>2023-07-06T10:51:10Z</time>
      </trkpt>
      <trkpt lat="44.09973" lon="1.08189">
        <ele>90.6</ele>
        <time>2023-07-06T10:51:18Z</time>
      </trkpt>
      <trkpt lat="44.09973" lon="1.08191">
        <ele>90.4</ele>
        <time>2023-07-06T10:51:19Z</time>
      </trkpt>
      <trkpt lat="44.09971" lon="1.08199">
        <ele>90</ele>
        <time>2023-07-06T10:51:23Z</time>
      </trkpt>
      <trkpt lat="44.0997" lon="1.08206">
        <ele>89.8</ele>
        <time>2023-07-06T10:51:27Z</time>
      </trkpt>
      <trkpt lat="44.0997" lon="1.0821">
        <ele>90</ele>
        <time>2023-07-06T10:51:29Z</time>
      </trkpt>
      <trkpt lat="44.09969" lon="1.0822">
        <ele>90</ele>
        <time>2023-07-06T10:51:34Z</time>
      </trkpt>
      <trkpt lat="44.09969" lon="1.08222">
        <ele>90</ele>
        <time>2023-07-06T10:51:35Z</time>
      </trkpt>
      <trkpt lat="44.09968" lon="1.08229">
        <ele>89.6</ele>
        <time>2023-07-06T10:51:39Z</time>
      </trkpt>
      <trkpt lat="44.09968" lon="1.08234">
        <ele>89.6</ele>
        <time>2023-07-06T10:51:42Z</time>
      </trkpt>
      <trkpt lat="44.09967" lon="1.08238">
        <ele>89.6</ele>
        <time>2023-07-06T10:51:45Z</time>
      </trkpt>
      <trkpt lat="44.09967" lon="1.08239">
        <ele>89.6</ele>
        <time>2023-07-06T10:51:46Z</time>
      </trkpt>
      <trkpt lat="44.09967" lon="1.08243">
        <ele>89.6</ele>
        <time>2023-07-06T10:51:49Z</time>
      </trkpt>
      <trkpt lat="44.09967" lon="1.08245">
        <ele>89.6</ele>
        <time>2023-07-06T10:51:50Z</time>
      </trkpt>
      <trkpt lat="44.09968" lon="1.08255">
        <ele>89.6</ele>
        <time>2023-07-06T10:51:56Z</time>
      </trkpt>
      <trkpt lat="44.0997" lon="1.08267">
        <ele>89.8</ele>
        <time>2023-07-06T10:52:02Z</time>
      </trkpt>
      <trkpt lat="44.09969" lon="1.08271">
        <ele>89.8</ele>
        <time>2023-07-06T10:52:04Z</time>
      </trkpt>
      <trkpt lat="44.0997" lon="1.08279">
        <ele>89.8</ele>
        <time>2023-07-06T10:52:09Z</time>
      </trkpt>
      <trkpt lat="44.0997" lon="1.0828">
        <ele>89.6</ele>
        <time>2023-07-06T10:52:10Z</time>
      </trkpt>
      <trkpt lat="44.0997" lon="1.08288">
        <ele>89.6</ele>
        <time>2023-07-06T10:52:16Z</time>
      </trkpt>
      <trkpt lat="44.09969" lon="1.08296">
        <ele>89.6</ele>
        <time>2023-07-06T10:52:20Z</time>
      </trkpt>
      <trkpt lat="44.09969" lon="1.08301">
        <ele>89.6</ele>
        <time>2023-07-06T10:52:23Z</time>
      </trkpt>
      <trkpt lat="44.09969" lon="1.08302">
        <ele>89.8</ele>
        <time>2023-07-06T10:52:24Z</time>
      </trkpt>
      <trkpt lat="44.09969" lon="1.08307">
        <ele>90</ele>
        <time>2023-07-06T10:52:28Z</time>
      </trkpt>
      <trkpt lat="44.09969" lon="1.08309">
        <ele>90.2</ele>
        <time>2023-07-06T10:52:29Z</time>
      </trkpt>
      <trkpt lat="44.0997" lon="1.0832">
        <ele>89.6</ele>
        <time>2023-07-06T10:52:36Z</time>
      </trkpt>
      <trkpt lat="44.0997" lon="1.08326">
        <ele>89.8</ele>
        <time>2023-07-06T10:52:40Z</time>
      </trkpt>
      <trkpt lat="44.0997" lon="1.0833">
        <ele>90</ele>
        <time>2023-07-06T10:52:42Z</time>
      </trkpt>
      <trkpt lat="44.0997" lon="1.08331">
        <ele>90</ele>
        <time>2023-07-06T10:52:43Z</time>
      </trkpt>
      <trkpt lat="44.09969" lon="1.08341">
        <ele>90.2</ele>
        <time>2023-07-06T10:52:48Z</time>
      </trkpt>
      <trkpt lat="44.09968" lon="1.08351">
        <ele>89.8</ele>
        <time>2023-07-06T10:52:53Z</time>
      </trkpt>
      <trkpt lat="44.09969" lon="1.08352">
        <ele>89.8</ele>
        <time>2023-07-06T10:52:54Z</time>
      </trkpt>
      <trkpt lat="44.09969" lon="1.08356">
        <ele>89.8</ele>
        <time>2023-07-06T10:52:56Z</time>
      </trkpt>
      <trkpt lat="44.09971" lon="1.08359">
        <ele>89.8</ele>
        <time>2023-07-06T10:52:57Z</time>
      </trkpt>
      <trkpt lat="44.09973" lon="1.0837">
        <ele>90.2</ele>
        <time>2023-07-06T10:53:03Z</time>
      </trkpt>
      <trkpt lat="44.09973" lon="1.08374">
        <ele>90.2</ele>
        <time>2023-07-06T10:53:05Z</time>
      </trkpt>
      <trkpt lat="44.09973" lon="1.08382">
        <ele>89.8</ele>
        <time>2023-07-06T10:53:08Z</time>
      </trkpt>
      <trkpt lat="44.09973" lon="1.08383">
        <ele>89.8</ele>
        <time>2023-07-06T10:53:09Z</time>
      </trkpt>
      <trkpt lat="44.09971" lon="1.08398">
        <ele>90</ele>
        <time>2023-07-06T10:53:18Z</time>
      </trkpt>
      <trkpt lat="44.0997" lon="1.08404">
        <ele>90</ele>
        <time>2023-07-06T10:53:22Z</time>
      </trkpt>
      <trkpt lat="44.09977" lon="1.08433">
        <ele>91</ele>
        <time>2023-07-06T11:30:04Z</time>
      </trkpt>
      <trkpt lat="44.09977" lon="1.08435">
        <ele>91.2</ele>
        <time>2023-07-06T11:30:05Z</time>
      </trkpt>
      <trkpt lat="44.09979" lon="1.08438">
        <ele>91.2</ele>
        <time>2023-07-06T11:30:10Z</time>
      </trkpt>
      <trkpt lat="44.09982" lon="1.08444">
        <ele>91.4</ele>
        <time>2023-07-06T11:30:14Z</time>
      </trkpt>
      <trkpt lat="44.09981" lon="1.08449">
        <ele>91.6</ele>
        <time>2023-07-06T11:30:19Z</time>
      </trkpt>
      <trkpt lat="44.09977" lon="1.08462">
        <ele>91.2</ele>
        <time>2023-07-06T11:30:28Z</time>
      </trkpt>
      <trkpt lat="44.09976" lon="1.08474">
        <ele>90.6</ele>
        <time>2023-07-06T11:30:35Z</time>
      </trkpt>
      <trkpt lat="44.09975" lon="1.08483">
        <ele>90.4</ele>
        <time>2023-07-06T11:30:41Z</time>
      </trkpt>
      <trkpt lat="44.09975" lon="1.08486">
        <ele>90.6</ele>
        <time>2023-07-06T11:30:43Z</time>
      </trkpt>
      <trkpt lat="44.09978" lon="1.08496">
        <ele>90.6</ele>
        <time>2023-07-06T11:30:49Z</time>
      </trkpt>
      <trkpt lat="44.09978" lon="1.08497">
        <ele>90.6</ele>
        <time>2023-07-06T11:30:50Z</time>
      </trkpt>
      <trkpt lat="44.09978" lon="1.08499">
        <ele>90.4</ele>
        <time>2023-07-06T11:30:51Z</time>
      </trkpt>
      <trkpt lat="44.09979" lon="1.08503">
        <ele>90</ele>
        <time>2023-07-06T11:30:54Z</time>
      </trkpt>
      <trkpt lat="44.09981" lon="1.08512">
        <ele>90</ele>
        <time>2023-07-06T11:30:59Z</time>
      </trkpt>
      <trkpt lat="44.09981" lon="1.08523">
        <ele>89.8</ele>
        <time>2023-07-06T11:31:06Z</time>
      </trkpt>
      <trkpt lat="44.0998" lon="1.08526">
        <ele>90</ele>
        <time>2023-07-06T11:31:08Z</time>
      </trkpt>
      <trkpt lat="44.0998" lon="1.08528">
        <ele>90</ele>
        <time>2023-07-06T11:31:09Z</time>
      </trkpt>
      <trkpt lat="44.09974" lon="1.08542">
        <ele>90</ele>
        <time>2023-07-06T11:31:18Z</time>
      </trkpt>
      <trkpt lat="44.09968" lon="1.08551">
        <ele>90.2</ele>
        <time>2023-07-06T11:31:25Z</time>
      </trkpt>
      <trkpt lat="44.09965" lon="1.08556">
        <ele>90.2</ele>
        <time>2023-07-06T11:31:28Z</time>
      </trkpt>
      <trkpt lat="44.09964" lon="1.08563">
        <ele>90.2</ele>
        <time>2023-07-06T11:31:31Z</time>
      </trkpt>
      <trkpt lat="44.09963" lon="1.08565">
        <ele>90.4</ele>
        <time>2023-07-06T11:31:33Z</time>
      </trkpt>
      <trkpt lat="44.09958" lon="1.08566">
        <ele>90.2</ele>
        <time>2023-07-06T11:31:36Z</time>
      </trkpt>
      <trkpt lat="44.09958" lon="1.08567">
        <ele>89.8</ele>
        <time>2023-07-06T11:31:37Z</time>
      </trkpt>
      <trkpt lat="44.09959" lon="1.08576">
        <ele>89.4</ele>
        <time>2023-07-06T11:31:42Z</time>
      </trkpt>
      <trkpt lat="44.09961" lon="1.08586">
        <ele>89.6</ele>
        <time>2023-07-06T11:31:48Z</time>
      </trkpt>
      <trkpt lat="44.09961" lon="1.08597">
        <ele>89.6</ele>
        <time>2023-07-06T11:31:55Z</time>
      </trkpt>
      <trkpt lat="44.09959" lon="1.08599">
        <ele>89.6</ele>
        <time>2023-07-06T11:31:56Z</time>
      </trkpt>
      <trkpt lat="44.09959" lon="1.08604">
        <ele>89.4</ele>
        <time>2023-07-06T11:32:00Z</time>
      </trkpt>
      <trkpt lat="44.09963" lon="1.08606">
        <ele>89.4</ele>
        <time>2023-07-06T11:32:03Z</time>
      </trkpt>
      <trkpt lat="44.09966" lon="1.08607">
        <ele>89</ele>
        <time>2023-07-06T11:32:05Z</time>
      </trkpt>
      <trkpt lat="44.09969" lon="1.08608">
        <ele>89</ele>
        <time>2023-07-06T11:32:07Z</time>
      </trkpt>
      <trkpt lat="44.09977" lon="1.0861">
        <ele>89.2</ele>
        <time>2023-07-06T11:32:14Z</time>
      </trkpt>
      <trkpt lat="44.09983" lon="1.08615">
        <ele>89.2</ele>
        <time>2023-07-06T11:32:19Z</time>
      </trkpt>
      <trkpt lat="44.09986" lon="1.08624">
        <ele>89.2</ele>
        <time>2023-07-06T11:32:24Z</time>
      </trkpt>
      <trkpt lat="44.09985" lon="1.08626">
        <ele>89.2</ele>
        <time>2023-07-06T11:32:25Z</time>
      </trkpt>
      <trkpt lat="44.09984" lon="1.08636">
        <ele>89.2</ele>
        <time>2023-07-06T11:32:30Z</time>
      </trkpt>
      <trkpt lat="44.09983" lon="1.08653">
        <ele>88.8</ele>
        <time>2023-07-06T11:32:38Z</time>
      </trkpt>
      <trkpt lat="44.09983" lon="1.08656">
        <ele>89</ele>
        <time>2023-07-06T11:32:40Z</time>
      </trkpt>
      <trkpt lat="44.09982" lon="1.0866">
        <ele>89.2</ele>
        <time>2023-07-06T11:32:42Z</time>
      </trkpt>
      <trkpt lat="44.09981" lon="1.08665">
        <ele>89.2</ele>
        <time>2023-07-06T11:32:44Z</time>
      </trkpt>
      <trkpt lat="44.09981" lon="1.08669">
        <ele>89.4</ele>
        <time>2023-07-06T11:32:46Z</time>
      </trkpt>
      <trkpt lat="44.0998" lon="1.08674">
        <ele>89.2</ele>
        <time>2023-07-06T11:32:49Z</time>
      </trkpt>
      <trkpt lat="44.09979" lon="1.08676">
        <ele>89.2</ele>
        <time>2023-07-06T11:32:50Z</time>
      </trkpt>
      <trkpt lat="44.09978" lon="1.08681">
        <ele>89.2</ele>
        <time>2023-07-06T11:32:53Z</time>
      </trkpt>
      <trkpt lat="44.09978" lon="1.08683">
        <ele>89</ele>
        <time>2023-07-06T11:32:54Z</time>
      </trkpt>
      <trkpt lat="44.09978" lon="1.08689">
        <ele>89</ele>
        <time>2023-07-06T11:32:57Z</time>
      </trkpt>
      <trkpt lat="44.09977" lon="1.08702">
        <ele>88.8</ele>
        <time>2023-07-06T11:33:05Z</time>
      </trkpt>
      <trkpt lat="44.09978" lon="1.08713">
        <ele>88.6</ele>
        <time>2023-07-06T11:33:11Z</time>
      </trkpt>
      <trkpt lat="44.09977" lon="1.08716">
        <ele>88.6</ele>
        <time>2023-07-06T11:33:13Z</time>
      </trkpt>
      <trkpt lat="44.09973" lon="1.08729">
        <ele>88.6</ele>
        <time>2023-07-06T11:33:21Z</time>
      </trkpt>
      <trkpt lat="44.09973" lon="1.08733">
        <ele>88.6</ele>
        <time>2023-07-06T11:33:24Z</time>
      </trkpt>
      <trkpt lat="44.09972" lon="1.08746">
        <ele>88.8</ele>
        <time>2023-07-06T11:33:31Z</time>
      </trkpt>
      <trkpt lat="44.0997" lon="1.08757">
        <ele>88.6</ele>
        <time>2023-07-06T11:33:37Z</time>
      </trkpt>
      <trkpt lat="44.09969" lon="1.08762">
        <ele>88.6</ele>
        <time>2023-07-06T11:33:42Z</time>
      </trkpt>
      <trkpt lat="44.09969" lon="1.08763">
        <ele>88.6</ele>
        <time>2023-07-06T11:33:43Z</time>
      </trkpt>
      <trkpt lat="44.09969" lon="1.08766">
        <ele>90.4</ele>
        <time>2023-07-06T11:33:47Z</time>
      </trkpt>
      <trkpt lat="44.09969" lon="1.08769">
        <ele>90.4</ele>
        <time>2023-07-06T11:33:50Z</time>
      </trkpt>
      <trkpt lat="44.09968" lon="1.08776">
        <ele>90.4</ele>
        <time>2023-07-06T11:33:55Z</time>
      </trkpt>
      <trkpt lat="44.09968" lon="1.08778">
        <ele>90.4</ele>
        <time>2023-07-06T11:33:56Z</time>
      </trkpt>
      <trkpt lat="44.09968" lon="1.0878">
        <ele>90.4</ele>
        <time>2023-07-06T11:33:57Z</time>
      </trkpt>
      <trkpt lat="44.09967" lon="1.08782">
        <ele>90.4</ele>
        <time>2023-07-06T11:33:58Z</time>
      </trkpt>
      <trkpt lat="44.09966" lon="1.08795">
        <ele>90.2</ele>
        <time>2023-07-06T11:34:05Z</time>
      </trkpt>
      <trkpt lat="44.09965" lon="1.08803">
        <ele>90.2</ele>
        <time>2023-07-06T11:34:10Z</time>
      </trkpt>
      <trkpt lat="44.09965" lon="1.08806">
        <ele>90.4</ele>
        <time>2023-07-06T11:34:12Z</time>
      </trkpt>
      <trkpt lat="44.09965" lon="1.08807">
        <ele>90.6</ele>
        <time>2023-07-06T11:34:13Z</time>
      </trkpt>
      <trkpt lat="44.09964" lon="1.08813">
        <ele>90.4</ele>
        <time>2023-07-06T11:34:17Z</time>
      </trkpt>
      <trkpt lat="44.09964" lon="1.08814">
        <ele>90.4</ele>
        <time>2023-07-06T11:34:18Z</time>
      </trkpt>
      <trkpt lat="44.09964" lon="1.08817">
        <ele>90.4</ele>
        <time>2023-07-06T11:34:20Z</time>
      </trkpt>
      <trkpt lat="44.09964" lon="1.08818">
        <ele>90.4</ele>
        <time>2023-07-06T11:34:21Z</time>
      </trkpt>
      <trkpt lat="44.09964" lon="1.0882">
        <ele>90.4</ele>
        <time>2023-07-06T11:34:23Z</time>
      </trkpt>
      <trkpt lat="44.09966" lon="1.08822">
        <ele>90.6</ele>
        <time>2023-07-06T11:34:25Z</time>
      </trkpt>
      <trkpt lat="44.09966" lon="1.08823">
        <ele>90.8</ele>
        <time>2023-07-06T11:34:26Z</time>
      </trkpt>
      <trkpt lat="44.09969" lon="1.08828">
        <ele>91.6</ele>
        <time>2023-07-06T11:34:30Z</time>
      </trkpt>
      <trkpt lat="44.0997" lon="1.08832">
        <ele>91.6</ele>
        <time>2023-07-06T11:34:33Z</time>
      </trkpt>
      <trkpt lat="44.09971" lon="1.08836">
        <ele>91.6</ele>
        <time>2023-07-06T11:34:35Z</time>
      </trkpt>
      <trkpt lat="44.09971" lon="1.08838">
        <ele>91.6</ele>
        <time>2023-07-06T11:34:37Z</time>
      </trkpt>
      <trkpt lat="44.09973" lon="1.08841">
        <ele>91.6</ele>
        <time>2023-07-06T11:34:39Z</time>
      </trkpt>
      <trkpt lat="44.09974" lon="1.08842">
        <ele>91.4</ele>
        <time>2023-07-06T11:34:40Z</time>
      </trkpt>
      <trkpt lat="44.09977" lon="1.08847">
        <ele>91.4</ele>
        <time>2023-07-06T11:34:44Z</time>
      </trkpt>
      <trkpt lat="44.09978" lon="1.08847">
        <ele>91.4</ele>
        <time>2023-07-06T11:34:45Z</time>
      </trkpt>
      <trkpt lat="44.09979" lon="1.08848">
        <ele>91.4</ele>
        <time>2023-07-06T11:34:46Z</time>
      </trkpt>
      <trkpt lat="44.09984" lon="1.08852">
        <ele>91.4</ele>
        <time>2023-07-06T11:34:50Z</time>
      </trkpt>
      <trkpt lat="44.09985" lon="1.08853">
        <ele>91.4</ele>
        <time>2023-07-06T11:34:51Z</time>
      </trkpt>
      <trkpt lat="44.09988" lon="1.08855">
        <ele>91.4</ele>
        <time>2023-07-06T11:34:54Z</time>
      </trkpt>
      <trkpt lat="44.09989" lon="1.08855">
        <ele>91.4</ele>
        <time>2023-07-06T11:34:55Z</time>
      </trkpt>
      <trkpt lat="44.09991" lon="1.08855">
        <ele>91.4</ele>
        <time>2023-07-06T11:34:57Z</time>
      </trkpt>
      <trkpt lat="44.09992" lon="1.08855">
        <ele>91.4</ele>
        <time>2023-07-06T11:34:58Z</time>
      </trkpt>
      <trkpt lat="44.09994" lon="1.08856">
        <ele>91.4</ele>
        <time>2023-07-06T11:35:00Z</time>
      </trkpt>
      <trkpt lat="44.09995" lon="1.08856">
        <ele>91.4</ele>
        <time>2023-07-06T11:35:02Z</time>
      </trkpt>
      <trkpt lat="44.09996" lon="1.08857">
        <ele>91.4</ele>
        <time>2023-07-06T11:35:03Z</time>
      </trkpt>
      <trkpt lat="44.09996" lon="1.08858">
        <ele>91.4</ele>
        <time>2023-07-06T11:35:04Z</time>
      </trkpt>
      <trkpt lat="44.09997" lon="1.08859">
        <ele>91.4</ele>
        <time>2023-07-06T11:35:05Z</time>
      </trkpt>
      <trkpt lat="44.10007" lon="1.08866">
        <ele>91.4</ele>
        <time>2023-07-06T11:35:38Z</time>
      </trkpt>
      <trkpt lat="44.10008" lon="1.08866">
        <ele>91.4</ele>
        <time>2023-07-06T11:35:39Z</time>
      </trkpt>
      <trkpt lat="44.10009" lon="1.08867">
        <ele>91.4</ele>
        <time>2023-07-06T11:35:41Z</time>
      </trkpt>
      <trkpt lat="44.10009" lon="1.08868">
        <ele>91.4</ele>
        <time>2023-07-06T11:35:42Z</time>
      </trkpt>
      <trkpt lat="44.10009" lon="1.08877">
        <ele>91.4</ele>
        <time>2023-07-06T11:35:47Z</time>
      </trkpt>
      <trkpt lat="44.10006" lon="1.0889">
        <ele>91.4</ele>
        <time>2023-07-06T11:35:54Z</time>
      </trkpt>
      <trkpt lat="44.10004" lon="1.08896">
        <ele>91.2</ele>
        <time>2023-07-06T11:35:57Z</time>
      </trkpt>
      <trkpt lat="44.10003" lon="1.08903">
        <ele>91.2</ele>
        <time>2023-07-06T11:36:01Z</time>
      </trkpt>
      <trkpt lat="44.10005" lon="1.08908">
        <ele>91</ele>
        <time>2023-07-06T11:36:03Z</time>
      </trkpt>
      <trkpt lat="44.10001" lon="1.0892">
        <ele>91.2</ele>
        <time>2023-07-06T11:36:10Z</time>
      </trkpt>
      <trkpt lat="44.1" lon="1.08923">
        <ele>91.2</ele>
        <time>2023-07-06T11:36:12Z</time>
      </trkpt>
      <trkpt lat="44.09998" lon="1.08931">
        <ele>91</ele>
        <time>2023-07-06T11:36:17Z</time>
      </trkpt>
      <trkpt lat="44.09998" lon="1.08935">
        <ele>91.2</ele>
        <time>2023-07-06T11:36:20Z</time>
      </trkpt>
      <trkpt lat="44.09992" lon="1.08949">
        <ele>91.4</ele>
        <time>2023-07-06T11:36:29Z</time>
      </trkpt>
      <trkpt lat="44.0999" lon="1.08959">
        <ele>91.8</ele>
        <time>2023-07-06T11:36:35Z</time>
      </trkpt>
      <trkpt lat="44.0999" lon="1.08961">
        <ele>91.8</ele>
        <time>2023-07-06T11:36:36Z</time>
      </trkpt>
      <trkpt lat="44.09986" lon="1.08969">
        <ele>92</ele>
        <time>2023-07-06T11:36:41Z</time>
      </trkpt>
      <trkpt lat="44.09982" lon="1.08976">
        <ele>92.2</ele>
        <time>2023-07-06T11:36:46Z</time>
      </trkpt>
      <trkpt lat="44.09982" lon="1.08977">
        <ele>92.2</ele>
        <time>2023-07-06T11:36:47Z</time>
      </trkpt>
      <trkpt lat="44.0998" lon="1.08983">
        <ele>92.6</ele>
        <time>2023-07-06T11:36:51Z</time>
      </trkpt>
      <trkpt lat="44.09979" lon="1.08987">
        <ele>92.6</ele>
        <time>2023-07-06T11:36:53Z</time>
      </trkpt>
      <trkpt lat="44.09974" lon="1.08998">
        <ele>93</ele>
        <time>2023-07-06T11:37:01Z</time>
      </trkpt>
      <trkpt lat="44.09969" lon="1.0901">
        <ele>93.4</ele>
        <time>2023-07-06T11:37:09Z</time>
      </trkpt>
      <trkpt lat="44.09968" lon="1.09012">
        <ele>93.4</ele>
        <time>2023-07-06T11:37:10Z</time>
      </trkpt>
      <trkpt lat="44.09968" lon="1.09012">
        <ele>93.4</ele>
        <time>2023-07-06T11:37:11Z</time>
      </trkpt>
      <trkpt lat="44.09966" lon="1.09016">
        <ele>93.4</ele>
        <time>2023-07-06T11:37:14Z</time>
      </trkpt>
      <trkpt lat="44.09964" lon="1.0902">
        <ele>93.2</ele>
        <time>2023-07-06T11:37:16Z</time>
      </trkpt>
      <trkpt lat="44.09959" lon="1.09028">
        <ele>93.2</ele>
        <time>2023-07-06T11:37:23Z</time>
      </trkpt>
      <trkpt lat="44.09958" lon="1.09029">
        <ele>93.4</ele>
        <time>2023-07-06T11:37:24Z</time>
      </trkpt>
      <trkpt lat="44.09956" lon="1.0903">
        <ele>93</ele>
        <time>2023-07-06T11:37:28Z</time>
      </trkpt>
      <trkpt lat="44.09949" lon="1.09037">
        <ele>91.8</ele>
        <time>2023-07-06T11:37:35Z</time>
      </trkpt>
      <trkpt lat="44.09948" lon="1.09039">
        <ele>91.4</ele>
        <time>2023-07-06T11:37:36Z</time>
      </trkpt>
      <trkpt lat="44.09945" lon="1.0904">
        <ele>91</ele>
        <time>2023-07-06T11:37:38Z</time>
      </trkpt>
      <trkpt lat="44.09938" lon="1.09041">
        <ele>90.4</ele>
        <time>2023-07-06T11:37:42Z</time>
      </trkpt>
      <trkpt lat="44.09936" lon="1.09042">
        <ele>90</ele>
        <time>2023-07-06T11:37:44Z</time>
      </trkpt>
      <trkpt lat="44.09934" lon="1.09043">
        <ele>90.2</ele>
        <time>2023-07-06T11:37:46Z</time>
      </trkpt>
      <trkpt lat="44.09932" lon="1.09046">
        <ele>90.2</ele>
        <time>2023-07-06T11:37:48Z</time>
      </trkpt>
      <trkpt lat="44.09929" lon="1.09051">
        <ele>90.4</ele>
        <time>2023-07-06T11:37:52Z</time>
      </trkpt>
      <trkpt lat="44.09928" lon="1.09054">
        <ele>90.2</ele>
        <time>2023-07-06T11:37:54Z</time>
      </trkpt>
      <trkpt lat="44.09927" lon="1.09056">
        <ele>90.2</ele>
        <time>2023-07-06T11:37:55Z</time>
      </trkpt>
      <trkpt lat="44.09921" lon="1.09063">
        <ele>90</ele>
        <time>2023-07-06T11:38:02Z</time>
      </trkpt>
      <trkpt lat="44.09921" lon="1.09065">
        <ele>90</ele>
        <time>2023-07-06T11:38:04Z</time>
      </trkpt>
      <trkpt lat="44.0992" lon="1.09069">
        <ele>90</ele>
        <time>2023-07-06T11:38:07Z</time>
      </trkpt>
      <trkpt lat="44.09918" lon="1.0908">
        <ele>90</ele>
        <time>2023-07-06T11:38:14Z</time>
      </trkpt>
      <trkpt lat="44.09917" lon="1.09093">
        <ele>90.4</ele>
        <time>2023-07-06T11:38:21Z</time>
      </trkpt>
      <trkpt lat="44.09919" lon="1.09103">
        <ele>90.2</ele>
        <time>2023-07-06T11:38:27Z</time>
      </trkpt>
      <trkpt lat="44.09916" lon="1.09117">
        <ele>90.2</ele>
        <time>2023-07-06T11:38:34Z</time>
      </trkpt>
      <trkpt lat="44.09913" lon="1.09121">
        <ele>90.2</ele>
        <time>2023-07-06T11:38:37Z</time>
      </trkpt>
      <trkpt lat="44.09908" lon="1.09128">
        <ele>90.2</ele>
        <time>2023-07-06T11:38:42Z</time>
      </trkpt>
      <trkpt lat="44.09901" lon="1.09139">
        <ele>90.2</ele>
        <time>2023-07-06T11:38:50Z</time>
      </trkpt>
      <trkpt lat="44.09895" lon="1.09149">
        <ele>90</ele>
        <time>2023-07-06T11:38:58Z</time>
      </trkpt>
      <trkpt lat="44.09895" lon="1.0915">
        <ele>90</ele>
        <time>2023-07-06T11:38:59Z</time>
      </trkpt>
      <trkpt lat="44.09889" lon="1.0916">
        <ele>90</ele>
        <time>2023-07-06T11:39:06Z</time>
      </trkpt>
      <trkpt lat="44.09888" lon="1.09163">
        <ele>90</ele>
        <time>2023-07-06T11:39:08Z</time>
      </trkpt>
      <trkpt lat="44.09884" lon="1.0917">
        <ele>90.2</ele>
        <time>2023-07-06T11:39:13Z</time>
      </trkpt>
      <trkpt lat="44.09882" lon="1.09172">
        <ele>90.2</ele>
        <time>2023-07-06T11:39:15Z</time>
      </trkpt>
      <trkpt lat="44.09879" lon="1.09179">
        <ele>90</ele>
        <time>2023-07-06T11:39:19Z</time>
      </trkpt>
      <trkpt lat="44.09878" lon="1.09181">
        <ele>89.8</ele>
        <time>2023-07-06T11:39:20Z</time>
      </trkpt>
      <trkpt lat="44.09868" lon="1.09194">
        <ele>90</ele>
        <time>2023-07-06T11:39:29Z</time>
      </trkpt>
      <trkpt lat="44.09862" lon="1.09204">
        <ele>89.8</ele>
        <time>2023-07-06T11:39:36Z</time>
      </trkpt>
      <trkpt lat="44.09853" lon="1.09213">
        <ele>89.8</ele>
        <time>2023-07-06T11:39:44Z</time>
      </trkpt>
      <trkpt lat="44.09844" lon="1.09221">
        <ele>90.2</ele>
        <time>2023-07-06T11:39:52Z</time>
      </trkpt>
      <trkpt lat="44.09844" lon="1.09222">
        <ele>90.2</ele>
        <time>2023-07-06T11:39:53Z</time>
      </trkpt>
      <trkpt lat="44.09842" lon="1.09225">
        <ele>90.2</ele>
        <time>2023-07-06T11:39:55Z</time>
      </trkpt>
      <trkpt lat="44.09841" lon="1.09226">
        <ele>90.2</ele>
        <time>2023-07-06T11:39:56Z</time>
      </trkpt>
      <trkpt lat="44.0984" lon="1.09228">
        <ele>90.4</ele>
        <time>2023-07-06T11:39:58Z</time>
      </trkpt>
      <trkpt lat="44.09838" lon="1.09229">
        <ele>90.4</ele>
        <time>2023-07-06T11:40:00Z</time>
      </trkpt>
      <trkpt lat="44.09837" lon="1.0923">
        <ele>90.4</ele>
        <time>2023-07-06T11:40:01Z</time>
      </trkpt>
      <trkpt lat="44.09836" lon="1.09232">
        <ele>90.2</ele>
        <time>2023-07-06T11:40:02Z</time>
      </trkpt>
      <trkpt lat="44.09835" lon="1.09233">
        <ele>90.2</ele>
        <time>2023-07-06T11:40:03Z</time>
      </trkpt>
      <trkpt lat="44.09829" lon="1.0924">
        <ele>90.2</ele>
        <time>2023-07-06T11:40:08Z</time>
      </trkpt>
      <trkpt lat="44.09825" lon="1.09244">
        <ele>90.2</ele>
        <time>2023-07-06T11:40:12Z</time>
      </trkpt>
      <trkpt lat="44.09823" lon="1.09246">
        <ele>90.4</ele>
        <time>2023-07-06T11:40:14Z</time>
      </trkpt>
      <trkpt lat="44.0982" lon="1.09247">
        <ele>90.4</ele>
        <time>2023-07-06T11:40:17Z</time>
      </trkpt>
      <trkpt lat="44.0981" lon="1.09256">
        <ele>90.4</ele>
        <time>2023-07-06T11:40:25Z</time>
      </trkpt>
      <trkpt lat="44.09808" lon="1.09258">
        <ele>90.6</ele>
        <time>2023-07-06T11:40:27Z</time>
      </trkpt>
      <trkpt lat="44.09803" lon="1.09259">
        <ele>90.6</ele>
        <time>2023-07-06T11:40:32Z</time>
      </trkpt>
      <trkpt lat="44.09794" lon="1.09268">
        <ele>90.4</ele>
        <time>2023-07-06T11:40:40Z</time>
      </trkpt>
      <trkpt lat="44.09793" lon="1.09269">
        <ele>90.4</ele>
        <time>2023-07-06T11:40:41Z</time>
      </trkpt>
      <trkpt lat="44.09789" lon="1.09274">
        <ele>90.4</ele>
        <time>2023-07-06T11:40:45Z</time>
      </trkpt>
      <trkpt lat="44.09783" lon="1.09279">
        <ele>90.4</ele>
        <time>2023-07-06T11:40:51Z</time>
      </trkpt>
      <trkpt lat="44.09772" lon="1.09286">
        <ele>90.6</ele>
        <time>2023-07-06T11:41:00Z</time>
      </trkpt>
      <trkpt lat="44.09766" lon="1.09289">
        <ele>90.8</ele>
        <time>2023-07-06T11:41:05Z</time>
      </trkpt>
      <trkpt lat="44.09762" lon="1.09292">
        <ele>90.6</ele>
        <time>2023-07-06T11:41:08Z</time>
      </trkpt>
      <trkpt lat="44.0976" lon="1.09295">
        <ele>90.4</ele>
        <time>2023-07-06T11:41:10Z</time>
      </trkpt>
      <trkpt lat="44.09755" lon="1.09297">
        <ele>90.4</ele>
        <time>2023-07-06T11:41:14Z</time>
      </trkpt>
      <trkpt lat="44.09754" lon="1.09297">
        <ele>90.6</ele>
        <time>2023-07-06T11:41:15Z</time>
      </trkpt>
      <trkpt lat="44.09753" lon="1.09297">
        <ele>90.6</ele>
        <time>2023-07-06T11:41:16Z</time>
      </trkpt>
      <trkpt lat="44.09749" lon="1.09301">
        <ele>90.8</ele>
        <time>2023-07-06T11:41:19Z</time>
      </trkpt>
      <trkpt lat="44.09748" lon="1.09304">
        <ele>90.6</ele>
        <time>2023-07-06T11:41:21Z</time>
      </trkpt>
      <trkpt lat="44.09743" lon="1.09308">
        <ele>90.4</ele>
        <time>2023-07-06T11:41:25Z</time>
      </trkpt>
      <trkpt lat="44.09732" lon="1.09312">
        <ele>90</ele>
        <time>2023-07-06T11:41:34Z</time>
      </trkpt>
      <trkpt lat="44.09724" lon="1.09315">
        <ele>90</ele>
        <time>2023-07-06T11:41:41Z</time>
      </trkpt>
      <trkpt lat="44.09723" lon="1.09316">
        <ele>89.8</ele>
        <time>2023-07-06T11:41:42Z</time>
      </trkpt>
      <trkpt lat="44.0972" lon="1.09319">
        <ele>89.4</ele>
        <time>2023-07-06T11:41:45Z</time>
      </trkpt>
      <trkpt lat="44.09719" lon="1.0932">
        <ele>89.4</ele>
        <time>2023-07-06T11:41:46Z</time>
      </trkpt>
      <trkpt lat="44.09714" lon="1.09323">
        <ele>89.6</ele>
        <time>2023-07-06T11:41:50Z</time>
      </trkpt>
      <trkpt lat="44.09706" lon="1.09332">
        <ele>89.8</ele>
        <time>2023-07-06T11:41:58Z</time>
      </trkpt>
      <trkpt lat="44.09699" lon="1.09339">
        <ele>89.8</ele>
        <time>2023-07-06T11:42:04Z</time>
      </trkpt>
      <trkpt lat="44.09697" lon="1.09341">
        <ele>89.6</ele>
        <time>2023-07-06T11:42:06Z</time>
      </trkpt>
      <trkpt lat="44.09695" lon="1.09343">
        <ele>89.6</ele>
        <time>2023-07-06T11:42:08Z</time>
      </trkpt>
      <trkpt lat="44.09691" lon="1.09346">
        <ele>89.6</ele>
        <time>2023-07-06T11:42:11Z</time>
      </trkpt>
      <trkpt lat="44.09686" lon="1.0935">
        <ele>89.4</ele>
        <time>2023-07-06T11:42:15Z</time>
      </trkpt>
      <trkpt lat="44.09678" lon="1.09355">
        <ele>89.4</ele>
        <time>2023-07-06T11:42:21Z</time>
      </trkpt>
      <trkpt lat="44.09675" lon="1.09357">
        <ele>89.4</ele>
        <time>2023-07-06T11:42:23Z</time>
      </trkpt>
      <trkpt lat="44.09668" lon="1.09362">
        <ele>89.6</ele>
        <time>2023-07-06T11:42:30Z</time>
      </trkpt>
      <trkpt lat="44.09662" lon="1.09369">
        <ele>89.4</ele>
        <time>2023-07-06T11:42:36Z</time>
      </trkpt>
      <trkpt lat="44.09654" lon="1.09376">
        <ele>89.4</ele>
        <time>2023-07-06T11:42:45Z</time>
      </trkpt>
      <trkpt lat="44.09649" lon="1.09382">
        <ele>89.4</ele>
        <time>2023-07-06T11:42:51Z</time>
      </trkpt>
      <trkpt lat="44.09646" lon="1.09384">
        <ele>89.6</ele>
        <time>2023-07-06T11:42:54Z</time>
      </trkpt>
      <trkpt lat="44.09644" lon="1.09385">
        <ele>89.6</ele>
        <time>2023-07-06T11:42:55Z</time>
      </trkpt>
      <trkpt lat="44.09643" lon="1.09386">
        <ele>89.8</ele>
        <time>2023-07-06T11:42:56Z</time>
      </trkpt>
      <trkpt lat="44.09641" lon="1.09387">
        <ele>90</ele>
        <time>2023-07-06T11:42:58Z</time>
      </trkpt>
      <trkpt lat="44.09638" lon="1.09389">
        <ele>90</ele>
        <time>2023-07-06T11:43:00Z</time>
      </trkpt>
      <trkpt lat="44.09637" lon="1.0939">
        <ele>90</ele>
        <time>2023-07-06T11:43:01Z</time>
      </trkpt>
      <trkpt lat="44.09635" lon="1.09392">
        <ele>89.8</ele>
        <time>2023-07-06T11:43:03Z</time>
      </trkpt>
      <trkpt lat="44.09633" lon="1.09392">
        <ele>89.8</ele>
        <time>2023-07-06T11:43:04Z</time>
      </trkpt>
      <trkpt lat="44.09629" lon="1.09396">
        <ele>89.6</ele>
        <time>2023-07-06T11:43:08Z</time>
      </trkpt>
      <trkpt lat="44.09626" lon="1.09397">
        <ele>89.6</ele>
        <time>2023-07-06T11:43:10Z</time>
      </trkpt>
      <trkpt lat="44.0962" lon="1.094">
        <ele>89.8</ele>
        <time>2023-07-06T11:43:16Z</time>
      </trkpt>
      <trkpt lat="44.09616" lon="1.09402">
        <ele>89.8</ele>
        <time>2023-07-06T11:43:19Z</time>
      </trkpt>
      <trkpt lat="44.09611" lon="1.09406">
        <ele>89.6</ele>
        <time>2023-07-06T11:43:23Z</time>
      </trkpt>
      <trkpt lat="44.09609" lon="1.09409">
        <ele>89.6</ele>
        <time>2023-07-06T11:43:25Z</time>
      </trkpt>
      <trkpt lat="44.09606" lon="1.09412">
        <ele>89.6</ele>
        <time>2023-07-06T11:43:28Z</time>
      </trkpt>
      <trkpt lat="44.096" lon="1.09417">
        <ele>89.8</ele>
        <time>2023-07-06T11:43:33Z</time>
      </trkpt>
      <trkpt lat="44.09598" lon="1.09419">
        <ele>89.8</ele>
        <time>2023-07-06T11:43:35Z</time>
      </trkpt>
      <trkpt lat="44.09592" lon="1.09426">
        <ele>89.6</ele>
        <time>2023-07-06T11:43:42Z</time>
      </trkpt>
      <trkpt lat="44.0959" lon="1.09428">
        <ele>89.6</ele>
        <time>2023-07-06T11:43:44Z</time>
      </trkpt>
      <trkpt lat="44.09584" lon="1.09433">
        <ele>90.4</ele>
        <time>2023-07-06T11:43:51Z</time>
      </trkpt>
      <trkpt lat="44.09583" lon="1.09436">
        <ele>90.4</ele>
        <time>2023-07-06T11:43:53Z</time>
      </trkpt>
      <trkpt lat="44.09582" lon="1.09437">
        <ele>90.4</ele>
        <time>2023-07-06T11:43:54Z</time>
      </trkpt>
      <trkpt lat="44.09572" lon="1.09447">
        <ele>89.8</ele>
        <time>2023-07-06T11:44:03Z</time>
      </trkpt>
      <trkpt lat="44.09568" lon="1.0945">
        <ele>89.4</ele>
        <time>2023-07-06T11:44:06Z</time>
      </trkpt>
      <trkpt lat="44.09563" lon="1.09455">
        <ele>89.4</ele>
        <time>2023-07-06T11:44:11Z</time>
      </trkpt>
      <trkpt lat="44.09561" lon="1.09457">
        <ele>89.6</ele>
        <time>2023-07-06T11:44:14Z</time>
      </trkpt>
      <trkpt lat="44.09558" lon="1.09461">
        <ele>90</ele>
        <time>2023-07-06T11:44:17Z</time>
      </trkpt>
      <trkpt lat="44.09555" lon="1.09465">
        <ele>90.2</ele>
        <time>2023-07-06T11:44:21Z</time>
      </trkpt>
      <trkpt lat="44.09546" lon="1.09474">
        <ele>90</ele>
        <time>2023-07-06T11:44:30Z</time>
      </trkpt>
      <trkpt lat="44.09545" lon="1.09476">
        <ele>90</ele>
        <time>2023-07-06T11:44:31Z</time>
      </trkpt>
      <trkpt lat="44.09541" lon="1.09481">
        <ele>89.8</ele>
        <time>2023-07-06T11:44:35Z</time>
      </trkpt>
      <trkpt lat="44.0954" lon="1.09483">
        <ele>89.8</ele>
        <time>2023-07-06T11:44:36Z</time>
      </trkpt>
      <trkpt lat="44.09537" lon="1.09487">
        <ele>90</ele>
        <time>2023-07-06T11:44:39Z</time>
      </trkpt>
      <trkpt lat="44.09527" lon="1.09499">
        <ele>89.6</ele>
        <time>2023-07-06T11:44:49Z</time>
      </trkpt>
      <trkpt lat="44.09523" lon="1.09505">
        <ele>89.6</ele>
        <time>2023-07-06T11:44:54Z</time>
      </trkpt>
      <trkpt lat="44.09521" lon="1.09509">
        <ele>89.6</ele>
        <time>2023-07-06T11:44:57Z</time>
      </trkpt>
      <trkpt lat="44.09516" lon="1.09517">
        <ele>89.6</ele>
        <time>2023-07-06T11:45:03Z</time>
      </trkpt>
      <trkpt lat="44.09513" lon="1.0952">
        <ele>89.8</ele>
        <time>2023-07-06T11:45:06Z</time>
      </trkpt>
      <trkpt lat="44.09509" lon="1.09524">
        <ele>90.2</ele>
        <time>2023-07-06T11:45:10Z</time>
      </trkpt>
      <trkpt lat="44.09508" lon="1.09525">
        <ele>90.2</ele>
        <time>2023-07-06T11:45:11Z</time>
      </trkpt>
      <trkpt lat="44.09506" lon="1.09527">
        <ele>90.2</ele>
        <time>2023-07-06T11:45:13Z</time>
      </trkpt>
      <trkpt lat="44.09498" lon="1.09537">
        <ele>90</ele>
        <time>2023-07-06T11:45:22Z</time>
      </trkpt>
      <trkpt lat="44.09495" lon="1.09542">
        <ele>90</ele>
        <time>2023-07-06T11:45:26Z</time>
      </trkpt>
      <trkpt lat="44.09493" lon="1.09545">
        <ele>90</ele>
        <time>2023-07-06T11:45:28Z</time>
      </trkpt>
      <trkpt lat="44.09489" lon="1.09556">
        <ele>89.8</ele>
        <time>2023-07-06T11:45:35Z</time>
      </trkpt>
      <trkpt lat="44.09488" lon="1.09558">
        <ele>90</ele>
        <time>2023-07-06T11:45:36Z</time>
      </trkpt>
      <trkpt lat="44.09484" lon="1.09572">
        <ele>90.4</ele>
        <time>2023-07-06T11:45:45Z</time>
      </trkpt>
      <trkpt lat="44.09478" lon="1.09587">
        <ele>90</ele>
        <time>2023-07-06T11:45:54Z</time>
      </trkpt>
      <trkpt lat="44.09474" lon="1.0959">
        <ele>90.2</ele>
        <time>2023-07-06T11:45:57Z</time>
      </trkpt>
      <trkpt lat="44.09473" lon="1.09591">
        <ele>90.2</ele>
        <time>2023-07-06T11:45:58Z</time>
      </trkpt>
      <trkpt lat="44.0947" lon="1.09593">
        <ele>90.2</ele>
        <time>2023-07-06T11:46:00Z</time>
      </trkpt>
      <trkpt lat="44.09469" lon="1.09596">
        <ele>90.2</ele>
        <time>2023-07-06T11:46:02Z</time>
      </trkpt>
      <trkpt lat="44.09464" lon="1.09602">
        <ele>90.4</ele>
        <time>2023-07-06T11:46:07Z</time>
      </trkpt>
      <trkpt lat="44.09459" lon="1.09616">
        <ele>90.4</ele>
        <time>2023-07-06T11:46:16Z</time>
      </trkpt>
      <trkpt lat="44.09458" lon="1.0962">
        <ele>90.6</ele>
        <time>2023-07-06T11:46:19Z</time>
      </trkpt>
      <trkpt lat="44.09454" lon="1.09629">
        <ele>90.2</ele>
        <time>2023-07-06T11:46:25Z</time>
      </trkpt>
      <trkpt lat="44.09448" lon="1.0964">
        <ele>90.8</ele>
        <time>2023-07-06T11:46:32Z</time>
      </trkpt>
      <trkpt lat="44.09448" lon="1.09641">
        <ele>90.8</ele>
        <time>2023-07-06T11:46:33Z</time>
      </trkpt>
      <trkpt lat="44.09447" lon="1.09645">
        <ele>91</ele>
        <time>2023-07-06T11:46:36Z</time>
      </trkpt>
      <trkpt lat="44.09444" lon="1.09653">
        <ele>90.6</ele>
        <time>2023-07-06T11:46:41Z</time>
      </trkpt>
      <trkpt lat="44.0944" lon="1.09663">
        <ele>90.8</ele>
        <time>2023-07-06T11:46:48Z</time>
      </trkpt>
      <trkpt lat="44.09437" lon="1.09669">
        <ele>91</ele>
        <time>2023-07-06T11:46:52Z</time>
      </trkpt>
      <trkpt lat="44.09435" lon="1.09672">
        <ele>91</ele>
        <time>2023-07-06T11:46:54Z</time>
      </trkpt>
      <trkpt lat="44.09432" lon="1.09678">
        <ele>90.8</ele>
        <time>2023-07-06T11:46:58Z</time>
      </trkpt>
      <trkpt lat="44.09429" lon="1.09685">
        <ele>90.8</ele>
        <time>2023-07-06T11:47:02Z</time>
      </trkpt>
      <trkpt lat="44.09428" lon="1.09688">
        <ele>91</ele>
        <time>2023-07-06T11:47:04Z</time>
      </trkpt>
      <trkpt lat="44.09426" lon="1.09693">
        <ele>91</ele>
        <time>2023-07-06T11:47:07Z</time>
      </trkpt>
      <trkpt lat="44.0942" lon="1.09709">
        <ele>90.8</ele>
        <time>2023-07-06T11:47:16Z</time>
      </trkpt>
      <trkpt lat="44.09416" lon="1.09722">
        <ele>90.8</ele>
        <time>2023-07-06T11:47:24Z</time>
      </trkpt>
      <trkpt lat="44.09412" lon="1.09736">
        <ele>91</ele>
        <time>2023-07-06T11:47:32Z</time>
      </trkpt>
      <trkpt lat="44.0941" lon="1.09741">
        <ele>90.8</ele>
        <time>2023-07-06T11:47:35Z</time>
      </trkpt>
      <trkpt lat="44.09409" lon="1.09746">
        <ele>90.6</ele>
        <time>2023-07-06T11:47:38Z</time>
      </trkpt>
      <trkpt lat="44.09409" lon="1.09748">
        <ele>90.6</ele>
        <time>2023-07-06T11:47:39Z</time>
      </trkpt>
      <trkpt lat="44.09408" lon="1.0975">
        <ele>90.6</ele>
        <time>2023-07-06T11:47:41Z</time>
      </trkpt>
      <trkpt lat="44.09407" lon="1.09753">
        <ele>90.8</ele>
        <time>2023-07-06T11:47:43Z</time>
      </trkpt>
      <trkpt lat="44.09407" lon="1.09755">
        <ele>90.8</ele>
        <time>2023-07-06T11:47:44Z</time>
      </trkpt>
      <trkpt lat="44.09406" lon="1.09761">
        <ele>91</ele>
        <time>2023-07-06T11:47:47Z</time>
      </trkpt>
      <trkpt lat="44.09404" lon="1.09777">
        <ele>91</ele>
        <time>2023-07-06T11:47:56Z</time>
      </trkpt>
      <trkpt lat="44.09401" lon="1.09793">
        <ele>91</ele>
        <time>2023-07-06T11:48:05Z</time>
      </trkpt>
      <trkpt lat="44.09397" lon="1.09806">
        <ele>90.8</ele>
        <time>2023-07-06T11:48:13Z</time>
      </trkpt>
      <trkpt lat="44.09392" lon="1.09822">
        <ele>91</ele>
        <time>2023-07-06T11:48:23Z</time>
      </trkpt>
      <trkpt lat="44.09389" lon="1.09836">
        <ele>91.2</ele>
        <time>2023-07-06T11:48:31Z</time>
      </trkpt>
      <trkpt lat="44.09387" lon="1.09849">
        <ele>91.2</ele>
        <time>2023-07-06T11:48:38Z</time>
      </trkpt>
      <trkpt lat="44.09384" lon="1.09863">
        <ele>90.8</ele>
        <time>2023-07-06T11:48:46Z</time>
      </trkpt>
      <trkpt lat="44.09384" lon="1.09864">
        <ele>91.2</ele>
        <time>2023-07-06T11:48:47Z</time>
      </trkpt>
      <trkpt lat="44.09385" lon="1.09868">
        <ele>91.2</ele>
        <time>2023-07-06T11:48:49Z</time>
      </trkpt>
      <trkpt lat="44.09385" lon="1.0987">
        <ele>91.4</ele>
        <time>2023-07-06T11:48:50Z</time>
      </trkpt>
      <trkpt lat="44.09385" lon="1.09878">
        <ele>91</ele>
        <time>2023-07-06T11:48:55Z</time>
      </trkpt>
      <trkpt lat="44.09385" lon="1.09884">
        <ele>91</ele>
        <time>2023-07-06T11:48:59Z</time>
      </trkpt>
      <trkpt lat="44.09384" lon="1.09891">
        <ele>91.2</ele>
        <time>2023-07-06T11:49:03Z</time>
      </trkpt>
      <trkpt lat="44.09382" lon="1.09898">
        <ele>91.2</ele>
        <time>2023-07-06T11:49:07Z</time>
      </trkpt>
      <trkpt lat="44.09381" lon="1.09906">
        <ele>91.4</ele>
        <time>2023-07-06T11:49:12Z</time>
      </trkpt>
      <trkpt lat="44.09377" lon="1.09919">
        <ele>91.6</ele>
        <time>2023-07-06T11:49:20Z</time>
      </trkpt>
      <trkpt lat="44.09376" lon="1.09934">
        <ele>91.6</ele>
        <time>2023-07-06T11:49:29Z</time>
      </trkpt>
      <trkpt lat="44.09375" lon="1.09949">
        <ele>91.8</ele>
        <time>2023-07-06T11:49:38Z</time>
      </trkpt>
      <trkpt lat="44.09374" lon="1.09956">
        <ele>91.6</ele>
        <time>2023-07-06T11:49:42Z</time>
      </trkpt>
      <trkpt lat="44.09374" lon="1.09957">
        <ele>91.6</ele>
        <time>2023-07-06T11:49:43Z</time>
      </trkpt>
      <trkpt lat="44.09374" lon="1.09965">
        <ele>91.6</ele>
        <time>2023-07-06T11:49:48Z</time>
      </trkpt>
      <trkpt lat="44.09372" lon="1.09981">
        <ele>91.8</ele>
        <time>2023-07-06T11:49:58Z</time>
      </trkpt>
      <trkpt lat="44.09371" lon="1.09995">
        <ele>92</ele>
        <time>2023-07-06T11:50:05Z</time>
      </trkpt>
      <trkpt lat="44.09368" lon="1.10004">
        <ele>92.2</ele>
        <time>2023-07-06T11:50:11Z</time>
      </trkpt>
      <trkpt lat="44.09368" lon="1.10008">
        <ele>92.2</ele>
        <time>2023-07-06T11:50:13Z</time>
      </trkpt>
      <trkpt lat="44.09367" lon="1.10011">
        <ele>92.4</ele>
        <time>2023-07-06T11:50:15Z</time>
      </trkpt>
      <trkpt lat="44.09366" lon="1.10017">
        <ele>92.4</ele>
        <time>2023-07-06T11:50:18Z</time>
      </trkpt>
      <trkpt lat="44.09365" lon="1.10021">
        <ele>92</ele>
        <time>2023-07-06T11:50:20Z</time>
      </trkpt>
      <trkpt lat="44.09365" lon="1.10026">
        <ele>92</ele>
        <time>2023-07-06T11:50:23Z</time>
      </trkpt>
      <trkpt lat="44.09363" lon="1.1004">
        <ele>92</ele>
        <time>2023-07-06T11:50:31Z</time>
      </trkpt>
      <trkpt lat="44.09361" lon="1.10055">
        <ele>92</ele>
        <time>2023-07-06T11:50:40Z</time>
      </trkpt>
      <trkpt lat="44.09361" lon="1.10057">
        <ele>92</ele>
        <time>2023-07-06T11:50:41Z</time>
      </trkpt>
      <trkpt lat="44.09359" lon="1.10061">
        <ele>92</ele>
        <time>2023-07-06T11:50:43Z</time>
      </trkpt>
      <trkpt lat="44.09359" lon="1.10067">
        <ele>92</ele>
        <time>2023-07-06T11:50:46Z</time>
      </trkpt>
      <trkpt lat="44.09359" lon="1.1007">
        <ele>92.2</ele>
        <time>2023-07-06T11:50:48Z</time>
      </trkpt>
      <trkpt lat="44.09359" lon="1.10072">
        <ele>92.2</ele>
        <time>2023-07-06T11:50:49Z</time>
      </trkpt>
      <trkpt lat="44.09358" lon="1.10076">
        <ele>92.2</ele>
        <time>2023-07-06T11:50:51Z</time>
      </trkpt>
      <trkpt lat="44.09358" lon="1.10081">
        <ele>92.2</ele>
        <time>2023-07-06T11:50:54Z</time>
      </trkpt>
      <trkpt lat="44.09357" lon="1.10084">
        <ele>92.2</ele>
        <time>2023-07-06T11:50:56Z</time>
      </trkpt>
      <trkpt lat="44.09357" lon="1.10086">
        <ele>92</ele>
        <time>2023-07-06T11:50:57Z</time>
      </trkpt>
      <trkpt lat="44.09355" lon="1.10102">
        <ele>92.2</ele>
        <time>2023-07-06T11:51:06Z</time>
      </trkpt>
      <trkpt lat="44.09353" lon="1.10115">
        <ele>92.6</ele>
        <time>2023-07-06T11:51:14Z</time>
      </trkpt>
      <trkpt lat="44.09353" lon="1.10119">
        <ele>92.6</ele>
        <time>2023-07-06T11:51:16Z</time>
      </trkpt>
      <trkpt lat="44.09352" lon="1.10125">
        <ele>92.4</ele>
        <time>2023-07-06T11:51:20Z</time>
      </trkpt>
      <trkpt lat="44.09351" lon="1.10136">
        <ele>92.4</ele>
        <time>2023-07-06T11:51:26Z</time>
      </trkpt>
      <trkpt lat="44.09349" lon="1.1015">
        <ele>92.6</ele>
        <time>2023-07-06T11:51:34Z</time>
      </trkpt>
      <trkpt lat="44.09348" lon="1.10164">
        <ele>92.6</ele>
        <time>2023-07-06T11:51:42Z</time>
      </trkpt>
      <trkpt lat="44.09348" lon="1.10166">
        <ele>92.6</ele>
        <time>2023-07-06T11:51:43Z</time>
      </trkpt>
      <trkpt lat="44.09347" lon="1.10168">
        <ele>92.6</ele>
        <time>2023-07-06T11:51:44Z</time>
      </trkpt>
      <trkpt lat="44.09346" lon="1.10177">
        <ele>92.8</ele>
        <time>2023-07-06T11:51:49Z</time>
      </trkpt>
      <trkpt lat="44.09345" lon="1.10189">
        <ele>92.8</ele>
        <time>2023-07-06T11:51:57Z</time>
      </trkpt>
      <trkpt lat="44.09345" lon="1.10198">
        <ele>92.8</ele>
        <time>2023-07-06T11:52:03Z</time>
      </trkpt>
      <trkpt lat="44.09344" lon="1.102">
        <ele>92.8</ele>
        <time>2023-07-06T11:52:04Z</time>
      </trkpt>
      <trkpt lat="44.09343" lon="1.10212">
        <ele>92.8</ele>
        <time>2023-07-06T11:52:11Z</time>
      </trkpt>
      <trkpt lat="44.09342" lon="1.10214">
        <ele>93</ele>
        <time>2023-07-06T11:52:13Z</time>
      </trkpt>
      <trkpt lat="44.09341" lon="1.10219">
        <ele>93.2</ele>
        <time>2023-07-06T11:52:16Z</time>
      </trkpt>
      <trkpt lat="44.0934" lon="1.10222">
        <ele>93.2</ele>
        <time>2023-07-06T11:52:18Z</time>
      </trkpt>
      <trkpt lat="44.09341" lon="1.10227">
        <ele>93</ele>
        <time>2023-07-06T11:52:22Z</time>
      </trkpt>
      <trkpt lat="44.09342" lon="1.1023">
        <ele>93</ele>
        <time>2023-07-06T11:52:24Z</time>
      </trkpt>
      <trkpt lat="44.09341" lon="1.10237">
        <ele>92.8</ele>
        <time>2023-07-06T11:52:28Z</time>
      </trkpt>
      <trkpt lat="44.09339" lon="1.10244">
        <ele>92.8</ele>
        <time>2023-07-06T11:52:31Z</time>
      </trkpt>
      <trkpt lat="44.09339" lon="1.1025">
        <ele>92.8</ele>
        <time>2023-07-06T11:52:34Z</time>
      </trkpt>
      <trkpt lat="44.09339" lon="1.10252">
        <ele>92.8</ele>
        <time>2023-07-06T11:52:35Z</time>
      </trkpt>
      <trkpt lat="44.09339" lon="1.10254">
        <ele>92.8</ele>
        <time>2023-07-06T11:52:36Z</time>
      </trkpt>
      <trkpt lat="44.09338" lon="1.10258">
        <ele>92.8</ele>
        <time>2023-07-06T11:52:37Z</time>
      </trkpt>
      <trkpt lat="44.09338" lon="1.10261">
        <ele>92.6</ele>
        <time>2023-07-06T11:52:38Z</time>
      </trkpt>
      <trkpt lat="44.09338" lon="1.10264">
        <ele>92.4</ele>
        <time>2023-07-06T11:52:39Z</time>
      </trkpt>
      <trkpt lat="44.09337" lon="1.10268">
        <ele>92.2</ele>
        <time>2023-07-06T11:52:41Z</time>
      </trkpt>
      <trkpt lat="44.09335" lon="1.10274">
        <ele>92</ele>
        <time>2023-07-06T11:52:45Z</time>
      </trkpt>
      <trkpt lat="44.09334" lon="1.10278">
        <ele>92</ele>
        <time>2023-07-06T11:52:47Z</time>
      </trkpt>
      <trkpt lat="44.09332" lon="1.10285">
        <ele>92</ele>
        <time>2023-07-06T11:52:55Z</time>
      </trkpt>
      <trkpt lat="44.09317" lon="1.10311">
        <ele>92</ele>
        <time>2023-07-06T11:53:01Z</time>
      </trkpt>
      <trkpt lat="44.09316" lon="1.10315">
        <ele>92</ele>
        <time>2023-07-06T11:53:02Z</time>
      </trkpt>
      <trkpt lat="44.09326" lon="1.10324">
        <ele>92.2</ele>
        <time>2023-07-06T11:53:06Z</time>
      </trkpt>
      <trkpt lat="44.09323" lon="1.10322">
        <ele>92.2</ele>
        <time>2023-07-06T11:53:07Z</time>
      </trkpt>
      <trkpt lat="44.09323" lon="1.10329">
        <ele>92.4</ele>
        <time>2023-07-06T11:53:10Z</time>
      </trkpt>
      <trkpt lat="44.09324" lon="1.10334">
        <ele>92.4</ele>
        <time>2023-07-06T11:53:13Z</time>
      </trkpt>
      <trkpt lat="44.09324" lon="1.10334">
        <ele>92.4</ele>
        <time>2023-07-06T11:53:14Z</time>
      </trkpt>
      <trkpt lat="44.09325" lon="1.10343">
        <ele>93</ele>
        <time>2023-07-06T11:53:22Z</time>
      </trkpt>
      <trkpt lat="44.09324" lon="1.10343">
        <ele>93</ele>
        <time>2023-07-06T11:53:23Z</time>
      </trkpt>
      <trkpt lat="44.09325" lon="1.10345">
        <ele>93</ele>
        <time>2023-07-06T11:53:26Z</time>
      </trkpt>
      <trkpt lat="44.09325" lon="1.10347">
        <ele>93</ele>
        <time>2023-07-06T11:53:27Z</time>
      </trkpt>
      <trkpt lat="44.09325" lon="1.10349">
        <ele>93</ele>
        <time>2023-07-06T11:53:29Z</time>
      </trkpt>
      <trkpt lat="44.09325" lon="1.10356">
        <ele>93.2</ele>
        <time>2023-07-06T11:53:34Z</time>
      </trkpt>
      <trkpt lat="44.09324" lon="1.10357">
        <ele>93.4</ele>
        <time>2023-07-06T11:53:35Z</time>
      </trkpt>
      <trkpt lat="44.09323" lon="1.10367">
        <ele>93.6</ele>
        <time>2023-07-06T11:53:42Z</time>
      </trkpt>
      <trkpt lat="44.09322" lon="1.1037">
        <ele>93.6</ele>
        <time>2023-07-06T11:53:44Z</time>
      </trkpt>
      <trkpt lat="44.09322" lon="1.10383">
        <ele>93.8</ele>
        <time>2023-07-06T11:53:51Z</time>
      </trkpt>
      <trkpt lat="44.0932" lon="1.10392">
        <ele>93.6</ele>
        <time>2023-07-06T11:53:56Z</time>
      </trkpt>
      <trkpt lat="44.09319" lon="1.10397">
        <ele>93.6</ele>
        <time>2023-07-06T11:53:59Z</time>
      </trkpt>
      <trkpt lat="44.09318" lon="1.10398">
        <ele>93.6</ele>
        <time>2023-07-06T11:54:00Z</time>
      </trkpt>
      <trkpt lat="44.09317" lon="1.1041">
        <ele>93.6</ele>
        <time>2023-07-06T11:54:06Z</time>
      </trkpt>
      <trkpt lat="44.09314" lon="1.10417">
        <ele>93.4</ele>
        <time>2023-07-06T11:54:10Z</time>
      </trkpt>
      <trkpt lat="44.09313" lon="1.10426">
        <ele>93.4</ele>
        <time>2023-07-06T11:54:15Z</time>
      </trkpt>
      <trkpt lat="44.09312" lon="1.10428">
        <ele>93.4</ele>
        <time>2023-07-06T11:54:16Z</time>
      </trkpt>
      <trkpt lat="44.0931" lon="1.10441">
        <ele>93.6</ele>
        <time>2023-07-06T11:54:24Z</time>
      </trkpt>
      <trkpt lat="44.09309" lon="1.10451">
        <ele>93.6</ele>
        <time>2023-07-06T11:54:30Z</time>
      </trkpt>
      <trkpt lat="44.09308" lon="1.10457">
        <ele>93.6</ele>
        <time>2023-07-06T11:54:33Z</time>
      </trkpt>
      <trkpt lat="44.09308" lon="1.10458">
        <ele>93.6</ele>
        <time>2023-07-06T11:54:34Z</time>
      </trkpt>
      <trkpt lat="44.09307" lon="1.10465">
        <ele>93.2</ele>
        <time>2023-07-06T11:54:38Z</time>
      </trkpt>
      <trkpt lat="44.09306" lon="1.10472">
        <ele>93.4</ele>
        <time>2023-07-06T11:54:42Z</time>
      </trkpt>
      <trkpt lat="44.09304" lon="1.10478">
        <ele>93.2</ele>
        <time>2023-07-06T11:54:46Z</time>
      </trkpt>
      <trkpt lat="44.09303" lon="1.10487">
        <ele>93.4</ele>
        <time>2023-07-06T11:54:51Z</time>
      </trkpt>
      <trkpt lat="44.09301" lon="1.10499">
        <ele>93</ele>
        <time>2023-07-06T11:54:58Z</time>
      </trkpt>
      <trkpt lat="44.09297" lon="1.10509">
        <ele>92.8</ele>
        <time>2023-07-06T11:55:05Z</time>
      </trkpt>
      <trkpt lat="44.09293" lon="1.10516">
        <ele>92.8</ele>
        <time>2023-07-06T11:55:10Z</time>
      </trkpt>
      <trkpt lat="44.0929" lon="1.10522">
        <ele>92.6</ele>
        <time>2023-07-06T11:55:14Z</time>
      </trkpt>
      <trkpt lat="44.0929" lon="1.10523">
        <ele>92.6</ele>
        <time>2023-07-06T11:55:15Z</time>
      </trkpt>
      <trkpt lat="44.09287" lon="1.10528">
        <ele>92.4</ele>
        <time>2023-07-06T11:55:19Z</time>
      </trkpt>
      <trkpt lat="44.09285" lon="1.10532">
        <ele>92.2</ele>
        <time>2023-07-06T11:55:22Z</time>
      </trkpt>
      <trkpt lat="44.09285" lon="1.10536">
        <ele>92.2</ele>
        <time>2023-07-06T11:55:25Z</time>
      </trkpt>
      <trkpt lat="44.09286" lon="1.10538">
        <ele>92.2</ele>
        <time>2023-07-06T11:55:26Z</time>
      </trkpt>
      <trkpt lat="44.09286" lon="1.10542">
        <ele>92.4</ele>
        <time>2023-07-06T11:55:28Z</time>
      </trkpt>
      <trkpt lat="44.09286" lon="1.10545">
        <ele>92.4</ele>
        <time>2023-07-06T11:55:30Z</time>
      </trkpt>
      <trkpt lat="44.09286" lon="1.10547">
        <ele>92.4</ele>
        <time>2023-07-06T11:55:31Z</time>
      </trkpt>
      <trkpt lat="44.09289" lon="1.10561">
        <ele>92.4</ele>
        <time>2023-07-06T11:55:37Z</time>
      </trkpt>
      <trkpt lat="44.0929" lon="1.10566">
        <ele>92.4</ele>
        <time>2023-07-06T11:55:39Z</time>
      </trkpt>
      <trkpt lat="44.0929" lon="1.10568">
        <ele>92.4</ele>
        <time>2023-07-06T11:55:40Z</time>
      </trkpt>
      <trkpt lat="44.0929" lon="1.1058">
        <ele>93</ele>
        <time>2023-07-06T11:55:47Z</time>
      </trkpt>
      <trkpt lat="44.09291" lon="1.1059">
        <ele>93.4</ele>
        <time>2023-07-06T11:55:54Z</time>
      </trkpt>
      <trkpt lat="44.09291" lon="1.10594">
        <ele>93.4</ele>
        <time>2023-07-06T11:55:56Z</time>
      </trkpt>
      <trkpt lat="44.09291" lon="1.10595">
        <ele>93.4</ele>
        <time>2023-07-06T11:55:57Z</time>
      </trkpt>
      <trkpt lat="44.09291" lon="1.106">
        <ele>93.6</ele>
        <time>2023-07-06T11:56:00Z</time>
      </trkpt>
      <trkpt lat="44.0929" lon="1.10612">
        <ele>94.2</ele>
        <time>2023-07-06T11:56:06Z</time>
      </trkpt>
      <trkpt lat="44.09289" lon="1.10626">
        <ele>94.2</ele>
        <time>2023-07-06T11:56:14Z</time>
      </trkpt>
      <trkpt lat="44.09289" lon="1.1063">
        <ele>94.6</ele>
        <time>2023-07-06T11:56:16Z</time>
      </trkpt>
      <trkpt lat="44.09288" lon="1.1064">
        <ele>94.6</ele>
        <time>2023-07-06T11:56:22Z</time>
      </trkpt>
      <trkpt lat="44.09287" lon="1.10642">
        <ele>94.6</ele>
        <time>2023-07-06T11:56:23Z</time>
      </trkpt>
      <trkpt lat="44.09285" lon="1.10652">
        <ele>94.4</ele>
        <time>2023-07-06T11:56:30Z</time>
      </trkpt>
      <trkpt lat="44.09282" lon="1.10665">
        <ele>94.8</ele>
        <time>2023-07-06T11:56:38Z</time>
      </trkpt>
      <trkpt lat="44.09281" lon="1.10677">
        <ele>94.6</ele>
        <time>2023-07-06T11:56:44Z</time>
      </trkpt>
      <trkpt lat="44.0928" lon="1.1068">
        <ele>94.6</ele>
        <time>2023-07-06T11:56:46Z</time>
      </trkpt>
      <trkpt lat="44.09279" lon="1.10687">
        <ele>94.4</ele>
        <time>2023-07-06T11:56:50Z</time>
      </trkpt>
      <trkpt lat="44.09278" lon="1.10695">
        <ele>94.4</ele>
        <time>2023-07-06T11:56:55Z</time>
      </trkpt>
      <trkpt lat="44.09278" lon="1.10696">
        <ele>94.6</ele>
        <time>2023-07-06T11:56:56Z</time>
      </trkpt>
      <trkpt lat="44.09278" lon="1.10698">
        <ele>94.6</ele>
        <time>2023-07-06T11:56:57Z</time>
      </trkpt>
      <trkpt lat="44.09278" lon="1.10699">
        <ele>94.6</ele>
        <time>2023-07-06T11:56:58Z</time>
      </trkpt>
      <trkpt lat="44.09275" lon="1.10714">
        <ele>94.6</ele>
        <time>2023-07-06T11:57:07Z</time>
      </trkpt>
      <trkpt lat="44.09273" lon="1.10728">
        <ele>94.4</ele>
        <time>2023-07-06T11:57:16Z</time>
      </trkpt>
      <trkpt lat="44.09273" lon="1.10731">
        <ele>94.6</ele>
        <time>2023-07-06T11:57:18Z</time>
      </trkpt>
      <trkpt lat="44.09272" lon="1.10744">
        <ele>94.6</ele>
        <time>2023-07-06T11:57:25Z</time>
      </trkpt>
      <trkpt lat="44.0927" lon="1.10754">
        <ele>94.8</ele>
        <time>2023-07-06T11:57:31Z</time>
      </trkpt>
      <trkpt lat="44.0927" lon="1.10758">
        <ele>94.8</ele>
        <time>2023-07-06T11:57:33Z</time>
      </trkpt>
      <trkpt lat="44.0927" lon="1.1076">
        <ele>94.6</ele>
        <time>2023-07-06T11:57:34Z</time>
      </trkpt>
      <trkpt lat="44.09268" lon="1.10773">
        <ele>94.2</ele>
        <time>2023-07-06T11:57:41Z</time>
      </trkpt>
      <trkpt lat="44.09267" lon="1.10776">
        <ele>94.4</ele>
        <time>2023-07-06T11:57:43Z</time>
      </trkpt>
      <trkpt lat="44.09267" lon="1.10779">
        <ele>94.6</ele>
        <time>2023-07-06T11:57:45Z</time>
      </trkpt>
      <trkpt lat="44.09265" lon="1.10789">
        <ele>94.6</ele>
        <time>2023-07-06T11:57:51Z</time>
      </trkpt>
      <trkpt lat="44.09265" lon="1.10791">
        <ele>94.6</ele>
        <time>2023-07-06T11:57:52Z</time>
      </trkpt>
      <trkpt lat="44.09264" lon="1.10796">
        <ele>94.4</ele>
        <time>2023-07-06T11:57:55Z</time>
      </trkpt>
      <trkpt lat="44.09263" lon="1.10805">
        <ele>94.4</ele>
        <time>2023-07-06T11:58:00Z</time>
      </trkpt>
      <trkpt lat="44.09262" lon="1.10818">
        <ele>94.8</ele>
        <time>2023-07-06T11:58:08Z</time>
      </trkpt>
      <trkpt lat="44.09262" lon="1.10825">
        <ele>94.6</ele>
        <time>2023-07-06T11:58:12Z</time>
      </trkpt>
      <trkpt lat="44.09263" lon="1.10829">
        <ele>94.8</ele>
        <time>2023-07-06T11:58:14Z</time>
      </trkpt>
      <trkpt lat="44.09263" lon="1.10831">
        <ele>94.8</ele>
        <time>2023-07-06T11:58:15Z</time>
      </trkpt>
      <trkpt lat="44.09262" lon="1.10835">
        <ele>94.8</ele>
        <time>2023-07-06T11:58:17Z</time>
      </trkpt>
      <trkpt lat="44.09261" lon="1.10849">
        <ele>94.8</ele>
        <time>2023-07-06T11:58:25Z</time>
      </trkpt>
      <trkpt lat="44.09258" lon="1.10861">
        <ele>95</ele>
        <time>2023-07-06T11:58:32Z</time>
      </trkpt>
      <trkpt lat="44.09258" lon="1.10863">
        <ele>95</ele>
        <time>2023-07-06T11:58:33Z</time>
      </trkpt>
      <trkpt lat="44.09257" lon="1.10877">
        <ele>94.8</ele>
        <time>2023-07-06T11:58:42Z</time>
      </trkpt>
      <trkpt lat="44.09254" lon="1.10889">
        <ele>94.8</ele>
        <time>2023-07-06T11:58:50Z</time>
      </trkpt>
      <trkpt lat="44.09254" lon="1.10893">
        <ele>94.8</ele>
        <time>2023-07-06T11:58:52Z</time>
      </trkpt>
      <trkpt lat="44.09251" lon="1.10901">
        <ele>94.8</ele>
        <time>2023-07-06T11:58:57Z</time>
      </trkpt>
      <trkpt lat="44.09249" lon="1.10918">
        <ele>95</ele>
        <time>2023-07-06T11:59:07Z</time>
      </trkpt>
      <trkpt lat="44.09248" lon="1.10933">
        <ele>95.2</ele>
        <time>2023-07-06T11:59:16Z</time>
      </trkpt>
      <trkpt lat="44.09245" lon="1.10951">
        <ele>95</ele>
        <time>2023-07-06T11:59:26Z</time>
      </trkpt>
      <trkpt lat="44.09245" lon="1.10955">
        <ele>95</ele>
        <time>2023-07-06T11:59:28Z</time>
      </trkpt>
      <trkpt lat="44.09244" lon="1.10964">
        <ele>95.2</ele>
        <time>2023-07-06T11:59:33Z</time>
      </trkpt>
      <trkpt lat="44.09244" lon="1.10966">
        <ele>95</ele>
        <time>2023-07-06T11:59:34Z</time>
      </trkpt>
      <trkpt lat="44.09243" lon="1.10974">
        <ele>95</ele>
        <time>2023-07-06T11:59:39Z</time>
      </trkpt>
      <trkpt lat="44.09243" lon="1.10976">
        <ele>95</ele>
        <time>2023-07-06T11:59:40Z</time>
      </trkpt>
      <trkpt lat="44.09242" lon="1.1099">
        <ele>95</ele>
        <time>2023-07-06T11:59:48Z</time>
      </trkpt>
      <trkpt lat="44.09239" lon="1.11009">
        <ele>95</ele>
        <time>2023-07-06T11:59:59Z</time>
      </trkpt>
      <trkpt lat="44.09235" lon="1.11026">
        <ele>95.2</ele>
        <time>2023-07-06T12:00:09Z</time>
      </trkpt>
      <trkpt lat="44.09234" lon="1.11033">
        <ele>95</ele>
        <time>2023-07-06T12:00:13Z</time>
      </trkpt>
      <trkpt lat="44.09233" lon="1.11041">
        <ele>95.2</ele>
        <time>2023-07-06T12:00:17Z</time>
      </trkpt>
      <trkpt lat="44.09231" lon="1.11055">
        <ele>95.2</ele>
        <time>2023-07-06T12:00:25Z</time>
      </trkpt>
      <trkpt lat="44.0923" lon="1.11071">
        <ele>95</ele>
        <time>2023-07-06T12:00:33Z</time>
      </trkpt>
      <trkpt lat="44.0923" lon="1.11076">
        <ele>95.2</ele>
        <time>2023-07-06T12:00:36Z</time>
      </trkpt>
      <trkpt lat="44.09229" lon="1.11083">
        <ele>95</ele>
        <time>2023-07-06T12:00:40Z</time>
      </trkpt>
      <trkpt lat="44.09229" lon="1.11085">
        <ele>95</ele>
        <time>2023-07-06T12:00:41Z</time>
      </trkpt>
      <trkpt lat="44.09229" lon="1.11087">
        <ele>95</ele>
        <time>2023-07-06T12:00:42Z</time>
      </trkpt>
      <trkpt lat="44.09228" lon="1.11088">
        <ele>95</ele>
        <time>2023-07-06T12:00:43Z</time>
      </trkpt>
      <trkpt lat="44.09228" lon="1.1109">
        <ele>95</ele>
        <time>2023-07-06T12:00:44Z</time>
      </trkpt>
      <trkpt lat="44.09228" lon="1.11093">
        <ele>95</ele>
        <time>2023-07-06T12:00:46Z</time>
      </trkpt>
      <trkpt lat="44.09227" lon="1.11095">
        <ele>94.8</ele>
        <time>2023-07-06T12:00:47Z</time>
      </trkpt>
      <trkpt lat="44.09226" lon="1.11099">
        <ele>94.8</ele>
        <time>2023-07-06T12:00:49Z</time>
      </trkpt>
      <trkpt lat="44.09226" lon="1.11101">
        <ele>94.8</ele>
        <time>2023-07-06T12:00:50Z</time>
      </trkpt>
      <trkpt lat="44.09226" lon="1.11102">
        <ele>94.8</ele>
        <time>2023-07-06T12:00:51Z</time>
      </trkpt>
      <trkpt lat="44.09225" lon="1.11104">
        <ele>94.8</ele>
        <time>2023-07-06T12:00:52Z</time>
      </trkpt>
      <trkpt lat="44.09225" lon="1.11106">
        <ele>95</ele>
        <time>2023-07-06T12:00:53Z</time>
      </trkpt>
      <trkpt lat="44.09225" lon="1.11109">
        <ele>95.2</ele>
        <time>2023-07-06T12:00:55Z</time>
      </trkpt>
      <trkpt lat="44.09225" lon="1.11111">
        <ele>95.4</ele>
        <time>2023-07-06T12:00:56Z</time>
      </trkpt>
      <trkpt lat="44.09224" lon="1.11113">
        <ele>95.4</ele>
        <time>2023-07-06T12:00:57Z</time>
      </trkpt>
      <trkpt lat="44.09223" lon="1.11128">
        <ele>94.8</ele>
        <time>2023-07-06T12:01:05Z</time>
      </trkpt>
      <trkpt lat="44.09222" lon="1.11132">
        <ele>94.6</ele>
        <time>2023-07-06T12:01:07Z</time>
      </trkpt>
      <trkpt lat="44.09222" lon="1.11136">
        <ele>94.6</ele>
        <time>2023-07-06T12:01:09Z</time>
      </trkpt>
      <trkpt lat="44.0922" lon="1.11145">
        <ele>94.4</ele>
        <time>2023-07-06T12:01:14Z</time>
      </trkpt>
      <trkpt lat="44.09219" lon="1.11153">
        <ele>94.4</ele>
        <time>2023-07-06T12:01:18Z</time>
      </trkpt>
      <trkpt lat="44.09218" lon="1.11161">
        <ele>94.4</ele>
        <time>2023-07-06T12:01:23Z</time>
      </trkpt>
      <trkpt lat="44.09216" lon="1.1117">
        <ele>94</ele>
        <time>2023-07-06T12:01:28Z</time>
      </trkpt>
      <trkpt lat="44.09216" lon="1.11175">
        <ele>94</ele>
        <time>2023-07-06T12:01:31Z</time>
      </trkpt>
      <trkpt lat="44.09215" lon="1.11188">
        <ele>93.8</ele>
        <time>2023-07-06T12:01:38Z</time>
      </trkpt>
      <trkpt lat="44.09214" lon="1.11203">
        <ele>93.8</ele>
        <time>2023-07-06T12:01:46Z</time>
      </trkpt>
      <trkpt lat="44.09213" lon="1.11211">
        <ele>93.4</ele>
        <time>2023-07-06T12:01:51Z</time>
      </trkpt>
      <trkpt lat="44.09212" lon="1.11218">
        <ele>93.4</ele>
        <time>2023-07-06T12:01:55Z</time>
      </trkpt>
      <trkpt lat="44.09213" lon="1.11227">
        <ele>93.2</ele>
        <time>2023-07-06T12:02:00Z</time>
      </trkpt>
      <trkpt lat="44.09213" lon="1.11231">
        <ele>93.2</ele>
        <time>2023-07-06T12:02:02Z</time>
      </trkpt>
      <trkpt lat="44.09214" lon="1.11238">
        <ele>93</ele>
        <time>2023-07-06T12:02:06Z</time>
      </trkpt>
      <trkpt lat="44.09215" lon="1.11243">
        <ele>93.2</ele>
        <time>2023-07-06T12:02:09Z</time>
      </trkpt>
      <trkpt lat="44.09217" lon="1.11254">
        <ele>93.4</ele>
        <time>2023-07-06T12:02:15Z</time>
      </trkpt>
      <trkpt lat="44.09218" lon="1.11268">
        <ele>93.4</ele>
        <time>2023-07-06T12:02:22Z</time>
      </trkpt>
      <trkpt lat="44.09218" lon="1.11269">
        <ele>93.4</ele>
        <time>2023-07-06T12:02:23Z</time>
      </trkpt>
      <trkpt lat="44.09218" lon="1.11274">
        <ele>93.6</ele>
        <time>2023-07-06T12:02:27Z</time>
      </trkpt>
      <trkpt lat="44.09218" lon="1.11277">
        <ele>93.6</ele>
        <time>2023-07-06T12:02:29Z</time>
      </trkpt>
      <trkpt lat="44.09217" lon="1.1128">
        <ele>93.6</ele>
        <time>2023-07-06T12:02:31Z</time>
      </trkpt>
      <trkpt lat="44.09217" lon="1.11284">
        <ele>94</ele>
        <time>2023-07-06T12:02:34Z</time>
      </trkpt>
      <trkpt lat="44.09221" lon="1.11293">
        <ele>94.6</ele>
        <time>2023-07-06T12:02:40Z</time>
      </trkpt>
      <trkpt lat="44.09225" lon="1.11311">
        <ele>94.2</ele>
        <time>2023-07-06T12:02:48Z</time>
      </trkpt>
      <trkpt lat="44.09225" lon="1.11328">
        <ele>94</ele>
        <time>2023-07-06T12:02:56Z</time>
      </trkpt>
      <trkpt lat="44.09226" lon="1.11332">
        <ele>94</ele>
        <time>2023-07-06T12:02:58Z</time>
      </trkpt>
      <trkpt lat="44.09226" lon="1.11333">
        <ele>94</ele>
        <time>2023-07-06T12:02:59Z</time>
      </trkpt>
      <trkpt lat="44.09226" lon="1.11339">
        <ele>94.2</ele>
        <time>2023-07-06T12:03:02Z</time>
      </trkpt>
      <trkpt lat="44.09226" lon="1.11352">
        <ele>94.2</ele>
        <time>2023-07-06T12:03:10Z</time>
      </trkpt>
      <trkpt lat="44.09226" lon="1.11358">
        <ele>94.2</ele>
        <time>2023-07-06T12:03:13Z</time>
      </trkpt>
      <trkpt lat="44.09226" lon="1.1136">
        <ele>94.2</ele>
        <time>2023-07-06T12:03:14Z</time>
      </trkpt>
      <trkpt lat="44.09226" lon="1.11375">
        <ele>93.6</ele>
        <time>2023-07-06T12:03:23Z</time>
      </trkpt>
      <trkpt lat="44.09226" lon="1.11379">
        <ele>93.4</ele>
        <time>2023-07-06T12:03:25Z</time>
      </trkpt>
      <trkpt lat="44.09229" lon="1.11392">
        <ele>93.6</ele>
        <time>2023-07-06T12:03:33Z</time>
      </trkpt>
      <trkpt lat="44.09229" lon="1.114">
        <ele>93.6</ele>
        <time>2023-07-06T12:03:37Z</time>
      </trkpt>
      <trkpt lat="44.09229" lon="1.11405">
        <ele>93.8</ele>
        <time>2023-07-06T12:03:40Z</time>
      </trkpt>
      <trkpt lat="44.09231" lon="1.11412">
        <ele>93.6</ele>
        <time>2023-07-06T12:03:44Z</time>
      </trkpt>
      <trkpt lat="44.09233" lon="1.11423">
        <ele>93.4</ele>
        <time>2023-07-06T12:03:50Z</time>
      </trkpt>
      <trkpt lat="44.09234" lon="1.1143">
        <ele>93.4</ele>
        <time>2023-07-06T12:03:53Z</time>
      </trkpt>
      <trkpt lat="44.09234" lon="1.11432">
        <ele>93.4</ele>
        <time>2023-07-06T12:03:54Z</time>
      </trkpt>
      <trkpt lat="44.09234" lon="1.11439">
        <ele>93.4</ele>
        <time>2023-07-06T12:03:58Z</time>
      </trkpt>
      <trkpt lat="44.09235" lon="1.11446">
        <ele>93.2</ele>
        <time>2023-07-06T12:04:02Z</time>
      </trkpt>
      <trkpt lat="44.09237" lon="1.11456">
        <ele>93.4</ele>
        <time>2023-07-06T12:04:08Z</time>
      </trkpt>
      <trkpt lat="44.09238" lon="1.11459">
        <ele>93.4</ele>
        <time>2023-07-06T12:04:10Z</time>
      </trkpt>
      <trkpt lat="44.09239" lon="1.11466">
        <ele>93.2</ele>
        <time>2023-07-06T12:04:14Z</time>
      </trkpt>
      <trkpt lat="44.09239" lon="1.1147">
        <ele>93.2</ele>
        <time>2023-07-06T12:04:16Z</time>
      </trkpt>
      <trkpt lat="44.09239" lon="1.1148">
        <ele>93.4</ele>
        <time>2023-07-06T12:04:22Z</time>
      </trkpt>
      <trkpt lat="44.09239" lon="1.11482">
        <ele>93.4</ele>
        <time>2023-07-06T12:04:23Z</time>
      </trkpt>
      <trkpt lat="44.0924" lon="1.11495">
        <ele>93.4</ele>
        <time>2023-07-06T12:04:30Z</time>
      </trkpt>
      <trkpt lat="44.0924" lon="1.11508">
        <ele>93.2</ele>
        <time>2023-07-06T12:04:38Z</time>
      </trkpt>
      <trkpt lat="44.09241" lon="1.11509">
        <ele>93.4</ele>
        <time>2023-07-06T12:04:39Z</time>
      </trkpt>
      <trkpt lat="44.09242" lon="1.11513">
        <ele>93.4</ele>
        <time>2023-07-06T12:04:41Z</time>
      </trkpt>
      <trkpt lat="44.09244" lon="1.11521">
        <ele>93.4</ele>
        <time>2023-07-06T12:04:45Z</time>
      </trkpt>
      <trkpt lat="44.09245" lon="1.11526">
        <ele>93.4</ele>
        <time>2023-07-06T12:04:48Z</time>
      </trkpt>
      <trkpt lat="44.09247" lon="1.1153">
        <ele>93.4</ele>
        <time>2023-07-06T12:04:51Z</time>
      </trkpt>
      <trkpt lat="44.09248" lon="1.11533">
        <ele>93.6</ele>
        <time>2023-07-06T12:04:53Z</time>
      </trkpt>
      <trkpt lat="44.0925" lon="1.11549">
        <ele>93.8</ele>
        <time>2023-07-06T12:05:02Z</time>
      </trkpt>
      <trkpt lat="44.09251" lon="1.11553">
        <ele>93.8</ele>
        <time>2023-07-06T12:05:04Z</time>
      </trkpt>
      <trkpt lat="44.09251" lon="1.11569">
        <ele>93.8</ele>
        <time>2023-07-06T12:05:13Z</time>
      </trkpt>
      <trkpt lat="44.09251" lon="1.11581">
        <ele>94.2</ele>
        <time>2023-07-06T12:05:19Z</time>
      </trkpt>
      <trkpt lat="44.09252" lon="1.11587">
        <ele>93.8</ele>
        <time>2023-07-06T12:05:22Z</time>
      </trkpt>
      <trkpt lat="44.09253" lon="1.11596">
        <ele>93.4</ele>
        <time>2023-07-06T12:05:27Z</time>
      </trkpt>
      <trkpt lat="44.09255" lon="1.11603">
        <ele>93.4</ele>
        <time>2023-07-06T12:05:31Z</time>
      </trkpt>
      <trkpt lat="44.09255" lon="1.11605">
        <ele>93.4</ele>
        <time>2023-07-06T12:05:32Z</time>
      </trkpt>
      <trkpt lat="44.09255" lon="1.11611">
        <ele>93.6</ele>
        <time>2023-07-06T12:05:35Z</time>
      </trkpt>
      <trkpt lat="44.09256" lon="1.11618">
        <ele>93.8</ele>
        <time>2023-07-06T12:05:39Z</time>
      </trkpt>
      <trkpt lat="44.09259" lon="1.11628">
        <ele>93.4</ele>
        <time>2023-07-06T12:05:45Z</time>
      </trkpt>
      <trkpt lat="44.09259" lon="1.1163">
        <ele>93.4</ele>
        <time>2023-07-06T12:05:46Z</time>
      </trkpt>
      <trkpt lat="44.09259" lon="1.11634">
        <ele>93.4</ele>
        <time>2023-07-06T12:05:48Z</time>
      </trkpt>
      <trkpt lat="44.0926" lon="1.11639">
        <ele>93.4</ele>
        <time>2023-07-06T12:05:51Z</time>
      </trkpt>
      <trkpt lat="44.09261" lon="1.11646">
        <ele>93.4</ele>
        <time>2023-07-06T12:05:55Z</time>
      </trkpt>
      <trkpt lat="44.09264" lon="1.11656">
        <ele>93.6</ele>
        <time>2023-07-06T12:06:01Z</time>
      </trkpt>
      <trkpt lat="44.09264" lon="1.11661">
        <ele>93.6</ele>
        <time>2023-07-06T12:06:04Z</time>
      </trkpt>
      <trkpt lat="44.09266" lon="1.11669">
        <ele>93.6</ele>
        <time>2023-07-06T12:06:08Z</time>
      </trkpt>
      <trkpt lat="44.09266" lon="1.11673">
        <ele>93.6</ele>
        <time>2023-07-06T12:06:10Z</time>
      </trkpt>
      <trkpt lat="44.09267" lon="1.11676">
        <ele>93.6</ele>
        <time>2023-07-06T12:06:12Z</time>
      </trkpt>
      <trkpt lat="44.09267" lon="1.11679">
        <ele>93.6</ele>
        <time>2023-07-06T12:06:14Z</time>
      </trkpt>
      <trkpt lat="44.09268" lon="1.11689">
        <ele>93.2</ele>
        <time>2023-07-06T12:06:20Z</time>
      </trkpt>
      <trkpt lat="44.09269" lon="1.11702">
        <ele>93.2</ele>
        <time>2023-07-06T12:06:27Z</time>
      </trkpt>
      <trkpt lat="44.09269" lon="1.11719">
        <ele>93</ele>
        <time>2023-07-06T12:06:36Z</time>
      </trkpt>
      <trkpt lat="44.09273" lon="1.1173">
        <ele>93</ele>
        <time>2023-07-06T12:06:42Z</time>
      </trkpt>
      <trkpt lat="44.09274" lon="1.11732">
        <ele>93</ele>
        <time>2023-07-06T12:06:43Z</time>
      </trkpt>
      <trkpt lat="44.09274" lon="1.11736">
        <ele>93.2</ele>
        <time>2023-07-06T12:06:45Z</time>
      </trkpt>
      <trkpt lat="44.09275" lon="1.11751">
        <ele>92.8</ele>
        <time>2023-07-06T12:06:53Z</time>
      </trkpt>
      <trkpt lat="44.09278" lon="1.11763">
        <ele>92.8</ele>
        <time>2023-07-06T12:07:01Z</time>
      </trkpt>
      <trkpt lat="44.09281" lon="1.11777">
        <ele>93.2</ele>
        <time>2023-07-06T12:07:09Z</time>
      </trkpt>
      <trkpt lat="44.09284" lon="1.1179">
        <ele>93.4</ele>
        <time>2023-07-06T12:07:17Z</time>
      </trkpt>
      <trkpt lat="44.09288" lon="1.11804">
        <ele>93.6</ele>
        <time>2023-07-06T12:07:25Z</time>
      </trkpt>
      <trkpt lat="44.09289" lon="1.11809">
        <ele>93.4</ele>
        <time>2023-07-06T12:07:28Z</time>
      </trkpt>
      <trkpt lat="44.0929" lon="1.11815">
        <ele>93.4</ele>
        <time>2023-07-06T12:07:32Z</time>
      </trkpt>
      <trkpt lat="44.09291" lon="1.1182">
        <ele>93.4</ele>
        <time>2023-07-06T12:07:35Z</time>
      </trkpt>
      <trkpt lat="44.09292" lon="1.11836">
        <ele>93.4</ele>
        <time>2023-07-06T12:07:44Z</time>
      </trkpt>
      <trkpt lat="44.09292" lon="1.11839">
        <ele>93.4</ele>
        <time>2023-07-06T12:07:46Z</time>
      </trkpt>
      <trkpt lat="44.09293" lon="1.11844">
        <ele>93.2</ele>
        <time>2023-07-06T12:07:49Z</time>
      </trkpt>
      <trkpt lat="44.09294" lon="1.11847">
        <ele>93.2</ele>
        <time>2023-07-06T12:07:51Z</time>
      </trkpt>
      <trkpt lat="44.09295" lon="1.11864">
        <ele>93.4</ele>
        <time>2023-07-06T12:07:59Z</time>
      </trkpt>
      <trkpt lat="44.09295" lon="1.11866">
        <ele>93.4</ele>
        <time>2023-07-06T12:08:00Z</time>
      </trkpt>
      <trkpt lat="44.09296" lon="1.11867">
        <ele>93.6</ele>
        <time>2023-07-06T12:08:01Z</time>
      </trkpt>
      <trkpt lat="44.09296" lon="1.11869">
        <ele>93.6</ele>
        <time>2023-07-06T12:08:02Z</time>
      </trkpt>
      <trkpt lat="44.09296" lon="1.11877">
        <ele>94</ele>
        <time>2023-07-06T12:08:07Z</time>
      </trkpt>
      <trkpt lat="44.09298" lon="1.11883">
        <ele>94</ele>
        <time>2023-07-06T12:08:11Z</time>
      </trkpt>
      <trkpt lat="44.09299" lon="1.11888">
        <ele>94</ele>
        <time>2023-07-06T12:08:14Z</time>
      </trkpt>
      <trkpt lat="44.09302" lon="1.119">
        <ele>93.6</ele>
        <time>2023-07-06T12:08:20Z</time>
      </trkpt>
      <trkpt lat="44.09302" lon="1.11902">
        <ele>93.6</ele>
        <time>2023-07-06T12:08:21Z</time>
      </trkpt>
      <trkpt lat="44.09303" lon="1.11917">
        <ele>93.6</ele>
        <time>2023-07-06T12:08:29Z</time>
      </trkpt>
      <trkpt lat="44.09308" lon="1.11926">
        <ele>93.4</ele>
        <time>2023-07-06T12:08:34Z</time>
      </trkpt>
      <trkpt lat="44.09307" lon="1.11928">
        <ele>93.4</ele>
        <time>2023-07-06T12:08:35Z</time>
      </trkpt>
      <trkpt lat="44.09307" lon="1.11932">
        <ele>93.6</ele>
        <time>2023-07-06T12:08:37Z</time>
      </trkpt>
      <trkpt lat="44.09307" lon="1.11938">
        <ele>93.6</ele>
        <time>2023-07-06T12:08:40Z</time>
      </trkpt>
      <trkpt lat="44.09307" lon="1.11941">
        <ele>93.8</ele>
        <time>2023-07-06T12:08:42Z</time>
      </trkpt>
      <trkpt lat="44.09308" lon="1.11945">
        <ele>93.8</ele>
        <time>2023-07-06T12:08:44Z</time>
      </trkpt>
      <trkpt lat="44.09309" lon="1.11952">
        <ele>93.4</ele>
        <time>2023-07-06T12:08:48Z</time>
      </trkpt>
      <trkpt lat="44.09311" lon="1.11967">
        <ele>93</ele>
        <time>2023-07-06T12:08:57Z</time>
      </trkpt>
      <trkpt lat="44.09313" lon="1.11978">
        <ele>93.4</ele>
        <time>2023-07-06T12:09:04Z</time>
      </trkpt>
      <trkpt lat="44.09314" lon="1.11989">
        <ele>93.2</ele>
        <time>2023-07-06T12:09:10Z</time>
      </trkpt>
      <trkpt lat="44.09317" lon="1.11994">
        <ele>93</ele>
        <time>2023-07-06T12:09:13Z</time>
      </trkpt>
      <trkpt lat="44.09316" lon="1.11999">
        <ele>93.2</ele>
        <time>2023-07-06T12:09:16Z</time>
      </trkpt>
      <trkpt lat="44.09316" lon="1.12004">
        <ele>93.4</ele>
        <time>2023-07-06T12:09:19Z</time>
      </trkpt>
      <trkpt lat="44.09317" lon="1.12022">
        <ele>93.8</ele>
        <time>2023-07-06T12:09:29Z</time>
      </trkpt>
      <trkpt lat="44.09319" lon="1.12034">
        <ele>94.2</ele>
        <time>2023-07-06T12:09:36Z</time>
      </trkpt>
      <trkpt lat="44.09319" lon="1.12038">
        <ele>94</ele>
        <time>2023-07-06T12:09:38Z</time>
      </trkpt>
      <trkpt lat="44.0932" lon="1.12049">
        <ele>94</ele>
        <time>2023-07-06T12:09:45Z</time>
      </trkpt>
      <trkpt lat="44.09322" lon="1.12059">
        <ele>93.2</ele>
        <time>2023-07-06T12:09:50Z</time>
      </trkpt>
      <trkpt lat="44.09324" lon="1.12068">
        <ele>93</ele>
        <time>2023-07-06T12:09:55Z</time>
      </trkpt>
      <trkpt lat="44.09325" lon="1.12079">
        <ele>93.2</ele>
        <time>2023-07-06T12:10:01Z</time>
      </trkpt>
      <trkpt lat="44.09326" lon="1.12084">
        <ele>93.4</ele>
        <time>2023-07-06T12:10:04Z</time>
      </trkpt>
      <trkpt lat="44.09326" lon="1.12099">
        <ele>93.2</ele>
        <time>2023-07-06T12:10:12Z</time>
      </trkpt>
      <trkpt lat="44.09326" lon="1.12102">
        <ele>93.2</ele>
        <time>2023-07-06T12:10:14Z</time>
      </trkpt>
      <trkpt lat="44.09327" lon="1.12105">
        <ele>93</ele>
        <time>2023-07-06T12:10:16Z</time>
      </trkpt>
      <trkpt lat="44.09326" lon="1.12116">
        <ele>93</ele>
        <time>2023-07-06T12:10:22Z</time>
      </trkpt>
      <trkpt lat="44.09326" lon="1.12133">
        <ele>93.2</ele>
        <time>2023-07-06T12:10:31Z</time>
      </trkpt>
      <trkpt lat="44.09329" lon="1.12151">
        <ele>92.6</ele>
        <time>2023-07-06T12:10:41Z</time>
      </trkpt>
      <trkpt lat="44.09331" lon="1.12162">
        <ele>93</ele>
        <time>2023-07-06T12:10:47Z</time>
      </trkpt>
      <trkpt lat="44.0933" lon="1.12165">
        <ele>92.8</ele>
        <time>2023-07-06T12:10:49Z</time>
      </trkpt>
      <trkpt lat="44.0933" lon="1.12168">
        <ele>92.8</ele>
        <time>2023-07-06T12:10:51Z</time>
      </trkpt>
      <trkpt lat="44.09331" lon="1.12173">
        <ele>92.8</ele>
        <time>2023-07-06T12:10:54Z</time>
      </trkpt>
      <trkpt lat="44.09331" lon="1.12183">
        <ele>92.6</ele>
        <time>2023-07-06T12:11:00Z</time>
      </trkpt>
      <trkpt lat="44.09333" lon="1.12188">
        <ele>92.4</ele>
        <time>2023-07-06T12:11:03Z</time>
      </trkpt>
      <trkpt lat="44.09335" lon="1.12198">
        <ele>92.4</ele>
        <time>2023-07-06T12:11:09Z</time>
      </trkpt>
      <trkpt lat="44.09337" lon="1.12212">
        <ele>92.6</ele>
        <time>2023-07-06T12:11:17Z</time>
      </trkpt>
      <trkpt lat="44.09337" lon="1.12214">
        <ele>92.6</ele>
        <time>2023-07-06T12:11:18Z</time>
      </trkpt>
      <trkpt lat="44.09338" lon="1.12217">
        <ele>92.8</ele>
        <time>2023-07-06T12:11:20Z</time>
      </trkpt>
      <trkpt lat="44.09338" lon="1.12219">
        <ele>92.8</ele>
        <time>2023-07-06T12:11:21Z</time>
      </trkpt>
      <trkpt lat="44.09339" lon="1.12228">
        <ele>92.6</ele>
        <time>2023-07-06T12:11:26Z</time>
      </trkpt>
      <trkpt lat="44.0934" lon="1.12231">
        <ele>92.6</ele>
        <time>2023-07-06T12:11:28Z</time>
      </trkpt>
      <trkpt lat="44.0934" lon="1.12233">
        <ele>92.8</ele>
        <time>2023-07-06T12:11:29Z</time>
      </trkpt>
      <trkpt lat="44.09344" lon="1.1224">
        <ele>93.2</ele>
        <time>2023-07-06T12:11:33Z</time>
      </trkpt>
      <trkpt lat="44.09345" lon="1.12243">
        <ele>93</ele>
        <time>2023-07-06T12:11:35Z</time>
      </trkpt>
      <trkpt lat="44.09345" lon="1.12245">
        <ele>93</ele>
        <time>2023-07-06T12:11:36Z</time>
      </trkpt>
      <trkpt lat="44.09346" lon="1.12252">
        <ele>92.8</ele>
        <time>2023-07-06T12:11:40Z</time>
      </trkpt>
      <trkpt lat="44.09346" lon="1.12254">
        <ele>92.8</ele>
        <time>2023-07-06T12:11:41Z</time>
      </trkpt>
      <trkpt lat="44.09347" lon="1.12257">
        <ele>92.8</ele>
        <time>2023-07-06T12:11:43Z</time>
      </trkpt>
      <trkpt lat="44.09347" lon="1.12262">
        <ele>93</ele>
        <time>2023-07-06T12:11:46Z</time>
      </trkpt>
      <trkpt lat="44.09348" lon="1.12267">
        <ele>93</ele>
        <time>2023-07-06T12:11:49Z</time>
      </trkpt>
      <trkpt lat="44.09349" lon="1.12271">
        <ele>93</ele>
        <time>2023-07-06T12:11:51Z</time>
      </trkpt>
      <trkpt lat="44.0935" lon="1.12282">
        <ele>93</ele>
        <time>2023-07-06T12:11:58Z</time>
      </trkpt>
      <trkpt lat="44.09351" lon="1.12287">
        <ele>93.2</ele>
        <time>2023-07-06T12:12:01Z</time>
      </trkpt>
      <trkpt lat="44.09352" lon="1.12299">
        <ele>92.8</ele>
        <time>2023-07-06T12:12:08Z</time>
      </trkpt>
      <trkpt lat="44.09353" lon="1.12303">
        <ele>93</ele>
        <time>2023-07-06T12:12:10Z</time>
      </trkpt>
      <trkpt lat="44.09353" lon="1.12305">
        <ele>93.2</ele>
        <time>2023-07-06T12:12:11Z</time>
      </trkpt>
      <trkpt lat="44.09353" lon="1.1231">
        <ele>93.2</ele>
        <time>2023-07-06T12:12:14Z</time>
      </trkpt>
      <trkpt lat="44.09356" lon="1.12316">
        <ele>93.4</ele>
        <time>2023-07-06T12:12:18Z</time>
      </trkpt>
      <trkpt lat="44.09356" lon="1.12318">
        <ele>93.4</ele>
        <time>2023-07-06T12:12:19Z</time>
      </trkpt>
      <trkpt lat="44.09356" lon="1.12321">
        <ele>93.4</ele>
        <time>2023-07-06T12:12:21Z</time>
      </trkpt>
      <trkpt lat="44.09357" lon="1.12328">
        <ele>94</ele>
        <time>2023-07-06T12:12:25Z</time>
      </trkpt>
      <trkpt lat="44.09358" lon="1.12332">
        <ele>94</ele>
        <time>2023-07-06T12:12:28Z</time>
      </trkpt>
      <trkpt lat="44.09358" lon="1.12336">
        <ele>94</ele>
        <time>2023-07-06T12:12:30Z</time>
      </trkpt>
      <trkpt lat="44.09358" lon="1.12345">
        <ele>93.8</ele>
        <time>2023-07-06T12:12:36Z</time>
      </trkpt>
      <trkpt lat="44.0936" lon="1.12353">
        <ele>93.4</ele>
        <time>2023-07-06T12:12:41Z</time>
      </trkpt>
      <trkpt lat="44.09362" lon="1.12362">
        <ele>93.4</ele>
        <time>2023-07-06T12:12:46Z</time>
      </trkpt>
      <trkpt lat="44.09366" lon="1.12379">
        <ele>93.6</ele>
        <time>2023-07-06T12:12:56Z</time>
      </trkpt>
      <trkpt lat="44.09368" lon="1.12389">
        <ele>93.8</ele>
        <time>2023-07-06T12:13:03Z</time>
      </trkpt>
      <trkpt lat="44.09369" lon="1.12395">
        <ele>93.6</ele>
        <time>2023-07-06T12:13:06Z</time>
      </trkpt>
      <trkpt lat="44.09368" lon="1.12399">
        <ele>93.8</ele>
        <time>2023-07-06T12:13:09Z</time>
      </trkpt>
      <trkpt lat="44.09369" lon="1.12405">
        <ele>93.8</ele>
        <time>2023-07-06T12:13:12Z</time>
      </trkpt>
      <trkpt lat="44.09372" lon="1.12414">
        <ele>94.2</ele>
        <time>2023-07-06T12:13:18Z</time>
      </trkpt>
      <trkpt lat="44.09373" lon="1.1242">
        <ele>94.4</ele>
        <time>2023-07-06T12:13:21Z</time>
      </trkpt>
      <trkpt lat="44.09374" lon="1.12425">
        <ele>94.4</ele>
        <time>2023-07-06T12:13:24Z</time>
      </trkpt>
      <trkpt lat="44.09376" lon="1.12436">
        <ele>94.4</ele>
        <time>2023-07-06T12:13:30Z</time>
      </trkpt>
      <trkpt lat="44.09377" lon="1.12441">
        <ele>94.6</ele>
        <time>2023-07-06T12:13:33Z</time>
      </trkpt>
      <trkpt lat="44.09377" lon="1.12453">
        <ele>94.6</ele>
        <time>2023-07-06T12:13:40Z</time>
      </trkpt>
      <trkpt lat="44.09378" lon="1.1246">
        <ele>94.4</ele>
        <time>2023-07-06T12:13:44Z</time>
      </trkpt>
      <trkpt lat="44.0938" lon="1.12469">
        <ele>94.6</ele>
        <time>2023-07-06T12:13:50Z</time>
      </trkpt>
      <trkpt lat="44.09381" lon="1.12482">
        <ele>94.6</ele>
        <time>2023-07-06T12:13:57Z</time>
      </trkpt>
      <trkpt lat="44.09382" lon="1.12484">
        <ele>94.8</ele>
        <time>2023-07-06T12:13:58Z</time>
      </trkpt>
      <trkpt lat="44.0938" lon="1.12492">
        <ele>95</ele>
        <time>2023-07-06T12:14:03Z</time>
      </trkpt>
      <trkpt lat="44.0938" lon="1.12495">
        <ele>94.8</ele>
        <time>2023-07-06T12:14:05Z</time>
      </trkpt>
      <trkpt lat="44.09381" lon="1.12501">
        <ele>94.8</ele>
        <time>2023-07-06T12:14:09Z</time>
      </trkpt>
      <trkpt lat="44.0938" lon="1.12506">
        <ele>94.8</ele>
        <time>2023-07-06T12:14:12Z</time>
      </trkpt>
      <trkpt lat="44.09381" lon="1.12519">
        <ele>94.8</ele>
        <time>2023-07-06T12:14:20Z</time>
      </trkpt>
      <trkpt lat="44.09383" lon="1.1253">
        <ele>94.8</ele>
        <time>2023-07-06T12:14:26Z</time>
      </trkpt>
      <trkpt lat="44.09383" lon="1.12544">
        <ele>94.4</ele>
        <time>2023-07-06T12:14:34Z</time>
      </trkpt>
      <trkpt lat="44.09384" lon="1.1256">
        <ele>94.4</ele>
        <time>2023-07-06T12:14:43Z</time>
      </trkpt>
      <trkpt lat="44.09386" lon="1.12565">
        <ele>94.4</ele>
        <time>2023-07-06T12:14:46Z</time>
      </trkpt>
      <trkpt lat="44.09388" lon="1.12575">
        <ele>94.2</ele>
        <time>2023-07-06T12:14:52Z</time>
      </trkpt>
      <trkpt lat="44.09387" lon="1.12587">
        <ele>94.2</ele>
        <time>2023-07-06T12:14:59Z</time>
      </trkpt>
      <trkpt lat="44.09387" lon="1.12593">
        <ele>94.2</ele>
        <time>2023-07-06T12:15:03Z</time>
      </trkpt>
      <trkpt lat="44.09387" lon="1.12594">
        <ele>94.2</ele>
        <time>2023-07-06T12:15:04Z</time>
      </trkpt>
      <trkpt lat="44.09388" lon="1.12596">
        <ele>94.4</ele>
        <time>2023-07-06T12:15:05Z</time>
      </trkpt>
      <trkpt lat="44.09389" lon="1.12605">
        <ele>94.6</ele>
        <time>2023-07-06T12:15:10Z</time>
      </trkpt>
      <trkpt lat="44.0939" lon="1.12608">
        <ele>94.6</ele>
        <time>2023-07-06T12:15:12Z</time>
      </trkpt>
      <trkpt lat="44.09392" lon="1.12613">
        <ele>94.6</ele>
        <time>2023-07-06T12:15:15Z</time>
      </trkpt>
      <trkpt lat="44.09393" lon="1.12619">
        <ele>94.2</ele>
        <time>2023-07-06T12:15:19Z</time>
      </trkpt>
      <trkpt lat="44.09401" lon="1.12629">
        <ele>94</ele>
        <time>2023-07-06T12:15:26Z</time>
      </trkpt>
      <trkpt lat="44.09402" lon="1.12634">
        <ele>94.2</ele>
        <time>2023-07-06T12:15:30Z</time>
      </trkpt>
      <trkpt lat="44.09402" lon="1.12636">
        <ele>94.2</ele>
        <time>2023-07-06T12:15:31Z</time>
      </trkpt>
      <trkpt lat="44.09403" lon="1.12642">
        <ele>94.2</ele>
        <time>2023-07-06T12:15:34Z</time>
      </trkpt>
      <trkpt lat="44.09404" lon="1.12654">
        <ele>94</ele>
        <time>2023-07-06T12:15:41Z</time>
      </trkpt>
      <trkpt lat="44.09405" lon="1.1266">
        <ele>94</ele>
        <time>2023-07-06T12:15:44Z</time>
      </trkpt>
      <trkpt lat="44.09406" lon="1.12669">
        <ele>94</ele>
        <time>2023-07-06T12:15:49Z</time>
      </trkpt>
      <trkpt lat="44.09407" lon="1.12679">
        <ele>94</ele>
        <time>2023-07-06T12:15:55Z</time>
      </trkpt>
      <trkpt lat="44.09408" lon="1.12682">
        <ele>94.4</ele>
        <time>2023-07-06T12:15:57Z</time>
      </trkpt>
      <trkpt lat="44.09408" lon="1.12685">
        <ele>94.4</ele>
        <time>2023-07-06T12:15:59Z</time>
      </trkpt>
      <trkpt lat="44.09411" lon="1.12694">
        <ele>94.4</ele>
        <time>2023-07-06T12:16:05Z</time>
      </trkpt>
      <trkpt lat="44.09411" lon="1.1271">
        <ele>94.8</ele>
        <time>2023-07-06T12:16:14Z</time>
      </trkpt>
      <trkpt lat="44.09411" lon="1.12713">
        <ele>95</ele>
        <time>2023-07-06T12:16:17Z</time>
      </trkpt>
      <trkpt lat="44.09411" lon="1.12714">
        <ele>95</ele>
        <time>2023-07-06T12:16:20Z</time>
      </trkpt>
      <trkpt lat="44.09412" lon="1.12715">
        <ele>95</ele>
        <time>2023-07-06T12:16:21Z</time>
      </trkpt>
      <trkpt lat="44.09412" lon="1.1272">
        <ele>95</ele>
        <time>2023-07-06T12:16:24Z</time>
      </trkpt>
      <trkpt lat="44.09415" lon="1.12727">
        <ele>95.4</ele>
        <time>2023-07-06T12:16:28Z</time>
      </trkpt>
      <trkpt lat="44.09416" lon="1.12732">
        <ele>95.4</ele>
        <time>2023-07-06T12:16:31Z</time>
      </trkpt>
      <trkpt lat="44.09415" lon="1.12733">
        <ele>95.4</ele>
        <time>2023-07-06T12:16:32Z</time>
      </trkpt>
      <trkpt lat="44.09415" lon="1.12738">
        <ele>95.4</ele>
        <time>2023-07-06T12:16:35Z</time>
      </trkpt>
      <trkpt lat="44.09417" lon="1.12755">
        <ele>95.6</ele>
        <time>2023-07-06T12:16:45Z</time>
      </trkpt>
      <trkpt lat="44.09417" lon="1.12756">
        <ele>95.6</ele>
        <time>2023-07-06T12:16:46Z</time>
      </trkpt>
      <trkpt lat="44.09418" lon="1.12759">
        <ele>95.6</ele>
        <time>2023-07-06T12:16:48Z</time>
      </trkpt>
      <trkpt lat="44.09421" lon="1.12771">
        <ele>95.8</ele>
        <time>2023-07-06T12:16:55Z</time>
      </trkpt>
      <trkpt lat="44.09423" lon="1.12784">
        <ele>95.6</ele>
        <time>2023-07-06T12:17:03Z</time>
      </trkpt>
      <trkpt lat="44.09424" lon="1.12787">
        <ele>95.6</ele>
        <time>2023-07-06T12:17:05Z</time>
      </trkpt>
      <trkpt lat="44.09424" lon="1.1279">
        <ele>95.8</ele>
        <time>2023-07-06T12:17:07Z</time>
      </trkpt>
      <trkpt lat="44.09426" lon="1.128">
        <ele>96</ele>
        <time>2023-07-06T12:17:13Z</time>
      </trkpt>
      <trkpt lat="44.09427" lon="1.12812">
        <ele>96.2</ele>
        <time>2023-07-06T12:17:21Z</time>
      </trkpt>
      <trkpt lat="44.09428" lon="1.12817">
        <ele>96.2</ele>
        <time>2023-07-06T12:17:24Z</time>
      </trkpt>
      <trkpt lat="44.09429" lon="1.12826">
        <ele>96</ele>
        <time>2023-07-06T12:17:29Z</time>
      </trkpt>
      <trkpt lat="44.09432" lon="1.12838">
        <ele>96.4</ele>
        <time>2023-07-06T12:17:37Z</time>
      </trkpt>
      <trkpt lat="44.09432" lon="1.12841">
        <ele>96.4</ele>
        <time>2023-07-06T12:17:39Z</time>
      </trkpt>
      <trkpt lat="44.09432" lon="1.12846">
        <ele>96.4</ele>
        <time>2023-07-06T12:17:42Z</time>
      </trkpt>
      <trkpt lat="44.09433" lon="1.12852">
        <ele>96.4</ele>
        <time>2023-07-06T12:17:46Z</time>
      </trkpt>
      <trkpt lat="44.09437" lon="1.12866">
        <ele>96.8</ele>
        <time>2023-07-06T12:17:55Z</time>
      </trkpt>
      <trkpt lat="44.09438" lon="1.1287">
        <ele>97.2</ele>
        <time>2023-07-06T12:17:58Z</time>
      </trkpt>
      <trkpt lat="44.09439" lon="1.12877">
        <ele>96.8</ele>
        <time>2023-07-06T12:18:02Z</time>
      </trkpt>
      <trkpt lat="44.09441" lon="1.12882">
        <ele>96.4</ele>
        <time>2023-07-06T12:18:05Z</time>
      </trkpt>
      <trkpt lat="44.09442" lon="1.12887">
        <ele>96.4</ele>
        <time>2023-07-06T12:18:08Z</time>
      </trkpt>
      <trkpt lat="44.09444" lon="1.12896">
        <ele>96.4</ele>
        <time>2023-07-06T12:18:14Z</time>
      </trkpt>
      <trkpt lat="44.09446" lon="1.12898">
        <ele>96.4</ele>
        <time>2023-07-06T12:18:15Z</time>
      </trkpt>
      <trkpt lat="44.09448" lon="1.12904">
        <ele>96.8</ele>
        <time>2023-07-06T12:18:19Z</time>
      </trkpt>
      <trkpt lat="44.09448" lon="1.12906">
        <ele>96.8</ele>
        <time>2023-07-06T12:18:20Z</time>
      </trkpt>
      <trkpt lat="44.09448" lon="1.12908">
        <ele>96.8</ele>
        <time>2023-07-06T12:18:21Z</time>
      </trkpt>
      <trkpt lat="44.0945" lon="1.12914">
        <ele>96.4</ele>
        <time>2023-07-06T12:18:25Z</time>
      </trkpt>
      <trkpt lat="44.0945" lon="1.12916">
        <ele>96.4</ele>
        <time>2023-07-06T12:18:26Z</time>
      </trkpt>
      <trkpt lat="44.0945" lon="1.12931">
        <ele>96.6</ele>
        <time>2023-07-06T12:18:35Z</time>
      </trkpt>
      <trkpt lat="44.09448" lon="1.12946">
        <ele>96.2</ele>
        <time>2023-07-06T12:18:44Z</time>
      </trkpt>
      <trkpt lat="44.09449" lon="1.12956">
        <ele>96.2</ele>
        <time>2023-07-06T12:18:50Z</time>
      </trkpt>
      <trkpt lat="44.09449" lon="1.12957">
        <ele>96.2</ele>
        <time>2023-07-06T12:18:51Z</time>
      </trkpt>
      <trkpt lat="44.0945" lon="1.12962">
        <ele>96.2</ele>
        <time>2023-07-06T12:18:54Z</time>
      </trkpt>
      <trkpt lat="44.0945" lon="1.12969">
        <ele>95.8</ele>
        <time>2023-07-06T12:18:58Z</time>
      </trkpt>
      <trkpt lat="44.0945" lon="1.12973">
        <ele>95.8</ele>
        <time>2023-07-06T12:19:00Z</time>
      </trkpt>
      <trkpt lat="44.09451" lon="1.12976">
        <ele>95.8</ele>
        <time>2023-07-06T12:19:02Z</time>
      </trkpt>
      <trkpt lat="44.09451" lon="1.12979">
        <ele>95.6</ele>
        <time>2023-07-06T12:19:04Z</time>
      </trkpt>
      <trkpt lat="44.09452" lon="1.12986">
        <ele>95.8</ele>
        <time>2023-07-06T12:19:08Z</time>
      </trkpt>
      <trkpt lat="44.09453" lon="1.1299">
        <ele>96</ele>
        <time>2023-07-06T12:19:11Z</time>
      </trkpt>
      <trkpt lat="44.09453" lon="1.12994">
        <ele>96</ele>
        <time>2023-07-06T12:19:13Z</time>
      </trkpt>
      <trkpt lat="44.09454" lon="1.12999">
        <ele>96</ele>
        <time>2023-07-06T12:19:16Z</time>
      </trkpt>
      <trkpt lat="44.09455" lon="1.13">
        <ele>95.8</ele>
        <time>2023-07-06T12:19:17Z</time>
      </trkpt>
      <trkpt lat="44.09455" lon="1.13003">
        <ele>95.8</ele>
        <time>2023-07-06T12:19:19Z</time>
      </trkpt>
      <trkpt lat="44.09456" lon="1.13005">
        <ele>95.8</ele>
        <time>2023-07-06T12:19:20Z</time>
      </trkpt>
      <trkpt lat="44.09456" lon="1.1301">
        <ele>95.8</ele>
        <time>2023-07-06T12:19:24Z</time>
      </trkpt>
      <trkpt lat="44.09456" lon="1.13012">
        <ele>95.8</ele>
        <time>2023-07-06T12:19:25Z</time>
      </trkpt>
      <trkpt lat="44.09456" lon="1.13013">
        <ele>95.8</ele>
        <time>2023-07-06T12:19:26Z</time>
      </trkpt>
      <trkpt lat="44.0946" lon="1.13024">
        <ele>95.8</ele>
        <time>2023-07-06T12:19:33Z</time>
      </trkpt>
      <trkpt lat="44.09466" lon="1.13037">
        <ele>96</ele>
        <time>2023-07-06T12:19:41Z</time>
      </trkpt>
      <trkpt lat="44.09472" lon="1.1305">
        <ele>96.6</ele>
        <time>2023-07-06T12:19:51Z</time>
      </trkpt>
      <trkpt lat="44.09473" lon="1.13053">
        <ele>96.8</ele>
        <time>2023-07-06T12:19:53Z</time>
      </trkpt>
      <trkpt lat="44.09476" lon="1.13064">
        <ele>96.2</ele>
        <time>2023-07-06T12:20:00Z</time>
      </trkpt>
      <trkpt lat="44.09478" lon="1.13069">
        <ele>96.4</ele>
        <time>2023-07-06T12:20:04Z</time>
      </trkpt>
      <trkpt lat="44.09478" lon="1.13071">
        <ele>96.6</ele>
        <time>2023-07-06T12:20:05Z</time>
      </trkpt>
      <trkpt lat="44.09479" lon="1.13072">
        <ele>96.6</ele>
        <time>2023-07-06T12:20:06Z</time>
      </trkpt>
      <trkpt lat="44.0948" lon="1.13077">
        <ele>96.8</ele>
        <time>2023-07-06T12:20:09Z</time>
      </trkpt>
      <trkpt lat="44.0948" lon="1.13079">
        <ele>96.8</ele>
        <time>2023-07-06T12:20:10Z</time>
      </trkpt>
      <trkpt lat="44.09481" lon="1.13084">
        <ele>96.6</ele>
        <time>2023-07-06T12:20:13Z</time>
      </trkpt>
      <trkpt lat="44.09483" lon="1.1309">
        <ele>96.6</ele>
        <time>2023-07-06T12:20:17Z</time>
      </trkpt>
      <trkpt lat="44.09485" lon="1.13095">
        <ele>96.4</ele>
        <time>2023-07-06T12:20:20Z</time>
      </trkpt>
      <trkpt lat="44.09488" lon="1.13103">
        <ele>96.8</ele>
        <time>2023-07-06T12:20:26Z</time>
      </trkpt>
      <trkpt lat="44.09493" lon="1.1312">
        <ele>97</ele>
        <time>2023-07-06T12:20:37Z</time>
      </trkpt>
      <trkpt lat="44.09497" lon="1.13135">
        <ele>97.4</ele>
        <time>2023-07-06T12:20:47Z</time>
      </trkpt>
      <trkpt lat="44.09502" lon="1.13148">
        <ele>97.4</ele>
        <time>2023-07-06T12:20:56Z</time>
      </trkpt>
      <trkpt lat="44.09507" lon="1.13162">
        <ele>97.8</ele>
        <time>2023-07-06T12:21:05Z</time>
      </trkpt>
      <trkpt lat="44.09508" lon="1.13171">
        <ele>97.6</ele>
        <time>2023-07-06T12:21:11Z</time>
      </trkpt>
      <trkpt lat="44.09508" lon="1.13174">
        <ele>97.4</ele>
        <time>2023-07-06T12:21:13Z</time>
      </trkpt>
      <trkpt lat="44.09508" lon="1.13177">
        <ele>97.4</ele>
        <time>2023-07-06T12:21:15Z</time>
      </trkpt>
      <trkpt lat="44.09511" lon="1.13189">
        <ele>97</ele>
        <time>2023-07-06T12:21:22Z</time>
      </trkpt>
      <trkpt lat="44.09514" lon="1.13194">
        <ele>97.4</ele>
        <time>2023-07-06T12:21:25Z</time>
      </trkpt>
      <trkpt lat="44.09514" lon="1.13195">
        <ele>97.4</ele>
        <time>2023-07-06T12:21:26Z</time>
      </trkpt>
      <trkpt lat="44.09515" lon="1.132">
        <ele>97.2</ele>
        <time>2023-07-06T12:21:29Z</time>
      </trkpt>
      <trkpt lat="44.09518" lon="1.1321">
        <ele>97</ele>
        <time>2023-07-06T12:21:35Z</time>
      </trkpt>
      <trkpt lat="44.09518" lon="1.13215">
        <ele>97</ele>
        <time>2023-07-06T12:21:38Z</time>
      </trkpt>
      <trkpt lat="44.09519" lon="1.13219">
        <ele>96.8</ele>
        <time>2023-07-06T12:21:41Z</time>
      </trkpt>
      <trkpt lat="44.09521" lon="1.13223">
        <ele>96.8</ele>
        <time>2023-07-06T12:21:44Z</time>
      </trkpt>
      <trkpt lat="44.0952" lon="1.13231">
        <ele>96.8</ele>
        <time>2023-07-06T12:21:49Z</time>
      </trkpt>
      <trkpt lat="44.09521" lon="1.13235">
        <ele>96.8</ele>
        <time>2023-07-06T12:21:51Z</time>
      </trkpt>
      <trkpt lat="44.09526" lon="1.13245">
        <ele>97.4</ele>
        <time>2023-07-06T12:21:58Z</time>
      </trkpt>
      <trkpt lat="44.09528" lon="1.13256">
        <ele>97.2</ele>
        <time>2023-07-06T12:22:05Z</time>
      </trkpt>
      <trkpt lat="44.09531" lon="1.13269">
        <ele>97.2</ele>
        <time>2023-07-06T12:22:12Z</time>
      </trkpt>
      <trkpt lat="44.09531" lon="1.13271">
        <ele>97.2</ele>
        <time>2023-07-06T12:22:13Z</time>
      </trkpt>
      <trkpt lat="44.09532" lon="1.13278">
        <ele>97.2</ele>
        <time>2023-07-06T12:22:17Z</time>
      </trkpt>
      <trkpt lat="44.09532" lon="1.1328">
        <ele>97.2</ele>
        <time>2023-07-06T12:22:18Z</time>
      </trkpt>
      <trkpt lat="44.09533" lon="1.13285">
        <ele>97</ele>
        <time>2023-07-06T12:22:21Z</time>
      </trkpt>
      <trkpt lat="44.09534" lon="1.13293">
        <ele>97.2</ele>
        <time>2023-07-06T12:22:26Z</time>
      </trkpt>
      <trkpt lat="44.09534" lon="1.13296">
        <ele>97.2</ele>
        <time>2023-07-06T12:22:28Z</time>
      </trkpt>
      <trkpt lat="44.09534" lon="1.133">
        <ele>97.2</ele>
        <time>2023-07-06T12:22:31Z</time>
      </trkpt>
      <trkpt lat="44.09535" lon="1.13304">
        <ele>97.2</ele>
        <time>2023-07-06T12:22:33Z</time>
      </trkpt>
      <trkpt lat="44.09535" lon="1.13308">
        <ele>97</ele>
        <time>2023-07-06T12:22:35Z</time>
      </trkpt>
      <trkpt lat="44.09536" lon="1.1331">
        <ele>96.8</ele>
        <time>2023-07-06T12:22:37Z</time>
      </trkpt>
      <trkpt lat="44.09537" lon="1.13314">
        <ele>96.8</ele>
        <time>2023-07-06T12:22:39Z</time>
      </trkpt>
      <trkpt lat="44.09537" lon="1.13315">
        <ele>96.8</ele>
        <time>2023-07-06T12:22:40Z</time>
      </trkpt>
      <trkpt lat="44.09541" lon="1.13325">
        <ele>96.4</ele>
        <time>2023-07-06T12:22:46Z</time>
      </trkpt>
      <trkpt lat="44.09543" lon="1.13336">
        <ele>96.6</ele>
        <time>2023-07-06T12:22:53Z</time>
      </trkpt>
      <trkpt lat="44.09544" lon="1.13345">
        <ele>96.8</ele>
        <time>2023-07-06T12:22:58Z</time>
      </trkpt>
      <trkpt lat="44.09545" lon="1.13348">
        <ele>96.4</ele>
        <time>2023-07-06T12:23:00Z</time>
      </trkpt>
      <trkpt lat="44.09547" lon="1.13359">
        <ele>96.6</ele>
        <time>2023-07-06T12:23:06Z</time>
      </trkpt>
      <trkpt lat="44.09549" lon="1.13371">
        <ele>96.4</ele>
        <time>2023-07-06T12:23:14Z</time>
      </trkpt>
      <trkpt lat="44.09554" lon="1.13378">
        <ele>96.2</ele>
        <time>2023-07-06T12:23:19Z</time>
      </trkpt>
      <trkpt lat="44.09556" lon="1.13381">
        <ele>96.4</ele>
        <time>2023-07-06T12:23:21Z</time>
      </trkpt>
      <trkpt lat="44.09559" lon="1.13386">
        <ele>96.6</ele>
        <time>2023-07-06T12:23:25Z</time>
      </trkpt>
      <trkpt lat="44.09562" lon="1.13393">
        <ele>96.4</ele>
        <time>2023-07-06T12:23:29Z</time>
      </trkpt>
      <trkpt lat="44.09564" lon="1.13401">
        <ele>96.4</ele>
        <time>2023-07-06T12:23:34Z</time>
      </trkpt>
      <trkpt lat="44.09563" lon="1.13404">
        <ele>96.4</ele>
        <time>2023-07-06T12:23:36Z</time>
      </trkpt>
      <trkpt lat="44.09563" lon="1.13406">
        <ele>96.8</ele>
        <time>2023-07-06T12:23:37Z</time>
      </trkpt>
      <trkpt lat="44.09562" lon="1.13415">
        <ele>97.4</ele>
        <time>2023-07-06T12:23:43Z</time>
      </trkpt>
      <trkpt lat="44.09561" lon="1.13417">
        <ele>97.4</ele>
        <time>2023-07-06T12:23:44Z</time>
      </trkpt>
      <trkpt lat="44.09563" lon="1.13431">
        <ele>97</ele>
        <time>2023-07-06T12:23:51Z</time>
      </trkpt>
      <trkpt lat="44.09566" lon="1.13436">
        <ele>96.8</ele>
        <time>2023-07-06T12:23:54Z</time>
      </trkpt>
      <trkpt lat="44.09568" lon="1.13442">
        <ele>96.6</ele>
        <time>2023-07-06T12:23:58Z</time>
      </trkpt>
      <trkpt lat="44.0957" lon="1.13451">
        <ele>96.8</ele>
        <time>2023-07-06T12:24:04Z</time>
      </trkpt>
      <trkpt lat="44.09568" lon="1.13465">
        <ele>96.8</ele>
        <time>2023-07-06T12:24:11Z</time>
      </trkpt>
      <trkpt lat="44.09569" lon="1.13481">
        <ele>96.8</ele>
        <time>2023-07-06T12:24:20Z</time>
      </trkpt>
      <trkpt lat="44.09571" lon="1.13495">
        <ele>97</ele>
        <time>2023-07-06T12:24:28Z</time>
      </trkpt>
      <trkpt lat="44.09573" lon="1.13507">
        <ele>97</ele>
        <time>2023-07-06T12:24:36Z</time>
      </trkpt>
      <trkpt lat="44.09576" lon="1.13516">
        <ele>96.8</ele>
        <time>2023-07-06T12:24:41Z</time>
      </trkpt>
      <trkpt lat="44.09579" lon="1.13522">
        <ele>96.8</ele>
        <time>2023-07-06T12:24:44Z</time>
      </trkpt>
      <trkpt lat="44.0958" lon="1.13536">
        <ele>96.8</ele>
        <time>2023-07-06T12:24:53Z</time>
      </trkpt>
      <trkpt lat="44.09581" lon="1.13541">
        <ele>96.8</ele>
        <time>2023-07-06T12:24:56Z</time>
      </trkpt>
      <trkpt lat="44.0958" lon="1.13544">
        <ele>97</ele>
        <time>2023-07-06T12:24:58Z</time>
      </trkpt>
      <trkpt lat="44.09581" lon="1.1355">
        <ele>97</ele>
        <time>2023-07-06T12:25:02Z</time>
      </trkpt>
      <trkpt lat="44.09593" lon="1.13561">
        <ele>97</ele>
        <time>2023-07-06T12:25:08Z</time>
      </trkpt>
      <trkpt lat="44.09596" lon="1.13577">
        <ele>97</ele>
        <time>2023-07-06T12:25:17Z</time>
      </trkpt>
      <trkpt lat="44.09596" lon="1.13581">
        <ele>97</ele>
        <time>2023-07-06T12:25:19Z</time>
      </trkpt>
      <trkpt lat="44.09599" lon="1.13598">
        <ele>97.4</ele>
        <time>2023-07-06T12:25:29Z</time>
      </trkpt>
      <trkpt lat="44.096" lon="1.13606">
        <ele>97.4</ele>
        <time>2023-07-06T12:25:34Z</time>
      </trkpt>
      <trkpt lat="44.09601" lon="1.13614">
        <ele>97.8</ele>
        <time>2023-07-06T12:25:39Z</time>
      </trkpt>
      <trkpt lat="44.09607" lon="1.13619">
        <ele>97.8</ele>
        <time>2023-07-06T12:25:42Z</time>
      </trkpt>
      <trkpt lat="44.09608" lon="1.13621">
        <ele>97.8</ele>
        <time>2023-07-06T12:25:43Z</time>
      </trkpt>
      <trkpt lat="44.09609" lon="1.13624">
        <ele>97.8</ele>
        <time>2023-07-06T12:25:45Z</time>
      </trkpt>
      <trkpt lat="44.09609" lon="1.13625">
        <ele>97.8</ele>
        <time>2023-07-06T12:25:46Z</time>
      </trkpt>
      <trkpt lat="44.0961" lon="1.13632">
        <ele>97.6</ele>
        <time>2023-07-06T12:25:50Z</time>
      </trkpt>
      <trkpt lat="44.0961" lon="1.1364">
        <ele>97.2</ele>
        <time>2023-07-06T12:25:55Z</time>
      </trkpt>
      <trkpt lat="44.09611" lon="1.13645">
        <ele>97.4</ele>
        <time>2023-07-06T12:25:58Z</time>
      </trkpt>
      <trkpt lat="44.09612" lon="1.13652">
        <ele>97.6</ele>
        <time>2023-07-06T12:26:02Z</time>
      </trkpt>
      <trkpt lat="44.09614" lon="1.13658">
        <ele>97.6</ele>
        <time>2023-07-06T12:26:05Z</time>
      </trkpt>
      <trkpt lat="44.09619" lon="1.13671">
        <ele>97.4</ele>
        <time>2023-07-06T12:26:12Z</time>
      </trkpt>
      <trkpt lat="44.09619" lon="1.13684">
        <ele>97.4</ele>
        <time>2023-07-06T12:26:20Z</time>
      </trkpt>
      <trkpt lat="44.09621" lon="1.13697">
        <ele>97</ele>
        <time>2023-07-06T12:26:28Z</time>
      </trkpt>
      <trkpt lat="44.09622" lon="1.137">
        <ele>96.8</ele>
        <time>2023-07-06T12:26:30Z</time>
      </trkpt>
      <trkpt lat="44.09622" lon="1.13702">
        <ele>96.8</ele>
        <time>2023-07-06T12:26:31Z</time>
      </trkpt>
      <trkpt lat="44.09622" lon="1.13707">
        <ele>97</ele>
        <time>2023-07-06T12:26:34Z</time>
      </trkpt>
      <trkpt lat="44.09624" lon="1.13717">
        <ele>96.8</ele>
        <time>2023-07-06T12:26:39Z</time>
      </trkpt>
      <trkpt lat="44.09623" lon="1.1372">
        <ele>96.8</ele>
        <time>2023-07-06T12:26:41Z</time>
      </trkpt>
      <trkpt lat="44.09622" lon="1.13724">
        <ele>96.8</ele>
        <time>2023-07-06T12:26:43Z</time>
      </trkpt>
      <trkpt lat="44.09623" lon="1.13727">
        <ele>97</ele>
        <time>2023-07-06T12:26:45Z</time>
      </trkpt>
      <trkpt lat="44.09622" lon="1.1373">
        <ele>97</ele>
        <time>2023-07-06T12:26:47Z</time>
      </trkpt>
      <trkpt lat="44.09622" lon="1.1374">
        <ele>96.6</ele>
        <time>2023-07-06T12:26:53Z</time>
      </trkpt>
      <trkpt lat="44.09627" lon="1.13745">
        <ele>96.6</ele>
        <time>2023-07-06T12:26:56Z</time>
      </trkpt>
      <trkpt lat="44.0963" lon="1.13749">
        <ele>96.4</ele>
        <time>2023-07-06T12:26:58Z</time>
      </trkpt>
      <trkpt lat="44.09634" lon="1.13761">
        <ele>96.6</ele>
        <time>2023-07-06T12:27:05Z</time>
      </trkpt>
      <trkpt lat="44.09635" lon="1.13766">
        <ele>96.6</ele>
        <time>2023-07-06T12:27:09Z</time>
      </trkpt>
      <trkpt lat="44.09635" lon="1.13769">
        <ele>96.8</ele>
        <time>2023-07-06T12:27:11Z</time>
      </trkpt>
      <trkpt lat="44.09637" lon="1.13778">
        <ele>96.4</ele>
        <time>2023-07-06T12:27:18Z</time>
      </trkpt>
      <trkpt lat="44.09637" lon="1.13781">
        <ele>96.2</ele>
        <time>2023-07-06T12:27:20Z</time>
      </trkpt>
      <trkpt lat="44.09637" lon="1.13789">
        <ele>96</ele>
        <time>2023-07-06T12:27:24Z</time>
      </trkpt>
      <trkpt lat="44.09637" lon="1.13796">
        <ele>96.2</ele>
        <time>2023-07-06T12:27:28Z</time>
      </trkpt>
      <trkpt lat="44.09641" lon="1.13801">
        <ele>96.4</ele>
        <time>2023-07-06T12:27:31Z</time>
      </trkpt>
      <trkpt lat="44.09643" lon="1.13804">
        <ele>96.4</ele>
        <time>2023-07-06T12:27:33Z</time>
      </trkpt>
      <trkpt lat="44.09643" lon="1.13806">
        <ele>96.4</ele>
        <time>2023-07-06T12:27:34Z</time>
      </trkpt>
      <trkpt lat="44.09645" lon="1.13814">
        <ele>96.2</ele>
        <time>2023-07-06T12:27:39Z</time>
      </trkpt>
      <trkpt lat="44.09646" lon="1.13828">
        <ele>96.2</ele>
        <time>2023-07-06T12:27:48Z</time>
      </trkpt>
      <trkpt lat="44.09647" lon="1.13837">
        <ele>96.4</ele>
        <time>2023-07-06T12:27:53Z</time>
      </trkpt>
      <trkpt lat="44.09647" lon="1.13841">
        <ele>96.4</ele>
        <time>2023-07-06T12:27:56Z</time>
      </trkpt>
      <trkpt lat="44.09646" lon="1.13849">
        <ele>95.8</ele>
        <time>2023-07-06T12:28:00Z</time>
      </trkpt>
      <trkpt lat="44.09646" lon="1.13852">
        <ele>95.8</ele>
        <time>2023-07-06T12:28:02Z</time>
      </trkpt>
      <trkpt lat="44.09649" lon="1.13868">
        <ele>96.6</ele>
        <time>2023-07-06T12:28:11Z</time>
      </trkpt>
      <trkpt lat="44.09657" lon="1.13881">
        <ele>96.6</ele>
        <time>2023-07-06T12:28:19Z</time>
      </trkpt>
      <trkpt lat="44.09658" lon="1.13892">
        <ele>96.4</ele>
        <time>2023-07-06T12:28:25Z</time>
      </trkpt>
      <trkpt lat="44.09659" lon="1.13894">
        <ele>96.4</ele>
        <time>2023-07-06T12:28:26Z</time>
      </trkpt>
      <trkpt lat="44.0966" lon="1.13902">
        <ele>96.6</ele>
        <time>2023-07-06T12:28:31Z</time>
      </trkpt>
      <trkpt lat="44.09661" lon="1.13907">
        <ele>97.2</ele>
        <time>2023-07-06T12:28:34Z</time>
      </trkpt>
      <trkpt lat="44.09661" lon="1.13918">
        <ele>96.8</ele>
        <time>2023-07-06T12:28:41Z</time>
      </trkpt>
      <trkpt lat="44.09661" lon="1.13924">
        <ele>96.8</ele>
        <time>2023-07-06T12:28:44Z</time>
      </trkpt>
      <trkpt lat="44.09664" lon="1.13925">
        <ele>96.8</ele>
        <time>2023-07-06T12:28:45Z</time>
      </trkpt>
      <trkpt lat="44.09665" lon="1.13927">
        <ele>96.6</ele>
        <time>2023-07-06T12:28:46Z</time>
      </trkpt>
      <trkpt lat="44.09668" lon="1.13938">
        <ele>96.8</ele>
        <time>2023-07-06T12:28:53Z</time>
      </trkpt>
      <trkpt lat="44.09672" lon="1.13955">
        <ele>96.6</ele>
        <time>2023-07-06T12:29:02Z</time>
      </trkpt>
      <trkpt lat="44.09671" lon="1.13964">
        <ele>96.4</ele>
        <time>2023-07-06T12:29:09Z</time>
      </trkpt>
      <trkpt lat="44.09672" lon="1.13975">
        <ele>97</ele>
        <time>2023-07-06T12:29:16Z</time>
      </trkpt>
      <trkpt lat="44.09672" lon="1.13978">
        <ele>97.2</ele>
        <time>2023-07-06T12:29:18Z</time>
      </trkpt>
      <trkpt lat="44.09672" lon="1.13983">
        <ele>97.4</ele>
        <time>2023-07-06T12:29:21Z</time>
      </trkpt>
      <trkpt lat="44.09674" lon="1.13995">
        <ele>97</ele>
        <time>2023-07-06T12:29:28Z</time>
      </trkpt>
      <trkpt lat="44.09675" lon="1.13996">
        <ele>97</ele>
        <time>2023-07-06T12:29:29Z</time>
      </trkpt>
      <trkpt lat="44.09676" lon="1.14001">
        <ele>97</ele>
        <time>2023-07-06T12:29:32Z</time>
      </trkpt>
      <trkpt lat="44.09677" lon="1.14003">
        <ele>97</ele>
        <time>2023-07-06T12:29:33Z</time>
      </trkpt>
      <trkpt lat="44.09681" lon="1.14017">
        <ele>97</ele>
        <time>2023-07-06T12:29:41Z</time>
      </trkpt>
      <trkpt lat="44.09681" lon="1.14019">
        <ele>97</ele>
        <time>2023-07-06T12:29:42Z</time>
      </trkpt>
      <trkpt lat="44.09681" lon="1.14023">
        <ele>97.4</ele>
        <time>2023-07-06T12:29:45Z</time>
      </trkpt>
      <trkpt lat="44.09683" lon="1.14027">
        <ele>97.4</ele>
        <time>2023-07-06T12:29:48Z</time>
      </trkpt>
      <trkpt lat="44.09684" lon="1.14035">
        <ele>97.2</ele>
        <time>2023-07-06T12:29:52Z</time>
      </trkpt>
      <trkpt lat="44.09685" lon="1.14042">
        <ele>97.2</ele>
        <time>2023-07-06T12:29:55Z</time>
      </trkpt>
      <trkpt lat="44.09687" lon="1.14059">
        <ele>97.2</ele>
        <time>2023-07-06T12:30:03Z</time>
      </trkpt>
      <trkpt lat="44.09687" lon="1.14061">
        <ele>97.2</ele>
        <time>2023-07-06T12:30:04Z</time>
      </trkpt>
      <trkpt lat="44.09689" lon="1.14074">
        <ele>97.4</ele>
        <time>2023-07-06T12:30:13Z</time>
      </trkpt>
      <trkpt lat="44.0969" lon="1.14079">
        <ele>97.8</ele>
        <time>2023-07-06T12:30:16Z</time>
      </trkpt>
      <trkpt lat="44.09694" lon="1.14085">
        <ele>98.2</ele>
        <time>2023-07-06T12:30:20Z</time>
      </trkpt>
      <trkpt lat="44.09694" lon="1.14086">
        <ele>98.2</ele>
        <time>2023-07-06T12:30:21Z</time>
      </trkpt>
      <trkpt lat="44.09694" lon="1.14088">
        <ele>98</ele>
        <time>2023-07-06T12:30:22Z</time>
      </trkpt>
      <trkpt lat="44.09693" lon="1.14096">
        <ele>97.8</ele>
        <time>2023-07-06T12:30:26Z</time>
      </trkpt>
      <trkpt lat="44.09698" lon="1.14107">
        <ele>98</ele>
        <time>2023-07-06T12:30:33Z</time>
      </trkpt>
      <trkpt lat="44.09699" lon="1.14119">
        <ele>98</ele>
        <time>2023-07-06T12:30:40Z</time>
      </trkpt>
      <trkpt lat="44.09707" lon="1.1413">
        <ele>97.8</ele>
        <time>2023-07-06T12:30:46Z</time>
      </trkpt>
      <trkpt lat="44.09711" lon="1.14137">
        <ele>97.8</ele>
        <time>2023-07-06T12:30:51Z</time>
      </trkpt>
      <trkpt lat="44.09711" lon="1.14141">
        <ele>97.6</ele>
        <time>2023-07-06T12:30:53Z</time>
      </trkpt>
      <trkpt lat="44.09711" lon="1.14143">
        <ele>97.6</ele>
        <time>2023-07-06T12:30:54Z</time>
      </trkpt>
      <trkpt lat="44.09711" lon="1.14151">
        <ele>97.6</ele>
        <time>2023-07-06T12:30:59Z</time>
      </trkpt>
      <trkpt lat="44.09714" lon="1.1416">
        <ele>97.4</ele>
        <time>2023-07-06T12:31:04Z</time>
      </trkpt>
      <trkpt lat="44.09715" lon="1.14165">
        <ele>97.6</ele>
        <time>2023-07-06T12:31:07Z</time>
      </trkpt>
      <trkpt lat="44.09715" lon="1.14171">
        <ele>97.8</ele>
        <time>2023-07-06T12:31:10Z</time>
      </trkpt>
      <trkpt lat="44.09714" lon="1.14174">
        <ele>97.8</ele>
        <time>2023-07-06T12:31:12Z</time>
      </trkpt>
      <trkpt lat="44.09714" lon="1.14178">
        <ele>97.8</ele>
        <time>2023-07-06T12:31:14Z</time>
      </trkpt>
      <trkpt lat="44.09715" lon="1.14181">
        <ele>97.8</ele>
        <time>2023-07-06T12:31:16Z</time>
      </trkpt>
      <trkpt lat="44.09715" lon="1.14191">
        <ele>97.8</ele>
        <time>2023-07-06T12:31:21Z</time>
      </trkpt>
      <trkpt lat="44.09715" lon="1.14196">
        <ele>97.8</ele>
        <time>2023-07-06T12:31:24Z</time>
      </trkpt>
      <trkpt lat="44.09719" lon="1.142">
        <ele>97.8</ele>
        <time>2023-07-06T12:31:27Z</time>
      </trkpt>
      <trkpt lat="44.0972" lon="1.14203">
        <ele>97.8</ele>
        <time>2023-07-06T12:31:29Z</time>
      </trkpt>
      <trkpt lat="44.09723" lon="1.14213">
        <ele>97.4</ele>
        <time>2023-07-06T12:31:35Z</time>
      </trkpt>
      <trkpt lat="44.0973" lon="1.14226">
        <ele>97.4</ele>
        <time>2023-07-06T12:31:43Z</time>
      </trkpt>
      <trkpt lat="44.09734" lon="1.14238">
        <ele>97.4</ele>
        <time>2023-07-06T12:31:50Z</time>
      </trkpt>
      <trkpt lat="44.09734" lon="1.14239">
        <ele>97.4</ele>
        <time>2023-07-06T12:31:51Z</time>
      </trkpt>
      <trkpt lat="44.09734" lon="1.14241">
        <ele>97.4</ele>
        <time>2023-07-06T12:31:52Z</time>
      </trkpt>
      <trkpt lat="44.09737" lon="1.14244">
        <ele>97.2</ele>
        <time>2023-07-06T12:31:57Z</time>
      </trkpt>
      <trkpt lat="44.09737" lon="1.14251">
        <ele>97</ele>
        <time>2023-07-06T12:32:09Z</time>
      </trkpt>
      <trkpt lat="44.09736" lon="1.14253">
        <ele>97</ele>
        <time>2023-07-06T12:32:10Z</time>
      </trkpt>
      <trkpt lat="44.09736" lon="1.14257">
        <ele>97</ele>
        <time>2023-07-06T12:32:12Z</time>
      </trkpt>
      <trkpt lat="44.09735" lon="1.14259">
        <ele>97</ele>
        <time>2023-07-06T12:32:13Z</time>
      </trkpt>
      <trkpt lat="44.09734" lon="1.14269">
        <ele>97.6</ele>
        <time>2023-07-06T12:32:18Z</time>
      </trkpt>
      <trkpt lat="44.09735" lon="1.14275">
        <ele>97.6</ele>
        <time>2023-07-06T12:32:22Z</time>
      </trkpt>
      <trkpt lat="44.09736" lon="1.14279">
        <ele>97.6</ele>
        <time>2023-07-06T12:32:24Z</time>
      </trkpt>
      <trkpt lat="44.09738" lon="1.14281">
        <ele>97.6</ele>
        <time>2023-07-06T12:32:25Z</time>
      </trkpt>
      <trkpt lat="44.09741" lon="1.1429">
        <ele>97.6</ele>
        <time>2023-07-06T12:32:31Z</time>
      </trkpt>
      <trkpt lat="44.09743" lon="1.14296">
        <ele>97.4</ele>
        <time>2023-07-06T12:32:35Z</time>
      </trkpt>
      <trkpt lat="44.09745" lon="1.14303">
        <ele>97.6</ele>
        <time>2023-07-06T12:32:39Z</time>
      </trkpt>
      <trkpt lat="44.09746" lon="1.14312">
        <ele>97.4</ele>
        <time>2023-07-06T12:32:45Z</time>
      </trkpt>
      <trkpt lat="44.09748" lon="1.14316">
        <ele>97.4</ele>
        <time>2023-07-06T12:32:48Z</time>
      </trkpt>
      <trkpt lat="44.09751" lon="1.14322">
        <ele>97.4</ele>
        <time>2023-07-06T12:32:52Z</time>
      </trkpt>
      <trkpt lat="44.09753" lon="1.14325">
        <ele>97.4</ele>
        <time>2023-07-06T12:32:54Z</time>
      </trkpt>
      <trkpt lat="44.09754" lon="1.14327">
        <ele>97.4</ele>
        <time>2023-07-06T12:32:55Z</time>
      </trkpt>
      <trkpt lat="44.09755" lon="1.1433">
        <ele>97.2</ele>
        <time>2023-07-06T12:32:57Z</time>
      </trkpt>
      <trkpt lat="44.09757" lon="1.14337">
        <ele>97.6</ele>
        <time>2023-07-06T12:33:01Z</time>
      </trkpt>
      <trkpt lat="44.09761" lon="1.14343">
        <ele>97.6</ele>
        <time>2023-07-06T12:33:05Z</time>
      </trkpt>
      <trkpt lat="44.09762" lon="1.14345">
        <ele>97.6</ele>
        <time>2023-07-06T12:33:06Z</time>
      </trkpt>
      <trkpt lat="44.09764" lon="1.14356">
        <ele>97.8</ele>
        <time>2023-07-06T12:33:12Z</time>
      </trkpt>
      <trkpt lat="44.09767" lon="1.14372">
        <ele>97.6</ele>
        <time>2023-07-06T12:33:21Z</time>
      </trkpt>
      <trkpt lat="44.0977" lon="1.14382">
        <ele>97.6</ele>
        <time>2023-07-06T12:33:27Z</time>
      </trkpt>
      <trkpt lat="44.09772" lon="1.14388">
        <ele>97.6</ele>
        <time>2023-07-06T12:33:31Z</time>
      </trkpt>
      <trkpt lat="44.09774" lon="1.14395">
        <ele>98.2</ele>
        <time>2023-07-06T12:33:35Z</time>
      </trkpt>
      <trkpt lat="44.09777" lon="1.14406">
        <ele>98.2</ele>
        <time>2023-07-06T12:33:42Z</time>
      </trkpt>
      <trkpt lat="44.09777" lon="1.14417">
        <ele>97.8</ele>
        <time>2023-07-06T12:33:48Z</time>
      </trkpt>
      <trkpt lat="44.09778" lon="1.1442">
        <ele>97.8</ele>
        <time>2023-07-06T12:33:50Z</time>
      </trkpt>
      <trkpt lat="44.09779" lon="1.1443">
        <ele>97.8</ele>
        <time>2023-07-06T12:33:56Z</time>
      </trkpt>
      <trkpt lat="44.0978" lon="1.14433">
        <ele>97.8</ele>
        <time>2023-07-06T12:33:58Z</time>
      </trkpt>
      <trkpt lat="44.09782" lon="1.14441">
        <ele>97.6</ele>
        <time>2023-07-06T12:34:03Z</time>
      </trkpt>
      <trkpt lat="44.09784" lon="1.14445">
        <ele>97.6</ele>
        <time>2023-07-06T12:34:06Z</time>
      </trkpt>
      <trkpt lat="44.09788" lon="1.14456">
        <ele>98</ele>
        <time>2023-07-06T12:34:13Z</time>
      </trkpt>
      <trkpt lat="44.09789" lon="1.14457">
        <ele>98</ele>
        <time>2023-07-06T12:34:14Z</time>
      </trkpt>
      <trkpt lat="44.09791" lon="1.14466">
        <ele>98</ele>
        <time>2023-07-06T12:34:19Z</time>
      </trkpt>
      <trkpt lat="44.09794" lon="1.14472">
        <ele>97.8</ele>
        <time>2023-07-06T12:34:23Z</time>
      </trkpt>
      <trkpt lat="44.09799" lon="1.14481">
        <ele>98.4</ele>
        <time>2023-07-06T12:34:29Z</time>
      </trkpt>
      <trkpt lat="44.098" lon="1.14482">
        <ele>98.2</ele>
        <time>2023-07-06T12:34:30Z</time>
      </trkpt>
      <trkpt lat="44.09802" lon="1.14488">
        <ele>98.2</ele>
        <time>2023-07-06T12:34:34Z</time>
      </trkpt>
      <trkpt lat="44.09804" lon="1.14498">
        <ele>98.4</ele>
        <time>2023-07-06T12:34:40Z</time>
      </trkpt>
      <trkpt lat="44.09808" lon="1.1451">
        <ele>97.8</ele>
        <time>2023-07-06T12:34:48Z</time>
      </trkpt>
      <trkpt lat="44.0981" lon="1.14523">
        <ele>97.6</ele>
        <time>2023-07-06T12:34:56Z</time>
      </trkpt>
      <trkpt lat="44.0981" lon="1.14529">
        <ele>97.6</ele>
        <time>2023-07-06T12:35:00Z</time>
      </trkpt>
      <trkpt lat="44.09811" lon="1.14532">
        <ele>97.6</ele>
        <time>2023-07-06T12:35:02Z</time>
      </trkpt>
      <trkpt lat="44.09812" lon="1.14536">
        <ele>97.6</ele>
        <time>2023-07-06T12:35:04Z</time>
      </trkpt>
      <trkpt lat="44.09813" lon="1.1454">
        <ele>97.6</ele>
        <time>2023-07-06T12:35:06Z</time>
      </trkpt>
      <trkpt lat="44.09813" lon="1.14541">
        <ele>97.8</ele>
        <time>2023-07-06T12:35:07Z</time>
      </trkpt>
      <trkpt lat="44.09814" lon="1.14543">
        <ele>97.8</ele>
        <time>2023-07-06T12:35:08Z</time>
      </trkpt>
      <trkpt lat="44.09815" lon="1.14547">
        <ele>97.8</ele>
        <time>2023-07-06T12:35:10Z</time>
      </trkpt>
      <trkpt lat="44.09816" lon="1.14548">
        <ele>98</ele>
        <time>2023-07-06T12:35:11Z</time>
      </trkpt>
      <trkpt lat="44.09818" lon="1.1455">
        <ele>98</ele>
        <time>2023-07-06T12:35:12Z</time>
      </trkpt>
      <trkpt lat="44.09821" lon="1.14554">
        <ele>98.2</ele>
        <time>2023-07-06T12:35:15Z</time>
      </trkpt>
      <trkpt lat="44.09825" lon="1.14558">
        <ele>98</ele>
        <time>2023-07-06T12:35:18Z</time>
      </trkpt>
      <trkpt lat="44.09829" lon="1.14562">
        <ele>97.6</ele>
        <time>2023-07-06T12:35:21Z</time>
      </trkpt>
      <trkpt lat="44.09831" lon="1.14565">
        <ele>97.4</ele>
        <time>2023-07-06T12:35:23Z</time>
      </trkpt>
      <trkpt lat="44.09837" lon="1.14571">
        <ele>98</ele>
        <time>2023-07-06T12:35:28Z</time>
      </trkpt>
      <trkpt lat="44.09838" lon="1.14573">
        <ele>98</ele>
        <time>2023-07-06T12:35:29Z</time>
      </trkpt>
      <trkpt lat="44.09839" lon="1.14574">
        <ele>97.6</ele>
        <time>2023-07-06T12:35:32Z</time>
      </trkpt>
      <trkpt lat="44.09842" lon="1.14575">
        <ele>98</ele>
        <time>2023-07-06T12:35:52Z</time>
      </trkpt>
      <trkpt lat="44.09842" lon="1.14575">
        <ele>97.8</ele>
        <time>2023-07-06T12:35:53Z</time>
      </trkpt>
      <trkpt lat="44.09838" lon="1.14579">
        <ele>98</ele>
        <time>2023-07-06T12:35:59Z</time>
      </trkpt>
      <trkpt lat="44.09838" lon="1.14586">
        <ele>98.2</ele>
        <time>2023-07-06T12:36:03Z</time>
      </trkpt>
      <trkpt lat="44.09839" lon="1.14591">
        <ele>98.2</ele>
        <time>2023-07-06T12:36:06Z</time>
      </trkpt>
      <trkpt lat="44.09843" lon="1.14598">
        <ele>98.4</ele>
        <time>2023-07-06T12:36:11Z</time>
      </trkpt>
      <trkpt lat="44.09844" lon="1.14601">
        <ele>98</ele>
        <time>2023-07-06T12:36:13Z</time>
      </trkpt>
      <trkpt lat="44.09849" lon="1.14613">
        <ele>98.2</ele>
        <time>2023-07-06T12:36:21Z</time>
      </trkpt>
      <trkpt lat="44.09853" lon="1.14621">
        <ele>98.2</ele>
        <time>2023-07-06T12:36:27Z</time>
      </trkpt>
      <trkpt lat="44.09857" lon="1.14625">
        <ele>98.2</ele>
        <time>2023-07-06T12:36:30Z</time>
      </trkpt>
      <trkpt lat="44.09858" lon="1.14629">
        <ele>98.6</ele>
        <time>2023-07-06T12:36:33Z</time>
      </trkpt>
      <trkpt lat="44.09864" lon="1.14644">
        <ele>98.8</ele>
        <time>2023-07-06T12:36:42Z</time>
      </trkpt>
      <trkpt lat="44.09869" lon="1.14651">
        <ele>98.8</ele>
        <time>2023-07-06T12:36:47Z</time>
      </trkpt>
      <trkpt lat="44.09873" lon="1.14657">
        <ele>99</ele>
        <time>2023-07-06T12:36:51Z</time>
      </trkpt>
      <trkpt lat="44.09875" lon="1.14662">
        <ele>99</ele>
        <time>2023-07-06T12:36:55Z</time>
      </trkpt>
      <trkpt lat="44.09878" lon="1.1467">
        <ele>99</ele>
        <time>2023-07-06T12:37:00Z</time>
      </trkpt>
      <trkpt lat="44.0988" lon="1.14673">
        <ele>99.2</ele>
        <time>2023-07-06T12:37:02Z</time>
      </trkpt>
      <trkpt lat="44.09882" lon="1.14682">
        <ele>99.4</ele>
        <time>2023-07-06T12:37:08Z</time>
      </trkpt>
      <trkpt lat="44.09883" lon="1.14684">
        <ele>99.4</ele>
        <time>2023-07-06T12:37:10Z</time>
      </trkpt>
      <trkpt lat="44.09884" lon="1.14693">
        <ele>99.4</ele>
        <time>2023-07-06T12:37:16Z</time>
      </trkpt>
      <trkpt lat="44.0989" lon="1.14701">
        <ele>99.4</ele>
        <time>2023-07-06T12:37:22Z</time>
      </trkpt>
      <trkpt lat="44.09895" lon="1.14709">
        <ele>99.2</ele>
        <time>2023-07-06T12:37:30Z</time>
      </trkpt>
      <trkpt lat="44.09901" lon="1.14717">
        <ele>99.2</ele>
        <time>2023-07-06T12:37:37Z</time>
      </trkpt>
      <trkpt lat="44.09905" lon="1.14728">
        <ele>99.2</ele>
        <time>2023-07-06T12:37:44Z</time>
      </trkpt>
      <trkpt lat="44.09911" lon="1.14742">
        <ele>99.2</ele>
        <time>2023-07-06T12:37:53Z</time>
      </trkpt>
      <trkpt lat="44.09912" lon="1.14746">
        <ele>99.2</ele>
        <time>2023-07-06T12:37:56Z</time>
      </trkpt>
      <trkpt lat="44.09916" lon="1.14751">
        <ele>99</ele>
        <time>2023-07-06T12:38:00Z</time>
      </trkpt>
      <trkpt lat="44.09925" lon="1.1476">
        <ele>99.2</ele>
        <time>2023-07-06T12:38:08Z</time>
      </trkpt>
      <trkpt lat="44.09929" lon="1.14764">
        <ele>99.2</ele>
        <time>2023-07-06T12:38:12Z</time>
      </trkpt>
      <trkpt lat="44.09929" lon="1.14766">
        <ele>99.4</ele>
        <time>2023-07-06T12:38:14Z</time>
      </trkpt>
      <trkpt lat="44.0993" lon="1.14768">
        <ele>99.4</ele>
        <time>2023-07-06T12:38:16Z</time>
      </trkpt>
      <trkpt lat="44.09939" lon="1.14773">
        <ele>99.4</ele>
        <time>2023-07-06T12:38:23Z</time>
      </trkpt>
      <trkpt lat="44.09948" lon="1.14769">
        <ele>99.6</ele>
        <time>2023-07-06T12:38:29Z</time>
      </trkpt>
      <trkpt lat="44.09954" lon="1.14755">
        <ele>99.8</ele>
        <time>2023-07-06T12:38:38Z</time>
      </trkpt>
      <trkpt lat="44.09955" lon="1.14754">
        <ele>99.8</ele>
        <time>2023-07-06T12:38:39Z</time>
      </trkpt>
      <trkpt lat="44.09955" lon="1.14753">
        <ele>99.8</ele>
        <time>2023-07-06T12:38:40Z</time>
      </trkpt>
      <trkpt lat="44.09957" lon="1.1475">
        <ele>100</ele>
        <time>2023-07-06T12:38:42Z</time>
      </trkpt>
      <trkpt lat="44.09961" lon="1.14743">
        <ele>100.2</ele>
        <time>2023-07-06T12:38:47Z</time>
      </trkpt>
      <trkpt lat="44.09967" lon="1.14735">
        <ele>100.8</ele>
        <time>2023-07-06T12:38:53Z</time>
      </trkpt>
      <trkpt lat="44.09968" lon="1.14733">
        <ele>100.6</ele>
        <time>2023-07-06T12:38:55Z</time>
      </trkpt>
      <trkpt lat="44.09975" lon="1.14726">
        <ele>100.4</ele>
        <time>2023-07-06T12:39:02Z</time>
      </trkpt>
      <trkpt lat="44.09983" lon="1.14721">
        <ele>100.4</ele>
        <time>2023-07-06T12:39:09Z</time>
      </trkpt>
      <trkpt lat="44.09991" lon="1.14719">
        <ele>100.4</ele>
        <time>2023-07-06T12:39:15Z</time>
      </trkpt>
      <trkpt lat="44.09992" lon="1.14719">
        <ele>100.4</ele>
        <time>2023-07-06T12:39:16Z</time>
      </trkpt>
      <trkpt lat="44.09995" lon="1.14718">
        <ele>100.2</ele>
        <time>2023-07-06T12:39:18Z</time>
      </trkpt>
      <trkpt lat="44.09998" lon="1.14716">
        <ele>100.2</ele>
        <time>2023-07-06T12:39:21Z</time>
      </trkpt>
      <trkpt lat="44.10003" lon="1.14713">
        <ele>100.2</ele>
        <time>2023-07-06T12:39:25Z</time>
      </trkpt>
      <trkpt lat="44.10012" lon="1.1471">
        <ele>100</ele>
        <time>2023-07-06T12:39:31Z</time>
      </trkpt>
      <trkpt lat="44.10015" lon="1.14708">
        <ele>99.8</ele>
        <time>2023-07-06T12:39:34Z</time>
      </trkpt>
      <trkpt lat="44.10026" lon="1.14703">
        <ele>100</ele>
        <time>2023-07-06T12:39:43Z</time>
      </trkpt>
      <trkpt lat="44.10036" lon="1.14697">
        <ele>100.2</ele>
        <time>2023-07-06T12:39:51Z</time>
      </trkpt>
      <trkpt lat="44.10038" lon="1.14695">
        <ele>100.2</ele>
        <time>2023-07-06T12:39:53Z</time>
      </trkpt>
      <trkpt lat="44.10046" lon="1.14691">
        <ele>103</ele>
        <time>2023-07-06T12:58:02Z</time>
      </trkpt>
      <trkpt lat="44.10046" lon="1.14691">
        <ele>103.2</ele>
        <time>2023-07-06T12:58:03Z</time>
      </trkpt>
      <trkpt lat="44.10047" lon="1.14691">
        <ele>103.4</ele>
        <time>2023-07-06T12:58:04Z</time>
      </trkpt>
      <trkpt lat="44.1005" lon="1.14692">
        <ele>104.4</ele>
        <time>2023-07-06T12:58:12Z</time>
      </trkpt>
      <trkpt lat="44.10051" lon="1.14691">
        <ele>104.2</ele>
        <time>2023-07-06T12:58:13Z</time>
      </trkpt>
      <trkpt lat="44.10058" lon="1.14687">
        <ele>104</ele>
        <time>2023-07-06T12:58:22Z</time>
      </trkpt>
      <trkpt lat="44.10059" lon="1.14685">
        <ele>104</ele>
        <time>2023-07-06T12:58:24Z</time>
      </trkpt>
      <trkpt lat="44.10066" lon="1.14681">
        <ele>104</ele>
        <time>2023-07-06T12:58:31Z</time>
      </trkpt>
      <trkpt lat="44.10074" lon="1.14677">
        <ele>104.2</ele>
        <time>2023-07-06T12:58:40Z</time>
      </trkpt>
      <trkpt lat="44.10081" lon="1.14674">
        <ele>104.2</ele>
        <time>2023-07-06T12:58:47Z</time>
      </trkpt>
      <trkpt lat="44.1009" lon="1.1467">
        <ele>104</ele>
        <time>2023-07-06T12:58:54Z</time>
      </trkpt>
      <trkpt lat="44.10097" lon="1.14664">
        <ele>104</ele>
        <time>2023-07-06T12:59:02Z</time>
      </trkpt>
      <trkpt lat="44.10106" lon="1.14659">
        <ele>104.2</ele>
        <time>2023-07-06T12:59:10Z</time>
      </trkpt>
      <trkpt lat="44.10108" lon="1.14658">
        <ele>104.2</ele>
        <time>2023-07-06T12:59:13Z</time>
      </trkpt>
      <trkpt lat="44.10112" lon="1.14656">
        <ele>104.2</ele>
        <time>2023-07-06T12:59:16Z</time>
      </trkpt>
      <trkpt lat="44.10116" lon="1.14655">
        <ele>104.2</ele>
        <time>2023-07-06T12:59:19Z</time>
      </trkpt>
      <trkpt lat="44.10123" lon="1.14652">
        <ele>104.2</ele>
        <time>2023-07-06T12:59:26Z</time>
      </trkpt>
      <trkpt lat="44.10134" lon="1.14647">
        <ele>104</ele>
        <time>2023-07-06T12:59:36Z</time>
      </trkpt>
      <trkpt lat="44.1014" lon="1.14642">
        <ele>104</ele>
        <time>2023-07-06T12:59:41Z</time>
      </trkpt>
      <trkpt lat="44.1014" lon="1.14642">
        <ele>104</ele>
        <time>2023-07-06T12:59:42Z</time>
      </trkpt>
      <trkpt lat="44.10144" lon="1.1464">
        <ele>104.2</ele>
        <time>2023-07-06T12:59:45Z</time>
      </trkpt>
      <trkpt lat="44.10147" lon="1.14637">
        <ele>104.4</ele>
        <time>2023-07-06T12:59:48Z</time>
      </trkpt>
      <trkpt lat="44.10149" lon="1.14636">
        <ele>104.4</ele>
        <time>2023-07-06T12:59:50Z</time>
      </trkpt>
      <trkpt lat="44.10151" lon="1.14635">
        <ele>104.4</ele>
        <time>2023-07-06T12:59:52Z</time>
      </trkpt>
      <trkpt lat="44.1016" lon="1.14631">
        <ele>104.6</ele>
        <time>2023-07-06T12:59:59Z</time>
      </trkpt>
      <trkpt lat="44.10168" lon="1.14628">
        <ele>104.4</ele>
        <time>2023-07-06T13:00:05Z</time>
      </trkpt>
      <trkpt lat="44.10169" lon="1.14627">
        <ele>104.4</ele>
        <time>2023-07-06T13:00:06Z</time>
      </trkpt>
      <trkpt lat="44.10177" lon="1.14624">
        <ele>105</ele>
        <time>2023-07-06T13:00:12Z</time>
      </trkpt>
      <trkpt lat="44.10177" lon="1.14622">
        <ele>105</ele>
        <time>2023-07-06T13:00:13Z</time>
      </trkpt>
      <trkpt lat="44.10181" lon="1.1462">
        <ele>105</ele>
        <time>2023-07-06T13:00:16Z</time>
      </trkpt>
      <trkpt lat="44.10183" lon="1.14619">
        <ele>104.8</ele>
        <time>2023-07-06T13:00:18Z</time>
      </trkpt>
      <trkpt lat="44.10192" lon="1.14615">
        <ele>104.2</ele>
        <time>2023-07-06T13:00:27Z</time>
      </trkpt>
      <trkpt lat="44.102" lon="1.14613">
        <ele>104.2</ele>
        <time>2023-07-06T13:00:35Z</time>
      </trkpt>
      <trkpt lat="44.10208" lon="1.14609">
        <ele>103.8</ele>
        <time>2023-07-06T13:00:41Z</time>
      </trkpt>
      <trkpt lat="44.10219" lon="1.14602">
        <ele>103.8</ele>
        <time>2023-07-06T13:00:49Z</time>
      </trkpt>
      <trkpt lat="44.10224" lon="1.14599">
        <ele>103.6</ele>
        <time>2023-07-06T13:00:54Z</time>
      </trkpt>
      <trkpt lat="44.10227" lon="1.14598">
        <ele>103.4</ele>
        <time>2023-07-06T13:00:56Z</time>
      </trkpt>
      <trkpt lat="44.10231" lon="1.14597">
        <ele>103.2</ele>
        <time>2023-07-06T13:00:59Z</time>
      </trkpt>
      <trkpt lat="44.10233" lon="1.14596">
        <ele>103.4</ele>
        <time>2023-07-06T13:01:01Z</time>
      </trkpt>
      <trkpt lat="44.10237" lon="1.14594">
        <ele>103.6</ele>
        <time>2023-07-06T13:01:04Z</time>
      </trkpt>
      <trkpt lat="44.10241" lon="1.14591">
        <ele>103.4</ele>
        <time>2023-07-06T13:01:08Z</time>
      </trkpt>
      <trkpt lat="44.10249" lon="1.14585">
        <ele>103.2</ele>
        <time>2023-07-06T13:01:16Z</time>
      </trkpt>
      <trkpt lat="44.1025" lon="1.14584">
        <ele>103.2</ele>
        <time>2023-07-06T13:01:17Z</time>
      </trkpt>
      <trkpt lat="44.10252" lon="1.14583">
        <ele>103.2</ele>
        <time>2023-07-06T13:01:19Z</time>
      </trkpt>
      <trkpt lat="44.10255" lon="1.14582">
        <ele>103.6</ele>
        <time>2023-07-06T13:01:22Z</time>
      </trkpt>
      <trkpt lat="44.10259" lon="1.1458">
        <ele>103.8</ele>
        <time>2023-07-06T13:01:26Z</time>
      </trkpt>
      <trkpt lat="44.1026" lon="1.14579">
        <ele>103.8</ele>
        <time>2023-07-06T13:01:27Z</time>
      </trkpt>
      <trkpt lat="44.10264" lon="1.14578">
        <ele>103.8</ele>
        <time>2023-07-06T13:01:30Z</time>
      </trkpt>
      <trkpt lat="44.10266" lon="1.14576">
        <ele>103.8</ele>
        <time>2023-07-06T13:01:32Z</time>
      </trkpt>
      <trkpt lat="44.10268" lon="1.14575">
        <ele>103.6</ele>
        <time>2023-07-06T13:01:34Z</time>
      </trkpt>
      <trkpt lat="44.10272" lon="1.14574">
        <ele>103.6</ele>
        <time>2023-07-06T13:01:37Z</time>
      </trkpt>
      <trkpt lat="44.10275" lon="1.14572">
        <ele>103.6</ele>
        <time>2023-07-06T13:01:40Z</time>
      </trkpt>
      <trkpt lat="44.1028" lon="1.1457">
        <ele>103.2</ele>
        <time>2023-07-06T13:01:44Z</time>
      </trkpt>
      <trkpt lat="44.10289" lon="1.14563">
        <ele>103</ele>
        <time>2023-07-06T13:01:52Z</time>
      </trkpt>
      <trkpt lat="44.10292" lon="1.1456">
        <ele>103.2</ele>
        <time>2023-07-06T13:01:55Z</time>
      </trkpt>
      <trkpt lat="44.10297" lon="1.14557">
        <ele>103.4</ele>
        <time>2023-07-06T13:01:59Z</time>
      </trkpt>
      <trkpt lat="44.10305" lon="1.14552">
        <ele>103.8</ele>
        <time>2023-07-06T13:02:06Z</time>
      </trkpt>
      <trkpt lat="44.10316" lon="1.14548">
        <ele>103.6</ele>
        <time>2023-07-06T13:02:14Z</time>
      </trkpt>
      <trkpt lat="44.10327" lon="1.14542">
        <ele>103.4</ele>
        <time>2023-07-06T13:02:23Z</time>
      </trkpt>
      <trkpt lat="44.1033" lon="1.1454">
        <ele>103.6</ele>
        <time>2023-07-06T13:02:26Z</time>
      </trkpt>
      <trkpt lat="44.10336" lon="1.14539">
        <ele>103.6</ele>
        <time>2023-07-06T13:02:31Z</time>
      </trkpt>
      <trkpt lat="44.10343" lon="1.14535">
        <ele>104.4</ele>
        <time>2023-07-06T13:02:38Z</time>
      </trkpt>
      <trkpt lat="44.10347" lon="1.14534">
        <ele>104.4</ele>
        <time>2023-07-06T13:02:41Z</time>
      </trkpt>
      <trkpt lat="44.10358" lon="1.1453">
        <ele>104</ele>
        <time>2023-07-06T13:02:49Z</time>
      </trkpt>
      <trkpt lat="44.10361" lon="1.14526">
        <ele>104</ele>
        <time>2023-07-06T13:02:53Z</time>
      </trkpt>
      <trkpt lat="44.10365" lon="1.14524">
        <ele>104</ele>
        <time>2023-07-06T13:02:56Z</time>
      </trkpt>
      <trkpt lat="44.10372" lon="1.1452">
        <ele>104</ele>
        <time>2023-07-06T13:03:03Z</time>
      </trkpt>
      <trkpt lat="44.10375" lon="1.14519">
        <ele>104.4</ele>
        <time>2023-07-06T13:03:06Z</time>
      </trkpt>
      <trkpt lat="44.10378" lon="1.14517">
        <ele>104.6</ele>
        <time>2023-07-06T13:03:09Z</time>
      </trkpt>
      <trkpt lat="44.10381" lon="1.14515">
        <ele>104.6</ele>
        <time>2023-07-06T13:03:12Z</time>
      </trkpt>
      <trkpt lat="44.10383" lon="1.14513">
        <ele>104.6</ele>
        <time>2023-07-06T13:03:14Z</time>
      </trkpt>
      <trkpt lat="44.10386" lon="1.14512">
        <ele>104.6</ele>
        <time>2023-07-06T13:03:16Z</time>
      </trkpt>
      <trkpt lat="44.10394" lon="1.14508">
        <ele>104</ele>
        <time>2023-07-06T13:03:22Z</time>
      </trkpt>
      <trkpt lat="44.104" lon="1.14505">
        <ele>103.8</ele>
        <time>2023-07-06T13:03:28Z</time>
      </trkpt>
      <trkpt lat="44.10401" lon="1.14504">
        <ele>103.8</ele>
        <time>2023-07-06T13:03:29Z</time>
      </trkpt>
      <trkpt lat="44.10406" lon="1.14501">
        <ele>103.6</ele>
        <time>2023-07-06T13:03:33Z</time>
      </trkpt>
      <trkpt lat="44.10409" lon="1.14499">
        <ele>103.6</ele>
        <time>2023-07-06T13:03:36Z</time>
      </trkpt>
      <trkpt lat="44.10415" lon="1.14496">
        <ele>104</ele>
        <time>2023-07-06T13:03:41Z</time>
      </trkpt>
      <trkpt lat="44.10417" lon="1.14495">
        <ele>104</ele>
        <time>2023-07-06T13:03:43Z</time>
      </trkpt>
      <trkpt lat="44.1042" lon="1.14493">
        <ele>103.8</ele>
        <time>2023-07-06T13:03:46Z</time>
      </trkpt>
      <trkpt lat="44.10424" lon="1.14493">
        <ele>103.4</ele>
        <time>2023-07-06T13:03:49Z</time>
      </trkpt>
      <trkpt lat="44.10426" lon="1.14492">
        <ele>103.2</ele>
        <time>2023-07-06T13:03:51Z</time>
      </trkpt>
      <trkpt lat="44.10429" lon="1.1449">
        <ele>103.2</ele>
        <time>2023-07-06T13:03:54Z</time>
      </trkpt>
      <trkpt lat="44.10432" lon="1.14489">
        <ele>103.2</ele>
        <time>2023-07-06T13:03:56Z</time>
      </trkpt>
      <trkpt lat="44.10444" lon="1.14483">
        <ele>103</ele>
        <time>2023-07-06T13:04:06Z</time>
      </trkpt>
      <trkpt lat="44.10455" lon="1.14479">
        <ele>103</ele>
        <time>2023-07-06T13:04:15Z</time>
      </trkpt>
      <trkpt lat="44.10465" lon="1.14473">
        <ele>103</ele>
        <time>2023-07-06T13:04:24Z</time>
      </trkpt>
      <trkpt lat="44.10469" lon="1.14471">
        <ele>103.2</ele>
        <time>2023-07-06T13:04:27Z</time>
      </trkpt>
      <trkpt lat="44.10472" lon="1.1447">
        <ele>103.6</ele>
        <time>2023-07-06T13:04:30Z</time>
      </trkpt>
      <trkpt lat="44.10474" lon="1.14468">
        <ele>103.6</ele>
        <time>2023-07-06T13:04:32Z</time>
      </trkpt>
      <trkpt lat="44.1048" lon="1.14466">
        <ele>103.4</ele>
        <time>2023-07-06T13:04:37Z</time>
      </trkpt>
      <trkpt lat="44.10483" lon="1.14465">
        <ele>103.2</ele>
        <time>2023-07-06T13:04:39Z</time>
      </trkpt>
      <trkpt lat="44.10485" lon="1.14464">
        <ele>103.2</ele>
        <time>2023-07-06T13:04:41Z</time>
      </trkpt>
      <trkpt lat="44.10492" lon="1.14469">
        <ele>103</ele>
        <time>2023-07-06T13:04:48Z</time>
      </trkpt>
      <trkpt lat="44.10492" lon="1.14473">
        <ele>103</ele>
        <time>2023-07-06T13:04:50Z</time>
      </trkpt>
      <trkpt lat="44.10495" lon="1.14483">
        <ele>103</ele>
        <time>2023-07-06T13:04:56Z</time>
      </trkpt>
      <trkpt lat="44.10497" lon="1.14486">
        <ele>103</ele>
        <time>2023-07-06T13:04:58Z</time>
      </trkpt>
      <trkpt lat="44.10499" lon="1.1449">
        <ele>103.2</ele>
        <time>2023-07-06T13:05:00Z</time>
      </trkpt>
      <trkpt lat="44.10501" lon="1.14496">
        <ele>103</ele>
        <time>2023-07-06T13:05:04Z</time>
      </trkpt>
      <trkpt lat="44.10502" lon="1.14501">
        <ele>103</ele>
        <time>2023-07-06T13:05:07Z</time>
      </trkpt>
      <trkpt lat="44.10505" lon="1.14512">
        <ele>103.4</ele>
        <time>2023-07-06T13:05:13Z</time>
      </trkpt>
      <trkpt lat="44.10509" lon="1.14523">
        <ele>103.4</ele>
        <time>2023-07-06T13:05:20Z</time>
      </trkpt>
      <trkpt lat="44.10514" lon="1.14534">
        <ele>103.2</ele>
        <time>2023-07-06T13:05:27Z</time>
      </trkpt>
      <trkpt lat="44.10516" lon="1.14538">
        <ele>103</ele>
        <time>2023-07-06T13:05:30Z</time>
      </trkpt>
      <trkpt lat="44.10518" lon="1.14549">
        <ele>102.6</ele>
        <time>2023-07-06T13:05:37Z</time>
      </trkpt>
      <trkpt lat="44.10522" lon="1.14562">
        <ele>102.8</ele>
        <time>2023-07-06T13:05:45Z</time>
      </trkpt>
      <trkpt lat="44.10528" lon="1.14575">
        <ele>103.4</ele>
        <time>2023-07-06T13:05:53Z</time>
      </trkpt>
      <trkpt lat="44.10529" lon="1.14578">
        <ele>103.4</ele>
        <time>2023-07-06T13:05:55Z</time>
      </trkpt>
      <trkpt lat="44.10531" lon="1.14588">
        <ele>103</ele>
        <time>2023-07-06T13:06:01Z</time>
      </trkpt>
      <trkpt lat="44.10531" lon="1.1459">
        <ele>103</ele>
        <time>2023-07-06T13:06:02Z</time>
      </trkpt>
      <trkpt lat="44.10535" lon="1.146">
        <ele>103</ele>
        <time>2023-07-06T13:06:08Z</time>
      </trkpt>
      <trkpt lat="44.10537" lon="1.14607">
        <ele>103</ele>
        <time>2023-07-06T13:06:13Z</time>
      </trkpt>
      <trkpt lat="44.10547" lon="1.14624">
        <ele>103</ele>
        <time>2023-07-06T13:06:25Z</time>
      </trkpt>
      <trkpt lat="44.10556" lon="1.1464">
        <ele>103.2</ele>
        <time>2023-07-06T13:06:36Z</time>
      </trkpt>
      <trkpt lat="44.10559" lon="1.14646">
        <ele>103.2</ele>
        <time>2023-07-06T13:06:40Z</time>
      </trkpt>
      <trkpt lat="44.1056" lon="1.14652">
        <ele>103.2</ele>
        <time>2023-07-06T13:06:44Z</time>
      </trkpt>
      <trkpt lat="44.10566" lon="1.14661">
        <ele>104</ele>
        <time>2023-07-06T13:06:52Z</time>
      </trkpt>
      <trkpt lat="44.10566" lon="1.14662">
        <ele>104</ele>
        <time>2023-07-06T13:06:53Z</time>
      </trkpt>
      <trkpt lat="44.10567" lon="1.14663">
        <ele>104</ele>
        <time>2023-07-06T13:06:54Z</time>
      </trkpt>
      <trkpt lat="44.10569" lon="1.14666">
        <ele>104</ele>
        <time>2023-07-06T13:06:56Z</time>
      </trkpt>
      <trkpt lat="44.10572" lon="1.1467">
        <ele>103.8</ele>
        <time>2023-07-06T13:06:59Z</time>
      </trkpt>
      <trkpt lat="44.10575" lon="1.14678">
        <ele>103.4</ele>
        <time>2023-07-06T13:07:05Z</time>
      </trkpt>
      <trkpt lat="44.10581" lon="1.14688">
        <ele>103.4</ele>
        <time>2023-07-06T13:07:13Z</time>
      </trkpt>
      <trkpt lat="44.10583" lon="1.14692">
        <ele>103.6</ele>
        <time>2023-07-06T13:07:16Z</time>
      </trkpt>
      <trkpt lat="44.10584" lon="1.14695">
        <ele>103.6</ele>
        <time>2023-07-06T13:07:18Z</time>
      </trkpt>
      <trkpt lat="44.10589" lon="1.14705">
        <ele>103.4</ele>
        <time>2023-07-06T13:07:25Z</time>
      </trkpt>
      <trkpt lat="44.10596" lon="1.14719">
        <ele>103.4</ele>
        <time>2023-07-06T13:07:35Z</time>
      </trkpt>
      <trkpt lat="44.10598" lon="1.14721">
        <ele>103.2</ele>
        <time>2023-07-06T13:07:37Z</time>
      </trkpt>
      <trkpt lat="44.10599" lon="1.14723">
        <ele>103.2</ele>
        <time>2023-07-06T13:07:38Z</time>
      </trkpt>
      <trkpt lat="44.10602" lon="1.14729">
        <ele>103</ele>
        <time>2023-07-06T13:07:43Z</time>
      </trkpt>
      <trkpt lat="44.10604" lon="1.14733">
        <ele>103.2</ele>
        <time>2023-07-06T13:07:46Z</time>
      </trkpt>
      <trkpt lat="44.10607" lon="1.14738">
        <ele>103</ele>
        <time>2023-07-06T13:07:50Z</time>
      </trkpt>
      <trkpt lat="44.10612" lon="1.14746">
        <ele>103</ele>
        <time>2023-07-06T13:07:56Z</time>
      </trkpt>
      <trkpt lat="44.10614" lon="1.14749">
        <ele>103</ele>
        <time>2023-07-06T13:07:58Z</time>
      </trkpt>
      <trkpt lat="44.10621" lon="1.14761">
        <ele>103.2</ele>
        <time>2023-07-06T13:08:06Z</time>
      </trkpt>
      <trkpt lat="44.10626" lon="1.14772">
        <ele>103.4</ele>
        <time>2023-07-06T13:08:14Z</time>
      </trkpt>
      <trkpt lat="44.10632" lon="1.14783">
        <ele>103.8</ele>
        <time>2023-07-06T13:08:23Z</time>
      </trkpt>
      <trkpt lat="44.10639" lon="1.14791">
        <ele>103.4</ele>
        <time>2023-07-06T13:08:30Z</time>
      </trkpt>
      <trkpt lat="44.10648" lon="1.14801">
        <ele>103.2</ele>
        <time>2023-07-06T13:08:38Z</time>
      </trkpt>
      <trkpt lat="44.10658" lon="1.14807">
        <ele>103.4</ele>
        <time>2023-07-06T13:08:46Z</time>
      </trkpt>
      <trkpt lat="44.1066" lon="1.14809">
        <ele>103.4</ele>
        <time>2023-07-06T13:08:48Z</time>
      </trkpt>
      <trkpt lat="44.10662" lon="1.14817">
        <ele>103.4</ele>
        <time>2023-07-06T13:08:52Z</time>
      </trkpt>
      <trkpt lat="44.10665" lon="1.14822">
        <ele>104</ele>
        <time>2023-07-06T13:08:56Z</time>
      </trkpt>
      <trkpt lat="44.10668" lon="1.14826">
        <ele>104</ele>
        <time>2023-07-06T13:08:59Z</time>
      </trkpt>
      <trkpt lat="44.10676" lon="1.14833">
        <ele>103.6</ele>
        <time>2023-07-06T13:09:06Z</time>
      </trkpt>
      <trkpt lat="44.10684" lon="1.14843">
        <ele>103.8</ele>
        <time>2023-07-06T13:09:15Z</time>
      </trkpt>
      <trkpt lat="44.10694" lon="1.14854">
        <ele>104</ele>
        <time>2023-07-06T13:09:25Z</time>
      </trkpt>
      <trkpt lat="44.10697" lon="1.14858">
        <ele>104</ele>
        <time>2023-07-06T13:09:29Z</time>
      </trkpt>
      <trkpt lat="44.10704" lon="1.14864">
        <ele>104</ele>
        <time>2023-07-06T13:09:35Z</time>
      </trkpt>
      <trkpt lat="44.10714" lon="1.14873">
        <ele>103.8</ele>
        <time>2023-07-06T13:09:45Z</time>
      </trkpt>
      <trkpt lat="44.10724" lon="1.14881">
        <ele>103.6</ele>
        <time>2023-07-06T13:09:55Z</time>
      </trkpt>
      <trkpt lat="44.1073" lon="1.14884">
        <ele>103.8</ele>
        <time>2023-07-06T13:10:00Z</time>
      </trkpt>
      <trkpt lat="44.10734" lon="1.14887">
        <ele>104</ele>
        <time>2023-07-06T13:10:04Z</time>
      </trkpt>
      <trkpt lat="44.10741" lon="1.1489">
        <ele>104</ele>
        <time>2023-07-06T13:10:10Z</time>
      </trkpt>
      <trkpt lat="44.1075" lon="1.14894">
        <ele>103.6</ele>
        <time>2023-07-06T13:10:34Z</time>
      </trkpt>
      <trkpt lat="44.10751" lon="1.14895">
        <ele>103.6</ele>
        <time>2023-07-06T13:10:35Z</time>
      </trkpt>
      <trkpt lat="44.10752" lon="1.14896">
        <ele>103.6</ele>
        <time>2023-07-06T13:10:36Z</time>
      </trkpt>
      <trkpt lat="44.10754" lon="1.14898">
        <ele>103.6</ele>
        <time>2023-07-06T13:10:39Z</time>
      </trkpt>
      <trkpt lat="44.1076" lon="1.14903">
        <ele>103.4</ele>
        <time>2023-07-06T13:10:45Z</time>
      </trkpt>
      <trkpt lat="44.10765" lon="1.14906">
        <ele>103.4</ele>
        <time>2023-07-06T13:10:50Z</time>
      </trkpt>
      <trkpt lat="44.1077" lon="1.14909">
        <ele>103.2</ele>
        <time>2023-07-06T13:10:55Z</time>
      </trkpt>
      <trkpt lat="44.10771" lon="1.1491">
        <ele>103</ele>
        <time>2023-07-06T13:10:56Z</time>
      </trkpt>
      <trkpt lat="44.10776" lon="1.14912">
        <ele>103</ele>
        <time>2023-07-06T13:11:00Z</time>
      </trkpt>
      <trkpt lat="44.10779" lon="1.14914">
        <ele>103.4</ele>
        <time>2023-07-06T13:11:03Z</time>
      </trkpt>
      <trkpt lat="44.1078" lon="1.14914">
        <ele>103.4</ele>
        <time>2023-07-06T13:11:04Z</time>
      </trkpt>
      <trkpt lat="44.10789" lon="1.14916">
        <ele>103.4</ele>
        <time>2023-07-06T13:11:11Z</time>
      </trkpt>
      <trkpt lat="44.108" lon="1.14919">
        <ele>103.4</ele>
        <time>2023-07-06T13:11:21Z</time>
      </trkpt>
      <trkpt lat="44.10812" lon="1.14919">
        <ele>103.8</ele>
        <time>2023-07-06T13:11:30Z</time>
      </trkpt>
      <trkpt lat="44.10822" lon="1.14917">
        <ele>103.8</ele>
        <time>2023-07-06T13:11:39Z</time>
      </trkpt>
      <trkpt lat="44.1083" lon="1.14915">
        <ele>103.4</ele>
        <time>2023-07-06T13:11:48Z</time>
      </trkpt>
      <trkpt lat="44.10832" lon="1.14913">
        <ele>103.6</ele>
        <time>2023-07-06T13:11:50Z</time>
      </trkpt>
      <trkpt lat="44.10838" lon="1.14907">
        <ele>103.6</ele>
        <time>2023-07-06T13:11:55Z</time>
      </trkpt>
      <trkpt lat="44.1084" lon="1.14905">
        <ele>103.6</ele>
        <time>2023-07-06T13:11:57Z</time>
      </trkpt>
      <trkpt lat="44.10846" lon="1.14896">
        <ele>103.8</ele>
        <time>2023-07-06T13:12:04Z</time>
      </trkpt>
      <trkpt lat="44.10851" lon="1.14886">
        <ele>104</ele>
        <time>2023-07-06T13:12:11Z</time>
      </trkpt>
      <trkpt lat="44.10852" lon="1.14884">
        <ele>104</ele>
        <time>2023-07-06T13:12:13Z</time>
      </trkpt>
      <trkpt lat="44.10853" lon="1.14882">
        <ele>104</ele>
        <time>2023-07-06T13:12:14Z</time>
      </trkpt>
      <trkpt lat="44.10857" lon="1.14876">
        <ele>104.4</ele>
        <time>2023-07-06T13:12:18Z</time>
      </trkpt>
      <trkpt lat="44.10859" lon="1.14872">
        <ele>104.4</ele>
        <time>2023-07-06T13:12:21Z</time>
      </trkpt>
      <trkpt lat="44.10861" lon="1.1487">
        <ele>104.4</ele>
        <time>2023-07-06T13:12:23Z</time>
      </trkpt>
      <trkpt lat="44.10864" lon="1.14866">
        <ele>104.4</ele>
        <time>2023-07-06T13:12:27Z</time>
      </trkpt>
      <trkpt lat="44.10866" lon="1.14864">
        <ele>104.6</ele>
        <time>2023-07-06T13:12:29Z</time>
      </trkpt>
      <trkpt lat="44.10869" lon="1.14862">
        <ele>104.8</ele>
        <time>2023-07-06T13:12:32Z</time>
      </trkpt>
      <trkpt lat="44.10871" lon="1.1486">
        <ele>105</ele>
        <time>2023-07-06T13:12:34Z</time>
      </trkpt>
      <trkpt lat="44.10877" lon="1.14851">
        <ele>104.8</ele>
        <time>2023-07-06T13:12:41Z</time>
      </trkpt>
      <trkpt lat="44.10878" lon="1.14849">
        <ele>104.8</ele>
        <time>2023-07-06T13:12:42Z</time>
      </trkpt>
      <trkpt lat="44.10885" lon="1.14839">
        <ele>105</ele>
        <time>2023-07-06T13:12:51Z</time>
      </trkpt>
      <trkpt lat="44.10886" lon="1.14837">
        <ele>104.8</ele>
        <time>2023-07-06T13:12:52Z</time>
      </trkpt>
      <trkpt lat="44.10889" lon="1.14833">
        <ele>105.2</ele>
        <time>2023-07-06T13:13:22Z</time>
      </trkpt>
      <trkpt lat="44.1089" lon="1.14833">
        <ele>105.2</ele>
        <time>2023-07-06T13:13:23Z</time>
      </trkpt>
      <trkpt lat="44.10892" lon="1.14831">
        <ele>105.2</ele>
        <time>2023-07-06T13:13:25Z</time>
      </trkpt>
      <trkpt lat="44.10893" lon="1.14829">
        <ele>105.4</ele>
        <time>2023-07-06T13:13:26Z</time>
      </trkpt>
      <trkpt lat="44.10896" lon="1.14825">
        <ele>105.2</ele>
        <time>2023-07-06T13:13:29Z</time>
      </trkpt>
      <trkpt lat="44.10899" lon="1.14822">
        <ele>105.4</ele>
        <time>2023-07-06T13:13:32Z</time>
      </trkpt>
      <trkpt lat="44.10901" lon="1.14818">
        <ele>105.4</ele>
        <time>2023-07-06T13:13:35Z</time>
      </trkpt>
      <trkpt lat="44.10907" lon="1.14809">
        <ele>105.4</ele>
        <time>2023-07-06T13:13:42Z</time>
      </trkpt>
      <trkpt lat="44.1091" lon="1.14805">
        <ele>105.2</ele>
        <time>2023-07-06T13:13:45Z</time>
      </trkpt>
      <trkpt lat="44.10914" lon="1.14798">
        <ele>105.2</ele>
        <time>2023-07-06T13:13:50Z</time>
      </trkpt>
      <trkpt lat="44.10916" lon="1.14796">
        <ele>105.4</ele>
        <time>2023-07-06T13:13:52Z</time>
      </trkpt>
      <trkpt lat="44.10921" lon="1.14785">
        <ele>105.4</ele>
        <time>2023-07-06T13:13:59Z</time>
      </trkpt>
      <trkpt lat="44.10922" lon="1.14784">
        <ele>105.2</ele>
        <time>2023-07-06T13:14:00Z</time>
      </trkpt>
      <trkpt lat="44.10923" lon="1.14783">
        <ele>105.2</ele>
        <time>2023-07-06T13:14:01Z</time>
      </trkpt>
      <trkpt lat="44.10924" lon="1.1478">
        <ele>105.2</ele>
        <time>2023-07-06T13:14:03Z</time>
      </trkpt>
      <trkpt lat="44.10926" lon="1.14777">
        <ele>105.2</ele>
        <time>2023-07-06T13:14:05Z</time>
      </trkpt>
      <trkpt lat="44.10927" lon="1.14776">
        <ele>105.2</ele>
        <time>2023-07-06T13:14:06Z</time>
      </trkpt>
      <trkpt lat="44.10931" lon="1.14772">
        <ele>105.4</ele>
        <time>2023-07-06T13:14:10Z</time>
      </trkpt>
      <trkpt lat="44.10938" lon="1.1476">
        <ele>105</ele>
        <time>2023-07-06T13:14:19Z</time>
      </trkpt>
      <trkpt lat="44.10945" lon="1.14753">
        <ele>105.2</ele>
        <time>2023-07-06T13:14:26Z</time>
      </trkpt>
      <trkpt lat="44.1095" lon="1.1475">
        <ele>105.4</ele>
        <time>2023-07-06T13:14:30Z</time>
      </trkpt>
      <trkpt lat="44.10952" lon="1.14749">
        <ele>105.4</ele>
        <time>2023-07-06T13:14:32Z</time>
      </trkpt>
      <trkpt lat="44.10962" lon="1.14748">
        <ele>105</ele>
        <time>2023-07-06T13:14:40Z</time>
      </trkpt>
      <trkpt lat="44.10963" lon="1.14749">
        <ele>105.2</ele>
        <time>2023-07-06T13:14:41Z</time>
      </trkpt>
      <trkpt lat="44.1097" lon="1.14751">
        <ele>105.4</ele>
        <time>2023-07-06T13:14:46Z</time>
      </trkpt>
      <trkpt lat="44.10974" lon="1.14755">
        <ele>105.4</ele>
        <time>2023-07-06T13:14:50Z</time>
      </trkpt>
      <trkpt lat="44.10983" lon="1.14762">
        <ele>105.2</ele>
        <time>2023-07-06T13:14:58Z</time>
      </trkpt>
      <trkpt lat="44.10984" lon="1.14763">
        <ele>105.2</ele>
        <time>2023-07-06T13:14:59Z</time>
      </trkpt>
      <trkpt lat="44.1099" lon="1.14766">
        <ele>105.6</ele>
        <time>2023-07-06T13:15:05Z</time>
      </trkpt>
      <trkpt lat="44.10991" lon="1.14766">
        <ele>105.6</ele>
        <time>2023-07-06T13:15:06Z</time>
      </trkpt>
      <trkpt lat="44.11" lon="1.1477">
        <ele>105.4</ele>
        <time>2023-07-06T13:15:14Z</time>
      </trkpt>
      <trkpt lat="44.11004" lon="1.14771">
        <ele>105.4</ele>
        <time>2023-07-06T13:15:17Z</time>
      </trkpt>
      <trkpt lat="44.11011" lon="1.14774">
        <ele>105.6</ele>
        <time>2023-07-06T13:15:23Z</time>
      </trkpt>
      <trkpt lat="44.11012" lon="1.14774">
        <ele>105.4</ele>
        <time>2023-07-06T13:15:24Z</time>
      </trkpt>
      <trkpt lat="44.11014" lon="1.14775">
        <ele>105.6</ele>
        <time>2023-07-06T13:15:25Z</time>
      </trkpt>
      <trkpt lat="44.11018" lon="1.14777">
        <ele>106.2</ele>
        <time>2023-07-06T13:15:29Z</time>
      </trkpt>
      <trkpt lat="44.11021" lon="1.14778">
        <ele>106.2</ele>
        <time>2023-07-06T13:15:31Z</time>
      </trkpt>
      <trkpt lat="44.11023" lon="1.1478">
        <ele>106</ele>
        <time>2023-07-06T13:15:34Z</time>
      </trkpt>
      <trkpt lat="44.11031" lon="1.14784">
        <ele>105.4</ele>
        <time>2023-07-06T13:15:42Z</time>
      </trkpt>
      <trkpt lat="44.1104" lon="1.14786">
        <ele>104.8</ele>
        <time>2023-07-06T13:15:49Z</time>
      </trkpt>
      <trkpt lat="44.11044" lon="1.14787">
        <ele>104.8</ele>
        <time>2023-07-06T13:15:51Z</time>
      </trkpt>
      <trkpt lat="44.11052" lon="1.14789">
        <ele>105.2</ele>
        <time>2023-07-06T13:15:56Z</time>
      </trkpt>
      <trkpt lat="44.11061" lon="1.1479">
        <ele>105.4</ele>
        <time>2023-07-06T13:16:03Z</time>
      </trkpt>
      <trkpt lat="44.11071" lon="1.14791">
        <ele>105.2</ele>
        <time>2023-07-06T13:16:11Z</time>
      </trkpt>
      <trkpt lat="44.11079" lon="1.14792">
        <ele>105</ele>
        <time>2023-07-06T13:16:18Z</time>
      </trkpt>
      <trkpt lat="44.11086" lon="1.14792">
        <ele>105</ele>
        <time>2023-07-06T13:16:24Z</time>
      </trkpt>
      <trkpt lat="44.11092" lon="1.14794">
        <ele>104.8</ele>
        <time>2023-07-06T13:16:29Z</time>
      </trkpt>
      <trkpt lat="44.11093" lon="1.14794">
        <ele>104.8</ele>
        <time>2023-07-06T13:16:30Z</time>
      </trkpt>
      <trkpt lat="44.11096" lon="1.14792">
        <ele>104.8</ele>
        <time>2023-07-06T13:16:33Z</time>
      </trkpt>
      <trkpt lat="44.11099" lon="1.14793">
        <ele>104.6</ele>
        <time>2023-07-06T13:16:35Z</time>
      </trkpt>
      <trkpt lat="44.111" lon="1.14793">
        <ele>104.4</ele>
        <time>2023-07-06T13:16:36Z</time>
      </trkpt>
      <trkpt lat="44.11101" lon="1.14794">
        <ele>104.2</ele>
        <time>2023-07-06T13:16:37Z</time>
      </trkpt>
      <trkpt lat="44.11107" lon="1.14796">
        <ele>104.2</ele>
        <time>2023-07-06T13:16:42Z</time>
      </trkpt>
      <trkpt lat="44.11112" lon="1.14798">
        <ele>104.4</ele>
        <time>2023-07-06T13:16:48Z</time>
      </trkpt>
      <trkpt lat="44.11119" lon="1.148">
        <ele>104</ele>
        <time>2023-07-06T13:16:54Z</time>
      </trkpt>
      <trkpt lat="44.11123" lon="1.14801">
        <ele>104</ele>
        <time>2023-07-06T13:16:57Z</time>
      </trkpt>
      <trkpt lat="44.11132" lon="1.14803">
        <ele>103.4</ele>
        <time>2023-07-06T13:17:04Z</time>
      </trkpt>
      <trkpt lat="44.1114" lon="1.14808">
        <ele>103.4</ele>
        <time>2023-07-06T13:17:10Z</time>
      </trkpt>
      <trkpt lat="44.11141" lon="1.14809">
        <ele>103.6</ele>
        <time>2023-07-06T13:17:11Z</time>
      </trkpt>
      <trkpt lat="44.11143" lon="1.14809">
        <ele>103.6</ele>
        <time>2023-07-06T13:17:13Z</time>
      </trkpt>
      <trkpt lat="44.11146" lon="1.1481">
        <ele>103.4</ele>
        <time>2023-07-06T13:17:15Z</time>
      </trkpt>
      <trkpt lat="44.1115" lon="1.14811">
        <ele>103.4</ele>
        <time>2023-07-06T13:17:18Z</time>
      </trkpt>
      <trkpt lat="44.11159" lon="1.14811">
        <ele>103.6</ele>
        <time>2023-07-06T13:17:25Z</time>
      </trkpt>
      <trkpt lat="44.11166" lon="1.14812">
        <ele>103.4</ele>
        <time>2023-07-06T13:17:30Z</time>
      </trkpt>
      <trkpt lat="44.11169" lon="1.14812">
        <ele>103.2</ele>
        <time>2023-07-06T13:17:32Z</time>
      </trkpt>
      <trkpt lat="44.1117" lon="1.14812">
        <ele>103.2</ele>
        <time>2023-07-06T13:17:33Z</time>
      </trkpt>
      <trkpt lat="44.11171" lon="1.14812">
        <ele>103.2</ele>
        <time>2023-07-06T13:17:34Z</time>
      </trkpt>
      <trkpt lat="44.11174" lon="1.14811">
        <ele>103</ele>
        <time>2023-07-06T13:17:36Z</time>
      </trkpt>
      <trkpt lat="44.1118" lon="1.14808">
        <ele>103</ele>
        <time>2023-07-06T13:17:41Z</time>
      </trkpt>
      <trkpt lat="44.11183" lon="1.14804">
        <ele>103.2</ele>
        <time>2023-07-06T13:17:44Z</time>
      </trkpt>
      <trkpt lat="44.11187" lon="1.14799">
        <ele>103.2</ele>
        <time>2023-07-06T13:17:49Z</time>
      </trkpt>
      <trkpt lat="44.11192" lon="1.14785">
        <ele>103.2</ele>
        <time>2023-07-06T13:17:58Z</time>
      </trkpt>
      <trkpt lat="44.11194" lon="1.14779">
        <ele>103.2</ele>
        <time>2023-07-06T13:18:02Z</time>
      </trkpt>
      <trkpt lat="44.11194" lon="1.14778">
        <ele>103.2</ele>
        <time>2023-07-06T13:18:03Z</time>
      </trkpt>
      <trkpt lat="44.11198" lon="1.1477">
        <ele>103</ele>
        <time>2023-07-06T13:18:08Z</time>
      </trkpt>
      <trkpt lat="44.11202" lon="1.14764">
        <ele>103</ele>
        <time>2023-07-06T13:18:13Z</time>
      </trkpt>
      <trkpt lat="44.11204" lon="1.14759">
        <ele>102.8</ele>
        <time>2023-07-06T13:18:17Z</time>
      </trkpt>
      <trkpt lat="44.11204" lon="1.14757">
        <ele>102.8</ele>
        <time>2023-07-06T13:18:18Z</time>
      </trkpt>
      <trkpt lat="44.11208" lon="1.14747">
        <ele>103</ele>
        <time>2023-07-06T13:18:25Z</time>
      </trkpt>
      <trkpt lat="44.1121" lon="1.14742">
        <ele>103.4</ele>
        <time>2023-07-06T13:18:28Z</time>
      </trkpt>
      <trkpt lat="44.11216" lon="1.1473">
        <ele>103.2</ele>
        <time>2023-07-06T13:18:36Z</time>
      </trkpt>
      <trkpt lat="44.11219" lon="1.14724">
        <ele>103.2</ele>
        <time>2023-07-06T13:18:40Z</time>
      </trkpt>
      <trkpt lat="44.11223" lon="1.1471">
        <ele>103</ele>
        <time>2023-07-06T13:18:49Z</time>
      </trkpt>
      <trkpt lat="44.11229" lon="1.14696">
        <ele>103.2</ele>
        <time>2023-07-06T13:18:58Z</time>
      </trkpt>
      <trkpt lat="44.1123" lon="1.14695">
        <ele>103.2</ele>
        <time>2023-07-06T13:18:59Z</time>
      </trkpt>
      <trkpt lat="44.11234" lon="1.14691">
        <ele>103</ele>
        <time>2023-07-06T13:19:03Z</time>
      </trkpt>
      <trkpt lat="44.11235" lon="1.14691">
        <ele>103.2</ele>
        <time>2023-07-06T13:19:04Z</time>
      </trkpt>
      <trkpt lat="44.11236" lon="1.14691">
        <ele>103.2</ele>
        <time>2023-07-06T13:19:05Z</time>
      </trkpt>
      <trkpt lat="44.11238" lon="1.14692">
        <ele>103.2</ele>
        <time>2023-07-06T13:19:06Z</time>
      </trkpt>
      <trkpt lat="44.1124" lon="1.14693">
        <ele>103.2</ele>
        <time>2023-07-06T13:19:08Z</time>
      </trkpt>
      <trkpt lat="44.11243" lon="1.14696">
        <ele>103.2</ele>
        <time>2023-07-06T13:19:10Z</time>
      </trkpt>
      <trkpt lat="44.11246" lon="1.147">
        <ele>103</ele>
        <time>2023-07-06T13:19:13Z</time>
      </trkpt>
      <trkpt lat="44.1125" lon="1.14707">
        <ele>102.8</ele>
        <time>2023-07-06T13:19:18Z</time>
      </trkpt>
      <trkpt lat="44.11253" lon="1.1471">
        <ele>102.8</ele>
        <time>2023-07-06T13:19:21Z</time>
      </trkpt>
      <trkpt lat="44.11254" lon="1.14711">
        <ele>102.8</ele>
        <time>2023-07-06T13:19:22Z</time>
      </trkpt>
      <trkpt lat="44.11257" lon="1.14715">
        <ele>102.6</ele>
        <time>2023-07-06T13:19:25Z</time>
      </trkpt>
      <trkpt lat="44.11264" lon="1.14721">
        <ele>102.4</ele>
        <time>2023-07-06T13:19:32Z</time>
      </trkpt>
      <trkpt lat="44.11266" lon="1.14724">
        <ele>102.4</ele>
        <time>2023-07-06T13:19:34Z</time>
      </trkpt>
      <trkpt lat="44.11277" lon="1.14734">
        <ele>102.8</ele>
        <time>2023-07-06T13:19:45Z</time>
      </trkpt>
      <trkpt lat="44.11288" lon="1.14741">
        <ele>103.2</ele>
        <time>2023-07-06T13:19:55Z</time>
      </trkpt>
      <trkpt lat="44.11289" lon="1.14741">
        <ele>103.2</ele>
        <time>2023-07-06T13:19:56Z</time>
      </trkpt>
      <trkpt lat="44.11293" lon="1.14743">
        <ele>103</ele>
        <time>2023-07-06T13:19:59Z</time>
      </trkpt>
      <trkpt lat="44.113" lon="1.14745">
        <ele>103</ele>
        <time>2023-07-06T13:20:04Z</time>
      </trkpt>
      <trkpt lat="44.11307" lon="1.14746">
        <ele>103</ele>
        <time>2023-07-06T13:20:09Z</time>
      </trkpt>
      <trkpt lat="44.11309" lon="1.14748">
        <ele>102.8</ele>
        <time>2023-07-06T13:20:11Z</time>
      </trkpt>
      <trkpt lat="44.11311" lon="1.14749">
        <ele>102.8</ele>
        <time>2023-07-06T13:20:12Z</time>
      </trkpt>
      <trkpt lat="44.11318" lon="1.1475">
        <ele>103</ele>
        <time>2023-07-06T13:20:18Z</time>
      </trkpt>
      <trkpt lat="44.1132" lon="1.1475">
        <ele>103</ele>
        <time>2023-07-06T13:20:20Z</time>
      </trkpt>
      <trkpt lat="44.1133" lon="1.14749">
        <ele>103.2</ele>
        <time>2023-07-06T13:20:27Z</time>
      </trkpt>
      <trkpt lat="44.1134" lon="1.14748">
        <ele>103.2</ele>
        <time>2023-07-06T13:20:35Z</time>
      </trkpt>
      <trkpt lat="44.11341" lon="1.14747">
        <ele>103.2</ele>
        <time>2023-07-06T13:20:36Z</time>
      </trkpt>
      <trkpt lat="44.11349" lon="1.14744">
        <ele>103.4</ele>
        <time>2023-07-06T13:20:42Z</time>
      </trkpt>
      <trkpt lat="44.11359" lon="1.14741">
        <ele>103.6</ele>
        <time>2023-07-06T13:20:51Z</time>
      </trkpt>
      <trkpt lat="44.11368" lon="1.14743">
        <ele>104</ele>
        <time>2023-07-06T13:20:59Z</time>
      </trkpt>
      <trkpt lat="44.11376" lon="1.14749">
        <ele>103.8</ele>
        <time>2023-07-06T13:21:07Z</time>
      </trkpt>
      <trkpt lat="44.11377" lon="1.1475">
        <ele>103.8</ele>
        <time>2023-07-06T13:21:08Z</time>
      </trkpt>
      <trkpt lat="44.11387" lon="1.14756">
        <ele>103.4</ele>
        <time>2023-07-06T13:21:16Z</time>
      </trkpt>
      <trkpt lat="44.114" lon="1.1476">
        <ele>103.4</ele>
        <time>2023-07-06T13:21:25Z</time>
      </trkpt>
      <trkpt lat="44.11411" lon="1.1476">
        <ele>103</ele>
        <time>2023-07-06T13:21:34Z</time>
      </trkpt>
      <trkpt lat="44.11417" lon="1.14762">
        <ele>103</ele>
        <time>2023-07-06T13:21:39Z</time>
      </trkpt>
      <trkpt lat="44.1142" lon="1.14762">
        <ele>103</ele>
        <time>2023-07-06T13:21:42Z</time>
      </trkpt>
      <trkpt lat="44.11425" lon="1.14762">
        <ele>104</ele>
        <time>2023-07-06T13:21:46Z</time>
      </trkpt>
      <trkpt lat="44.11428" lon="1.14761">
        <ele>104.2</ele>
        <time>2023-07-06T13:21:48Z</time>
      </trkpt>
      <trkpt lat="44.11432" lon="1.14761">
        <ele>103.8</ele>
        <time>2023-07-06T13:21:51Z</time>
      </trkpt>
      <trkpt lat="44.11438" lon="1.14764">
        <ele>103.6</ele>
        <time>2023-07-06T13:21:56Z</time>
      </trkpt>
      <trkpt lat="44.11443" lon="1.14767">
        <ele>104</ele>
        <time>2023-07-06T13:22:00Z</time>
      </trkpt>
      <trkpt lat="44.11452" lon="1.14776">
        <ele>104</ele>
        <time>2023-07-06T13:22:09Z</time>
      </trkpt>
      <trkpt lat="44.11454" lon="1.14778">
        <ele>104.4</ele>
        <time>2023-07-06T13:22:11Z</time>
      </trkpt>
      <trkpt lat="44.11458" lon="1.14783">
        <ele>104.2</ele>
        <time>2023-07-06T13:22:15Z</time>
      </trkpt>
      <trkpt lat="44.1146" lon="1.14786">
        <ele>104.4</ele>
        <time>2023-07-06T13:22:18Z</time>
      </trkpt>
      <trkpt lat="44.11461" lon="1.14789">
        <ele>104.4</ele>
        <time>2023-07-06T13:22:20Z</time>
      </trkpt>
      <trkpt lat="44.11464" lon="1.14796">
        <ele>104.4</ele>
        <time>2023-07-06T13:22:25Z</time>
      </trkpt>
      <trkpt lat="44.11465" lon="1.14798">
        <ele>104.4</ele>
        <time>2023-07-06T13:22:26Z</time>
      </trkpt>
      <trkpt lat="44.11467" lon="1.14804">
        <ele>104.8</ele>
        <time>2023-07-06T13:22:30Z</time>
      </trkpt>
      <trkpt lat="44.11469" lon="1.14811">
        <ele>105</ele>
        <time>2023-07-06T13:22:34Z</time>
      </trkpt>
      <trkpt lat="44.11472" lon="1.14823">
        <ele>105</ele>
        <time>2023-07-06T13:22:41Z</time>
      </trkpt>
      <trkpt lat="44.11472" lon="1.14825">
        <ele>104.8</ele>
        <time>2023-07-06T13:22:42Z</time>
      </trkpt>
      <trkpt lat="44.11473" lon="1.14827">
        <ele>105</ele>
        <time>2023-07-06T13:22:43Z</time>
      </trkpt>
      <trkpt lat="44.11475" lon="1.1483">
        <ele>105.2</ele>
        <time>2023-07-06T13:22:45Z</time>
      </trkpt>
      <trkpt lat="44.11476" lon="1.14832">
        <ele>105.4</ele>
        <time>2023-07-06T13:22:46Z</time>
      </trkpt>
      <trkpt lat="44.11478" lon="1.14839">
        <ele>105.4</ele>
        <time>2023-07-06T13:22:50Z</time>
      </trkpt>
      <trkpt lat="44.1148" lon="1.14847">
        <ele>105.2</ele>
        <time>2023-07-06T13:22:55Z</time>
      </trkpt>
      <trkpt lat="44.11482" lon="1.14852">
        <ele>105.2</ele>
        <time>2023-07-06T13:22:58Z</time>
      </trkpt>
      <trkpt lat="44.11485" lon="1.14869">
        <ele>105.4</ele>
        <time>2023-07-06T13:23:08Z</time>
      </trkpt>
      <trkpt lat="44.11487" lon="1.14876">
        <ele>105.4</ele>
        <time>2023-07-06T13:23:12Z</time>
      </trkpt>
      <trkpt lat="44.11489" lon="1.14882">
        <ele>105.2</ele>
        <time>2023-07-06T13:23:15Z</time>
      </trkpt>
      <trkpt lat="44.11493" lon="1.14892">
        <ele>105</ele>
        <time>2023-07-06T13:23:22Z</time>
      </trkpt>
      <trkpt lat="44.11495" lon="1.149">
        <ele>105</ele>
        <time>2023-07-06T13:23:27Z</time>
      </trkpt>
      <trkpt lat="44.11495" lon="1.14902">
        <ele>105</ele>
        <time>2023-07-06T13:23:28Z</time>
      </trkpt>
      <trkpt lat="44.11496" lon="1.1491">
        <ele>105</ele>
        <time>2023-07-06T13:23:33Z</time>
      </trkpt>
      <trkpt lat="44.11497" lon="1.14913">
        <ele>104.8</ele>
        <time>2023-07-06T13:23:35Z</time>
      </trkpt>
      <trkpt lat="44.11497" lon="1.14931">
        <ele>105</ele>
        <time>2023-07-06T13:23:45Z</time>
      </trkpt>
      <trkpt lat="44.11501" lon="1.14942">
        <ele>104.8</ele>
        <time>2023-07-06T13:23:52Z</time>
      </trkpt>
      <trkpt lat="44.11501" lon="1.14948">
        <ele>104.6</ele>
        <time>2023-07-06T13:23:55Z</time>
      </trkpt>
      <trkpt lat="44.11502" lon="1.14953">
        <ele>104.6</ele>
        <time>2023-07-06T13:23:58Z</time>
      </trkpt>
      <trkpt lat="44.11503" lon="1.14956">
        <ele>104.6</ele>
        <time>2023-07-06T13:24:00Z</time>
      </trkpt>
      <trkpt lat="44.11504" lon="1.14962">
        <ele>104.6</ele>
        <time>2023-07-06T13:24:03Z</time>
      </trkpt>
      <trkpt lat="44.11505" lon="1.14963">
        <ele>104.8</ele>
        <time>2023-07-06T13:24:04Z</time>
      </trkpt>
      <trkpt lat="44.11505" lon="1.14965">
        <ele>104.8</ele>
        <time>2023-07-06T13:24:05Z</time>
      </trkpt>
      <trkpt lat="44.11509" lon="1.14976">
        <ele>105</ele>
        <time>2023-07-06T13:24:12Z</time>
      </trkpt>
      <trkpt lat="44.1151" lon="1.14978">
        <ele>105</ele>
        <time>2023-07-06T13:24:13Z</time>
      </trkpt>
      <trkpt lat="44.1151" lon="1.14981">
        <ele>105</ele>
        <time>2023-07-06T13:24:15Z</time>
      </trkpt>
      <trkpt lat="44.11511" lon="1.1499">
        <ele>105</ele>
        <time>2023-07-06T13:24:20Z</time>
      </trkpt>
      <trkpt lat="44.11516" lon="1.15006">
        <ele>105</ele>
        <time>2023-07-06T13:24:29Z</time>
      </trkpt>
      <trkpt lat="44.11519" lon="1.15014">
        <ele>104.8</ele>
        <time>2023-07-06T13:24:35Z</time>
      </trkpt>
      <trkpt lat="44.11519" lon="1.15019">
        <ele>104.8</ele>
        <time>2023-07-06T13:24:38Z</time>
      </trkpt>
      <trkpt lat="44.11523" lon="1.15037">
        <ele>104.6</ele>
        <time>2023-07-06T13:24:48Z</time>
      </trkpt>
      <trkpt lat="44.11524" lon="1.15039">
        <ele>104.6</ele>
        <time>2023-07-06T13:24:49Z</time>
      </trkpt>
      <trkpt lat="44.11524" lon="1.15042">
        <ele>104.4</ele>
        <time>2023-07-06T13:24:51Z</time>
      </trkpt>
      <trkpt lat="44.11524" lon="1.15044">
        <ele>104.4</ele>
        <time>2023-07-06T13:24:52Z</time>
      </trkpt>
      <trkpt lat="44.11525" lon="1.15047">
        <ele>104.4</ele>
        <time>2023-07-06T13:24:54Z</time>
      </trkpt>
      <trkpt lat="44.11526" lon="1.15054">
        <ele>104.4</ele>
        <time>2023-07-06T13:24:58Z</time>
      </trkpt>
      <trkpt lat="44.11527" lon="1.15062">
        <ele>104.2</ele>
        <time>2023-07-06T13:25:03Z</time>
      </trkpt>
      <trkpt lat="44.11528" lon="1.15067">
        <ele>104.2</ele>
        <time>2023-07-06T13:25:06Z</time>
      </trkpt>
      <trkpt lat="44.11529" lon="1.15074">
        <ele>103.8</ele>
        <time>2023-07-06T13:25:10Z</time>
      </trkpt>
      <trkpt lat="44.11532" lon="1.15093">
        <ele>104</ele>
        <time>2023-07-06T13:25:21Z</time>
      </trkpt>
      <trkpt lat="44.11534" lon="1.15107">
        <ele>104.6</ele>
        <time>2023-07-06T13:25:29Z</time>
      </trkpt>
      <trkpt lat="44.11534" lon="1.15111">
        <ele>104.4</ele>
        <time>2023-07-06T13:25:31Z</time>
      </trkpt>
      <trkpt lat="44.11534" lon="1.15114">
        <ele>104.4</ele>
        <time>2023-07-06T13:25:33Z</time>
      </trkpt>
      <trkpt lat="44.11535" lon="1.15123">
        <ele>104.4</ele>
        <time>2023-07-06T13:25:38Z</time>
      </trkpt>
      <trkpt lat="44.11535" lon="1.15133">
        <ele>104.4</ele>
        <time>2023-07-06T13:25:43Z</time>
      </trkpt>
      <trkpt lat="44.11535" lon="1.15141">
        <ele>104.6</ele>
        <time>2023-07-06T13:25:48Z</time>
      </trkpt>
      <trkpt lat="44.11533" lon="1.1516">
        <ele>104.6</ele>
        <time>2023-07-06T13:25:59Z</time>
      </trkpt>
      <trkpt lat="44.11531" lon="1.15175">
        <ele>104.6</ele>
        <time>2023-07-06T13:26:08Z</time>
      </trkpt>
      <trkpt lat="44.11531" lon="1.15177">
        <ele>104.4</ele>
        <time>2023-07-06T13:26:09Z</time>
      </trkpt>
      <trkpt lat="44.1153" lon="1.15184">
        <ele>104.6</ele>
        <time>2023-07-06T13:26:13Z</time>
      </trkpt>
      <trkpt lat="44.1153" lon="1.1519">
        <ele>104.6</ele>
        <time>2023-07-06T13:26:16Z</time>
      </trkpt>
      <trkpt lat="44.1153" lon="1.15193">
        <ele>104.4</ele>
        <time>2023-07-06T13:26:18Z</time>
      </trkpt>
      <trkpt lat="44.1153" lon="1.15197">
        <ele>104.4</ele>
        <time>2023-07-06T13:26:20Z</time>
      </trkpt>
      <trkpt lat="44.11529" lon="1.15203">
        <ele>104.4</ele>
        <time>2023-07-06T13:26:24Z</time>
      </trkpt>
      <trkpt lat="44.11528" lon="1.15209">
        <ele>104.6</ele>
        <time>2023-07-06T13:26:28Z</time>
      </trkpt>
      <trkpt lat="44.11527" lon="1.15212">
        <ele>104.6</ele>
        <time>2023-07-06T13:26:30Z</time>
      </trkpt>
      <trkpt lat="44.11526" lon="1.15217">
        <ele>104.8</ele>
        <time>2023-07-06T13:26:33Z</time>
      </trkpt>
      <trkpt lat="44.11524" lon="1.15227">
        <ele>104.6</ele>
        <time>2023-07-06T13:26:40Z</time>
      </trkpt>
      <trkpt lat="44.11524" lon="1.15238">
        <ele>104.8</ele>
        <time>2023-07-06T13:26:46Z</time>
      </trkpt>
      <trkpt lat="44.11522" lon="1.15251">
        <ele>104.8</ele>
        <time>2023-07-06T13:26:54Z</time>
      </trkpt>
      <trkpt lat="44.11521" lon="1.15255">
        <ele>105</ele>
        <time>2023-07-06T13:26:57Z</time>
      </trkpt>
      <trkpt lat="44.11519" lon="1.15271">
        <ele>105.2</ele>
        <time>2023-07-06T13:27:07Z</time>
      </trkpt>
      <trkpt lat="44.11518" lon="1.15286">
        <ele>105.2</ele>
        <time>2023-07-06T13:27:15Z</time>
      </trkpt>
      <trkpt lat="44.11517" lon="1.15296">
        <ele>105.4</ele>
        <time>2023-07-06T13:27:21Z</time>
      </trkpt>
      <trkpt lat="44.11517" lon="1.15307">
        <ele>105.4</ele>
        <time>2023-07-06T13:27:27Z</time>
      </trkpt>
      <trkpt lat="44.11516" lon="1.15314">
        <ele>105.4</ele>
        <time>2023-07-06T13:27:31Z</time>
      </trkpt>
      <trkpt lat="44.11518" lon="1.15324">
        <ele>105.4</ele>
        <time>2023-07-06T13:27:36Z</time>
      </trkpt>
      <trkpt lat="44.11518" lon="1.15327">
        <ele>105.4</ele>
        <time>2023-07-06T13:27:38Z</time>
      </trkpt>
      <trkpt lat="44.11518" lon="1.15334">
        <ele>105.6</ele>
        <time>2023-07-06T13:27:42Z</time>
      </trkpt>
      <trkpt lat="44.11518" lon="1.15336">
        <ele>105.6</ele>
        <time>2023-07-06T13:27:43Z</time>
      </trkpt>
      <trkpt lat="44.11518" lon="1.15345">
        <ele>105.4</ele>
        <time>2023-07-06T13:27:48Z</time>
      </trkpt>
      <trkpt lat="44.11517" lon="1.15351">
        <ele>105.4</ele>
        <time>2023-07-06T13:27:52Z</time>
      </trkpt>
      <trkpt lat="44.11517" lon="1.15366">
        <ele>105.8</ele>
        <time>2023-07-06T13:28:00Z</time>
      </trkpt>
      <trkpt lat="44.11517" lon="1.15371">
        <ele>105.6</ele>
        <time>2023-07-06T13:28:03Z</time>
      </trkpt>
      <trkpt lat="44.11518" lon="1.15376">
        <ele>105.6</ele>
        <time>2023-07-06T13:28:06Z</time>
      </trkpt>
      <trkpt lat="44.11518" lon="1.15382">
        <ele>105.8</ele>
        <time>2023-07-06T13:28:09Z</time>
      </trkpt>
      <trkpt lat="44.1152" lon="1.15396">
        <ele>105.6</ele>
        <time>2023-07-06T13:28:17Z</time>
      </trkpt>
      <trkpt lat="44.11524" lon="1.15408">
        <ele>105.8</ele>
        <time>2023-07-06T13:28:24Z</time>
      </trkpt>
      <trkpt lat="44.11524" lon="1.15413">
        <ele>105.8</ele>
        <time>2023-07-06T13:28:27Z</time>
      </trkpt>
      <trkpt lat="44.11525" lon="1.15418">
        <ele>106</ele>
        <time>2023-07-06T13:28:30Z</time>
      </trkpt>
      <trkpt lat="44.11527" lon="1.15426">
        <ele>106.2</ele>
        <time>2023-07-06T13:28:35Z</time>
      </trkpt>
      <trkpt lat="44.1153" lon="1.15434">
        <ele>106.4</ele>
        <time>2023-07-06T13:28:40Z</time>
      </trkpt>
      <trkpt lat="44.11531" lon="1.15445">
        <ele>106.8</ele>
        <time>2023-07-06T13:28:46Z</time>
      </trkpt>
      <trkpt lat="44.11532" lon="1.1545">
        <ele>107</ele>
        <time>2023-07-06T13:28:49Z</time>
      </trkpt>
      <trkpt lat="44.11533" lon="1.15451">
        <ele>107</ele>
        <time>2023-07-06T13:28:50Z</time>
      </trkpt>
      <trkpt lat="44.11534" lon="1.15458">
        <ele>107.2</ele>
        <time>2023-07-06T13:28:54Z</time>
      </trkpt>
      <trkpt lat="44.11534" lon="1.15463">
        <ele>107.4</ele>
        <time>2023-07-06T13:28:57Z</time>
      </trkpt>
      <trkpt lat="44.11535" lon="1.15476">
        <ele>108.4</ele>
        <time>2023-07-06T13:29:05Z</time>
      </trkpt>
      <trkpt lat="44.11535" lon="1.15478">
        <ele>108.4</ele>
        <time>2023-07-06T13:29:06Z</time>
      </trkpt>
      <trkpt lat="44.11536" lon="1.15484">
        <ele>108.6</ele>
        <time>2023-07-06T13:29:10Z</time>
      </trkpt>
      <trkpt lat="44.11536" lon="1.15486">
        <ele>108.6</ele>
        <time>2023-07-06T13:29:11Z</time>
      </trkpt>
      <trkpt lat="44.11537" lon="1.15489">
        <ele>108.4</ele>
        <time>2023-07-06T13:29:13Z</time>
      </trkpt>
      <trkpt lat="44.11538" lon="1.1549">
        <ele>108.4</ele>
        <time>2023-07-06T13:29:14Z</time>
      </trkpt>
      <trkpt lat="44.11539" lon="1.15495">
        <ele>108.4</ele>
        <time>2023-07-06T13:29:17Z</time>
      </trkpt>
      <trkpt lat="44.1154" lon="1.155">
        <ele>108.8</ele>
        <time>2023-07-06T13:29:20Z</time>
      </trkpt>
      <trkpt lat="44.11541" lon="1.15505">
        <ele>109</ele>
        <time>2023-07-06T13:29:23Z</time>
      </trkpt>
      <trkpt lat="44.11541" lon="1.15511">
        <ele>109.4</ele>
        <time>2023-07-06T13:29:27Z</time>
      </trkpt>
      <trkpt lat="44.11541" lon="1.15518">
        <ele>109.8</ele>
        <time>2023-07-06T13:29:31Z</time>
      </trkpt>
      <trkpt lat="44.11544" lon="1.15531">
        <ele>110</ele>
        <time>2023-07-06T13:29:40Z</time>
      </trkpt>
      <trkpt lat="44.11545" lon="1.15539">
        <ele>110.4</ele>
        <time>2023-07-06T13:29:45Z</time>
      </trkpt>
      <trkpt lat="44.11545" lon="1.15541">
        <ele>110.6</ele>
        <time>2023-07-06T13:29:46Z</time>
      </trkpt>
      <trkpt lat="44.11545" lon="1.15544">
        <ele>110.8</ele>
        <time>2023-07-06T13:29:48Z</time>
      </trkpt>
      <trkpt lat="44.11546" lon="1.15554">
        <ele>111.2</ele>
        <time>2023-07-06T13:29:54Z</time>
      </trkpt>
      <trkpt lat="44.11545" lon="1.15555">
        <ele>111.2</ele>
        <time>2023-07-06T13:29:55Z</time>
      </trkpt>
      <trkpt lat="44.11546" lon="1.15558">
        <ele>111.2</ele>
        <time>2023-07-06T13:29:57Z</time>
      </trkpt>
      <trkpt lat="44.11548" lon="1.15566">
        <ele>111.6</ele>
        <time>2023-07-06T13:30:02Z</time>
      </trkpt>
      <trkpt lat="44.11549" lon="1.15568">
        <ele>111.8</ele>
        <time>2023-07-06T13:30:03Z</time>
      </trkpt>
      <trkpt lat="44.11553" lon="1.15576">
        <ele>112.2</ele>
        <time>2023-07-06T13:30:08Z</time>
      </trkpt>
      <trkpt lat="44.11555" lon="1.15581">
        <ele>112.4</ele>
        <time>2023-07-06T13:30:11Z</time>
      </trkpt>
      <trkpt lat="44.11555" lon="1.15583">
        <ele>112.4</ele>
        <time>2023-07-06T13:30:12Z</time>
      </trkpt>
      <trkpt lat="44.11557" lon="1.15596">
        <ele>112.6</ele>
        <time>2023-07-06T13:30:20Z</time>
      </trkpt>
      <trkpt lat="44.11557" lon="1.15605">
        <ele>112.6</ele>
        <time>2023-07-06T13:30:25Z</time>
      </trkpt>
      <trkpt lat="44.11557" lon="1.15616">
        <ele>112.6</ele>
        <time>2023-07-06T13:30:31Z</time>
      </trkpt>
      <trkpt lat="44.11558" lon="1.15619">
        <ele>112.6</ele>
        <time>2023-07-06T13:30:33Z</time>
      </trkpt>
      <trkpt lat="44.11559" lon="1.15631">
        <ele>112.2</ele>
        <time>2023-07-06T13:30:40Z</time>
      </trkpt>
      <trkpt lat="44.11559" lon="1.15637">
        <ele>112.4</ele>
        <time>2023-07-06T13:30:44Z</time>
      </trkpt>
      <trkpt lat="44.11558" lon="1.1564">
        <ele>112.6</ele>
        <time>2023-07-06T13:30:46Z</time>
      </trkpt>
      <trkpt lat="44.11559" lon="1.15648">
        <ele>112</ele>
        <time>2023-07-06T13:30:51Z</time>
      </trkpt>
      <trkpt lat="44.1156" lon="1.15651">
        <ele>111.8</ele>
        <time>2023-07-06T13:30:53Z</time>
      </trkpt>
      <trkpt lat="44.1156" lon="1.15655">
        <ele>111.6</ele>
        <time>2023-07-06T13:30:56Z</time>
      </trkpt>
      <trkpt lat="44.11561" lon="1.1566">
        <ele>111.4</ele>
        <time>2023-07-06T13:30:59Z</time>
      </trkpt>
      <trkpt lat="44.11562" lon="1.15664">
        <ele>111.2</ele>
        <time>2023-07-06T13:31:01Z</time>
      </trkpt>
      <trkpt lat="44.11564" lon="1.15668">
        <ele>111</ele>
        <time>2023-07-06T13:31:04Z</time>
      </trkpt>
      <trkpt lat="44.11564" lon="1.1567">
        <ele>111</ele>
        <time>2023-07-06T13:31:05Z</time>
      </trkpt>
      <trkpt lat="44.11567" lon="1.15677">
        <ele>110.6</ele>
        <time>2023-07-06T13:31:10Z</time>
      </trkpt>
      <trkpt lat="44.1157" lon="1.15689">
        <ele>110.2</ele>
        <time>2023-07-06T13:31:17Z</time>
      </trkpt>
      <trkpt lat="44.11571" lon="1.15697">
        <ele>110</ele>
        <time>2023-07-06T13:31:23Z</time>
      </trkpt>
      <trkpt lat="44.11575" lon="1.15709">
        <ele>109.8</ele>
        <time>2023-07-06T13:31:31Z</time>
      </trkpt>
      <trkpt lat="44.11579" lon="1.15713">
        <ele>109.6</ele>
        <time>2023-07-06T13:31:33Z</time>
      </trkpt>
      <trkpt lat="44.11585" lon="1.15719">
        <ele>109.4</ele>
        <time>2023-07-06T13:31:38Z</time>
      </trkpt>
      <trkpt lat="44.11586" lon="1.15721">
        <ele>109.4</ele>
        <time>2023-07-06T13:31:39Z</time>
      </trkpt>
      <trkpt lat="44.11588" lon="1.15729">
        <ele>109.4</ele>
        <time>2023-07-06T13:31:45Z</time>
      </trkpt>
      <trkpt lat="44.11589" lon="1.1573">
        <ele>109.2</ele>
        <time>2023-07-06T13:31:46Z</time>
      </trkpt>
      <trkpt lat="44.11591" lon="1.15735">
        <ele>108.6</ele>
        <time>2023-07-06T13:31:49Z</time>
      </trkpt>
      <trkpt lat="44.11597" lon="1.15741">
        <ele>108.2</ele>
        <time>2023-07-06T13:31:53Z</time>
      </trkpt>
      <trkpt lat="44.11601" lon="1.15749">
        <ele>108.6</ele>
        <time>2023-07-06T13:31:58Z</time>
      </trkpt>
      <trkpt lat="44.11602" lon="1.1575">
        <ele>108.4</ele>
        <time>2023-07-06T13:31:59Z</time>
      </trkpt>
      <trkpt lat="44.11608" lon="1.15759">
        <ele>107.8</ele>
        <time>2023-07-06T13:32:06Z</time>
      </trkpt>
      <trkpt lat="44.11609" lon="1.15762">
        <ele>107.8</ele>
        <time>2023-07-06T13:32:08Z</time>
      </trkpt>
      <trkpt lat="44.11611" lon="1.15765">
        <ele>107.8</ele>
        <time>2023-07-06T13:32:11Z</time>
      </trkpt>
      <trkpt lat="44.11611" lon="1.15767">
        <ele>107.8</ele>
        <time>2023-07-06T13:32:12Z</time>
      </trkpt>
      <trkpt lat="44.11612" lon="1.15769">
        <ele>107.8</ele>
        <time>2023-07-06T13:32:13Z</time>
      </trkpt>
      <trkpt lat="44.11613" lon="1.15773">
        <ele>107.4</ele>
        <time>2023-07-06T13:32:16Z</time>
      </trkpt>
      <trkpt lat="44.11614" lon="1.15775">
        <ele>107.4</ele>
        <time>2023-07-06T13:32:18Z</time>
      </trkpt>
      <trkpt lat="44.11618" lon="1.15779">
        <ele>107.4</ele>
        <time>2023-07-06T13:32:20Z</time>
      </trkpt>
      <trkpt lat="44.1162" lon="1.1578">
        <ele>107.4</ele>
        <time>2023-07-06T13:32:22Z</time>
      </trkpt>
      <trkpt lat="44.11622" lon="1.15784">
        <ele>107.8</ele>
        <time>2023-07-06T13:32:25Z</time>
      </trkpt>
      <trkpt lat="44.11625" lon="1.1579">
        <ele>108</ele>
        <time>2023-07-06T13:32:28Z</time>
      </trkpt>
      <trkpt lat="44.11626" lon="1.15793">
        <ele>108</ele>
        <time>2023-07-06T13:32:30Z</time>
      </trkpt>
      <trkpt lat="44.11627" lon="1.15795">
        <ele>108</ele>
        <time>2023-07-06T13:32:32Z</time>
      </trkpt>
      <trkpt lat="44.11627" lon="1.15798">
        <ele>107.6</ele>
        <time>2023-07-06T13:32:34Z</time>
      </trkpt>
      <trkpt lat="44.11628" lon="1.158">
        <ele>107.6</ele>
        <time>2023-07-06T13:32:35Z</time>
      </trkpt>
      <trkpt lat="44.11628" lon="1.15802">
        <ele>107.4</ele>
        <time>2023-07-06T13:32:36Z</time>
      </trkpt>
      <trkpt lat="44.1163" lon="1.15812">
        <ele>106.8</ele>
        <time>2023-07-06T13:32:42Z</time>
      </trkpt>
      <trkpt lat="44.11632" lon="1.15823">
        <ele>106.8</ele>
        <time>2023-07-06T13:32:48Z</time>
      </trkpt>
      <trkpt lat="44.11633" lon="1.15833">
        <ele>106.4</ele>
        <time>2023-07-06T13:32:55Z</time>
      </trkpt>
      <trkpt lat="44.11635" lon="1.15839">
        <ele>106</ele>
        <time>2023-07-06T13:32:59Z</time>
      </trkpt>
      <trkpt lat="44.11634" lon="1.15841">
        <ele>106</ele>
        <time>2023-07-06T13:33:00Z</time>
      </trkpt>
      <trkpt lat="44.11633" lon="1.15846">
        <ele>106.2</ele>
        <time>2023-07-06T13:33:03Z</time>
      </trkpt>
      <trkpt lat="44.11632" lon="1.15848">
        <ele>106.4</ele>
        <time>2023-07-06T13:33:04Z</time>
      </trkpt>
      <trkpt lat="44.11629" lon="1.15855">
        <ele>106.4</ele>
        <time>2023-07-06T13:33:09Z</time>
      </trkpt>
      <trkpt lat="44.11628" lon="1.15856">
        <ele>106.2</ele>
        <time>2023-07-06T13:33:10Z</time>
      </trkpt>
      <trkpt lat="44.11631" lon="1.15862">
        <ele>106</ele>
        <time>2023-07-06T13:33:12Z</time>
      </trkpt>
      <trkpt lat="44.11628" lon="1.15869">
        <ele>105.8</ele>
        <time>2023-07-06T13:33:17Z</time>
      </trkpt>
      <trkpt lat="44.11626" lon="1.15874">
        <ele>105.6</ele>
        <time>2023-07-06T13:33:20Z</time>
      </trkpt>
      <trkpt lat="44.11617" lon="1.15885">
        <ele>105.6</ele>
        <time>2023-07-06T13:33:29Z</time>
      </trkpt>
      <trkpt lat="44.11609" lon="1.159">
        <ele>105.4</ele>
        <time>2023-07-06T13:33:39Z</time>
      </trkpt>
      <trkpt lat="44.11609" lon="1.15902">
        <ele>105.4</ele>
        <time>2023-07-06T13:33:40Z</time>
      </trkpt>
      <trkpt lat="44.11606" lon="1.15909">
        <ele>105.4</ele>
        <time>2023-07-06T13:33:46Z</time>
      </trkpt>
      <trkpt lat="44.11605" lon="1.15911">
        <ele>105.4</ele>
        <time>2023-07-06T13:33:47Z</time>
      </trkpt>
      <trkpt lat="44.11603" lon="1.1592">
        <ele>105.6</ele>
        <time>2023-07-06T13:33:53Z</time>
      </trkpt>
      <trkpt lat="44.11602" lon="1.15925">
        <ele>105.6</ele>
        <time>2023-07-06T13:33:56Z</time>
      </trkpt>
      <trkpt lat="44.11602" lon="1.15929">
        <ele>105.8</ele>
        <time>2023-07-06T13:33:58Z</time>
      </trkpt>
      <trkpt lat="44.11603" lon="1.1594">
        <ele>106</ele>
        <time>2023-07-06T13:34:04Z</time>
      </trkpt>
      <trkpt lat="44.11606" lon="1.15955">
        <ele>105.6</ele>
        <time>2023-07-06T13:34:13Z</time>
      </trkpt>
      <trkpt lat="44.11611" lon="1.15975">
        <ele>105.8</ele>
        <time>2023-07-06T13:34:24Z</time>
      </trkpt>
      <trkpt lat="44.11615" lon="1.15996">
        <ele>106.4</ele>
        <time>2023-07-06T13:34:36Z</time>
      </trkpt>
      <trkpt lat="44.11618" lon="1.16008">
        <ele>106.4</ele>
        <time>2023-07-06T13:34:43Z</time>
      </trkpt>
      <trkpt lat="44.11622" lon="1.16022">
        <ele>106</ele>
        <time>2023-07-06T13:34:51Z</time>
      </trkpt>
      <trkpt lat="44.11624" lon="1.16033">
        <ele>106</ele>
        <time>2023-07-06T13:34:58Z</time>
      </trkpt>
      <trkpt lat="44.11624" lon="1.16037">
        <ele>106</ele>
        <time>2023-07-06T13:35:00Z</time>
      </trkpt>
      <trkpt lat="44.11626" lon="1.16042">
        <ele>105.8</ele>
        <time>2023-07-06T13:35:04Z</time>
      </trkpt>
      <trkpt lat="44.11626" lon="1.16044">
        <ele>105.8</ele>
        <time>2023-07-06T13:35:05Z</time>
      </trkpt>
      <trkpt lat="44.11627" lon="1.16045">
        <ele>105.8</ele>
        <time>2023-07-06T13:35:06Z</time>
      </trkpt>
      <trkpt lat="44.11628" lon="1.16049">
        <ele>105.8</ele>
        <time>2023-07-06T13:35:09Z</time>
      </trkpt>
      <trkpt lat="44.11628" lon="1.16051">
        <ele>105.8</ele>
        <time>2023-07-06T13:35:10Z</time>
      </trkpt>
      <trkpt lat="44.11628" lon="1.16065">
        <ele>105.8</ele>
        <time>2023-07-06T13:35:18Z</time>
      </trkpt>
      <trkpt lat="44.11633" lon="1.16077">
        <ele>105.8</ele>
        <time>2023-07-06T13:35:24Z</time>
      </trkpt>
      <trkpt lat="44.11634" lon="1.16078">
        <ele>105.8</ele>
        <time>2023-07-06T13:35:25Z</time>
      </trkpt>
      <trkpt lat="44.11635" lon="1.16087">
        <ele>105.4</ele>
        <time>2023-07-06T13:35:31Z</time>
      </trkpt>
      <trkpt lat="44.11637" lon="1.16093">
        <ele>105.2</ele>
        <time>2023-07-06T13:35:35Z</time>
      </trkpt>
      <trkpt lat="44.11639" lon="1.16097">
        <ele>105.4</ele>
        <time>2023-07-06T13:35:38Z</time>
      </trkpt>
      <trkpt lat="44.11646" lon="1.16112">
        <ele>105.6</ele>
        <time>2023-07-06T13:35:47Z</time>
      </trkpt>
      <trkpt lat="44.1165" lon="1.16123">
        <ele>105.2</ele>
        <time>2023-07-06T13:35:54Z</time>
      </trkpt>
      <trkpt lat="44.11648" lon="1.16134">
        <ele>105</ele>
        <time>2023-07-06T13:36:02Z</time>
      </trkpt>
      <trkpt lat="44.11654" lon="1.16151">
        <ele>104.8</ele>
        <time>2023-07-06T13:36:10Z</time>
      </trkpt>
      <trkpt lat="44.11653" lon="1.16159">
        <ele>104.2</ele>
        <time>2023-07-06T13:36:15Z</time>
      </trkpt>
      <trkpt lat="44.11654" lon="1.16166">
        <ele>104.2</ele>
        <time>2023-07-06T13:36:19Z</time>
      </trkpt>
      <trkpt lat="44.11658" lon="1.16183">
        <ele>104</ele>
        <time>2023-07-06T13:36:29Z</time>
      </trkpt>
      <trkpt lat="44.11659" lon="1.16199">
        <ele>104.2</ele>
        <time>2023-07-06T13:36:39Z</time>
      </trkpt>
      <trkpt lat="44.11659" lon="1.16202">
        <ele>104</ele>
        <time>2023-07-06T13:36:43Z</time>
      </trkpt>
      <trkpt lat="44.11659" lon="1.16204">
        <ele>104</ele>
        <time>2023-07-06T13:36:44Z</time>
      </trkpt>
      <trkpt lat="44.11659" lon="1.1621">
        <ele>104</ele>
        <time>2023-07-06T13:36:47Z</time>
      </trkpt>
      <trkpt lat="44.11658" lon="1.16218">
        <ele>104.4</ele>
        <time>2023-07-06T13:36:52Z</time>
      </trkpt>
      <trkpt lat="44.11658" lon="1.1622">
        <ele>104.6</ele>
        <time>2023-07-06T13:36:53Z</time>
      </trkpt>
      <trkpt lat="44.11658" lon="1.16222">
        <ele>104.4</ele>
        <time>2023-07-06T13:36:54Z</time>
      </trkpt>
      <trkpt lat="44.11655" lon="1.16231">
        <ele>104.2</ele>
        <time>2023-07-06T13:37:00Z</time>
      </trkpt>
      <trkpt lat="44.11656" lon="1.16247">
        <ele>104.6</ele>
        <time>2023-07-06T13:37:09Z</time>
      </trkpt>
      <trkpt lat="44.11658" lon="1.16259">
        <ele>105</ele>
        <time>2023-07-06T13:37:15Z</time>
      </trkpt>
      <trkpt lat="44.11657" lon="1.16273">
        <ele>105.2</ele>
        <time>2023-07-06T13:37:23Z</time>
      </trkpt>
      <trkpt lat="44.11658" lon="1.16276">
        <ele>105.2</ele>
        <time>2023-07-06T13:37:25Z</time>
      </trkpt>
      <trkpt lat="44.11658" lon="1.16277">
        <ele>105.2</ele>
        <time>2023-07-06T13:37:26Z</time>
      </trkpt>
      <trkpt lat="44.11659" lon="1.16284">
        <ele>106</ele>
        <time>2023-07-06T13:37:30Z</time>
      </trkpt>
      <trkpt lat="44.11659" lon="1.16285">
        <ele>106</ele>
        <time>2023-07-06T13:37:31Z</time>
      </trkpt>
      <trkpt lat="44.1166" lon="1.16292">
        <ele>106.4</ele>
        <time>2023-07-06T13:37:34Z</time>
      </trkpt>
      <trkpt lat="44.11661" lon="1.16299">
        <ele>106.8</ele>
        <time>2023-07-06T13:37:38Z</time>
      </trkpt>
      <trkpt lat="44.11666" lon="1.1631">
        <ele>106.8</ele>
        <time>2023-07-06T13:37:44Z</time>
      </trkpt>
      <trkpt lat="44.11666" lon="1.16313">
        <ele>106.8</ele>
        <time>2023-07-06T13:37:46Z</time>
      </trkpt>
      <trkpt lat="44.11666" lon="1.16323">
        <ele>107</ele>
        <time>2023-07-06T13:37:52Z</time>
      </trkpt>
      <trkpt lat="44.11667" lon="1.16327">
        <ele>106.8</ele>
        <time>2023-07-06T13:37:54Z</time>
      </trkpt>
      <trkpt lat="44.11672" lon="1.16336">
        <ele>107</ele>
        <time>2023-07-06T13:37:59Z</time>
      </trkpt>
      <trkpt lat="44.11672" lon="1.1634">
        <ele>107</ele>
        <time>2023-07-06T13:38:01Z</time>
      </trkpt>
      <trkpt lat="44.11673" lon="1.16343">
        <ele>107</ele>
        <time>2023-07-06T13:38:03Z</time>
      </trkpt>
      <trkpt lat="44.11674" lon="1.16348">
        <ele>107.2</ele>
        <time>2023-07-06T13:38:06Z</time>
      </trkpt>
      <trkpt lat="44.11675" lon="1.16361">
        <ele>107.4</ele>
        <time>2023-07-06T13:38:14Z</time>
      </trkpt>
      <trkpt lat="44.11676" lon="1.16372">
        <ele>107.4</ele>
        <time>2023-07-06T13:38:21Z</time>
      </trkpt>
      <trkpt lat="44.11676" lon="1.16375">
        <ele>107.4</ele>
        <time>2023-07-06T13:38:23Z</time>
      </trkpt>
      <trkpt lat="44.11676" lon="1.16384">
        <ele>107.6</ele>
        <time>2023-07-06T13:38:28Z</time>
      </trkpt>
      <trkpt lat="44.11676" lon="1.16387">
        <ele>107.6</ele>
        <time>2023-07-06T13:38:30Z</time>
      </trkpt>
      <trkpt lat="44.11681" lon="1.16392">
        <ele>107.6</ele>
        <time>2023-07-06T13:38:32Z</time>
      </trkpt>
      <trkpt lat="44.11683" lon="1.16397">
        <ele>107.6</ele>
        <time>2023-07-06T13:38:35Z</time>
      </trkpt>
      <trkpt lat="44.11684" lon="1.16411">
        <ele>107.8</ele>
        <time>2023-07-06T13:38:44Z</time>
      </trkpt>
      <trkpt lat="44.11684" lon="1.16413">
        <ele>108</ele>
        <time>2023-07-06T13:38:45Z</time>
      </trkpt>
      <trkpt lat="44.11684" lon="1.16415">
        <ele>108</ele>
        <time>2023-07-06T13:38:46Z</time>
      </trkpt>
      <trkpt lat="44.11684" lon="1.16422">
        <ele>108</ele>
        <time>2023-07-06T13:38:50Z</time>
      </trkpt>
      <trkpt lat="44.11684" lon="1.16424">
        <ele>108</ele>
        <time>2023-07-06T13:38:51Z</time>
      </trkpt>
      <trkpt lat="44.11684" lon="1.16425">
        <ele>108</ele>
        <time>2023-07-06T13:38:52Z</time>
      </trkpt>
      <trkpt lat="44.11688" lon="1.1644">
        <ele>108</ele>
        <time>2023-07-06T13:39:00Z</time>
      </trkpt>
      <trkpt lat="44.11692" lon="1.1645">
        <ele>108.2</ele>
        <time>2023-07-06T13:39:06Z</time>
      </trkpt>
      <trkpt lat="44.11694" lon="1.1646">
        <ele>108.2</ele>
        <time>2023-07-06T13:39:12Z</time>
      </trkpt>
      <trkpt lat="44.11696" lon="1.1647">
        <ele>107.8</ele>
        <time>2023-07-06T13:39:17Z</time>
      </trkpt>
      <trkpt lat="44.117" lon="1.16486">
        <ele>107.4</ele>
        <time>2023-07-06T13:39:25Z</time>
      </trkpt>
      <trkpt lat="44.11705" lon="1.16499">
        <ele>107.6</ele>
        <time>2023-07-06T13:39:33Z</time>
      </trkpt>
      <trkpt lat="44.11707" lon="1.1651">
        <ele>107.4</ele>
        <time>2023-07-06T13:39:39Z</time>
      </trkpt>
      <trkpt lat="44.1171" lon="1.16522">
        <ele>107.4</ele>
        <time>2023-07-06T13:39:46Z</time>
      </trkpt>
      <trkpt lat="44.11711" lon="1.16529">
        <ele>107.4</ele>
        <time>2023-07-06T13:39:50Z</time>
      </trkpt>
      <trkpt lat="44.11711" lon="1.16533">
        <ele>107.2</ele>
        <time>2023-07-06T13:39:53Z</time>
      </trkpt>
      <trkpt lat="44.11711" lon="1.16537">
        <ele>107.2</ele>
        <time>2023-07-06T13:39:55Z</time>
      </trkpt>
      <trkpt lat="44.11715" lon="1.1655">
        <ele>107.8</ele>
        <time>2023-07-06T13:40:02Z</time>
      </trkpt>
      <trkpt lat="44.11716" lon="1.16561">
        <ele>108.4</ele>
        <time>2023-07-06T13:40:08Z</time>
      </trkpt>
      <trkpt lat="44.11718" lon="1.1657">
        <ele>108.2</ele>
        <time>2023-07-06T13:40:14Z</time>
      </trkpt>
      <trkpt lat="44.11719" lon="1.16579">
        <ele>108.2</ele>
        <time>2023-07-06T13:40:20Z</time>
      </trkpt>
      <trkpt lat="44.11723" lon="1.16592">
        <ele>108.4</ele>
        <time>2023-07-06T13:40:26Z</time>
      </trkpt>
      <trkpt lat="44.11724" lon="1.16601">
        <ele>108.4</ele>
        <time>2023-07-06T13:40:32Z</time>
      </trkpt>
      <trkpt lat="44.11724" lon="1.16609">
        <ele>108.2</ele>
        <time>2023-07-06T13:40:37Z</time>
      </trkpt>
      <trkpt lat="44.11724" lon="1.16611">
        <ele>108.2</ele>
        <time>2023-07-06T13:40:38Z</time>
      </trkpt>
      <trkpt lat="44.11724" lon="1.16614">
        <ele>108.2</ele>
        <time>2023-07-06T13:40:39Z</time>
      </trkpt>
      <trkpt lat="44.11726" lon="1.16624">
        <ele>108.4</ele>
        <time>2023-07-06T13:40:44Z</time>
      </trkpt>
      <trkpt lat="44.11729" lon="1.1664">
        <ele>108.8</ele>
        <time>2023-07-06T13:40:53Z</time>
      </trkpt>
      <trkpt lat="44.11731" lon="1.16653">
        <ele>109.2</ele>
        <time>2023-07-06T13:41:02Z</time>
      </trkpt>
      <trkpt lat="44.11731" lon="1.16663">
        <ele>109</ele>
        <time>2023-07-06T13:41:08Z</time>
      </trkpt>
      <trkpt lat="44.11732" lon="1.1667">
        <ele>109.2</ele>
        <time>2023-07-06T13:41:11Z</time>
      </trkpt>
      <trkpt lat="44.11731" lon="1.16681">
        <ele>109.2</ele>
        <time>2023-07-06T13:41:17Z</time>
      </trkpt>
      <trkpt lat="44.11731" lon="1.16689">
        <ele>109.2</ele>
        <time>2023-07-06T13:41:22Z</time>
      </trkpt>
      <trkpt lat="44.1173" lon="1.16692">
        <ele>109</ele>
        <time>2023-07-06T13:41:24Z</time>
      </trkpt>
      <trkpt lat="44.11734" lon="1.16709">
        <ele>109.4</ele>
        <time>2023-07-06T13:41:33Z</time>
      </trkpt>
      <trkpt lat="44.11739" lon="1.16723">
        <ele>109.2</ele>
        <time>2023-07-06T13:41:40Z</time>
      </trkpt>
      <trkpt lat="44.11739" lon="1.16725">
        <ele>109.4</ele>
        <time>2023-07-06T13:41:41Z</time>
      </trkpt>
      <trkpt lat="44.11739" lon="1.16729">
        <ele>109.4</ele>
        <time>2023-07-06T13:41:43Z</time>
      </trkpt>
      <trkpt lat="44.1174" lon="1.16735">
        <ele>109.4</ele>
        <time>2023-07-06T13:41:46Z</time>
      </trkpt>
      <trkpt lat="44.1174" lon="1.16744">
        <ele>109.4</ele>
        <time>2023-07-06T13:41:50Z</time>
      </trkpt>
      <trkpt lat="44.1174" lon="1.16746">
        <ele>109.6</ele>
        <time>2023-07-06T13:41:51Z</time>
      </trkpt>
      <trkpt lat="44.1174" lon="1.1675">
        <ele>109.6</ele>
        <time>2023-07-06T13:41:53Z</time>
      </trkpt>
      <trkpt lat="44.11741" lon="1.16755">
        <ele>109.4</ele>
        <time>2023-07-06T13:41:56Z</time>
      </trkpt>
      <trkpt lat="44.11744" lon="1.16759">
        <ele>109.4</ele>
        <time>2023-07-06T13:41:59Z</time>
      </trkpt>
      <trkpt lat="44.11748" lon="1.1677">
        <ele>109.2</ele>
        <time>2023-07-06T13:42:06Z</time>
      </trkpt>
      <trkpt lat="44.1175" lon="1.16772">
        <ele>109.6</ele>
        <time>2023-07-06T13:42:08Z</time>
      </trkpt>
      <trkpt lat="44.1175" lon="1.16774">
        <ele>109.8</ele>
        <time>2023-07-06T13:42:09Z</time>
      </trkpt>
      <trkpt lat="44.11751" lon="1.16777">
        <ele>109.8</ele>
        <time>2023-07-06T13:42:11Z</time>
      </trkpt>
      <trkpt lat="44.11752" lon="1.16778">
        <ele>109.8</ele>
        <time>2023-07-06T13:42:12Z</time>
      </trkpt>
      <trkpt lat="44.11752" lon="1.1678">
        <ele>109.8</ele>
        <time>2023-07-06T13:42:13Z</time>
      </trkpt>
      <trkpt lat="44.11752" lon="1.16786">
        <ele>109.2</ele>
        <time>2023-07-06T13:42:16Z</time>
      </trkpt>
      <trkpt lat="44.11759" lon="1.16799">
        <ele>109.4</ele>
        <time>2023-07-06T13:42:24Z</time>
      </trkpt>
      <trkpt lat="44.11763" lon="1.16808">
        <ele>109.6</ele>
        <time>2023-07-06T13:42:29Z</time>
      </trkpt>
      <trkpt lat="44.11764" lon="1.16813">
        <ele>109.4</ele>
        <time>2023-07-06T13:42:32Z</time>
      </trkpt>
      <trkpt lat="44.11766" lon="1.16825">
        <ele>109.8</ele>
        <time>2023-07-06T13:42:39Z</time>
      </trkpt>
      <trkpt lat="44.11766" lon="1.16826">
        <ele>109.8</ele>
        <time>2023-07-06T13:42:40Z</time>
      </trkpt>
      <trkpt lat="44.11767" lon="1.16833">
        <ele>109.8</ele>
        <time>2023-07-06T13:42:44Z</time>
      </trkpt>
      <trkpt lat="44.11774" lon="1.16851">
        <ele>110</ele>
        <time>2023-07-06T13:42:53Z</time>
      </trkpt>
      <trkpt lat="44.11775" lon="1.16852">
        <ele>110</ele>
        <time>2023-07-06T13:42:54Z</time>
      </trkpt>
      <trkpt lat="44.11776" lon="1.16854">
        <ele>110</ele>
        <time>2023-07-06T13:42:55Z</time>
      </trkpt>
      <trkpt lat="44.11778" lon="1.16864">
        <ele>110.2</ele>
        <time>2023-07-06T13:43:01Z</time>
      </trkpt>
      <trkpt lat="44.11778" lon="1.16865">
        <ele>110.2</ele>
        <time>2023-07-06T13:43:02Z</time>
      </trkpt>
      <trkpt lat="44.11782" lon="1.16875">
        <ele>110.2</ele>
        <time>2023-07-06T13:43:08Z</time>
      </trkpt>
      <trkpt lat="44.11782" lon="1.16877">
        <ele>110.2</ele>
        <time>2023-07-06T13:43:09Z</time>
      </trkpt>
      <trkpt lat="44.1178" lon="1.16889">
        <ele>110.2</ele>
        <time>2023-07-06T13:43:16Z</time>
      </trkpt>
      <trkpt lat="44.11781" lon="1.16898">
        <ele>110.2</ele>
        <time>2023-07-06T13:43:22Z</time>
      </trkpt>
      <trkpt lat="44.11784" lon="1.16908">
        <ele>110</ele>
        <time>2023-07-06T13:43:29Z</time>
      </trkpt>
      <trkpt lat="44.11785" lon="1.16912">
        <ele>110</ele>
        <time>2023-07-06T13:43:31Z</time>
      </trkpt>
      <trkpt lat="44.11786" lon="1.16914">
        <ele>110</ele>
        <time>2023-07-06T13:43:32Z</time>
      </trkpt>
      <trkpt lat="44.11786" lon="1.16915">
        <ele>110</ele>
        <time>2023-07-06T13:43:33Z</time>
      </trkpt>
      <trkpt lat="44.11786" lon="1.16917">
        <ele>109.8</ele>
        <time>2023-07-06T13:43:34Z</time>
      </trkpt>
      <trkpt lat="44.11786" lon="1.16918">
        <ele>110</ele>
        <time>2023-07-06T13:43:35Z</time>
      </trkpt>
      <trkpt lat="44.11786" lon="1.16928">
        <ele>110</ele>
        <time>2023-07-06T13:43:41Z</time>
      </trkpt>
      <trkpt lat="44.11786" lon="1.16935">
        <ele>110</ele>
        <time>2023-07-06T13:43:45Z</time>
      </trkpt>
      <trkpt lat="44.11788" lon="1.16941">
        <ele>109.8</ele>
        <time>2023-07-06T13:43:48Z</time>
      </trkpt>
      <trkpt lat="44.1179" lon="1.16952">
        <ele>110</ele>
        <time>2023-07-06T13:43:55Z</time>
      </trkpt>
      <trkpt lat="44.11791" lon="1.16957">
        <ele>110</ele>
        <time>2023-07-06T13:43:58Z</time>
      </trkpt>
      <trkpt lat="44.11792" lon="1.16961">
        <ele>110.2</ele>
        <time>2023-07-06T13:44:00Z</time>
      </trkpt>
      <trkpt lat="44.11796" lon="1.16969">
        <ele>110.2</ele>
        <time>2023-07-06T13:44:05Z</time>
      </trkpt>
      <trkpt lat="44.11796" lon="1.16971">
        <ele>110.2</ele>
        <time>2023-07-06T13:44:06Z</time>
      </trkpt>
      <trkpt lat="44.11801" lon="1.16986">
        <ele>110</ele>
        <time>2023-07-06T13:44:14Z</time>
      </trkpt>
      <trkpt lat="44.11807" lon="1.16999">
        <ele>110.4</ele>
        <time>2023-07-06T13:44:20Z</time>
      </trkpt>
      <trkpt lat="44.11807" lon="1.17">
        <ele>110.6</ele>
        <time>2023-07-06T13:44:21Z</time>
      </trkpt>
      <trkpt lat="44.11808" lon="1.17002">
        <ele>110.6</ele>
        <time>2023-07-06T13:44:22Z</time>
      </trkpt>
      <trkpt lat="44.11808" lon="1.17011">
        <ele>110</ele>
        <time>2023-07-06T13:44:27Z</time>
      </trkpt>
      <trkpt lat="44.11806" lon="1.17015">
        <ele>110</ele>
        <time>2023-07-06T13:44:29Z</time>
      </trkpt>
      <trkpt lat="44.11812" lon="1.17028">
        <ele>110.2</ele>
        <time>2023-07-06T13:44:37Z</time>
      </trkpt>
      <trkpt lat="44.11813" lon="1.1703">
        <ele>110.2</ele>
        <time>2023-07-06T13:44:38Z</time>
      </trkpt>
      <trkpt lat="44.11814" lon="1.17039">
        <ele>110.4</ele>
        <time>2023-07-06T13:44:43Z</time>
      </trkpt>
      <trkpt lat="44.11815" lon="1.17042">
        <ele>110.4</ele>
        <time>2023-07-06T13:44:45Z</time>
      </trkpt>
      <trkpt lat="44.11817" lon="1.17048">
        <ele>110.6</ele>
        <time>2023-07-06T13:44:48Z</time>
      </trkpt>
      <trkpt lat="44.11817" lon="1.17053">
        <ele>110.6</ele>
        <time>2023-07-06T13:44:50Z</time>
      </trkpt>
      <trkpt lat="44.11819" lon="1.17064">
        <ele>110.4</ele>
        <time>2023-07-06T13:44:56Z</time>
      </trkpt>
      <trkpt lat="44.1182" lon="1.17068">
        <ele>110.2</ele>
        <time>2023-07-06T13:44:58Z</time>
      </trkpt>
      <trkpt lat="44.11819" lon="1.17077">
        <ele>110</ele>
        <time>2023-07-06T13:45:04Z</time>
      </trkpt>
      <trkpt lat="44.11818" lon="1.17085">
        <ele>109.8</ele>
        <time>2023-07-06T13:45:08Z</time>
      </trkpt>
      <trkpt lat="44.11818" lon="1.17087">
        <ele>109.8</ele>
        <time>2023-07-06T13:45:09Z</time>
      </trkpt>
      <trkpt lat="44.11819" lon="1.17093">
        <ele>109.4</ele>
        <time>2023-07-06T13:45:13Z</time>
      </trkpt>
      <trkpt lat="44.11819" lon="1.17094">
        <ele>109.2</ele>
        <time>2023-07-06T13:45:14Z</time>
      </trkpt>
      <trkpt lat="44.11818" lon="1.17098">
        <ele>108.8</ele>
        <time>2023-07-06T13:45:16Z</time>
      </trkpt>
      <trkpt lat="44.11817" lon="1.17101">
        <ele>108.6</ele>
        <time>2023-07-06T13:45:18Z</time>
      </trkpt>
      <trkpt lat="44.11817" lon="1.17103">
        <ele>108.6</ele>
        <time>2023-07-06T13:45:20Z</time>
      </trkpt>
      <trkpt lat="44.1182" lon="1.1711">
        <ele>108.4</ele>
        <time>2023-07-06T13:45:23Z</time>
      </trkpt>
      <trkpt lat="44.11822" lon="1.17115">
        <ele>108.6</ele>
        <time>2023-07-06T13:45:25Z</time>
      </trkpt>
      <trkpt lat="44.11821" lon="1.17123">
        <ele>108.4</ele>
        <time>2023-07-06T13:45:29Z</time>
      </trkpt>
      <trkpt lat="44.1182" lon="1.17129">
        <ele>108</ele>
        <time>2023-07-06T13:45:32Z</time>
      </trkpt>
      <trkpt lat="44.11818" lon="1.17131">
        <ele>108</ele>
        <time>2023-07-06T13:45:33Z</time>
      </trkpt>
      <trkpt lat="44.11818" lon="1.17135">
        <ele>107.8</ele>
        <time>2023-07-06T13:45:36Z</time>
      </trkpt>
      <trkpt lat="44.11818" lon="1.17137">
        <ele>108</ele>
        <time>2023-07-06T13:45:37Z</time>
      </trkpt>
      <trkpt lat="44.11818" lon="1.1714">
        <ele>108.2</ele>
        <time>2023-07-06T13:45:40Z</time>
      </trkpt>
      <trkpt lat="44.11818" lon="1.17143">
        <ele>108.2</ele>
        <time>2023-07-06T13:45:42Z</time>
      </trkpt>
      <trkpt lat="44.11816" lon="1.17149">
        <ele>108.4</ele>
        <time>2023-07-06T13:45:45Z</time>
      </trkpt>
      <trkpt lat="44.11816" lon="1.17152">
        <ele>108.4</ele>
        <time>2023-07-06T13:45:47Z</time>
      </trkpt>
      <trkpt lat="44.11815" lon="1.17158">
        <ele>108.6</ele>
        <time>2023-07-06T13:45:51Z</time>
      </trkpt>
      <trkpt lat="44.11814" lon="1.17167">
        <ele>108.6</ele>
        <time>2023-07-06T13:45:55Z</time>
      </trkpt>
      <trkpt lat="44.11815" lon="1.17181">
        <ele>109.4</ele>
        <time>2023-07-06T13:46:02Z</time>
      </trkpt>
      <trkpt lat="44.11815" lon="1.17182">
        <ele>109.4</ele>
        <time>2023-07-06T13:46:03Z</time>
      </trkpt>
      <trkpt lat="44.11817" lon="1.17194">
        <ele>110</ele>
        <time>2023-07-06T13:46:09Z</time>
      </trkpt>
      <trkpt lat="44.11815" lon="1.1721">
        <ele>110.2</ele>
        <time>2023-07-06T13:46:17Z</time>
      </trkpt>
      <trkpt lat="44.11812" lon="1.17221">
        <ele>109.8</ele>
        <time>2023-07-06T13:46:24Z</time>
      </trkpt>
      <trkpt lat="44.11811" lon="1.17223">
        <ele>109.8</ele>
        <time>2023-07-06T13:46:25Z</time>
      </trkpt>
      <trkpt lat="44.1181" lon="1.17226">
        <ele>109.8</ele>
        <time>2023-07-06T13:46:27Z</time>
      </trkpt>
      <trkpt lat="44.11809" lon="1.1724">
        <ele>109</ele>
        <time>2023-07-06T13:46:35Z</time>
      </trkpt>
      <trkpt lat="44.11802" lon="1.1725">
        <ele>108.4</ele>
        <time>2023-07-06T13:46:42Z</time>
      </trkpt>
      <trkpt lat="44.11801" lon="1.17252">
        <ele>108.4</ele>
        <time>2023-07-06T13:46:43Z</time>
      </trkpt>
      <trkpt lat="44.11798" lon="1.17263">
        <ele>108</ele>
        <time>2023-07-06T13:46:49Z</time>
      </trkpt>
      <trkpt lat="44.11796" lon="1.17267">
        <ele>107.8</ele>
        <time>2023-07-06T13:46:52Z</time>
      </trkpt>
      <trkpt lat="44.11795" lon="1.17269">
        <ele>108</ele>
        <time>2023-07-06T13:46:53Z</time>
      </trkpt>
      <trkpt lat="44.11794" lon="1.17272">
        <ele>108</ele>
        <time>2023-07-06T13:46:55Z</time>
      </trkpt>
      <trkpt lat="44.11791" lon="1.17283">
        <ele>108</ele>
        <time>2023-07-06T13:47:02Z</time>
      </trkpt>
      <trkpt lat="44.11786" lon="1.17294">
        <ele>107.8</ele>
        <time>2023-07-06T13:47:09Z</time>
      </trkpt>
      <trkpt lat="44.11785" lon="1.17296">
        <ele>107.8</ele>
        <time>2023-07-06T13:47:11Z</time>
      </trkpt>
      <trkpt lat="44.11784" lon="1.17298">
        <ele>107.8</ele>
        <time>2023-07-06T13:47:13Z</time>
      </trkpt>
      <trkpt lat="44.11783" lon="1.17299">
        <ele>107.8</ele>
        <time>2023-07-06T13:47:14Z</time>
      </trkpt>
      <trkpt lat="44.11782" lon="1.173">
        <ele>107.8</ele>
        <time>2023-07-06T13:47:15Z</time>
      </trkpt>
      <trkpt lat="44.11782" lon="1.17301">
        <ele>107.6</ele>
        <time>2023-07-06T13:47:16Z</time>
      </trkpt>
      <trkpt lat="44.1178" lon="1.17302">
        <ele>107.6</ele>
        <time>2023-07-06T13:47:17Z</time>
      </trkpt>
      <trkpt lat="44.11779" lon="1.17303">
        <ele>107.8</ele>
        <time>2023-07-06T13:47:18Z</time>
      </trkpt>
      <trkpt lat="44.11775" lon="1.17312">
        <ele>107.4</ele>
        <time>2023-07-06T13:47:24Z</time>
      </trkpt>
      <trkpt lat="44.11772" lon="1.17316">
        <ele>107.4</ele>
        <time>2023-07-06T13:47:27Z</time>
      </trkpt>
      <trkpt lat="44.11768" lon="1.17324">
        <ele>107.6</ele>
        <time>2023-07-06T13:47:32Z</time>
      </trkpt>
      <trkpt lat="44.11765" lon="1.17331">
        <ele>107.8</ele>
        <time>2023-07-06T13:47:37Z</time>
      </trkpt>
      <trkpt lat="44.11764" lon="1.17336">
        <ele>108</ele>
        <time>2023-07-06T13:47:40Z</time>
      </trkpt>
      <trkpt lat="44.1176" lon="1.17343">
        <ele>107.8</ele>
        <time>2023-07-06T13:47:46Z</time>
      </trkpt>
      <trkpt lat="44.11754" lon="1.17352">
        <ele>108.2</ele>
        <time>2023-07-06T13:47:53Z</time>
      </trkpt>
      <trkpt lat="44.11752" lon="1.17353">
        <ele>108.4</ele>
        <time>2023-07-06T13:47:54Z</time>
      </trkpt>
      <trkpt lat="44.11751" lon="1.17354">
        <ele>108.4</ele>
        <time>2023-07-06T13:47:55Z</time>
      </trkpt>
      <trkpt lat="44.11742" lon="1.17361">
        <ele>108.4</ele>
        <time>2023-07-06T13:48:01Z</time>
      </trkpt>
      <trkpt lat="44.11737" lon="1.17366">
        <ele>108.6</ele>
        <time>2023-07-06T13:48:05Z</time>
      </trkpt>
      <trkpt lat="44.11735" lon="1.17371">
        <ele>109</ele>
        <time>2023-07-06T13:48:09Z</time>
      </trkpt>
      <trkpt lat="44.11734" lon="1.17373">
        <ele>109</ele>
        <time>2023-07-06T13:48:10Z</time>
      </trkpt>
      <trkpt lat="44.11726" lon="1.17379">
        <ele>109.4</ele>
        <time>2023-07-06T13:48:17Z</time>
      </trkpt>
      <trkpt lat="44.11724" lon="1.17381">
        <ele>109.6</ele>
        <time>2023-07-06T13:48:19Z</time>
      </trkpt>
      <trkpt lat="44.11721" lon="1.17387">
        <ele>109.4</ele>
        <time>2023-07-06T13:48:24Z</time>
      </trkpt>
      <trkpt lat="44.11717" lon="1.17397">
        <ele>109.2</ele>
        <time>2023-07-06T13:48:30Z</time>
      </trkpt>
      <trkpt lat="44.11716" lon="1.17399">
        <ele>109.2</ele>
        <time>2023-07-06T13:48:31Z</time>
      </trkpt>
      <trkpt lat="44.11711" lon="1.17405">
        <ele>109.2</ele>
        <time>2023-07-06T13:48:36Z</time>
      </trkpt>
      <trkpt lat="44.11707" lon="1.17412">
        <ele>108.8</ele>
        <time>2023-07-06T13:48:41Z</time>
      </trkpt>
      <trkpt lat="44.11705" lon="1.17416">
        <ele>108.6</ele>
        <time>2023-07-06T13:48:44Z</time>
      </trkpt>
      <trkpt lat="44.11703" lon="1.1742">
        <ele>108.6</ele>
        <time>2023-07-06T13:48:47Z</time>
      </trkpt>
      <trkpt lat="44.11701" lon="1.17425">
        <ele>108.6</ele>
        <time>2023-07-06T13:48:50Z</time>
      </trkpt>
      <trkpt lat="44.11698" lon="1.1743">
        <ele>108.6</ele>
        <time>2023-07-06T13:48:54Z</time>
      </trkpt>
      <trkpt lat="44.11691" lon="1.17442">
        <ele>108.8</ele>
        <time>2023-07-06T13:49:03Z</time>
      </trkpt>
      <trkpt lat="44.11684" lon="1.17454">
        <ele>108.8</ele>
        <time>2023-07-06T13:49:12Z</time>
      </trkpt>
      <trkpt lat="44.11675" lon="1.17463">
        <ele>109.2</ele>
        <time>2023-07-06T13:49:19Z</time>
      </trkpt>
      <trkpt lat="44.11669" lon="1.17471">
        <ele>109.2</ele>
        <time>2023-07-06T13:49:24Z</time>
      </trkpt>
      <trkpt lat="44.11668" lon="1.17472">
        <ele>109.2</ele>
        <time>2023-07-06T13:49:25Z</time>
      </trkpt>
      <trkpt lat="44.11667" lon="1.17474">
        <ele>109.4</ele>
        <time>2023-07-06T13:49:26Z</time>
      </trkpt>
      <trkpt lat="44.1166" lon="1.17483">
        <ele>109.2</ele>
        <time>2023-07-06T13:49:33Z</time>
      </trkpt>
      <trkpt lat="44.11657" lon="1.17485">
        <ele>109.2</ele>
        <time>2023-07-06T13:49:35Z</time>
      </trkpt>
      <trkpt lat="44.11653" lon="1.17488">
        <ele>109.2</ele>
        <time>2023-07-06T13:49:38Z</time>
      </trkpt>
      <trkpt lat="44.11649" lon="1.1749">
        <ele>109.2</ele>
        <time>2023-07-06T13:49:40Z</time>
      </trkpt>
      <trkpt lat="44.1164" lon="1.17497">
        <ele>109</ele>
        <time>2023-07-06T13:49:47Z</time>
      </trkpt>
      <trkpt lat="44.11633" lon="1.17505">
        <ele>108.8</ele>
        <time>2023-07-06T13:49:55Z</time>
      </trkpt>
      <trkpt lat="44.11626" lon="1.17515">
        <ele>108.6</ele>
        <time>2023-07-06T13:50:02Z</time>
      </trkpt>
      <trkpt lat="44.11621" lon="1.17516">
        <ele>108.4</ele>
        <time>2023-07-06T13:50:05Z</time>
      </trkpt>
      <trkpt lat="44.11619" lon="1.17518">
        <ele>108.4</ele>
        <time>2023-07-06T13:50:07Z</time>
      </trkpt>
      <trkpt lat="44.11618" lon="1.17518">
        <ele>108.4</ele>
        <time>2023-07-06T13:50:08Z</time>
      </trkpt>
      <trkpt lat="44.11617" lon="1.17519">
        <ele>108.6</ele>
        <time>2023-07-06T13:50:09Z</time>
      </trkpt>
      <trkpt lat="44.11616" lon="1.1752">
        <ele>108.8</ele>
        <time>2023-07-06T13:50:10Z</time>
      </trkpt>
      <trkpt lat="44.11615" lon="1.17521">
        <ele>108.8</ele>
        <time>2023-07-06T13:50:11Z</time>
      </trkpt>
      <trkpt lat="44.11609" lon="1.17523">
        <ele>108.4</ele>
        <time>2023-07-06T13:50:16Z</time>
      </trkpt>
      <trkpt lat="44.11599" lon="1.17525">
        <ele>108.2</ele>
        <time>2023-07-06T13:50:23Z</time>
      </trkpt>
      <trkpt lat="44.11589" lon="1.17532">
        <ele>108.2</ele>
        <time>2023-07-06T13:50:30Z</time>
      </trkpt>
      <trkpt lat="44.11584" lon="1.17535">
        <ele>108</ele>
        <time>2023-07-06T13:50:34Z</time>
      </trkpt>
      <trkpt lat="44.11583" lon="1.17536">
        <ele>108</ele>
        <time>2023-07-06T13:50:35Z</time>
      </trkpt>
      <trkpt lat="44.11575" lon="1.1754">
        <ele>108</ele>
        <time>2023-07-06T13:50:40Z</time>
      </trkpt>
      <trkpt lat="44.11568" lon="1.17544">
        <ele>108.2</ele>
        <time>2023-07-06T13:50:46Z</time>
      </trkpt>
      <trkpt lat="44.11567" lon="1.17545">
        <ele>108.2</ele>
        <time>2023-07-06T13:50:47Z</time>
      </trkpt>
      <trkpt lat="44.11567" lon="1.17546">
        <ele>108</ele>
        <time>2023-07-06T13:50:48Z</time>
      </trkpt>
      <trkpt lat="44.11558" lon="1.17554">
        <ele>108.4</ele>
        <time>2023-07-06T13:50:58Z</time>
      </trkpt>
      <trkpt lat="44.11556" lon="1.17556">
        <ele>108.4</ele>
        <time>2023-07-06T13:51:00Z</time>
      </trkpt>
      <trkpt lat="44.11555" lon="1.17566">
        <ele>108.8</ele>
        <time>2023-07-06T13:51:05Z</time>
      </trkpt>
      <trkpt lat="44.11553" lon="1.17568">
        <ele>108.8</ele>
        <time>2023-07-06T13:51:07Z</time>
      </trkpt>
      <trkpt lat="44.11549" lon="1.17573">
        <ele>108.8</ele>
        <time>2023-07-06T13:51:10Z</time>
      </trkpt>
      <trkpt lat="44.11548" lon="1.17575">
        <ele>108.6</ele>
        <time>2023-07-06T13:51:11Z</time>
      </trkpt>
      <trkpt lat="44.11546" lon="1.17578">
        <ele>108.6</ele>
        <time>2023-07-06T13:51:13Z</time>
      </trkpt>
      <trkpt lat="44.11543" lon="1.17584">
        <ele>108.6</ele>
        <time>2023-07-06T13:51:17Z</time>
      </trkpt>
      <trkpt lat="44.1154" lon="1.17593">
        <ele>109</ele>
        <time>2023-07-06T13:51:23Z</time>
      </trkpt>
      <trkpt lat="44.11539" lon="1.17597">
        <ele>109.4</ele>
        <time>2023-07-06T13:51:25Z</time>
      </trkpt>
      <trkpt lat="44.11536" lon="1.17604">
        <ele>109.8</ele>
        <time>2023-07-06T13:51:30Z</time>
      </trkpt>
      <trkpt lat="44.11534" lon="1.17614">
        <ele>109.6</ele>
        <time>2023-07-06T13:51:37Z</time>
      </trkpt>
      <trkpt lat="44.11526" lon="1.17618">
        <ele>109.4</ele>
        <time>2023-07-06T13:51:44Z</time>
      </trkpt>
      <trkpt lat="44.11518" lon="1.17621">
        <ele>109</ele>
        <time>2023-07-06T13:51:51Z</time>
      </trkpt>
      <trkpt lat="44.11509" lon="1.17627">
        <ele>108.6</ele>
        <time>2023-07-06T13:51:59Z</time>
      </trkpt>
      <trkpt lat="44.11503" lon="1.17632">
        <ele>108.4</ele>
        <time>2023-07-06T13:52:05Z</time>
      </trkpt>
      <trkpt lat="44.11502" lon="1.17633">
        <ele>108.4</ele>
        <time>2023-07-06T13:52:06Z</time>
      </trkpt>
      <trkpt lat="44.11497" lon="1.17637">
        <ele>108.2</ele>
        <time>2023-07-06T13:52:10Z</time>
      </trkpt>
      <trkpt lat="44.11497" lon="1.17641">
        <ele>108</ele>
        <time>2023-07-06T13:52:12Z</time>
      </trkpt>
      <trkpt lat="44.11496" lon="1.17653">
        <ele>108</ele>
        <time>2023-07-06T13:52:19Z</time>
      </trkpt>
      <trkpt lat="44.11493" lon="1.17668">
        <ele>108</ele>
        <time>2023-07-06T13:52:28Z</time>
      </trkpt>
      <trkpt lat="44.11492" lon="1.17674">
        <ele>108</ele>
        <time>2023-07-06T13:52:31Z</time>
      </trkpt>
      <trkpt lat="44.11491" lon="1.17685">
        <ele>108</ele>
        <time>2023-07-06T13:52:37Z</time>
      </trkpt>
      <trkpt lat="44.11489" lon="1.17699">
        <ele>107.6</ele>
        <time>2023-07-06T13:52:45Z</time>
      </trkpt>
      <trkpt lat="44.11489" lon="1.17706">
        <ele>107.8</ele>
        <time>2023-07-06T13:52:49Z</time>
      </trkpt>
      <trkpt lat="44.11488" lon="1.17709">
        <ele>107.8</ele>
        <time>2023-07-06T13:52:51Z</time>
      </trkpt>
      <trkpt lat="44.11486" lon="1.17712">
        <ele>107.8</ele>
        <time>2023-07-06T13:52:53Z</time>
      </trkpt>
      <trkpt lat="44.11485" lon="1.17715">
        <ele>107.8</ele>
        <time>2023-07-06T13:52:55Z</time>
      </trkpt>
      <trkpt lat="44.11484" lon="1.17727">
        <ele>107.8</ele>
        <time>2023-07-06T13:53:02Z</time>
      </trkpt>
      <trkpt lat="44.11482" lon="1.17744">
        <ele>107.8</ele>
        <time>2023-07-06T13:53:12Z</time>
      </trkpt>
      <trkpt lat="44.11481" lon="1.17748">
        <ele>108</ele>
        <time>2023-07-06T13:53:15Z</time>
      </trkpt>
      <trkpt lat="44.1148" lon="1.17756">
        <ele>108</ele>
        <time>2023-07-06T13:53:19Z</time>
      </trkpt>
      <trkpt lat="44.1148" lon="1.17757">
        <ele>108</ele>
        <time>2023-07-06T13:53:20Z</time>
      </trkpt>
      <trkpt lat="44.11478" lon="1.17772">
        <ele>108.4</ele>
        <time>2023-07-06T13:53:28Z</time>
      </trkpt>
      <trkpt lat="44.11474" lon="1.17786">
        <ele>108.4</ele>
        <time>2023-07-06T13:53:37Z</time>
      </trkpt>
      <trkpt lat="44.11474" lon="1.17789">
        <ele>108.4</ele>
        <time>2023-07-06T13:53:39Z</time>
      </trkpt>
      <trkpt lat="44.11471" lon="1.17805">
        <ele>108.8</ele>
        <time>2023-07-06T13:53:48Z</time>
      </trkpt>
      <trkpt lat="44.1147" lon="1.17808">
        <ele>108.8</ele>
        <time>2023-07-06T13:53:50Z</time>
      </trkpt>
      <trkpt lat="44.11469" lon="1.17813">
        <ele>108.8</ele>
        <time>2023-07-06T13:53:53Z</time>
      </trkpt>
      <trkpt lat="44.11467" lon="1.17824">
        <ele>108.4</ele>
        <time>2023-07-06T13:53:59Z</time>
      </trkpt>
      <trkpt lat="44.11465" lon="1.17838">
        <ele>108.6</ele>
        <time>2023-07-06T13:54:07Z</time>
      </trkpt>
      <trkpt lat="44.11464" lon="1.17852">
        <ele>109</ele>
        <time>2023-07-06T13:54:15Z</time>
      </trkpt>
      <trkpt lat="44.11465" lon="1.1786">
        <ele>108.8</ele>
        <time>2023-07-06T13:54:19Z</time>
      </trkpt>
      <trkpt lat="44.11471" lon="1.17878">
        <ele>108.8</ele>
        <time>2023-07-06T13:54:28Z</time>
      </trkpt>
      <trkpt lat="44.11473" lon="1.17889">
        <ele>108.8</ele>
        <time>2023-07-06T13:54:33Z</time>
      </trkpt>
      <trkpt lat="44.11474" lon="1.17892">
        <ele>109</ele>
        <time>2023-07-06T13:54:35Z</time>
      </trkpt>
      <trkpt lat="44.11475" lon="1.17899">
        <ele>109.2</ele>
        <time>2023-07-06T13:54:39Z</time>
      </trkpt>
      <trkpt lat="44.11476" lon="1.17913">
        <ele>109.4</ele>
        <time>2023-07-06T13:54:47Z</time>
      </trkpt>
      <trkpt lat="44.11475" lon="1.17931">
        <ele>109.2</ele>
        <time>2023-07-06T13:54:57Z</time>
      </trkpt>
      <trkpt lat="44.11474" lon="1.17932">
        <ele>109.2</ele>
        <time>2023-07-06T13:54:58Z</time>
      </trkpt>
      <trkpt lat="44.11473" lon="1.17943">
        <ele>109</ele>
        <time>2023-07-06T13:55:04Z</time>
      </trkpt>
      <trkpt lat="44.11473" lon="1.17948">
        <ele>109.2</ele>
        <time>2023-07-06T13:55:07Z</time>
      </trkpt>
      <trkpt lat="44.11473" lon="1.1795">
        <ele>109.2</ele>
        <time>2023-07-06T13:55:08Z</time>
      </trkpt>
      <trkpt lat="44.11472" lon="1.17957">
        <ele>109.6</ele>
        <time>2023-07-06T13:55:12Z</time>
      </trkpt>
      <trkpt lat="44.11471" lon="1.17964">
        <ele>109.6</ele>
        <time>2023-07-06T13:55:16Z</time>
      </trkpt>
      <trkpt lat="44.11468" lon="1.17983">
        <ele>109.8</ele>
        <time>2023-07-06T13:55:27Z</time>
      </trkpt>
      <trkpt lat="44.11465" lon="1.18007">
        <ele>110.2</ele>
        <time>2023-07-06T13:55:41Z</time>
      </trkpt>
      <trkpt lat="44.11464" lon="1.18015">
        <ele>110.2</ele>
        <time>2023-07-06T13:55:46Z</time>
      </trkpt>
      <trkpt lat="44.11464" lon="1.1802">
        <ele>110.2</ele>
        <time>2023-07-06T13:55:49Z</time>
      </trkpt>
      <trkpt lat="44.11462" lon="1.18036">
        <ele>110</ele>
        <time>2023-07-06T13:55:58Z</time>
      </trkpt>
      <trkpt lat="44.11462" lon="1.18043">
        <ele>110.4</ele>
        <time>2023-07-06T13:56:02Z</time>
      </trkpt>
      <trkpt lat="44.11462" lon="1.1805">
        <ele>110.2</ele>
        <time>2023-07-06T13:56:06Z</time>
      </trkpt>
      <trkpt lat="44.11462" lon="1.18053">
        <ele>110.4</ele>
        <time>2023-07-06T13:56:08Z</time>
      </trkpt>
      <trkpt lat="44.11462" lon="1.1806">
        <ele>110.4</ele>
        <time>2023-07-06T13:56:12Z</time>
      </trkpt>
      <trkpt lat="44.11463" lon="1.18068">
        <ele>110.2</ele>
        <time>2023-07-06T13:56:16Z</time>
      </trkpt>
      <trkpt lat="44.11463" lon="1.1807">
        <ele>110.2</ele>
        <time>2023-07-06T13:56:17Z</time>
      </trkpt>
      <trkpt lat="44.11463" lon="1.18082">
        <ele>109.8</ele>
        <time>2023-07-06T13:56:24Z</time>
      </trkpt>
      <trkpt lat="44.11463" lon="1.18097">
        <ele>109.6</ele>
        <time>2023-07-06T13:56:33Z</time>
      </trkpt>
      <trkpt lat="44.11464" lon="1.18112">
        <ele>109.2</ele>
        <time>2023-07-06T13:56:41Z</time>
      </trkpt>
      <trkpt lat="44.11465" lon="1.18116">
        <ele>109.2</ele>
        <time>2023-07-06T13:56:43Z</time>
      </trkpt>
      <trkpt lat="44.11465" lon="1.18123">
        <ele>109.2</ele>
        <time>2023-07-06T13:56:47Z</time>
      </trkpt>
      <trkpt lat="44.11465" lon="1.18125">
        <ele>109.2</ele>
        <time>2023-07-06T13:56:48Z</time>
      </trkpt>
      <trkpt lat="44.11467" lon="1.18143">
        <ele>109.2</ele>
        <time>2023-07-06T13:56:58Z</time>
      </trkpt>
      <trkpt lat="44.11468" lon="1.18149">
        <ele>109.4</ele>
        <time>2023-07-06T13:57:01Z</time>
      </trkpt>
      <trkpt lat="44.11468" lon="1.18155">
        <ele>109.4</ele>
        <time>2023-07-06T13:57:04Z</time>
      </trkpt>
      <trkpt lat="44.11468" lon="1.1816">
        <ele>109.4</ele>
        <time>2023-07-06T13:57:07Z</time>
      </trkpt>
      <trkpt lat="44.11467" lon="1.18168">
        <ele>109.2</ele>
        <time>2023-07-06T13:57:12Z</time>
      </trkpt>
      <trkpt lat="44.11467" lon="1.18178">
        <ele>109.4</ele>
        <time>2023-07-06T13:57:18Z</time>
      </trkpt>
      <trkpt lat="44.11467" lon="1.18192">
        <ele>109.4</ele>
        <time>2023-07-06T13:57:26Z</time>
      </trkpt>
      <trkpt lat="44.11467" lon="1.18196">
        <ele>109.6</ele>
        <time>2023-07-06T13:57:28Z</time>
      </trkpt>
      <trkpt lat="44.11469" lon="1.18212">
        <ele>110</ele>
        <time>2023-07-06T13:57:37Z</time>
      </trkpt>
      <trkpt lat="44.11471" lon="1.18219">
        <ele>109.6</ele>
        <time>2023-07-06T13:57:41Z</time>
      </trkpt>
      <trkpt lat="44.11472" lon="1.18224">
        <ele>109.4</ele>
        <time>2023-07-06T13:57:43Z</time>
      </trkpt>
      <trkpt lat="44.11472" lon="1.18225">
        <ele>109.2</ele>
        <time>2023-07-06T13:57:44Z</time>
      </trkpt>
      <trkpt lat="44.11472" lon="1.18237">
        <ele>109.4</ele>
        <time>2023-07-06T13:57:51Z</time>
      </trkpt>
      <trkpt lat="44.11472" lon="1.18255">
        <ele>109.2</ele>
        <time>2023-07-06T13:58:01Z</time>
      </trkpt>
      <trkpt lat="44.11473" lon="1.18264">
        <ele>109.2</ele>
        <time>2023-07-06T13:58:06Z</time>
      </trkpt>
      <trkpt lat="44.11473" lon="1.18267">
        <ele>109.2</ele>
        <time>2023-07-06T13:58:08Z</time>
      </trkpt>
      <trkpt lat="44.11472" lon="1.18276">
        <ele>109.4</ele>
        <time>2023-07-06T13:58:13Z</time>
      </trkpt>
      <trkpt lat="44.11472" lon="1.18281">
        <ele>109.4</ele>
        <time>2023-07-06T13:58:16Z</time>
      </trkpt>
      <trkpt lat="44.11472" lon="1.18285">
        <ele>109.4</ele>
        <time>2023-07-06T13:58:19Z</time>
      </trkpt>
      <trkpt lat="44.11472" lon="1.18287">
        <ele>109.4</ele>
        <time>2023-07-06T13:58:20Z</time>
      </trkpt>
      <trkpt lat="44.11472" lon="1.18293">
        <ele>109.4</ele>
        <time>2023-07-06T13:58:24Z</time>
      </trkpt>
      <trkpt lat="44.11472" lon="1.18308">
        <ele>109.2</ele>
        <time>2023-07-06T13:58:32Z</time>
      </trkpt>
      <trkpt lat="44.11472" lon="1.18317">
        <ele>109.2</ele>
        <time>2023-07-06T13:58:37Z</time>
      </trkpt>
      <trkpt lat="44.11471" lon="1.18324">
        <ele>109</ele>
        <time>2023-07-06T13:58:41Z</time>
      </trkpt>
      <trkpt lat="44.11471" lon="1.18341">
        <ele>108.8</ele>
        <time>2023-07-06T13:58:50Z</time>
      </trkpt>
      <trkpt lat="44.11469" lon="1.18353">
        <ele>109.2</ele>
        <time>2023-07-06T13:58:58Z</time>
      </trkpt>
      <trkpt lat="44.11468" lon="1.18362">
        <ele>109</ele>
        <time>2023-07-06T13:59:04Z</time>
      </trkpt>
      <trkpt lat="44.11469" lon="1.18371">
        <ele>108.8</ele>
        <time>2023-07-06T13:59:10Z</time>
      </trkpt>
      <trkpt lat="44.11469" lon="1.18373">
        <ele>108.8</ele>
        <time>2023-07-06T13:59:11Z</time>
      </trkpt>
      <trkpt lat="44.11469" lon="1.18374">
        <ele>108.8</ele>
        <time>2023-07-06T13:59:12Z</time>
      </trkpt>
      <trkpt lat="44.11468" lon="1.1838">
        <ele>108.8</ele>
        <time>2023-07-06T13:59:16Z</time>
      </trkpt>
      <trkpt lat="44.11471" lon="1.18383">
        <ele>108.8</ele>
        <time>2023-07-06T13:59:17Z</time>
      </trkpt>
      <trkpt lat="44.11478" lon="1.18392">
        <ele>110.8</ele>
        <time>2023-07-06T14:13:39Z</time>
      </trkpt>
      <trkpt lat="44.11478" lon="1.18393">
        <ele>110.8</ele>
        <time>2023-07-06T14:13:40Z</time>
      </trkpt>
      <trkpt lat="44.11477" lon="1.18393">
        <ele>110.8</ele>
        <time>2023-07-06T14:13:41Z</time>
      </trkpt>
      <trkpt lat="44.11474" lon="1.18401">
        <ele>110.8</ele>
        <time>2023-07-06T14:13:46Z</time>
      </trkpt>
      <trkpt lat="44.11474" lon="1.18404">
        <ele>110.6</ele>
        <time>2023-07-06T14:13:48Z</time>
      </trkpt>
      <trkpt lat="44.11473" lon="1.18418">
        <ele>110.4</ele>
        <time>2023-07-06T14:13:57Z</time>
      </trkpt>
      <trkpt lat="44.11473" lon="1.18425">
        <ele>110.4</ele>
        <time>2023-07-06T14:14:03Z</time>
      </trkpt>
      <trkpt lat="44.11473" lon="1.18426">
        <ele>110.4</ele>
        <time>2023-07-06T14:14:04Z</time>
      </trkpt>
      <trkpt lat="44.11478" lon="1.18432">
        <ele>110.6</ele>
        <time>2023-07-06T14:14:09Z</time>
      </trkpt>
      <trkpt lat="44.11478" lon="1.18434">
        <ele>110.8</ele>
        <time>2023-07-06T14:14:11Z</time>
      </trkpt>
      <trkpt lat="44.11477" lon="1.18444">
        <ele>110.6</ele>
        <time>2023-07-06T14:14:17Z</time>
      </trkpt>
      <trkpt lat="44.11478" lon="1.18453">
        <ele>110.8</ele>
        <time>2023-07-06T14:14:22Z</time>
      </trkpt>
      <trkpt lat="44.11478" lon="1.18465">
        <ele>110.6</ele>
        <time>2023-07-06T14:14:30Z</time>
      </trkpt>
      <trkpt lat="44.11477" lon="1.1848">
        <ele>110.8</ele>
        <time>2023-07-06T14:14:40Z</time>
      </trkpt>
      <trkpt lat="44.11475" lon="1.18495">
        <ele>111.2</ele>
        <time>2023-07-06T14:14:50Z</time>
      </trkpt>
      <trkpt lat="44.11476" lon="1.18499">
        <ele>111</ele>
        <time>2023-07-06T14:14:53Z</time>
      </trkpt>
      <trkpt lat="44.11476" lon="1.18504">
        <ele>111.2</ele>
        <time>2023-07-06T14:14:56Z</time>
      </trkpt>
      <trkpt lat="44.11476" lon="1.1851">
        <ele>110.8</ele>
        <time>2023-07-06T14:15:00Z</time>
      </trkpt>
      <trkpt lat="44.11475" lon="1.18518">
        <ele>111</ele>
        <time>2023-07-06T14:15:05Z</time>
      </trkpt>
      <trkpt lat="44.11475" lon="1.18519">
        <ele>111.2</ele>
        <time>2023-07-06T14:15:06Z</time>
      </trkpt>
      <trkpt lat="44.11474" lon="1.18533">
        <ele>111.2</ele>
        <time>2023-07-06T14:15:15Z</time>
      </trkpt>
      <trkpt lat="44.11473" lon="1.18546">
        <ele>111.8</ele>
        <time>2023-07-06T14:15:24Z</time>
      </trkpt>
      <trkpt lat="44.11473" lon="1.18547">
        <ele>111.8</ele>
        <time>2023-07-06T14:15:25Z</time>
      </trkpt>
      <trkpt lat="44.11473" lon="1.18549">
        <ele>111.8</ele>
        <time>2023-07-06T14:15:26Z</time>
      </trkpt>
      <trkpt lat="44.11473" lon="1.1855">
        <ele>111.8</ele>
        <time>2023-07-06T14:15:27Z</time>
      </trkpt>
      <trkpt lat="44.11472" lon="1.18561">
        <ele>111.6</ele>
        <time>2023-07-06T14:15:34Z</time>
      </trkpt>
      <trkpt lat="44.11471" lon="1.18565">
        <ele>111.4</ele>
        <time>2023-07-06T14:15:37Z</time>
      </trkpt>
      <trkpt lat="44.1147" lon="1.18578">
        <ele>111.6</ele>
        <time>2023-07-06T14:15:46Z</time>
      </trkpt>
      <trkpt lat="44.11469" lon="1.18594">
        <ele>111.6</ele>
        <time>2023-07-06T14:15:56Z</time>
      </trkpt>
      <trkpt lat="44.11468" lon="1.18605">
        <ele>111.8</ele>
        <time>2023-07-06T14:16:03Z</time>
      </trkpt>
      <trkpt lat="44.11468" lon="1.18608">
        <ele>111.8</ele>
        <time>2023-07-06T14:16:05Z</time>
      </trkpt>
      <trkpt lat="44.11468" lon="1.18613">
        <ele>111.8</ele>
        <time>2023-07-06T14:16:08Z</time>
      </trkpt>
      <trkpt lat="44.11467" lon="1.1862">
        <ele>111.6</ele>
        <time>2023-07-06T14:16:12Z</time>
      </trkpt>
      <trkpt lat="44.11467" lon="1.18622">
        <ele>111.6</ele>
        <time>2023-07-06T14:16:13Z</time>
      </trkpt>
      <trkpt lat="44.11465" lon="1.18628">
        <ele>111.8</ele>
        <time>2023-07-06T14:16:17Z</time>
      </trkpt>
      <trkpt lat="44.11465" lon="1.18631">
        <ele>111.6</ele>
        <time>2023-07-06T14:16:20Z</time>
      </trkpt>
      <trkpt lat="44.11464" lon="1.18633">
        <ele>111.2</ele>
        <time>2023-07-06T14:16:23Z</time>
      </trkpt>
      <trkpt lat="44.11463" lon="1.18639">
        <ele>111.4</ele>
        <time>2023-07-06T14:16:27Z</time>
      </trkpt>
      <trkpt lat="44.11462" lon="1.18642">
        <ele>111.4</ele>
        <time>2023-07-06T14:16:29Z</time>
      </trkpt>
      <trkpt lat="44.11461" lon="1.18654">
        <ele>111.8</ele>
        <time>2023-07-06T14:16:38Z</time>
      </trkpt>
      <trkpt lat="44.11462" lon="1.18657">
        <ele>111.2</ele>
        <time>2023-07-06T14:16:39Z</time>
      </trkpt>
      <trkpt lat="44.11461" lon="1.18661">
        <ele>111.2</ele>
        <time>2023-07-06T14:16:46Z</time>
      </trkpt>
      <trkpt lat="44.1146" lon="1.18663">
        <ele>111.2</ele>
        <time>2023-07-06T14:16:47Z</time>
      </trkpt>
      <trkpt lat="44.1146" lon="1.18668">
        <ele>111.2</ele>
        <time>2023-07-06T14:16:50Z</time>
      </trkpt>
      <trkpt lat="44.11461" lon="1.1868">
        <ele>111.8</ele>
        <time>2023-07-06T14:16:58Z</time>
      </trkpt>
      <trkpt lat="44.11459" lon="1.18691">
        <ele>111.8</ele>
        <time>2023-07-06T14:17:05Z</time>
      </trkpt>
      <trkpt lat="44.11458" lon="1.18692">
        <ele>112</ele>
        <time>2023-07-06T14:17:06Z</time>
      </trkpt>
      <trkpt lat="44.11458" lon="1.18694">
        <ele>112</ele>
        <time>2023-07-06T14:17:07Z</time>
      </trkpt>
      <trkpt lat="44.11458" lon="1.18695">
        <ele>112</ele>
        <time>2023-07-06T14:17:08Z</time>
      </trkpt>
      <trkpt lat="44.11454" lon="1.18711">
        <ele>111.8</ele>
        <time>2023-07-06T14:17:18Z</time>
      </trkpt>
      <trkpt lat="44.11453" lon="1.18718">
        <ele>111.6</ele>
        <time>2023-07-06T14:17:22Z</time>
      </trkpt>
      <trkpt lat="44.11452" lon="1.18723">
        <ele>111.6</ele>
        <time>2023-07-06T14:17:25Z</time>
      </trkpt>
      <trkpt lat="44.11451" lon="1.18728">
        <ele>111.6</ele>
        <time>2023-07-06T14:17:28Z</time>
      </trkpt>
      <trkpt lat="44.1145" lon="1.18732">
        <ele>111.8</ele>
        <time>2023-07-06T14:17:31Z</time>
      </trkpt>
      <trkpt lat="44.11447" lon="1.18745">
        <ele>111.8</ele>
        <time>2023-07-06T14:17:39Z</time>
      </trkpt>
      <trkpt lat="44.11445" lon="1.18754">
        <ele>112</ele>
        <time>2023-07-06T14:17:45Z</time>
      </trkpt>
      <trkpt lat="44.11444" lon="1.18757">
        <ele>112</ele>
        <time>2023-07-06T14:17:47Z</time>
      </trkpt>
      <trkpt lat="44.11442" lon="1.18766">
        <ele>111.8</ele>
        <time>2023-07-06T14:17:53Z</time>
      </trkpt>
      <trkpt lat="44.11441" lon="1.18771">
        <ele>111.8</ele>
        <time>2023-07-06T14:17:56Z</time>
      </trkpt>
      <trkpt lat="44.11438" lon="1.18785">
        <ele>111.2</ele>
        <time>2023-07-06T14:18:04Z</time>
      </trkpt>
      <trkpt lat="44.11437" lon="1.18786">
        <ele>111.2</ele>
        <time>2023-07-06T14:18:05Z</time>
      </trkpt>
      <trkpt lat="44.11437" lon="1.18788">
        <ele>111.2</ele>
        <time>2023-07-06T14:18:06Z</time>
      </trkpt>
      <trkpt lat="44.11434" lon="1.18805">
        <ele>111.6</ele>
        <time>2023-07-06T14:18:16Z</time>
      </trkpt>
      <trkpt lat="44.11433" lon="1.1881">
        <ele>112</ele>
        <time>2023-07-06T14:18:19Z</time>
      </trkpt>
      <trkpt lat="44.11431" lon="1.18818">
        <ele>112</ele>
        <time>2023-07-06T14:18:24Z</time>
      </trkpt>
      <trkpt lat="44.11427" lon="1.18831">
        <ele>112</ele>
        <time>2023-07-06T14:18:32Z</time>
      </trkpt>
      <trkpt lat="44.11427" lon="1.18833">
        <ele>112</ele>
        <time>2023-07-06T14:18:33Z</time>
      </trkpt>
      <trkpt lat="44.11427" lon="1.18835">
        <ele>111.8</ele>
        <time>2023-07-06T14:18:34Z</time>
      </trkpt>
      <trkpt lat="44.11426" lon="1.18836">
        <ele>111.6</ele>
        <time>2023-07-06T14:18:35Z</time>
      </trkpt>
      <trkpt lat="44.11425" lon="1.1884">
        <ele>111.6</ele>
        <time>2023-07-06T14:18:37Z</time>
      </trkpt>
      <trkpt lat="44.11425" lon="1.18842">
        <ele>111.6</ele>
        <time>2023-07-06T14:18:38Z</time>
      </trkpt>
      <trkpt lat="44.11422" lon="1.18848">
        <ele>111.4</ele>
        <time>2023-07-06T14:18:42Z</time>
      </trkpt>
      <trkpt lat="44.1142" lon="1.18854">
        <ele>111.6</ele>
        <time>2023-07-06T14:18:46Z</time>
      </trkpt>
      <trkpt lat="44.11418" lon="1.18859">
        <ele>112</ele>
        <time>2023-07-06T14:18:49Z</time>
      </trkpt>
      <trkpt lat="44.11418" lon="1.1886">
        <ele>112</ele>
        <time>2023-07-06T14:18:50Z</time>
      </trkpt>
      <trkpt lat="44.11414" lon="1.18874">
        <ele>111.6</ele>
        <time>2023-07-06T14:19:00Z</time>
      </trkpt>
      <trkpt lat="44.11412" lon="1.18884">
        <ele>111.6</ele>
        <time>2023-07-06T14:19:07Z</time>
      </trkpt>
      <trkpt lat="44.11411" lon="1.18885">
        <ele>111.6</ele>
        <time>2023-07-06T14:19:08Z</time>
      </trkpt>
      <trkpt lat="44.1141" lon="1.18896">
        <ele>111.6</ele>
        <time>2023-07-06T14:19:15Z</time>
      </trkpt>
      <trkpt lat="44.11409" lon="1.189">
        <ele>111.8</ele>
        <time>2023-07-06T14:19:18Z</time>
      </trkpt>
      <trkpt lat="44.11408" lon="1.18906">
        <ele>111.8</ele>
        <time>2023-07-06T14:19:21Z</time>
      </trkpt>
      <trkpt lat="44.11407" lon="1.18917">
        <ele>112</ele>
        <time>2023-07-06T14:19:28Z</time>
      </trkpt>
      <trkpt lat="44.11407" lon="1.18926">
        <ele>112</ele>
        <time>2023-07-06T14:19:34Z</time>
      </trkpt>
      <trkpt lat="44.11408" lon="1.1893">
        <ele>112</ele>
        <time>2023-07-06T14:19:37Z</time>
      </trkpt>
      <trkpt lat="44.11407" lon="1.18939">
        <ele>112</ele>
        <time>2023-07-06T14:19:44Z</time>
      </trkpt>
      <trkpt lat="44.11407" lon="1.18946">
        <ele>112.4</ele>
        <time>2023-07-06T14:19:49Z</time>
      </trkpt>
      <trkpt lat="44.11408" lon="1.18952">
        <ele>112.4</ele>
        <time>2023-07-06T14:19:52Z</time>
      </trkpt>
      <trkpt lat="44.11409" lon="1.18959">
        <ele>112.4</ele>
        <time>2023-07-06T14:19:56Z</time>
      </trkpt>
      <trkpt lat="44.11409" lon="1.18963">
        <ele>112.2</ele>
        <time>2023-07-06T14:19:58Z</time>
      </trkpt>
      <trkpt lat="44.11409" lon="1.18967">
        <ele>112.2</ele>
        <time>2023-07-06T14:20:00Z</time>
      </trkpt>
      <trkpt lat="44.11409" lon="1.18977">
        <ele>112.4</ele>
        <time>2023-07-06T14:20:07Z</time>
      </trkpt>
      <trkpt lat="44.1141" lon="1.18985">
        <ele>112.6</ele>
        <time>2023-07-06T14:20:11Z</time>
      </trkpt>
      <trkpt lat="44.1141" lon="1.18988">
        <ele>112.6</ele>
        <time>2023-07-06T14:20:13Z</time>
      </trkpt>
      <trkpt lat="44.11408" lon="1.19">
        <ele>112.6</ele>
        <time>2023-07-06T14:20:20Z</time>
      </trkpt>
      <trkpt lat="44.11407" lon="1.19007">
        <ele>112.6</ele>
        <time>2023-07-06T14:20:24Z</time>
      </trkpt>
      <trkpt lat="44.11406" lon="1.1902">
        <ele>112.6</ele>
        <time>2023-07-06T14:20:33Z</time>
      </trkpt>
      <trkpt lat="44.11401" lon="1.19036">
        <ele>112.4</ele>
        <time>2023-07-06T14:20:43Z</time>
      </trkpt>
      <trkpt lat="44.11398" lon="1.19045">
        <ele>112.6</ele>
        <time>2023-07-06T14:20:49Z</time>
      </trkpt>
      <trkpt lat="44.11397" lon="1.19052">
        <ele>112.6</ele>
        <time>2023-07-06T14:20:53Z</time>
      </trkpt>
      <trkpt lat="44.11397" lon="1.19053">
        <ele>112.6</ele>
        <time>2023-07-06T14:20:54Z</time>
      </trkpt>
      <trkpt lat="44.11398" lon="1.19055">
        <ele>112.6</ele>
        <time>2023-07-06T14:20:55Z</time>
      </trkpt>
      <trkpt lat="44.114" lon="1.1906">
        <ele>112.6</ele>
        <time>2023-07-06T14:21:04Z</time>
      </trkpt>
      <trkpt lat="44.11398" lon="1.19061">
        <ele>112.6</ele>
        <time>2023-07-06T14:21:06Z</time>
      </trkpt>
      <trkpt lat="44.11392" lon="1.1907">
        <ele>112.6</ele>
        <time>2023-07-06T14:21:13Z</time>
      </trkpt>
      <trkpt lat="44.11388" lon="1.19084">
        <ele>112.2</ele>
        <time>2023-07-06T14:21:22Z</time>
      </trkpt>
      <trkpt lat="44.11382" lon="1.19097">
        <ele>112.4</ele>
        <time>2023-07-06T14:21:31Z</time>
      </trkpt>
      <trkpt lat="44.11376" lon="1.19112">
        <ele>112.2</ele>
        <time>2023-07-06T14:21:41Z</time>
      </trkpt>
      <trkpt lat="44.11372" lon="1.19119">
        <ele>112.2</ele>
        <time>2023-07-06T14:21:46Z</time>
      </trkpt>
      <trkpt lat="44.11369" lon="1.19128">
        <ele>112.2</ele>
        <time>2023-07-06T14:21:52Z</time>
      </trkpt>
      <trkpt lat="44.11364" lon="1.19143">
        <ele>112.4</ele>
        <time>2023-07-06T14:22:01Z</time>
      </trkpt>
      <trkpt lat="44.11362" lon="1.1915">
        <ele>112.4</ele>
        <time>2023-07-06T14:22:05Z</time>
      </trkpt>
      <trkpt lat="44.11359" lon="1.19158">
        <ele>112.4</ele>
        <time>2023-07-06T14:22:11Z</time>
      </trkpt>
      <trkpt lat="44.11357" lon="1.19161">
        <ele>112.2</ele>
        <time>2023-07-06T14:22:13Z</time>
      </trkpt>
      <trkpt lat="44.11357" lon="1.19163">
        <ele>112.2</ele>
        <time>2023-07-06T14:22:14Z</time>
      </trkpt>
      <trkpt lat="44.11356" lon="1.19164">
        <ele>112.2</ele>
        <time>2023-07-06T14:22:15Z</time>
      </trkpt>
      <trkpt lat="44.11353" lon="1.19173">
        <ele>112.2</ele>
        <time>2023-07-06T14:22:21Z</time>
      </trkpt>
      <trkpt lat="44.1135" lon="1.19188">
        <ele>112.4</ele>
        <time>2023-07-06T14:22:31Z</time>
      </trkpt>
      <trkpt lat="44.1135" lon="1.19191">
        <ele>112.2</ele>
        <time>2023-07-06T14:22:33Z</time>
      </trkpt>
      <trkpt lat="44.11348" lon="1.192">
        <ele>112.2</ele>
        <time>2023-07-06T14:22:38Z</time>
      </trkpt>
      <trkpt lat="44.11347" lon="1.19201">
        <ele>112.2</ele>
        <time>2023-07-06T14:22:39Z</time>
      </trkpt>
      <trkpt lat="44.11345" lon="1.19207">
        <ele>112.2</ele>
        <time>2023-07-06T14:22:43Z</time>
      </trkpt>
      <trkpt lat="44.11345" lon="1.19209">
        <ele>112</ele>
        <time>2023-07-06T14:22:44Z</time>
      </trkpt>
      <trkpt lat="44.1134" lon="1.19221">
        <ele>111.8</ele>
        <time>2023-07-06T14:22:53Z</time>
      </trkpt>
      <trkpt lat="44.1134" lon="1.19231">
        <ele>112.2</ele>
        <time>2023-07-06T14:22:59Z</time>
      </trkpt>
      <trkpt lat="44.11339" lon="1.19235">
        <ele>112.2</ele>
        <time>2023-07-06T14:23:01Z</time>
      </trkpt>
      <trkpt lat="44.11338" lon="1.19242">
        <ele>112</ele>
        <time>2023-07-06T14:23:05Z</time>
      </trkpt>
      <trkpt lat="44.11336" lon="1.19258">
        <ele>112.6</ele>
        <time>2023-07-06T14:23:15Z</time>
      </trkpt>
      <trkpt lat="44.11336" lon="1.1926">
        <ele>112.6</ele>
        <time>2023-07-06T14:23:16Z</time>
      </trkpt>
      <trkpt lat="44.11336" lon="1.1927">
        <ele>112.4</ele>
        <time>2023-07-06T14:23:21Z</time>
      </trkpt>
      <trkpt lat="44.11334" lon="1.19285">
        <ele>111.8</ele>
        <time>2023-07-06T14:23:30Z</time>
      </trkpt>
      <trkpt lat="44.11332" lon="1.193">
        <ele>112.4</ele>
        <time>2023-07-06T14:23:39Z</time>
      </trkpt>
      <trkpt lat="44.11331" lon="1.19306">
        <ele>112.8</ele>
        <time>2023-07-06T14:23:43Z</time>
      </trkpt>
      <trkpt lat="44.1133" lon="1.19316">
        <ele>113</ele>
        <time>2023-07-06T14:23:49Z</time>
      </trkpt>
      <trkpt lat="44.11328" lon="1.19331">
        <ele>112.8</ele>
        <time>2023-07-06T14:23:58Z</time>
      </trkpt>
      <trkpt lat="44.11328" lon="1.19336">
        <ele>112.8</ele>
        <time>2023-07-06T14:24:01Z</time>
      </trkpt>
      <trkpt lat="44.11327" lon="1.19341">
        <ele>112.6</ele>
        <time>2023-07-06T14:24:04Z</time>
      </trkpt>
      <trkpt lat="44.11327" lon="1.19344">
        <ele>112.2</ele>
        <time>2023-07-06T14:24:06Z</time>
      </trkpt>
      <trkpt lat="44.11327" lon="1.19355">
        <ele>111.8</ele>
        <time>2023-07-06T14:24:13Z</time>
      </trkpt>
      <trkpt lat="44.11326" lon="1.19369">
        <ele>112.4</ele>
        <time>2023-07-06T14:24:22Z</time>
      </trkpt>
      <trkpt lat="44.11324" lon="1.19379">
        <ele>112.2</ele>
        <time>2023-07-06T14:24:28Z</time>
      </trkpt>
      <trkpt lat="44.11324" lon="1.19386">
        <ele>112.2</ele>
        <time>2023-07-06T14:24:32Z</time>
      </trkpt>
      <trkpt lat="44.11324" lon="1.19389">
        <ele>112.2</ele>
        <time>2023-07-06T14:24:34Z</time>
      </trkpt>
      <trkpt lat="44.11324" lon="1.19395">
        <ele>112</ele>
        <time>2023-07-06T14:24:37Z</time>
      </trkpt>
      <trkpt lat="44.11323" lon="1.19406">
        <ele>111.8</ele>
        <time>2023-07-06T14:24:43Z</time>
      </trkpt>
      <trkpt lat="44.11323" lon="1.19408">
        <ele>111.8</ele>
        <time>2023-07-06T14:24:44Z</time>
      </trkpt>
      <trkpt lat="44.11323" lon="1.19413">
        <ele>111.8</ele>
        <time>2023-07-06T14:24:47Z</time>
      </trkpt>
      <trkpt lat="44.11322" lon="1.19421">
        <ele>111.6</ele>
        <time>2023-07-06T14:24:52Z</time>
      </trkpt>
      <trkpt lat="44.11321" lon="1.19422">
        <ele>111.4</ele>
        <time>2023-07-06T14:24:53Z</time>
      </trkpt>
      <trkpt lat="44.11316" lon="1.19426">
        <ele>111.8</ele>
        <time>2023-07-06T14:25:05Z</time>
      </trkpt>
      <trkpt lat="44.11318" lon="1.19427">
        <ele>111.8</ele>
        <time>2023-07-06T14:25:06Z</time>
      </trkpt>
      <trkpt lat="44.11319" lon="1.19428">
        <ele>111.8</ele>
        <time>2023-07-06T14:25:07Z</time>
      </trkpt>
      <trkpt lat="44.11321" lon="1.19435">
        <ele>111.2</ele>
        <time>2023-07-06T14:25:12Z</time>
      </trkpt>
      <trkpt lat="44.11322" lon="1.1945">
        <ele>111.4</ele>
        <time>2023-07-06T14:25:20Z</time>
      </trkpt>
      <trkpt lat="44.11321" lon="1.19451">
        <ele>111.4</ele>
        <time>2023-07-06T14:25:21Z</time>
      </trkpt>
      <trkpt lat="44.11321" lon="1.19453">
        <ele>111.4</ele>
        <time>2023-07-06T14:25:22Z</time>
      </trkpt>
      <trkpt lat="44.11321" lon="1.19455">
        <ele>111.4</ele>
        <time>2023-07-06T14:25:23Z</time>
      </trkpt>
      <trkpt lat="44.11321" lon="1.19459">
        <ele>111.6</ele>
        <time>2023-07-06T14:25:25Z</time>
      </trkpt>
      <trkpt lat="44.11321" lon="1.19462">
        <ele>111.6</ele>
        <time>2023-07-06T14:25:27Z</time>
      </trkpt>
      <trkpt lat="44.1132" lon="1.19479">
        <ele>111.6</ele>
        <time>2023-07-06T14:25:36Z</time>
      </trkpt>
      <trkpt lat="44.1132" lon="1.19485">
        <ele>111.6</ele>
        <time>2023-07-06T14:25:40Z</time>
      </trkpt>
      <trkpt lat="44.11321" lon="1.1949">
        <ele>111.6</ele>
        <time>2023-07-06T14:25:43Z</time>
      </trkpt>
      <trkpt lat="44.1132" lon="1.19494">
        <ele>111.6</ele>
        <time>2023-07-06T14:25:45Z</time>
      </trkpt>
      <trkpt lat="44.11319" lon="1.19506">
        <ele>111.4</ele>
        <time>2023-07-06T14:25:52Z</time>
      </trkpt>
      <trkpt lat="44.11318" lon="1.19512">
        <ele>111.4</ele>
        <time>2023-07-06T14:25:56Z</time>
      </trkpt>
      <trkpt lat="44.11318" lon="1.1952">
        <ele>111.4</ele>
        <time>2023-07-06T14:26:01Z</time>
      </trkpt>
      <trkpt lat="44.11318" lon="1.19535">
        <ele>111.6</ele>
        <time>2023-07-06T14:26:10Z</time>
      </trkpt>
      <trkpt lat="44.11319" lon="1.19553">
        <ele>111.6</ele>
        <time>2023-07-06T14:26:21Z</time>
      </trkpt>
      <trkpt lat="44.11319" lon="1.19569">
        <ele>111.6</ele>
        <time>2023-07-06T14:26:30Z</time>
      </trkpt>
      <trkpt lat="44.11319" lon="1.19578">
        <ele>111.6</ele>
        <time>2023-07-06T14:26:34Z</time>
      </trkpt>
      <trkpt lat="44.11319" lon="1.19589">
        <ele>111.8</ele>
        <time>2023-07-06T14:26:40Z</time>
      </trkpt>
      <trkpt lat="44.11319" lon="1.19606">
        <ele>111.8</ele>
        <time>2023-07-06T14:26:49Z</time>
      </trkpt>
      <trkpt lat="44.11319" lon="1.19613">
        <ele>112</ele>
        <time>2023-07-06T14:26:53Z</time>
      </trkpt>
      <trkpt lat="44.11318" lon="1.19625">
        <ele>111.8</ele>
        <time>2023-07-06T14:27:00Z</time>
      </trkpt>
      <trkpt lat="44.11317" lon="1.19634">
        <ele>111.8</ele>
        <time>2023-07-06T14:27:05Z</time>
      </trkpt>
      <trkpt lat="44.11317" lon="1.19635">
        <ele>111.8</ele>
        <time>2023-07-06T14:27:06Z</time>
      </trkpt>
      <trkpt lat="44.11316" lon="1.1964">
        <ele>112</ele>
        <time>2023-07-06T14:27:09Z</time>
      </trkpt>
      <trkpt lat="44.11316" lon="1.19642">
        <ele>112</ele>
        <time>2023-07-06T14:27:10Z</time>
      </trkpt>
      <trkpt lat="44.11315" lon="1.19651">
        <ele>112.2</ele>
        <time>2023-07-06T14:27:16Z</time>
      </trkpt>
      <trkpt lat="44.11314" lon="1.19658">
        <ele>112</ele>
        <time>2023-07-06T14:27:20Z</time>
      </trkpt>
      <trkpt lat="44.11314" lon="1.19672">
        <ele>112</ele>
        <time>2023-07-06T14:27:29Z</time>
      </trkpt>
      <trkpt lat="44.11312" lon="1.19685">
        <ele>112.2</ele>
        <time>2023-07-06T14:27:37Z</time>
      </trkpt>
      <trkpt lat="44.11312" lon="1.1969">
        <ele>112.2</ele>
        <time>2023-07-06T14:27:40Z</time>
      </trkpt>
      <trkpt lat="44.11311" lon="1.19705">
        <ele>112.4</ele>
        <time>2023-07-06T14:27:49Z</time>
      </trkpt>
      <trkpt lat="44.11311" lon="1.1972">
        <ele>112.4</ele>
        <time>2023-07-06T14:27:57Z</time>
      </trkpt>
      <trkpt lat="44.1131" lon="1.19721">
        <ele>112.6</ele>
        <time>2023-07-06T14:27:58Z</time>
      </trkpt>
      <trkpt lat="44.1131" lon="1.19734">
        <ele>112.4</ele>
        <time>2023-07-06T14:28:06Z</time>
      </trkpt>
      <trkpt lat="44.1131" lon="1.19741">
        <ele>112.8</ele>
        <time>2023-07-06T14:28:10Z</time>
      </trkpt>
      <trkpt lat="44.1131" lon="1.19745">
        <ele>112.8</ele>
        <time>2023-07-06T14:28:12Z</time>
      </trkpt>
      <trkpt lat="44.11311" lon="1.19747">
        <ele>113</ele>
        <time>2023-07-06T14:28:13Z</time>
      </trkpt>
      <trkpt lat="44.11312" lon="1.19753">
        <ele>113</ele>
        <time>2023-07-06T14:28:17Z</time>
      </trkpt>
      <trkpt lat="44.11312" lon="1.19757">
        <ele>113</ele>
        <time>2023-07-06T14:28:19Z</time>
      </trkpt>
      <trkpt lat="44.11312" lon="1.19768">
        <ele>112.8</ele>
        <time>2023-07-06T14:28:24Z</time>
      </trkpt>
      <trkpt lat="44.11313" lon="1.19771">
        <ele>112.8</ele>
        <time>2023-07-06T14:28:26Z</time>
      </trkpt>
      <trkpt lat="44.11314" lon="1.19787">
        <ele>113.2</ele>
        <time>2023-07-06T14:28:35Z</time>
      </trkpt>
      <trkpt lat="44.11317" lon="1.19801">
        <ele>113.4</ele>
        <time>2023-07-06T14:28:44Z</time>
      </trkpt>
      <trkpt lat="44.11323" lon="1.19818">
        <ele>113</ele>
        <time>2023-07-06T14:28:53Z</time>
      </trkpt>
      <trkpt lat="44.11326" lon="1.19827">
        <ele>113</ele>
        <time>2023-07-06T14:28:59Z</time>
      </trkpt>
      <trkpt lat="44.11328" lon="1.19837">
        <ele>113.2</ele>
        <time>2023-07-06T14:29:06Z</time>
      </trkpt>
      <trkpt lat="44.11329" lon="1.19843">
        <ele>113</ele>
        <time>2023-07-06T14:29:11Z</time>
      </trkpt>
      <trkpt lat="44.11329" lon="1.19846">
        <ele>113.2</ele>
        <time>2023-07-06T14:29:13Z</time>
      </trkpt>
      <trkpt lat="44.11331" lon="1.19859">
        <ele>112.8</ele>
        <time>2023-07-06T14:29:21Z</time>
      </trkpt>
      <trkpt lat="44.11334" lon="1.19872">
        <ele>112.8</ele>
        <time>2023-07-06T14:29:28Z</time>
      </trkpt>
      <trkpt lat="44.11339" lon="1.19892">
        <ele>112.8</ele>
        <time>2023-07-06T14:29:38Z</time>
      </trkpt>
      <trkpt lat="44.11342" lon="1.19902">
        <ele>113</ele>
        <time>2023-07-06T14:29:44Z</time>
      </trkpt>
      <trkpt lat="44.11345" lon="1.19912">
        <ele>113</ele>
        <time>2023-07-06T14:29:50Z</time>
      </trkpt>
      <trkpt lat="44.11345" lon="1.19913">
        <ele>113</ele>
        <time>2023-07-06T14:29:51Z</time>
      </trkpt>
      <trkpt lat="44.11346" lon="1.19917">
        <ele>113</ele>
        <time>2023-07-06T14:29:53Z</time>
      </trkpt>
      <trkpt lat="44.1135" lon="1.1993">
        <ele>113</ele>
        <time>2023-07-06T14:30:01Z</time>
      </trkpt>
      <trkpt lat="44.11354" lon="1.19944">
        <ele>113</ele>
        <time>2023-07-06T14:30:09Z</time>
      </trkpt>
      <trkpt lat="44.11358" lon="1.19954">
        <ele>113</ele>
        <time>2023-07-06T14:30:15Z</time>
      </trkpt>
      <trkpt lat="44.11358" lon="1.19956">
        <ele>113</ele>
        <time>2023-07-06T14:30:16Z</time>
      </trkpt>
      <trkpt lat="44.1136" lon="1.19963">
        <ele>113</ele>
        <time>2023-07-06T14:30:20Z</time>
      </trkpt>
      <trkpt lat="44.11361" lon="1.1997">
        <ele>113.4</ele>
        <time>2023-07-06T14:30:25Z</time>
      </trkpt>
      <trkpt lat="44.11364" lon="1.19979">
        <ele>113.4</ele>
        <time>2023-07-06T14:30:32Z</time>
      </trkpt>
      <trkpt lat="44.11365" lon="1.19987">
        <ele>113.6</ele>
        <time>2023-07-06T14:30:38Z</time>
      </trkpt>
      <trkpt lat="44.11365" lon="1.19989">
        <ele>113.6</ele>
        <time>2023-07-06T14:30:39Z</time>
      </trkpt>
      <trkpt lat="44.11368" lon="1.2">
        <ele>113.4</ele>
        <time>2023-07-06T14:30:45Z</time>
      </trkpt>
      <trkpt lat="44.11369" lon="1.20008">
        <ele>113.6</ele>
        <time>2023-07-06T14:30:50Z</time>
      </trkpt>
      <trkpt lat="44.11369" lon="1.20013">
        <ele>113.8</ele>
        <time>2023-07-06T14:30:53Z</time>
      </trkpt>
      <trkpt lat="44.11369" lon="1.20016">
        <ele>113.8</ele>
        <time>2023-07-06T14:30:55Z</time>
      </trkpt>
      <trkpt lat="44.11369" lon="1.20018">
        <ele>113.8</ele>
        <time>2023-07-06T14:30:56Z</time>
      </trkpt>
      <trkpt lat="44.1137" lon="1.20024">
        <ele>114</ele>
        <time>2023-07-06T14:31:00Z</time>
      </trkpt>
      <trkpt lat="44.11372" lon="1.20037">
        <ele>113.8</ele>
        <time>2023-07-06T14:31:08Z</time>
      </trkpt>
      <trkpt lat="44.11371" lon="1.20053">
        <ele>114</ele>
        <time>2023-07-06T14:31:17Z</time>
      </trkpt>
      <trkpt lat="44.1137" lon="1.20058">
        <ele>113.8</ele>
        <time>2023-07-06T14:31:20Z</time>
      </trkpt>
      <trkpt lat="44.1137" lon="1.20061">
        <ele>113.8</ele>
        <time>2023-07-06T14:31:22Z</time>
      </trkpt>
      <trkpt lat="44.1137" lon="1.20073">
        <ele>114</ele>
        <time>2023-07-06T14:31:29Z</time>
      </trkpt>
      <trkpt lat="44.1137" lon="1.20079">
        <ele>113.8</ele>
        <time>2023-07-06T14:31:32Z</time>
      </trkpt>
      <trkpt lat="44.1137" lon="1.20083">
        <ele>114</ele>
        <time>2023-07-06T14:31:34Z</time>
      </trkpt>
      <trkpt lat="44.1137" lon="1.2009">
        <ele>114</ele>
        <time>2023-07-06T14:31:38Z</time>
      </trkpt>
      <trkpt lat="44.1137" lon="1.20104">
        <ele>113.8</ele>
        <time>2023-07-06T14:31:45Z</time>
      </trkpt>
      <trkpt lat="44.11371" lon="1.20117">
        <ele>113.8</ele>
        <time>2023-07-06T14:31:52Z</time>
      </trkpt>
      <trkpt lat="44.11371" lon="1.20131">
        <ele>113.8</ele>
        <time>2023-07-06T14:32:01Z</time>
      </trkpt>
      <trkpt lat="44.1137" lon="1.20137">
        <ele>113.8</ele>
        <time>2023-07-06T14:32:04Z</time>
      </trkpt>
      <trkpt lat="44.11371" lon="1.20147">
        <ele>113.6</ele>
        <time>2023-07-06T14:32:10Z</time>
      </trkpt>
      <trkpt lat="44.11372" lon="1.2016">
        <ele>113.4</ele>
        <time>2023-07-06T14:32:18Z</time>
      </trkpt>
      <trkpt lat="44.11372" lon="1.20165">
        <ele>113.8</ele>
        <time>2023-07-06T14:32:21Z</time>
      </trkpt>
      <trkpt lat="44.11372" lon="1.20174">
        <ele>114.2</ele>
        <time>2023-07-06T14:32:26Z</time>
      </trkpt>
      <trkpt lat="44.11372" lon="1.20179">
        <ele>114</ele>
        <time>2023-07-06T14:32:29Z</time>
      </trkpt>
      <trkpt lat="44.11372" lon="1.20184">
        <ele>113.6</ele>
        <time>2023-07-06T14:32:32Z</time>
      </trkpt>
      <trkpt lat="44.11373" lon="1.2019">
        <ele>113.6</ele>
        <time>2023-07-06T14:32:35Z</time>
      </trkpt>
      <trkpt lat="44.11374" lon="1.20194">
        <ele>113.6</ele>
        <time>2023-07-06T14:32:37Z</time>
      </trkpt>
      <trkpt lat="44.11375" lon="1.20203">
        <ele>114</ele>
        <time>2023-07-06T14:32:42Z</time>
      </trkpt>
      <trkpt lat="44.11376" lon="1.20205">
        <ele>114</ele>
        <time>2023-07-06T14:32:43Z</time>
      </trkpt>
      <trkpt lat="44.11378" lon="1.20214">
        <ele>114.2</ele>
        <time>2023-07-06T14:32:49Z</time>
      </trkpt>
      <trkpt lat="44.11378" lon="1.20218">
        <ele>114.2</ele>
        <time>2023-07-06T14:32:52Z</time>
      </trkpt>
      <trkpt lat="44.1138" lon="1.20227">
        <ele>114.2</ele>
        <time>2023-07-06T14:32:58Z</time>
      </trkpt>
      <trkpt lat="44.1138" lon="1.20232">
        <ele>114.2</ele>
        <time>2023-07-06T14:33:01Z</time>
      </trkpt>
      <trkpt lat="44.11379" lon="1.20247">
        <ele>114.2</ele>
        <time>2023-07-06T14:33:09Z</time>
      </trkpt>
      <trkpt lat="44.1138" lon="1.20262">
        <ele>114</ele>
        <time>2023-07-06T14:33:18Z</time>
      </trkpt>
      <trkpt lat="44.11381" lon="1.20267">
        <ele>114</ele>
        <time>2023-07-06T14:33:21Z</time>
      </trkpt>
      <trkpt lat="44.11383" lon="1.20278">
        <ele>114</ele>
        <time>2023-07-06T14:33:27Z</time>
      </trkpt>
      <trkpt lat="44.11383" lon="1.2028">
        <ele>114</ele>
        <time>2023-07-06T14:33:28Z</time>
      </trkpt>
      <trkpt lat="44.11384" lon="1.20282">
        <ele>114</ele>
        <time>2023-07-06T14:33:29Z</time>
      </trkpt>
      <trkpt lat="44.11387" lon="1.20296">
        <ele>114</ele>
        <time>2023-07-06T14:33:37Z</time>
      </trkpt>
      <trkpt lat="44.11388" lon="1.20301">
        <ele>114.2</ele>
        <time>2023-07-06T14:33:40Z</time>
      </trkpt>
      <trkpt lat="44.11388" lon="1.20311">
        <ele>114</ele>
        <time>2023-07-06T14:33:46Z</time>
      </trkpt>
      <trkpt lat="44.1139" lon="1.20325">
        <ele>113.8</ele>
        <time>2023-07-06T14:33:54Z</time>
      </trkpt>
      <trkpt lat="44.1139" lon="1.20338">
        <ele>113.8</ele>
        <time>2023-07-06T14:34:02Z</time>
      </trkpt>
      <trkpt lat="44.11389" lon="1.20347">
        <ele>113.6</ele>
        <time>2023-07-06T14:34:07Z</time>
      </trkpt>
      <trkpt lat="44.1139" lon="1.20352">
        <ele>113.8</ele>
        <time>2023-07-06T14:34:10Z</time>
      </trkpt>
      <trkpt lat="44.11393" lon="1.20364">
        <ele>113.6</ele>
        <time>2023-07-06T14:34:18Z</time>
      </trkpt>
      <trkpt lat="44.11393" lon="1.20378">
        <ele>113.4</ele>
        <time>2023-07-06T14:34:26Z</time>
      </trkpt>
      <trkpt lat="44.11393" lon="1.20395">
        <ele>113.6</ele>
        <time>2023-07-06T14:34:35Z</time>
      </trkpt>
      <trkpt lat="44.11393" lon="1.20408">
        <ele>113.4</ele>
        <time>2023-07-06T14:34:43Z</time>
      </trkpt>
      <trkpt lat="44.11394" lon="1.20425">
        <ele>113.4</ele>
        <time>2023-07-06T14:34:52Z</time>
      </trkpt>
      <trkpt lat="44.11395" lon="1.20428">
        <ele>113.6</ele>
        <time>2023-07-06T14:34:54Z</time>
      </trkpt>
      <trkpt lat="44.11396" lon="1.2043">
        <ele>113.8</ele>
        <time>2023-07-06T14:34:56Z</time>
      </trkpt>
      <trkpt lat="44.11396" lon="1.20431">
        <ele>113.8</ele>
        <time>2023-07-06T14:34:58Z</time>
      </trkpt>
      <trkpt lat="44.11396" lon="1.20437">
        <ele>113.6</ele>
        <time>2023-07-06T14:35:03Z</time>
      </trkpt>
      <trkpt lat="44.11396" lon="1.20442">
        <ele>113.6</ele>
        <time>2023-07-06T14:35:06Z</time>
      </trkpt>
      <trkpt lat="44.11397" lon="1.20446">
        <ele>113.6</ele>
        <time>2023-07-06T14:35:08Z</time>
      </trkpt>
      <trkpt lat="44.11398" lon="1.2045">
        <ele>113.6</ele>
        <time>2023-07-06T14:35:10Z</time>
      </trkpt>
      <trkpt lat="44.114" lon="1.20464">
        <ele>113.4</ele>
        <time>2023-07-06T14:35:18Z</time>
      </trkpt>
      <trkpt lat="44.114" lon="1.20476">
        <ele>113.2</ele>
        <time>2023-07-06T14:35:26Z</time>
      </trkpt>
      <trkpt lat="44.11401" lon="1.20481">
        <ele>113.2</ele>
        <time>2023-07-06T14:35:29Z</time>
      </trkpt>
      <trkpt lat="44.11401" lon="1.20486">
        <ele>113.2</ele>
        <time>2023-07-06T14:35:32Z</time>
      </trkpt>
      <trkpt lat="44.11401" lon="1.20488">
        <ele>113.4</ele>
        <time>2023-07-06T14:35:34Z</time>
      </trkpt>
      <trkpt lat="44.11401" lon="1.20492">
        <ele>113.4</ele>
        <time>2023-07-06T14:35:36Z</time>
      </trkpt>
      <trkpt lat="44.11402" lon="1.20502">
        <ele>113.4</ele>
        <time>2023-07-06T14:35:42Z</time>
      </trkpt>
      <trkpt lat="44.11402" lon="1.20504">
        <ele>113.4</ele>
        <time>2023-07-06T14:35:43Z</time>
      </trkpt>
      <trkpt lat="44.11403" lon="1.20517">
        <ele>113.8</ele>
        <time>2023-07-06T14:35:50Z</time>
      </trkpt>
      <trkpt lat="44.11403" lon="1.20524">
        <ele>113.6</ele>
        <time>2023-07-06T14:35:55Z</time>
      </trkpt>
      <trkpt lat="44.11403" lon="1.20527">
        <ele>113.6</ele>
        <time>2023-07-06T14:35:57Z</time>
      </trkpt>
      <trkpt lat="44.11404" lon="1.20531">
        <ele>113.8</ele>
        <time>2023-07-06T14:36:00Z</time>
      </trkpt>
      <trkpt lat="44.11406" lon="1.20539">
        <ele>114</ele>
        <time>2023-07-06T14:36:05Z</time>
      </trkpt>
      <trkpt lat="44.11406" lon="1.20541">
        <ele>114</ele>
        <time>2023-07-06T14:36:06Z</time>
      </trkpt>
      <trkpt lat="44.11407" lon="1.20555">
        <ele>113.8</ele>
        <time>2023-07-06T14:36:14Z</time>
      </trkpt>
      <trkpt lat="44.11409" lon="1.20573">
        <ele>114.2</ele>
        <time>2023-07-06T14:36:25Z</time>
      </trkpt>
      <trkpt lat="44.11412" lon="1.2059">
        <ele>114.2</ele>
        <time>2023-07-06T14:36:34Z</time>
      </trkpt>
      <trkpt lat="44.11412" lon="1.20593">
        <ele>114.2</ele>
        <time>2023-07-06T14:36:36Z</time>
      </trkpt>
      <trkpt lat="44.11412" lon="1.20595">
        <ele>114.2</ele>
        <time>2023-07-06T14:36:37Z</time>
      </trkpt>
      <trkpt lat="44.11412" lon="1.20601">
        <ele>114.2</ele>
        <time>2023-07-06T14:36:41Z</time>
      </trkpt>
      <trkpt lat="44.11412" lon="1.20606">
        <ele>114.2</ele>
        <time>2023-07-06T14:36:44Z</time>
      </trkpt>
      <trkpt lat="44.11414" lon="1.2062">
        <ele>114</ele>
        <time>2023-07-06T14:36:52Z</time>
      </trkpt>
      <trkpt lat="44.11414" lon="1.20622">
        <ele>114</ele>
        <time>2023-07-06T14:36:53Z</time>
      </trkpt>
      <trkpt lat="44.11415" lon="1.20626">
        <ele>114.2</ele>
        <time>2023-07-06T14:36:56Z</time>
      </trkpt>
      <trkpt lat="44.11416" lon="1.20635">
        <ele>114.2</ele>
        <time>2023-07-06T14:37:01Z</time>
      </trkpt>
      <trkpt lat="44.11417" lon="1.20645">
        <ele>114.2</ele>
        <time>2023-07-06T14:37:07Z</time>
      </trkpt>
      <trkpt lat="44.11418" lon="1.2065">
        <ele>114.2</ele>
        <time>2023-07-06T14:37:10Z</time>
      </trkpt>
      <trkpt lat="44.11417" lon="1.20652">
        <ele>114.2</ele>
        <time>2023-07-06T14:37:11Z</time>
      </trkpt>
      <trkpt lat="44.11418" lon="1.20658">
        <ele>114.2</ele>
        <time>2023-07-06T14:37:15Z</time>
      </trkpt>
      <trkpt lat="44.11418" lon="1.20663">
        <ele>114.4</ele>
        <time>2023-07-06T14:37:18Z</time>
      </trkpt>
      <trkpt lat="44.1142" lon="1.20675">
        <ele>114.2</ele>
        <time>2023-07-06T14:37:25Z</time>
      </trkpt>
      <trkpt lat="44.1142" lon="1.20677">
        <ele>114.2</ele>
        <time>2023-07-06T14:37:26Z</time>
      </trkpt>
      <trkpt lat="44.11421" lon="1.20685">
        <ele>114.6</ele>
        <time>2023-07-06T14:37:31Z</time>
      </trkpt>
      <trkpt lat="44.11421" lon="1.20687">
        <ele>114.8</ele>
        <time>2023-07-06T14:37:32Z</time>
      </trkpt>
      <trkpt lat="44.11421" lon="1.20689">
        <ele>114.8</ele>
        <time>2023-07-06T14:37:33Z</time>
      </trkpt>
      <trkpt lat="44.11422" lon="1.20692">
        <ele>114.6</ele>
        <time>2023-07-06T14:37:35Z</time>
      </trkpt>
      <trkpt lat="44.11423" lon="1.20708">
        <ele>114.8</ele>
        <time>2023-07-06T14:37:45Z</time>
      </trkpt>
      <trkpt lat="44.11423" lon="1.2072">
        <ele>114.8</ele>
        <time>2023-07-06T14:37:51Z</time>
      </trkpt>
      <trkpt lat="44.11423" lon="1.20724">
        <ele>114.8</ele>
        <time>2023-07-06T14:37:53Z</time>
      </trkpt>
      <trkpt lat="44.1142" lon="1.20737">
        <ele>115.2</ele>
        <time>2023-07-06T14:38:01Z</time>
      </trkpt>
      <trkpt lat="44.1142" lon="1.20739">
        <ele>115.2</ele>
        <time>2023-07-06T14:38:02Z</time>
      </trkpt>
      <trkpt lat="44.11421" lon="1.20743">
        <ele>115.2</ele>
        <time>2023-07-06T14:38:04Z</time>
      </trkpt>
      <trkpt lat="44.11421" lon="1.20744">
        <ele>115</ele>
        <time>2023-07-06T14:38:05Z</time>
      </trkpt>
      <trkpt lat="44.11421" lon="1.20746">
        <ele>115</ele>
        <time>2023-07-06T14:38:06Z</time>
      </trkpt>
      <trkpt lat="44.11421" lon="1.20752">
        <ele>114.8</ele>
        <time>2023-07-06T14:38:09Z</time>
      </trkpt>
      <trkpt lat="44.11421" lon="1.20758">
        <ele>114.6</ele>
        <time>2023-07-06T14:38:13Z</time>
      </trkpt>
      <trkpt lat="44.11422" lon="1.20766">
        <ele>114.6</ele>
        <time>2023-07-06T14:38:17Z</time>
      </trkpt>
      <trkpt lat="44.11423" lon="1.20768">
        <ele>114.6</ele>
        <time>2023-07-06T14:38:18Z</time>
      </trkpt>
      <trkpt lat="44.11423" lon="1.2077">
        <ele>114.6</ele>
        <time>2023-07-06T14:38:19Z</time>
      </trkpt>
      <trkpt lat="44.11423" lon="1.20772">
        <ele>114.6</ele>
        <time>2023-07-06T14:38:20Z</time>
      </trkpt>
      <trkpt lat="44.11424" lon="1.20783">
        <ele>114.6</ele>
        <time>2023-07-06T14:38:26Z</time>
      </trkpt>
      <trkpt lat="44.11424" lon="1.20796">
        <ele>114.6</ele>
        <time>2023-07-06T14:38:34Z</time>
      </trkpt>
      <trkpt lat="44.11424" lon="1.20808">
        <ele>114.4</ele>
        <time>2023-07-06T14:38:41Z</time>
      </trkpt>
      <trkpt lat="44.11424" lon="1.20815">
        <ele>114</ele>
        <time>2023-07-06T14:38:45Z</time>
      </trkpt>
      <trkpt lat="44.11424" lon="1.20822">
        <ele>113.8</ele>
        <time>2023-07-06T14:38:49Z</time>
      </trkpt>
      <trkpt lat="44.11424" lon="1.20833">
        <ele>114.2</ele>
        <time>2023-07-06T14:38:55Z</time>
      </trkpt>
      <trkpt lat="44.11424" lon="1.20847">
        <ele>114.6</ele>
        <time>2023-07-06T14:39:03Z</time>
      </trkpt>
      <trkpt lat="44.11424" lon="1.20849">
        <ele>114.6</ele>
        <time>2023-07-06T14:39:04Z</time>
      </trkpt>
      <trkpt lat="44.11424" lon="1.2086">
        <ele>115</ele>
        <time>2023-07-06T14:39:10Z</time>
      </trkpt>
      <trkpt lat="44.11425" lon="1.20866">
        <ele>115</ele>
        <time>2023-07-06T14:39:14Z</time>
      </trkpt>
      <trkpt lat="44.11426" lon="1.20879">
        <ele>114.2</ele>
        <time>2023-07-06T14:39:22Z</time>
      </trkpt>
      <trkpt lat="44.11426" lon="1.2088">
        <ele>114.2</ele>
        <time>2023-07-06T14:39:23Z</time>
      </trkpt>
      <trkpt lat="44.11427" lon="1.20884">
        <ele>114</ele>
        <time>2023-07-06T14:39:25Z</time>
      </trkpt>
      <trkpt lat="44.11429" lon="1.20898">
        <ele>114.6</ele>
        <time>2023-07-06T14:39:32Z</time>
      </trkpt>
      <trkpt lat="44.1143" lon="1.20912">
        <ele>114</ele>
        <time>2023-07-06T14:39:41Z</time>
      </trkpt>
      <trkpt lat="44.11431" lon="1.20916">
        <ele>114</ele>
        <time>2023-07-06T14:39:43Z</time>
      </trkpt>
      <trkpt lat="44.11435" lon="1.20929">
        <ele>114</ele>
        <time>2023-07-06T14:39:51Z</time>
      </trkpt>
      <trkpt lat="44.11435" lon="1.20934">
        <ele>114.2</ele>
        <time>2023-07-06T14:39:54Z</time>
      </trkpt>
      <trkpt lat="44.11435" lon="1.20941">
        <ele>114</ele>
        <time>2023-07-06T14:39:59Z</time>
      </trkpt>
      <trkpt lat="44.11438" lon="1.20956">
        <ele>114</ele>
        <time>2023-07-06T14:40:08Z</time>
      </trkpt>
      <trkpt lat="44.11439" lon="1.20962">
        <ele>114</ele>
        <time>2023-07-06T14:40:12Z</time>
      </trkpt>
      <trkpt lat="44.11441" lon="1.20967">
        <ele>114</ele>
        <time>2023-07-06T14:40:16Z</time>
      </trkpt>
      <trkpt lat="44.11443" lon="1.20973">
        <ele>114.2</ele>
        <time>2023-07-06T14:40:19Z</time>
      </trkpt>
      <trkpt lat="44.11445" lon="1.20983">
        <ele>114.2</ele>
        <time>2023-07-06T14:40:25Z</time>
      </trkpt>
      <trkpt lat="44.11448" lon="1.20996">
        <ele>114</ele>
        <time>2023-07-06T14:40:32Z</time>
      </trkpt>
      <trkpt lat="44.1145" lon="1.21004">
        <ele>114.2</ele>
        <time>2023-07-06T14:40:37Z</time>
      </trkpt>
      <trkpt lat="44.1145" lon="1.21007">
        <ele>114.2</ele>
        <time>2023-07-06T14:40:39Z</time>
      </trkpt>
      <trkpt lat="44.11452" lon="1.21013">
        <ele>114.4</ele>
        <time>2023-07-06T14:40:43Z</time>
      </trkpt>
      <trkpt lat="44.11453" lon="1.21021">
        <ele>114.4</ele>
        <time>2023-07-06T14:40:48Z</time>
      </trkpt>
      <trkpt lat="44.11458" lon="1.21034">
        <ele>114.6</ele>
        <time>2023-07-06T14:40:57Z</time>
      </trkpt>
      <trkpt lat="44.11462" lon="1.21043">
        <ele>114.6</ele>
        <time>2023-07-06T14:41:05Z</time>
      </trkpt>
      <trkpt lat="44.11467" lon="1.21057">
        <ele>114.8</ele>
        <time>2023-07-06T14:41:14Z</time>
      </trkpt>
      <trkpt lat="44.1147" lon="1.21064">
        <ele>115</ele>
        <time>2023-07-06T14:41:18Z</time>
      </trkpt>
      <trkpt lat="44.11472" lon="1.21068">
        <ele>114.8</ele>
        <time>2023-07-06T14:41:21Z</time>
      </trkpt>
      <trkpt lat="44.11476" lon="1.21083">
        <ele>115.2</ele>
        <time>2023-07-06T14:41:30Z</time>
      </trkpt>
      <trkpt lat="44.11481" lon="1.21091">
        <ele>115.2</ele>
        <time>2023-07-06T14:41:37Z</time>
      </trkpt>
      <trkpt lat="44.11481" lon="1.21091">
        <ele>115.4</ele>
        <time>2023-07-06T14:41:40Z</time>
      </trkpt>
      <trkpt lat="44.1148" lon="1.21095">
        <ele>115.4</ele>
        <time>2023-07-06T14:41:43Z</time>
      </trkpt>
      <trkpt lat="44.11483" lon="1.2111">
        <ele>116</ele>
        <time>2023-07-06T14:41:53Z</time>
      </trkpt>
      <trkpt lat="44.11483" lon="1.21111">
        <ele>116</ele>
        <time>2023-07-06T14:41:54Z</time>
      </trkpt>
      <trkpt lat="44.11489" lon="1.21123">
        <ele>116.2</ele>
        <time>2023-07-06T14:42:01Z</time>
      </trkpt>
      <trkpt lat="44.11492" lon="1.21127">
        <ele>116.2</ele>
        <time>2023-07-06T14:42:03Z</time>
      </trkpt>
      <trkpt lat="44.11499" lon="1.21141">
        <ele>116.2</ele>
        <time>2023-07-06T14:42:12Z</time>
      </trkpt>
      <trkpt lat="44.115" lon="1.21148">
        <ele>116.2</ele>
        <time>2023-07-06T14:42:18Z</time>
      </trkpt>
      <trkpt lat="44.115" lon="1.21149">
        <ele>116.2</ele>
        <time>2023-07-06T14:42:19Z</time>
      </trkpt>
      <trkpt lat="44.11503" lon="1.21156">
        <ele>116.2</ele>
        <time>2023-07-06T14:42:24Z</time>
      </trkpt>
      <trkpt lat="44.11505" lon="1.21161">
        <ele>116.4</ele>
        <time>2023-07-06T14:42:27Z</time>
      </trkpt>
      <trkpt lat="44.11505" lon="1.21167">
        <ele>116.4</ele>
        <time>2023-07-06T14:42:30Z</time>
      </trkpt>
      <trkpt lat="44.11509" lon="1.21176">
        <ele>116.6</ele>
        <time>2023-07-06T14:42:36Z</time>
      </trkpt>
      <trkpt lat="44.11514" lon="1.21187">
        <ele>116.4</ele>
        <time>2023-07-06T14:42:43Z</time>
      </trkpt>
      <trkpt lat="44.11514" lon="1.21188">
        <ele>116.4</ele>
        <time>2023-07-06T14:42:44Z</time>
      </trkpt>
      <trkpt lat="44.11516" lon="1.21199">
        <ele>116.6</ele>
        <time>2023-07-06T14:42:51Z</time>
      </trkpt>
      <trkpt lat="44.11519" lon="1.21206">
        <ele>116.4</ele>
        <time>2023-07-06T14:42:55Z</time>
      </trkpt>
      <trkpt lat="44.11519" lon="1.21209">
        <ele>116.6</ele>
        <time>2023-07-06T14:42:57Z</time>
      </trkpt>
      <trkpt lat="44.11522" lon="1.21214">
        <ele>116.6</ele>
        <time>2023-07-06T14:43:01Z</time>
      </trkpt>
      <trkpt lat="44.11526" lon="1.21223">
        <ele>116.4</ele>
        <time>2023-07-06T14:43:07Z</time>
      </trkpt>
      <trkpt lat="44.11529" lon="1.21235">
        <ele>117</ele>
        <time>2023-07-06T14:43:14Z</time>
      </trkpt>
      <trkpt lat="44.11533" lon="1.21245">
        <ele>117</ele>
        <time>2023-07-06T14:43:21Z</time>
      </trkpt>
      <trkpt lat="44.11534" lon="1.21246">
        <ele>117.2</ele>
        <time>2023-07-06T14:43:22Z</time>
      </trkpt>
      <trkpt lat="44.11535" lon="1.21247">
        <ele>117.2</ele>
        <time>2023-07-06T14:43:23Z</time>
      </trkpt>
      <trkpt lat="44.11541" lon="1.21257">
        <ele>117.8</ele>
        <time>2023-07-06T14:43:31Z</time>
      </trkpt>
      <trkpt lat="44.11546" lon="1.21265">
        <ele>118.2</ele>
        <time>2023-07-06T14:43:38Z</time>
      </trkpt>
      <trkpt lat="44.11547" lon="1.21266">
        <ele>118.2</ele>
        <time>2023-07-06T14:43:39Z</time>
      </trkpt>
      <trkpt lat="44.11547" lon="1.21267">
        <ele>118.4</ele>
        <time>2023-07-06T14:43:40Z</time>
      </trkpt>
      <trkpt lat="44.1155" lon="1.21271">
        <ele>118.8</ele>
        <time>2023-07-06T14:43:43Z</time>
      </trkpt>
      <trkpt lat="44.11552" lon="1.21273">
        <ele>119</ele>
        <time>2023-07-06T14:43:45Z</time>
      </trkpt>
      <trkpt lat="44.11553" lon="1.21274">
        <ele>119.2</ele>
        <time>2023-07-06T14:43:47Z</time>
      </trkpt>
      <trkpt lat="44.11556" lon="1.21284">
        <ele>119.8</ele>
        <time>2023-07-06T14:43:54Z</time>
      </trkpt>
      <trkpt lat="44.11557" lon="1.21289">
        <ele>120.2</ele>
        <time>2023-07-06T14:43:57Z</time>
      </trkpt>
      <trkpt lat="44.11558" lon="1.21295">
        <ele>120.4</ele>
        <time>2023-07-06T14:44:01Z</time>
      </trkpt>
      <trkpt lat="44.11562" lon="1.21306">
        <ele>120.4</ele>
        <time>2023-07-06T14:44:08Z</time>
      </trkpt>
      <trkpt lat="44.11568" lon="1.21316">
        <ele>120.8</ele>
        <time>2023-07-06T14:44:15Z</time>
      </trkpt>
      <trkpt lat="44.11569" lon="1.2132">
        <ele>121</ele>
        <time>2023-07-06T14:44:17Z</time>
      </trkpt>
      <trkpt lat="44.1157" lon="1.21324">
        <ele>121.2</ele>
        <time>2023-07-06T14:44:20Z</time>
      </trkpt>
      <trkpt lat="44.11571" lon="1.21326">
        <ele>121.2</ele>
        <time>2023-07-06T14:44:21Z</time>
      </trkpt>
      <trkpt lat="44.11573" lon="1.2133">
        <ele>121.4</ele>
        <time>2023-07-06T14:44:24Z</time>
      </trkpt>
      <trkpt lat="44.11576" lon="1.21337">
        <ele>122</ele>
        <time>2023-07-06T14:44:29Z</time>
      </trkpt>
      <trkpt lat="44.11578" lon="1.21339">
        <ele>122.2</ele>
        <time>2023-07-06T14:44:32Z</time>
      </trkpt>
      <trkpt lat="44.1158" lon="1.21345">
        <ele>123</ele>
        <time>2023-07-06T14:44:37Z</time>
      </trkpt>
      <trkpt lat="44.11582" lon="1.2135">
        <ele>123</ele>
        <time>2023-07-06T14:44:40Z</time>
      </trkpt>
      <trkpt lat="44.11584" lon="1.21355">
        <ele>123.4</ele>
        <time>2023-07-06T14:44:44Z</time>
      </trkpt>
      <trkpt lat="44.11585" lon="1.21359">
        <ele>123.4</ele>
        <time>2023-07-06T14:44:47Z</time>
      </trkpt>
      <trkpt lat="44.11586" lon="1.21363">
        <ele>123.8</ele>
        <time>2023-07-06T14:44:50Z</time>
      </trkpt>
      <trkpt lat="44.11587" lon="1.21364">
        <ele>124</ele>
        <time>2023-07-06T14:44:51Z</time>
      </trkpt>
      <trkpt lat="44.11588" lon="1.21371">
        <ele>124.4</ele>
        <time>2023-07-06T14:44:56Z</time>
      </trkpt>
      <trkpt lat="44.11588" lon="1.21374">
        <ele>124.8</ele>
        <time>2023-07-06T14:44:58Z</time>
      </trkpt>
      <trkpt lat="44.1159" lon="1.21379">
        <ele>125.2</ele>
        <time>2023-07-06T14:45:02Z</time>
      </trkpt>
      <trkpt lat="44.11593" lon="1.21384">
        <ele>125.2</ele>
        <time>2023-07-06T14:45:07Z</time>
      </trkpt>
      <trkpt lat="44.11594" lon="1.21385">
        <ele>125.6</ele>
        <time>2023-07-06T14:45:08Z</time>
      </trkpt>
      <trkpt lat="44.11595" lon="1.21387">
        <ele>126</ele>
        <time>2023-07-06T14:45:10Z</time>
      </trkpt>
      <trkpt lat="44.11596" lon="1.2139">
        <ele>126.2</ele>
        <time>2023-07-06T14:45:13Z</time>
      </trkpt>
      <trkpt lat="44.11601" lon="1.21401">
        <ele>126.6</ele>
        <time>2023-07-06T14:45:20Z</time>
      </trkpt>
      <trkpt lat="44.11606" lon="1.21408">
        <ele>127.4</ele>
        <time>2023-07-06T14:45:26Z</time>
      </trkpt>
      <trkpt lat="44.11609" lon="1.21412">
        <ele>127.6</ele>
        <time>2023-07-06T14:45:30Z</time>
      </trkpt>
      <trkpt lat="44.1161" lon="1.21415">
        <ele>127.8</ele>
        <time>2023-07-06T14:45:32Z</time>
      </trkpt>
      <trkpt lat="44.1161" lon="1.21419">
        <ele>128.2</ele>
        <time>2023-07-06T14:45:35Z</time>
      </trkpt>
      <trkpt lat="44.11612" lon="1.21426">
        <ele>128.4</ele>
        <time>2023-07-06T14:45:39Z</time>
      </trkpt>
      <trkpt lat="44.11612" lon="1.21427">
        <ele>128.6</ele>
        <time>2023-07-06T14:45:40Z</time>
      </trkpt>
      <trkpt lat="44.11613" lon="1.21428">
        <ele>128.8</ele>
        <time>2023-07-06T14:45:42Z</time>
      </trkpt>
      <trkpt lat="44.11614" lon="1.2143">
        <ele>129</ele>
        <time>2023-07-06T14:45:44Z</time>
      </trkpt>
      <trkpt lat="44.11616" lon="1.21433">
        <ele>129.2</ele>
        <time>2023-07-06T14:45:47Z</time>
      </trkpt>
      <trkpt lat="44.11618" lon="1.21436">
        <ele>129.6</ele>
        <time>2023-07-06T14:45:50Z</time>
      </trkpt>
      <trkpt lat="44.11622" lon="1.21441">
        <ele>130</ele>
        <time>2023-07-06T14:45:54Z</time>
      </trkpt>
      <trkpt lat="44.11628" lon="1.21447">
        <ele>131</ele>
        <time>2023-07-06T14:45:59Z</time>
      </trkpt>
      <trkpt lat="44.11629" lon="1.21448">
        <ele>131</ele>
        <time>2023-07-06T14:46:00Z</time>
      </trkpt>
      <trkpt lat="44.11633" lon="1.21455">
        <ele>131.4</ele>
        <time>2023-07-06T14:46:06Z</time>
      </trkpt>
      <trkpt lat="44.11634" lon="1.21461">
        <ele>131.6</ele>
        <time>2023-07-06T14:46:11Z</time>
      </trkpt>
      <trkpt lat="44.11635" lon="1.21464">
        <ele>131.8</ele>
        <time>2023-07-06T14:46:13Z</time>
      </trkpt>
      <trkpt lat="44.11637" lon="1.21468">
        <ele>132</ele>
        <time>2023-07-06T14:46:16Z</time>
      </trkpt>
      <trkpt lat="44.1164" lon="1.21472">
        <ele>132.4</ele>
        <time>2023-07-06T14:46:19Z</time>
      </trkpt>
      <trkpt lat="44.11642" lon="1.21475">
        <ele>132.4</ele>
        <time>2023-07-06T14:46:22Z</time>
      </trkpt>
      <trkpt lat="44.11646" lon="1.21481">
        <ele>133.2</ele>
        <time>2023-07-06T14:46:27Z</time>
      </trkpt>
      <trkpt lat="44.11646" lon="1.21486">
        <ele>133.6</ele>
        <time>2023-07-06T14:46:30Z</time>
      </trkpt>
      <trkpt lat="44.1165" lon="1.21496">
        <ele>133.6</ele>
        <time>2023-07-06T14:46:37Z</time>
      </trkpt>
      <trkpt lat="44.11655" lon="1.21512">
        <ele>133.8</ele>
        <time>2023-07-06T14:46:46Z</time>
      </trkpt>
      <trkpt lat="44.11655" lon="1.21514">
        <ele>133.8</ele>
        <time>2023-07-06T14:46:47Z</time>
      </trkpt>
      <trkpt lat="44.11657" lon="1.21522">
        <ele>134</ele>
        <time>2023-07-06T14:46:52Z</time>
      </trkpt>
      <trkpt lat="44.11659" lon="1.21525">
        <ele>134.2</ele>
        <time>2023-07-06T14:46:54Z</time>
      </trkpt>
      <trkpt lat="44.11659" lon="1.21528">
        <ele>134.4</ele>
        <time>2023-07-06T14:46:56Z</time>
      </trkpt>
      <trkpt lat="44.11663" lon="1.21542">
        <ele>135</ele>
        <time>2023-07-06T14:47:05Z</time>
      </trkpt>
      <trkpt lat="44.11664" lon="1.21553">
        <ele>135</ele>
        <time>2023-07-06T14:47:12Z</time>
      </trkpt>
      <trkpt lat="44.11664" lon="1.21555">
        <ele>135.2</ele>
        <time>2023-07-06T14:47:13Z</time>
      </trkpt>
      <trkpt lat="44.11666" lon="1.21568">
        <ele>135.6</ele>
        <time>2023-07-06T14:47:21Z</time>
      </trkpt>
      <trkpt lat="44.1167" lon="1.2158">
        <ele>135.8</ele>
        <time>2023-07-06T14:47:28Z</time>
      </trkpt>
      <trkpt lat="44.1167" lon="1.21584">
        <ele>136</ele>
        <time>2023-07-06T14:47:31Z</time>
      </trkpt>
      <trkpt lat="44.1167" lon="1.21589">
        <ele>136</ele>
        <time>2023-07-06T14:47:35Z</time>
      </trkpt>
      <trkpt lat="44.11671" lon="1.21592">
        <ele>136.2</ele>
        <time>2023-07-06T14:47:37Z</time>
      </trkpt>
      <trkpt lat="44.11673" lon="1.21594">
        <ele>136.2</ele>
        <time>2023-07-06T14:47:39Z</time>
      </trkpt>
      <trkpt lat="44.11676" lon="1.21599">
        <ele>136.6</ele>
        <time>2023-07-06T14:47:42Z</time>
      </trkpt>
      <trkpt lat="44.11678" lon="1.21603">
        <ele>136.8</ele>
        <time>2023-07-06T14:47:45Z</time>
      </trkpt>
      <trkpt lat="44.1168" lon="1.21604">
        <ele>136.8</ele>
        <time>2023-07-06T14:47:46Z</time>
      </trkpt>
      <trkpt lat="44.11683" lon="1.21607">
        <ele>137.4</ele>
        <time>2023-07-06T14:47:50Z</time>
      </trkpt>
      <trkpt lat="44.11686" lon="1.21611">
        <ele>137.8</ele>
        <time>2023-07-06T14:47:55Z</time>
      </trkpt>
      <trkpt lat="44.11688" lon="1.21612">
        <ele>138</ele>
        <time>2023-07-06T14:47:57Z</time>
      </trkpt>
      <trkpt lat="44.11688" lon="1.21613">
        <ele>138</ele>
        <time>2023-07-06T14:47:58Z</time>
      </trkpt>
      <trkpt lat="44.11693" lon="1.21615">
        <ele>138.4</ele>
        <time>2023-07-06T14:48:02Z</time>
      </trkpt>
      <trkpt lat="44.11696" lon="1.21617">
        <ele>138.4</ele>
        <time>2023-07-06T14:48:04Z</time>
      </trkpt>
      <trkpt lat="44.11698" lon="1.21617">
        <ele>138.4</ele>
        <time>2023-07-06T14:48:05Z</time>
      </trkpt>
      <trkpt lat="44.11704" lon="1.2162">
        <ele>138.6</ele>
        <time>2023-07-06T14:48:12Z</time>
      </trkpt>
      <trkpt lat="44.11707" lon="1.21622">
        <ele>139</ele>
        <time>2023-07-06T14:48:17Z</time>
      </trkpt>
      <trkpt lat="44.11709" lon="1.21621">
        <ele>139</ele>
        <time>2023-07-06T14:48:19Z</time>
      </trkpt>
      <trkpt lat="44.1171" lon="1.21622">
        <ele>139</ele>
        <time>2023-07-06T14:48:20Z</time>
      </trkpt>
      <trkpt lat="44.11712" lon="1.21624">
        <ele>139.2</ele>
        <time>2023-07-06T14:48:22Z</time>
      </trkpt>
      <trkpt lat="44.11713" lon="1.21625">
        <ele>139.2</ele>
        <time>2023-07-06T14:48:24Z</time>
      </trkpt>
      <trkpt lat="44.11714" lon="1.21626">
        <ele>139.2</ele>
        <time>2023-07-06T14:48:25Z</time>
      </trkpt>
      <trkpt lat="44.11724" lon="1.21638">
        <ele>139.2</ele>
        <time>2023-07-06T14:48:34Z</time>
      </trkpt>
      <trkpt lat="44.11735" lon="1.21646">
        <ele>139</ele>
        <time>2023-07-06T14:48:41Z</time>
      </trkpt>
      <trkpt lat="44.11736" lon="1.21647">
        <ele>139</ele>
        <time>2023-07-06T14:48:42Z</time>
      </trkpt>
      <trkpt lat="44.11742" lon="1.21656">
        <ele>139.4</ele>
        <time>2023-07-06T14:48:49Z</time>
      </trkpt>
      <trkpt lat="44.11749" lon="1.21669">
        <ele>139.8</ele>
        <time>2023-07-06T14:48:59Z</time>
      </trkpt>
      <trkpt lat="44.11754" lon="1.21678">
        <ele>139.8</ele>
        <time>2023-07-06T14:49:05Z</time>
      </trkpt>
      <trkpt lat="44.11755" lon="1.21681">
        <ele>139.8</ele>
        <time>2023-07-06T14:49:07Z</time>
      </trkpt>
      <trkpt lat="44.11761" lon="1.21689">
        <ele>140</ele>
        <time>2023-07-06T14:49:16Z</time>
      </trkpt>
      <trkpt lat="44.11762" lon="1.21689">
        <ele>140</ele>
        <time>2023-07-06T14:49:17Z</time>
      </trkpt>
      <trkpt lat="44.1177" lon="1.21693">
        <ele>140.4</ele>
        <time>2023-07-06T14:49:23Z</time>
      </trkpt>
      <trkpt lat="44.11772" lon="1.21694">
        <ele>140.4</ele>
        <time>2023-07-06T14:49:26Z</time>
      </trkpt>
      <trkpt lat="44.11775" lon="1.21699">
        <ele>141.4</ele>
        <time>2023-07-06T14:49:32Z</time>
      </trkpt>
      <trkpt lat="44.11776" lon="1.21699">
        <ele>141.4</ele>
        <time>2023-07-06T14:49:34Z</time>
      </trkpt>
      <trkpt lat="44.11779" lon="1.21707">
        <ele>141.6</ele>
        <time>2023-07-06T14:49:40Z</time>
      </trkpt>
      <trkpt lat="44.11779" lon="1.21708">
        <ele>141.6</ele>
        <time>2023-07-06T14:49:41Z</time>
      </trkpt>
      <trkpt lat="44.11779" lon="1.2171">
        <ele>141.6</ele>
        <time>2023-07-06T14:49:42Z</time>
      </trkpt>
      <trkpt lat="44.11783" lon="1.21723">
        <ele>142</ele>
        <time>2023-07-06T14:49:50Z</time>
      </trkpt>
      <trkpt lat="44.11787" lon="1.21728">
        <ele>142.6</ele>
        <time>2023-07-06T14:49:54Z</time>
      </trkpt>
      <trkpt lat="44.1179" lon="1.21732">
        <ele>143.2</ele>
        <time>2023-07-06T14:49:58Z</time>
      </trkpt>
      <trkpt lat="44.11792" lon="1.21734">
        <ele>143.6</ele>
        <time>2023-07-06T14:50:01Z</time>
      </trkpt>
      <trkpt lat="44.11795" lon="1.21736">
        <ele>143.8</ele>
        <time>2023-07-06T14:50:05Z</time>
      </trkpt>
      <trkpt lat="44.11806" lon="1.21741">
        <ele>144.6</ele>
        <time>2023-07-06T14:50:13Z</time>
      </trkpt>
      <trkpt lat="44.11818" lon="1.21743">
        <ele>145.2</ele>
        <time>2023-07-06T14:50:20Z</time>
      </trkpt>
      <trkpt lat="44.11825" lon="1.21745">
        <ele>145.2</ele>
        <time>2023-07-06T14:50:25Z</time>
      </trkpt>
      <trkpt lat="44.11825" lon="1.21745">
        <ele>145.6</ele>
        <time>2023-07-06T14:50:29Z</time>
      </trkpt>
      <trkpt lat="44.11826" lon="1.21745">
        <ele>145.6</ele>
        <time>2023-07-06T14:50:30Z</time>
      </trkpt>
      <trkpt lat="44.11827" lon="1.21745">
        <ele>145.6</ele>
        <time>2023-07-06T14:50:31Z</time>
      </trkpt>
      <trkpt lat="44.11835" lon="1.21749">
        <ele>146</ele>
        <time>2023-07-06T14:50:38Z</time>
      </trkpt>
      <trkpt lat="44.11838" lon="1.21751">
        <ele>146.2</ele>
        <time>2023-07-06T14:50:41Z</time>
      </trkpt>
      <trkpt lat="44.11843" lon="1.21755">
        <ele>146.4</ele>
        <time>2023-07-06T14:50:45Z</time>
      </trkpt>
      <trkpt lat="44.11844" lon="1.21757">
        <ele>146.6</ele>
        <time>2023-07-06T14:50:47Z</time>
      </trkpt>
      <trkpt lat="44.11846" lon="1.21759">
        <ele>146.6</ele>
        <time>2023-07-06T14:50:48Z</time>
      </trkpt>
      <trkpt lat="44.1185" lon="1.21763">
        <ele>146.6</ele>
        <time>2023-07-06T14:50:52Z</time>
      </trkpt>
      <trkpt lat="44.11853" lon="1.21767">
        <ele>146.6</ele>
        <time>2023-07-06T14:50:55Z</time>
      </trkpt>
      <trkpt lat="44.11856" lon="1.21772">
        <ele>146.4</ele>
        <time>2023-07-06T14:50:58Z</time>
      </trkpt>
      <trkpt lat="44.11859" lon="1.21778">
        <ele>146.6</ele>
        <time>2023-07-06T14:51:03Z</time>
      </trkpt>
      <trkpt lat="44.11861" lon="1.21781">
        <ele>146.6</ele>
        <time>2023-07-06T14:51:05Z</time>
      </trkpt>
      <trkpt lat="44.11861" lon="1.21783">
        <ele>146.6</ele>
        <time>2023-07-06T14:51:06Z</time>
      </trkpt>
      <trkpt lat="44.11867" lon="1.21793">
        <ele>146.8</ele>
        <time>2023-07-06T14:51:13Z</time>
      </trkpt>
      <trkpt lat="44.11868" lon="1.21795">
        <ele>146.6</ele>
        <time>2023-07-06T14:51:14Z</time>
      </trkpt>
      <trkpt lat="44.11872" lon="1.21802">
        <ele>146.6</ele>
        <time>2023-07-06T14:51:20Z</time>
      </trkpt>
      <trkpt lat="44.11879" lon="1.21811">
        <ele>146</ele>
        <time>2023-07-06T14:51:27Z</time>
      </trkpt>
      <trkpt lat="44.1188" lon="1.21812">
        <ele>146</ele>
        <time>2023-07-06T14:51:28Z</time>
      </trkpt>
      <trkpt lat="44.11883" lon="1.21825">
        <ele>145.6</ele>
        <time>2023-07-06T14:51:35Z</time>
      </trkpt>
      <trkpt lat="44.11883" lon="1.21827">
        <ele>145.6</ele>
        <time>2023-07-06T14:51:36Z</time>
      </trkpt>
      <trkpt lat="44.11886" lon="1.21839">
        <ele>145.2</ele>
        <time>2023-07-06T14:51:43Z</time>
      </trkpt>
      <trkpt lat="44.11887" lon="1.21841">
        <ele>145</ele>
        <time>2023-07-06T14:51:44Z</time>
      </trkpt>
      <trkpt lat="44.1189" lon="1.21847">
        <ele>144.8</ele>
        <time>2023-07-06T14:51:48Z</time>
      </trkpt>
      <trkpt lat="44.11892" lon="1.21853">
        <ele>145</ele>
        <time>2023-07-06T14:51:52Z</time>
      </trkpt>
      <trkpt lat="44.11893" lon="1.21857">
        <ele>144.8</ele>
        <time>2023-07-06T14:51:56Z</time>
      </trkpt>
      <trkpt lat="44.11893" lon="1.21858">
        <ele>144.8</ele>
        <time>2023-07-06T14:51:58Z</time>
      </trkpt>
      <trkpt lat="44.11894" lon="1.2186">
        <ele>144.8</ele>
        <time>2023-07-06T14:51:59Z</time>
      </trkpt>
      <trkpt lat="44.11898" lon="1.21872">
        <ele>145</ele>
        <time>2023-07-06T14:52:07Z</time>
      </trkpt>
      <trkpt lat="44.11901" lon="1.2188">
        <ele>145.2</ele>
        <time>2023-07-06T14:52:13Z</time>
      </trkpt>
      <trkpt lat="44.11901" lon="1.21881">
        <ele>145.4</ele>
        <time>2023-07-06T14:52:14Z</time>
      </trkpt>
      <trkpt lat="44.11907" lon="1.21886">
        <ele>145.8</ele>
        <time>2023-07-06T14:52:21Z</time>
      </trkpt>
      <trkpt lat="44.1191" lon="1.2189">
        <ele>145.8</ele>
        <time>2023-07-06T14:52:24Z</time>
      </trkpt>
      <trkpt lat="44.11911" lon="1.2189">
        <ele>145.8</ele>
        <time>2023-07-06T14:52:25Z</time>
      </trkpt>
      <trkpt lat="44.11911" lon="1.21891">
        <ele>146</ele>
        <time>2023-07-06T14:52:26Z</time>
      </trkpt>
      <trkpt lat="44.11912" lon="1.21893">
        <ele>146</ele>
        <time>2023-07-06T14:52:27Z</time>
      </trkpt>
      <trkpt lat="44.11911" lon="1.21894">
        <ele>146</ele>
        <time>2023-07-06T14:52:28Z</time>
      </trkpt>
      <trkpt lat="44.11913" lon="1.21897">
        <ele>145.8</ele>
        <time>2023-07-06T14:52:30Z</time>
      </trkpt>
      <trkpt lat="44.11915" lon="1.21898">
        <ele>145.8</ele>
        <time>2023-07-06T14:52:31Z</time>
      </trkpt>
      <trkpt lat="44.11917" lon="1.21901">
        <ele>145.8</ele>
        <time>2023-07-06T14:52:33Z</time>
      </trkpt>
      <trkpt lat="44.11918" lon="1.21902">
        <ele>145.8</ele>
        <time>2023-07-06T14:52:34Z</time>
      </trkpt>
      <trkpt lat="44.11919" lon="1.21904">
        <ele>146</ele>
        <time>2023-07-06T14:52:35Z</time>
      </trkpt>
      <trkpt lat="44.1192" lon="1.21906">
        <ele>146</ele>
        <time>2023-07-06T14:52:37Z</time>
      </trkpt>
      <trkpt lat="44.11926" lon="1.21911">
        <ele>145.8</ele>
        <time>2023-07-06T14:52:43Z</time>
      </trkpt>
      <trkpt lat="44.1193" lon="1.21913">
        <ele>145.6</ele>
        <time>2023-07-06T14:52:46Z</time>
      </trkpt>
      <trkpt lat="44.11932" lon="1.21915">
        <ele>145.6</ele>
        <time>2023-07-06T14:52:48Z</time>
      </trkpt>
      <trkpt lat="44.11933" lon="1.21916">
        <ele>145.8</ele>
        <time>2023-07-06T14:52:49Z</time>
      </trkpt>
      <trkpt lat="44.11939" lon="1.21924">
        <ele>146.6</ele>
        <time>2023-07-06T14:52:56Z</time>
      </trkpt>
      <trkpt lat="44.11941" lon="1.21929">
        <ele>146.4</ele>
        <time>2023-07-06T14:53:00Z</time>
      </trkpt>
      <trkpt lat="44.11944" lon="1.21934">
        <ele>146</ele>
        <time>2023-07-06T14:53:03Z</time>
      </trkpt>
      <trkpt lat="44.11949" lon="1.21938">
        <ele>146.2</ele>
        <time>2023-07-06T14:53:07Z</time>
      </trkpt>
      <trkpt lat="44.11952" lon="1.21943">
        <ele>146.4</ele>
        <time>2023-07-06T14:53:11Z</time>
      </trkpt>
      <trkpt lat="44.11955" lon="1.21948">
        <ele>145.8</ele>
        <time>2023-07-06T14:53:15Z</time>
      </trkpt>
      <trkpt lat="44.11957" lon="1.2195">
        <ele>145.6</ele>
        <time>2023-07-06T14:53:18Z</time>
      </trkpt>
      <trkpt lat="44.1196" lon="1.21952">
        <ele>145.6</ele>
        <time>2023-07-06T14:53:22Z</time>
      </trkpt>
      <trkpt lat="44.11966" lon="1.21957">
        <ele>145.6</ele>
        <time>2023-07-06T14:53:27Z</time>
      </trkpt>
      <trkpt lat="44.11977" lon="1.21962">
        <ele>146</ele>
        <time>2023-07-06T14:53:35Z</time>
      </trkpt>
      <trkpt lat="44.11979" lon="1.21963">
        <ele>146</ele>
        <time>2023-07-06T14:53:37Z</time>
      </trkpt>
      <trkpt lat="44.11985" lon="1.21967">
        <ele>146</ele>
        <time>2023-07-06T14:53:42Z</time>
      </trkpt>
      <trkpt lat="44.11986" lon="1.21969">
        <ele>146</ele>
        <time>2023-07-06T14:53:43Z</time>
      </trkpt>
      <trkpt lat="44.11991" lon="1.21977">
        <ele>145.8</ele>
        <time>2023-07-06T14:53:49Z</time>
      </trkpt>
      <trkpt lat="44.11997" lon="1.21986">
        <ele>145.4</ele>
        <time>2023-07-06T14:53:56Z</time>
      </trkpt>
      <trkpt lat="44.11999" lon="1.21988">
        <ele>145.4</ele>
        <time>2023-07-06T14:53:58Z</time>
      </trkpt>
      <trkpt lat="44.12005" lon="1.21997">
        <ele>146.2</ele>
        <time>2023-07-06T14:54:05Z</time>
      </trkpt>
      <trkpt lat="44.12007" lon="1.22011">
        <ele>145.6</ele>
        <time>2023-07-06T14:54:12Z</time>
      </trkpt>
      <trkpt lat="44.12009" lon="1.22026">
        <ele>145.6</ele>
        <time>2023-07-06T14:54:19Z</time>
      </trkpt>
      <trkpt lat="44.1201" lon="1.22027">
        <ele>145.8</ele>
        <time>2023-07-06T14:54:20Z</time>
      </trkpt>
      <trkpt lat="44.12014" lon="1.22031">
        <ele>145.8</ele>
        <time>2023-07-06T14:54:23Z</time>
      </trkpt>
      <trkpt lat="44.12017" lon="1.22034">
        <ele>145.8</ele>
        <time>2023-07-06T14:54:25Z</time>
      </trkpt>
      <trkpt lat="44.12018" lon="1.22036">
        <ele>145.8</ele>
        <time>2023-07-06T14:54:26Z</time>
      </trkpt>
      <trkpt lat="44.12022" lon="1.22043">
        <ele>145.6</ele>
        <time>2023-07-06T14:54:30Z</time>
      </trkpt>
      <trkpt lat="44.12023" lon="1.22044">
        <ele>145.6</ele>
        <time>2023-07-06T14:54:31Z</time>
      </trkpt>
      <trkpt lat="44.12028" lon="1.22054">
        <ele>145</ele>
        <time>2023-07-06T14:54:38Z</time>
      </trkpt>
      <trkpt lat="44.1203" lon="1.22066">
        <ele>145</ele>
        <time>2023-07-06T14:54:46Z</time>
      </trkpt>
      <trkpt lat="44.12033" lon="1.22078">
        <ele>144.6</ele>
        <time>2023-07-06T14:54:52Z</time>
      </trkpt>
      <trkpt lat="44.12038" lon="1.22089">
        <ele>144.2</ele>
        <time>2023-07-06T14:54:59Z</time>
      </trkpt>
      <trkpt lat="44.12043" lon="1.22098">
        <ele>144.2</ele>
        <time>2023-07-06T14:55:05Z</time>
      </trkpt>
      <trkpt lat="44.12044" lon="1.22101">
        <ele>144.4</ele>
        <time>2023-07-06T14:55:07Z</time>
      </trkpt>
      <trkpt lat="44.12048" lon="1.22112">
        <ele>144.2</ele>
        <time>2023-07-06T14:55:14Z</time>
      </trkpt>
      <trkpt lat="44.1205" lon="1.22117">
        <ele>144</ele>
        <time>2023-07-06T14:55:17Z</time>
      </trkpt>
      <trkpt lat="44.12053" lon="1.22124">
        <ele>144.4</ele>
        <time>2023-07-06T14:55:22Z</time>
      </trkpt>
      <trkpt lat="44.12058" lon="1.22135">
        <ele>144</ele>
        <time>2023-07-06T14:55:30Z</time>
      </trkpt>
      <trkpt lat="44.12062" lon="1.22145">
        <ele>143.8</ele>
        <time>2023-07-06T14:55:37Z</time>
      </trkpt>
      <trkpt lat="44.12068" lon="1.22155">
        <ele>144.2</ele>
        <time>2023-07-06T14:55:44Z</time>
      </trkpt>
      <trkpt lat="44.12069" lon="1.22156">
        <ele>144.2</ele>
        <time>2023-07-06T14:55:45Z</time>
      </trkpt>
      <trkpt lat="44.12071" lon="1.22159">
        <ele>144.4</ele>
        <time>2023-07-06T14:55:48Z</time>
      </trkpt>
      <trkpt lat="44.12073" lon="1.22164">
        <ele>144.2</ele>
        <time>2023-07-06T14:55:51Z</time>
      </trkpt>
      <trkpt lat="44.12079" lon="1.22175">
        <ele>144.2</ele>
        <time>2023-07-06T14:55:59Z</time>
      </trkpt>
      <trkpt lat="44.12087" lon="1.22184">
        <ele>144.4</ele>
        <time>2023-07-06T14:56:05Z</time>
      </trkpt>
      <trkpt lat="44.12091" lon="1.22195">
        <ele>145.4</ele>
        <time>2023-07-06T14:56:13Z</time>
      </trkpt>
      <trkpt lat="44.12093" lon="1.222">
        <ele>145.6</ele>
        <time>2023-07-06T14:56:16Z</time>
      </trkpt>
      <trkpt lat="44.12095" lon="1.22203">
        <ele>145.8</ele>
        <time>2023-07-06T14:56:19Z</time>
      </trkpt>
      <trkpt lat="44.12095" lon="1.22204">
        <ele>145.8</ele>
        <time>2023-07-06T14:56:20Z</time>
      </trkpt>
      <trkpt lat="44.12097" lon="1.2221">
        <ele>145.6</ele>
        <time>2023-07-06T14:56:25Z</time>
      </trkpt>
      <trkpt lat="44.12098" lon="1.22211">
        <ele>145.6</ele>
        <time>2023-07-06T14:56:26Z</time>
      </trkpt>
      <trkpt lat="44.12098" lon="1.22214">
        <ele>145.8</ele>
        <time>2023-07-06T14:56:28Z</time>
      </trkpt>
      <trkpt lat="44.12101" lon="1.22218">
        <ele>146.2</ele>
        <time>2023-07-06T14:56:31Z</time>
      </trkpt>
      <trkpt lat="44.12102" lon="1.22222">
        <ele>146.2</ele>
        <time>2023-07-06T14:56:34Z</time>
      </trkpt>
      <trkpt lat="44.12105" lon="1.22232">
        <ele>146.2</ele>
        <time>2023-07-06T14:56:40Z</time>
      </trkpt>
      <trkpt lat="44.12106" lon="1.22234">
        <ele>146.6</ele>
        <time>2023-07-06T14:56:42Z</time>
      </trkpt>
      <trkpt lat="44.12112" lon="1.22241">
        <ele>147</ele>
        <time>2023-07-06T14:56:48Z</time>
      </trkpt>
      <trkpt lat="44.12114" lon="1.2225">
        <ele>147.4</ele>
        <time>2023-07-06T14:56:53Z</time>
      </trkpt>
      <trkpt lat="44.12115" lon="1.22252">
        <ele>147.4</ele>
        <time>2023-07-06T14:56:55Z</time>
      </trkpt>
      <trkpt lat="44.12118" lon="1.22256">
        <ele>147.4</ele>
        <time>2023-07-06T14:56:58Z</time>
      </trkpt>
      <trkpt lat="44.12122" lon="1.2226">
        <ele>147.4</ele>
        <time>2023-07-06T14:57:01Z</time>
      </trkpt>
      <trkpt lat="44.1213" lon="1.22264">
        <ele>147.8</ele>
        <time>2023-07-06T14:57:09Z</time>
      </trkpt>
      <trkpt lat="44.12133" lon="1.22266">
        <ele>148.2</ele>
        <time>2023-07-06T14:57:12Z</time>
      </trkpt>
      <trkpt lat="44.12135" lon="1.22272">
        <ele>148.2</ele>
        <time>2023-07-06T14:57:16Z</time>
      </trkpt>
      <trkpt lat="44.12137" lon="1.22274">
        <ele>148.6</ele>
        <time>2023-07-06T14:57:19Z</time>
      </trkpt>
      <trkpt lat="44.1214" lon="1.22277">
        <ele>148.8</ele>
        <time>2023-07-06T14:57:22Z</time>
      </trkpt>
      <trkpt lat="44.1214" lon="1.22278">
        <ele>148.8</ele>
        <time>2023-07-06T14:57:23Z</time>
      </trkpt>
      <trkpt lat="44.1214" lon="1.22279">
        <ele>148.8</ele>
        <time>2023-07-06T14:57:24Z</time>
      </trkpt>
      <trkpt lat="44.12142" lon="1.2228">
        <ele>149.2</ele>
        <time>2023-07-06T14:57:26Z</time>
      </trkpt>
      <trkpt lat="44.12147" lon="1.22286">
        <ele>149.8</ele>
        <time>2023-07-06T14:57:30Z</time>
      </trkpt>
      <trkpt lat="44.12147" lon="1.22289">
        <ele>149.8</ele>
        <time>2023-07-06T14:57:31Z</time>
      </trkpt>
      <trkpt lat="44.12151" lon="1.22296">
        <ele>149.8</ele>
        <time>2023-07-06T14:57:37Z</time>
      </trkpt>
      <trkpt lat="44.12153" lon="1.223">
        <ele>149.6</ele>
        <time>2023-07-06T14:57:39Z</time>
      </trkpt>
      <trkpt lat="44.12155" lon="1.22306">
        <ele>149.6</ele>
        <time>2023-07-06T14:57:43Z</time>
      </trkpt>
      <trkpt lat="44.12159" lon="1.22313">
        <ele>150.2</ele>
        <time>2023-07-06T14:57:48Z</time>
      </trkpt>
      <trkpt lat="44.12159" lon="1.22315">
        <ele>150.2</ele>
        <time>2023-07-06T14:57:49Z</time>
      </trkpt>
      <trkpt lat="44.12163" lon="1.22318">
        <ele>150.2</ele>
        <time>2023-07-06T14:57:52Z</time>
      </trkpt>
      <trkpt lat="44.12166" lon="1.2232">
        <ele>150.2</ele>
        <time>2023-07-06T14:57:54Z</time>
      </trkpt>
      <trkpt lat="44.12166" lon="1.22321">
        <ele>150.2</ele>
        <time>2023-07-06T14:57:55Z</time>
      </trkpt>
      <trkpt lat="44.12167" lon="1.22323">
        <ele>150.4</ele>
        <time>2023-07-06T14:57:57Z</time>
      </trkpt>
      <trkpt lat="44.12168" lon="1.22326">
        <ele>150.4</ele>
        <time>2023-07-06T14:57:59Z</time>
      </trkpt>
      <trkpt lat="44.1217" lon="1.22329">
        <ele>150.6</ele>
        <time>2023-07-06T14:58:02Z</time>
      </trkpt>
      <trkpt lat="44.12171" lon="1.22333">
        <ele>151</ele>
        <time>2023-07-06T14:58:04Z</time>
      </trkpt>
      <trkpt lat="44.12173" lon="1.22337">
        <ele>151</ele>
        <time>2023-07-06T14:58:06Z</time>
      </trkpt>
      <trkpt lat="44.12174" lon="1.22339">
        <ele>151</ele>
        <time>2023-07-06T14:58:07Z</time>
      </trkpt>
      <trkpt lat="44.12175" lon="1.2234">
        <ele>151</ele>
        <time>2023-07-06T14:58:08Z</time>
      </trkpt>
      <trkpt lat="44.12178" lon="1.22349">
        <ele>151.2</ele>
        <time>2023-07-06T14:58:13Z</time>
      </trkpt>
      <trkpt lat="44.12178" lon="1.2235">
        <ele>151.2</ele>
        <time>2023-07-06T14:58:14Z</time>
      </trkpt>
      <trkpt lat="44.12183" lon="1.2236">
        <ele>151.6</ele>
        <time>2023-07-06T14:58:21Z</time>
      </trkpt>
      <trkpt lat="44.12185" lon="1.22365">
        <ele>151.6</ele>
        <time>2023-07-06T14:58:25Z</time>
      </trkpt>
      <trkpt lat="44.12187" lon="1.22368">
        <ele>151.6</ele>
        <time>2023-07-06T14:58:27Z</time>
      </trkpt>
      <trkpt lat="44.12187" lon="1.22369">
        <ele>151.6</ele>
        <time>2023-07-06T14:58:28Z</time>
      </trkpt>
      <trkpt lat="44.12187" lon="1.22385">
        <ele>152</ele>
        <time>2023-07-06T14:58:36Z</time>
      </trkpt>
      <trkpt lat="44.12186" lon="1.22388">
        <ele>152.2</ele>
        <time>2023-07-06T14:58:38Z</time>
      </trkpt>
      <trkpt lat="44.12186" lon="1.22391">
        <ele>152.2</ele>
        <time>2023-07-06T14:58:40Z</time>
      </trkpt>
      <trkpt lat="44.12187" lon="1.22397">
        <ele>152.4</ele>
        <time>2023-07-06T14:58:44Z</time>
      </trkpt>
      <trkpt lat="44.12187" lon="1.22399">
        <ele>152.6</ele>
        <time>2023-07-06T14:58:45Z</time>
      </trkpt>
      <trkpt lat="44.12188" lon="1.2241">
        <ele>152.8</ele>
        <time>2023-07-06T14:58:52Z</time>
      </trkpt>
      <trkpt lat="44.12187" lon="1.22414">
        <ele>153</ele>
        <time>2023-07-06T14:58:54Z</time>
      </trkpt>
      <trkpt lat="44.12187" lon="1.22416">
        <ele>153.2</ele>
        <time>2023-07-06T14:58:55Z</time>
      </trkpt>
      <trkpt lat="44.12187" lon="1.22421">
        <ele>153.2</ele>
        <time>2023-07-06T14:58:58Z</time>
      </trkpt>
      <trkpt lat="44.12188" lon="1.22436">
        <ele>154</ele>
        <time>2023-07-06T14:59:07Z</time>
      </trkpt>
      <trkpt lat="44.12189" lon="1.22447">
        <ele>154.2</ele>
        <time>2023-07-06T14:59:14Z</time>
      </trkpt>
      <trkpt lat="44.12189" lon="1.22449">
        <ele>154.4</ele>
        <time>2023-07-06T14:59:15Z</time>
      </trkpt>
      <trkpt lat="44.12189" lon="1.2246">
        <ele>154.8</ele>
        <time>2023-07-06T14:59:23Z</time>
      </trkpt>
      <trkpt lat="44.1219" lon="1.22467">
        <ele>154.8</ele>
        <time>2023-07-06T14:59:27Z</time>
      </trkpt>
      <trkpt lat="44.1219" lon="1.22471">
        <ele>154.8</ele>
        <time>2023-07-06T14:59:30Z</time>
      </trkpt>
      <trkpt lat="44.12191" lon="1.22473">
        <ele>154.8</ele>
        <time>2023-07-06T14:59:31Z</time>
      </trkpt>
      <trkpt lat="44.12194" lon="1.22481">
        <ele>155.2</ele>
        <time>2023-07-06T14:59:34Z</time>
      </trkpt>
      <trkpt lat="44.12195" lon="1.22482">
        <ele>155.2</ele>
        <time>2023-07-06T14:59:35Z</time>
      </trkpt>
      <trkpt lat="44.12195" lon="1.22486">
        <ele>155.4</ele>
        <time>2023-07-06T14:59:37Z</time>
      </trkpt>
      <trkpt lat="44.12196" lon="1.22495">
        <ele>156</ele>
        <time>2023-07-06T14:59:43Z</time>
      </trkpt>
      <trkpt lat="44.12199" lon="1.22503">
        <ele>156</ele>
        <time>2023-07-06T14:59:49Z</time>
      </trkpt>
      <trkpt lat="44.122" lon="1.22506">
        <ele>156.2</ele>
        <time>2023-07-06T14:59:51Z</time>
      </trkpt>
      <trkpt lat="44.122" lon="1.2251">
        <ele>156.4</ele>
        <time>2023-07-06T14:59:53Z</time>
      </trkpt>
      <trkpt lat="44.122" lon="1.22514">
        <ele>156.6</ele>
        <time>2023-07-06T14:59:55Z</time>
      </trkpt>
      <trkpt lat="44.12203" lon="1.22519">
        <ele>157</ele>
        <time>2023-07-06T14:59:59Z</time>
      </trkpt>
      <trkpt lat="44.12204" lon="1.22526">
        <ele>157.6</ele>
        <time>2023-07-06T15:00:03Z</time>
      </trkpt>
      <trkpt lat="44.12207" lon="1.22531">
        <ele>158</ele>
        <time>2023-07-06T15:00:07Z</time>
      </trkpt>
      <trkpt lat="44.12211" lon="1.22538">
        <ele>158.2</ele>
        <time>2023-07-06T15:00:14Z</time>
      </trkpt>
      <trkpt lat="44.12211" lon="1.22538">
        <ele>158.2</ele>
        <time>2023-07-06T15:00:15Z</time>
      </trkpt>
      <trkpt lat="44.12212" lon="1.2254">
        <ele>158.6</ele>
        <time>2023-07-06T15:00:18Z</time>
      </trkpt>
      <trkpt lat="44.12214" lon="1.22542">
        <ele>158.8</ele>
        <time>2023-07-06T15:00:20Z</time>
      </trkpt>
      <trkpt lat="44.12214" lon="1.22543">
        <ele>158.8</ele>
        <time>2023-07-06T15:00:21Z</time>
      </trkpt>
      <trkpt lat="44.12215" lon="1.22544">
        <ele>159</ele>
        <time>2023-07-06T15:00:22Z</time>
      </trkpt>
      <trkpt lat="44.12217" lon="1.22549">
        <ele>159.6</ele>
        <time>2023-07-06T15:00:28Z</time>
      </trkpt>
      <trkpt lat="44.12218" lon="1.2255">
        <ele>159.6</ele>
        <time>2023-07-06T15:00:29Z</time>
      </trkpt>
      <trkpt lat="44.12221" lon="1.22558">
        <ele>160</ele>
        <time>2023-07-06T15:00:35Z</time>
      </trkpt>
      <trkpt lat="44.12221" lon="1.22559">
        <ele>160</ele>
        <time>2023-07-06T15:00:36Z</time>
      </trkpt>
      <trkpt lat="44.12223" lon="1.22563">
        <ele>160.2</ele>
        <time>2023-07-06T15:00:39Z</time>
      </trkpt>
      <trkpt lat="44.12225" lon="1.22567">
        <ele>160.2</ele>
        <time>2023-07-06T15:00:42Z</time>
      </trkpt>
      <trkpt lat="44.12227" lon="1.22575">
        <ele>160.8</ele>
        <time>2023-07-06T15:00:46Z</time>
      </trkpt>
      <trkpt lat="44.12227" lon="1.22585">
        <ele>161</ele>
        <time>2023-07-06T15:00:51Z</time>
      </trkpt>
      <trkpt lat="44.12228" lon="1.22594">
        <ele>162</ele>
        <time>2023-07-06T15:00:55Z</time>
      </trkpt>
      <trkpt lat="44.12228" lon="1.22598">
        <ele>162.2</ele>
        <time>2023-07-06T15:00:57Z</time>
      </trkpt>
      <trkpt lat="44.12228" lon="1.226">
        <ele>162.2</ele>
        <time>2023-07-06T15:00:58Z</time>
      </trkpt>
      <trkpt lat="44.12233" lon="1.22609">
        <ele>162.4</ele>
        <time>2023-07-06T15:01:04Z</time>
      </trkpt>
      <trkpt lat="44.12233" lon="1.22611">
        <ele>162.6</ele>
        <time>2023-07-06T15:01:05Z</time>
      </trkpt>
      <trkpt lat="44.12234" lon="1.22618">
        <ele>163</ele>
        <time>2023-07-06T15:01:09Z</time>
      </trkpt>
      <trkpt lat="44.12236" lon="1.22621">
        <ele>163.2</ele>
        <time>2023-07-06T15:01:11Z</time>
      </trkpt>
      <trkpt lat="44.12238" lon="1.22624">
        <ele>163.2</ele>
        <time>2023-07-06T15:01:14Z</time>
      </trkpt>
      <trkpt lat="44.12239" lon="1.22628">
        <ele>163.6</ele>
        <time>2023-07-06T15:01:17Z</time>
      </trkpt>
      <trkpt lat="44.1224" lon="1.22635">
        <ele>164.2</ele>
        <time>2023-07-06T15:01:21Z</time>
      </trkpt>
      <trkpt lat="44.12241" lon="1.22638">
        <ele>164.4</ele>
        <time>2023-07-06T15:01:23Z</time>
      </trkpt>
      <trkpt lat="44.12242" lon="1.2264">
        <ele>164.4</ele>
        <time>2023-07-06T15:01:24Z</time>
      </trkpt>
      <trkpt lat="44.12243" lon="1.22641">
        <ele>164.4</ele>
        <time>2023-07-06T15:01:25Z</time>
      </trkpt>
      <trkpt lat="44.1225" lon="1.22649">
        <ele>165</ele>
        <time>2023-07-06T15:01:33Z</time>
      </trkpt>
      <trkpt lat="44.12251" lon="1.2265">
        <ele>165.2</ele>
        <time>2023-07-06T15:01:34Z</time>
      </trkpt>
      <trkpt lat="44.12257" lon="1.22655">
        <ele>165.8</ele>
        <time>2023-07-06T15:01:40Z</time>
      </trkpt>
      <trkpt lat="44.1226" lon="1.22656">
        <ele>166.4</ele>
        <time>2023-07-06T15:01:43Z</time>
      </trkpt>
      <trkpt lat="44.12261" lon="1.22657">
        <ele>166.4</ele>
        <time>2023-07-06T15:01:44Z</time>
      </trkpt>
      <trkpt lat="44.12262" lon="1.2266">
        <ele>166.6</ele>
        <time>2023-07-06T15:01:46Z</time>
      </trkpt>
      <trkpt lat="44.12267" lon="1.22667">
        <ele>166.2</ele>
        <time>2023-07-06T15:01:53Z</time>
      </trkpt>
      <trkpt lat="44.12268" lon="1.22668">
        <ele>166.2</ele>
        <time>2023-07-06T15:01:54Z</time>
      </trkpt>
      <trkpt lat="44.12276" lon="1.22669">
        <ele>166.4</ele>
        <time>2023-07-06T15:02:00Z</time>
      </trkpt>
      <trkpt lat="44.12286" lon="1.22671">
        <ele>166.6</ele>
        <time>2023-07-06T15:02:06Z</time>
      </trkpt>
      <trkpt lat="44.12295" lon="1.22678">
        <ele>166.2</ele>
        <time>2023-07-06T15:02:15Z</time>
      </trkpt>
      <trkpt lat="44.12295" lon="1.22678">
        <ele>166</ele>
        <time>2023-07-06T15:02:16Z</time>
      </trkpt>
      <trkpt lat="44.12299" lon="1.22683">
        <ele>165.8</ele>
        <time>2023-07-06T15:02:21Z</time>
      </trkpt>
      <trkpt lat="44.12305" lon="1.22688">
        <ele>165.8</ele>
        <time>2023-07-06T15:02:26Z</time>
      </trkpt>
      <trkpt lat="44.12306" lon="1.22689">
        <ele>165.8</ele>
        <time>2023-07-06T15:02:27Z</time>
      </trkpt>
      <trkpt lat="44.12307" lon="1.2269">
        <ele>165.8</ele>
        <time>2023-07-06T15:02:28Z</time>
      </trkpt>
      <trkpt lat="44.12309" lon="1.22692">
        <ele>165.6</ele>
        <time>2023-07-06T15:02:30Z</time>
      </trkpt>
      <trkpt lat="44.1231" lon="1.22694">
        <ele>165.4</ele>
        <time>2023-07-06T15:02:32Z</time>
      </trkpt>
      <trkpt lat="44.12312" lon="1.22695">
        <ele>165.4</ele>
        <time>2023-07-06T15:02:34Z</time>
      </trkpt>
      <trkpt lat="44.12313" lon="1.22696">
        <ele>165.2</ele>
        <time>2023-07-06T15:02:35Z</time>
      </trkpt>
      <trkpt lat="44.12318" lon="1.22699">
        <ele>164.6</ele>
        <time>2023-07-06T15:02:40Z</time>
      </trkpt>
      <trkpt lat="44.12321" lon="1.227">
        <ele>164.4</ele>
        <time>2023-07-06T15:02:42Z</time>
      </trkpt>
      <trkpt lat="44.12327" lon="1.22705">
        <ele>164</ele>
        <time>2023-07-06T15:02:48Z</time>
      </trkpt>
      <trkpt lat="44.12328" lon="1.22706">
        <ele>163.8</ele>
        <time>2023-07-06T15:02:49Z</time>
      </trkpt>
      <trkpt lat="44.12338" lon="1.22714">
        <ele>163.2</ele>
        <time>2023-07-06T15:02:57Z</time>
      </trkpt>
      <trkpt lat="44.12344" lon="1.2272">
        <ele>162.4</ele>
        <time>2023-07-06T15:03:04Z</time>
      </trkpt>
      <trkpt lat="44.12345" lon="1.22722">
        <ele>162.2</ele>
        <time>2023-07-06T15:03:05Z</time>
      </trkpt>
      <trkpt lat="44.12346" lon="1.22724">
        <ele>162.2</ele>
        <time>2023-07-06T15:03:06Z</time>
      </trkpt>
      <trkpt lat="44.12346" lon="1.22726">
        <ele>162</ele>
        <time>2023-07-06T15:03:07Z</time>
      </trkpt>
      <trkpt lat="44.12347" lon="1.22728">
        <ele>162</ele>
        <time>2023-07-06T15:03:08Z</time>
      </trkpt>
      <trkpt lat="44.12349" lon="1.2273">
        <ele>161.8</ele>
        <time>2023-07-06T15:03:10Z</time>
      </trkpt>
      <trkpt lat="44.12349" lon="1.22733">
        <ele>161.8</ele>
        <time>2023-07-06T15:03:12Z</time>
      </trkpt>
      <trkpt lat="44.12349" lon="1.22735">
        <ele>161.6</ele>
        <time>2023-07-06T15:03:13Z</time>
      </trkpt>
      <trkpt lat="44.1235" lon="1.22739">
        <ele>161.2</ele>
        <time>2023-07-06T15:03:15Z</time>
      </trkpt>
      <trkpt lat="44.12353" lon="1.22741">
        <ele>161</ele>
        <time>2023-07-06T15:03:17Z</time>
      </trkpt>
      <trkpt lat="44.12355" lon="1.22744">
        <ele>160.8</ele>
        <time>2023-07-06T15:03:20Z</time>
      </trkpt>
      <trkpt lat="44.12356" lon="1.22745">
        <ele>160.6</ele>
        <time>2023-07-06T15:03:21Z</time>
      </trkpt>
      <trkpt lat="44.12356" lon="1.22746">
        <ele>160.6</ele>
        <time>2023-07-06T15:03:22Z</time>
      </trkpt>
      <trkpt lat="44.1236" lon="1.2275">
        <ele>160</ele>
        <time>2023-07-06T15:03:26Z</time>
      </trkpt>
      <trkpt lat="44.12362" lon="1.22751">
        <ele>159.6</ele>
        <time>2023-07-06T15:03:28Z</time>
      </trkpt>
      <trkpt lat="44.12367" lon="1.22764">
        <ele>159</ele>
        <time>2023-07-06T15:03:36Z</time>
      </trkpt>
      <trkpt lat="44.12367" lon="1.22766">
        <ele>158.8</ele>
        <time>2023-07-06T15:03:37Z</time>
      </trkpt>
      <trkpt lat="44.12368" lon="1.2277">
        <ele>158.6</ele>
        <time>2023-07-06T15:03:39Z</time>
      </trkpt>
      <trkpt lat="44.12369" lon="1.22785">
        <ele>158.2</ele>
        <time>2023-07-06T15:03:45Z</time>
      </trkpt>
      <trkpt lat="44.1237" lon="1.22791">
        <ele>157.8</ele>
        <time>2023-07-06T15:03:48Z</time>
      </trkpt>
      <trkpt lat="44.12372" lon="1.22799">
        <ele>157.4</ele>
        <time>2023-07-06T15:03:52Z</time>
      </trkpt>
      <trkpt lat="44.12374" lon="1.22804">
        <ele>157</ele>
        <time>2023-07-06T15:03:55Z</time>
      </trkpt>
      <trkpt lat="44.12376" lon="1.22807">
        <ele>156.6</ele>
        <time>2023-07-06T15:03:57Z</time>
      </trkpt>
      <trkpt lat="44.1238" lon="1.22812">
        <ele>156.2</ele>
        <time>2023-07-06T15:04:02Z</time>
      </trkpt>
      <trkpt lat="44.12382" lon="1.2282">
        <ele>155.8</ele>
        <time>2023-07-06T15:04:06Z</time>
      </trkpt>
      <trkpt lat="44.12382" lon="1.22822">
        <ele>155.6</ele>
        <time>2023-07-06T15:04:07Z</time>
      </trkpt>
      <trkpt lat="44.12382" lon="1.22826">
        <ele>155.6</ele>
        <time>2023-07-06T15:04:09Z</time>
      </trkpt>
      <trkpt lat="44.12384" lon="1.22836">
        <ele>155</ele>
        <time>2023-07-06T15:04:17Z</time>
      </trkpt>
      <trkpt lat="44.12388" lon="1.2284">
        <ele>154.8</ele>
        <time>2023-07-06T15:04:20Z</time>
      </trkpt>
      <trkpt lat="44.12387" lon="1.22842">
        <ele>154.6</ele>
        <time>2023-07-06T15:04:22Z</time>
      </trkpt>
      <trkpt lat="44.12387" lon="1.22845">
        <ele>154</ele>
        <time>2023-07-06T15:04:24Z</time>
      </trkpt>
      <trkpt lat="44.12389" lon="1.22848">
        <ele>153.6</ele>
        <time>2023-07-06T15:04:26Z</time>
      </trkpt>
      <trkpt lat="44.1239" lon="1.22849">
        <ele>153.4</ele>
        <time>2023-07-06T15:04:27Z</time>
      </trkpt>
      <trkpt lat="44.12392" lon="1.22852">
        <ele>153.2</ele>
        <time>2023-07-06T15:04:29Z</time>
      </trkpt>
      <trkpt lat="44.12394" lon="1.22855">
        <ele>153.2</ele>
        <time>2023-07-06T15:04:32Z</time>
      </trkpt>
      <trkpt lat="44.12394" lon="1.22856">
        <ele>153</ele>
        <time>2023-07-06T15:04:33Z</time>
      </trkpt>
      <trkpt lat="44.12395" lon="1.22861">
        <ele>152.6</ele>
        <time>2023-07-06T15:04:36Z</time>
      </trkpt>
      <trkpt lat="44.12396" lon="1.22863">
        <ele>152.4</ele>
        <time>2023-07-06T15:04:37Z</time>
      </trkpt>
      <trkpt lat="44.12397" lon="1.22866">
        <ele>152</ele>
        <time>2023-07-06T15:04:39Z</time>
      </trkpt>
      <trkpt lat="44.12399" lon="1.22882">
        <ele>151.8</ele>
        <time>2023-07-06T15:04:46Z</time>
      </trkpt>
      <trkpt lat="44.12401" lon="1.22886">
        <ele>151.6</ele>
        <time>2023-07-06T15:04:48Z</time>
      </trkpt>
      <trkpt lat="44.12401" lon="1.22888">
        <ele>151.6</ele>
        <time>2023-07-06T15:04:49Z</time>
      </trkpt>
      <trkpt lat="44.12402" lon="1.22892">
        <ele>151.2</ele>
        <time>2023-07-06T15:04:51Z</time>
      </trkpt>
      <trkpt lat="44.12402" lon="1.22903">
        <ele>151</ele>
        <time>2023-07-06T15:04:56Z</time>
      </trkpt>
      <trkpt lat="44.12404" lon="1.22915">
        <ele>150.2</ele>
        <time>2023-07-06T15:05:03Z</time>
      </trkpt>
      <trkpt lat="44.12406" lon="1.22918">
        <ele>149.8</ele>
        <time>2023-07-06T15:05:05Z</time>
      </trkpt>
      <trkpt lat="44.12408" lon="1.22923">
        <ele>149.2</ele>
        <time>2023-07-06T15:05:08Z</time>
      </trkpt>
      <trkpt lat="44.1241" lon="1.22926">
        <ele>149.2</ele>
        <time>2023-07-06T15:05:10Z</time>
      </trkpt>
      <trkpt lat="44.12411" lon="1.22928">
        <ele>148.8</ele>
        <time>2023-07-06T15:05:12Z</time>
      </trkpt>
      <trkpt lat="44.12413" lon="1.22935">
        <ele>148</ele>
        <time>2023-07-06T15:05:16Z</time>
      </trkpt>
      <trkpt lat="44.12414" lon="1.22938">
        <ele>148</ele>
        <time>2023-07-06T15:05:18Z</time>
      </trkpt>
      <trkpt lat="44.12414" lon="1.2294">
        <ele>148</ele>
        <time>2023-07-06T15:05:19Z</time>
      </trkpt>
      <trkpt lat="44.12417" lon="1.22949">
        <ele>147.4</ele>
        <time>2023-07-06T15:05:25Z</time>
      </trkpt>
      <trkpt lat="44.1242" lon="1.22954">
        <ele>147.2</ele>
        <time>2023-07-06T15:05:29Z</time>
      </trkpt>
      <trkpt lat="44.1242" lon="1.22956">
        <ele>147</ele>
        <time>2023-07-06T15:05:30Z</time>
      </trkpt>
      <trkpt lat="44.12421" lon="1.2296">
        <ele>147</ele>
        <time>2023-07-06T15:05:32Z</time>
      </trkpt>
      <trkpt lat="44.12431" lon="1.22968">
        <ele>146.8</ele>
        <time>2023-07-06T15:05:41Z</time>
      </trkpt>
      <trkpt lat="44.12436" lon="1.22976">
        <ele>146.2</ele>
        <time>2023-07-06T15:05:48Z</time>
      </trkpt>
      <trkpt lat="44.12439" lon="1.22979">
        <ele>146</ele>
        <time>2023-07-06T15:05:51Z</time>
      </trkpt>
      <trkpt lat="44.12448" lon="1.22983">
        <ele>145.8</ele>
        <time>2023-07-06T15:05:57Z</time>
      </trkpt>
      <trkpt lat="44.1245" lon="1.22983">
        <ele>145.8</ele>
        <time>2023-07-06T15:05:58Z</time>
      </trkpt>
      <trkpt lat="44.12459" lon="1.22993">
        <ele>145.8</ele>
        <time>2023-07-06T15:06:06Z</time>
      </trkpt>
      <trkpt lat="44.12464" lon="1.22997">
        <ele>146</ele>
        <time>2023-07-06T15:06:11Z</time>
      </trkpt>
      <trkpt lat="44.12467" lon="1.23">
        <ele>146</ele>
        <time>2023-07-06T15:06:14Z</time>
      </trkpt>
      <trkpt lat="44.12475" lon="1.23007">
        <ele>145.8</ele>
        <time>2023-07-06T15:06:22Z</time>
      </trkpt>
      <trkpt lat="44.12482" lon="1.23014">
        <ele>146.4</ele>
        <time>2023-07-06T15:06:30Z</time>
      </trkpt>
      <trkpt lat="44.12491" lon="1.23021">
        <ele>146.6</ele>
        <time>2023-07-06T15:06:40Z</time>
      </trkpt>
      <trkpt lat="44.12492" lon="1.23021">
        <ele>146.8</ele>
        <time>2023-07-06T15:06:41Z</time>
      </trkpt>
      <trkpt lat="44.12494" lon="1.23024">
        <ele>147</ele>
        <time>2023-07-06T15:06:43Z</time>
      </trkpt>
      <trkpt lat="44.12496" lon="1.23026">
        <ele>147</ele>
        <time>2023-07-06T15:06:45Z</time>
      </trkpt>
      <trkpt lat="44.12498" lon="1.2303">
        <ele>147.4</ele>
        <time>2023-07-06T15:06:48Z</time>
      </trkpt>
      <trkpt lat="44.12504" lon="1.23041">
        <ele>148</ele>
        <time>2023-07-06T15:06:57Z</time>
      </trkpt>
      <trkpt lat="44.12505" lon="1.23045">
        <ele>148.2</ele>
        <time>2023-07-06T15:06:59Z</time>
      </trkpt>
      <trkpt lat="44.12506" lon="1.23049">
        <ele>148.6</ele>
        <time>2023-07-06T15:07:02Z</time>
      </trkpt>
      <trkpt lat="44.12508" lon="1.23051">
        <ele>148.8</ele>
        <time>2023-07-06T15:07:04Z</time>
      </trkpt>
      <trkpt lat="44.1251" lon="1.23055">
        <ele>149</ele>
        <time>2023-07-06T15:07:07Z</time>
      </trkpt>
      <trkpt lat="44.12511" lon="1.23057">
        <ele>149</ele>
        <time>2023-07-06T15:07:09Z</time>
      </trkpt>
      <trkpt lat="44.12511" lon="1.23059">
        <ele>149.2</ele>
        <time>2023-07-06T15:07:10Z</time>
      </trkpt>
      <trkpt lat="44.1251" lon="1.2306">
        <ele>149.2</ele>
        <time>2023-07-06T15:07:11Z</time>
      </trkpt>
      <trkpt lat="44.1251" lon="1.23062">
        <ele>149.2</ele>
        <time>2023-07-06T15:07:12Z</time>
      </trkpt>
      <trkpt lat="44.1251" lon="1.23064">
        <ele>149.2</ele>
        <time>2023-07-06T15:07:13Z</time>
      </trkpt>
      <trkpt lat="44.12511" lon="1.23069">
        <ele>149.4</ele>
        <time>2023-07-06T15:07:16Z</time>
      </trkpt>
      <trkpt lat="44.12512" lon="1.23083">
        <ele>150.2</ele>
        <time>2023-07-06T15:07:25Z</time>
      </trkpt>
      <trkpt lat="44.12512" lon="1.23085">
        <ele>150.2</ele>
        <time>2023-07-06T15:07:26Z</time>
      </trkpt>
      <trkpt lat="44.1251" lon="1.23095">
        <ele>150.8</ele>
        <time>2023-07-06T15:07:32Z</time>
      </trkpt>
      <trkpt lat="44.12508" lon="1.23103">
        <ele>151.4</ele>
        <time>2023-07-06T15:07:38Z</time>
      </trkpt>
      <trkpt lat="44.12507" lon="1.23107">
        <ele>151.6</ele>
        <time>2023-07-06T15:07:40Z</time>
      </trkpt>
      <trkpt lat="44.12501" lon="1.23119">
        <ele>152.2</ele>
        <time>2023-07-06T15:07:48Z</time>
      </trkpt>
      <trkpt lat="44.125" lon="1.23122">
        <ele>152.6</ele>
        <time>2023-07-06T15:07:51Z</time>
      </trkpt>
      <trkpt lat="44.125" lon="1.23123">
        <ele>152.6</ele>
        <time>2023-07-06T15:07:52Z</time>
      </trkpt>
      <trkpt lat="44.12496" lon="1.23128">
        <ele>152.8</ele>
        <time>2023-07-06T15:07:56Z</time>
      </trkpt>
      <trkpt lat="44.12488" lon="1.23134">
        <ele>153.6</ele>
        <time>2023-07-06T15:08:05Z</time>
      </trkpt>
      <trkpt lat="44.12487" lon="1.23135">
        <ele>153.6</ele>
        <time>2023-07-06T15:08:06Z</time>
      </trkpt>
      <trkpt lat="44.12484" lon="1.23139">
        <ele>153.8</ele>
        <time>2023-07-06T15:08:09Z</time>
      </trkpt>
      <trkpt lat="44.12484" lon="1.23143">
        <ele>154</ele>
        <time>2023-07-06T15:08:11Z</time>
      </trkpt>
      <trkpt lat="44.12485" lon="1.23151">
        <ele>154.4</ele>
        <time>2023-07-06T15:08:18Z</time>
      </trkpt>
      <trkpt lat="44.12488" lon="1.23152">
        <ele>154.8</ele>
        <time>2023-07-06T15:08:21Z</time>
      </trkpt>
      <trkpt lat="44.12491" lon="1.23152">
        <ele>155</ele>
        <time>2023-07-06T15:08:24Z</time>
      </trkpt>
      <trkpt lat="44.12492" lon="1.23152">
        <ele>155.4</ele>
        <time>2023-07-06T15:08:25Z</time>
      </trkpt>
      <trkpt lat="44.12497" lon="1.2315">
        <ele>155.2</ele>
        <time>2023-07-06T15:08:31Z</time>
      </trkpt>
      <trkpt lat="44.12498" lon="1.23149">
        <ele>155.2</ele>
        <time>2023-07-06T15:08:32Z</time>
      </trkpt>
      <trkpt lat="44.12506" lon="1.23148">
        <ele>155</ele>
        <time>2023-07-06T15:08:40Z</time>
      </trkpt>
      <trkpt lat="44.12507" lon="1.23149">
        <ele>155.2</ele>
        <time>2023-07-06T15:08:42Z</time>
      </trkpt>
      <trkpt lat="44.12508" lon="1.23151">
        <ele>155.4</ele>
        <time>2023-07-06T15:08:44Z</time>
      </trkpt>
      <trkpt lat="44.12508" lon="1.23154">
        <ele>155.4</ele>
        <time>2023-07-06T15:08:46Z</time>
      </trkpt>
      <trkpt lat="44.12509" lon="1.23157">
        <ele>155.2</ele>
        <time>2023-07-06T15:08:48Z</time>
      </trkpt>
      <trkpt lat="44.12514" lon="1.23165">
        <ele>155.2</ele>
        <time>2023-07-06T15:08:53Z</time>
      </trkpt>
      <trkpt lat="44.12521" lon="1.2317">
        <ele>155.8</ele>
        <time>2023-07-06T15:08:57Z</time>
      </trkpt>
      <trkpt lat="44.12522" lon="1.23178">
        <ele>155.8</ele>
        <time>2023-07-06T15:09:01Z</time>
      </trkpt>
      <trkpt lat="44.12522" lon="1.23183">
        <ele>156</ele>
        <time>2023-07-06T15:09:04Z</time>
      </trkpt>
      <trkpt lat="44.12523" lon="1.23187">
        <ele>156.4</ele>
        <time>2023-07-06T15:09:08Z</time>
      </trkpt>
      <trkpt lat="44.12524" lon="1.23192">
        <ele>156.8</ele>
        <time>2023-07-06T15:09:12Z</time>
      </trkpt>
      <trkpt lat="44.12526" lon="1.23194">
        <ele>157</ele>
        <time>2023-07-06T15:09:14Z</time>
      </trkpt>
      <trkpt lat="44.12528" lon="1.23196">
        <ele>157.4</ele>
        <time>2023-07-06T15:09:17Z</time>
      </trkpt>
      <trkpt lat="44.12528" lon="1.23197">
        <ele>157.4</ele>
        <time>2023-07-06T15:09:18Z</time>
      </trkpt>
      <trkpt lat="44.12529" lon="1.23198">
        <ele>157.6</ele>
        <time>2023-07-06T15:09:19Z</time>
      </trkpt>
      <trkpt lat="44.12529" lon="1.23199">
        <ele>157.6</ele>
        <time>2023-07-06T15:09:20Z</time>
      </trkpt>
      <trkpt lat="44.12531" lon="1.232">
        <ele>157.8</ele>
        <time>2023-07-06T15:09:22Z</time>
      </trkpt>
      <trkpt lat="44.12532" lon="1.23201">
        <ele>158</ele>
        <time>2023-07-06T15:09:23Z</time>
      </trkpt>
      <trkpt lat="44.12534" lon="1.23202">
        <ele>158.2</ele>
        <time>2023-07-06T15:09:25Z</time>
      </trkpt>
      <trkpt lat="44.12539" lon="1.23207">
        <ele>158.6</ele>
        <time>2023-07-06T15:09:32Z</time>
      </trkpt>
      <trkpt lat="44.1254" lon="1.23209">
        <ele>159</ele>
        <time>2023-07-06T15:09:35Z</time>
      </trkpt>
      <trkpt lat="44.12547" lon="1.23211">
        <ele>159.6</ele>
        <time>2023-07-06T15:09:40Z</time>
      </trkpt>
      <trkpt lat="44.12549" lon="1.23213">
        <ele>160</ele>
        <time>2023-07-06T15:09:43Z</time>
      </trkpt>
      <trkpt lat="44.12555" lon="1.23217">
        <ele>160.4</ele>
        <time>2023-07-06T15:09:49Z</time>
      </trkpt>
      <trkpt lat="44.12559" lon="1.23219">
        <ele>161</ele>
        <time>2023-07-06T15:09:52Z</time>
      </trkpt>
      <trkpt lat="44.12564" lon="1.23221">
        <ele>161.6</ele>
        <time>2023-07-06T15:09:58Z</time>
      </trkpt>
      <trkpt lat="44.1257" lon="1.23223">
        <ele>162.2</ele>
        <time>2023-07-06T15:10:04Z</time>
      </trkpt>
      <trkpt lat="44.12573" lon="1.23224">
        <ele>162.4</ele>
        <time>2023-07-06T15:10:07Z</time>
      </trkpt>
      <trkpt lat="44.12581" lon="1.23224">
        <ele>162.6</ele>
        <time>2023-07-06T15:10:15Z</time>
      </trkpt>
      <trkpt lat="44.12586" lon="1.23224">
        <ele>163</ele>
        <time>2023-07-06T15:10:19Z</time>
      </trkpt>
      <trkpt lat="44.12588" lon="1.23225">
        <ele>163.2</ele>
        <time>2023-07-06T15:10:21Z</time>
      </trkpt>
      <trkpt lat="44.12588" lon="1.23225">
        <ele>163.6</ele>
        <time>2023-07-06T15:10:22Z</time>
      </trkpt>
      <trkpt lat="44.12593" lon="1.23225">
        <ele>164.4</ele>
        <time>2023-07-06T15:10:28Z</time>
      </trkpt>
      <trkpt lat="44.12595" lon="1.23224">
        <ele>164.4</ele>
        <time>2023-07-06T15:10:30Z</time>
      </trkpt>
      <trkpt lat="44.12598" lon="1.23223">
        <ele>164.6</ele>
        <time>2023-07-06T15:10:33Z</time>
      </trkpt>
      <trkpt lat="44.12605" lon="1.23224">
        <ele>165.4</ele>
        <time>2023-07-06T15:10:39Z</time>
      </trkpt>
      <trkpt lat="44.12612" lon="1.23222">
        <ele>165.8</ele>
        <time>2023-07-06T15:10:46Z</time>
      </trkpt>
      <trkpt lat="44.12614" lon="1.23221">
        <ele>166</ele>
        <time>2023-07-06T15:10:48Z</time>
      </trkpt>
      <trkpt lat="44.12621" lon="1.23219">
        <ele>166.8</ele>
        <time>2023-07-06T15:10:55Z</time>
      </trkpt>
      <trkpt lat="44.12625" lon="1.23219">
        <ele>166.8</ele>
        <time>2023-07-06T15:10:58Z</time>
      </trkpt>
      <trkpt lat="44.1263" lon="1.23219">
        <ele>167.4</ele>
        <time>2023-07-06T15:11:01Z</time>
      </trkpt>
      <trkpt lat="44.12638" lon="1.23221">
        <ele>167.8</ele>
        <time>2023-07-06T15:11:06Z</time>
      </trkpt>
      <trkpt lat="44.12639" lon="1.23221">
        <ele>168</ele>
        <time>2023-07-06T15:11:08Z</time>
      </trkpt>
      <trkpt lat="44.12641" lon="1.23222">
        <ele>167.8</ele>
        <time>2023-07-06T15:11:09Z</time>
      </trkpt>
      <trkpt lat="44.12646" lon="1.23224">
        <ele>168.8</ele>
        <time>2023-07-06T15:11:15Z</time>
      </trkpt>
      <trkpt lat="44.12648" lon="1.23225">
        <ele>169</ele>
        <time>2023-07-06T15:11:17Z</time>
      </trkpt>
      <trkpt lat="44.12649" lon="1.23226">
        <ele>169</ele>
        <time>2023-07-06T15:11:18Z</time>
      </trkpt>
      <trkpt lat="44.12651" lon="1.23227">
        <ele>169</ele>
        <time>2023-07-06T15:11:20Z</time>
      </trkpt>
      <trkpt lat="44.12652" lon="1.23229">
        <ele>169.2</ele>
        <time>2023-07-06T15:11:22Z</time>
      </trkpt>
      <trkpt lat="44.1266" lon="1.23236">
        <ele>169.6</ele>
        <time>2023-07-06T15:11:30Z</time>
      </trkpt>
      <trkpt lat="44.12664" lon="1.23239">
        <ele>169.8</ele>
        <time>2023-07-06T15:11:32Z</time>
      </trkpt>
      <trkpt lat="44.12668" lon="1.23241">
        <ele>170.2</ele>
        <time>2023-07-06T15:11:36Z</time>
      </trkpt>
      <trkpt lat="44.12669" lon="1.23241">
        <ele>170.4</ele>
        <time>2023-07-06T15:11:37Z</time>
      </trkpt>
      <trkpt lat="44.1267" lon="1.23242">
        <ele>170.6</ele>
        <time>2023-07-06T15:11:38Z</time>
      </trkpt>
      <trkpt lat="44.12671" lon="1.23242">
        <ele>170.8</ele>
        <time>2023-07-06T15:11:39Z</time>
      </trkpt>
      <trkpt lat="44.12672" lon="1.23244">
        <ele>171</ele>
        <time>2023-07-06T15:11:41Z</time>
      </trkpt>
      <trkpt lat="44.12675" lon="1.23246">
        <ele>171.2</ele>
        <time>2023-07-06T15:11:43Z</time>
      </trkpt>
      <trkpt lat="44.12677" lon="1.23248">
        <ele>171.4</ele>
        <time>2023-07-06T15:11:45Z</time>
      </trkpt>
      <trkpt lat="44.12683" lon="1.23254">
        <ele>171.8</ele>
        <time>2023-07-06T15:11:51Z</time>
      </trkpt>
      <trkpt lat="44.12685" lon="1.23255">
        <ele>172</ele>
        <time>2023-07-06T15:11:53Z</time>
      </trkpt>
      <trkpt lat="44.12688" lon="1.2326">
        <ele>172.2</ele>
        <time>2023-07-06T15:11:57Z</time>
      </trkpt>
      <trkpt lat="44.12689" lon="1.23261">
        <ele>172.4</ele>
        <time>2023-07-06T15:11:58Z</time>
      </trkpt>
      <trkpt lat="44.12695" lon="1.2327">
        <ele>173</ele>
        <time>2023-07-06T15:12:06Z</time>
      </trkpt>
      <trkpt lat="44.12699" lon="1.23274">
        <ele>173.4</ele>
        <time>2023-07-06T15:12:09Z</time>
      </trkpt>
      <trkpt lat="44.12705" lon="1.2328">
        <ele>173.8</ele>
        <time>2023-07-06T15:12:15Z</time>
      </trkpt>
      <trkpt lat="44.12713" lon="1.23287">
        <ele>174.2</ele>
        <time>2023-07-06T15:12:24Z</time>
      </trkpt>
      <trkpt lat="44.12714" lon="1.2329">
        <ele>174.4</ele>
        <time>2023-07-06T15:12:26Z</time>
      </trkpt>
      <trkpt lat="44.12714" lon="1.23297">
        <ele>174.8</ele>
        <time>2023-07-06T15:12:29Z</time>
      </trkpt>
      <trkpt lat="44.12716" lon="1.23305">
        <ele>175.2</ele>
        <time>2023-07-06T15:12:33Z</time>
      </trkpt>
      <trkpt lat="44.1272" lon="1.23316">
        <ele>175.4</ele>
        <time>2023-07-06T15:12:40Z</time>
      </trkpt>
      <trkpt lat="44.12721" lon="1.23321">
        <ele>175.6</ele>
        <time>2023-07-06T15:12:43Z</time>
      </trkpt>
      <trkpt lat="44.12722" lon="1.23328">
        <ele>176</ele>
        <time>2023-07-06T15:12:47Z</time>
      </trkpt>
      <trkpt lat="44.12724" lon="1.23332">
        <ele>176.2</ele>
        <time>2023-07-06T15:12:50Z</time>
      </trkpt>
      <trkpt lat="44.12725" lon="1.23335">
        <ele>176.6</ele>
        <time>2023-07-06T15:12:53Z</time>
      </trkpt>
      <trkpt lat="44.12726" lon="1.23338">
        <ele>176.6</ele>
        <time>2023-07-06T15:12:55Z</time>
      </trkpt>
      <trkpt lat="44.12727" lon="1.2334">
        <ele>176.6</ele>
        <time>2023-07-06T15:12:56Z</time>
      </trkpt>
      <trkpt lat="44.12729" lon="1.23342">
        <ele>176.6</ele>
        <time>2023-07-06T15:12:58Z</time>
      </trkpt>
      <trkpt lat="44.12731" lon="1.23345">
        <ele>176.6</ele>
        <time>2023-07-06T15:13:00Z</time>
      </trkpt>
      <trkpt lat="44.12732" lon="1.23347">
        <ele>176.6</ele>
        <time>2023-07-06T15:13:02Z</time>
      </trkpt>
      <trkpt lat="44.12735" lon="1.23356">
        <ele>176.8</ele>
        <time>2023-07-06T15:13:08Z</time>
      </trkpt>
      <trkpt lat="44.12735" lon="1.23358">
        <ele>176.8</ele>
        <time>2023-07-06T15:13:09Z</time>
      </trkpt>
      <trkpt lat="44.12735" lon="1.2336">
        <ele>177.2</ele>
        <time>2023-07-06T15:13:10Z</time>
      </trkpt>
      <trkpt lat="44.12736" lon="1.23364">
        <ele>177.6</ele>
        <time>2023-07-06T15:13:12Z</time>
      </trkpt>
      <trkpt lat="44.12736" lon="1.23366">
        <ele>177.8</ele>
        <time>2023-07-06T15:13:13Z</time>
      </trkpt>
      <trkpt lat="44.12739" lon="1.23376">
        <ele>177.6</ele>
        <time>2023-07-06T15:13:19Z</time>
      </trkpt>
      <trkpt lat="44.12739" lon="1.23382">
        <ele>178.2</ele>
        <time>2023-07-06T15:13:23Z</time>
      </trkpt>
      <trkpt lat="44.1274" lon="1.23387">
        <ele>178</ele>
        <time>2023-07-06T15:13:27Z</time>
      </trkpt>
      <trkpt lat="44.12743" lon="1.23396">
        <ele>178.2</ele>
        <time>2023-07-06T15:13:33Z</time>
      </trkpt>
      <trkpt lat="44.12746" lon="1.23407">
        <ele>178.6</ele>
        <time>2023-07-06T15:13:40Z</time>
      </trkpt>
      <trkpt lat="44.12748" lon="1.23411">
        <ele>178.8</ele>
        <time>2023-07-06T15:13:44Z</time>
      </trkpt>
      <trkpt lat="44.12751" lon="1.23417">
        <ele>179.2</ele>
        <time>2023-07-06T15:13:49Z</time>
      </trkpt>
      <trkpt lat="44.12752" lon="1.23421">
        <ele>179.4</ele>
        <time>2023-07-06T15:13:52Z</time>
      </trkpt>
      <trkpt lat="44.12752" lon="1.23422">
        <ele>179.4</ele>
        <time>2023-07-06T15:13:53Z</time>
      </trkpt>
      <trkpt lat="44.12752" lon="1.23423">
        <ele>179.4</ele>
        <time>2023-07-06T15:13:54Z</time>
      </trkpt>
      <trkpt lat="44.12752" lon="1.23424">
        <ele>179.4</ele>
        <time>2023-07-06T15:13:55Z</time>
      </trkpt>
      <trkpt lat="44.12752" lon="1.23428">
        <ele>179.6</ele>
        <time>2023-07-06T15:13:57Z</time>
      </trkpt>
      <trkpt lat="44.12753" lon="1.23434">
        <ele>179.8</ele>
        <time>2023-07-06T15:14:00Z</time>
      </trkpt>
      <trkpt lat="44.12755" lon="1.23442">
        <ele>180</ele>
        <time>2023-07-06T15:14:04Z</time>
      </trkpt>
      <trkpt lat="44.12758" lon="1.2345">
        <ele>180.4</ele>
        <time>2023-07-06T15:14:09Z</time>
      </trkpt>
      <trkpt lat="44.12759" lon="1.23451">
        <ele>180.6</ele>
        <time>2023-07-06T15:14:10Z</time>
      </trkpt>
      <trkpt lat="44.1276" lon="1.23458">
        <ele>180.8</ele>
        <time>2023-07-06T15:14:14Z</time>
      </trkpt>
      <trkpt lat="44.12761" lon="1.23462">
        <ele>181</ele>
        <time>2023-07-06T15:14:16Z</time>
      </trkpt>
      <trkpt lat="44.12763" lon="1.23471">
        <ele>181.2</ele>
        <time>2023-07-06T15:14:21Z</time>
      </trkpt>
      <trkpt lat="44.12766" lon="1.23482">
        <ele>181.2</ele>
        <time>2023-07-06T15:14:28Z</time>
      </trkpt>
      <trkpt lat="44.12769" lon="1.23488">
        <ele>181.8</ele>
        <time>2023-07-06T15:14:33Z</time>
      </trkpt>
      <trkpt lat="44.1277" lon="1.2349">
        <ele>182</ele>
        <time>2023-07-06T15:14:34Z</time>
      </trkpt>
      <trkpt lat="44.1277" lon="1.23491">
        <ele>182.2</ele>
        <time>2023-07-06T15:14:35Z</time>
      </trkpt>
      <trkpt lat="44.12773" lon="1.23493">
        <ele>182.4</ele>
        <time>2023-07-06T15:14:38Z</time>
      </trkpt>
      <trkpt lat="44.12778" lon="1.23502">
        <ele>182.6</ele>
        <time>2023-07-06T15:14:46Z</time>
      </trkpt>
      <trkpt lat="44.12781" lon="1.23506">
        <ele>182.8</ele>
        <time>2023-07-06T15:14:50Z</time>
      </trkpt>
      <trkpt lat="44.12783" lon="1.2351">
        <ele>183</ele>
        <time>2023-07-06T15:14:53Z</time>
      </trkpt>
      <trkpt lat="44.12785" lon="1.23515">
        <ele>183.2</ele>
        <time>2023-07-06T15:14:56Z</time>
      </trkpt>
      <trkpt lat="44.12788" lon="1.23519">
        <ele>183.6</ele>
        <time>2023-07-06T15:14:59Z</time>
      </trkpt>
      <trkpt lat="44.1279" lon="1.23523">
        <ele>183.6</ele>
        <time>2023-07-06T15:15:02Z</time>
      </trkpt>
      <trkpt lat="44.1279" lon="1.23525">
        <ele>183.6</ele>
        <time>2023-07-06T15:15:03Z</time>
      </trkpt>
      <trkpt lat="44.12793" lon="1.2353">
        <ele>183.8</ele>
        <time>2023-07-06T15:15:06Z</time>
      </trkpt>
      <trkpt lat="44.12798" lon="1.23538">
        <ele>184</ele>
        <time>2023-07-06T15:15:12Z</time>
      </trkpt>
      <trkpt lat="44.12797" lon="1.23546">
        <ele>184.2</ele>
        <time>2023-07-06T15:15:17Z</time>
      </trkpt>
      <trkpt lat="44.12797" lon="1.2355">
        <ele>184.4</ele>
        <time>2023-07-06T15:15:19Z</time>
      </trkpt>
      <trkpt lat="44.12796" lon="1.23557">
        <ele>184.6</ele>
        <time>2023-07-06T15:15:25Z</time>
      </trkpt>
      <trkpt lat="44.12795" lon="1.23559">
        <ele>184.6</ele>
        <time>2023-07-06T15:15:27Z</time>
      </trkpt>
      <trkpt lat="44.12793" lon="1.23566">
        <ele>185.4</ele>
        <time>2023-07-06T15:15:32Z</time>
      </trkpt>
      <trkpt lat="44.12793" lon="1.23566">
        <ele>185.6</ele>
        <time>2023-07-06T15:15:33Z</time>
      </trkpt>
      <trkpt lat="44.12792" lon="1.2357">
        <ele>185.8</ele>
        <time>2023-07-06T15:15:36Z</time>
      </trkpt>
      <trkpt lat="44.12792" lon="1.23573">
        <ele>186</ele>
        <time>2023-07-06T15:15:38Z</time>
      </trkpt>
      <trkpt lat="44.12792" lon="1.23577">
        <ele>186</ele>
        <time>2023-07-06T15:15:40Z</time>
      </trkpt>
      <trkpt lat="44.12792" lon="1.23581">
        <ele>186.2</ele>
        <time>2023-07-06T15:15:42Z</time>
      </trkpt>
      <trkpt lat="44.12791" lon="1.23585">
        <ele>186.4</ele>
        <time>2023-07-06T15:15:44Z</time>
      </trkpt>
      <trkpt lat="44.1279" lon="1.23588">
        <ele>186.6</ele>
        <time>2023-07-06T15:15:46Z</time>
      </trkpt>
      <trkpt lat="44.12789" lon="1.23594">
        <ele>186.8</ele>
        <time>2023-07-06T15:15:49Z</time>
      </trkpt>
      <trkpt lat="44.12789" lon="1.23602">
        <ele>187</ele>
        <time>2023-07-06T15:15:53Z</time>
      </trkpt>
      <trkpt lat="44.12786" lon="1.23611">
        <ele>187.6</ele>
        <time>2023-07-06T15:15:58Z</time>
      </trkpt>
      <trkpt lat="44.12786" lon="1.23613">
        <ele>187.6</ele>
        <time>2023-07-06T15:15:59Z</time>
      </trkpt>
      <trkpt lat="44.12784" lon="1.23624">
        <ele>188.2</ele>
        <time>2023-07-06T15:16:06Z</time>
      </trkpt>
      <trkpt lat="44.12784" lon="1.23638">
        <ele>188.6</ele>
        <time>2023-07-06T15:16:14Z</time>
      </trkpt>
      <trkpt lat="44.12784" lon="1.23641">
        <ele>188.6</ele>
        <time>2023-07-06T15:16:16Z</time>
      </trkpt>
      <trkpt lat="44.12783" lon="1.2365">
        <ele>189</ele>
        <time>2023-07-06T15:16:22Z</time>
      </trkpt>
      <trkpt lat="44.12781" lon="1.23664">
        <ele>189.4</ele>
        <time>2023-07-06T15:16:31Z</time>
      </trkpt>
      <trkpt lat="44.12782" lon="1.23668">
        <ele>189.6</ele>
        <time>2023-07-06T15:16:34Z</time>
      </trkpt>
      <trkpt lat="44.12782" lon="1.23678">
        <ele>190.4</ele>
        <time>2023-07-06T15:16:41Z</time>
      </trkpt>
      <trkpt lat="44.12783" lon="1.23685">
        <ele>190.8</ele>
        <time>2023-07-06T15:16:45Z</time>
      </trkpt>
      <trkpt lat="44.12784" lon="1.23691">
        <ele>191.2</ele>
        <time>2023-07-06T15:16:49Z</time>
      </trkpt>
      <trkpt lat="44.12785" lon="1.23697">
        <ele>191.8</ele>
        <time>2023-07-06T15:16:53Z</time>
      </trkpt>
      <trkpt lat="44.12785" lon="1.23701">
        <ele>192</ele>
        <time>2023-07-06T15:16:56Z</time>
      </trkpt>
      <trkpt lat="44.12785" lon="1.23702">
        <ele>192</ele>
        <time>2023-07-06T15:16:57Z</time>
      </trkpt>
      <trkpt lat="44.12785" lon="1.23709">
        <ele>192.4</ele>
        <time>2023-07-06T15:17:01Z</time>
      </trkpt>
      <trkpt lat="44.12788" lon="1.23718">
        <ele>192.6</ele>
        <time>2023-07-06T15:17:07Z</time>
      </trkpt>
      <trkpt lat="44.12788" lon="1.23719">
        <ele>192.6</ele>
        <time>2023-07-06T15:17:08Z</time>
      </trkpt>
      <trkpt lat="44.12787" lon="1.23722">
        <ele>192.8</ele>
        <time>2023-07-06T15:17:10Z</time>
      </trkpt>
      <trkpt lat="44.12788" lon="1.23728">
        <ele>193.4</ele>
        <time>2023-07-06T15:17:15Z</time>
      </trkpt>
      <trkpt lat="44.12789" lon="1.23734">
        <ele>194</ele>
        <time>2023-07-06T15:17:19Z</time>
      </trkpt>
      <trkpt lat="44.12789" lon="1.23736">
        <ele>194</ele>
        <time>2023-07-06T15:17:20Z</time>
      </trkpt>
      <trkpt lat="44.1279" lon="1.23738">
        <ele>194</ele>
        <time>2023-07-06T15:17:21Z</time>
      </trkpt>
      <trkpt lat="44.1279" lon="1.23747">
        <ele>194</ele>
        <time>2023-07-06T15:17:28Z</time>
      </trkpt>
      <trkpt lat="44.1279" lon="1.23748">
        <ele>194.2</ele>
        <time>2023-07-06T15:17:29Z</time>
      </trkpt>
      <trkpt lat="44.1279" lon="1.2375">
        <ele>194.2</ele>
        <time>2023-07-06T15:17:30Z</time>
      </trkpt>
      <trkpt lat="44.1279" lon="1.23752">
        <ele>194.2</ele>
        <time>2023-07-06T15:17:31Z</time>
      </trkpt>
      <trkpt lat="44.1279" lon="1.23755">
        <ele>194.4</ele>
        <time>2023-07-06T15:17:32Z</time>
      </trkpt>
      <trkpt lat="44.1279" lon="1.23757">
        <ele>194.6</ele>
        <time>2023-07-06T15:17:34Z</time>
      </trkpt>
      <trkpt lat="44.1279" lon="1.2376">
        <ele>194.6</ele>
        <time>2023-07-06T15:17:36Z</time>
      </trkpt>
      <trkpt lat="44.12786" lon="1.23767">
        <ele>194.8</ele>
        <time>2023-07-06T15:17:41Z</time>
      </trkpt>
      <trkpt lat="44.12781" lon="1.23772">
        <ele>194.8</ele>
        <time>2023-07-06T15:17:46Z</time>
      </trkpt>
      <trkpt lat="44.12779" lon="1.23774">
        <ele>195</ele>
        <time>2023-07-06T15:17:48Z</time>
      </trkpt>
      <trkpt lat="44.12778" lon="1.23774">
        <ele>195.2</ele>
        <time>2023-07-06T15:17:49Z</time>
      </trkpt>
      <trkpt lat="44.12768" lon="1.2378">
        <ele>196</ele>
        <time>2023-07-06T15:18:00Z</time>
      </trkpt>
      <trkpt lat="44.12767" lon="1.23781">
        <ele>196</ele>
        <time>2023-07-06T15:18:02Z</time>
      </trkpt>
      <trkpt lat="44.12766" lon="1.23784">
        <ele>196</ele>
        <time>2023-07-06T15:18:04Z</time>
      </trkpt>
      <trkpt lat="44.12765" lon="1.23786">
        <ele>196.2</ele>
        <time>2023-07-06T15:18:05Z</time>
      </trkpt>
      <trkpt lat="44.12762" lon="1.23792">
        <ele>196.4</ele>
        <time>2023-07-06T15:18:08Z</time>
      </trkpt>
      <trkpt lat="44.12762" lon="1.23793">
        <ele>196.4</ele>
        <time>2023-07-06T15:18:09Z</time>
      </trkpt>
      <trkpt lat="44.12762" lon="1.23799">
        <ele>196.8</ele>
        <time>2023-07-06T15:18:26Z</time>
      </trkpt>
      <trkpt lat="44.12759" lon="1.23805">
        <ele>197.2</ele>
        <time>2023-07-06T15:18:30Z</time>
      </trkpt>
      <trkpt lat="44.12755" lon="1.23812">
        <ele>197.4</ele>
        <time>2023-07-06T15:18:34Z</time>
      </trkpt>
      <trkpt lat="44.12754" lon="1.23817">
        <ele>197.4</ele>
        <time>2023-07-06T15:18:37Z</time>
      </trkpt>
      <trkpt lat="44.12752" lon="1.23828">
        <ele>197.8</ele>
        <time>2023-07-06T15:18:43Z</time>
      </trkpt>
      <trkpt lat="44.12752" lon="1.2383">
        <ele>197.8</ele>
        <time>2023-07-06T15:18:44Z</time>
      </trkpt>
      <trkpt lat="44.12752" lon="1.23838">
        <ele>198.2</ele>
        <time>2023-07-06T15:18:49Z</time>
      </trkpt>
      <trkpt lat="44.12751" lon="1.23841">
        <ele>198.4</ele>
        <time>2023-07-06T15:18:51Z</time>
      </trkpt>
      <trkpt lat="44.1275" lon="1.23854">
        <ele>198.8</ele>
        <time>2023-07-06T15:18:59Z</time>
      </trkpt>
      <trkpt lat="44.1275" lon="1.23861">
        <ele>199.4</ele>
        <time>2023-07-06T15:19:03Z</time>
      </trkpt>
      <trkpt lat="44.12749" lon="1.23863">
        <ele>199.4</ele>
        <time>2023-07-06T15:19:05Z</time>
      </trkpt>
      <trkpt lat="44.12746" lon="1.23874">
        <ele>199.6</ele>
        <time>2023-07-06T15:19:13Z</time>
      </trkpt>
      <trkpt lat="44.12744" lon="1.23886">
        <ele>200.2</ele>
        <time>2023-07-06T15:19:20Z</time>
      </trkpt>
      <trkpt lat="44.12744" lon="1.23889">
        <ele>200.2</ele>
        <time>2023-07-06T15:19:22Z</time>
      </trkpt>
      <trkpt lat="44.12743" lon="1.23892">
        <ele>200.4</ele>
        <time>2023-07-06T15:19:24Z</time>
      </trkpt>
      <trkpt lat="44.12743" lon="1.23895">
        <ele>200.4</ele>
        <time>2023-07-06T15:19:26Z</time>
      </trkpt>
      <trkpt lat="44.12742" lon="1.23901">
        <ele>200.8</ele>
        <time>2023-07-06T15:19:31Z</time>
      </trkpt>
      <trkpt lat="44.12741" lon="1.23904">
        <ele>201</ele>
        <time>2023-07-06T15:19:33Z</time>
      </trkpt>
      <trkpt lat="44.12739" lon="1.2391">
        <ele>201.4</ele>
        <time>2023-07-06T15:19:37Z</time>
      </trkpt>
      <trkpt lat="44.12736" lon="1.23913">
        <ele>201.6</ele>
        <time>2023-07-06T15:19:40Z</time>
      </trkpt>
      <trkpt lat="44.12731" lon="1.23918">
        <ele>201.8</ele>
        <time>2023-07-06T15:19:46Z</time>
      </trkpt>
      <trkpt lat="44.1273" lon="1.23919">
        <ele>201.8</ele>
        <time>2023-07-06T15:19:47Z</time>
      </trkpt>
      <trkpt lat="44.12724" lon="1.23923">
        <ele>202.2</ele>
        <time>2023-07-06T15:19:52Z</time>
      </trkpt>
      <trkpt lat="44.12721" lon="1.23928">
        <ele>202.2</ele>
        <time>2023-07-06T15:19:57Z</time>
      </trkpt>
      <trkpt lat="44.12717" lon="1.23929">
        <ele>202.4</ele>
        <time>2023-07-06T15:20:01Z</time>
      </trkpt>
      <trkpt lat="44.12715" lon="1.2393">
        <ele>202.8</ele>
        <time>2023-07-06T15:20:04Z</time>
      </trkpt>
      <trkpt lat="44.12706" lon="1.23935">
        <ele>203.2</ele>
        <time>2023-07-06T15:20:11Z</time>
      </trkpt>
      <trkpt lat="44.12703" lon="1.23937">
        <ele>203.4</ele>
        <time>2023-07-06T15:20:14Z</time>
      </trkpt>
      <trkpt lat="44.12698" lon="1.23943">
        <ele>204</ele>
        <time>2023-07-06T15:20:20Z</time>
      </trkpt>
      <trkpt lat="44.12693" lon="1.23948">
        <ele>204.2</ele>
        <time>2023-07-06T15:20:27Z</time>
      </trkpt>
      <trkpt lat="44.1269" lon="1.23949">
        <ele>204.4</ele>
        <time>2023-07-06T15:20:29Z</time>
      </trkpt>
      <trkpt lat="44.12689" lon="1.2395">
        <ele>204.4</ele>
        <time>2023-07-06T15:20:30Z</time>
      </trkpt>
      <trkpt lat="44.12686" lon="1.2395">
        <ele>204.8</ele>
        <time>2023-07-06T15:20:33Z</time>
      </trkpt>
      <trkpt lat="44.12685" lon="1.23951">
        <ele>204.8</ele>
        <time>2023-07-06T15:20:34Z</time>
      </trkpt>
      <trkpt lat="44.12678" lon="1.23955">
        <ele>205</ele>
        <time>2023-07-06T15:20:39Z</time>
      </trkpt>
      <trkpt lat="44.12677" lon="1.23956">
        <ele>205</ele>
        <time>2023-07-06T15:20:40Z</time>
      </trkpt>
      <trkpt lat="44.12674" lon="1.23959">
        <ele>205.2</ele>
        <time>2023-07-06T15:20:44Z</time>
      </trkpt>
      <trkpt lat="44.12674" lon="1.2396">
        <ele>205.4</ele>
        <time>2023-07-06T15:20:45Z</time>
      </trkpt>
      <trkpt lat="44.12673" lon="1.23961">
        <ele>205.6</ele>
        <time>2023-07-06T15:20:46Z</time>
      </trkpt>
      <trkpt lat="44.12673" lon="1.23963">
        <ele>205.6</ele>
        <time>2023-07-06T15:20:48Z</time>
      </trkpt>
      <trkpt lat="44.12672" lon="1.23963">
        <ele>205.6</ele>
        <time>2023-07-06T15:20:50Z</time>
      </trkpt>
      <trkpt lat="44.1267" lon="1.23963">
        <ele>205.6</ele>
        <time>2023-07-06T15:20:52Z</time>
      </trkpt>
      <trkpt lat="44.12667" lon="1.23962">
        <ele>205.8</ele>
        <time>2023-07-06T15:20:55Z</time>
      </trkpt>
      <trkpt lat="44.12664" lon="1.23963">
        <ele>205.8</ele>
        <time>2023-07-06T15:20:58Z</time>
      </trkpt>
      <trkpt lat="44.12663" lon="1.23963">
        <ele>205.8</ele>
        <time>2023-07-06T15:20:59Z</time>
      </trkpt>
      <trkpt lat="44.12662" lon="1.23963">
        <ele>205.8</ele>
        <time>2023-07-06T15:21:00Z</time>
      </trkpt>
      <trkpt lat="44.12661" lon="1.23963">
        <ele>206.2</ele>
        <time>2023-07-06T15:21:01Z</time>
      </trkpt>
      <trkpt lat="44.1266" lon="1.23963">
        <ele>206.4</ele>
        <time>2023-07-06T15:21:05Z</time>
      </trkpt>
      <trkpt lat="44.1266" lon="1.23963">
        <ele>206.4</ele>
        <time>2023-07-06T15:21:07Z</time>
      </trkpt>
      <trkpt lat="44.12667" lon="1.23956">
        <ele>206.2</ele>
        <time>2023-07-06T15:21:15Z</time>
      </trkpt>
      <trkpt lat="44.12674" lon="1.23952">
        <ele>206</ele>
        <time>2023-07-06T15:21:21Z</time>
      </trkpt>
      <trkpt lat="44.12675" lon="1.23952">
        <ele>205.8</ele>
        <time>2023-07-06T15:21:22Z</time>
      </trkpt>
      <trkpt lat="44.12681" lon="1.23946">
        <ele>205.4</ele>
        <time>2023-07-06T15:21:28Z</time>
      </trkpt>
      <trkpt lat="44.12684" lon="1.23943">
        <ele>204.8</ele>
        <time>2023-07-06T15:21:31Z</time>
      </trkpt>
      <trkpt lat="44.12688" lon="1.2394">
        <ele>204.6</ele>
        <time>2023-07-06T15:21:35Z</time>
      </trkpt>
      <trkpt lat="44.1269" lon="1.23939">
        <ele>204.4</ele>
        <time>2023-07-06T15:21:36Z</time>
      </trkpt>
      <trkpt lat="44.12691" lon="1.23938">
        <ele>204.2</ele>
        <time>2023-07-06T15:21:37Z</time>
      </trkpt>
      <trkpt lat="44.12696" lon="1.23937">
        <ele>204.2</ele>
        <time>2023-07-06T15:21:42Z</time>
      </trkpt>
      <trkpt lat="44.12696" lon="1.23936">
        <ele>204.4</ele>
        <time>2023-07-06T15:21:44Z</time>
      </trkpt>
      <trkpt lat="44.12695" lon="1.23938">
        <ele>204.6</ele>
        <time>2023-07-06T15:21:46Z</time>
      </trkpt>
      <trkpt lat="44.12694" lon="1.23942">
        <ele>204.8</ele>
        <time>2023-07-06T15:21:49Z</time>
      </trkpt>
      <trkpt lat="44.12694" lon="1.23945">
        <ele>205</ele>
        <time>2023-07-06T15:21:51Z</time>
      </trkpt>
      <trkpt lat="44.12692" lon="1.23947">
        <ele>205.4</ele>
        <time>2023-07-06T15:21:54Z</time>
      </trkpt>
      <trkpt lat="44.1269" lon="1.23948">
        <ele>205.8</ele>
        <time>2023-07-06T15:21:56Z</time>
      </trkpt>
      <trkpt lat="44.12687" lon="1.23953">
        <ele>206.4</ele>
        <time>2023-07-06T15:22:00Z</time>
      </trkpt>
      <trkpt lat="44.12685" lon="1.23954">
        <ele>207</ele>
        <time>2023-07-06T15:22:02Z</time>
      </trkpt>
      <trkpt lat="44.12684" lon="1.23955">
        <ele>207.2</ele>
        <time>2023-07-06T15:22:03Z</time>
      </trkpt>
      <trkpt lat="44.12683" lon="1.23956">
        <ele>207.6</ele>
        <time>2023-07-06T15:22:05Z</time>
      </trkpt>
      <trkpt lat="44.12681" lon="1.23958">
        <ele>208</ele>
        <time>2023-07-06T15:22:07Z</time>
      </trkpt>
      <trkpt lat="44.12679" lon="1.23959">
        <ele>208.2</ele>
        <time>2023-07-06T15:22:09Z</time>
      </trkpt>
      <trkpt lat="44.12678" lon="1.2396">
        <ele>208.4</ele>
        <time>2023-07-06T15:22:10Z</time>
      </trkpt>
      <trkpt lat="44.12677" lon="1.2396">
        <ele>208.4</ele>
        <time>2023-07-06T15:22:11Z</time>
      </trkpt>
      <trkpt lat="44.12676" lon="1.23961">
        <ele>208.4</ele>
        <time>2023-07-06T15:22:12Z</time>
      </trkpt>
      <trkpt lat="44.12676" lon="1.23961">
        <ele>208.6</ele>
        <time>2023-07-06T15:22:13Z</time>
      </trkpt>
      <trkpt lat="44.12676" lon="1.23963">
        <ele>208.6</ele>
        <time>2023-07-06T15:22:14Z</time>
      </trkpt>
      <trkpt lat="44.12672" lon="1.23966">
        <ele>209.6</ele>
        <time>2023-07-06T15:22:18Z</time>
      </trkpt>
      <trkpt lat="44.12672" lon="1.23966">
        <ele>209.6</ele>
        <time>2023-07-06T15:22:19Z</time>
      </trkpt>
      <trkpt lat="44.12671" lon="1.23968">
        <ele>210.8</ele>
        <time>2023-07-06T15:22:24Z</time>
      </trkpt>
      <trkpt lat="44.12671" lon="1.2397">
        <ele>211</ele>
        <time>2023-07-06T15:22:26Z</time>
      </trkpt>
      <trkpt lat="44.12672" lon="1.23976">
        <ele>211.8</ele>
        <time>2023-07-06T15:22:32Z</time>
      </trkpt>
      <trkpt lat="44.12673" lon="1.23978">
        <ele>212.2</ele>
        <time>2023-07-06T15:22:34Z</time>
      </trkpt>
      <trkpt lat="44.12675" lon="1.23982">
        <ele>213</ele>
        <time>2023-07-06T15:22:38Z</time>
      </trkpt>
      <trkpt lat="44.12677" lon="1.23984">
        <ele>213.4</ele>
        <time>2023-07-06T15:22:40Z</time>
      </trkpt>
      <trkpt lat="44.12678" lon="1.23988">
        <ele>214</ele>
        <time>2023-07-06T15:22:43Z</time>
      </trkpt>
      <trkpt lat="44.12678" lon="1.23989">
        <ele>214.2</ele>
        <time>2023-07-06T15:22:44Z</time>
      </trkpt>
      <trkpt lat="44.12679" lon="1.23992">
        <ele>214.8</ele>
        <time>2023-07-06T15:22:47Z</time>
      </trkpt>
      <trkpt lat="44.12679" lon="1.23994">
        <ele>215.2</ele>
        <time>2023-07-06T15:22:49Z</time>
      </trkpt>
      <trkpt lat="44.12676" lon="1.24001">
        <ele>215.6</ele>
        <time>2023-07-06T15:22:51Z</time>
      </trkpt>
      <trkpt lat="44.12674" lon="1.24005">
        <ele>215.8</ele>
        <time>2023-07-06T15:22:53Z</time>
      </trkpt>
      <trkpt lat="44.12675" lon="1.24008">
        <ele>215.8</ele>
        <time>2023-07-06T15:22:55Z</time>
      </trkpt>
      <trkpt lat="44.12675" lon="1.24013">
        <ele>216.2</ele>
        <time>2023-07-06T15:22:59Z</time>
      </trkpt>
      <trkpt lat="44.12674" lon="1.24016">
        <ele>216.6</ele>
        <time>2023-07-06T15:23:02Z</time>
      </trkpt>
      <trkpt lat="44.12674" lon="1.24024">
        <ele>217</ele>
        <time>2023-07-06T15:23:07Z</time>
      </trkpt>
      <trkpt lat="44.12674" lon="1.24025">
        <ele>217</ele>
        <time>2023-07-06T15:23:08Z</time>
      </trkpt>
      <trkpt lat="44.12675" lon="1.2403">
        <ele>217</ele>
        <time>2023-07-06T15:23:12Z</time>
      </trkpt>
      <trkpt lat="44.12676" lon="1.24035">
        <ele>217.4</ele>
        <time>2023-07-06T15:23:15Z</time>
      </trkpt>
      <trkpt lat="44.1268" lon="1.24045">
        <ele>218.4</ele>
        <time>2023-07-06T15:23:21Z</time>
      </trkpt>
      <trkpt lat="44.12679" lon="1.24049">
        <ele>218.6</ele>
        <time>2023-07-06T15:23:23Z</time>
      </trkpt>
      <trkpt lat="44.12681" lon="1.24057">
        <ele>218.8</ele>
        <time>2023-07-06T15:23:29Z</time>
      </trkpt>
      <trkpt lat="44.12681" lon="1.24063">
        <ele>218.8</ele>
        <time>2023-07-06T15:23:32Z</time>
      </trkpt>
      <trkpt lat="44.1268" lon="1.24066">
        <ele>219</ele>
        <time>2023-07-06T15:23:35Z</time>
      </trkpt>
      <trkpt lat="44.1268" lon="1.24068">
        <ele>218.8</ele>
        <time>2023-07-06T15:23:37Z</time>
      </trkpt>
      <trkpt lat="44.1268" lon="1.24072">
        <ele>218.8</ele>
        <time>2023-07-06T15:23:41Z</time>
      </trkpt>
      <trkpt lat="44.12679" lon="1.24077">
        <ele>218.8</ele>
        <time>2023-07-06T15:23:44Z</time>
      </trkpt>
      <trkpt lat="44.12679" lon="1.24079">
        <ele>218.8</ele>
        <time>2023-07-06T15:23:45Z</time>
      </trkpt>
      <trkpt lat="44.1268" lon="1.24082">
        <ele>218.8</ele>
        <time>2023-07-06T15:23:47Z</time>
      </trkpt>
      <trkpt lat="44.12682" lon="1.24089">
        <ele>218.4</ele>
        <time>2023-07-06T15:23:53Z</time>
      </trkpt>
      <trkpt lat="44.12588" lon="1.24125">
        <ele>220.8</ele>
        <time>2023-07-06T15:53:43Z</time>
      </trkpt>
      <trkpt lat="44.12587" lon="1.24123">
        <ele>221</ele>
        <time>2023-07-06T15:53:44Z</time>
      </trkpt>
      <trkpt lat="44.12582" lon="1.24115">
        <ele>221</ele>
        <time>2023-07-06T15:53:48Z</time>
      </trkpt>
      <trkpt lat="44.12582" lon="1.24102">
        <ele>220.8</ele>
        <time>2023-07-06T15:53:55Z</time>
      </trkpt>
      <trkpt lat="44.12578" lon="1.24103">
        <ele>220.8</ele>
        <time>2023-07-06T15:54:00Z</time>
      </trkpt>
      <trkpt lat="44.12577" lon="1.24102">
        <ele>220.8</ele>
        <time>2023-07-06T15:54:01Z</time>
      </trkpt>
      <trkpt lat="44.12565" lon="1.24106">
        <ele>221.6</ele>
        <time>2023-07-06T15:54:10Z</time>
      </trkpt>
      <trkpt lat="44.12562" lon="1.2411">
        <ele>222</ele>
        <time>2023-07-06T15:54:13Z</time>
      </trkpt>
      <trkpt lat="44.12556" lon="1.24113">
        <ele>222.2</ele>
        <time>2023-07-06T15:54:18Z</time>
      </trkpt>
      <trkpt lat="44.12551" lon="1.24117">
        <ele>222.4</ele>
        <time>2023-07-06T15:54:23Z</time>
      </trkpt>
      <trkpt lat="44.12548" lon="1.24122">
        <ele>222.6</ele>
        <time>2023-07-06T15:54:27Z</time>
      </trkpt>
      <trkpt lat="44.12543" lon="1.24127">
        <ele>222.6</ele>
        <time>2023-07-06T15:54:31Z</time>
      </trkpt>
      <trkpt lat="44.12541" lon="1.2413">
        <ele>222.6</ele>
        <time>2023-07-06T15:54:34Z</time>
      </trkpt>
      <trkpt lat="44.12538" lon="1.24134">
        <ele>223</ele>
        <time>2023-07-06T15:54:39Z</time>
      </trkpt>
      <trkpt lat="44.12537" lon="1.24137">
        <ele>223</ele>
        <time>2023-07-06T15:54:41Z</time>
      </trkpt>
      <trkpt lat="44.12535" lon="1.24139">
        <ele>223.2</ele>
        <time>2023-07-06T15:54:44Z</time>
      </trkpt>
      <trkpt lat="44.12533" lon="1.24141">
        <ele>223.2</ele>
        <time>2023-07-06T15:54:47Z</time>
      </trkpt>
      <trkpt lat="44.12531" lon="1.24144">
        <ele>223.2</ele>
        <time>2023-07-06T15:54:49Z</time>
      </trkpt>
      <trkpt lat="44.12531" lon="1.24146">
        <ele>223.2</ele>
        <time>2023-07-06T15:54:50Z</time>
      </trkpt>
      <trkpt lat="44.12526" lon="1.24151">
        <ele>223.4</ele>
        <time>2023-07-06T15:55:45Z</time>
      </trkpt>
      <trkpt lat="44.12526" lon="1.24152">
        <ele>223.2</ele>
        <time>2023-07-06T15:55:46Z</time>
      </trkpt>
      <trkpt lat="44.12525" lon="1.24153">
        <ele>223.2</ele>
        <time>2023-07-06T15:55:47Z</time>
      </trkpt>
      <trkpt lat="44.1252" lon="1.24159">
        <ele>222.8</ele>
        <time>2023-07-06T15:55:56Z</time>
      </trkpt>
      <trkpt lat="44.12518" lon="1.24162">
        <ele>222.6</ele>
        <time>2023-07-06T15:55:59Z</time>
      </trkpt>
      <trkpt lat="44.12516" lon="1.24166">
        <ele>222.6</ele>
        <time>2023-07-06T15:56:02Z</time>
      </trkpt>
      <trkpt lat="44.12511" lon="1.24179">
        <ele>222.4</ele>
        <time>2023-07-06T15:56:09Z</time>
      </trkpt>
      <trkpt lat="44.12508" lon="1.24184">
        <ele>221.8</ele>
        <time>2023-07-06T15:56:12Z</time>
      </trkpt>
      <trkpt lat="44.12504" lon="1.2419">
        <ele>221.6</ele>
        <time>2023-07-06T15:56:16Z</time>
      </trkpt>
      <trkpt lat="44.125" lon="1.24198">
        <ele>221</ele>
        <time>2023-07-06T15:56:23Z</time>
      </trkpt>
      <trkpt lat="44.12498" lon="1.242">
        <ele>221</ele>
        <time>2023-07-06T15:56:30Z</time>
      </trkpt>
      <trkpt lat="44.12498" lon="1.242">
        <ele>220.8</ele>
        <time>2023-07-06T15:56:31Z</time>
      </trkpt>
      <trkpt lat="44.12496" lon="1.24204">
        <ele>220.4</ele>
        <time>2023-07-06T15:56:35Z</time>
      </trkpt>
      <trkpt lat="44.12495" lon="1.24206">
        <ele>220.4</ele>
        <time>2023-07-06T15:56:36Z</time>
      </trkpt>
      <trkpt lat="44.12494" lon="1.24207">
        <ele>220.2</ele>
        <time>2023-07-06T15:56:37Z</time>
      </trkpt>
      <trkpt lat="44.12494" lon="1.24207">
        <ele>220.2</ele>
        <time>2023-07-06T15:56:38Z</time>
      </trkpt>
      <trkpt lat="44.12493" lon="1.2421">
        <ele>220.2</ele>
        <time>2023-07-06T15:56:40Z</time>
      </trkpt>
      <trkpt lat="44.12493" lon="1.24215">
        <ele>220</ele>
        <time>2023-07-06T15:56:42Z</time>
      </trkpt>
      <trkpt lat="44.12491" lon="1.2422">
        <ele>220</ele>
        <time>2023-07-06T15:56:44Z</time>
      </trkpt>
      <trkpt lat="44.12488" lon="1.24224">
        <ele>220</ele>
        <time>2023-07-06T15:56:46Z</time>
      </trkpt>
      <trkpt lat="44.12487" lon="1.24227">
        <ele>219.8</ele>
        <time>2023-07-06T15:56:48Z</time>
      </trkpt>
      <trkpt lat="44.12486" lon="1.24234">
        <ele>219.4</ele>
        <time>2023-07-06T15:56:52Z</time>
      </trkpt>
      <trkpt lat="44.12484" lon="1.24237">
        <ele>219.4</ele>
        <time>2023-07-06T15:56:55Z</time>
      </trkpt>
      <trkpt lat="44.12483" lon="1.24239">
        <ele>219</ele>
        <time>2023-07-06T15:56:57Z</time>
      </trkpt>
      <trkpt lat="44.12482" lon="1.24243">
        <ele>218.8</ele>
        <time>2023-07-06T15:56:59Z</time>
      </trkpt>
      <trkpt lat="44.1248" lon="1.24245">
        <ele>218.6</ele>
        <time>2023-07-06T15:57:00Z</time>
      </trkpt>
      <trkpt lat="44.12478" lon="1.24248">
        <ele>218.6</ele>
        <time>2023-07-06T15:57:01Z</time>
      </trkpt>
      <trkpt lat="44.12473" lon="1.24259">
        <ele>218.6</ele>
        <time>2023-07-06T15:57:07Z</time>
      </trkpt>
      <trkpt lat="44.1247" lon="1.24263">
        <ele>218.4</ele>
        <time>2023-07-06T15:57:09Z</time>
      </trkpt>
      <trkpt lat="44.12468" lon="1.24269">
        <ele>217.6</ele>
        <time>2023-07-06T15:57:12Z</time>
      </trkpt>
      <trkpt lat="44.12466" lon="1.24275">
        <ele>217.6</ele>
        <time>2023-07-06T15:57:15Z</time>
      </trkpt>
      <trkpt lat="44.12465" lon="1.24277">
        <ele>217.6</ele>
        <time>2023-07-06T15:57:16Z</time>
      </trkpt>
      <trkpt lat="44.12461" lon="1.24283">
        <ele>217.6</ele>
        <time>2023-07-06T15:57:20Z</time>
      </trkpt>
      <trkpt lat="44.12458" lon="1.24285">
        <ele>217.4</ele>
        <time>2023-07-06T15:57:23Z</time>
      </trkpt>
      <trkpt lat="44.12454" lon="1.24293">
        <ele>216.8</ele>
        <time>2023-07-06T15:57:29Z</time>
      </trkpt>
      <trkpt lat="44.12454" lon="1.24294">
        <ele>216.6</ele>
        <time>2023-07-06T15:57:30Z</time>
      </trkpt>
      <trkpt lat="44.12452" lon="1.24297">
        <ele>216.6</ele>
        <time>2023-07-06T15:57:33Z</time>
      </trkpt>
      <trkpt lat="44.12449" lon="1.243">
        <ele>216.4</ele>
        <time>2023-07-06T15:57:35Z</time>
      </trkpt>
      <trkpt lat="44.12448" lon="1.24301">
        <ele>216.4</ele>
        <time>2023-07-06T15:57:36Z</time>
      </trkpt>
      <trkpt lat="44.12446" lon="1.24303">
        <ele>216.2</ele>
        <time>2023-07-06T15:57:38Z</time>
      </trkpt>
      <trkpt lat="44.12442" lon="1.24311">
        <ele>216</ele>
        <time>2023-07-06T15:57:43Z</time>
      </trkpt>
      <trkpt lat="44.1244" lon="1.24315">
        <ele>215.8</ele>
        <time>2023-07-06T15:57:46Z</time>
      </trkpt>
      <trkpt lat="44.12439" lon="1.24316">
        <ele>215.6</ele>
        <time>2023-07-06T15:57:47Z</time>
      </trkpt>
      <trkpt lat="44.12438" lon="1.24319">
        <ele>215.4</ele>
        <time>2023-07-06T15:57:49Z</time>
      </trkpt>
      <trkpt lat="44.12434" lon="1.24323">
        <ele>215.2</ele>
        <time>2023-07-06T15:57:54Z</time>
      </trkpt>
      <trkpt lat="44.12432" lon="1.24327">
        <ele>215</ele>
        <time>2023-07-06T15:57:57Z</time>
      </trkpt>
      <trkpt lat="44.12427" lon="1.24334">
        <ele>214.6</ele>
        <time>2023-07-06T15:58:02Z</time>
      </trkpt>
      <trkpt lat="44.12426" lon="1.24336">
        <ele>214.6</ele>
        <time>2023-07-06T15:58:03Z</time>
      </trkpt>
      <trkpt lat="44.12422" lon="1.24347">
        <ele>213.8</ele>
        <time>2023-07-06T15:58:11Z</time>
      </trkpt>
      <trkpt lat="44.12421" lon="1.24351">
        <ele>213.6</ele>
        <time>2023-07-06T15:58:14Z</time>
      </trkpt>
      <trkpt lat="44.12421" lon="1.24352">
        <ele>213.6</ele>
        <time>2023-07-06T15:58:15Z</time>
      </trkpt>
      <trkpt lat="44.1242" lon="1.24354">
        <ele>213.4</ele>
        <time>2023-07-06T15:58:18Z</time>
      </trkpt>
      <trkpt lat="44.12416" lon="1.24362">
        <ele>213</ele>
        <time>2023-07-06T15:58:24Z</time>
      </trkpt>
      <trkpt lat="44.1241" lon="1.24371">
        <ele>212.6</ele>
        <time>2023-07-06T15:58:30Z</time>
      </trkpt>
      <trkpt lat="44.12409" lon="1.24372">
        <ele>212.4</ele>
        <time>2023-07-06T15:58:31Z</time>
      </trkpt>
      <trkpt lat="44.12406" lon="1.24378">
        <ele>212.4</ele>
        <time>2023-07-06T15:58:34Z</time>
      </trkpt>
      <trkpt lat="44.12402" lon="1.24385">
        <ele>212</ele>
        <time>2023-07-06T15:58:39Z</time>
      </trkpt>
      <trkpt lat="44.12397" lon="1.24394">
        <ele>211.6</ele>
        <time>2023-07-06T15:58:47Z</time>
      </trkpt>
      <trkpt lat="44.12393" lon="1.24405">
        <ele>211.4</ele>
        <time>2023-07-06T15:58:53Z</time>
      </trkpt>
      <trkpt lat="44.12393" lon="1.24407">
        <ele>211.4</ele>
        <time>2023-07-06T15:58:54Z</time>
      </trkpt>
      <trkpt lat="44.12386" lon="1.24424">
        <ele>210.8</ele>
        <time>2023-07-06T15:59:03Z</time>
      </trkpt>
      <trkpt lat="44.12385" lon="1.2443">
        <ele>210.6</ele>
        <time>2023-07-06T15:59:06Z</time>
      </trkpt>
      <trkpt lat="44.12384" lon="1.24433">
        <ele>210.6</ele>
        <time>2023-07-06T15:59:08Z</time>
      </trkpt>
      <trkpt lat="44.12383" lon="1.24436">
        <ele>210.6</ele>
        <time>2023-07-06T15:59:10Z</time>
      </trkpt>
      <trkpt lat="44.12382" lon="1.24437">
        <ele>210.6</ele>
        <time>2023-07-06T15:59:11Z</time>
      </trkpt>
      <trkpt lat="44.12381" lon="1.24438">
        <ele>210.2</ele>
        <time>2023-07-06T15:59:12Z</time>
      </trkpt>
      <trkpt lat="44.12376" lon="1.24447">
        <ele>210</ele>
        <time>2023-07-06T15:59:18Z</time>
      </trkpt>
      <trkpt lat="44.12372" lon="1.24456">
        <ele>209.6</ele>
        <time>2023-07-06T15:59:25Z</time>
      </trkpt>
      <trkpt lat="44.1237" lon="1.24464">
        <ele>209.2</ele>
        <time>2023-07-06T15:59:30Z</time>
      </trkpt>
      <trkpt lat="44.12368" lon="1.2447">
        <ele>209</ele>
        <time>2023-07-06T15:59:32Z</time>
      </trkpt>
      <trkpt lat="44.12366" lon="1.24476">
        <ele>208.8</ele>
        <time>2023-07-06T15:59:37Z</time>
      </trkpt>
      <trkpt lat="44.12363" lon="1.24482">
        <ele>208.4</ele>
        <time>2023-07-06T15:59:41Z</time>
      </trkpt>
      <trkpt lat="44.12362" lon="1.24484">
        <ele>208.2</ele>
        <time>2023-07-06T15:59:42Z</time>
      </trkpt>
      <trkpt lat="44.12362" lon="1.24485">
        <ele>208.2</ele>
        <time>2023-07-06T15:59:43Z</time>
      </trkpt>
      <trkpt lat="44.12358" lon="1.24492">
        <ele>208</ele>
        <time>2023-07-06T15:59:48Z</time>
      </trkpt>
      <trkpt lat="44.12357" lon="1.24493">
        <ele>208</ele>
        <time>2023-07-06T15:59:49Z</time>
      </trkpt>
      <trkpt lat="44.12356" lon="1.24497">
        <ele>208</ele>
        <time>2023-07-06T15:59:52Z</time>
      </trkpt>
      <trkpt lat="44.12356" lon="1.24498">
        <ele>208.2</ele>
        <time>2023-07-06T15:59:53Z</time>
      </trkpt>
      <trkpt lat="44.12353" lon="1.24509">
        <ele>207.8</ele>
        <time>2023-07-06T15:59:59Z</time>
      </trkpt>
      <trkpt lat="44.12352" lon="1.24511">
        <ele>207.8</ele>
        <time>2023-07-06T16:00:01Z</time>
      </trkpt>
      <trkpt lat="44.12349" lon="1.24518">
        <ele>207.8</ele>
        <time>2023-07-06T16:00:06Z</time>
      </trkpt>
      <trkpt lat="44.12346" lon="1.24525">
        <ele>207.4</ele>
        <time>2023-07-06T16:00:12Z</time>
      </trkpt>
      <trkpt lat="44.12345" lon="1.24528">
        <ele>207.2</ele>
        <time>2023-07-06T16:00:14Z</time>
      </trkpt>
      <trkpt lat="44.12344" lon="1.24529">
        <ele>207</ele>
        <time>2023-07-06T16:00:15Z</time>
      </trkpt>
      <trkpt lat="44.12342" lon="1.24534">
        <ele>207</ele>
        <time>2023-07-06T16:00:18Z</time>
      </trkpt>
      <trkpt lat="44.12341" lon="1.24536">
        <ele>207.2</ele>
        <time>2023-07-06T16:00:20Z</time>
      </trkpt>
      <trkpt lat="44.12341" lon="1.24538">
        <ele>207.2</ele>
        <time>2023-07-06T16:00:21Z</time>
      </trkpt>
      <trkpt lat="44.12341" lon="1.24539">
        <ele>207.2</ele>
        <time>2023-07-06T16:00:22Z</time>
      </trkpt>
      <trkpt lat="44.12338" lon="1.24545">
        <ele>207.4</ele>
        <time>2023-07-06T16:00:27Z</time>
      </trkpt>
      <trkpt lat="44.12338" lon="1.24547">
        <ele>207.4</ele>
        <time>2023-07-06T16:00:28Z</time>
      </trkpt>
      <trkpt lat="44.12337" lon="1.24553">
        <ele>207.4</ele>
        <time>2023-07-06T16:00:32Z</time>
      </trkpt>
      <trkpt lat="44.12335" lon="1.24556">
        <ele>207.4</ele>
        <time>2023-07-06T16:00:34Z</time>
      </trkpt>
      <trkpt lat="44.1233" lon="1.24564">
        <ele>207.2</ele>
        <time>2023-07-06T16:00:40Z</time>
      </trkpt>
      <trkpt lat="44.12331" lon="1.24567">
        <ele>207.2</ele>
        <time>2023-07-06T16:00:42Z</time>
      </trkpt>
      <trkpt lat="44.12331" lon="1.2457">
        <ele>207.2</ele>
        <time>2023-07-06T16:00:44Z</time>
      </trkpt>
      <trkpt lat="44.1233" lon="1.24573">
        <ele>207.2</ele>
        <time>2023-07-06T16:00:47Z</time>
      </trkpt>
      <trkpt lat="44.12329" lon="1.24579">
        <ele>207.2</ele>
        <time>2023-07-06T16:00:50Z</time>
      </trkpt>
      <trkpt lat="44.12327" lon="1.24584">
        <ele>207.2</ele>
        <time>2023-07-06T16:00:52Z</time>
      </trkpt>
      <trkpt lat="44.12326" lon="1.24591">
        <ele>207.4</ele>
        <time>2023-07-06T16:00:55Z</time>
      </trkpt>
      <trkpt lat="44.12325" lon="1.24593">
        <ele>207.4</ele>
        <time>2023-07-06T16:00:56Z</time>
      </trkpt>
      <trkpt lat="44.12323" lon="1.24604">
        <ele>207.8</ele>
        <time>2023-07-06T16:01:02Z</time>
      </trkpt>
      <trkpt lat="44.12322" lon="1.24606">
        <ele>208</ele>
        <time>2023-07-06T16:01:03Z</time>
      </trkpt>
      <trkpt lat="44.12321" lon="1.24608">
        <ele>208</ele>
        <time>2023-07-06T16:01:04Z</time>
      </trkpt>
      <trkpt lat="44.1232" lon="1.24612">
        <ele>208.2</ele>
        <time>2023-07-06T16:01:06Z</time>
      </trkpt>
      <trkpt lat="44.12318" lon="1.24617">
        <ele>208.2</ele>
        <time>2023-07-06T16:01:09Z</time>
      </trkpt>
      <trkpt lat="44.12316" lon="1.24623">
        <ele>208.2</ele>
        <time>2023-07-06T16:01:13Z</time>
      </trkpt>
      <trkpt lat="44.12315" lon="1.2463">
        <ele>208.8</ele>
        <time>2023-07-06T16:01:17Z</time>
      </trkpt>
      <trkpt lat="44.12314" lon="1.24637">
        <ele>208.8</ele>
        <time>2023-07-06T16:01:21Z</time>
      </trkpt>
      <trkpt lat="44.12314" lon="1.24646">
        <ele>209.2</ele>
        <time>2023-07-06T16:01:27Z</time>
      </trkpt>
      <trkpt lat="44.12312" lon="1.24651">
        <ele>209.4</ele>
        <time>2023-07-06T16:01:31Z</time>
      </trkpt>
      <trkpt lat="44.12306" lon="1.24665">
        <ele>210</ele>
        <time>2023-07-06T16:01:39Z</time>
      </trkpt>
      <trkpt lat="44.12306" lon="1.24666">
        <ele>210</ele>
        <time>2023-07-06T16:01:40Z</time>
      </trkpt>
      <trkpt lat="44.12305" lon="1.24669">
        <ele>210.2</ele>
        <time>2023-07-06T16:01:42Z</time>
      </trkpt>
      <trkpt lat="44.12305" lon="1.24673">
        <ele>210.8</ele>
        <time>2023-07-06T16:01:45Z</time>
      </trkpt>
      <trkpt lat="44.12308" lon="1.24679">
        <ele>211.2</ele>
        <time>2023-07-06T16:01:50Z</time>
      </trkpt>
      <trkpt lat="44.12311" lon="1.24682">
        <ele>211.6</ele>
        <time>2023-07-06T16:01:53Z</time>
      </trkpt>
      <trkpt lat="44.12312" lon="1.24684">
        <ele>211.8</ele>
        <time>2023-07-06T16:01:55Z</time>
      </trkpt>
      <trkpt lat="44.12314" lon="1.24685">
        <ele>212.4</ele>
        <time>2023-07-06T16:01:57Z</time>
      </trkpt>
      <trkpt lat="44.12316" lon="1.24684">
        <ele>212.6</ele>
        <time>2023-07-06T16:01:59Z</time>
      </trkpt>
      <trkpt lat="44.12319" lon="1.24683">
        <ele>212.6</ele>
        <time>2023-07-06T16:02:01Z</time>
      </trkpt>
      <trkpt lat="44.12325" lon="1.24684">
        <ele>213</ele>
        <time>2023-07-06T16:02:07Z</time>
      </trkpt>
      <trkpt lat="44.12326" lon="1.24684">
        <ele>213</ele>
        <time>2023-07-06T16:02:08Z</time>
      </trkpt>
      <trkpt lat="44.12328" lon="1.24684">
        <ele>213.4</ele>
        <time>2023-07-06T16:02:10Z</time>
      </trkpt>
      <trkpt lat="44.12333" lon="1.24687">
        <ele>214.2</ele>
        <time>2023-07-06T16:02:17Z</time>
      </trkpt>
      <trkpt lat="44.12335" lon="1.24687">
        <ele>214.4</ele>
        <time>2023-07-06T16:02:19Z</time>
      </trkpt>
      <trkpt lat="44.12337" lon="1.24688">
        <ele>214.8</ele>
        <time>2023-07-06T16:02:21Z</time>
      </trkpt>
      <trkpt lat="44.12339" lon="1.24688">
        <ele>215</ele>
        <time>2023-07-06T16:02:23Z</time>
      </trkpt>
      <trkpt lat="44.12341" lon="1.24688">
        <ele>215.2</ele>
        <time>2023-07-06T16:02:25Z</time>
      </trkpt>
      <trkpt lat="44.12345" lon="1.24688">
        <ele>215.6</ele>
        <time>2023-07-06T16:02:29Z</time>
      </trkpt>
      <trkpt lat="44.12351" lon="1.2469">
        <ele>216</ele>
        <time>2023-07-06T16:02:35Z</time>
      </trkpt>
      <trkpt lat="44.12353" lon="1.2469">
        <ele>216</ele>
        <time>2023-07-06T16:02:37Z</time>
      </trkpt>
      <trkpt lat="44.12358" lon="1.24692">
        <ele>216.2</ele>
        <time>2023-07-06T16:02:41Z</time>
      </trkpt>
      <trkpt lat="44.12364" lon="1.24697">
        <ele>216.4</ele>
        <time>2023-07-06T16:02:48Z</time>
      </trkpt>
      <trkpt lat="44.12364" lon="1.24697">
        <ele>216.6</ele>
        <time>2023-07-06T16:02:49Z</time>
      </trkpt>
      <trkpt lat="44.12365" lon="1.24698">
        <ele>216.6</ele>
        <time>2023-07-06T16:02:50Z</time>
      </trkpt>
      <trkpt lat="44.12367" lon="1.247">
        <ele>216.6</ele>
        <time>2023-07-06T16:02:53Z</time>
      </trkpt>
      <trkpt lat="44.12369" lon="1.24701">
        <ele>216.6</ele>
        <time>2023-07-06T16:02:55Z</time>
      </trkpt>
      <trkpt lat="44.12378" lon="1.24703">
        <ele>217</ele>
        <time>2023-07-06T16:03:02Z</time>
      </trkpt>
      <trkpt lat="44.12379" lon="1.24703">
        <ele>217</ele>
        <time>2023-07-06T16:03:03Z</time>
      </trkpt>
      <trkpt lat="44.12386" lon="1.247">
        <ele>217.2</ele>
        <time>2023-07-06T16:03:08Z</time>
      </trkpt>
      <trkpt lat="44.12389" lon="1.24697">
        <ele>217.4</ele>
        <time>2023-07-06T16:03:11Z</time>
      </trkpt>
      <trkpt lat="44.12394" lon="1.24694">
        <ele>217.4</ele>
        <time>2023-07-06T16:03:15Z</time>
      </trkpt>
      <trkpt lat="44.12397" lon="1.24692">
        <ele>217.2</ele>
        <time>2023-07-06T16:03:18Z</time>
      </trkpt>
      <trkpt lat="44.12402" lon="1.2469">
        <ele>217.2</ele>
        <time>2023-07-06T16:03:22Z</time>
      </trkpt>
      <trkpt lat="44.1241" lon="1.24682">
        <ele>217</ele>
        <time>2023-07-06T16:03:28Z</time>
      </trkpt>
      <trkpt lat="44.12416" lon="1.24677">
        <ele>217.2</ele>
        <time>2023-07-06T16:03:32Z</time>
      </trkpt>
      <trkpt lat="44.12416" lon="1.24677">
        <ele>217.2</ele>
        <time>2023-07-06T16:03:33Z</time>
      </trkpt>
      <trkpt lat="44.12418" lon="1.24677">
        <ele>217.2</ele>
        <time>2023-07-06T16:03:34Z</time>
      </trkpt>
      <trkpt lat="44.12419" lon="1.24677">
        <ele>217.2</ele>
        <time>2023-07-06T16:03:35Z</time>
      </trkpt>
      <trkpt lat="44.12423" lon="1.24675">
        <ele>217.6</ele>
        <time>2023-07-06T16:03:39Z</time>
      </trkpt>
      <trkpt lat="44.12427" lon="1.24673">
        <ele>217.8</ele>
        <time>2023-07-06T16:03:42Z</time>
      </trkpt>
      <trkpt lat="44.12428" lon="1.24673">
        <ele>217.8</ele>
        <time>2023-07-06T16:03:43Z</time>
      </trkpt>
      <trkpt lat="44.12429" lon="1.24672">
        <ele>217.8</ele>
        <time>2023-07-06T16:03:44Z</time>
      </trkpt>
      <trkpt lat="44.12431" lon="1.24672">
        <ele>218</ele>
        <time>2023-07-06T16:03:47Z</time>
      </trkpt>
      <trkpt lat="44.12433" lon="1.24672">
        <ele>218</ele>
        <time>2023-07-06T16:03:49Z</time>
      </trkpt>
      <trkpt lat="44.12443" lon="1.24674">
        <ele>217.8</ele>
        <time>2023-07-06T16:03:57Z</time>
      </trkpt>
      <trkpt lat="44.12453" lon="1.24675">
        <ele>218.2</ele>
        <time>2023-07-06T16:04:05Z</time>
      </trkpt>
      <trkpt lat="44.12454" lon="1.24676">
        <ele>218.2</ele>
        <time>2023-07-06T16:04:07Z</time>
      </trkpt>
      <trkpt lat="44.12456" lon="1.24675">
        <ele>218.2</ele>
        <time>2023-07-06T16:04:09Z</time>
      </trkpt>
      <trkpt lat="44.12462" lon="1.24674">
        <ele>218.6</ele>
        <time>2023-07-06T16:04:14Z</time>
      </trkpt>
      <trkpt lat="44.12463" lon="1.24674">
        <ele>218.8</ele>
        <time>2023-07-06T16:04:15Z</time>
      </trkpt>
      <trkpt lat="44.12465" lon="1.24673">
        <ele>218.8</ele>
        <time>2023-07-06T16:04:17Z</time>
      </trkpt>
      <trkpt lat="44.12472" lon="1.24671">
        <ele>219</ele>
        <time>2023-07-06T16:04:23Z</time>
      </trkpt>
      <trkpt lat="44.12478" lon="1.24672">
        <ele>219.2</ele>
        <time>2023-07-06T16:04:28Z</time>
      </trkpt>
      <trkpt lat="44.12481" lon="1.24672">
        <ele>219.4</ele>
        <time>2023-07-06T16:04:30Z</time>
      </trkpt>
      <trkpt lat="44.12485" lon="1.24674">
        <ele>219.4</ele>
        <time>2023-07-06T16:04:35Z</time>
      </trkpt>
      <trkpt lat="44.1249" lon="1.24675">
        <ele>219.8</ele>
        <time>2023-07-06T16:04:38Z</time>
      </trkpt>
      <trkpt lat="44.1249" lon="1.24675">
        <ele>219.8</ele>
        <time>2023-07-06T16:04:39Z</time>
      </trkpt>
      <trkpt lat="44.12501" lon="1.24675">
        <ele>220</ele>
        <time>2023-07-06T16:04:48Z</time>
      </trkpt>
      <trkpt lat="44.12506" lon="1.24674">
        <ele>220</ele>
        <time>2023-07-06T16:04:52Z</time>
      </trkpt>
      <trkpt lat="44.12511" lon="1.24672">
        <ele>220</ele>
        <time>2023-07-06T16:04:56Z</time>
      </trkpt>
      <trkpt lat="44.1252" lon="1.24669">
        <ele>219.2</ele>
        <time>2023-07-06T16:05:05Z</time>
      </trkpt>
      <trkpt lat="44.12521" lon="1.24669">
        <ele>219</ele>
        <time>2023-07-06T16:05:06Z</time>
      </trkpt>
      <trkpt lat="44.12525" lon="1.24669">
        <ele>218.6</ele>
        <time>2023-07-06T16:05:10Z</time>
      </trkpt>
      <trkpt lat="44.12527" lon="1.24669">
        <ele>218.4</ele>
        <time>2023-07-06T16:05:11Z</time>
      </trkpt>
      <trkpt lat="44.12528" lon="1.24669">
        <ele>218.4</ele>
        <time>2023-07-06T16:05:12Z</time>
      </trkpt>
      <trkpt lat="44.12531" lon="1.24669">
        <ele>218.2</ele>
        <time>2023-07-06T16:05:14Z</time>
      </trkpt>
      <trkpt lat="44.12536" lon="1.2467">
        <ele>217.8</ele>
        <time>2023-07-06T16:05:19Z</time>
      </trkpt>
      <trkpt lat="44.12538" lon="1.24671">
        <ele>217.6</ele>
        <time>2023-07-06T16:05:21Z</time>
      </trkpt>
      <trkpt lat="44.12542" lon="1.24671">
        <ele>217.4</ele>
        <time>2023-07-06T16:05:23Z</time>
      </trkpt>
      <trkpt lat="44.12545" lon="1.24673">
        <ele>217.4</ele>
        <time>2023-07-06T16:05:28Z</time>
      </trkpt>
    </trkseg>
  </trk>
</gpx>